<?xml version="1.0" encoding="UTF-8" standalone="no" ?>
<gpx xmlns="http://www.topografix.com/GPX/1/1" xmlns:xsi="http://www.w3.org/2001/XMLSchema-instance" xsi:schemaLocation="http://www.topografix.com/GPX/1/1 http://www.topografix.com/GPX/1/1/gpx.xsd" version="1.1" creator="VisuGPX - https://www.visugpx.com">
  <metadata>
    <name>mont vinaigre </name>
    <desc><![CDATA[montée en vtt au Mont Vinaigre]]></desc>
  </metadata>
  <trk>
    <name><![CDATA[mont vinaigre _1]]></name>
    <trkseg>
      <trkpt lat="43.47284" lon="6.75356">
        <ele>35</ele>
        <time>2013-09-18T10:18:34.000Z</time>
      </trkpt>
      <trkpt lat="43.4728" lon="6.7536">
        <ele>35</ele>
        <time>2013-09-18T10:18:35.000Z</time>
      </trkpt>
      <trkpt lat="43.47279" lon="6.7536">
        <ele>35</ele>
        <time>2013-09-18T10:18:36.000Z</time>
      </trkpt>
      <trkpt lat="43.47279" lon="6.7536">
        <ele>35</ele>
        <time>2013-09-18T10:18:37.000Z</time>
      </trkpt>
      <trkpt lat="43.47279" lon="6.7536">
        <ele>35</ele>
        <time>2013-09-18T10:18:42.000Z</time>
      </trkpt>
      <trkpt lat="43.4728" lon="6.7536">
        <ele>35</ele>
        <time>2013-09-18T10:18:46.000Z</time>
      </trkpt>
      <trkpt lat="43.4728" lon="6.7536">
        <ele>35</ele>
        <time>2013-09-18T10:18:47.000Z</time>
      </trkpt>
      <trkpt lat="43.4728" lon="6.7536">
        <ele>35</ele>
        <time>2013-09-18T10:18:48.000Z</time>
      </trkpt>
      <trkpt lat="43.47282" lon="6.75359">
        <ele>35</ele>
        <time>2013-09-18T10:18:50.000Z</time>
      </trkpt>
      <trkpt lat="43.47283" lon="6.75358">
        <ele>35</ele>
        <time>2013-09-18T10:18:51.000Z</time>
      </trkpt>
      <trkpt lat="43.47283" lon="6.75358">
        <ele>35</ele>
        <time>2013-09-18T10:18:52.000Z</time>
      </trkpt>
      <trkpt lat="43.47283" lon="6.75358">
        <ele>35</ele>
        <time>2013-09-18T10:18:53.000Z</time>
      </trkpt>
      <trkpt lat="43.47283" lon="6.7536">
        <ele>35</ele>
        <time>2013-09-18T10:18:54.000Z</time>
      </trkpt>
      <trkpt lat="43.47282" lon="6.75363">
        <ele>35</ele>
        <time>2013-09-18T10:18:55.000Z</time>
      </trkpt>
      <trkpt lat="43.47282" lon="6.75366">
        <ele>35</ele>
        <time>2013-09-18T10:18:56.000Z</time>
      </trkpt>
      <trkpt lat="43.47282" lon="6.7537">
        <ele>35</ele>
        <time>2013-09-18T10:18:57.000Z</time>
      </trkpt>
      <trkpt lat="43.47282" lon="6.75378">
        <ele>35</ele>
        <time>2013-09-18T10:18:59.000Z</time>
      </trkpt>
      <trkpt lat="43.47281" lon="6.75383">
        <ele>35</ele>
        <time>2013-09-18T10:19:00.000Z</time>
      </trkpt>
      <trkpt lat="43.47281" lon="6.75388">
        <ele>35</ele>
        <time>2013-09-18T10:19:01.000Z</time>
      </trkpt>
      <trkpt lat="43.47281" lon="6.75393">
        <ele>35</ele>
        <time>2013-09-18T10:19:02.000Z</time>
      </trkpt>
      <trkpt lat="43.4728" lon="6.75398">
        <ele>35</ele>
        <time>2013-09-18T10:19:03.000Z</time>
      </trkpt>
      <trkpt lat="43.4728" lon="6.75403">
        <ele>35</ele>
        <time>2013-09-18T10:19:04.000Z</time>
      </trkpt>
      <trkpt lat="43.47279" lon="6.75408">
        <ele>35</ele>
        <time>2013-09-18T10:19:05.000Z</time>
      </trkpt>
      <trkpt lat="43.47279" lon="6.75412">
        <ele>34</ele>
        <time>2013-09-18T10:19:06.000Z</time>
      </trkpt>
      <trkpt lat="43.47278" lon="6.75417">
        <ele>35</ele>
        <time>2013-09-18T10:19:07.000Z</time>
      </trkpt>
      <trkpt lat="43.47277" lon="6.75421">
        <ele>35</ele>
        <time>2013-09-18T10:19:08.000Z</time>
      </trkpt>
      <trkpt lat="43.47276" lon="6.75426">
        <ele>35</ele>
        <time>2013-09-18T10:19:09.000Z</time>
      </trkpt>
      <trkpt lat="43.47275" lon="6.75431">
        <ele>35</ele>
        <time>2013-09-18T10:19:10.000Z</time>
      </trkpt>
      <trkpt lat="43.47275" lon="6.75435">
        <ele>35</ele>
        <time>2013-09-18T10:19:11.000Z</time>
      </trkpt>
      <trkpt lat="43.47274" lon="6.7544">
        <ele>35</ele>
        <time>2013-09-18T10:19:12.000Z</time>
      </trkpt>
      <trkpt lat="43.47273" lon="6.75446">
        <ele>35</ele>
        <time>2013-09-18T10:19:13.000Z</time>
      </trkpt>
      <trkpt lat="43.47271" lon="6.75451">
        <ele>35</ele>
        <time>2013-09-18T10:19:14.000Z</time>
      </trkpt>
      <trkpt lat="43.4727" lon="6.75456">
        <ele>35</ele>
        <time>2013-09-18T10:19:15.000Z</time>
      </trkpt>
      <trkpt lat="43.47269" lon="6.75462">
        <ele>35</ele>
        <time>2013-09-18T10:19:16.000Z</time>
      </trkpt>
      <trkpt lat="43.47267" lon="6.75467">
        <ele>35</ele>
        <time>2013-09-18T10:19:17.000Z</time>
      </trkpt>
      <trkpt lat="43.47266" lon="6.75473">
        <ele>35</ele>
        <time>2013-09-18T10:19:18.000Z</time>
      </trkpt>
      <trkpt lat="43.47264" lon="6.75478">
        <ele>34</ele>
        <time>2013-09-18T10:19:19.000Z</time>
      </trkpt>
      <trkpt lat="43.47262" lon="6.75484">
        <ele>34</ele>
        <time>2013-09-18T10:19:20.000Z</time>
      </trkpt>
      <trkpt lat="43.4726" lon="6.7549">
        <ele>34</ele>
        <time>2013-09-18T10:19:21.000Z</time>
      </trkpt>
      <trkpt lat="43.47258" lon="6.75495">
        <ele>33</ele>
        <time>2013-09-18T10:19:22.000Z</time>
      </trkpt>
      <trkpt lat="43.47257" lon="6.755">
        <ele>33</ele>
        <time>2013-09-18T10:19:23.000Z</time>
      </trkpt>
      <trkpt lat="43.47255" lon="6.75505">
        <ele>33</ele>
        <time>2013-09-18T10:19:24.000Z</time>
      </trkpt>
      <trkpt lat="43.47253" lon="6.7551">
        <ele>34</ele>
        <time>2013-09-18T10:19:25.000Z</time>
      </trkpt>
      <trkpt lat="43.47251" lon="6.75515">
        <ele>34</ele>
        <time>2013-09-18T10:19:26.000Z</time>
      </trkpt>
      <trkpt lat="43.47249" lon="6.75519">
        <ele>33</ele>
        <time>2013-09-18T10:19:27.000Z</time>
      </trkpt>
      <trkpt lat="43.47247" lon="6.75524">
        <ele>33</ele>
        <time>2013-09-18T10:19:28.000Z</time>
      </trkpt>
      <trkpt lat="43.47245" lon="6.75529">
        <ele>33</ele>
        <time>2013-09-18T10:19:29.000Z</time>
      </trkpt>
      <trkpt lat="43.47242" lon="6.75533">
        <ele>33</ele>
        <time>2013-09-18T10:19:30.000Z</time>
      </trkpt>
      <trkpt lat="43.4724" lon="6.75538">
        <ele>33</ele>
        <time>2013-09-18T10:19:31.000Z</time>
      </trkpt>
      <trkpt lat="43.47237" lon="6.75542">
        <ele>33</ele>
        <time>2013-09-18T10:19:32.000Z</time>
      </trkpt>
      <trkpt lat="43.47235" lon="6.75547">
        <ele>33</ele>
        <time>2013-09-18T10:19:33.000Z</time>
      </trkpt>
      <trkpt lat="43.47228" lon="6.75554">
        <ele>33</ele>
        <time>2013-09-18T10:19:34.000Z</time>
      </trkpt>
      <trkpt lat="43.47226" lon="6.75559">
        <ele>33</ele>
        <time>2013-09-18T10:19:35.000Z</time>
      </trkpt>
      <trkpt lat="43.47223" lon="6.75565">
        <ele>33</ele>
        <time>2013-09-18T10:19:37.000Z</time>
      </trkpt>
      <trkpt lat="43.4722" lon="6.7557">
        <ele>33</ele>
        <time>2013-09-18T10:19:38.000Z</time>
      </trkpt>
      <trkpt lat="43.47218" lon="6.75575">
        <ele>33</ele>
        <time>2013-09-18T10:19:39.000Z</time>
      </trkpt>
      <trkpt lat="43.47215" lon="6.7558">
        <ele>33</ele>
        <time>2013-09-18T10:19:40.000Z</time>
      </trkpt>
      <trkpt lat="43.47212" lon="6.75584">
        <ele>33</ele>
        <time>2013-09-18T10:19:41.000Z</time>
      </trkpt>
      <trkpt lat="43.4721" lon="6.75589">
        <ele>34</ele>
        <time>2013-09-18T10:19:42.000Z</time>
      </trkpt>
      <trkpt lat="43.47207" lon="6.75594">
        <ele>34</ele>
        <time>2013-09-18T10:19:43.000Z</time>
      </trkpt>
      <trkpt lat="43.47205" lon="6.75598">
        <ele>34</ele>
        <time>2013-09-18T10:19:44.000Z</time>
      </trkpt>
      <trkpt lat="43.47202" lon="6.75603">
        <ele>34</ele>
        <time>2013-09-18T10:19:45.000Z</time>
      </trkpt>
      <trkpt lat="43.472" lon="6.75608">
        <ele>34</ele>
        <time>2013-09-18T10:19:46.000Z</time>
      </trkpt>
      <trkpt lat="43.47197" lon="6.75613">
        <ele>34</ele>
        <time>2013-09-18T10:19:47.000Z</time>
      </trkpt>
      <trkpt lat="43.47195" lon="6.75618">
        <ele>34</ele>
        <time>2013-09-18T10:19:48.000Z</time>
      </trkpt>
      <trkpt lat="43.47192" lon="6.75623">
        <ele>34</ele>
        <time>2013-09-18T10:19:49.000Z</time>
      </trkpt>
      <trkpt lat="43.4719" lon="6.75629">
        <ele>34</ele>
        <time>2013-09-18T10:19:50.000Z</time>
      </trkpt>
      <trkpt lat="43.47189" lon="6.75634">
        <ele>34</ele>
        <time>2013-09-18T10:19:51.000Z</time>
      </trkpt>
      <trkpt lat="43.47187" lon="6.7564">
        <ele>34</ele>
        <time>2013-09-18T10:19:52.000Z</time>
      </trkpt>
      <trkpt lat="43.47186" lon="6.75646">
        <ele>34</ele>
        <time>2013-09-18T10:19:53.000Z</time>
      </trkpt>
      <trkpt lat="43.47185" lon="6.75652">
        <ele>34</ele>
        <time>2013-09-18T10:19:54.000Z</time>
      </trkpt>
      <trkpt lat="43.47185" lon="6.75657">
        <ele>34</ele>
        <time>2013-09-18T10:19:55.000Z</time>
      </trkpt>
      <trkpt lat="43.47184" lon="6.75663">
        <ele>34</ele>
        <time>2013-09-18T10:19:56.000Z</time>
      </trkpt>
      <trkpt lat="43.47184" lon="6.75668">
        <ele>36</ele>
        <time>2013-09-18T10:19:57.000Z</time>
      </trkpt>
      <trkpt lat="43.47184" lon="6.75674">
        <ele>36</ele>
        <time>2013-09-18T10:19:58.000Z</time>
      </trkpt>
      <trkpt lat="43.47185" lon="6.75679">
        <ele>36</ele>
        <time>2013-09-18T10:19:59.000Z</time>
      </trkpt>
      <trkpt lat="43.47185" lon="6.75684">
        <ele>36</ele>
        <time>2013-09-18T10:20:00.000Z</time>
      </trkpt>
      <trkpt lat="43.47185" lon="6.75688">
        <ele>37</ele>
        <time>2013-09-18T10:20:01.000Z</time>
      </trkpt>
      <trkpt lat="43.47185" lon="6.75697">
        <ele>37</ele>
        <time>2013-09-18T10:20:03.000Z</time>
      </trkpt>
      <trkpt lat="43.47185" lon="6.75701">
        <ele>37</ele>
        <time>2013-09-18T10:20:04.000Z</time>
      </trkpt>
      <trkpt lat="43.47185" lon="6.75709">
        <ele>37</ele>
        <time>2013-09-18T10:20:06.000Z</time>
      </trkpt>
      <trkpt lat="43.47184" lon="6.75713">
        <ele>38</ele>
        <time>2013-09-18T10:20:07.000Z</time>
      </trkpt>
      <trkpt lat="43.47184" lon="6.75717">
        <ele>38</ele>
        <time>2013-09-18T10:20:08.000Z</time>
      </trkpt>
      <trkpt lat="43.47183" lon="6.75721">
        <ele>38</ele>
        <time>2013-09-18T10:20:09.000Z</time>
      </trkpt>
      <trkpt lat="43.47183" lon="6.75725">
        <ele>38</ele>
        <time>2013-09-18T10:20:10.000Z</time>
      </trkpt>
      <trkpt lat="43.47182" lon="6.75729">
        <ele>38</ele>
        <time>2013-09-18T10:20:11.000Z</time>
      </trkpt>
      <trkpt lat="43.4718" lon="6.75733">
        <ele>37</ele>
        <time>2013-09-18T10:20:12.000Z</time>
      </trkpt>
      <trkpt lat="43.47179" lon="6.75737">
        <ele>37</ele>
        <time>2013-09-18T10:20:13.000Z</time>
      </trkpt>
      <trkpt lat="43.47178" lon="6.75741">
        <ele>37</ele>
        <time>2013-09-18T10:20:14.000Z</time>
      </trkpt>
      <trkpt lat="43.47176" lon="6.75744">
        <ele>37</ele>
        <time>2013-09-18T10:20:15.000Z</time>
      </trkpt>
      <trkpt lat="43.47174" lon="6.75747">
        <ele>37</ele>
        <time>2013-09-18T10:20:16.000Z</time>
      </trkpt>
      <trkpt lat="43.47173" lon="6.75751">
        <ele>38</ele>
        <time>2013-09-18T10:20:17.000Z</time>
      </trkpt>
      <trkpt lat="43.47172" lon="6.75755">
        <ele>38</ele>
        <time>2013-09-18T10:20:18.000Z</time>
      </trkpt>
      <trkpt lat="43.47171" lon="6.75759">
        <ele>38</ele>
        <time>2013-09-18T10:20:19.000Z</time>
      </trkpt>
      <trkpt lat="43.47169" lon="6.75763">
        <ele>39</ele>
        <time>2013-09-18T10:20:20.000Z</time>
      </trkpt>
      <trkpt lat="43.47168" lon="6.75768">
        <ele>39</ele>
        <time>2013-09-18T10:20:21.000Z</time>
      </trkpt>
      <trkpt lat="43.47167" lon="6.75772">
        <ele>40</ele>
        <time>2013-09-18T10:20:22.000Z</time>
      </trkpt>
      <trkpt lat="43.47166" lon="6.75777">
        <ele>37</ele>
        <time>2013-09-18T10:20:23.000Z</time>
      </trkpt>
      <trkpt lat="43.47165" lon="6.75781">
        <ele>37</ele>
        <time>2013-09-18T10:20:24.000Z</time>
      </trkpt>
      <trkpt lat="43.47164" lon="6.75786">
        <ele>38</ele>
        <time>2013-09-18T10:20:25.000Z</time>
      </trkpt>
      <trkpt lat="43.47163" lon="6.75791">
        <ele>38</ele>
        <time>2013-09-18T10:20:26.000Z</time>
      </trkpt>
      <trkpt lat="43.47163" lon="6.75796">
        <ele>38</ele>
        <time>2013-09-18T10:20:27.000Z</time>
      </trkpt>
      <trkpt lat="43.47163" lon="6.75801">
        <ele>38</ele>
        <time>2013-09-18T10:20:28.000Z</time>
      </trkpt>
      <trkpt lat="43.47162" lon="6.75807">
        <ele>38</ele>
        <time>2013-09-18T10:20:29.000Z</time>
      </trkpt>
      <trkpt lat="43.47162" lon="6.75812">
        <ele>38</ele>
        <time>2013-09-18T10:20:30.000Z</time>
      </trkpt>
      <trkpt lat="43.47162" lon="6.75822">
        <ele>38</ele>
        <time>2013-09-18T10:20:32.000Z</time>
      </trkpt>
      <trkpt lat="43.47162" lon="6.75833">
        <ele>39</ele>
        <time>2013-09-18T10:20:34.000Z</time>
      </trkpt>
      <trkpt lat="43.47161" lon="6.75838">
        <ele>39</ele>
        <time>2013-09-18T10:20:35.000Z</time>
      </trkpt>
      <trkpt lat="43.4716" lon="6.75843">
        <ele>39</ele>
        <time>2013-09-18T10:20:36.000Z</time>
      </trkpt>
      <trkpt lat="43.47159" lon="6.75849">
        <ele>39</ele>
        <time>2013-09-18T10:20:37.000Z</time>
      </trkpt>
      <trkpt lat="43.47157" lon="6.75854">
        <ele>39</ele>
        <time>2013-09-18T10:20:38.000Z</time>
      </trkpt>
      <trkpt lat="43.47155" lon="6.75859">
        <ele>39</ele>
        <time>2013-09-18T10:20:39.000Z</time>
      </trkpt>
      <trkpt lat="43.47153" lon="6.75865">
        <ele>39</ele>
        <time>2013-09-18T10:20:40.000Z</time>
      </trkpt>
      <trkpt lat="43.4715" lon="6.75869">
        <ele>39</ele>
        <time>2013-09-18T10:20:41.000Z</time>
      </trkpt>
      <trkpt lat="43.47148" lon="6.75874">
        <ele>39</ele>
        <time>2013-09-18T10:20:42.000Z</time>
      </trkpt>
      <trkpt lat="43.47146" lon="6.75879">
        <ele>39</ele>
        <time>2013-09-18T10:20:43.000Z</time>
      </trkpt>
      <trkpt lat="43.47143" lon="6.75883">
        <ele>39</ele>
        <time>2013-09-18T10:20:44.000Z</time>
      </trkpt>
      <trkpt lat="43.47142" lon="6.75888">
        <ele>39</ele>
        <time>2013-09-18T10:20:45.000Z</time>
      </trkpt>
      <trkpt lat="43.47141" lon="6.75892">
        <ele>39</ele>
        <time>2013-09-18T10:20:46.000Z</time>
      </trkpt>
      <trkpt lat="43.4714" lon="6.75897">
        <ele>39</ele>
        <time>2013-09-18T10:20:47.000Z</time>
      </trkpt>
      <trkpt lat="43.47139" lon="6.75901">
        <ele>39</ele>
        <time>2013-09-18T10:20:48.000Z</time>
      </trkpt>
      <trkpt lat="43.47138" lon="6.75905">
        <ele>39</ele>
        <time>2013-09-18T10:20:49.000Z</time>
      </trkpt>
      <trkpt lat="43.47138" lon="6.75909">
        <ele>39</ele>
        <time>2013-09-18T10:20:50.000Z</time>
      </trkpt>
      <trkpt lat="43.47138" lon="6.75912">
        <ele>39</ele>
        <time>2013-09-18T10:20:51.000Z</time>
      </trkpt>
      <trkpt lat="43.47137" lon="6.75916">
        <ele>39</ele>
        <time>2013-09-18T10:20:52.000Z</time>
      </trkpt>
      <trkpt lat="43.47137" lon="6.75919">
        <ele>39</ele>
        <time>2013-09-18T10:20:53.000Z</time>
      </trkpt>
      <trkpt lat="43.47136" lon="6.75922">
        <ele>39</ele>
        <time>2013-09-18T10:20:54.000Z</time>
      </trkpt>
      <trkpt lat="43.47136" lon="6.75925">
        <ele>39</ele>
        <time>2013-09-18T10:20:55.000Z</time>
      </trkpt>
      <trkpt lat="43.47136" lon="6.75928">
        <ele>39</ele>
        <time>2013-09-18T10:20:56.000Z</time>
      </trkpt>
      <trkpt lat="43.47135" lon="6.75931">
        <ele>39</ele>
        <time>2013-09-18T10:20:57.000Z</time>
      </trkpt>
      <trkpt lat="43.47135" lon="6.75934">
        <ele>39</ele>
        <time>2013-09-18T10:20:58.000Z</time>
      </trkpt>
      <trkpt lat="43.47135" lon="6.75937">
        <ele>39</ele>
        <time>2013-09-18T10:20:59.000Z</time>
      </trkpt>
      <trkpt lat="43.47134" lon="6.7594">
        <ele>39</ele>
        <time>2013-09-18T10:21:00.000Z</time>
      </trkpt>
      <trkpt lat="43.47134" lon="6.75943">
        <ele>39</ele>
        <time>2013-09-18T10:21:01.000Z</time>
      </trkpt>
      <trkpt lat="43.47133" lon="6.75945">
        <ele>40</ele>
        <time>2013-09-18T10:21:02.000Z</time>
      </trkpt>
      <trkpt lat="43.47133" lon="6.75948">
        <ele>40</ele>
        <time>2013-09-18T10:21:03.000Z</time>
      </trkpt>
      <trkpt lat="43.47133" lon="6.75951">
        <ele>40</ele>
        <time>2013-09-18T10:21:04.000Z</time>
      </trkpt>
      <trkpt lat="43.47132" lon="6.75954">
        <ele>40</ele>
        <time>2013-09-18T10:21:05.000Z</time>
      </trkpt>
      <trkpt lat="43.47132" lon="6.75956">
        <ele>40</ele>
        <time>2013-09-18T10:21:06.000Z</time>
      </trkpt>
      <trkpt lat="43.47132" lon="6.75959">
        <ele>40</ele>
        <time>2013-09-18T10:21:07.000Z</time>
      </trkpt>
      <trkpt lat="43.47131" lon="6.75961">
        <ele>40</ele>
        <time>2013-09-18T10:21:08.000Z</time>
      </trkpt>
      <trkpt lat="43.47131" lon="6.75964">
        <ele>40</ele>
        <time>2013-09-18T10:21:09.000Z</time>
      </trkpt>
      <trkpt lat="43.4713" lon="6.75966">
        <ele>40</ele>
        <time>2013-09-18T10:21:10.000Z</time>
      </trkpt>
      <trkpt lat="43.4713" lon="6.75969">
        <ele>40</ele>
        <time>2013-09-18T10:21:11.000Z</time>
      </trkpt>
      <trkpt lat="43.4713" lon="6.75971">
        <ele>40</ele>
        <time>2013-09-18T10:21:12.000Z</time>
      </trkpt>
      <trkpt lat="43.47129" lon="6.75973">
        <ele>40</ele>
        <time>2013-09-18T10:21:13.000Z</time>
      </trkpt>
      <trkpt lat="43.47129" lon="6.75975">
        <ele>40</ele>
        <time>2013-09-18T10:21:14.000Z</time>
      </trkpt>
      <trkpt lat="43.47129" lon="6.75977">
        <ele>40</ele>
        <time>2013-09-18T10:21:15.000Z</time>
      </trkpt>
      <trkpt lat="43.47128" lon="6.75979">
        <ele>40</ele>
        <time>2013-09-18T10:21:16.000Z</time>
      </trkpt>
      <trkpt lat="43.47128" lon="6.75981">
        <ele>40</ele>
        <time>2013-09-18T10:21:17.000Z</time>
      </trkpt>
      <trkpt lat="43.47128" lon="6.75983">
        <ele>40</ele>
        <time>2013-09-18T10:21:18.000Z</time>
      </trkpt>
      <trkpt lat="43.47128" lon="6.75985">
        <ele>40</ele>
        <time>2013-09-18T10:21:19.000Z</time>
      </trkpt>
      <trkpt lat="43.47128" lon="6.75987">
        <ele>40</ele>
        <time>2013-09-18T10:21:20.000Z</time>
      </trkpt>
      <trkpt lat="43.47127" lon="6.75988">
        <ele>40</ele>
        <time>2013-09-18T10:21:21.000Z</time>
      </trkpt>
      <trkpt lat="43.47127" lon="6.7599">
        <ele>40</ele>
        <time>2013-09-18T10:21:22.000Z</time>
      </trkpt>
      <trkpt lat="43.47127" lon="6.75992">
        <ele>40</ele>
        <time>2013-09-18T10:21:23.000Z</time>
      </trkpt>
      <trkpt lat="43.47127" lon="6.75993">
        <ele>40</ele>
        <time>2013-09-18T10:21:24.000Z</time>
      </trkpt>
      <trkpt lat="43.47126" lon="6.75995">
        <ele>40</ele>
        <time>2013-09-18T10:21:25.000Z</time>
      </trkpt>
      <trkpt lat="43.47126" lon="6.75997">
        <ele>40</ele>
        <time>2013-09-18T10:21:26.000Z</time>
      </trkpt>
      <trkpt lat="43.47126" lon="6.75998">
        <ele>40</ele>
        <time>2013-09-18T10:21:27.000Z</time>
      </trkpt>
      <trkpt lat="43.47125" lon="6.76">
        <ele>40</ele>
        <time>2013-09-18T10:21:28.000Z</time>
      </trkpt>
      <trkpt lat="43.47125" lon="6.76002">
        <ele>42</ele>
        <time>2013-09-18T10:21:29.000Z</time>
      </trkpt>
      <trkpt lat="43.47125" lon="6.76003">
        <ele>42</ele>
        <time>2013-09-18T10:21:30.000Z</time>
      </trkpt>
      <trkpt lat="43.47125" lon="6.76006">
        <ele>42</ele>
        <time>2013-09-18T10:21:32.000Z</time>
      </trkpt>
      <trkpt lat="43.47124" lon="6.76008">
        <ele>42</ele>
        <time>2013-09-18T10:21:33.000Z</time>
      </trkpt>
      <trkpt lat="43.47124" lon="6.76009">
        <ele>42</ele>
        <time>2013-09-18T10:21:34.000Z</time>
      </trkpt>
      <trkpt lat="43.47124" lon="6.76011">
        <ele>42</ele>
        <time>2013-09-18T10:21:35.000Z</time>
      </trkpt>
      <trkpt lat="43.47124" lon="6.76012">
        <ele>42</ele>
        <time>2013-09-18T10:21:36.000Z</time>
      </trkpt>
      <trkpt lat="43.47123" lon="6.76016">
        <ele>42</ele>
        <time>2013-09-18T10:21:38.000Z</time>
      </trkpt>
      <trkpt lat="43.47123" lon="6.76017">
        <ele>42</ele>
        <time>2013-09-18T10:21:39.000Z</time>
      </trkpt>
      <trkpt lat="43.47123" lon="6.76019">
        <ele>42</ele>
        <time>2013-09-18T10:21:40.000Z</time>
      </trkpt>
      <trkpt lat="43.47123" lon="6.7602">
        <ele>42</ele>
        <time>2013-09-18T10:21:41.000Z</time>
      </trkpt>
      <trkpt lat="43.47122" lon="6.76022">
        <ele>42</ele>
        <time>2013-09-18T10:21:42.000Z</time>
      </trkpt>
      <trkpt lat="43.47122" lon="6.76024">
        <ele>42</ele>
        <time>2013-09-18T10:21:43.000Z</time>
      </trkpt>
      <trkpt lat="43.47122" lon="6.76025">
        <ele>42</ele>
        <time>2013-09-18T10:21:44.000Z</time>
      </trkpt>
      <trkpt lat="43.47121" lon="6.76027">
        <ele>42</ele>
        <time>2013-09-18T10:21:45.000Z</time>
      </trkpt>
      <trkpt lat="43.47121" lon="6.76029">
        <ele>42</ele>
        <time>2013-09-18T10:21:46.000Z</time>
      </trkpt>
      <trkpt lat="43.47121" lon="6.76031">
        <ele>42</ele>
        <time>2013-09-18T10:21:47.000Z</time>
      </trkpt>
      <trkpt lat="43.47121" lon="6.76032">
        <ele>42</ele>
        <time>2013-09-18T10:21:48.000Z</time>
      </trkpt>
      <trkpt lat="43.4712" lon="6.76034">
        <ele>42</ele>
        <time>2013-09-18T10:21:49.000Z</time>
      </trkpt>
      <trkpt lat="43.4712" lon="6.76036">
        <ele>42</ele>
        <time>2013-09-18T10:21:50.000Z</time>
      </trkpt>
      <trkpt lat="43.47119" lon="6.76038">
        <ele>42</ele>
        <time>2013-09-18T10:21:51.000Z</time>
      </trkpt>
      <trkpt lat="43.47119" lon="6.7604">
        <ele>42</ele>
        <time>2013-09-18T10:21:52.000Z</time>
      </trkpt>
      <trkpt lat="43.47118" lon="6.76041">
        <ele>42</ele>
        <time>2013-09-18T10:21:53.000Z</time>
      </trkpt>
      <trkpt lat="43.47118" lon="6.76043">
        <ele>42</ele>
        <time>2013-09-18T10:21:54.000Z</time>
      </trkpt>
      <trkpt lat="43.47118" lon="6.76045">
        <ele>42</ele>
        <time>2013-09-18T10:21:55.000Z</time>
      </trkpt>
      <trkpt lat="43.47117" lon="6.76046">
        <ele>42</ele>
        <time>2013-09-18T10:21:56.000Z</time>
      </trkpt>
      <trkpt lat="43.47117" lon="6.76048">
        <ele>42</ele>
        <time>2013-09-18T10:21:57.000Z</time>
      </trkpt>
      <trkpt lat="43.47117" lon="6.7605">
        <ele>42</ele>
        <time>2013-09-18T10:21:58.000Z</time>
      </trkpt>
      <trkpt lat="43.47116" lon="6.76051">
        <ele>42</ele>
        <time>2013-09-18T10:21:59.000Z</time>
      </trkpt>
      <trkpt lat="43.47116" lon="6.76053">
        <ele>43</ele>
        <time>2013-09-18T10:22:00.000Z</time>
      </trkpt>
      <trkpt lat="43.47116" lon="6.76055">
        <ele>43</ele>
        <time>2013-09-18T10:22:01.000Z</time>
      </trkpt>
      <trkpt lat="43.47115" lon="6.76056">
        <ele>43</ele>
        <time>2013-09-18T10:22:02.000Z</time>
      </trkpt>
      <trkpt lat="43.47115" lon="6.76057">
        <ele>43</ele>
        <time>2013-09-18T10:22:03.000Z</time>
      </trkpt>
      <trkpt lat="43.47115" lon="6.76059">
        <ele>43</ele>
        <time>2013-09-18T10:22:04.000Z</time>
      </trkpt>
      <trkpt lat="43.47114" lon="6.76061">
        <ele>43</ele>
        <time>2013-09-18T10:22:05.000Z</time>
      </trkpt>
      <trkpt lat="43.47114" lon="6.76062">
        <ele>43</ele>
        <time>2013-09-18T10:22:06.000Z</time>
      </trkpt>
      <trkpt lat="43.47113" lon="6.76063">
        <ele>43</ele>
        <time>2013-09-18T10:22:07.000Z</time>
      </trkpt>
      <trkpt lat="43.47113" lon="6.76065">
        <ele>43</ele>
        <time>2013-09-18T10:22:08.000Z</time>
      </trkpt>
      <trkpt lat="43.47112" lon="6.76066">
        <ele>43</ele>
        <time>2013-09-18T10:22:09.000Z</time>
      </trkpt>
      <trkpt lat="43.47112" lon="6.76067">
        <ele>43</ele>
        <time>2013-09-18T10:22:10.000Z</time>
      </trkpt>
      <trkpt lat="43.47112" lon="6.76069">
        <ele>43</ele>
        <time>2013-09-18T10:22:11.000Z</time>
      </trkpt>
      <trkpt lat="43.47111" lon="6.76072">
        <ele>43</ele>
        <time>2013-09-18T10:22:13.000Z</time>
      </trkpt>
      <trkpt lat="43.47111" lon="6.76074">
        <ele>43</ele>
        <time>2013-09-18T10:22:14.000Z</time>
      </trkpt>
      <trkpt lat="43.4711" lon="6.76075">
        <ele>43</ele>
        <time>2013-09-18T10:22:15.000Z</time>
      </trkpt>
      <trkpt lat="43.4711" lon="6.76077">
        <ele>43</ele>
        <time>2013-09-18T10:22:16.000Z</time>
      </trkpt>
      <trkpt lat="43.47109" lon="6.76078">
        <ele>44</ele>
        <time>2013-09-18T10:22:17.000Z</time>
      </trkpt>
      <trkpt lat="43.47109" lon="6.7608">
        <ele>44</ele>
        <time>2013-09-18T10:22:18.000Z</time>
      </trkpt>
      <trkpt lat="43.47108" lon="6.76081">
        <ele>44</ele>
        <time>2013-09-18T10:22:19.000Z</time>
      </trkpt>
      <trkpt lat="43.47108" lon="6.76083">
        <ele>44</ele>
        <time>2013-09-18T10:22:20.000Z</time>
      </trkpt>
      <trkpt lat="43.47107" lon="6.76085">
        <ele>46</ele>
        <time>2013-09-18T10:22:21.000Z</time>
      </trkpt>
      <trkpt lat="43.47106" lon="6.76086">
        <ele>46</ele>
        <time>2013-09-18T10:22:22.000Z</time>
      </trkpt>
      <trkpt lat="43.47106" lon="6.76088">
        <ele>46</ele>
        <time>2013-09-18T10:22:23.000Z</time>
      </trkpt>
      <trkpt lat="43.47106" lon="6.76089">
        <ele>46</ele>
        <time>2013-09-18T10:22:24.000Z</time>
      </trkpt>
      <trkpt lat="43.47105" lon="6.76091">
        <ele>46</ele>
        <time>2013-09-18T10:22:25.000Z</time>
      </trkpt>
      <trkpt lat="43.47104" lon="6.76093">
        <ele>46</ele>
        <time>2013-09-18T10:22:26.000Z</time>
      </trkpt>
      <trkpt lat="43.47103" lon="6.76095">
        <ele>46</ele>
        <time>2013-09-18T10:22:27.000Z</time>
      </trkpt>
      <trkpt lat="43.47103" lon="6.76096">
        <ele>46</ele>
        <time>2013-09-18T10:22:28.000Z</time>
      </trkpt>
      <trkpt lat="43.47102" lon="6.76098">
        <ele>46</ele>
        <time>2013-09-18T10:22:29.000Z</time>
      </trkpt>
      <trkpt lat="43.47101" lon="6.76099">
        <ele>46</ele>
        <time>2013-09-18T10:22:30.000Z</time>
      </trkpt>
      <trkpt lat="43.47101" lon="6.76101">
        <ele>46</ele>
        <time>2013-09-18T10:22:31.000Z</time>
      </trkpt>
      <trkpt lat="43.471" lon="6.76103">
        <ele>46</ele>
        <time>2013-09-18T10:22:32.000Z</time>
      </trkpt>
      <trkpt lat="43.471" lon="6.76104">
        <ele>46</ele>
        <time>2013-09-18T10:22:33.000Z</time>
      </trkpt>
      <trkpt lat="43.47099" lon="6.76106">
        <ele>46</ele>
        <time>2013-09-18T10:22:34.000Z</time>
      </trkpt>
      <trkpt lat="43.47099" lon="6.76108">
        <ele>46</ele>
        <time>2013-09-18T10:22:35.000Z</time>
      </trkpt>
      <trkpt lat="43.47098" lon="6.76109">
        <ele>46</ele>
        <time>2013-09-18T10:22:36.000Z</time>
      </trkpt>
      <trkpt lat="43.47098" lon="6.76111">
        <ele>47</ele>
        <time>2013-09-18T10:22:37.000Z</time>
      </trkpt>
      <trkpt lat="43.47097" lon="6.76113">
        <ele>47</ele>
        <time>2013-09-18T10:22:38.000Z</time>
      </trkpt>
      <trkpt lat="43.47096" lon="6.76114">
        <ele>47</ele>
        <time>2013-09-18T10:22:39.000Z</time>
      </trkpt>
      <trkpt lat="43.47096" lon="6.76116">
        <ele>47</ele>
        <time>2013-09-18T10:22:40.000Z</time>
      </trkpt>
      <trkpt lat="43.47095" lon="6.76118">
        <ele>47</ele>
        <time>2013-09-18T10:22:41.000Z</time>
      </trkpt>
      <trkpt lat="43.47094" lon="6.76119">
        <ele>47</ele>
        <time>2013-09-18T10:22:42.000Z</time>
      </trkpt>
      <trkpt lat="43.47094" lon="6.76121">
        <ele>47</ele>
        <time>2013-09-18T10:22:43.000Z</time>
      </trkpt>
      <trkpt lat="43.47093" lon="6.76123">
        <ele>47</ele>
        <time>2013-09-18T10:22:44.000Z</time>
      </trkpt>
      <trkpt lat="43.47092" lon="6.76124">
        <ele>47</ele>
        <time>2013-09-18T10:22:45.000Z</time>
      </trkpt>
      <trkpt lat="43.47091" lon="6.76126">
        <ele>47</ele>
        <time>2013-09-18T10:22:46.000Z</time>
      </trkpt>
      <trkpt lat="43.47091" lon="6.76127">
        <ele>47</ele>
        <time>2013-09-18T10:22:47.000Z</time>
      </trkpt>
      <trkpt lat="43.4709" lon="6.76129">
        <ele>47</ele>
        <time>2013-09-18T10:22:48.000Z</time>
      </trkpt>
      <trkpt lat="43.47089" lon="6.76131">
        <ele>48</ele>
        <time>2013-09-18T10:22:49.000Z</time>
      </trkpt>
      <trkpt lat="43.47089" lon="6.76132">
        <ele>48</ele>
        <time>2013-09-18T10:22:50.000Z</time>
      </trkpt>
      <trkpt lat="43.47088" lon="6.76134">
        <ele>48</ele>
        <time>2013-09-18T10:22:51.000Z</time>
      </trkpt>
      <trkpt lat="43.47088" lon="6.76136">
        <ele>48</ele>
        <time>2013-09-18T10:22:52.000Z</time>
      </trkpt>
      <trkpt lat="43.47087" lon="6.76138">
        <ele>48</ele>
        <time>2013-09-18T10:22:53.000Z</time>
      </trkpt>
      <trkpt lat="43.47087" lon="6.76139">
        <ele>48</ele>
        <time>2013-09-18T10:22:54.000Z</time>
      </trkpt>
      <trkpt lat="43.47086" lon="6.76141">
        <ele>48</ele>
        <time>2013-09-18T10:22:55.000Z</time>
      </trkpt>
      <trkpt lat="43.47086" lon="6.76142">
        <ele>49</ele>
        <time>2013-09-18T10:22:56.000Z</time>
      </trkpt>
      <trkpt lat="43.47085" lon="6.76144">
        <ele>49</ele>
        <time>2013-09-18T10:22:57.000Z</time>
      </trkpt>
      <trkpt lat="43.47084" lon="6.76145">
        <ele>49</ele>
        <time>2013-09-18T10:22:58.000Z</time>
      </trkpt>
      <trkpt lat="43.47084" lon="6.76147">
        <ele>49</ele>
        <time>2013-09-18T10:22:59.000Z</time>
      </trkpt>
      <trkpt lat="43.47083" lon="6.76149">
        <ele>54</ele>
        <time>2013-09-18T10:23:00.000Z</time>
      </trkpt>
      <trkpt lat="43.47083" lon="6.7615">
        <ele>54</ele>
        <time>2013-09-18T10:23:01.000Z</time>
      </trkpt>
      <trkpt lat="43.47082" lon="6.76152">
        <ele>54</ele>
        <time>2013-09-18T10:23:02.000Z</time>
      </trkpt>
      <trkpt lat="43.47081" lon="6.76153">
        <ele>54</ele>
        <time>2013-09-18T10:23:03.000Z</time>
      </trkpt>
      <trkpt lat="43.47081" lon="6.76155">
        <ele>54</ele>
        <time>2013-09-18T10:23:04.000Z</time>
      </trkpt>
      <trkpt lat="43.4708" lon="6.76156">
        <ele>54</ele>
        <time>2013-09-18T10:23:05.000Z</time>
      </trkpt>
      <trkpt lat="43.4708" lon="6.76158">
        <ele>54</ele>
        <time>2013-09-18T10:23:06.000Z</time>
      </trkpt>
      <trkpt lat="43.4708" lon="6.7616">
        <ele>54</ele>
        <time>2013-09-18T10:23:07.000Z</time>
      </trkpt>
      <trkpt lat="43.47079" lon="6.76161">
        <ele>53</ele>
        <time>2013-09-18T10:23:08.000Z</time>
      </trkpt>
      <trkpt lat="43.47078" lon="6.76163">
        <ele>53</ele>
        <time>2013-09-18T10:23:09.000Z</time>
      </trkpt>
      <trkpt lat="43.47078" lon="6.76164">
        <ele>53</ele>
        <time>2013-09-18T10:23:10.000Z</time>
      </trkpt>
      <trkpt lat="43.47077" lon="6.76166">
        <ele>53</ele>
        <time>2013-09-18T10:23:11.000Z</time>
      </trkpt>
      <trkpt lat="43.47077" lon="6.76167">
        <ele>55</ele>
        <time>2013-09-18T10:23:12.000Z</time>
      </trkpt>
      <trkpt lat="43.47076" lon="6.76168">
        <ele>55</ele>
        <time>2013-09-18T10:23:13.000Z</time>
      </trkpt>
      <trkpt lat="43.47076" lon="6.7617">
        <ele>55</ele>
        <time>2013-09-18T10:23:14.000Z</time>
      </trkpt>
      <trkpt lat="43.47075" lon="6.76171">
        <ele>55</ele>
        <time>2013-09-18T10:23:15.000Z</time>
      </trkpt>
      <trkpt lat="43.47075" lon="6.76173">
        <ele>56</ele>
        <time>2013-09-18T10:23:16.000Z</time>
      </trkpt>
      <trkpt lat="43.47074" lon="6.76174">
        <ele>56</ele>
        <time>2013-09-18T10:23:17.000Z</time>
      </trkpt>
      <trkpt lat="43.47074" lon="6.76176">
        <ele>56</ele>
        <time>2013-09-18T10:23:18.000Z</time>
      </trkpt>
      <trkpt lat="43.47073" lon="6.76177">
        <ele>56</ele>
        <time>2013-09-18T10:23:19.000Z</time>
      </trkpt>
      <trkpt lat="43.47073" lon="6.76179">
        <ele>57</ele>
        <time>2013-09-18T10:23:20.000Z</time>
      </trkpt>
      <trkpt lat="43.47072" lon="6.7618">
        <ele>57</ele>
        <time>2013-09-18T10:23:21.000Z</time>
      </trkpt>
      <trkpt lat="43.47072" lon="6.76182">
        <ele>57</ele>
        <time>2013-09-18T10:23:22.000Z</time>
      </trkpt>
      <trkpt lat="43.47071" lon="6.76183">
        <ele>57</ele>
        <time>2013-09-18T10:23:23.000Z</time>
      </trkpt>
      <trkpt lat="43.4707" lon="6.76185">
        <ele>58</ele>
        <time>2013-09-18T10:23:24.000Z</time>
      </trkpt>
      <trkpt lat="43.4707" lon="6.76186">
        <ele>58</ele>
        <time>2013-09-18T10:23:25.000Z</time>
      </trkpt>
      <trkpt lat="43.47069" lon="6.76188">
        <ele>58</ele>
        <time>2013-09-18T10:23:26.000Z</time>
      </trkpt>
      <trkpt lat="43.47069" lon="6.76189">
        <ele>58</ele>
        <time>2013-09-18T10:23:27.000Z</time>
      </trkpt>
      <trkpt lat="43.47068" lon="6.76191">
        <ele>58</ele>
        <time>2013-09-18T10:23:28.000Z</time>
      </trkpt>
      <trkpt lat="43.47068" lon="6.76192">
        <ele>58</ele>
        <time>2013-09-18T10:23:29.000Z</time>
      </trkpt>
      <trkpt lat="43.47067" lon="6.76194">
        <ele>59</ele>
        <time>2013-09-18T10:23:30.000Z</time>
      </trkpt>
      <trkpt lat="43.47067" lon="6.76196">
        <ele>59</ele>
        <time>2013-09-18T10:23:31.000Z</time>
      </trkpt>
      <trkpt lat="43.47066" lon="6.76197">
        <ele>59</ele>
        <time>2013-09-18T10:23:32.000Z</time>
      </trkpt>
      <trkpt lat="43.47066" lon="6.76198">
        <ele>59</ele>
        <time>2013-09-18T10:23:33.000Z</time>
      </trkpt>
      <trkpt lat="43.47066" lon="6.762">
        <ele>59</ele>
        <time>2013-09-18T10:23:34.000Z</time>
      </trkpt>
      <trkpt lat="43.47065" lon="6.76201">
        <ele>59</ele>
        <time>2013-09-18T10:23:35.000Z</time>
      </trkpt>
      <trkpt lat="43.47065" lon="6.76203">
        <ele>59</ele>
        <time>2013-09-18T10:23:36.000Z</time>
      </trkpt>
      <trkpt lat="43.47064" lon="6.76204">
        <ele>59</ele>
        <time>2013-09-18T10:23:37.000Z</time>
      </trkpt>
      <trkpt lat="43.47064" lon="6.76206">
        <ele>59</ele>
        <time>2013-09-18T10:23:38.000Z</time>
      </trkpt>
      <trkpt lat="43.47063" lon="6.76207">
        <ele>59</ele>
        <time>2013-09-18T10:23:39.000Z</time>
      </trkpt>
      <trkpt lat="43.47063" lon="6.76209">
        <ele>59</ele>
        <time>2013-09-18T10:23:40.000Z</time>
      </trkpt>
      <trkpt lat="43.47063" lon="6.76211">
        <ele>60</ele>
        <time>2013-09-18T10:23:41.000Z</time>
      </trkpt>
      <trkpt lat="43.47063" lon="6.76212">
        <ele>60</ele>
        <time>2013-09-18T10:23:42.000Z</time>
      </trkpt>
      <trkpt lat="43.47062" lon="6.76214">
        <ele>60</ele>
        <time>2013-09-18T10:23:43.000Z</time>
      </trkpt>
      <trkpt lat="43.47062" lon="6.76215">
        <ele>60</ele>
        <time>2013-09-18T10:23:44.000Z</time>
      </trkpt>
      <trkpt lat="43.47062" lon="6.76217">
        <ele>60</ele>
        <time>2013-09-18T10:23:45.000Z</time>
      </trkpt>
      <trkpt lat="43.47062" lon="6.76218">
        <ele>60</ele>
        <time>2013-09-18T10:23:46.000Z</time>
      </trkpt>
      <trkpt lat="43.47061" lon="6.7622">
        <ele>60</ele>
        <time>2013-09-18T10:23:47.000Z</time>
      </trkpt>
      <trkpt lat="43.47061" lon="6.76222">
        <ele>60</ele>
        <time>2013-09-18T10:23:48.000Z</time>
      </trkpt>
      <trkpt lat="43.47061" lon="6.76223">
        <ele>60</ele>
        <time>2013-09-18T10:23:49.000Z</time>
      </trkpt>
      <trkpt lat="43.47061" lon="6.76224">
        <ele>60</ele>
        <time>2013-09-18T10:23:50.000Z</time>
      </trkpt>
      <trkpt lat="43.4706" lon="6.76226">
        <ele>60</ele>
        <time>2013-09-18T10:23:51.000Z</time>
      </trkpt>
      <trkpt lat="43.4706" lon="6.76227">
        <ele>60</ele>
        <time>2013-09-18T10:23:52.000Z</time>
      </trkpt>
      <trkpt lat="43.4706" lon="6.76229">
        <ele>60</ele>
        <time>2013-09-18T10:23:53.000Z</time>
      </trkpt>
      <trkpt lat="43.4706" lon="6.7623">
        <ele>60</ele>
        <time>2013-09-18T10:23:54.000Z</time>
      </trkpt>
      <trkpt lat="43.47059" lon="6.76232">
        <ele>60</ele>
        <time>2013-09-18T10:23:55.000Z</time>
      </trkpt>
      <trkpt lat="43.47059" lon="6.76233">
        <ele>60</ele>
        <time>2013-09-18T10:23:56.000Z</time>
      </trkpt>
      <trkpt lat="43.47059" lon="6.76235">
        <ele>60</ele>
        <time>2013-09-18T10:23:57.000Z</time>
      </trkpt>
      <trkpt lat="43.47058" lon="6.76236">
        <ele>60</ele>
        <time>2013-09-18T10:23:58.000Z</time>
      </trkpt>
      <trkpt lat="43.47058" lon="6.76238">
        <ele>60</ele>
        <time>2013-09-18T10:23:59.000Z</time>
      </trkpt>
      <trkpt lat="43.47058" lon="6.76239">
        <ele>60</ele>
        <time>2013-09-18T10:24:00.000Z</time>
      </trkpt>
      <trkpt lat="43.47058" lon="6.76242">
        <ele>60</ele>
        <time>2013-09-18T10:24:02.000Z</time>
      </trkpt>
      <trkpt lat="43.47058" lon="6.76244">
        <ele>60</ele>
        <time>2013-09-18T10:24:03.000Z</time>
      </trkpt>
      <trkpt lat="43.47057" lon="6.76246">
        <ele>60</ele>
        <time>2013-09-18T10:24:04.000Z</time>
      </trkpt>
      <trkpt lat="43.47057" lon="6.76247">
        <ele>60</ele>
        <time>2013-09-18T10:24:05.000Z</time>
      </trkpt>
      <trkpt lat="43.47057" lon="6.7625">
        <ele>62</ele>
        <time>2013-09-18T10:24:07.000Z</time>
      </trkpt>
      <trkpt lat="43.47057" lon="6.76252">
        <ele>62</ele>
        <time>2013-09-18T10:24:08.000Z</time>
      </trkpt>
      <trkpt lat="43.47056" lon="6.76253">
        <ele>62</ele>
        <time>2013-09-18T10:24:09.000Z</time>
      </trkpt>
      <trkpt lat="43.47056" lon="6.76255">
        <ele>62</ele>
        <time>2013-09-18T10:24:10.000Z</time>
      </trkpt>
      <trkpt lat="43.47056" lon="6.76257">
        <ele>62</ele>
        <time>2013-09-18T10:24:11.000Z</time>
      </trkpt>
      <trkpt lat="43.47055" lon="6.76258">
        <ele>62</ele>
        <time>2013-09-18T10:24:12.000Z</time>
      </trkpt>
      <trkpt lat="43.47055" lon="6.7626">
        <ele>62</ele>
        <time>2013-09-18T10:24:13.000Z</time>
      </trkpt>
      <trkpt lat="43.47055" lon="6.76261">
        <ele>62</ele>
        <time>2013-09-18T10:24:14.000Z</time>
      </trkpt>
      <trkpt lat="43.47054" lon="6.76263">
        <ele>62</ele>
        <time>2013-09-18T10:24:15.000Z</time>
      </trkpt>
      <trkpt lat="43.47054" lon="6.76265">
        <ele>62</ele>
        <time>2013-09-18T10:24:16.000Z</time>
      </trkpt>
      <trkpt lat="43.47054" lon="6.76266">
        <ele>62</ele>
        <time>2013-09-18T10:24:17.000Z</time>
      </trkpt>
      <trkpt lat="43.47053" lon="6.76268">
        <ele>62</ele>
        <time>2013-09-18T10:24:18.000Z</time>
      </trkpt>
      <trkpt lat="43.47053" lon="6.76269">
        <ele>62</ele>
        <time>2013-09-18T10:24:19.000Z</time>
      </trkpt>
      <trkpt lat="43.47052" lon="6.76271">
        <ele>63</ele>
        <time>2013-09-18T10:24:20.000Z</time>
      </trkpt>
      <trkpt lat="43.47052" lon="6.76272">
        <ele>63</ele>
        <time>2013-09-18T10:24:21.000Z</time>
      </trkpt>
      <trkpt lat="43.47051" lon="6.76273">
        <ele>63</ele>
        <time>2013-09-18T10:24:22.000Z</time>
      </trkpt>
      <trkpt lat="43.47051" lon="6.76275">
        <ele>63</ele>
        <time>2013-09-18T10:24:23.000Z</time>
      </trkpt>
      <trkpt lat="43.4705" lon="6.76276">
        <ele>63</ele>
        <time>2013-09-18T10:24:24.000Z</time>
      </trkpt>
      <trkpt lat="43.4705" lon="6.76277">
        <ele>63</ele>
        <time>2013-09-18T10:24:25.000Z</time>
      </trkpt>
      <trkpt lat="43.47049" lon="6.76279">
        <ele>63</ele>
        <time>2013-09-18T10:24:26.000Z</time>
      </trkpt>
      <trkpt lat="43.47048" lon="6.7628">
        <ele>63</ele>
        <time>2013-09-18T10:24:27.000Z</time>
      </trkpt>
      <trkpt lat="43.47048" lon="6.76281">
        <ele>63</ele>
        <time>2013-09-18T10:24:28.000Z</time>
      </trkpt>
      <trkpt lat="43.47047" lon="6.76283">
        <ele>63</ele>
        <time>2013-09-18T10:24:29.000Z</time>
      </trkpt>
      <trkpt lat="43.47047" lon="6.76284">
        <ele>63</ele>
        <time>2013-09-18T10:24:30.000Z</time>
      </trkpt>
      <trkpt lat="43.47046" lon="6.76286">
        <ele>63</ele>
        <time>2013-09-18T10:24:31.000Z</time>
      </trkpt>
      <trkpt lat="43.47046" lon="6.76287">
        <ele>63</ele>
        <time>2013-09-18T10:24:32.000Z</time>
      </trkpt>
      <trkpt lat="43.47045" lon="6.76288">
        <ele>63</ele>
        <time>2013-09-18T10:24:33.000Z</time>
      </trkpt>
      <trkpt lat="43.47044" lon="6.7629">
        <ele>63</ele>
        <time>2013-09-18T10:24:34.000Z</time>
      </trkpt>
      <trkpt lat="43.47044" lon="6.76291">
        <ele>64</ele>
        <time>2013-09-18T10:24:35.000Z</time>
      </trkpt>
      <trkpt lat="43.47043" lon="6.76293">
        <ele>64</ele>
        <time>2013-09-18T10:24:36.000Z</time>
      </trkpt>
      <trkpt lat="43.47042" lon="6.76294">
        <ele>64</ele>
        <time>2013-09-18T10:24:37.000Z</time>
      </trkpt>
      <trkpt lat="43.47041" lon="6.76295">
        <ele>64</ele>
        <time>2013-09-18T10:24:38.000Z</time>
      </trkpt>
      <trkpt lat="43.47041" lon="6.76297">
        <ele>64</ele>
        <time>2013-09-18T10:24:39.000Z</time>
      </trkpt>
      <trkpt lat="43.4704" lon="6.76298">
        <ele>64</ele>
        <time>2013-09-18T10:24:40.000Z</time>
      </trkpt>
      <trkpt lat="43.47039" lon="6.76299">
        <ele>64</ele>
        <time>2013-09-18T10:24:41.000Z</time>
      </trkpt>
      <trkpt lat="43.47038" lon="6.76301">
        <ele>64</ele>
        <time>2013-09-18T10:24:42.000Z</time>
      </trkpt>
      <trkpt lat="43.47037" lon="6.76302">
        <ele>64</ele>
        <time>2013-09-18T10:24:43.000Z</time>
      </trkpt>
      <trkpt lat="43.47036" lon="6.76303">
        <ele>64</ele>
        <time>2013-09-18T10:24:44.000Z</time>
      </trkpt>
      <trkpt lat="43.47035" lon="6.76304">
        <ele>64</ele>
        <time>2013-09-18T10:24:45.000Z</time>
      </trkpt>
      <trkpt lat="43.47034" lon="6.76305">
        <ele>65</ele>
        <time>2013-09-18T10:24:46.000Z</time>
      </trkpt>
      <trkpt lat="43.47033" lon="6.76306">
        <ele>65</ele>
        <time>2013-09-18T10:24:47.000Z</time>
      </trkpt>
      <trkpt lat="43.47032" lon="6.76307">
        <ele>65</ele>
        <time>2013-09-18T10:24:48.000Z</time>
      </trkpt>
      <trkpt lat="43.47031" lon="6.76308">
        <ele>65</ele>
        <time>2013-09-18T10:24:49.000Z</time>
      </trkpt>
      <trkpt lat="43.4703" lon="6.76309">
        <ele>65</ele>
        <time>2013-09-18T10:24:50.000Z</time>
      </trkpt>
      <trkpt lat="43.47029" lon="6.76309">
        <ele>65</ele>
        <time>2013-09-18T10:24:51.000Z</time>
      </trkpt>
      <trkpt lat="43.47028" lon="6.76311">
        <ele>65</ele>
        <time>2013-09-18T10:24:52.000Z</time>
      </trkpt>
      <trkpt lat="43.47027" lon="6.76312">
        <ele>66</ele>
        <time>2013-09-18T10:24:53.000Z</time>
      </trkpt>
      <trkpt lat="43.47026" lon="6.76313">
        <ele>66</ele>
        <time>2013-09-18T10:24:54.000Z</time>
      </trkpt>
      <trkpt lat="43.47025" lon="6.76314">
        <ele>66</ele>
        <time>2013-09-18T10:24:55.000Z</time>
      </trkpt>
      <trkpt lat="43.47024" lon="6.76315">
        <ele>66</ele>
        <time>2013-09-18T10:24:56.000Z</time>
      </trkpt>
      <trkpt lat="43.47023" lon="6.76316">
        <ele>66</ele>
        <time>2013-09-18T10:24:57.000Z</time>
      </trkpt>
      <trkpt lat="43.47022" lon="6.76317">
        <ele>67</ele>
        <time>2013-09-18T10:24:58.000Z</time>
      </trkpt>
      <trkpt lat="43.47021" lon="6.76318">
        <ele>67</ele>
        <time>2013-09-18T10:24:59.000Z</time>
      </trkpt>
      <trkpt lat="43.4702" lon="6.76319">
        <ele>67</ele>
        <time>2013-09-18T10:25:00.000Z</time>
      </trkpt>
      <trkpt lat="43.47019" lon="6.7632">
        <ele>67</ele>
        <time>2013-09-18T10:25:01.000Z</time>
      </trkpt>
      <trkpt lat="43.47018" lon="6.76321">
        <ele>67</ele>
        <time>2013-09-18T10:25:02.000Z</time>
      </trkpt>
      <trkpt lat="43.47017" lon="6.76322">
        <ele>68</ele>
        <time>2013-09-18T10:25:03.000Z</time>
      </trkpt>
      <trkpt lat="43.47016" lon="6.76323">
        <ele>68</ele>
        <time>2013-09-18T10:25:04.000Z</time>
      </trkpt>
      <trkpt lat="43.47015" lon="6.76324">
        <ele>68</ele>
        <time>2013-09-18T10:25:05.000Z</time>
      </trkpt>
      <trkpt lat="43.47014" lon="6.76325">
        <ele>68</ele>
        <time>2013-09-18T10:25:06.000Z</time>
      </trkpt>
      <trkpt lat="43.47012" lon="6.76325">
        <ele>69</ele>
        <time>2013-09-18T10:25:07.000Z</time>
      </trkpt>
      <trkpt lat="43.47011" lon="6.76326">
        <ele>69</ele>
        <time>2013-09-18T10:25:08.000Z</time>
      </trkpt>
      <trkpt lat="43.4701" lon="6.76327">
        <ele>69</ele>
        <time>2013-09-18T10:25:09.000Z</time>
      </trkpt>
      <trkpt lat="43.47009" lon="6.76329">
        <ele>70</ele>
        <time>2013-09-18T10:25:10.000Z</time>
      </trkpt>
      <trkpt lat="43.47008" lon="6.76329">
        <ele>70</ele>
        <time>2013-09-18T10:25:11.000Z</time>
      </trkpt>
      <trkpt lat="43.47007" lon="6.7633">
        <ele>70</ele>
        <time>2013-09-18T10:25:12.000Z</time>
      </trkpt>
      <trkpt lat="43.47006" lon="6.76331">
        <ele>71</ele>
        <time>2013-09-18T10:25:13.000Z</time>
      </trkpt>
      <trkpt lat="43.47005" lon="6.76332">
        <ele>71</ele>
        <time>2013-09-18T10:25:14.000Z</time>
      </trkpt>
      <trkpt lat="43.47004" lon="6.76333">
        <ele>72</ele>
        <time>2013-09-18T10:25:15.000Z</time>
      </trkpt>
      <trkpt lat="43.47003" lon="6.76334">
        <ele>72</ele>
        <time>2013-09-18T10:25:16.000Z</time>
      </trkpt>
      <trkpt lat="43.47002" lon="6.76335">
        <ele>72</ele>
        <time>2013-09-18T10:25:17.000Z</time>
      </trkpt>
      <trkpt lat="43.47001" lon="6.76336">
        <ele>72</ele>
        <time>2013-09-18T10:25:18.000Z</time>
      </trkpt>
      <trkpt lat="43.47" lon="6.76337">
        <ele>73</ele>
        <time>2013-09-18T10:25:19.000Z</time>
      </trkpt>
      <trkpt lat="43.46998" lon="6.76338">
        <ele>74</ele>
        <time>2013-09-18T10:25:20.000Z</time>
      </trkpt>
      <trkpt lat="43.46997" lon="6.76339">
        <ele>74</ele>
        <time>2013-09-18T10:25:21.000Z</time>
      </trkpt>
      <trkpt lat="43.46996" lon="6.7634">
        <ele>74</ele>
        <time>2013-09-18T10:25:22.000Z</time>
      </trkpt>
      <trkpt lat="43.46995" lon="6.76341">
        <ele>74</ele>
        <time>2013-09-18T10:25:23.000Z</time>
      </trkpt>
      <trkpt lat="43.46994" lon="6.76342">
        <ele>74</ele>
        <time>2013-09-18T10:25:24.000Z</time>
      </trkpt>
      <trkpt lat="43.46993" lon="6.76343">
        <ele>74</ele>
        <time>2013-09-18T10:25:25.000Z</time>
      </trkpt>
      <trkpt lat="43.46992" lon="6.76344">
        <ele>74</ele>
        <time>2013-09-18T10:25:26.000Z</time>
      </trkpt>
      <trkpt lat="43.46991" lon="6.76345">
        <ele>74</ele>
        <time>2013-09-18T10:25:27.000Z</time>
      </trkpt>
      <trkpt lat="43.4699" lon="6.76346">
        <ele>74</ele>
        <time>2013-09-18T10:25:28.000Z</time>
      </trkpt>
      <trkpt lat="43.46989" lon="6.76348">
        <ele>75</ele>
        <time>2013-09-18T10:25:29.000Z</time>
      </trkpt>
      <trkpt lat="43.46987" lon="6.76349">
        <ele>75</ele>
        <time>2013-09-18T10:25:30.000Z</time>
      </trkpt>
      <trkpt lat="43.46986" lon="6.7635">
        <ele>75</ele>
        <time>2013-09-18T10:25:31.000Z</time>
      </trkpt>
      <trkpt lat="43.46985" lon="6.76351">
        <ele>75</ele>
        <time>2013-09-18T10:25:32.000Z</time>
      </trkpt>
      <trkpt lat="43.46984" lon="6.76352">
        <ele>75</ele>
        <time>2013-09-18T10:25:33.000Z</time>
      </trkpt>
      <trkpt lat="43.46983" lon="6.76354">
        <ele>75</ele>
        <time>2013-09-18T10:25:34.000Z</time>
      </trkpt>
      <trkpt lat="43.46982" lon="6.76355">
        <ele>75</ele>
        <time>2013-09-18T10:25:35.000Z</time>
      </trkpt>
      <trkpt lat="43.46981" lon="6.76356">
        <ele>75</ele>
        <time>2013-09-18T10:25:36.000Z</time>
      </trkpt>
      <trkpt lat="43.4698" lon="6.76358">
        <ele>75</ele>
        <time>2013-09-18T10:25:37.000Z</time>
      </trkpt>
      <trkpt lat="43.46978" lon="6.76359">
        <ele>75</ele>
        <time>2013-09-18T10:25:38.000Z</time>
      </trkpt>
      <trkpt lat="43.46977" lon="6.7636">
        <ele>75</ele>
        <time>2013-09-18T10:25:39.000Z</time>
      </trkpt>
      <trkpt lat="43.46976" lon="6.76361">
        <ele>75</ele>
        <time>2013-09-18T10:25:40.000Z</time>
      </trkpt>
      <trkpt lat="43.46975" lon="6.76362">
        <ele>75</ele>
        <time>2013-09-18T10:25:41.000Z</time>
      </trkpt>
      <trkpt lat="43.46974" lon="6.76364">
        <ele>75</ele>
        <time>2013-09-18T10:25:42.000Z</time>
      </trkpt>
      <trkpt lat="43.46973" lon="6.76365">
        <ele>75</ele>
        <time>2013-09-18T10:25:43.000Z</time>
      </trkpt>
      <trkpt lat="43.46972" lon="6.76366">
        <ele>76</ele>
        <time>2013-09-18T10:25:44.000Z</time>
      </trkpt>
      <trkpt lat="43.46971" lon="6.76367">
        <ele>76</ele>
        <time>2013-09-18T10:25:45.000Z</time>
      </trkpt>
      <trkpt lat="43.4697" lon="6.76369">
        <ele>76</ele>
        <time>2013-09-18T10:25:46.000Z</time>
      </trkpt>
      <trkpt lat="43.46968" lon="6.7637">
        <ele>76</ele>
        <time>2013-09-18T10:25:47.000Z</time>
      </trkpt>
      <trkpt lat="43.46967" lon="6.76371">
        <ele>76</ele>
        <time>2013-09-18T10:25:48.000Z</time>
      </trkpt>
      <trkpt lat="43.46966" lon="6.76373">
        <ele>76</ele>
        <time>2013-09-18T10:25:49.000Z</time>
      </trkpt>
      <trkpt lat="43.46965" lon="6.76374">
        <ele>76</ele>
        <time>2013-09-18T10:25:50.000Z</time>
      </trkpt>
      <trkpt lat="43.46964" lon="6.76376">
        <ele>76</ele>
        <time>2013-09-18T10:25:51.000Z</time>
      </trkpt>
      <trkpt lat="43.46963" lon="6.76377">
        <ele>76</ele>
        <time>2013-09-18T10:25:52.000Z</time>
      </trkpt>
      <trkpt lat="43.46963" lon="6.76379">
        <ele>76</ele>
        <time>2013-09-18T10:25:53.000Z</time>
      </trkpt>
      <trkpt lat="43.46962" lon="6.7638">
        <ele>76</ele>
        <time>2013-09-18T10:25:54.000Z</time>
      </trkpt>
      <trkpt lat="43.46961" lon="6.76381">
        <ele>76</ele>
        <time>2013-09-18T10:25:55.000Z</time>
      </trkpt>
      <trkpt lat="43.4696" lon="6.76383">
        <ele>76</ele>
        <time>2013-09-18T10:25:56.000Z</time>
      </trkpt>
      <trkpt lat="43.46959" lon="6.76384">
        <ele>76</ele>
        <time>2013-09-18T10:25:57.000Z</time>
      </trkpt>
      <trkpt lat="43.46958" lon="6.76385">
        <ele>76</ele>
        <time>2013-09-18T10:25:58.000Z</time>
      </trkpt>
      <trkpt lat="43.46957" lon="6.76386">
        <ele>76</ele>
        <time>2013-09-18T10:25:59.000Z</time>
      </trkpt>
      <trkpt lat="43.46956" lon="6.76388">
        <ele>76</ele>
        <time>2013-09-18T10:26:00.000Z</time>
      </trkpt>
      <trkpt lat="43.46955" lon="6.76389">
        <ele>77</ele>
        <time>2013-09-18T10:26:01.000Z</time>
      </trkpt>
      <trkpt lat="43.46954" lon="6.76391">
        <ele>77</ele>
        <time>2013-09-18T10:26:02.000Z</time>
      </trkpt>
      <trkpt lat="43.46953" lon="6.76392">
        <ele>77</ele>
        <time>2013-09-18T10:26:03.000Z</time>
      </trkpt>
      <trkpt lat="43.46952" lon="6.76394">
        <ele>77</ele>
        <time>2013-09-18T10:26:04.000Z</time>
      </trkpt>
      <trkpt lat="43.46951" lon="6.76395">
        <ele>77</ele>
        <time>2013-09-18T10:26:05.000Z</time>
      </trkpt>
      <trkpt lat="43.4695" lon="6.76397">
        <ele>77</ele>
        <time>2013-09-18T10:26:06.000Z</time>
      </trkpt>
      <trkpt lat="43.46949" lon="6.76398">
        <ele>77</ele>
        <time>2013-09-18T10:26:07.000Z</time>
      </trkpt>
      <trkpt lat="43.46948" lon="6.76399">
        <ele>77</ele>
        <time>2013-09-18T10:26:08.000Z</time>
      </trkpt>
      <trkpt lat="43.46947" lon="6.76401">
        <ele>77</ele>
        <time>2013-09-18T10:26:09.000Z</time>
      </trkpt>
      <trkpt lat="43.46946" lon="6.76403">
        <ele>78</ele>
        <time>2013-09-18T10:26:10.000Z</time>
      </trkpt>
      <trkpt lat="43.46945" lon="6.76404">
        <ele>78</ele>
        <time>2013-09-18T10:26:11.000Z</time>
      </trkpt>
      <trkpt lat="43.46944" lon="6.76406">
        <ele>78</ele>
        <time>2013-09-18T10:26:12.000Z</time>
      </trkpt>
      <trkpt lat="43.46943" lon="6.76407">
        <ele>78</ele>
        <time>2013-09-18T10:26:13.000Z</time>
      </trkpt>
      <trkpt lat="43.46941" lon="6.76409">
        <ele>78</ele>
        <time>2013-09-18T10:26:14.000Z</time>
      </trkpt>
      <trkpt lat="43.46941" lon="6.76411">
        <ele>78</ele>
        <time>2013-09-18T10:26:15.000Z</time>
      </trkpt>
      <trkpt lat="43.46939" lon="6.76412">
        <ele>79</ele>
        <time>2013-09-18T10:26:16.000Z</time>
      </trkpt>
      <trkpt lat="43.46938" lon="6.76414">
        <ele>79</ele>
        <time>2013-09-18T10:26:17.000Z</time>
      </trkpt>
      <trkpt lat="43.46937" lon="6.76415">
        <ele>79</ele>
        <time>2013-09-18T10:26:18.000Z</time>
      </trkpt>
      <trkpt lat="43.46936" lon="6.76417">
        <ele>79</ele>
        <time>2013-09-18T10:26:19.000Z</time>
      </trkpt>
      <trkpt lat="43.46935" lon="6.76418">
        <ele>80</ele>
        <time>2013-09-18T10:26:20.000Z</time>
      </trkpt>
      <trkpt lat="43.46934" lon="6.7642">
        <ele>80</ele>
        <time>2013-09-18T10:26:21.000Z</time>
      </trkpt>
      <trkpt lat="43.46933" lon="6.76421">
        <ele>80</ele>
        <time>2013-09-18T10:26:22.000Z</time>
      </trkpt>
      <trkpt lat="43.46931" lon="6.76423">
        <ele>80</ele>
        <time>2013-09-18T10:26:23.000Z</time>
      </trkpt>
      <trkpt lat="43.4693" lon="6.76424">
        <ele>80</ele>
        <time>2013-09-18T10:26:24.000Z</time>
      </trkpt>
      <trkpt lat="43.46929" lon="6.76426">
        <ele>81</ele>
        <time>2013-09-18T10:26:25.000Z</time>
      </trkpt>
      <trkpt lat="43.46928" lon="6.76428">
        <ele>81</ele>
        <time>2013-09-18T10:26:26.000Z</time>
      </trkpt>
      <trkpt lat="43.46927" lon="6.7643">
        <ele>80</ele>
        <time>2013-09-18T10:26:27.000Z</time>
      </trkpt>
      <trkpt lat="43.46926" lon="6.76431">
        <ele>80</ele>
        <time>2013-09-18T10:26:28.000Z</time>
      </trkpt>
      <trkpt lat="43.46924" lon="6.76433">
        <ele>80</ele>
        <time>2013-09-18T10:26:29.000Z</time>
      </trkpt>
      <trkpt lat="43.46923" lon="6.76435">
        <ele>80</ele>
        <time>2013-09-18T10:26:30.000Z</time>
      </trkpt>
      <trkpt lat="43.46922" lon="6.76437">
        <ele>80</ele>
        <time>2013-09-18T10:26:31.000Z</time>
      </trkpt>
      <trkpt lat="43.46921" lon="6.76438">
        <ele>80</ele>
        <time>2013-09-18T10:26:32.000Z</time>
      </trkpt>
      <trkpt lat="43.4692" lon="6.7644">
        <ele>80</ele>
        <time>2013-09-18T10:26:33.000Z</time>
      </trkpt>
      <trkpt lat="43.46918" lon="6.76441">
        <ele>80</ele>
        <time>2013-09-18T10:26:34.000Z</time>
      </trkpt>
      <trkpt lat="43.46917" lon="6.76443">
        <ele>80</ele>
        <time>2013-09-18T10:26:35.000Z</time>
      </trkpt>
      <trkpt lat="43.46916" lon="6.76444">
        <ele>83</ele>
        <time>2013-09-18T10:26:36.000Z</time>
      </trkpt>
      <trkpt lat="43.46915" lon="6.76446">
        <ele>83</ele>
        <time>2013-09-18T10:26:37.000Z</time>
      </trkpt>
      <trkpt lat="43.46914" lon="6.76448">
        <ele>83</ele>
        <time>2013-09-18T10:26:38.000Z</time>
      </trkpt>
      <trkpt lat="43.46912" lon="6.7645">
        <ele>83</ele>
        <time>2013-09-18T10:26:39.000Z</time>
      </trkpt>
      <trkpt lat="43.46911" lon="6.76452">
        <ele>83</ele>
        <time>2013-09-18T10:26:40.000Z</time>
      </trkpt>
      <trkpt lat="43.4691" lon="6.76454">
        <ele>83</ele>
        <time>2013-09-18T10:26:41.000Z</time>
      </trkpt>
      <trkpt lat="43.46909" lon="6.76455">
        <ele>83</ele>
        <time>2013-09-18T10:26:42.000Z</time>
      </trkpt>
      <trkpt lat="43.46908" lon="6.76457">
        <ele>83</ele>
        <time>2013-09-18T10:26:43.000Z</time>
      </trkpt>
      <trkpt lat="43.46906" lon="6.76459">
        <ele>83</ele>
        <time>2013-09-18T10:26:44.000Z</time>
      </trkpt>
      <trkpt lat="43.46905" lon="6.76461">
        <ele>83</ele>
        <time>2013-09-18T10:26:45.000Z</time>
      </trkpt>
      <trkpt lat="43.46904" lon="6.76462">
        <ele>83</ele>
        <time>2013-09-18T10:26:46.000Z</time>
      </trkpt>
      <trkpt lat="43.46902" lon="6.76464">
        <ele>83</ele>
        <time>2013-09-18T10:26:47.000Z</time>
      </trkpt>
      <trkpt lat="43.46901" lon="6.76466">
        <ele>83</ele>
        <time>2013-09-18T10:26:48.000Z</time>
      </trkpt>
      <trkpt lat="43.469" lon="6.76468">
        <ele>83</ele>
        <time>2013-09-18T10:26:49.000Z</time>
      </trkpt>
      <trkpt lat="43.46899" lon="6.7647">
        <ele>83</ele>
        <time>2013-09-18T10:26:50.000Z</time>
      </trkpt>
      <trkpt lat="43.46897" lon="6.76472">
        <ele>83</ele>
        <time>2013-09-18T10:26:51.000Z</time>
      </trkpt>
      <trkpt lat="43.46896" lon="6.76474">
        <ele>83</ele>
        <time>2013-09-18T10:26:52.000Z</time>
      </trkpt>
      <trkpt lat="43.46895" lon="6.76476">
        <ele>83</ele>
        <time>2013-09-18T10:26:53.000Z</time>
      </trkpt>
      <trkpt lat="43.46894" lon="6.76478">
        <ele>83</ele>
        <time>2013-09-18T10:26:54.000Z</time>
      </trkpt>
      <trkpt lat="43.46892" lon="6.7648">
        <ele>83</ele>
        <time>2013-09-18T10:26:55.000Z</time>
      </trkpt>
      <trkpt lat="43.46891" lon="6.76482">
        <ele>83</ele>
        <time>2013-09-18T10:26:56.000Z</time>
      </trkpt>
      <trkpt lat="43.46889" lon="6.76484">
        <ele>83</ele>
        <time>2013-09-18T10:26:57.000Z</time>
      </trkpt>
      <trkpt lat="43.46888" lon="6.76487">
        <ele>83</ele>
        <time>2013-09-18T10:26:58.000Z</time>
      </trkpt>
      <trkpt lat="43.46887" lon="6.76489">
        <ele>83</ele>
        <time>2013-09-18T10:26:59.000Z</time>
      </trkpt>
      <trkpt lat="43.46885" lon="6.76491">
        <ele>83</ele>
        <time>2013-09-18T10:27:00.000Z</time>
      </trkpt>
      <trkpt lat="43.46884" lon="6.76493">
        <ele>83</ele>
        <time>2013-09-18T10:27:01.000Z</time>
      </trkpt>
      <trkpt lat="43.46882" lon="6.76496">
        <ele>83</ele>
        <time>2013-09-18T10:27:02.000Z</time>
      </trkpt>
      <trkpt lat="43.46881" lon="6.76498">
        <ele>83</ele>
        <time>2013-09-18T10:27:03.000Z</time>
      </trkpt>
      <trkpt lat="43.46879" lon="6.765">
        <ele>83</ele>
        <time>2013-09-18T10:27:04.000Z</time>
      </trkpt>
      <trkpt lat="43.46878" lon="6.76502">
        <ele>85</ele>
        <time>2013-09-18T10:27:05.000Z</time>
      </trkpt>
      <trkpt lat="43.46877" lon="6.76505">
        <ele>85</ele>
        <time>2013-09-18T10:27:06.000Z</time>
      </trkpt>
      <trkpt lat="43.46875" lon="6.76507">
        <ele>85</ele>
        <time>2013-09-18T10:27:07.000Z</time>
      </trkpt>
      <trkpt lat="43.46874" lon="6.76509">
        <ele>85</ele>
        <time>2013-09-18T10:27:08.000Z</time>
      </trkpt>
      <trkpt lat="43.46872" lon="6.76512">
        <ele>85</ele>
        <time>2013-09-18T10:27:09.000Z</time>
      </trkpt>
      <trkpt lat="43.4687" lon="6.76513">
        <ele>85</ele>
        <time>2013-09-18T10:27:10.000Z</time>
      </trkpt>
      <trkpt lat="43.46869" lon="6.76515">
        <ele>85</ele>
        <time>2013-09-18T10:27:11.000Z</time>
      </trkpt>
      <trkpt lat="43.46868" lon="6.76515">
        <ele>85</ele>
        <time>2013-09-18T10:27:12.000Z</time>
      </trkpt>
      <trkpt lat="43.46867" lon="6.76515">
        <ele>85</ele>
        <time>2013-09-18T10:27:13.000Z</time>
      </trkpt>
      <trkpt lat="43.46866" lon="6.76515">
        <ele>85</ele>
        <time>2013-09-18T10:27:14.000Z</time>
      </trkpt>
      <trkpt lat="43.46865" lon="6.76514">
        <ele>85</ele>
        <time>2013-09-18T10:27:15.000Z</time>
      </trkpt>
      <trkpt lat="43.46861" lon="6.76515">
        <ele>85</ele>
        <time>2013-09-18T10:27:17.000Z</time>
      </trkpt>
      <trkpt lat="43.46858" lon="6.76517">
        <ele>85</ele>
        <time>2013-09-18T10:27:18.000Z</time>
      </trkpt>
      <trkpt lat="43.46856" lon="6.76519">
        <ele>85</ele>
        <time>2013-09-18T10:27:19.000Z</time>
      </trkpt>
      <trkpt lat="43.46854" lon="6.76522">
        <ele>85</ele>
        <time>2013-09-18T10:27:20.000Z</time>
      </trkpt>
      <trkpt lat="43.46852" lon="6.76525">
        <ele>85</ele>
        <time>2013-09-18T10:27:21.000Z</time>
      </trkpt>
      <trkpt lat="43.4685" lon="6.76528">
        <ele>85</ele>
        <time>2013-09-18T10:27:22.000Z</time>
      </trkpt>
      <trkpt lat="43.46847" lon="6.7653">
        <ele>85</ele>
        <time>2013-09-18T10:27:23.000Z</time>
      </trkpt>
      <trkpt lat="43.46844" lon="6.76534">
        <ele>86</ele>
        <time>2013-09-18T10:27:24.000Z</time>
      </trkpt>
      <trkpt lat="43.46842" lon="6.76537">
        <ele>86</ele>
        <time>2013-09-18T10:27:25.000Z</time>
      </trkpt>
      <trkpt lat="43.46838" lon="6.76539">
        <ele>86</ele>
        <time>2013-09-18T10:27:26.000Z</time>
      </trkpt>
      <trkpt lat="43.46835" lon="6.76542">
        <ele>86</ele>
        <time>2013-09-18T10:27:27.000Z</time>
      </trkpt>
      <trkpt lat="43.46832" lon="6.76544">
        <ele>86</ele>
        <time>2013-09-18T10:27:28.000Z</time>
      </trkpt>
      <trkpt lat="43.46828" lon="6.76547">
        <ele>86</ele>
        <time>2013-09-18T10:27:29.000Z</time>
      </trkpt>
      <trkpt lat="43.46824" lon="6.7655">
        <ele>86</ele>
        <time>2013-09-18T10:27:30.000Z</time>
      </trkpt>
      <trkpt lat="43.46821" lon="6.76553">
        <ele>86</ele>
        <time>2013-09-18T10:27:31.000Z</time>
      </trkpt>
      <trkpt lat="43.46818" lon="6.76557">
        <ele>86</ele>
        <time>2013-09-18T10:27:32.000Z</time>
      </trkpt>
      <trkpt lat="43.46816" lon="6.76561">
        <ele>86</ele>
        <time>2013-09-18T10:27:33.000Z</time>
      </trkpt>
      <trkpt lat="43.46814" lon="6.76567">
        <ele>87</ele>
        <time>2013-09-18T10:27:34.000Z</time>
      </trkpt>
      <trkpt lat="43.46813" lon="6.76572">
        <ele>87</ele>
        <time>2013-09-18T10:27:35.000Z</time>
      </trkpt>
      <trkpt lat="43.46812" lon="6.76577">
        <ele>87</ele>
        <time>2013-09-18T10:27:36.000Z</time>
      </trkpt>
      <trkpt lat="43.4681" lon="6.76581">
        <ele>87</ele>
        <time>2013-09-18T10:27:37.000Z</time>
      </trkpt>
      <trkpt lat="43.46807" lon="6.76586">
        <ele>87</ele>
        <time>2013-09-18T10:27:38.000Z</time>
      </trkpt>
      <trkpt lat="43.46804" lon="6.7659">
        <ele>87</ele>
        <time>2013-09-18T10:27:39.000Z</time>
      </trkpt>
      <trkpt lat="43.46801" lon="6.76593">
        <ele>87</ele>
        <time>2013-09-18T10:27:40.000Z</time>
      </trkpt>
      <trkpt lat="43.46797" lon="6.76596">
        <ele>87</ele>
        <time>2013-09-18T10:27:41.000Z</time>
      </trkpt>
      <trkpt lat="43.46794" lon="6.76599">
        <ele>87</ele>
        <time>2013-09-18T10:27:42.000Z</time>
      </trkpt>
      <trkpt lat="43.4679" lon="6.76602">
        <ele>87</ele>
        <time>2013-09-18T10:27:43.000Z</time>
      </trkpt>
      <trkpt lat="43.46787" lon="6.76605">
        <ele>87</ele>
        <time>2013-09-18T10:27:44.000Z</time>
      </trkpt>
      <trkpt lat="43.46783" lon="6.76608">
        <ele>87</ele>
        <time>2013-09-18T10:27:45.000Z</time>
      </trkpt>
      <trkpt lat="43.4678" lon="6.76611">
        <ele>86</ele>
        <time>2013-09-18T10:27:46.000Z</time>
      </trkpt>
      <trkpt lat="43.46777" lon="6.76613">
        <ele>86</ele>
        <time>2013-09-18T10:27:47.000Z</time>
      </trkpt>
      <trkpt lat="43.46774" lon="6.76614">
        <ele>86</ele>
        <time>2013-09-18T10:27:48.000Z</time>
      </trkpt>
      <trkpt lat="43.46772" lon="6.76616">
        <ele>86</ele>
        <time>2013-09-18T10:27:49.000Z</time>
      </trkpt>
      <trkpt lat="43.4677" lon="6.76618">
        <ele>86</ele>
        <time>2013-09-18T10:27:50.000Z</time>
      </trkpt>
      <trkpt lat="43.46768" lon="6.76619">
        <ele>86</ele>
        <time>2013-09-18T10:27:51.000Z</time>
      </trkpt>
      <trkpt lat="43.46767" lon="6.7662">
        <ele>86</ele>
        <time>2013-09-18T10:27:52.000Z</time>
      </trkpt>
      <trkpt lat="43.46767" lon="6.7662">
        <ele>86</ele>
        <time>2013-09-18T10:27:53.000Z</time>
      </trkpt>
      <trkpt lat="43.46766" lon="6.7662">
        <ele>86</ele>
        <time>2013-09-18T10:27:56.000Z</time>
      </trkpt>
      <trkpt lat="43.46766" lon="6.76621">
        <ele>86</ele>
        <time>2013-09-18T10:28:00.000Z</time>
      </trkpt>
      <trkpt lat="43.46766" lon="6.76621">
        <ele>86</ele>
        <time>2013-09-18T10:28:04.000Z</time>
      </trkpt>
      <trkpt lat="43.46766" lon="6.76621">
        <ele>86</ele>
        <time>2013-09-18T10:28:10.000Z</time>
      </trkpt>
      <trkpt lat="43.46766" lon="6.76621">
        <ele>86</ele>
        <time>2013-09-18T10:28:13.000Z</time>
      </trkpt>
      <trkpt lat="43.46765" lon="6.76621">
        <ele>86</ele>
        <time>2013-09-18T10:28:20.000Z</time>
      </trkpt>
      <trkpt lat="43.46765" lon="6.76621">
        <ele>86</ele>
        <time>2013-09-18T10:28:31.000Z</time>
      </trkpt>
      <trkpt lat="43.46765" lon="6.76622">
        <ele>86</ele>
        <time>2013-09-18T10:28:33.000Z</time>
      </trkpt>
      <trkpt lat="43.46764" lon="6.76622">
        <ele>86</ele>
        <time>2013-09-18T10:28:34.000Z</time>
      </trkpt>
      <trkpt lat="43.46762" lon="6.76623">
        <ele>86</ele>
        <time>2013-09-18T10:28:35.000Z</time>
      </trkpt>
      <trkpt lat="43.4676" lon="6.76624">
        <ele>86</ele>
        <time>2013-09-18T10:28:36.000Z</time>
      </trkpt>
      <trkpt lat="43.46758" lon="6.76626">
        <ele>86</ele>
        <time>2013-09-18T10:28:37.000Z</time>
      </trkpt>
      <trkpt lat="43.46756" lon="6.76628">
        <ele>86</ele>
        <time>2013-09-18T10:28:38.000Z</time>
      </trkpt>
      <trkpt lat="43.46753" lon="6.76631">
        <ele>86</ele>
        <time>2013-09-18T10:28:39.000Z</time>
      </trkpt>
      <trkpt lat="43.4675" lon="6.76633">
        <ele>86</ele>
        <time>2013-09-18T10:28:40.000Z</time>
      </trkpt>
      <trkpt lat="43.46747" lon="6.76634">
        <ele>85</ele>
        <time>2013-09-18T10:28:41.000Z</time>
      </trkpt>
      <trkpt lat="43.46744" lon="6.76636">
        <ele>85</ele>
        <time>2013-09-18T10:28:42.000Z</time>
      </trkpt>
      <trkpt lat="43.46741" lon="6.76639">
        <ele>85</ele>
        <time>2013-09-18T10:28:43.000Z</time>
      </trkpt>
      <trkpt lat="43.46737" lon="6.76642">
        <ele>85</ele>
        <time>2013-09-18T10:28:44.000Z</time>
      </trkpt>
      <trkpt lat="43.46734" lon="6.76644">
        <ele>85</ele>
        <time>2013-09-18T10:28:45.000Z</time>
      </trkpt>
      <trkpt lat="43.4673" lon="6.76646">
        <ele>85</ele>
        <time>2013-09-18T10:28:46.000Z</time>
      </trkpt>
      <trkpt lat="43.46727" lon="6.76648">
        <ele>85</ele>
        <time>2013-09-18T10:28:47.000Z</time>
      </trkpt>
      <trkpt lat="43.46723" lon="6.7665">
        <ele>84</ele>
        <time>2013-09-18T10:28:48.000Z</time>
      </trkpt>
      <trkpt lat="43.46719" lon="6.76652">
        <ele>84</ele>
        <time>2013-09-18T10:28:49.000Z</time>
      </trkpt>
      <trkpt lat="43.46715" lon="6.76654">
        <ele>84</ele>
        <time>2013-09-18T10:28:50.000Z</time>
      </trkpt>
      <trkpt lat="43.46711" lon="6.76656">
        <ele>84</ele>
        <time>2013-09-18T10:28:51.000Z</time>
      </trkpt>
      <trkpt lat="43.46706" lon="6.76657">
        <ele>84</ele>
        <time>2013-09-18T10:28:52.000Z</time>
      </trkpt>
      <trkpt lat="43.46702" lon="6.76659">
        <ele>84</ele>
        <time>2013-09-18T10:28:53.000Z</time>
      </trkpt>
      <trkpt lat="43.46697" lon="6.7666">
        <ele>84</ele>
        <time>2013-09-18T10:28:54.000Z</time>
      </trkpt>
      <trkpt lat="43.46692" lon="6.7666">
        <ele>84</ele>
        <time>2013-09-18T10:28:55.000Z</time>
      </trkpt>
      <trkpt lat="43.46687" lon="6.76661">
        <ele>84</ele>
        <time>2013-09-18T10:28:56.000Z</time>
      </trkpt>
      <trkpt lat="43.46682" lon="6.76661">
        <ele>84</ele>
        <time>2013-09-18T10:28:57.000Z</time>
      </trkpt>
      <trkpt lat="43.46677" lon="6.76662">
        <ele>83</ele>
        <time>2013-09-18T10:28:58.000Z</time>
      </trkpt>
      <trkpt lat="43.46673" lon="6.76663">
        <ele>83</ele>
        <time>2013-09-18T10:28:59.000Z</time>
      </trkpt>
      <trkpt lat="43.46668" lon="6.76663">
        <ele>83</ele>
        <time>2013-09-18T10:29:00.000Z</time>
      </trkpt>
      <trkpt lat="43.46663" lon="6.76664">
        <ele>82</ele>
        <time>2013-09-18T10:29:01.000Z</time>
      </trkpt>
      <trkpt lat="43.46659" lon="6.76665">
        <ele>82</ele>
        <time>2013-09-18T10:29:02.000Z</time>
      </trkpt>
      <trkpt lat="43.46654" lon="6.76666">
        <ele>82</ele>
        <time>2013-09-18T10:29:03.000Z</time>
      </trkpt>
      <trkpt lat="43.46649" lon="6.76667">
        <ele>82</ele>
        <time>2013-09-18T10:29:04.000Z</time>
      </trkpt>
      <trkpt lat="43.46644" lon="6.76668">
        <ele>82</ele>
        <time>2013-09-18T10:29:05.000Z</time>
      </trkpt>
      <trkpt lat="43.4664" lon="6.7667">
        <ele>82</ele>
        <time>2013-09-18T10:29:06.000Z</time>
      </trkpt>
      <trkpt lat="43.46635" lon="6.76672">
        <ele>82</ele>
        <time>2013-09-18T10:29:07.000Z</time>
      </trkpt>
      <trkpt lat="43.46631" lon="6.76674">
        <ele>82</ele>
        <time>2013-09-18T10:29:08.000Z</time>
      </trkpt>
      <trkpt lat="43.46626" lon="6.76675">
        <ele>81</ele>
        <time>2013-09-18T10:29:09.000Z</time>
      </trkpt>
      <trkpt lat="43.46622" lon="6.76676">
        <ele>81</ele>
        <time>2013-09-18T10:29:10.000Z</time>
      </trkpt>
      <trkpt lat="43.46618" lon="6.76678">
        <ele>81</ele>
        <time>2013-09-18T10:29:11.000Z</time>
      </trkpt>
      <trkpt lat="43.46614" lon="6.7668">
        <ele>81</ele>
        <time>2013-09-18T10:29:12.000Z</time>
      </trkpt>
      <trkpt lat="43.46611" lon="6.76682">
        <ele>81</ele>
        <time>2013-09-18T10:29:13.000Z</time>
      </trkpt>
      <trkpt lat="43.46607" lon="6.76684">
        <ele>81</ele>
        <time>2013-09-18T10:29:14.000Z</time>
      </trkpt>
      <trkpt lat="43.46604" lon="6.76686">
        <ele>81</ele>
        <time>2013-09-18T10:29:15.000Z</time>
      </trkpt>
      <trkpt lat="43.466" lon="6.76688">
        <ele>81</ele>
        <time>2013-09-18T10:29:16.000Z</time>
      </trkpt>
      <trkpt lat="43.46596" lon="6.7669">
        <ele>81</ele>
        <time>2013-09-18T10:29:17.000Z</time>
      </trkpt>
      <trkpt lat="43.46592" lon="6.76692">
        <ele>81</ele>
        <time>2013-09-18T10:29:18.000Z</time>
      </trkpt>
      <trkpt lat="43.46588" lon="6.76694">
        <ele>81</ele>
        <time>2013-09-18T10:29:19.000Z</time>
      </trkpt>
      <trkpt lat="43.46584" lon="6.76696">
        <ele>81</ele>
        <time>2013-09-18T10:29:20.000Z</time>
      </trkpt>
      <trkpt lat="43.46579" lon="6.76698">
        <ele>79</ele>
        <time>2013-09-18T10:29:21.000Z</time>
      </trkpt>
      <trkpt lat="43.46575" lon="6.767">
        <ele>79</ele>
        <time>2013-09-18T10:29:22.000Z</time>
      </trkpt>
      <trkpt lat="43.46571" lon="6.76703">
        <ele>79</ele>
        <time>2013-09-18T10:29:23.000Z</time>
      </trkpt>
      <trkpt lat="43.46566" lon="6.76705">
        <ele>79</ele>
        <time>2013-09-18T10:29:24.000Z</time>
      </trkpt>
      <trkpt lat="43.46562" lon="6.76707">
        <ele>79</ele>
        <time>2013-09-18T10:29:25.000Z</time>
      </trkpt>
      <trkpt lat="43.46557" lon="6.76709">
        <ele>78</ele>
        <time>2013-09-18T10:29:26.000Z</time>
      </trkpt>
      <trkpt lat="43.46552" lon="6.76711">
        <ele>78</ele>
        <time>2013-09-18T10:29:27.000Z</time>
      </trkpt>
      <trkpt lat="43.46548" lon="6.76714">
        <ele>78</ele>
        <time>2013-09-18T10:29:28.000Z</time>
      </trkpt>
      <trkpt lat="43.46543" lon="6.76716">
        <ele>78</ele>
        <time>2013-09-18T10:29:29.000Z</time>
      </trkpt>
      <trkpt lat="43.46538" lon="6.76718">
        <ele>78</ele>
        <time>2013-09-18T10:29:30.000Z</time>
      </trkpt>
      <trkpt lat="43.46533" lon="6.76721">
        <ele>78</ele>
        <time>2013-09-18T10:29:31.000Z</time>
      </trkpt>
      <trkpt lat="43.46528" lon="6.76723">
        <ele>78</ele>
        <time>2013-09-18T10:29:32.000Z</time>
      </trkpt>
      <trkpt lat="43.46523" lon="6.76726">
        <ele>78</ele>
        <time>2013-09-18T10:29:33.000Z</time>
      </trkpt>
      <trkpt lat="43.46517" lon="6.7673">
        <ele>78</ele>
        <time>2013-09-18T10:29:34.000Z</time>
      </trkpt>
      <trkpt lat="43.46511" lon="6.76733">
        <ele>78</ele>
        <time>2013-09-18T10:29:35.000Z</time>
      </trkpt>
      <trkpt lat="43.46505" lon="6.76737">
        <ele>77</ele>
        <time>2013-09-18T10:29:36.000Z</time>
      </trkpt>
      <trkpt lat="43.46499" lon="6.76741">
        <ele>76</ele>
        <time>2013-09-18T10:29:37.000Z</time>
      </trkpt>
      <trkpt lat="43.46493" lon="6.76744">
        <ele>76</ele>
        <time>2013-09-18T10:29:38.000Z</time>
      </trkpt>
      <trkpt lat="43.46487" lon="6.76747">
        <ele>75</ele>
        <time>2013-09-18T10:29:39.000Z</time>
      </trkpt>
      <trkpt lat="43.46481" lon="6.7675">
        <ele>76</ele>
        <time>2013-09-18T10:29:40.000Z</time>
      </trkpt>
      <trkpt lat="43.46474" lon="6.76755">
        <ele>75</ele>
        <time>2013-09-18T10:29:41.000Z</time>
      </trkpt>
      <trkpt lat="43.46467" lon="6.76758">
        <ele>75</ele>
        <time>2013-09-18T10:29:42.000Z</time>
      </trkpt>
      <trkpt lat="43.4646" lon="6.76762">
        <ele>75</ele>
        <time>2013-09-18T10:29:43.000Z</time>
      </trkpt>
      <trkpt lat="43.46453" lon="6.76766">
        <ele>74</ele>
        <time>2013-09-18T10:29:44.000Z</time>
      </trkpt>
      <trkpt lat="43.46446" lon="6.76769">
        <ele>74</ele>
        <time>2013-09-18T10:29:45.000Z</time>
      </trkpt>
      <trkpt lat="43.4644" lon="6.76773">
        <ele>74</ele>
        <time>2013-09-18T10:29:46.000Z</time>
      </trkpt>
      <trkpt lat="43.46433" lon="6.76776">
        <ele>74</ele>
        <time>2013-09-18T10:29:47.000Z</time>
      </trkpt>
      <trkpt lat="43.46427" lon="6.7678">
        <ele>74</ele>
        <time>2013-09-18T10:29:48.000Z</time>
      </trkpt>
      <trkpt lat="43.4642" lon="6.76784">
        <ele>74</ele>
        <time>2013-09-18T10:29:49.000Z</time>
      </trkpt>
      <trkpt lat="43.46414" lon="6.76788">
        <ele>71</ele>
        <time>2013-09-18T10:29:50.000Z</time>
      </trkpt>
      <trkpt lat="43.46409" lon="6.76793">
        <ele>71</ele>
        <time>2013-09-18T10:29:51.000Z</time>
      </trkpt>
      <trkpt lat="43.46403" lon="6.76798">
        <ele>71</ele>
        <time>2013-09-18T10:29:52.000Z</time>
      </trkpt>
      <trkpt lat="43.46397" lon="6.76803">
        <ele>71</ele>
        <time>2013-09-18T10:29:53.000Z</time>
      </trkpt>
      <trkpt lat="43.46392" lon="6.76809">
        <ele>71</ele>
        <time>2013-09-18T10:29:54.000Z</time>
      </trkpt>
      <trkpt lat="43.46386" lon="6.76814">
        <ele>71</ele>
        <time>2013-09-18T10:29:55.000Z</time>
      </trkpt>
      <trkpt lat="43.46381" lon="6.7682">
        <ele>71</ele>
        <time>2013-09-18T10:29:56.000Z</time>
      </trkpt>
      <trkpt lat="43.46376" lon="6.76826">
        <ele>71</ele>
        <time>2013-09-18T10:29:57.000Z</time>
      </trkpt>
      <trkpt lat="43.4637" lon="6.76832">
        <ele>70</ele>
        <time>2013-09-18T10:29:58.000Z</time>
      </trkpt>
      <trkpt lat="43.46364" lon="6.76838">
        <ele>70</ele>
        <time>2013-09-18T10:29:59.000Z</time>
      </trkpt>
      <trkpt lat="43.46358" lon="6.76845">
        <ele>70</ele>
        <time>2013-09-18T10:30:00.000Z</time>
      </trkpt>
      <trkpt lat="43.46351" lon="6.76851">
        <ele>69</ele>
        <time>2013-09-18T10:30:01.000Z</time>
      </trkpt>
      <trkpt lat="43.46345" lon="6.76859">
        <ele>69</ele>
        <time>2013-09-18T10:30:02.000Z</time>
      </trkpt>
      <trkpt lat="43.46337" lon="6.76866">
        <ele>69</ele>
        <time>2013-09-18T10:30:03.000Z</time>
      </trkpt>
      <trkpt lat="43.4633" lon="6.76874">
        <ele>67</ele>
        <time>2013-09-18T10:30:04.000Z</time>
      </trkpt>
      <trkpt lat="43.46323" lon="6.76881">
        <ele>66</ele>
        <time>2013-09-18T10:30:05.000Z</time>
      </trkpt>
      <trkpt lat="43.46316" lon="6.76888">
        <ele>66</ele>
        <time>2013-09-18T10:30:06.000Z</time>
      </trkpt>
      <trkpt lat="43.46309" lon="6.76895">
        <ele>66</ele>
        <time>2013-09-18T10:30:07.000Z</time>
      </trkpt>
      <trkpt lat="43.46303" lon="6.76901">
        <ele>66</ele>
        <time>2013-09-18T10:30:08.000Z</time>
      </trkpt>
      <trkpt lat="43.46297" lon="6.76907">
        <ele>66</ele>
        <time>2013-09-18T10:30:09.000Z</time>
      </trkpt>
      <trkpt lat="43.46291" lon="6.76912">
        <ele>66</ele>
        <time>2013-09-18T10:30:10.000Z</time>
      </trkpt>
      <trkpt lat="43.46286" lon="6.76918">
        <ele>65</ele>
        <time>2013-09-18T10:30:11.000Z</time>
      </trkpt>
      <trkpt lat="43.46281" lon="6.76923">
        <ele>65</ele>
        <time>2013-09-18T10:30:12.000Z</time>
      </trkpt>
      <trkpt lat="43.46276" lon="6.76927">
        <ele>64</ele>
        <time>2013-09-18T10:30:13.000Z</time>
      </trkpt>
      <trkpt lat="43.46273" lon="6.76931">
        <ele>64</ele>
        <time>2013-09-18T10:30:14.000Z</time>
      </trkpt>
      <trkpt lat="43.46269" lon="6.76933">
        <ele>64</ele>
        <time>2013-09-18T10:30:15.000Z</time>
      </trkpt>
      <trkpt lat="43.46265" lon="6.76934">
        <ele>64</ele>
        <time>2013-09-18T10:30:16.000Z</time>
      </trkpt>
      <trkpt lat="43.46261" lon="6.76933">
        <ele>64</ele>
        <time>2013-09-18T10:30:17.000Z</time>
      </trkpt>
      <trkpt lat="43.46257" lon="6.76933">
        <ele>64</ele>
        <time>2013-09-18T10:30:18.000Z</time>
      </trkpt>
      <trkpt lat="43.46254" lon="6.76935">
        <ele>64</ele>
        <time>2013-09-18T10:30:19.000Z</time>
      </trkpt>
      <trkpt lat="43.46252" lon="6.76938">
        <ele>64</ele>
        <time>2013-09-18T10:30:20.000Z</time>
      </trkpt>
      <trkpt lat="43.46251" lon="6.76942">
        <ele>64</ele>
        <time>2013-09-18T10:30:21.000Z</time>
      </trkpt>
      <trkpt lat="43.4625" lon="6.76946">
        <ele>61</ele>
        <time>2013-09-18T10:30:22.000Z</time>
      </trkpt>
      <trkpt lat="43.46248" lon="6.76948">
        <ele>61</ele>
        <time>2013-09-18T10:30:23.000Z</time>
      </trkpt>
      <trkpt lat="43.46245" lon="6.7695">
        <ele>61</ele>
        <time>2013-09-18T10:30:24.000Z</time>
      </trkpt>
      <trkpt lat="43.46242" lon="6.76951">
        <ele>61</ele>
        <time>2013-09-18T10:30:25.000Z</time>
      </trkpt>
      <trkpt lat="43.46238" lon="6.76953">
        <ele>60</ele>
        <time>2013-09-18T10:30:26.000Z</time>
      </trkpt>
      <trkpt lat="43.46234" lon="6.76955">
        <ele>60</ele>
        <time>2013-09-18T10:30:27.000Z</time>
      </trkpt>
      <trkpt lat="43.4623" lon="6.76957">
        <ele>60</ele>
        <time>2013-09-18T10:30:28.000Z</time>
      </trkpt>
      <trkpt lat="43.46225" lon="6.7696">
        <ele>60</ele>
        <time>2013-09-18T10:30:29.000Z</time>
      </trkpt>
      <trkpt lat="43.4622" lon="6.76963">
        <ele>60</ele>
        <time>2013-09-18T10:30:30.000Z</time>
      </trkpt>
      <trkpt lat="43.46215" lon="6.76966">
        <ele>60</ele>
        <time>2013-09-18T10:30:31.000Z</time>
      </trkpt>
      <trkpt lat="43.4621" lon="6.76969">
        <ele>60</ele>
        <time>2013-09-18T10:30:32.000Z</time>
      </trkpt>
      <trkpt lat="43.46206" lon="6.76975">
        <ele>59</ele>
        <time>2013-09-18T10:30:33.000Z</time>
      </trkpt>
      <trkpt lat="43.46203" lon="6.76982">
        <ele>59</ele>
        <time>2013-09-18T10:30:34.000Z</time>
      </trkpt>
      <trkpt lat="43.46201" lon="6.76989">
        <ele>59</ele>
        <time>2013-09-18T10:30:35.000Z</time>
      </trkpt>
      <trkpt lat="43.46199" lon="6.76998">
        <ele>59</ele>
        <time>2013-09-18T10:30:36.000Z</time>
      </trkpt>
      <trkpt lat="43.46198" lon="6.77006">
        <ele>58</ele>
        <time>2013-09-18T10:30:37.000Z</time>
      </trkpt>
      <trkpt lat="43.46197" lon="6.77015">
        <ele>58</ele>
        <time>2013-09-18T10:30:38.000Z</time>
      </trkpt>
      <trkpt lat="43.46197" lon="6.77041">
        <ele>58</ele>
        <time>2013-09-18T10:30:41.000Z</time>
      </trkpt>
      <trkpt lat="43.46197" lon="6.7705">
        <ele>58</ele>
        <time>2013-09-18T10:30:42.000Z</time>
      </trkpt>
      <trkpt lat="43.46197" lon="6.77059">
        <ele>58</ele>
        <time>2013-09-18T10:30:43.000Z</time>
      </trkpt>
      <trkpt lat="43.46198" lon="6.77067">
        <ele>58</ele>
        <time>2013-09-18T10:30:44.000Z</time>
      </trkpt>
      <trkpt lat="43.46198" lon="6.77075">
        <ele>58</ele>
        <time>2013-09-18T10:30:45.000Z</time>
      </trkpt>
      <trkpt lat="43.46198" lon="6.77083">
        <ele>58</ele>
        <time>2013-09-18T10:30:46.000Z</time>
      </trkpt>
      <trkpt lat="43.46198" lon="6.7709">
        <ele>58</ele>
        <time>2013-09-18T10:30:47.000Z</time>
      </trkpt>
      <trkpt lat="43.46198" lon="6.77097">
        <ele>58</ele>
        <time>2013-09-18T10:30:48.000Z</time>
      </trkpt>
      <trkpt lat="43.46199" lon="6.77103">
        <ele>58</ele>
        <time>2013-09-18T10:30:49.000Z</time>
      </trkpt>
      <trkpt lat="43.46199" lon="6.7711">
        <ele>58</ele>
        <time>2013-09-18T10:30:50.000Z</time>
      </trkpt>
      <trkpt lat="43.46199" lon="6.77122">
        <ele>58</ele>
        <time>2013-09-18T10:30:52.000Z</time>
      </trkpt>
      <trkpt lat="43.46199" lon="6.77134">
        <ele>58</ele>
        <time>2013-09-18T10:30:54.000Z</time>
      </trkpt>
      <trkpt lat="43.46199" lon="6.7714">
        <ele>58</ele>
        <time>2013-09-18T10:30:55.000Z</time>
      </trkpt>
      <trkpt lat="43.462" lon="6.77146">
        <ele>58</ele>
        <time>2013-09-18T10:30:56.000Z</time>
      </trkpt>
      <trkpt lat="43.462" lon="6.77161">
        <ele>58</ele>
        <time>2013-09-18T10:30:59.000Z</time>
      </trkpt>
      <trkpt lat="43.462" lon="6.77166">
        <ele>58</ele>
        <time>2013-09-18T10:31:00.000Z</time>
      </trkpt>
      <trkpt lat="43.462" lon="6.77177">
        <ele>60</ele>
        <time>2013-09-18T10:31:02.000Z</time>
      </trkpt>
      <trkpt lat="43.462" lon="6.77181">
        <ele>60</ele>
        <time>2013-09-18T10:31:03.000Z</time>
      </trkpt>
      <trkpt lat="43.462" lon="6.77186">
        <ele>60</ele>
        <time>2013-09-18T10:31:04.000Z</time>
      </trkpt>
      <trkpt lat="43.46201" lon="6.77191">
        <ele>60</ele>
        <time>2013-09-18T10:31:05.000Z</time>
      </trkpt>
      <trkpt lat="43.46201" lon="6.77196">
        <ele>60</ele>
        <time>2013-09-18T10:31:06.000Z</time>
      </trkpt>
      <trkpt lat="43.46201" lon="6.77221">
        <ele>61</ele>
        <time>2013-09-18T10:31:11.000Z</time>
      </trkpt>
      <trkpt lat="43.462" lon="6.77225">
        <ele>61</ele>
        <time>2013-09-18T10:31:12.000Z</time>
      </trkpt>
      <trkpt lat="43.462" lon="6.77229">
        <ele>61</ele>
        <time>2013-09-18T10:31:13.000Z</time>
      </trkpt>
      <trkpt lat="43.462" lon="6.77233">
        <ele>61</ele>
        <time>2013-09-18T10:31:14.000Z</time>
      </trkpt>
      <trkpt lat="43.462" lon="6.77237">
        <ele>61</ele>
        <time>2013-09-18T10:31:15.000Z</time>
      </trkpt>
      <trkpt lat="43.46201" lon="6.77241">
        <ele>61</ele>
        <time>2013-09-18T10:31:16.000Z</time>
      </trkpt>
      <trkpt lat="43.46201" lon="6.77245">
        <ele>61</ele>
        <time>2013-09-18T10:31:17.000Z</time>
      </trkpt>
      <trkpt lat="43.46202" lon="6.77249">
        <ele>61</ele>
        <time>2013-09-18T10:31:18.000Z</time>
      </trkpt>
      <trkpt lat="43.46202" lon="6.77253">
        <ele>64</ele>
        <time>2013-09-18T10:31:19.000Z</time>
      </trkpt>
      <trkpt lat="43.46202" lon="6.77258">
        <ele>64</ele>
        <time>2013-09-18T10:31:20.000Z</time>
      </trkpt>
      <trkpt lat="43.46202" lon="6.77267">
        <ele>64</ele>
        <time>2013-09-18T10:31:22.000Z</time>
      </trkpt>
      <trkpt lat="43.46202" lon="6.77271">
        <ele>64</ele>
        <time>2013-09-18T10:31:23.000Z</time>
      </trkpt>
      <trkpt lat="43.46202" lon="6.77279">
        <ele>64</ele>
        <time>2013-09-18T10:31:25.000Z</time>
      </trkpt>
      <trkpt lat="43.46202" lon="6.77288">
        <ele>64</ele>
        <time>2013-09-18T10:31:27.000Z</time>
      </trkpt>
      <trkpt lat="43.46202" lon="6.77292">
        <ele>64</ele>
        <time>2013-09-18T10:31:28.000Z</time>
      </trkpt>
      <trkpt lat="43.46202" lon="6.77296">
        <ele>65</ele>
        <time>2013-09-18T10:31:29.000Z</time>
      </trkpt>
      <trkpt lat="43.46202" lon="6.773">
        <ele>65</ele>
        <time>2013-09-18T10:31:30.000Z</time>
      </trkpt>
      <trkpt lat="43.46201" lon="6.77304">
        <ele>65</ele>
        <time>2013-09-18T10:31:31.000Z</time>
      </trkpt>
      <trkpt lat="43.46202" lon="6.77308">
        <ele>65</ele>
        <time>2013-09-18T10:31:32.000Z</time>
      </trkpt>
      <trkpt lat="43.46202" lon="6.77312">
        <ele>65</ele>
        <time>2013-09-18T10:31:33.000Z</time>
      </trkpt>
      <trkpt lat="43.46202" lon="6.77324">
        <ele>65</ele>
        <time>2013-09-18T10:31:36.000Z</time>
      </trkpt>
      <trkpt lat="43.46201" lon="6.77331">
        <ele>65</ele>
        <time>2013-09-18T10:31:38.000Z</time>
      </trkpt>
      <trkpt lat="43.46201" lon="6.77334">
        <ele>67</ele>
        <time>2013-09-18T10:31:39.000Z</time>
      </trkpt>
      <trkpt lat="43.46201" lon="6.77348">
        <ele>67</ele>
        <time>2013-09-18T10:31:43.000Z</time>
      </trkpt>
      <trkpt lat="43.46201" lon="6.77351">
        <ele>67</ele>
        <time>2013-09-18T10:31:44.000Z</time>
      </trkpt>
      <trkpt lat="43.462" lon="6.77354">
        <ele>67</ele>
        <time>2013-09-18T10:31:45.000Z</time>
      </trkpt>
      <trkpt lat="43.462" lon="6.77355">
        <ele>67</ele>
        <time>2013-09-18T10:31:46.000Z</time>
      </trkpt>
      <trkpt lat="43.462" lon="6.77356">
        <ele>67</ele>
        <time>2013-09-18T10:31:47.000Z</time>
      </trkpt>
      <trkpt lat="43.462" lon="6.77357">
        <ele>67</ele>
        <time>2013-09-18T10:31:54.000Z</time>
      </trkpt>
      <trkpt lat="43.462" lon="6.77357">
        <ele>67</ele>
        <time>2013-09-18T10:31:57.000Z</time>
      </trkpt>
      <trkpt lat="43.462" lon="6.77358">
        <ele>67</ele>
        <time>2013-09-18T10:31:59.000Z</time>
      </trkpt>
      <trkpt lat="43.462" lon="6.77358">
        <ele>67</ele>
        <time>2013-09-18T10:32:00.000Z</time>
      </trkpt>
      <trkpt lat="43.462" lon="6.77358">
        <ele>67</ele>
        <time>2013-09-18T10:32:01.000Z</time>
      </trkpt>
      <trkpt lat="43.462" lon="6.77358">
        <ele>67</ele>
        <time>2013-09-18T10:32:05.000Z</time>
      </trkpt>
      <trkpt lat="43.462" lon="6.77358">
        <ele>67</ele>
        <time>2013-09-18T10:32:06.000Z</time>
      </trkpt>
      <trkpt lat="43.46201" lon="6.7736">
        <ele>67</ele>
        <time>2013-09-18T10:32:10.000Z</time>
      </trkpt>
      <trkpt lat="43.46201" lon="6.77361">
        <ele>67</ele>
        <time>2013-09-18T10:32:13.000Z</time>
      </trkpt>
      <trkpt lat="43.46201" lon="6.77362">
        <ele>67</ele>
        <time>2013-09-18T10:32:15.000Z</time>
      </trkpt>
      <trkpt lat="43.46201" lon="6.77362">
        <ele>67</ele>
        <time>2013-09-18T10:32:17.000Z</time>
      </trkpt>
      <trkpt lat="43.46201" lon="6.77366">
        <ele>67</ele>
        <time>2013-09-18T10:32:29.000Z</time>
      </trkpt>
      <trkpt lat="43.46201" lon="6.77367">
        <ele>67</ele>
        <time>2013-09-18T10:32:34.000Z</time>
      </trkpt>
      <trkpt lat="43.46201" lon="6.77368">
        <ele>67</ele>
        <time>2013-09-18T10:32:36.000Z</time>
      </trkpt>
      <trkpt lat="43.462" lon="6.77368">
        <ele>67</ele>
        <time>2013-09-18T10:32:39.000Z</time>
      </trkpt>
      <trkpt lat="43.462" lon="6.77369">
        <ele>67</ele>
        <time>2013-09-18T10:32:41.000Z</time>
      </trkpt>
      <trkpt lat="43.462" lon="6.7737">
        <ele>67</ele>
        <time>2013-09-18T10:32:45.000Z</time>
      </trkpt>
      <trkpt lat="43.462" lon="6.7737">
        <ele>67</ele>
        <time>2013-09-18T10:32:46.000Z</time>
      </trkpt>
      <trkpt lat="43.462" lon="6.7737">
        <ele>67</ele>
        <time>2013-09-18T10:32:49.000Z</time>
      </trkpt>
      <trkpt lat="43.462" lon="6.77371">
        <ele>67</ele>
        <time>2013-09-18T10:32:58.000Z</time>
      </trkpt>
      <trkpt lat="43.46199" lon="6.77371">
        <ele>67</ele>
        <time>2013-09-18T10:33:05.000Z</time>
      </trkpt>
      <trkpt lat="43.46199" lon="6.77371">
        <ele>67</ele>
        <time>2013-09-18T10:33:08.000Z</time>
      </trkpt>
      <trkpt lat="43.46199" lon="6.77372">
        <ele>67</ele>
        <time>2013-09-18T10:33:11.000Z</time>
      </trkpt>
      <trkpt lat="43.46199" lon="6.77372">
        <ele>67</ele>
        <time>2013-09-18T10:33:16.000Z</time>
      </trkpt>
      <trkpt lat="43.46199" lon="6.77373">
        <ele>67</ele>
        <time>2013-09-18T10:33:20.000Z</time>
      </trkpt>
      <trkpt lat="43.46199" lon="6.77373">
        <ele>67</ele>
        <time>2013-09-18T10:33:23.000Z</time>
      </trkpt>
      <trkpt lat="43.46198" lon="6.77373">
        <ele>67</ele>
        <time>2013-09-18T10:33:24.000Z</time>
      </trkpt>
      <trkpt lat="43.46199" lon="6.77373">
        <ele>67</ele>
        <time>2013-09-18T10:33:26.000Z</time>
      </trkpt>
      <trkpt lat="43.46199" lon="6.77373">
        <ele>67</ele>
        <time>2013-09-18T10:33:31.000Z</time>
      </trkpt>
      <trkpt lat="43.46199" lon="6.77372">
        <ele>67</ele>
        <time>2013-09-18T10:33:38.000Z</time>
      </trkpt>
      <trkpt lat="43.46199" lon="6.77372">
        <ele>67</ele>
        <time>2013-09-18T10:33:53.000Z</time>
      </trkpt>
      <trkpt lat="43.46199" lon="6.77371">
        <ele>67</ele>
        <time>2013-09-18T10:33:56.000Z</time>
      </trkpt>
      <trkpt lat="43.46198" lon="6.77371">
        <ele>67</ele>
        <time>2013-09-18T10:34:01.000Z</time>
      </trkpt>
      <trkpt lat="43.46198" lon="6.77371">
        <ele>67</ele>
        <time>2013-09-18T10:34:05.000Z</time>
      </trkpt>
      <trkpt lat="43.46198" lon="6.7737">
        <ele>67</ele>
        <time>2013-09-18T10:34:12.000Z</time>
      </trkpt>
      <trkpt lat="43.46198" lon="6.7737">
        <ele>67</ele>
        <time>2013-09-18T10:34:13.000Z</time>
      </trkpt>
      <trkpt lat="43.46198" lon="6.77369">
        <ele>67</ele>
        <time>2013-09-18T10:34:14.000Z</time>
      </trkpt>
      <trkpt lat="43.46197" lon="6.7737">
        <ele>67</ele>
        <time>2013-09-18T10:34:15.000Z</time>
      </trkpt>
      <trkpt lat="43.46197" lon="6.77368">
        <ele>67</ele>
        <time>2013-09-18T10:34:20.000Z</time>
      </trkpt>
      <trkpt lat="43.46198" lon="6.77367">
        <ele>67</ele>
        <time>2013-09-18T10:34:30.000Z</time>
      </trkpt>
      <trkpt lat="43.46197" lon="6.77367">
        <ele>67</ele>
        <time>2013-09-18T10:34:34.000Z</time>
      </trkpt>
      <trkpt lat="43.46198" lon="6.77369">
        <ele>67</ele>
        <time>2013-09-18T10:34:35.000Z</time>
      </trkpt>
      <trkpt lat="43.46198" lon="6.7737">
        <ele>67</ele>
        <time>2013-09-18T10:34:36.000Z</time>
      </trkpt>
      <trkpt lat="43.46199" lon="6.77371">
        <ele>67</ele>
        <time>2013-09-18T10:34:37.000Z</time>
      </trkpt>
      <trkpt lat="43.46199" lon="6.77373">
        <ele>67</ele>
        <time>2013-09-18T10:34:38.000Z</time>
      </trkpt>
      <trkpt lat="43.462" lon="6.77375">
        <ele>67</ele>
        <time>2013-09-18T10:34:39.000Z</time>
      </trkpt>
      <trkpt lat="43.46201" lon="6.77378">
        <ele>67</ele>
        <time>2013-09-18T10:34:40.000Z</time>
      </trkpt>
      <trkpt lat="43.46202" lon="6.7738">
        <ele>67</ele>
        <time>2013-09-18T10:34:41.000Z</time>
      </trkpt>
      <trkpt lat="43.46204" lon="6.77383">
        <ele>67</ele>
        <time>2013-09-18T10:34:42.000Z</time>
      </trkpt>
      <trkpt lat="43.46206" lon="6.77385">
        <ele>67</ele>
        <time>2013-09-18T10:34:43.000Z</time>
      </trkpt>
      <trkpt lat="43.46207" lon="6.77388">
        <ele>67</ele>
        <time>2013-09-18T10:34:44.000Z</time>
      </trkpt>
      <trkpt lat="43.46209" lon="6.77391">
        <ele>67</ele>
        <time>2013-09-18T10:34:45.000Z</time>
      </trkpt>
      <trkpt lat="43.4621" lon="6.77394">
        <ele>67</ele>
        <time>2013-09-18T10:34:46.000Z</time>
      </trkpt>
      <trkpt lat="43.46211" lon="6.77397">
        <ele>67</ele>
        <time>2013-09-18T10:34:47.000Z</time>
      </trkpt>
      <trkpt lat="43.46212" lon="6.77401">
        <ele>67</ele>
        <time>2013-09-18T10:34:48.000Z</time>
      </trkpt>
      <trkpt lat="43.46214" lon="6.77404">
        <ele>67</ele>
        <time>2013-09-18T10:34:49.000Z</time>
      </trkpt>
      <trkpt lat="43.46215" lon="6.77406">
        <ele>67</ele>
        <time>2013-09-18T10:34:50.000Z</time>
      </trkpt>
      <trkpt lat="43.46217" lon="6.77409">
        <ele>68</ele>
        <time>2013-09-18T10:34:51.000Z</time>
      </trkpt>
      <trkpt lat="43.46218" lon="6.77411">
        <ele>68</ele>
        <time>2013-09-18T10:34:52.000Z</time>
      </trkpt>
      <trkpt lat="43.46219" lon="6.77414">
        <ele>68</ele>
        <time>2013-09-18T10:34:53.000Z</time>
      </trkpt>
      <trkpt lat="43.4622" lon="6.77417">
        <ele>68</ele>
        <time>2013-09-18T10:34:54.000Z</time>
      </trkpt>
      <trkpt lat="43.46221" lon="6.7742">
        <ele>68</ele>
        <time>2013-09-18T10:34:55.000Z</time>
      </trkpt>
      <trkpt lat="43.46223" lon="6.77423">
        <ele>68</ele>
        <time>2013-09-18T10:34:56.000Z</time>
      </trkpt>
      <trkpt lat="43.46224" lon="6.77426">
        <ele>68</ele>
        <time>2013-09-18T10:34:57.000Z</time>
      </trkpt>
      <trkpt lat="43.46226" lon="6.77428">
        <ele>68</ele>
        <time>2013-09-18T10:34:58.000Z</time>
      </trkpt>
      <trkpt lat="43.46227" lon="6.77432">
        <ele>68</ele>
        <time>2013-09-18T10:34:59.000Z</time>
      </trkpt>
      <trkpt lat="43.46227" lon="6.77435">
        <ele>68</ele>
        <time>2013-09-18T10:35:00.000Z</time>
      </trkpt>
      <trkpt lat="43.46227" lon="6.77438">
        <ele>68</ele>
        <time>2013-09-18T10:35:01.000Z</time>
      </trkpt>
      <trkpt lat="43.46228" lon="6.77442">
        <ele>68</ele>
        <time>2013-09-18T10:35:02.000Z</time>
      </trkpt>
      <trkpt lat="43.46229" lon="6.77445">
        <ele>68</ele>
        <time>2013-09-18T10:35:03.000Z</time>
      </trkpt>
      <trkpt lat="43.4623" lon="6.7745">
        <ele>68</ele>
        <time>2013-09-18T10:35:04.000Z</time>
      </trkpt>
      <trkpt lat="43.4623" lon="6.77454">
        <ele>68</ele>
        <time>2013-09-18T10:35:05.000Z</time>
      </trkpt>
      <trkpt lat="43.46231" lon="6.7746">
        <ele>68</ele>
        <time>2013-09-18T10:35:06.000Z</time>
      </trkpt>
      <trkpt lat="43.46231" lon="6.77465">
        <ele>68</ele>
        <time>2013-09-18T10:35:07.000Z</time>
      </trkpt>
      <trkpt lat="43.46231" lon="6.77471">
        <ele>68</ele>
        <time>2013-09-18T10:35:08.000Z</time>
      </trkpt>
      <trkpt lat="43.46232" lon="6.77476">
        <ele>68</ele>
        <time>2013-09-18T10:35:09.000Z</time>
      </trkpt>
      <trkpt lat="43.46232" lon="6.77481">
        <ele>68</ele>
        <time>2013-09-18T10:35:10.000Z</time>
      </trkpt>
      <trkpt lat="43.46232" lon="6.77486">
        <ele>69</ele>
        <time>2013-09-18T10:35:11.000Z</time>
      </trkpt>
      <trkpt lat="43.46232" lon="6.77491">
        <ele>69</ele>
        <time>2013-09-18T10:35:12.000Z</time>
      </trkpt>
      <trkpt lat="43.46232" lon="6.77495">
        <ele>69</ele>
        <time>2013-09-18T10:35:13.000Z</time>
      </trkpt>
      <trkpt lat="43.46232" lon="6.775">
        <ele>69</ele>
        <time>2013-09-18T10:35:14.000Z</time>
      </trkpt>
      <trkpt lat="43.46232" lon="6.77504">
        <ele>68</ele>
        <time>2013-09-18T10:35:15.000Z</time>
      </trkpt>
      <trkpt lat="43.46233" lon="6.77508">
        <ele>68</ele>
        <time>2013-09-18T10:35:16.000Z</time>
      </trkpt>
      <trkpt lat="43.46233" lon="6.77513">
        <ele>68</ele>
        <time>2013-09-18T10:35:17.000Z</time>
      </trkpt>
      <trkpt lat="43.46233" lon="6.77518">
        <ele>68</ele>
        <time>2013-09-18T10:35:18.000Z</time>
      </trkpt>
      <trkpt lat="43.46233" lon="6.77524">
        <ele>68</ele>
        <time>2013-09-18T10:35:19.000Z</time>
      </trkpt>
      <trkpt lat="43.46233" lon="6.7753">
        <ele>67</ele>
        <time>2013-09-18T10:35:20.000Z</time>
      </trkpt>
      <trkpt lat="43.46233" lon="6.77536">
        <ele>67</ele>
        <time>2013-09-18T10:35:21.000Z</time>
      </trkpt>
      <trkpt lat="43.46232" lon="6.77543">
        <ele>67</ele>
        <time>2013-09-18T10:35:22.000Z</time>
      </trkpt>
      <trkpt lat="43.46232" lon="6.7755">
        <ele>67</ele>
        <time>2013-09-18T10:35:23.000Z</time>
      </trkpt>
      <trkpt lat="43.46231" lon="6.77557">
        <ele>67</ele>
        <time>2013-09-18T10:35:24.000Z</time>
      </trkpt>
      <trkpt lat="43.4623" lon="6.77564">
        <ele>67</ele>
        <time>2013-09-18T10:35:25.000Z</time>
      </trkpt>
      <trkpt lat="43.46228" lon="6.77571">
        <ele>67</ele>
        <time>2013-09-18T10:35:26.000Z</time>
      </trkpt>
      <trkpt lat="43.46227" lon="6.77579">
        <ele>67</ele>
        <time>2013-09-18T10:35:27.000Z</time>
      </trkpt>
      <trkpt lat="43.46226" lon="6.77586">
        <ele>67</ele>
        <time>2013-09-18T10:35:28.000Z</time>
      </trkpt>
      <trkpt lat="43.46224" lon="6.77593">
        <ele>67</ele>
        <time>2013-09-18T10:35:29.000Z</time>
      </trkpt>
      <trkpt lat="43.46224" lon="6.776">
        <ele>67</ele>
        <time>2013-09-18T10:35:30.000Z</time>
      </trkpt>
      <trkpt lat="43.46223" lon="6.77607">
        <ele>67</ele>
        <time>2013-09-18T10:35:31.000Z</time>
      </trkpt>
      <trkpt lat="43.46223" lon="6.77613">
        <ele>67</ele>
        <time>2013-09-18T10:35:32.000Z</time>
      </trkpt>
      <trkpt lat="43.46222" lon="6.77619">
        <ele>67</ele>
        <time>2013-09-18T10:35:33.000Z</time>
      </trkpt>
      <trkpt lat="43.46222" lon="6.77625">
        <ele>67</ele>
        <time>2013-09-18T10:35:34.000Z</time>
      </trkpt>
      <trkpt lat="43.4622" lon="6.77631">
        <ele>67</ele>
        <time>2013-09-18T10:35:35.000Z</time>
      </trkpt>
      <trkpt lat="43.46219" lon="6.77637">
        <ele>67</ele>
        <time>2013-09-18T10:35:36.000Z</time>
      </trkpt>
      <trkpt lat="43.46217" lon="6.77642">
        <ele>67</ele>
        <time>2013-09-18T10:35:37.000Z</time>
      </trkpt>
      <trkpt lat="43.46216" lon="6.77647">
        <ele>67</ele>
        <time>2013-09-18T10:35:38.000Z</time>
      </trkpt>
      <trkpt lat="43.46214" lon="6.77653">
        <ele>67</ele>
        <time>2013-09-18T10:35:39.000Z</time>
      </trkpt>
      <trkpt lat="43.46213" lon="6.77658">
        <ele>67</ele>
        <time>2013-09-18T10:35:40.000Z</time>
      </trkpt>
      <trkpt lat="43.46212" lon="6.77662">
        <ele>67</ele>
        <time>2013-09-18T10:35:41.000Z</time>
      </trkpt>
      <trkpt lat="43.4621" lon="6.77667">
        <ele>68</ele>
        <time>2013-09-18T10:35:42.000Z</time>
      </trkpt>
      <trkpt lat="43.46209" lon="6.77672">
        <ele>68</ele>
        <time>2013-09-18T10:35:43.000Z</time>
      </trkpt>
      <trkpt lat="43.46207" lon="6.77677">
        <ele>68</ele>
        <time>2013-09-18T10:35:44.000Z</time>
      </trkpt>
      <trkpt lat="43.46206" lon="6.77681">
        <ele>68</ele>
        <time>2013-09-18T10:35:45.000Z</time>
      </trkpt>
      <trkpt lat="43.46204" lon="6.77686">
        <ele>68</ele>
        <time>2013-09-18T10:35:46.000Z</time>
      </trkpt>
      <trkpt lat="43.46203" lon="6.77691">
        <ele>68</ele>
        <time>2013-09-18T10:35:47.000Z</time>
      </trkpt>
      <trkpt lat="43.46202" lon="6.77695">
        <ele>68</ele>
        <time>2013-09-18T10:35:48.000Z</time>
      </trkpt>
      <trkpt lat="43.462" lon="6.777">
        <ele>68</ele>
        <time>2013-09-18T10:35:49.000Z</time>
      </trkpt>
      <trkpt lat="43.46198" lon="6.77704">
        <ele>68</ele>
        <time>2013-09-18T10:35:50.000Z</time>
      </trkpt>
      <trkpt lat="43.46196" lon="6.77709">
        <ele>68</ele>
        <time>2013-09-18T10:35:51.000Z</time>
      </trkpt>
      <trkpt lat="43.46195" lon="6.77713">
        <ele>68</ele>
        <time>2013-09-18T10:35:52.000Z</time>
      </trkpt>
      <trkpt lat="43.46192" lon="6.77718">
        <ele>68</ele>
        <time>2013-09-18T10:35:53.000Z</time>
      </trkpt>
      <trkpt lat="43.4619" lon="6.77723">
        <ele>68</ele>
        <time>2013-09-18T10:35:54.000Z</time>
      </trkpt>
      <trkpt lat="43.46188" lon="6.77728">
        <ele>68</ele>
        <time>2013-09-18T10:35:55.000Z</time>
      </trkpt>
      <trkpt lat="43.46185" lon="6.77733">
        <ele>68</ele>
        <time>2013-09-18T10:35:56.000Z</time>
      </trkpt>
      <trkpt lat="43.46182" lon="6.77739">
        <ele>68</ele>
        <time>2013-09-18T10:35:57.000Z</time>
      </trkpt>
      <trkpt lat="43.46179" lon="6.77745">
        <ele>67</ele>
        <time>2013-09-18T10:35:58.000Z</time>
      </trkpt>
      <trkpt lat="43.46176" lon="6.77751">
        <ele>68</ele>
        <time>2013-09-18T10:35:59.000Z</time>
      </trkpt>
      <trkpt lat="43.46173" lon="6.77758">
        <ele>68</ele>
        <time>2013-09-18T10:36:00.000Z</time>
      </trkpt>
      <trkpt lat="43.4617" lon="6.77765">
        <ele>68</ele>
        <time>2013-09-18T10:36:01.000Z</time>
      </trkpt>
      <trkpt lat="43.46167" lon="6.77772">
        <ele>68</ele>
        <time>2013-09-18T10:36:02.000Z</time>
      </trkpt>
      <trkpt lat="43.46164" lon="6.7778">
        <ele>63</ele>
        <time>2013-09-18T10:36:03.000Z</time>
      </trkpt>
      <trkpt lat="43.46161" lon="6.77787">
        <ele>63</ele>
        <time>2013-09-18T10:36:04.000Z</time>
      </trkpt>
      <trkpt lat="43.46158" lon="6.77794">
        <ele>62</ele>
        <time>2013-09-18T10:36:05.000Z</time>
      </trkpt>
      <trkpt lat="43.46156" lon="6.77802">
        <ele>62</ele>
        <time>2013-09-18T10:36:06.000Z</time>
      </trkpt>
      <trkpt lat="43.46152" lon="6.7781">
        <ele>62</ele>
        <time>2013-09-18T10:36:07.000Z</time>
      </trkpt>
      <trkpt lat="43.46149" lon="6.77817">
        <ele>62</ele>
        <time>2013-09-18T10:36:08.000Z</time>
      </trkpt>
      <trkpt lat="43.46147" lon="6.77825">
        <ele>62</ele>
        <time>2013-09-18T10:36:09.000Z</time>
      </trkpt>
      <trkpt lat="43.46145" lon="6.77834">
        <ele>60</ele>
        <time>2013-09-18T10:36:10.000Z</time>
      </trkpt>
      <trkpt lat="43.46143" lon="6.77842">
        <ele>60</ele>
        <time>2013-09-18T10:36:11.000Z</time>
      </trkpt>
      <trkpt lat="43.46142" lon="6.77852">
        <ele>59</ele>
        <time>2013-09-18T10:36:12.000Z</time>
      </trkpt>
      <trkpt lat="43.46141" lon="6.77861">
        <ele>58</ele>
        <time>2013-09-18T10:36:13.000Z</time>
      </trkpt>
      <trkpt lat="43.46141" lon="6.77871">
        <ele>58</ele>
        <time>2013-09-18T10:36:14.000Z</time>
      </trkpt>
      <trkpt lat="43.46141" lon="6.77889">
        <ele>57</ele>
        <time>2013-09-18T10:36:16.000Z</time>
      </trkpt>
      <trkpt lat="43.46143" lon="6.77899">
        <ele>57</ele>
        <time>2013-09-18T10:36:17.000Z</time>
      </trkpt>
      <trkpt lat="43.46145" lon="6.77909">
        <ele>57</ele>
        <time>2013-09-18T10:36:18.000Z</time>
      </trkpt>
      <trkpt lat="43.46147" lon="6.77919">
        <ele>56</ele>
        <time>2013-09-18T10:36:19.000Z</time>
      </trkpt>
      <trkpt lat="43.4615" lon="6.77928">
        <ele>56</ele>
        <time>2013-09-18T10:36:20.000Z</time>
      </trkpt>
      <trkpt lat="43.46152" lon="6.77937">
        <ele>56</ele>
        <time>2013-09-18T10:36:21.000Z</time>
      </trkpt>
      <trkpt lat="43.46156" lon="6.77946">
        <ele>55</ele>
        <time>2013-09-18T10:36:22.000Z</time>
      </trkpt>
      <trkpt lat="43.4616" lon="6.77954">
        <ele>55</ele>
        <time>2013-09-18T10:36:23.000Z</time>
      </trkpt>
      <trkpt lat="43.46164" lon="6.77962">
        <ele>55</ele>
        <time>2013-09-18T10:36:24.000Z</time>
      </trkpt>
      <trkpt lat="43.46169" lon="6.7797">
        <ele>59</ele>
        <time>2013-09-18T10:36:25.000Z</time>
      </trkpt>
      <trkpt lat="43.46173" lon="6.77979">
        <ele>58</ele>
        <time>2013-09-18T10:36:26.000Z</time>
      </trkpt>
      <trkpt lat="43.46177" lon="6.77988">
        <ele>58</ele>
        <time>2013-09-18T10:36:27.000Z</time>
      </trkpt>
      <trkpt lat="43.46181" lon="6.77997">
        <ele>58</ele>
        <time>2013-09-18T10:36:28.000Z</time>
      </trkpt>
      <trkpt lat="43.46184" lon="6.78006">
        <ele>57</ele>
        <time>2013-09-18T10:36:29.000Z</time>
      </trkpt>
      <trkpt lat="43.46187" lon="6.78014">
        <ele>57</ele>
        <time>2013-09-18T10:36:30.000Z</time>
      </trkpt>
      <trkpt lat="43.46191" lon="6.78022">
        <ele>57</ele>
        <time>2013-09-18T10:36:31.000Z</time>
      </trkpt>
      <trkpt lat="43.46195" lon="6.78029">
        <ele>58</ele>
        <time>2013-09-18T10:36:32.000Z</time>
      </trkpt>
      <trkpt lat="43.462" lon="6.78035">
        <ele>58</ele>
        <time>2013-09-18T10:36:33.000Z</time>
      </trkpt>
      <trkpt lat="43.46205" lon="6.7804">
        <ele>58</ele>
        <time>2013-09-18T10:36:34.000Z</time>
      </trkpt>
      <trkpt lat="43.46211" lon="6.78044">
        <ele>58</ele>
        <time>2013-09-18T10:36:35.000Z</time>
      </trkpt>
      <trkpt lat="43.46217" lon="6.78047">
        <ele>58</ele>
        <time>2013-09-18T10:36:36.000Z</time>
      </trkpt>
      <trkpt lat="43.46222" lon="6.78049">
        <ele>58</ele>
        <time>2013-09-18T10:36:37.000Z</time>
      </trkpt>
      <trkpt lat="43.46228" lon="6.78051">
        <ele>58</ele>
        <time>2013-09-18T10:36:38.000Z</time>
      </trkpt>
      <trkpt lat="43.46234" lon="6.78052">
        <ele>58</ele>
        <time>2013-09-18T10:36:39.000Z</time>
      </trkpt>
      <trkpt lat="43.46239" lon="6.78053">
        <ele>58</ele>
        <time>2013-09-18T10:36:40.000Z</time>
      </trkpt>
      <trkpt lat="43.46244" lon="6.78055">
        <ele>58</ele>
        <time>2013-09-18T10:36:41.000Z</time>
      </trkpt>
      <trkpt lat="43.4625" lon="6.78056">
        <ele>58</ele>
        <time>2013-09-18T10:36:42.000Z</time>
      </trkpt>
      <trkpt lat="43.46255" lon="6.78058">
        <ele>61</ele>
        <time>2013-09-18T10:36:43.000Z</time>
      </trkpt>
      <trkpt lat="43.4626" lon="6.78061">
        <ele>61</ele>
        <time>2013-09-18T10:36:44.000Z</time>
      </trkpt>
      <trkpt lat="43.46264" lon="6.78063">
        <ele>61</ele>
        <time>2013-09-18T10:36:45.000Z</time>
      </trkpt>
      <trkpt lat="43.46269" lon="6.78066">
        <ele>61</ele>
        <time>2013-09-18T10:36:46.000Z</time>
      </trkpt>
      <trkpt lat="43.46274" lon="6.78069">
        <ele>61</ele>
        <time>2013-09-18T10:36:47.000Z</time>
      </trkpt>
      <trkpt lat="43.46279" lon="6.78073">
        <ele>62</ele>
        <time>2013-09-18T10:36:48.000Z</time>
      </trkpt>
      <trkpt lat="43.46283" lon="6.78076">
        <ele>62</ele>
        <time>2013-09-18T10:36:49.000Z</time>
      </trkpt>
      <trkpt lat="43.46288" lon="6.78079">
        <ele>62</ele>
        <time>2013-09-18T10:36:50.000Z</time>
      </trkpt>
      <trkpt lat="43.46293" lon="6.78083">
        <ele>62</ele>
        <time>2013-09-18T10:36:51.000Z</time>
      </trkpt>
      <trkpt lat="43.46297" lon="6.78086">
        <ele>61</ele>
        <time>2013-09-18T10:36:52.000Z</time>
      </trkpt>
      <trkpt lat="43.46302" lon="6.78089">
        <ele>61</ele>
        <time>2013-09-18T10:36:53.000Z</time>
      </trkpt>
      <trkpt lat="43.46306" lon="6.78092">
        <ele>61</ele>
        <time>2013-09-18T10:36:54.000Z</time>
      </trkpt>
      <trkpt lat="43.46311" lon="6.78095">
        <ele>61</ele>
        <time>2013-09-18T10:36:55.000Z</time>
      </trkpt>
      <trkpt lat="43.46316" lon="6.78098">
        <ele>61</ele>
        <time>2013-09-18T10:36:56.000Z</time>
      </trkpt>
      <trkpt lat="43.4632" lon="6.78099">
        <ele>61</ele>
        <time>2013-09-18T10:36:57.000Z</time>
      </trkpt>
      <trkpt lat="43.46325" lon="6.78101">
        <ele>61</ele>
        <time>2013-09-18T10:36:58.000Z</time>
      </trkpt>
      <trkpt lat="43.46329" lon="6.78102">
        <ele>62</ele>
        <time>2013-09-18T10:36:59.000Z</time>
      </trkpt>
      <trkpt lat="43.46334" lon="6.78103">
        <ele>63</ele>
        <time>2013-09-18T10:37:00.000Z</time>
      </trkpt>
      <trkpt lat="43.46338" lon="6.78103">
        <ele>63</ele>
        <time>2013-09-18T10:37:01.000Z</time>
      </trkpt>
      <trkpt lat="43.46343" lon="6.78104">
        <ele>63</ele>
        <time>2013-09-18T10:37:02.000Z</time>
      </trkpt>
      <trkpt lat="43.46347" lon="6.78103">
        <ele>63</ele>
        <time>2013-09-18T10:37:03.000Z</time>
      </trkpt>
      <trkpt lat="43.46352" lon="6.78103">
        <ele>63</ele>
        <time>2013-09-18T10:37:04.000Z</time>
      </trkpt>
      <trkpt lat="43.46356" lon="6.78102">
        <ele>63</ele>
        <time>2013-09-18T10:37:05.000Z</time>
      </trkpt>
      <trkpt lat="43.4636" lon="6.78101">
        <ele>63</ele>
        <time>2013-09-18T10:37:06.000Z</time>
      </trkpt>
      <trkpt lat="43.46364" lon="6.781">
        <ele>63</ele>
        <time>2013-09-18T10:37:07.000Z</time>
      </trkpt>
      <trkpt lat="43.46368" lon="6.78099">
        <ele>63</ele>
        <time>2013-09-18T10:37:08.000Z</time>
      </trkpt>
      <trkpt lat="43.46372" lon="6.78098">
        <ele>63</ele>
        <time>2013-09-18T10:37:09.000Z</time>
      </trkpt>
      <trkpt lat="43.46376" lon="6.78097">
        <ele>64</ele>
        <time>2013-09-18T10:37:10.000Z</time>
      </trkpt>
      <trkpt lat="43.4638" lon="6.78097">
        <ele>64</ele>
        <time>2013-09-18T10:37:11.000Z</time>
      </trkpt>
      <trkpt lat="43.46385" lon="6.78096">
        <ele>64</ele>
        <time>2013-09-18T10:37:12.000Z</time>
      </trkpt>
      <trkpt lat="43.46389" lon="6.78095">
        <ele>64</ele>
        <time>2013-09-18T10:37:13.000Z</time>
      </trkpt>
      <trkpt lat="43.46393" lon="6.78095">
        <ele>64</ele>
        <time>2013-09-18T10:37:14.000Z</time>
      </trkpt>
      <trkpt lat="43.46397" lon="6.78094">
        <ele>64</ele>
        <time>2013-09-18T10:37:15.000Z</time>
      </trkpt>
      <trkpt lat="43.464" lon="6.78093">
        <ele>64</ele>
        <time>2013-09-18T10:37:16.000Z</time>
      </trkpt>
      <trkpt lat="43.46404" lon="6.78093">
        <ele>64</ele>
        <time>2013-09-18T10:37:17.000Z</time>
      </trkpt>
      <trkpt lat="43.46408" lon="6.78092">
        <ele>64</ele>
        <time>2013-09-18T10:37:18.000Z</time>
      </trkpt>
      <trkpt lat="43.46415" lon="6.78093">
        <ele>64</ele>
        <time>2013-09-18T10:37:20.000Z</time>
      </trkpt>
      <trkpt lat="43.46418" lon="6.78093">
        <ele>65</ele>
        <time>2013-09-18T10:37:21.000Z</time>
      </trkpt>
      <trkpt lat="43.46422" lon="6.78092">
        <ele>65</ele>
        <time>2013-09-18T10:37:22.000Z</time>
      </trkpt>
      <trkpt lat="43.46425" lon="6.78092">
        <ele>65</ele>
        <time>2013-09-18T10:37:23.000Z</time>
      </trkpt>
      <trkpt lat="43.46428" lon="6.78092">
        <ele>65</ele>
        <time>2013-09-18T10:37:24.000Z</time>
      </trkpt>
      <trkpt lat="43.46432" lon="6.78091">
        <ele>65</ele>
        <time>2013-09-18T10:37:25.000Z</time>
      </trkpt>
      <trkpt lat="43.46435" lon="6.78091">
        <ele>66</ele>
        <time>2013-09-18T10:37:26.000Z</time>
      </trkpt>
      <trkpt lat="43.46438" lon="6.7809">
        <ele>66</ele>
        <time>2013-09-18T10:37:27.000Z</time>
      </trkpt>
      <trkpt lat="43.46442" lon="6.78089">
        <ele>66</ele>
        <time>2013-09-18T10:37:28.000Z</time>
      </trkpt>
      <trkpt lat="43.46445" lon="6.78088">
        <ele>66</ele>
        <time>2013-09-18T10:37:29.000Z</time>
      </trkpt>
      <trkpt lat="43.46448" lon="6.78087">
        <ele>66</ele>
        <time>2013-09-18T10:37:30.000Z</time>
      </trkpt>
      <trkpt lat="43.46452" lon="6.78086">
        <ele>66</ele>
        <time>2013-09-18T10:37:31.000Z</time>
      </trkpt>
      <trkpt lat="43.46455" lon="6.78085">
        <ele>66</ele>
        <time>2013-09-18T10:37:32.000Z</time>
      </trkpt>
      <trkpt lat="43.46458" lon="6.78084">
        <ele>66</ele>
        <time>2013-09-18T10:37:33.000Z</time>
      </trkpt>
      <trkpt lat="43.46461" lon="6.78083">
        <ele>68</ele>
        <time>2013-09-18T10:37:34.000Z</time>
      </trkpt>
      <trkpt lat="43.46465" lon="6.78082">
        <ele>68</ele>
        <time>2013-09-18T10:37:35.000Z</time>
      </trkpt>
      <trkpt lat="43.46468" lon="6.78081">
        <ele>68</ele>
        <time>2013-09-18T10:37:36.000Z</time>
      </trkpt>
      <trkpt lat="43.46472" lon="6.7808">
        <ele>68</ele>
        <time>2013-09-18T10:37:37.000Z</time>
      </trkpt>
      <trkpt lat="43.46475" lon="6.78078">
        <ele>68</ele>
        <time>2013-09-18T10:37:38.000Z</time>
      </trkpt>
      <trkpt lat="43.46478" lon="6.78077">
        <ele>68</ele>
        <time>2013-09-18T10:37:39.000Z</time>
      </trkpt>
      <trkpt lat="43.46481" lon="6.78075">
        <ele>68</ele>
        <time>2013-09-18T10:37:40.000Z</time>
      </trkpt>
      <trkpt lat="43.46485" lon="6.78075">
        <ele>68</ele>
        <time>2013-09-18T10:37:41.000Z</time>
      </trkpt>
      <trkpt lat="43.46488" lon="6.78074">
        <ele>67</ele>
        <time>2013-09-18T10:37:42.000Z</time>
      </trkpt>
      <trkpt lat="43.46492" lon="6.78073">
        <ele>67</ele>
        <time>2013-09-18T10:37:43.000Z</time>
      </trkpt>
      <trkpt lat="43.46496" lon="6.78072">
        <ele>67</ele>
        <time>2013-09-18T10:37:44.000Z</time>
      </trkpt>
      <trkpt lat="43.465" lon="6.78072">
        <ele>67</ele>
        <time>2013-09-18T10:37:45.000Z</time>
      </trkpt>
      <trkpt lat="43.46503" lon="6.78071">
        <ele>69</ele>
        <time>2013-09-18T10:37:46.000Z</time>
      </trkpt>
      <trkpt lat="43.46507" lon="6.78071">
        <ele>70</ele>
        <time>2013-09-18T10:37:47.000Z</time>
      </trkpt>
      <trkpt lat="43.46511" lon="6.78071">
        <ele>70</ele>
        <time>2013-09-18T10:37:48.000Z</time>
      </trkpt>
      <trkpt lat="43.46514" lon="6.7807">
        <ele>70</ele>
        <time>2013-09-18T10:37:49.000Z</time>
      </trkpt>
      <trkpt lat="43.46518" lon="6.7807">
        <ele>71</ele>
        <time>2013-09-18T10:37:50.000Z</time>
      </trkpt>
      <trkpt lat="43.46522" lon="6.7807">
        <ele>71</ele>
        <time>2013-09-18T10:37:51.000Z</time>
      </trkpt>
      <trkpt lat="43.46525" lon="6.78069">
        <ele>72</ele>
        <time>2013-09-18T10:37:52.000Z</time>
      </trkpt>
      <trkpt lat="43.46529" lon="6.78069">
        <ele>72</ele>
        <time>2013-09-18T10:37:53.000Z</time>
      </trkpt>
      <trkpt lat="43.46532" lon="6.78069">
        <ele>72</ele>
        <time>2013-09-18T10:37:54.000Z</time>
      </trkpt>
      <trkpt lat="43.46535" lon="6.78069">
        <ele>73</ele>
        <time>2013-09-18T10:37:55.000Z</time>
      </trkpt>
      <trkpt lat="43.46546" lon="6.78069">
        <ele>73</ele>
        <time>2013-09-18T10:37:58.000Z</time>
      </trkpt>
      <trkpt lat="43.4655" lon="6.78069">
        <ele>73</ele>
        <time>2013-09-18T10:37:59.000Z</time>
      </trkpt>
      <trkpt lat="43.46553" lon="6.7807">
        <ele>74</ele>
        <time>2013-09-18T10:38:00.000Z</time>
      </trkpt>
      <trkpt lat="43.46557" lon="6.78071">
        <ele>74</ele>
        <time>2013-09-18T10:38:01.000Z</time>
      </trkpt>
      <trkpt lat="43.46559" lon="6.78073">
        <ele>74</ele>
        <time>2013-09-18T10:38:02.000Z</time>
      </trkpt>
      <trkpt lat="43.46562" lon="6.78074">
        <ele>74</ele>
        <time>2013-09-18T10:38:03.000Z</time>
      </trkpt>
      <trkpt lat="43.46565" lon="6.78076">
        <ele>74</ele>
        <time>2013-09-18T10:38:04.000Z</time>
      </trkpt>
      <trkpt lat="43.46567" lon="6.78079">
        <ele>74</ele>
        <time>2013-09-18T10:38:05.000Z</time>
      </trkpt>
      <trkpt lat="43.46569" lon="6.78081">
        <ele>74</ele>
        <time>2013-09-18T10:38:06.000Z</time>
      </trkpt>
      <trkpt lat="43.46571" lon="6.78084">
        <ele>73</ele>
        <time>2013-09-18T10:38:07.000Z</time>
      </trkpt>
      <trkpt lat="43.46573" lon="6.78088">
        <ele>73</ele>
        <time>2013-09-18T10:38:08.000Z</time>
      </trkpt>
      <trkpt lat="43.46575" lon="6.78091">
        <ele>73</ele>
        <time>2013-09-18T10:38:09.000Z</time>
      </trkpt>
      <trkpt lat="43.46577" lon="6.78093">
        <ele>73</ele>
        <time>2013-09-18T10:38:10.000Z</time>
      </trkpt>
      <trkpt lat="43.46579" lon="6.78096">
        <ele>73</ele>
        <time>2013-09-18T10:38:11.000Z</time>
      </trkpt>
      <trkpt lat="43.4658" lon="6.78099">
        <ele>73</ele>
        <time>2013-09-18T10:38:12.000Z</time>
      </trkpt>
      <trkpt lat="43.46581" lon="6.78102">
        <ele>73</ele>
        <time>2013-09-18T10:38:13.000Z</time>
      </trkpt>
      <trkpt lat="43.46582" lon="6.78104">
        <ele>73</ele>
        <time>2013-09-18T10:38:14.000Z</time>
      </trkpt>
      <trkpt lat="43.46584" lon="6.78106">
        <ele>76</ele>
        <time>2013-09-18T10:38:15.000Z</time>
      </trkpt>
      <trkpt lat="43.46586" lon="6.78108">
        <ele>76</ele>
        <time>2013-09-18T10:38:16.000Z</time>
      </trkpt>
      <trkpt lat="43.46588" lon="6.7811">
        <ele>76</ele>
        <time>2013-09-18T10:38:17.000Z</time>
      </trkpt>
      <trkpt lat="43.4659" lon="6.78112">
        <ele>76</ele>
        <time>2013-09-18T10:38:18.000Z</time>
      </trkpt>
      <trkpt lat="43.46592" lon="6.78114">
        <ele>77</ele>
        <time>2013-09-18T10:38:19.000Z</time>
      </trkpt>
      <trkpt lat="43.46594" lon="6.78115">
        <ele>77</ele>
        <time>2013-09-18T10:38:20.000Z</time>
      </trkpt>
      <trkpt lat="43.46597" lon="6.78117">
        <ele>77</ele>
        <time>2013-09-18T10:38:21.000Z</time>
      </trkpt>
      <trkpt lat="43.46599" lon="6.78118">
        <ele>77</ele>
        <time>2013-09-18T10:38:22.000Z</time>
      </trkpt>
      <trkpt lat="43.46601" lon="6.78119">
        <ele>77</ele>
        <time>2013-09-18T10:38:23.000Z</time>
      </trkpt>
      <trkpt lat="43.46603" lon="6.78121">
        <ele>77</ele>
        <time>2013-09-18T10:38:24.000Z</time>
      </trkpt>
      <trkpt lat="43.46605" lon="6.78122">
        <ele>77</ele>
        <time>2013-09-18T10:38:25.000Z</time>
      </trkpt>
      <trkpt lat="43.46607" lon="6.78124">
        <ele>77</ele>
        <time>2013-09-18T10:38:26.000Z</time>
      </trkpt>
      <trkpt lat="43.46609" lon="6.78125">
        <ele>77</ele>
        <time>2013-09-18T10:38:27.000Z</time>
      </trkpt>
      <trkpt lat="43.4661" lon="6.78126">
        <ele>77</ele>
        <time>2013-09-18T10:38:28.000Z</time>
      </trkpt>
      <trkpt lat="43.46611" lon="6.78128">
        <ele>77</ele>
        <time>2013-09-18T10:38:29.000Z</time>
      </trkpt>
      <trkpt lat="43.46613" lon="6.78129">
        <ele>77</ele>
        <time>2013-09-18T10:38:30.000Z</time>
      </trkpt>
      <trkpt lat="43.46617" lon="6.78129">
        <ele>77</ele>
        <time>2013-09-18T10:38:32.000Z</time>
      </trkpt>
      <trkpt lat="43.46619" lon="6.78129">
        <ele>77</ele>
        <time>2013-09-18T10:38:33.000Z</time>
      </trkpt>
      <trkpt lat="43.4662" lon="6.7813">
        <ele>77</ele>
        <time>2013-09-18T10:38:34.000Z</time>
      </trkpt>
      <trkpt lat="43.46622" lon="6.78131">
        <ele>77</ele>
        <time>2013-09-18T10:38:35.000Z</time>
      </trkpt>
      <trkpt lat="43.46624" lon="6.78133">
        <ele>77</ele>
        <time>2013-09-18T10:38:36.000Z</time>
      </trkpt>
      <trkpt lat="43.46626" lon="6.78133">
        <ele>77</ele>
        <time>2013-09-18T10:38:37.000Z</time>
      </trkpt>
      <trkpt lat="43.46628" lon="6.78134">
        <ele>77</ele>
        <time>2013-09-18T10:38:38.000Z</time>
      </trkpt>
      <trkpt lat="43.46629" lon="6.78135">
        <ele>77</ele>
        <time>2013-09-18T10:38:39.000Z</time>
      </trkpt>
      <trkpt lat="43.4663" lon="6.78136">
        <ele>77</ele>
        <time>2013-09-18T10:38:40.000Z</time>
      </trkpt>
      <trkpt lat="43.46632" lon="6.78137">
        <ele>77</ele>
        <time>2013-09-18T10:38:41.000Z</time>
      </trkpt>
      <trkpt lat="43.46633" lon="6.78138">
        <ele>77</ele>
        <time>2013-09-18T10:38:42.000Z</time>
      </trkpt>
      <trkpt lat="43.46634" lon="6.78139">
        <ele>77</ele>
        <time>2013-09-18T10:38:43.000Z</time>
      </trkpt>
      <trkpt lat="43.46635" lon="6.78139">
        <ele>77</ele>
        <time>2013-09-18T10:38:44.000Z</time>
      </trkpt>
      <trkpt lat="43.46637" lon="6.7814">
        <ele>77</ele>
        <time>2013-09-18T10:38:45.000Z</time>
      </trkpt>
      <trkpt lat="43.46638" lon="6.78141">
        <ele>77</ele>
        <time>2013-09-18T10:38:46.000Z</time>
      </trkpt>
      <trkpt lat="43.46638" lon="6.78142">
        <ele>77</ele>
        <time>2013-09-18T10:38:47.000Z</time>
      </trkpt>
      <trkpt lat="43.46639" lon="6.78142">
        <ele>77</ele>
        <time>2013-09-18T10:38:48.000Z</time>
      </trkpt>
      <trkpt lat="43.46641" lon="6.78143">
        <ele>77</ele>
        <time>2013-09-18T10:38:49.000Z</time>
      </trkpt>
      <trkpt lat="43.46642" lon="6.78143">
        <ele>77</ele>
        <time>2013-09-18T10:38:50.000Z</time>
      </trkpt>
      <trkpt lat="43.46643" lon="6.78144">
        <ele>77</ele>
        <time>2013-09-18T10:38:51.000Z</time>
      </trkpt>
      <trkpt lat="43.46644" lon="6.78144">
        <ele>77</ele>
        <time>2013-09-18T10:38:52.000Z</time>
      </trkpt>
      <trkpt lat="43.46645" lon="6.78144">
        <ele>77</ele>
        <time>2013-09-18T10:38:53.000Z</time>
      </trkpt>
      <trkpt lat="43.46647" lon="6.78145">
        <ele>77</ele>
        <time>2013-09-18T10:38:54.000Z</time>
      </trkpt>
      <trkpt lat="43.46648" lon="6.78145">
        <ele>77</ele>
        <time>2013-09-18T10:38:55.000Z</time>
      </trkpt>
      <trkpt lat="43.46649" lon="6.78146">
        <ele>77</ele>
        <time>2013-09-18T10:38:56.000Z</time>
      </trkpt>
      <trkpt lat="43.4665" lon="6.78146">
        <ele>77</ele>
        <time>2013-09-18T10:38:57.000Z</time>
      </trkpt>
      <trkpt lat="43.46651" lon="6.78146">
        <ele>77</ele>
        <time>2013-09-18T10:38:58.000Z</time>
      </trkpt>
      <trkpt lat="43.46652" lon="6.78147">
        <ele>77</ele>
        <time>2013-09-18T10:38:59.000Z</time>
      </trkpt>
      <trkpt lat="43.46653" lon="6.78147">
        <ele>77</ele>
        <time>2013-09-18T10:39:00.000Z</time>
      </trkpt>
      <trkpt lat="43.46655" lon="6.78147">
        <ele>77</ele>
        <time>2013-09-18T10:39:01.000Z</time>
      </trkpt>
      <trkpt lat="43.46656" lon="6.78147">
        <ele>77</ele>
        <time>2013-09-18T10:39:02.000Z</time>
      </trkpt>
      <trkpt lat="43.46657" lon="6.78148">
        <ele>77</ele>
        <time>2013-09-18T10:39:03.000Z</time>
      </trkpt>
      <trkpt lat="43.46658" lon="6.78148">
        <ele>77</ele>
        <time>2013-09-18T10:39:04.000Z</time>
      </trkpt>
      <trkpt lat="43.46659" lon="6.78149">
        <ele>77</ele>
        <time>2013-09-18T10:39:05.000Z</time>
      </trkpt>
      <trkpt lat="43.4666" lon="6.78149">
        <ele>77</ele>
        <time>2013-09-18T10:39:06.000Z</time>
      </trkpt>
      <trkpt lat="43.46662" lon="6.7815">
        <ele>77</ele>
        <time>2013-09-18T10:39:07.000Z</time>
      </trkpt>
      <trkpt lat="43.46663" lon="6.7815">
        <ele>77</ele>
        <time>2013-09-18T10:39:08.000Z</time>
      </trkpt>
      <trkpt lat="43.46665" lon="6.7815">
        <ele>77</ele>
        <time>2013-09-18T10:39:10.000Z</time>
      </trkpt>
      <trkpt lat="43.46666" lon="6.7815">
        <ele>77</ele>
        <time>2013-09-18T10:39:11.000Z</time>
      </trkpt>
      <trkpt lat="43.46668" lon="6.78151">
        <ele>78</ele>
        <time>2013-09-18T10:39:12.000Z</time>
      </trkpt>
      <trkpt lat="43.46669" lon="6.78151">
        <ele>78</ele>
        <time>2013-09-18T10:39:13.000Z</time>
      </trkpt>
      <trkpt lat="43.4667" lon="6.78151">
        <ele>78</ele>
        <time>2013-09-18T10:39:14.000Z</time>
      </trkpt>
      <trkpt lat="43.46673" lon="6.78151">
        <ele>78</ele>
        <time>2013-09-18T10:39:16.000Z</time>
      </trkpt>
      <trkpt lat="43.46674" lon="6.78151">
        <ele>78</ele>
        <time>2013-09-18T10:39:17.000Z</time>
      </trkpt>
      <trkpt lat="43.46675" lon="6.78152">
        <ele>78</ele>
        <time>2013-09-18T10:39:18.000Z</time>
      </trkpt>
      <trkpt lat="43.46676" lon="6.78152">
        <ele>79</ele>
        <time>2013-09-18T10:39:19.000Z</time>
      </trkpt>
      <trkpt lat="43.46678" lon="6.78152">
        <ele>79</ele>
        <time>2013-09-18T10:39:20.000Z</time>
      </trkpt>
      <trkpt lat="43.46679" lon="6.78153">
        <ele>79</ele>
        <time>2013-09-18T10:39:21.000Z</time>
      </trkpt>
      <trkpt lat="43.4668" lon="6.78153">
        <ele>79</ele>
        <time>2013-09-18T10:39:22.000Z</time>
      </trkpt>
      <trkpt lat="43.46681" lon="6.78153">
        <ele>79</ele>
        <time>2013-09-18T10:39:23.000Z</time>
      </trkpt>
      <trkpt lat="43.46682" lon="6.78153">
        <ele>79</ele>
        <time>2013-09-18T10:39:24.000Z</time>
      </trkpt>
      <trkpt lat="43.46684" lon="6.78153">
        <ele>79</ele>
        <time>2013-09-18T10:39:25.000Z</time>
      </trkpt>
      <trkpt lat="43.46685" lon="6.78154">
        <ele>79</ele>
        <time>2013-09-18T10:39:26.000Z</time>
      </trkpt>
      <trkpt lat="43.46686" lon="6.78154">
        <ele>79</ele>
        <time>2013-09-18T10:39:27.000Z</time>
      </trkpt>
      <trkpt lat="43.46687" lon="6.78154">
        <ele>79</ele>
        <time>2013-09-18T10:39:28.000Z</time>
      </trkpt>
      <trkpt lat="43.46688" lon="6.78154">
        <ele>79</ele>
        <time>2013-09-18T10:39:29.000Z</time>
      </trkpt>
      <trkpt lat="43.4669" lon="6.78154">
        <ele>79</ele>
        <time>2013-09-18T10:39:31.000Z</time>
      </trkpt>
      <trkpt lat="43.46692" lon="6.78154">
        <ele>80</ele>
        <time>2013-09-18T10:39:32.000Z</time>
      </trkpt>
      <trkpt lat="43.46694" lon="6.78154">
        <ele>80</ele>
        <time>2013-09-18T10:39:34.000Z</time>
      </trkpt>
      <trkpt lat="43.46695" lon="6.78155">
        <ele>80</ele>
        <time>2013-09-18T10:39:35.000Z</time>
      </trkpt>
      <trkpt lat="43.46697" lon="6.78155">
        <ele>80</ele>
        <time>2013-09-18T10:39:36.000Z</time>
      </trkpt>
      <trkpt lat="43.46698" lon="6.78155">
        <ele>80</ele>
        <time>2013-09-18T10:39:37.000Z</time>
      </trkpt>
      <trkpt lat="43.46699" lon="6.78155">
        <ele>80</ele>
        <time>2013-09-18T10:39:38.000Z</time>
      </trkpt>
      <trkpt lat="43.467" lon="6.78156">
        <ele>80</ele>
        <time>2013-09-18T10:39:39.000Z</time>
      </trkpt>
      <trkpt lat="43.46701" lon="6.78156">
        <ele>80</ele>
        <time>2013-09-18T10:39:40.000Z</time>
      </trkpt>
      <trkpt lat="43.46702" lon="6.78157">
        <ele>80</ele>
        <time>2013-09-18T10:39:41.000Z</time>
      </trkpt>
      <trkpt lat="43.46704" lon="6.78157">
        <ele>80</ele>
        <time>2013-09-18T10:39:42.000Z</time>
      </trkpt>
      <trkpt lat="43.46705" lon="6.78157">
        <ele>80</ele>
        <time>2013-09-18T10:39:43.000Z</time>
      </trkpt>
      <trkpt lat="43.46706" lon="6.78157">
        <ele>80</ele>
        <time>2013-09-18T10:39:44.000Z</time>
      </trkpt>
      <trkpt lat="43.4671" lon="6.78157">
        <ele>80</ele>
        <time>2013-09-18T10:39:47.000Z</time>
      </trkpt>
      <trkpt lat="43.46711" lon="6.78158">
        <ele>80</ele>
        <time>2013-09-18T10:39:48.000Z</time>
      </trkpt>
      <trkpt lat="43.46713" lon="6.78157">
        <ele>80</ele>
        <time>2013-09-18T10:39:50.000Z</time>
      </trkpt>
      <trkpt lat="43.46714" lon="6.78157">
        <ele>80</ele>
        <time>2013-09-18T10:39:51.000Z</time>
      </trkpt>
      <trkpt lat="43.46715" lon="6.78157">
        <ele>80</ele>
        <time>2013-09-18T10:39:52.000Z</time>
      </trkpt>
      <trkpt lat="43.46717" lon="6.78156">
        <ele>80</ele>
        <time>2013-09-18T10:39:53.000Z</time>
      </trkpt>
      <trkpt lat="43.46718" lon="6.78155">
        <ele>80</ele>
        <time>2013-09-18T10:39:54.000Z</time>
      </trkpt>
      <trkpt lat="43.46719" lon="6.78155">
        <ele>80</ele>
        <time>2013-09-18T10:39:55.000Z</time>
      </trkpt>
      <trkpt lat="43.4672" lon="6.78155">
        <ele>80</ele>
        <time>2013-09-18T10:39:56.000Z</time>
      </trkpt>
      <trkpt lat="43.46721" lon="6.78154">
        <ele>80</ele>
        <time>2013-09-18T10:39:57.000Z</time>
      </trkpt>
      <trkpt lat="43.46722" lon="6.78154">
        <ele>80</ele>
        <time>2013-09-18T10:39:58.000Z</time>
      </trkpt>
      <trkpt lat="43.46724" lon="6.78153">
        <ele>80</ele>
        <time>2013-09-18T10:39:59.000Z</time>
      </trkpt>
      <trkpt lat="43.46725" lon="6.78153">
        <ele>80</ele>
        <time>2013-09-18T10:40:00.000Z</time>
      </trkpt>
      <trkpt lat="43.46726" lon="6.78152">
        <ele>80</ele>
        <time>2013-09-18T10:40:01.000Z</time>
      </trkpt>
      <trkpt lat="43.46727" lon="6.78151">
        <ele>80</ele>
        <time>2013-09-18T10:40:02.000Z</time>
      </trkpt>
      <trkpt lat="43.46728" lon="6.7815">
        <ele>81</ele>
        <time>2013-09-18T10:40:03.000Z</time>
      </trkpt>
      <trkpt lat="43.46729" lon="6.78149">
        <ele>81</ele>
        <time>2013-09-18T10:40:04.000Z</time>
      </trkpt>
      <trkpt lat="43.4673" lon="6.78148">
        <ele>81</ele>
        <time>2013-09-18T10:40:05.000Z</time>
      </trkpt>
      <trkpt lat="43.46732" lon="6.78147">
        <ele>81</ele>
        <time>2013-09-18T10:40:06.000Z</time>
      </trkpt>
      <trkpt lat="43.46733" lon="6.78146">
        <ele>81</ele>
        <time>2013-09-18T10:40:07.000Z</time>
      </trkpt>
      <trkpt lat="43.46734" lon="6.78145">
        <ele>81</ele>
        <time>2013-09-18T10:40:08.000Z</time>
      </trkpt>
      <trkpt lat="43.46735" lon="6.78144">
        <ele>81</ele>
        <time>2013-09-18T10:40:09.000Z</time>
      </trkpt>
      <trkpt lat="43.46736" lon="6.78143">
        <ele>81</ele>
        <time>2013-09-18T10:40:10.000Z</time>
      </trkpt>
      <trkpt lat="43.46737" lon="6.78142">
        <ele>81</ele>
        <time>2013-09-18T10:40:11.000Z</time>
      </trkpt>
      <trkpt lat="43.46738" lon="6.78141">
        <ele>81</ele>
        <time>2013-09-18T10:40:12.000Z</time>
      </trkpt>
      <trkpt lat="43.46739" lon="6.7814">
        <ele>81</ele>
        <time>2013-09-18T10:40:13.000Z</time>
      </trkpt>
      <trkpt lat="43.46739" lon="6.78139">
        <ele>81</ele>
        <time>2013-09-18T10:40:14.000Z</time>
      </trkpt>
      <trkpt lat="43.4674" lon="6.78138">
        <ele>82</ele>
        <time>2013-09-18T10:40:15.000Z</time>
      </trkpt>
      <trkpt lat="43.46742" lon="6.78138">
        <ele>82</ele>
        <time>2013-09-18T10:40:16.000Z</time>
      </trkpt>
      <trkpt lat="43.46743" lon="6.78137">
        <ele>82</ele>
        <time>2013-09-18T10:40:17.000Z</time>
      </trkpt>
      <trkpt lat="43.46744" lon="6.78136">
        <ele>82</ele>
        <time>2013-09-18T10:40:18.000Z</time>
      </trkpt>
      <trkpt lat="43.46745" lon="6.78136">
        <ele>82</ele>
        <time>2013-09-18T10:40:19.000Z</time>
      </trkpt>
      <trkpt lat="43.46746" lon="6.78135">
        <ele>82</ele>
        <time>2013-09-18T10:40:20.000Z</time>
      </trkpt>
      <trkpt lat="43.46747" lon="6.78134">
        <ele>82</ele>
        <time>2013-09-18T10:40:21.000Z</time>
      </trkpt>
      <trkpt lat="43.46749" lon="6.78133">
        <ele>82</ele>
        <time>2013-09-18T10:40:22.000Z</time>
      </trkpt>
      <trkpt lat="43.4675" lon="6.78132">
        <ele>82</ele>
        <time>2013-09-18T10:40:23.000Z</time>
      </trkpt>
      <trkpt lat="43.46751" lon="6.78131">
        <ele>84</ele>
        <time>2013-09-18T10:40:24.000Z</time>
      </trkpt>
      <trkpt lat="43.46752" lon="6.7813">
        <ele>84</ele>
        <time>2013-09-18T10:40:25.000Z</time>
      </trkpt>
      <trkpt lat="43.46753" lon="6.7813">
        <ele>84</ele>
        <time>2013-09-18T10:40:26.000Z</time>
      </trkpt>
      <trkpt lat="43.46755" lon="6.78129">
        <ele>84</ele>
        <time>2013-09-18T10:40:27.000Z</time>
      </trkpt>
      <trkpt lat="43.46756" lon="6.78128">
        <ele>84</ele>
        <time>2013-09-18T10:40:28.000Z</time>
      </trkpt>
      <trkpt lat="43.46757" lon="6.78128">
        <ele>84</ele>
        <time>2013-09-18T10:40:29.000Z</time>
      </trkpt>
      <trkpt lat="43.46758" lon="6.78127">
        <ele>84</ele>
        <time>2013-09-18T10:40:30.000Z</time>
      </trkpt>
      <trkpt lat="43.46759" lon="6.78126">
        <ele>84</ele>
        <time>2013-09-18T10:40:31.000Z</time>
      </trkpt>
      <trkpt lat="43.4676" lon="6.78125">
        <ele>84</ele>
        <time>2013-09-18T10:40:32.000Z</time>
      </trkpt>
      <trkpt lat="43.46762" lon="6.78124">
        <ele>84</ele>
        <time>2013-09-18T10:40:33.000Z</time>
      </trkpt>
      <trkpt lat="43.46762" lon="6.78123">
        <ele>85</ele>
        <time>2013-09-18T10:40:34.000Z</time>
      </trkpt>
      <trkpt lat="43.46764" lon="6.78122">
        <ele>85</ele>
        <time>2013-09-18T10:40:35.000Z</time>
      </trkpt>
      <trkpt lat="43.46765" lon="6.78121">
        <ele>85</ele>
        <time>2013-09-18T10:40:36.000Z</time>
      </trkpt>
      <trkpt lat="43.46766" lon="6.7812">
        <ele>85</ele>
        <time>2013-09-18T10:40:37.000Z</time>
      </trkpt>
      <trkpt lat="43.46767" lon="6.78119">
        <ele>85</ele>
        <time>2013-09-18T10:40:38.000Z</time>
      </trkpt>
      <trkpt lat="43.46768" lon="6.78118">
        <ele>85</ele>
        <time>2013-09-18T10:40:39.000Z</time>
      </trkpt>
      <trkpt lat="43.46769" lon="6.78117">
        <ele>85</ele>
        <time>2013-09-18T10:40:40.000Z</time>
      </trkpt>
      <trkpt lat="43.46771" lon="6.78117">
        <ele>85</ele>
        <time>2013-09-18T10:40:41.000Z</time>
      </trkpt>
      <trkpt lat="43.46772" lon="6.78116">
        <ele>85</ele>
        <time>2013-09-18T10:40:42.000Z</time>
      </trkpt>
      <trkpt lat="43.46773" lon="6.78115">
        <ele>85</ele>
        <time>2013-09-18T10:40:43.000Z</time>
      </trkpt>
      <trkpt lat="43.46774" lon="6.78114">
        <ele>85</ele>
        <time>2013-09-18T10:40:44.000Z</time>
      </trkpt>
      <trkpt lat="43.46775" lon="6.78114">
        <ele>85</ele>
        <time>2013-09-18T10:40:45.000Z</time>
      </trkpt>
      <trkpt lat="43.46777" lon="6.78113">
        <ele>85</ele>
        <time>2013-09-18T10:40:46.000Z</time>
      </trkpt>
      <trkpt lat="43.46778" lon="6.78112">
        <ele>85</ele>
        <time>2013-09-18T10:40:47.000Z</time>
      </trkpt>
      <trkpt lat="43.46779" lon="6.78111">
        <ele>85</ele>
        <time>2013-09-18T10:40:48.000Z</time>
      </trkpt>
      <trkpt lat="43.4678" lon="6.78109">
        <ele>85</ele>
        <time>2013-09-18T10:40:49.000Z</time>
      </trkpt>
      <trkpt lat="43.46781" lon="6.78108">
        <ele>85</ele>
        <time>2013-09-18T10:40:50.000Z</time>
      </trkpt>
      <trkpt lat="43.46782" lon="6.78107">
        <ele>86</ele>
        <time>2013-09-18T10:40:51.000Z</time>
      </trkpt>
      <trkpt lat="43.46783" lon="6.78106">
        <ele>86</ele>
        <time>2013-09-18T10:40:52.000Z</time>
      </trkpt>
      <trkpt lat="43.46785" lon="6.78105">
        <ele>86</ele>
        <time>2013-09-18T10:40:53.000Z</time>
      </trkpt>
      <trkpt lat="43.46786" lon="6.78105">
        <ele>86</ele>
        <time>2013-09-18T10:40:54.000Z</time>
      </trkpt>
      <trkpt lat="43.46787" lon="6.78104">
        <ele>86</ele>
        <time>2013-09-18T10:40:55.000Z</time>
      </trkpt>
      <trkpt lat="43.46788" lon="6.78103">
        <ele>85</ele>
        <time>2013-09-18T10:40:56.000Z</time>
      </trkpt>
      <trkpt lat="43.4679" lon="6.78102">
        <ele>85</ele>
        <time>2013-09-18T10:40:57.000Z</time>
      </trkpt>
      <trkpt lat="43.46791" lon="6.78101">
        <ele>86</ele>
        <time>2013-09-18T10:40:58.000Z</time>
      </trkpt>
      <trkpt lat="43.46792" lon="6.781">
        <ele>86</ele>
        <time>2013-09-18T10:40:59.000Z</time>
      </trkpt>
      <trkpt lat="43.46793" lon="6.78098">
        <ele>86</ele>
        <time>2013-09-18T10:41:00.000Z</time>
      </trkpt>
      <trkpt lat="43.46795" lon="6.78097">
        <ele>86</ele>
        <time>2013-09-18T10:41:01.000Z</time>
      </trkpt>
      <trkpt lat="43.46796" lon="6.78096">
        <ele>86</ele>
        <time>2013-09-18T10:41:02.000Z</time>
      </trkpt>
      <trkpt lat="43.46798" lon="6.78094">
        <ele>86</ele>
        <time>2013-09-18T10:41:03.000Z</time>
      </trkpt>
      <trkpt lat="43.46799" lon="6.78094">
        <ele>85</ele>
        <time>2013-09-18T10:41:04.000Z</time>
      </trkpt>
      <trkpt lat="43.46801" lon="6.78093">
        <ele>85</ele>
        <time>2013-09-18T10:41:05.000Z</time>
      </trkpt>
      <trkpt lat="43.46803" lon="6.78092">
        <ele>85</ele>
        <time>2013-09-18T10:41:06.000Z</time>
      </trkpt>
      <trkpt lat="43.46804" lon="6.78091">
        <ele>85</ele>
        <time>2013-09-18T10:41:07.000Z</time>
      </trkpt>
      <trkpt lat="43.46806" lon="6.7809">
        <ele>85</ele>
        <time>2013-09-18T10:41:08.000Z</time>
      </trkpt>
      <trkpt lat="43.46807" lon="6.78089">
        <ele>85</ele>
        <time>2013-09-18T10:41:09.000Z</time>
      </trkpt>
      <trkpt lat="43.46809" lon="6.78088">
        <ele>85</ele>
        <time>2013-09-18T10:41:10.000Z</time>
      </trkpt>
      <trkpt lat="43.4681" lon="6.78087">
        <ele>85</ele>
        <time>2013-09-18T10:41:11.000Z</time>
      </trkpt>
      <trkpt lat="43.46812" lon="6.78086">
        <ele>85</ele>
        <time>2013-09-18T10:41:12.000Z</time>
      </trkpt>
      <trkpt lat="43.46814" lon="6.78085">
        <ele>85</ele>
        <time>2013-09-18T10:41:13.000Z</time>
      </trkpt>
      <trkpt lat="43.46815" lon="6.78084">
        <ele>85</ele>
        <time>2013-09-18T10:41:14.000Z</time>
      </trkpt>
      <trkpt lat="43.46817" lon="6.78083">
        <ele>89</ele>
        <time>2013-09-18T10:41:15.000Z</time>
      </trkpt>
      <trkpt lat="43.46819" lon="6.78082">
        <ele>88</ele>
        <time>2013-09-18T10:41:16.000Z</time>
      </trkpt>
      <trkpt lat="43.4682" lon="6.78081">
        <ele>88</ele>
        <time>2013-09-18T10:41:17.000Z</time>
      </trkpt>
      <trkpt lat="43.46822" lon="6.7808">
        <ele>88</ele>
        <time>2013-09-18T10:41:18.000Z</time>
      </trkpt>
      <trkpt lat="43.46824" lon="6.7808">
        <ele>88</ele>
        <time>2013-09-18T10:41:19.000Z</time>
      </trkpt>
      <trkpt lat="43.46825" lon="6.78079">
        <ele>88</ele>
        <time>2013-09-18T10:41:20.000Z</time>
      </trkpt>
      <trkpt lat="43.46827" lon="6.78078">
        <ele>88</ele>
        <time>2013-09-18T10:41:21.000Z</time>
      </trkpt>
      <trkpt lat="43.46829" lon="6.78077">
        <ele>88</ele>
        <time>2013-09-18T10:41:22.000Z</time>
      </trkpt>
      <trkpt lat="43.4683" lon="6.78076">
        <ele>87</ele>
        <time>2013-09-18T10:41:23.000Z</time>
      </trkpt>
      <trkpt lat="43.46832" lon="6.78076">
        <ele>88</ele>
        <time>2013-09-18T10:41:24.000Z</time>
      </trkpt>
      <trkpt lat="43.46834" lon="6.78075">
        <ele>87</ele>
        <time>2013-09-18T10:41:25.000Z</time>
      </trkpt>
      <trkpt lat="43.46836" lon="6.78074">
        <ele>87</ele>
        <time>2013-09-18T10:41:26.000Z</time>
      </trkpt>
      <trkpt lat="43.46837" lon="6.78073">
        <ele>87</ele>
        <time>2013-09-18T10:41:27.000Z</time>
      </trkpt>
      <trkpt lat="43.46839" lon="6.78073">
        <ele>87</ele>
        <time>2013-09-18T10:41:28.000Z</time>
      </trkpt>
      <trkpt lat="43.46841" lon="6.78072">
        <ele>87</ele>
        <time>2013-09-18T10:41:29.000Z</time>
      </trkpt>
      <trkpt lat="43.46843" lon="6.78071">
        <ele>87</ele>
        <time>2013-09-18T10:41:30.000Z</time>
      </trkpt>
      <trkpt lat="43.46844" lon="6.7807">
        <ele>87</ele>
        <time>2013-09-18T10:41:31.000Z</time>
      </trkpt>
      <trkpt lat="43.46846" lon="6.78069">
        <ele>87</ele>
        <time>2013-09-18T10:41:32.000Z</time>
      </trkpt>
      <trkpt lat="43.46848" lon="6.78069">
        <ele>87</ele>
        <time>2013-09-18T10:41:33.000Z</time>
      </trkpt>
      <trkpt lat="43.46849" lon="6.78068">
        <ele>87</ele>
        <time>2013-09-18T10:41:34.000Z</time>
      </trkpt>
      <trkpt lat="43.46851" lon="6.78067">
        <ele>87</ele>
        <time>2013-09-18T10:41:35.000Z</time>
      </trkpt>
      <trkpt lat="43.46853" lon="6.78066">
        <ele>87</ele>
        <time>2013-09-18T10:41:36.000Z</time>
      </trkpt>
      <trkpt lat="43.46855" lon="6.78065">
        <ele>87</ele>
        <time>2013-09-18T10:41:37.000Z</time>
      </trkpt>
      <trkpt lat="43.46857" lon="6.78064">
        <ele>87</ele>
        <time>2013-09-18T10:41:38.000Z</time>
      </trkpt>
      <trkpt lat="43.46859" lon="6.78063">
        <ele>87</ele>
        <time>2013-09-18T10:41:39.000Z</time>
      </trkpt>
      <trkpt lat="43.4686" lon="6.78061">
        <ele>87</ele>
        <time>2013-09-18T10:41:40.000Z</time>
      </trkpt>
      <trkpt lat="43.46862" lon="6.7806">
        <ele>87</ele>
        <time>2013-09-18T10:41:41.000Z</time>
      </trkpt>
      <trkpt lat="43.46864" lon="6.78059">
        <ele>87</ele>
        <time>2013-09-18T10:41:42.000Z</time>
      </trkpt>
      <trkpt lat="43.46866" lon="6.78058">
        <ele>87</ele>
        <time>2013-09-18T10:41:43.000Z</time>
      </trkpt>
      <trkpt lat="43.46868" lon="6.78058">
        <ele>87</ele>
        <time>2013-09-18T10:41:44.000Z</time>
      </trkpt>
      <trkpt lat="43.46871" lon="6.78057">
        <ele>87</ele>
        <time>2013-09-18T10:41:45.000Z</time>
      </trkpt>
      <trkpt lat="43.46873" lon="6.78057">
        <ele>87</ele>
        <time>2013-09-18T10:41:46.000Z</time>
      </trkpt>
      <trkpt lat="43.46875" lon="6.78056">
        <ele>87</ele>
        <time>2013-09-18T10:41:47.000Z</time>
      </trkpt>
      <trkpt lat="43.46877" lon="6.78055">
        <ele>87</ele>
        <time>2013-09-18T10:41:48.000Z</time>
      </trkpt>
      <trkpt lat="43.46879" lon="6.78054">
        <ele>87</ele>
        <time>2013-09-18T10:41:49.000Z</time>
      </trkpt>
      <trkpt lat="43.46881" lon="6.78053">
        <ele>87</ele>
        <time>2013-09-18T10:41:50.000Z</time>
      </trkpt>
      <trkpt lat="43.46884" lon="6.78052">
        <ele>87</ele>
        <time>2013-09-18T10:41:51.000Z</time>
      </trkpt>
      <trkpt lat="43.46886" lon="6.78051">
        <ele>87</ele>
        <time>2013-09-18T10:41:52.000Z</time>
      </trkpt>
      <trkpt lat="43.46888" lon="6.7805">
        <ele>87</ele>
        <time>2013-09-18T10:41:53.000Z</time>
      </trkpt>
      <trkpt lat="43.4689" lon="6.78049">
        <ele>87</ele>
        <time>2013-09-18T10:41:54.000Z</time>
      </trkpt>
      <trkpt lat="43.46892" lon="6.78048">
        <ele>87</ele>
        <time>2013-09-18T10:41:55.000Z</time>
      </trkpt>
      <trkpt lat="43.46895" lon="6.78046">
        <ele>87</ele>
        <time>2013-09-18T10:41:56.000Z</time>
      </trkpt>
      <trkpt lat="43.46897" lon="6.78044">
        <ele>87</ele>
        <time>2013-09-18T10:41:57.000Z</time>
      </trkpt>
      <trkpt lat="43.46899" lon="6.78042">
        <ele>88</ele>
        <time>2013-09-18T10:41:58.000Z</time>
      </trkpt>
      <trkpt lat="43.46901" lon="6.7804">
        <ele>88</ele>
        <time>2013-09-18T10:41:59.000Z</time>
      </trkpt>
      <trkpt lat="43.46903" lon="6.78038">
        <ele>88</ele>
        <time>2013-09-18T10:42:00.000Z</time>
      </trkpt>
      <trkpt lat="43.46905" lon="6.78035">
        <ele>88</ele>
        <time>2013-09-18T10:42:01.000Z</time>
      </trkpt>
      <trkpt lat="43.46906" lon="6.78032">
        <ele>88</ele>
        <time>2013-09-18T10:42:02.000Z</time>
      </trkpt>
      <trkpt lat="43.46908" lon="6.78029">
        <ele>88</ele>
        <time>2013-09-18T10:42:03.000Z</time>
      </trkpt>
      <trkpt lat="43.46909" lon="6.78026">
        <ele>89</ele>
        <time>2013-09-18T10:42:04.000Z</time>
      </trkpt>
      <trkpt lat="43.4691" lon="6.78023">
        <ele>89</ele>
        <time>2013-09-18T10:42:05.000Z</time>
      </trkpt>
      <trkpt lat="43.46911" lon="6.7802">
        <ele>89</ele>
        <time>2013-09-18T10:42:06.000Z</time>
      </trkpt>
      <trkpt lat="43.46912" lon="6.78016">
        <ele>89</ele>
        <time>2013-09-18T10:42:07.000Z</time>
      </trkpt>
      <trkpt lat="43.46913" lon="6.78013">
        <ele>90</ele>
        <time>2013-09-18T10:42:08.000Z</time>
      </trkpt>
      <trkpt lat="43.46914" lon="6.78009">
        <ele>90</ele>
        <time>2013-09-18T10:42:09.000Z</time>
      </trkpt>
      <trkpt lat="43.46915" lon="6.78006">
        <ele>90</ele>
        <time>2013-09-18T10:42:10.000Z</time>
      </trkpt>
      <trkpt lat="43.46916" lon="6.78003">
        <ele>91</ele>
        <time>2013-09-18T10:42:11.000Z</time>
      </trkpt>
      <trkpt lat="43.46917" lon="6.77999">
        <ele>91</ele>
        <time>2013-09-18T10:42:12.000Z</time>
      </trkpt>
      <trkpt lat="43.46918" lon="6.77997">
        <ele>92</ele>
        <time>2013-09-18T10:42:13.000Z</time>
      </trkpt>
      <trkpt lat="43.46919" lon="6.77994">
        <ele>92</ele>
        <time>2013-09-18T10:42:14.000Z</time>
      </trkpt>
      <trkpt lat="43.4692" lon="6.77992">
        <ele>93</ele>
        <time>2013-09-18T10:42:15.000Z</time>
      </trkpt>
      <trkpt lat="43.46921" lon="6.7799">
        <ele>93</ele>
        <time>2013-09-18T10:42:16.000Z</time>
      </trkpt>
      <trkpt lat="43.46922" lon="6.77989">
        <ele>93</ele>
        <time>2013-09-18T10:42:17.000Z</time>
      </trkpt>
      <trkpt lat="43.46923" lon="6.77987">
        <ele>93</ele>
        <time>2013-09-18T10:42:18.000Z</time>
      </trkpt>
      <trkpt lat="43.46924" lon="6.77985">
        <ele>94</ele>
        <time>2013-09-18T10:42:19.000Z</time>
      </trkpt>
      <trkpt lat="43.46925" lon="6.77984">
        <ele>94</ele>
        <time>2013-09-18T10:42:20.000Z</time>
      </trkpt>
      <trkpt lat="43.46927" lon="6.77983">
        <ele>94</ele>
        <time>2013-09-18T10:42:21.000Z</time>
      </trkpt>
      <trkpt lat="43.46928" lon="6.77982">
        <ele>94</ele>
        <time>2013-09-18T10:42:22.000Z</time>
      </trkpt>
      <trkpt lat="43.46929" lon="6.77981">
        <ele>94</ele>
        <time>2013-09-18T10:42:23.000Z</time>
      </trkpt>
      <trkpt lat="43.46931" lon="6.77981">
        <ele>94</ele>
        <time>2013-09-18T10:42:24.000Z</time>
      </trkpt>
      <trkpt lat="43.46932" lon="6.7798">
        <ele>95</ele>
        <time>2013-09-18T10:42:25.000Z</time>
      </trkpt>
      <trkpt lat="43.46933" lon="6.7798">
        <ele>95</ele>
        <time>2013-09-18T10:42:26.000Z</time>
      </trkpt>
      <trkpt lat="43.46934" lon="6.77979">
        <ele>95</ele>
        <time>2013-09-18T10:42:27.000Z</time>
      </trkpt>
      <trkpt lat="43.46935" lon="6.77978">
        <ele>95</ele>
        <time>2013-09-18T10:42:28.000Z</time>
      </trkpt>
      <trkpt lat="43.46937" lon="6.77977">
        <ele>95</ele>
        <time>2013-09-18T10:42:29.000Z</time>
      </trkpt>
      <trkpt lat="43.46938" lon="6.77976">
        <ele>95</ele>
        <time>2013-09-18T10:42:30.000Z</time>
      </trkpt>
      <trkpt lat="43.46939" lon="6.77975">
        <ele>95</ele>
        <time>2013-09-18T10:42:31.000Z</time>
      </trkpt>
      <trkpt lat="43.4694" lon="6.77974">
        <ele>95</ele>
        <time>2013-09-18T10:42:32.000Z</time>
      </trkpt>
      <trkpt lat="43.46941" lon="6.77973">
        <ele>95</ele>
        <time>2013-09-18T10:42:33.000Z</time>
      </trkpt>
      <trkpt lat="43.46942" lon="6.77972">
        <ele>95</ele>
        <time>2013-09-18T10:42:34.000Z</time>
      </trkpt>
      <trkpt lat="43.46943" lon="6.77971">
        <ele>96</ele>
        <time>2013-09-18T10:42:35.000Z</time>
      </trkpt>
      <trkpt lat="43.46944" lon="6.7797">
        <ele>96</ele>
        <time>2013-09-18T10:42:36.000Z</time>
      </trkpt>
      <trkpt lat="43.46946" lon="6.77969">
        <ele>96</ele>
        <time>2013-09-18T10:42:37.000Z</time>
      </trkpt>
      <trkpt lat="43.46947" lon="6.77969">
        <ele>96</ele>
        <time>2013-09-18T10:42:38.000Z</time>
      </trkpt>
      <trkpt lat="43.46948" lon="6.77968">
        <ele>96</ele>
        <time>2013-09-18T10:42:39.000Z</time>
      </trkpt>
      <trkpt lat="43.46949" lon="6.77968">
        <ele>96</ele>
        <time>2013-09-18T10:42:40.000Z</time>
      </trkpt>
      <trkpt lat="43.4695" lon="6.77967">
        <ele>96</ele>
        <time>2013-09-18T10:42:41.000Z</time>
      </trkpt>
      <trkpt lat="43.46951" lon="6.77966">
        <ele>96</ele>
        <time>2013-09-18T10:42:42.000Z</time>
      </trkpt>
      <trkpt lat="43.46953" lon="6.77966">
        <ele>96</ele>
        <time>2013-09-18T10:42:43.000Z</time>
      </trkpt>
      <trkpt lat="43.46954" lon="6.77965">
        <ele>96</ele>
        <time>2013-09-18T10:42:44.000Z</time>
      </trkpt>
      <trkpt lat="43.46955" lon="6.77964">
        <ele>96</ele>
        <time>2013-09-18T10:42:45.000Z</time>
      </trkpt>
      <trkpt lat="43.46956" lon="6.77963">
        <ele>96</ele>
        <time>2013-09-18T10:42:46.000Z</time>
      </trkpt>
      <trkpt lat="43.46957" lon="6.77962">
        <ele>96</ele>
        <time>2013-09-18T10:42:47.000Z</time>
      </trkpt>
      <trkpt lat="43.46958" lon="6.77961">
        <ele>96</ele>
        <time>2013-09-18T10:42:48.000Z</time>
      </trkpt>
      <trkpt lat="43.46959" lon="6.7796">
        <ele>96</ele>
        <time>2013-09-18T10:42:49.000Z</time>
      </trkpt>
      <trkpt lat="43.4696" lon="6.77959">
        <ele>96</ele>
        <time>2013-09-18T10:42:50.000Z</time>
      </trkpt>
      <trkpt lat="43.46961" lon="6.77958">
        <ele>97</ele>
        <time>2013-09-18T10:42:51.000Z</time>
      </trkpt>
      <trkpt lat="43.46962" lon="6.77957">
        <ele>97</ele>
        <time>2013-09-18T10:42:52.000Z</time>
      </trkpt>
      <trkpt lat="43.46963" lon="6.77956">
        <ele>97</ele>
        <time>2013-09-18T10:42:53.000Z</time>
      </trkpt>
      <trkpt lat="43.46964" lon="6.77954">
        <ele>97</ele>
        <time>2013-09-18T10:42:54.000Z</time>
      </trkpt>
      <trkpt lat="43.46965" lon="6.77953">
        <ele>97</ele>
        <time>2013-09-18T10:42:55.000Z</time>
      </trkpt>
      <trkpt lat="43.46966" lon="6.77952">
        <ele>97</ele>
        <time>2013-09-18T10:42:56.000Z</time>
      </trkpt>
      <trkpt lat="43.46968" lon="6.77951">
        <ele>97</ele>
        <time>2013-09-18T10:42:57.000Z</time>
      </trkpt>
      <trkpt lat="43.46969" lon="6.77951">
        <ele>97</ele>
        <time>2013-09-18T10:42:58.000Z</time>
      </trkpt>
      <trkpt lat="43.4697" lon="6.7795">
        <ele>97</ele>
        <time>2013-09-18T10:42:59.000Z</time>
      </trkpt>
      <trkpt lat="43.46971" lon="6.77949">
        <ele>97</ele>
        <time>2013-09-18T10:43:00.000Z</time>
      </trkpt>
      <trkpt lat="43.46972" lon="6.77948">
        <ele>97</ele>
        <time>2013-09-18T10:43:01.000Z</time>
      </trkpt>
      <trkpt lat="43.46973" lon="6.77947">
        <ele>97</ele>
        <time>2013-09-18T10:43:02.000Z</time>
      </trkpt>
      <trkpt lat="43.46974" lon="6.77947">
        <ele>97</ele>
        <time>2013-09-18T10:43:03.000Z</time>
      </trkpt>
      <trkpt lat="43.46975" lon="6.77946">
        <ele>97</ele>
        <time>2013-09-18T10:43:04.000Z</time>
      </trkpt>
      <trkpt lat="43.46976" lon="6.77945">
        <ele>98</ele>
        <time>2013-09-18T10:43:05.000Z</time>
      </trkpt>
      <trkpt lat="43.46978" lon="6.77944">
        <ele>98</ele>
        <time>2013-09-18T10:43:06.000Z</time>
      </trkpt>
      <trkpt lat="43.46979" lon="6.77943">
        <ele>98</ele>
        <time>2013-09-18T10:43:07.000Z</time>
      </trkpt>
      <trkpt lat="43.4698" lon="6.77943">
        <ele>98</ele>
        <time>2013-09-18T10:43:08.000Z</time>
      </trkpt>
      <trkpt lat="43.46981" lon="6.77942">
        <ele>98</ele>
        <time>2013-09-18T10:43:09.000Z</time>
      </trkpt>
      <trkpt lat="43.46983" lon="6.77942">
        <ele>98</ele>
        <time>2013-09-18T10:43:10.000Z</time>
      </trkpt>
      <trkpt lat="43.46984" lon="6.77941">
        <ele>98</ele>
        <time>2013-09-18T10:43:11.000Z</time>
      </trkpt>
      <trkpt lat="43.46985" lon="6.7794">
        <ele>98</ele>
        <time>2013-09-18T10:43:12.000Z</time>
      </trkpt>
      <trkpt lat="43.46986" lon="6.77939">
        <ele>98</ele>
        <time>2013-09-18T10:43:13.000Z</time>
      </trkpt>
      <trkpt lat="43.46987" lon="6.77938">
        <ele>98</ele>
        <time>2013-09-18T10:43:14.000Z</time>
      </trkpt>
      <trkpt lat="43.46988" lon="6.77937">
        <ele>99</ele>
        <time>2013-09-18T10:43:15.000Z</time>
      </trkpt>
      <trkpt lat="43.46989" lon="6.77936">
        <ele>99</ele>
        <time>2013-09-18T10:43:16.000Z</time>
      </trkpt>
      <trkpt lat="43.46991" lon="6.77935">
        <ele>99</ele>
        <time>2013-09-18T10:43:17.000Z</time>
      </trkpt>
      <trkpt lat="43.46992" lon="6.77934">
        <ele>99</ele>
        <time>2013-09-18T10:43:18.000Z</time>
      </trkpt>
      <trkpt lat="43.46993" lon="6.77932">
        <ele>99</ele>
        <time>2013-09-18T10:43:19.000Z</time>
      </trkpt>
      <trkpt lat="43.46994" lon="6.77931">
        <ele>99</ele>
        <time>2013-09-18T10:43:20.000Z</time>
      </trkpt>
      <trkpt lat="43.46995" lon="6.7793">
        <ele>100</ele>
        <time>2013-09-18T10:43:21.000Z</time>
      </trkpt>
      <trkpt lat="43.46996" lon="6.77929">
        <ele>100</ele>
        <time>2013-09-18T10:43:22.000Z</time>
      </trkpt>
      <trkpt lat="43.46997" lon="6.77928">
        <ele>100</ele>
        <time>2013-09-18T10:43:23.000Z</time>
      </trkpt>
      <trkpt lat="43.46999" lon="6.77927">
        <ele>100</ele>
        <time>2013-09-18T10:43:24.000Z</time>
      </trkpt>
      <trkpt lat="43.47" lon="6.77926">
        <ele>100</ele>
        <time>2013-09-18T10:43:25.000Z</time>
      </trkpt>
      <trkpt lat="43.47001" lon="6.77924">
        <ele>101</ele>
        <time>2013-09-18T10:43:26.000Z</time>
      </trkpt>
      <trkpt lat="43.47002" lon="6.77923">
        <ele>101</ele>
        <time>2013-09-18T10:43:27.000Z</time>
      </trkpt>
      <trkpt lat="43.47003" lon="6.77922">
        <ele>101</ele>
        <time>2013-09-18T10:43:28.000Z</time>
      </trkpt>
      <trkpt lat="43.47004" lon="6.77921">
        <ele>102</ele>
        <time>2013-09-18T10:43:29.000Z</time>
      </trkpt>
      <trkpt lat="43.47005" lon="6.77919">
        <ele>102</ele>
        <time>2013-09-18T10:43:30.000Z</time>
      </trkpt>
      <trkpt lat="43.47006" lon="6.77918">
        <ele>101</ele>
        <time>2013-09-18T10:43:31.000Z</time>
      </trkpt>
      <trkpt lat="43.47008" lon="6.77917">
        <ele>101</ele>
        <time>2013-09-18T10:43:32.000Z</time>
      </trkpt>
      <trkpt lat="43.47009" lon="6.77915">
        <ele>103</ele>
        <time>2013-09-18T10:43:33.000Z</time>
      </trkpt>
      <trkpt lat="43.4701" lon="6.77914">
        <ele>103</ele>
        <time>2013-09-18T10:43:34.000Z</time>
      </trkpt>
      <trkpt lat="43.47011" lon="6.77913">
        <ele>103</ele>
        <time>2013-09-18T10:43:35.000Z</time>
      </trkpt>
      <trkpt lat="43.47012" lon="6.77911">
        <ele>103</ele>
        <time>2013-09-18T10:43:36.000Z</time>
      </trkpt>
      <trkpt lat="43.47013" lon="6.7791">
        <ele>103</ele>
        <time>2013-09-18T10:43:37.000Z</time>
      </trkpt>
      <trkpt lat="43.47014" lon="6.77908">
        <ele>103</ele>
        <time>2013-09-18T10:43:38.000Z</time>
      </trkpt>
      <trkpt lat="43.47015" lon="6.77906">
        <ele>104</ele>
        <time>2013-09-18T10:43:39.000Z</time>
      </trkpt>
      <trkpt lat="43.47016" lon="6.77905">
        <ele>104</ele>
        <time>2013-09-18T10:43:40.000Z</time>
      </trkpt>
      <trkpt lat="43.47016" lon="6.77903">
        <ele>104</ele>
        <time>2013-09-18T10:43:41.000Z</time>
      </trkpt>
      <trkpt lat="43.47017" lon="6.77901">
        <ele>104</ele>
        <time>2013-09-18T10:43:42.000Z</time>
      </trkpt>
      <trkpt lat="43.47018" lon="6.77899">
        <ele>104</ele>
        <time>2013-09-18T10:43:43.000Z</time>
      </trkpt>
      <trkpt lat="43.47019" lon="6.77897">
        <ele>104</ele>
        <time>2013-09-18T10:43:44.000Z</time>
      </trkpt>
      <trkpt lat="43.4702" lon="6.77895">
        <ele>104</ele>
        <time>2013-09-18T10:43:45.000Z</time>
      </trkpt>
      <trkpt lat="43.4702" lon="6.77894">
        <ele>104</ele>
        <time>2013-09-18T10:43:46.000Z</time>
      </trkpt>
      <trkpt lat="43.47021" lon="6.77892">
        <ele>104</ele>
        <time>2013-09-18T10:43:47.000Z</time>
      </trkpt>
      <trkpt lat="43.47022" lon="6.7789">
        <ele>105</ele>
        <time>2013-09-18T10:43:48.000Z</time>
      </trkpt>
      <trkpt lat="43.47023" lon="6.77888">
        <ele>105</ele>
        <time>2013-09-18T10:43:49.000Z</time>
      </trkpt>
      <trkpt lat="43.47024" lon="6.77886">
        <ele>105</ele>
        <time>2013-09-18T10:43:50.000Z</time>
      </trkpt>
      <trkpt lat="43.47025" lon="6.77885">
        <ele>105</ele>
        <time>2013-09-18T10:43:51.000Z</time>
      </trkpt>
      <trkpt lat="43.47025" lon="6.77883">
        <ele>105</ele>
        <time>2013-09-18T10:43:52.000Z</time>
      </trkpt>
      <trkpt lat="43.47026" lon="6.77881">
        <ele>105</ele>
        <time>2013-09-18T10:43:53.000Z</time>
      </trkpt>
      <trkpt lat="43.47027" lon="6.77879">
        <ele>105</ele>
        <time>2013-09-18T10:43:54.000Z</time>
      </trkpt>
      <trkpt lat="43.47027" lon="6.77877">
        <ele>105</ele>
        <time>2013-09-18T10:43:55.000Z</time>
      </trkpt>
      <trkpt lat="43.47028" lon="6.77875">
        <ele>105</ele>
        <time>2013-09-18T10:43:56.000Z</time>
      </trkpt>
      <trkpt lat="43.47029" lon="6.77873">
        <ele>105</ele>
        <time>2013-09-18T10:43:57.000Z</time>
      </trkpt>
      <trkpt lat="43.47029" lon="6.77871">
        <ele>105</ele>
        <time>2013-09-18T10:43:58.000Z</time>
      </trkpt>
      <trkpt lat="43.4703" lon="6.77869">
        <ele>105</ele>
        <time>2013-09-18T10:43:59.000Z</time>
      </trkpt>
      <trkpt lat="43.4703" lon="6.77866">
        <ele>106</ele>
        <time>2013-09-18T10:44:00.000Z</time>
      </trkpt>
      <trkpt lat="43.47031" lon="6.77864">
        <ele>106</ele>
        <time>2013-09-18T10:44:01.000Z</time>
      </trkpt>
      <trkpt lat="43.47031" lon="6.77862">
        <ele>106</ele>
        <time>2013-09-18T10:44:02.000Z</time>
      </trkpt>
      <trkpt lat="43.47031" lon="6.77859">
        <ele>106</ele>
        <time>2013-09-18T10:44:03.000Z</time>
      </trkpt>
      <trkpt lat="43.47032" lon="6.77856">
        <ele>106</ele>
        <time>2013-09-18T10:44:04.000Z</time>
      </trkpt>
      <trkpt lat="43.47032" lon="6.77854">
        <ele>106</ele>
        <time>2013-09-18T10:44:05.000Z</time>
      </trkpt>
      <trkpt lat="43.47033" lon="6.77851">
        <ele>106</ele>
        <time>2013-09-18T10:44:06.000Z</time>
      </trkpt>
      <trkpt lat="43.47034" lon="6.77849">
        <ele>106</ele>
        <time>2013-09-18T10:44:07.000Z</time>
      </trkpt>
      <trkpt lat="43.47035" lon="6.77847">
        <ele>106</ele>
        <time>2013-09-18T10:44:08.000Z</time>
      </trkpt>
      <trkpt lat="43.47036" lon="6.77845">
        <ele>106</ele>
        <time>2013-09-18T10:44:09.000Z</time>
      </trkpt>
      <trkpt lat="43.47037" lon="6.77842">
        <ele>106</ele>
        <time>2013-09-18T10:44:10.000Z</time>
      </trkpt>
      <trkpt lat="43.47038" lon="6.7784">
        <ele>106</ele>
        <time>2013-09-18T10:44:11.000Z</time>
      </trkpt>
      <trkpt lat="43.4704" lon="6.77838">
        <ele>106</ele>
        <time>2013-09-18T10:44:12.000Z</time>
      </trkpt>
      <trkpt lat="43.47041" lon="6.77837">
        <ele>106</ele>
        <time>2013-09-18T10:44:13.000Z</time>
      </trkpt>
      <trkpt lat="43.47042" lon="6.77835">
        <ele>106</ele>
        <time>2013-09-18T10:44:14.000Z</time>
      </trkpt>
      <trkpt lat="43.47043" lon="6.77833">
        <ele>107</ele>
        <time>2013-09-18T10:44:15.000Z</time>
      </trkpt>
      <trkpt lat="43.47045" lon="6.77832">
        <ele>107</ele>
        <time>2013-09-18T10:44:16.000Z</time>
      </trkpt>
      <trkpt lat="43.47046" lon="6.77831">
        <ele>107</ele>
        <time>2013-09-18T10:44:17.000Z</time>
      </trkpt>
      <trkpt lat="43.47048" lon="6.7783">
        <ele>107</ele>
        <time>2013-09-18T10:44:18.000Z</time>
      </trkpt>
      <trkpt lat="43.4705" lon="6.7783">
        <ele>107</ele>
        <time>2013-09-18T10:44:19.000Z</time>
      </trkpt>
      <trkpt lat="43.47052" lon="6.77829">
        <ele>107</ele>
        <time>2013-09-18T10:44:20.000Z</time>
      </trkpt>
      <trkpt lat="43.47053" lon="6.77828">
        <ele>107</ele>
        <time>2013-09-18T10:44:21.000Z</time>
      </trkpt>
      <trkpt lat="43.47055" lon="6.77828">
        <ele>107</ele>
        <time>2013-09-18T10:44:22.000Z</time>
      </trkpt>
      <trkpt lat="43.47056" lon="6.77827">
        <ele>107</ele>
        <time>2013-09-18T10:44:23.000Z</time>
      </trkpt>
      <trkpt lat="43.47058" lon="6.77827">
        <ele>107</ele>
        <time>2013-09-18T10:44:24.000Z</time>
      </trkpt>
      <trkpt lat="43.4706" lon="6.77828">
        <ele>107</ele>
        <time>2013-09-18T10:44:26.000Z</time>
      </trkpt>
      <trkpt lat="43.47062" lon="6.77828">
        <ele>107</ele>
        <time>2013-09-18T10:44:27.000Z</time>
      </trkpt>
      <trkpt lat="43.47065" lon="6.77828">
        <ele>107</ele>
        <time>2013-09-18T10:44:30.000Z</time>
      </trkpt>
      <trkpt lat="43.47066" lon="6.77829">
        <ele>107</ele>
        <time>2013-09-18T10:44:31.000Z</time>
      </trkpt>
      <trkpt lat="43.47067" lon="6.77829">
        <ele>107</ele>
        <time>2013-09-18T10:44:32.000Z</time>
      </trkpt>
      <trkpt lat="43.47068" lon="6.7783">
        <ele>107</ele>
        <time>2013-09-18T10:44:33.000Z</time>
      </trkpt>
      <trkpt lat="43.4707" lon="6.7783">
        <ele>108</ele>
        <time>2013-09-18T10:44:37.000Z</time>
      </trkpt>
      <trkpt lat="43.4707" lon="6.7783">
        <ele>108</ele>
        <time>2013-09-18T10:44:42.000Z</time>
      </trkpt>
      <trkpt lat="43.4707" lon="6.7783">
        <ele>108</ele>
        <time>2013-09-18T10:44:58.000Z</time>
      </trkpt>
      <trkpt lat="43.4707" lon="6.77831">
        <ele>108</ele>
        <time>2013-09-18T10:45:02.000Z</time>
      </trkpt>
      <trkpt lat="43.47069" lon="6.77831">
        <ele>108</ele>
        <time>2013-09-18T10:45:06.000Z</time>
      </trkpt>
      <trkpt lat="43.47069" lon="6.77831">
        <ele>108</ele>
        <time>2013-09-18T10:45:11.000Z</time>
      </trkpt>
      <trkpt lat="43.47069" lon="6.77831">
        <ele>108</ele>
        <time>2013-09-18T10:45:19.000Z</time>
      </trkpt>
      <trkpt lat="43.47069" lon="6.77831">
        <ele>108</ele>
        <time>2013-09-18T10:45:25.000Z</time>
      </trkpt>
      <trkpt lat="43.47068" lon="6.77831">
        <ele>107</ele>
        <time>2013-09-18T10:45:29.000Z</time>
      </trkpt>
      <trkpt lat="43.47069" lon="6.77831">
        <ele>108</ele>
        <time>2013-09-18T10:45:48.000Z</time>
      </trkpt>
      <trkpt lat="43.47069" lon="6.77831">
        <ele>108</ele>
        <time>2013-09-18T10:45:51.000Z</time>
      </trkpt>
      <trkpt lat="43.47069" lon="6.7783">
        <ele>108</ele>
        <time>2013-09-18T10:45:55.000Z</time>
      </trkpt>
      <trkpt lat="43.47069" lon="6.7783">
        <ele>108</ele>
        <time>2013-09-18T10:46:06.000Z</time>
      </trkpt>
      <trkpt lat="43.4707" lon="6.7783">
        <ele>108</ele>
        <time>2013-09-18T10:46:09.000Z</time>
      </trkpt>
      <trkpt lat="43.4707" lon="6.77831">
        <ele>108</ele>
        <time>2013-09-18T10:46:10.000Z</time>
      </trkpt>
      <trkpt lat="43.47071" lon="6.77832">
        <ele>108</ele>
        <time>2013-09-18T10:46:11.000Z</time>
      </trkpt>
      <trkpt lat="43.47073" lon="6.77833">
        <ele>108</ele>
        <time>2013-09-18T10:46:12.000Z</time>
      </trkpt>
      <trkpt lat="43.47074" lon="6.77834">
        <ele>108</ele>
        <time>2013-09-18T10:46:13.000Z</time>
      </trkpt>
      <trkpt lat="43.47076" lon="6.77835">
        <ele>108</ele>
        <time>2013-09-18T10:46:14.000Z</time>
      </trkpt>
      <trkpt lat="43.47077" lon="6.77836">
        <ele>108</ele>
        <time>2013-09-18T10:46:15.000Z</time>
      </trkpt>
      <trkpt lat="43.47079" lon="6.77836">
        <ele>108</ele>
        <time>2013-09-18T10:46:16.000Z</time>
      </trkpt>
      <trkpt lat="43.4708" lon="6.77837">
        <ele>108</ele>
        <time>2013-09-18T10:46:17.000Z</time>
      </trkpt>
      <trkpt lat="43.47081" lon="6.77838">
        <ele>108</ele>
        <time>2013-09-18T10:46:18.000Z</time>
      </trkpt>
      <trkpt lat="43.47083" lon="6.77839">
        <ele>108</ele>
        <time>2013-09-18T10:46:19.000Z</time>
      </trkpt>
      <trkpt lat="43.47084" lon="6.77841">
        <ele>109</ele>
        <time>2013-09-18T10:46:20.000Z</time>
      </trkpt>
      <trkpt lat="43.47085" lon="6.77842">
        <ele>109</ele>
        <time>2013-09-18T10:46:21.000Z</time>
      </trkpt>
      <trkpt lat="43.47087" lon="6.77844">
        <ele>110</ele>
        <time>2013-09-18T10:46:22.000Z</time>
      </trkpt>
      <trkpt lat="43.47088" lon="6.77845">
        <ele>110</ele>
        <time>2013-09-18T10:46:23.000Z</time>
      </trkpt>
      <trkpt lat="43.4709" lon="6.77846">
        <ele>110</ele>
        <time>2013-09-18T10:46:24.000Z</time>
      </trkpt>
      <trkpt lat="43.47091" lon="6.77847">
        <ele>110</ele>
        <time>2013-09-18T10:46:25.000Z</time>
      </trkpt>
      <trkpt lat="43.47093" lon="6.77849">
        <ele>110</ele>
        <time>2013-09-18T10:46:26.000Z</time>
      </trkpt>
      <trkpt lat="43.47094" lon="6.7785">
        <ele>110</ele>
        <time>2013-09-18T10:46:27.000Z</time>
      </trkpt>
      <trkpt lat="43.47096" lon="6.77851">
        <ele>110</ele>
        <time>2013-09-18T10:46:28.000Z</time>
      </trkpt>
      <trkpt lat="43.47097" lon="6.77852">
        <ele>110</ele>
        <time>2013-09-18T10:46:29.000Z</time>
      </trkpt>
      <trkpt lat="43.47098" lon="6.77854">
        <ele>110</ele>
        <time>2013-09-18T10:46:30.000Z</time>
      </trkpt>
      <trkpt lat="43.471" lon="6.77855">
        <ele>110</ele>
        <time>2013-09-18T10:46:31.000Z</time>
      </trkpt>
      <trkpt lat="43.47101" lon="6.77857">
        <ele>110</ele>
        <time>2013-09-18T10:46:32.000Z</time>
      </trkpt>
      <trkpt lat="43.47102" lon="6.77858">
        <ele>110</ele>
        <time>2013-09-18T10:46:33.000Z</time>
      </trkpt>
      <trkpt lat="43.47103" lon="6.7786">
        <ele>110</ele>
        <time>2013-09-18T10:46:34.000Z</time>
      </trkpt>
      <trkpt lat="43.47104" lon="6.77861">
        <ele>110</ele>
        <time>2013-09-18T10:46:35.000Z</time>
      </trkpt>
      <trkpt lat="43.47106" lon="6.77863">
        <ele>110</ele>
        <time>2013-09-18T10:46:36.000Z</time>
      </trkpt>
      <trkpt lat="43.47107" lon="6.77865">
        <ele>110</ele>
        <time>2013-09-18T10:46:37.000Z</time>
      </trkpt>
      <trkpt lat="43.47108" lon="6.77867">
        <ele>110</ele>
        <time>2013-09-18T10:46:38.000Z</time>
      </trkpt>
      <trkpt lat="43.47109" lon="6.77869">
        <ele>110</ele>
        <time>2013-09-18T10:46:39.000Z</time>
      </trkpt>
      <trkpt lat="43.47111" lon="6.77871">
        <ele>110</ele>
        <time>2013-09-18T10:46:40.000Z</time>
      </trkpt>
      <trkpt lat="43.47112" lon="6.77873">
        <ele>110</ele>
        <time>2013-09-18T10:46:41.000Z</time>
      </trkpt>
      <trkpt lat="43.47114" lon="6.77874">
        <ele>110</ele>
        <time>2013-09-18T10:46:42.000Z</time>
      </trkpt>
      <trkpt lat="43.47116" lon="6.77875">
        <ele>110</ele>
        <time>2013-09-18T10:46:43.000Z</time>
      </trkpt>
      <trkpt lat="43.47117" lon="6.77876">
        <ele>110</ele>
        <time>2013-09-18T10:46:44.000Z</time>
      </trkpt>
      <trkpt lat="43.47119" lon="6.77877">
        <ele>111</ele>
        <time>2013-09-18T10:46:45.000Z</time>
      </trkpt>
      <trkpt lat="43.4712" lon="6.77877">
        <ele>111</ele>
        <time>2013-09-18T10:46:46.000Z</time>
      </trkpt>
      <trkpt lat="43.47122" lon="6.77878">
        <ele>111</ele>
        <time>2013-09-18T10:46:47.000Z</time>
      </trkpt>
      <trkpt lat="43.47124" lon="6.77878">
        <ele>111</ele>
        <time>2013-09-18T10:46:48.000Z</time>
      </trkpt>
      <trkpt lat="43.4713" lon="6.77878">
        <ele>111</ele>
        <time>2013-09-18T10:46:52.000Z</time>
      </trkpt>
      <trkpt lat="43.47132" lon="6.77877">
        <ele>111</ele>
        <time>2013-09-18T10:46:53.000Z</time>
      </trkpt>
      <trkpt lat="43.47134" lon="6.77876">
        <ele>112</ele>
        <time>2013-09-18T10:46:54.000Z</time>
      </trkpt>
      <trkpt lat="43.47136" lon="6.77876">
        <ele>112</ele>
        <time>2013-09-18T10:46:55.000Z</time>
      </trkpt>
      <trkpt lat="43.47138" lon="6.77875">
        <ele>112</ele>
        <time>2013-09-18T10:46:56.000Z</time>
      </trkpt>
      <trkpt lat="43.47139" lon="6.77875">
        <ele>112</ele>
        <time>2013-09-18T10:46:57.000Z</time>
      </trkpt>
      <trkpt lat="43.47141" lon="6.77874">
        <ele>112</ele>
        <time>2013-09-18T10:46:58.000Z</time>
      </trkpt>
      <trkpt lat="43.47143" lon="6.77874">
        <ele>112</ele>
        <time>2013-09-18T10:46:59.000Z</time>
      </trkpt>
      <trkpt lat="43.47145" lon="6.77873">
        <ele>112</ele>
        <time>2013-09-18T10:47:00.000Z</time>
      </trkpt>
      <trkpt lat="43.47146" lon="6.77872">
        <ele>112</ele>
        <time>2013-09-18T10:47:01.000Z</time>
      </trkpt>
      <trkpt lat="43.47148" lon="6.77872">
        <ele>112</ele>
        <time>2013-09-18T10:47:02.000Z</time>
      </trkpt>
      <trkpt lat="43.47154" lon="6.77872">
        <ele>113</ele>
        <time>2013-09-18T10:47:05.000Z</time>
      </trkpt>
      <trkpt lat="43.47155" lon="6.77871">
        <ele>113</ele>
        <time>2013-09-18T10:47:06.000Z</time>
      </trkpt>
      <trkpt lat="43.47157" lon="6.77871">
        <ele>113</ele>
        <time>2013-09-18T10:47:07.000Z</time>
      </trkpt>
      <trkpt lat="43.47159" lon="6.77871">
        <ele>113</ele>
        <time>2013-09-18T10:47:08.000Z</time>
      </trkpt>
      <trkpt lat="43.4716" lon="6.7787">
        <ele>113</ele>
        <time>2013-09-18T10:47:09.000Z</time>
      </trkpt>
      <trkpt lat="43.47164" lon="6.7787">
        <ele>113</ele>
        <time>2013-09-18T10:47:11.000Z</time>
      </trkpt>
      <trkpt lat="43.47166" lon="6.77871">
        <ele>113</ele>
        <time>2013-09-18T10:47:12.000Z</time>
      </trkpt>
      <trkpt lat="43.47168" lon="6.77871">
        <ele>120</ele>
        <time>2013-09-18T10:47:13.000Z</time>
      </trkpt>
      <trkpt lat="43.47171" lon="6.77871">
        <ele>120</ele>
        <time>2013-09-18T10:47:15.000Z</time>
      </trkpt>
      <trkpt lat="43.47173" lon="6.77872">
        <ele>120</ele>
        <time>2013-09-18T10:47:16.000Z</time>
      </trkpt>
      <trkpt lat="43.47175" lon="6.77873">
        <ele>120</ele>
        <time>2013-09-18T10:47:17.000Z</time>
      </trkpt>
      <trkpt lat="43.47177" lon="6.77874">
        <ele>121</ele>
        <time>2013-09-18T10:47:18.000Z</time>
      </trkpt>
      <trkpt lat="43.47179" lon="6.77876">
        <ele>121</ele>
        <time>2013-09-18T10:47:19.000Z</time>
      </trkpt>
      <trkpt lat="43.4718" lon="6.77877">
        <ele>121</ele>
        <time>2013-09-18T10:47:20.000Z</time>
      </trkpt>
      <trkpt lat="43.47182" lon="6.77878">
        <ele>121</ele>
        <time>2013-09-18T10:47:21.000Z</time>
      </trkpt>
      <trkpt lat="43.47184" lon="6.77879">
        <ele>121</ele>
        <time>2013-09-18T10:47:22.000Z</time>
      </trkpt>
      <trkpt lat="43.47186" lon="6.77879">
        <ele>121</ele>
        <time>2013-09-18T10:47:23.000Z</time>
      </trkpt>
      <trkpt lat="43.47187" lon="6.7788">
        <ele>121</ele>
        <time>2013-09-18T10:47:24.000Z</time>
      </trkpt>
      <trkpt lat="43.47189" lon="6.77881">
        <ele>121</ele>
        <time>2013-09-18T10:47:25.000Z</time>
      </trkpt>
      <trkpt lat="43.4719" lon="6.77882">
        <ele>121</ele>
        <time>2013-09-18T10:47:26.000Z</time>
      </trkpt>
      <trkpt lat="43.47192" lon="6.77883">
        <ele>121</ele>
        <time>2013-09-18T10:47:27.000Z</time>
      </trkpt>
      <trkpt lat="43.47194" lon="6.77884">
        <ele>121</ele>
        <time>2013-09-18T10:47:28.000Z</time>
      </trkpt>
      <trkpt lat="43.47195" lon="6.77885">
        <ele>122</ele>
        <time>2013-09-18T10:47:29.000Z</time>
      </trkpt>
      <trkpt lat="43.47197" lon="6.77886">
        <ele>122</ele>
        <time>2013-09-18T10:47:30.000Z</time>
      </trkpt>
      <trkpt lat="43.47199" lon="6.77888">
        <ele>122</ele>
        <time>2013-09-18T10:47:31.000Z</time>
      </trkpt>
      <trkpt lat="43.472" lon="6.77889">
        <ele>122</ele>
        <time>2013-09-18T10:47:32.000Z</time>
      </trkpt>
      <trkpt lat="43.47201" lon="6.7789">
        <ele>122</ele>
        <time>2013-09-18T10:47:33.000Z</time>
      </trkpt>
      <trkpt lat="43.47203" lon="6.77892">
        <ele>122</ele>
        <time>2013-09-18T10:47:34.000Z</time>
      </trkpt>
      <trkpt lat="43.47204" lon="6.77894">
        <ele>122</ele>
        <time>2013-09-18T10:47:35.000Z</time>
      </trkpt>
      <trkpt lat="43.47205" lon="6.77896">
        <ele>122</ele>
        <time>2013-09-18T10:47:36.000Z</time>
      </trkpt>
      <trkpt lat="43.47207" lon="6.77897">
        <ele>122</ele>
        <time>2013-09-18T10:47:37.000Z</time>
      </trkpt>
      <trkpt lat="43.47208" lon="6.77899">
        <ele>123</ele>
        <time>2013-09-18T10:47:38.000Z</time>
      </trkpt>
      <trkpt lat="43.4721" lon="6.77901">
        <ele>123</ele>
        <time>2013-09-18T10:47:39.000Z</time>
      </trkpt>
      <trkpt lat="43.47211" lon="6.77903">
        <ele>123</ele>
        <time>2013-09-18T10:47:40.000Z</time>
      </trkpt>
      <trkpt lat="43.47212" lon="6.77905">
        <ele>123</ele>
        <time>2013-09-18T10:47:41.000Z</time>
      </trkpt>
      <trkpt lat="43.47213" lon="6.77907">
        <ele>123</ele>
        <time>2013-09-18T10:47:42.000Z</time>
      </trkpt>
      <trkpt lat="43.47214" lon="6.77909">
        <ele>123</ele>
        <time>2013-09-18T10:47:43.000Z</time>
      </trkpt>
      <trkpt lat="43.47215" lon="6.77911">
        <ele>123</ele>
        <time>2013-09-18T10:47:44.000Z</time>
      </trkpt>
      <trkpt lat="43.47216" lon="6.77914">
        <ele>124</ele>
        <time>2013-09-18T10:47:45.000Z</time>
      </trkpt>
      <trkpt lat="43.47216" lon="6.77916">
        <ele>124</ele>
        <time>2013-09-18T10:47:46.000Z</time>
      </trkpt>
      <trkpt lat="43.47216" lon="6.77919">
        <ele>124</ele>
        <time>2013-09-18T10:47:47.000Z</time>
      </trkpt>
      <trkpt lat="43.47217" lon="6.77921">
        <ele>124</ele>
        <time>2013-09-18T10:47:48.000Z</time>
      </trkpt>
      <trkpt lat="43.47217" lon="6.77924">
        <ele>124</ele>
        <time>2013-09-18T10:47:49.000Z</time>
      </trkpt>
      <trkpt lat="43.47217" lon="6.77927">
        <ele>124</ele>
        <time>2013-09-18T10:47:50.000Z</time>
      </trkpt>
      <trkpt lat="43.47218" lon="6.77929">
        <ele>124</ele>
        <time>2013-09-18T10:47:51.000Z</time>
      </trkpt>
      <trkpt lat="43.47218" lon="6.77931">
        <ele>124</ele>
        <time>2013-09-18T10:47:52.000Z</time>
      </trkpt>
      <trkpt lat="43.47219" lon="6.77934">
        <ele>124</ele>
        <time>2013-09-18T10:47:53.000Z</time>
      </trkpt>
      <trkpt lat="43.47219" lon="6.77936">
        <ele>124</ele>
        <time>2013-09-18T10:47:54.000Z</time>
      </trkpt>
      <trkpt lat="43.47219" lon="6.77938">
        <ele>124</ele>
        <time>2013-09-18T10:47:55.000Z</time>
      </trkpt>
      <trkpt lat="43.4722" lon="6.7794">
        <ele>124</ele>
        <time>2013-09-18T10:47:56.000Z</time>
      </trkpt>
      <trkpt lat="43.4722" lon="6.77944">
        <ele>124</ele>
        <time>2013-09-18T10:47:58.000Z</time>
      </trkpt>
      <trkpt lat="43.47219" lon="6.77946">
        <ele>124</ele>
        <time>2013-09-18T10:47:59.000Z</time>
      </trkpt>
      <trkpt lat="43.4722" lon="6.77951">
        <ele>124</ele>
        <time>2013-09-18T10:48:01.000Z</time>
      </trkpt>
      <trkpt lat="43.4722" lon="6.77953">
        <ele>124</ele>
        <time>2013-09-18T10:48:02.000Z</time>
      </trkpt>
      <trkpt lat="43.4722" lon="6.77957">
        <ele>124</ele>
        <time>2013-09-18T10:48:04.000Z</time>
      </trkpt>
      <trkpt lat="43.4722" lon="6.77962">
        <ele>124</ele>
        <time>2013-09-18T10:48:06.000Z</time>
      </trkpt>
      <trkpt lat="43.47219" lon="6.77964">
        <ele>124</ele>
        <time>2013-09-18T10:48:07.000Z</time>
      </trkpt>
      <trkpt lat="43.47219" lon="6.77966">
        <ele>124</ele>
        <time>2013-09-18T10:48:08.000Z</time>
      </trkpt>
      <trkpt lat="43.47219" lon="6.77968">
        <ele>124</ele>
        <time>2013-09-18T10:48:09.000Z</time>
      </trkpt>
      <trkpt lat="43.47219" lon="6.77971">
        <ele>124</ele>
        <time>2013-09-18T10:48:10.000Z</time>
      </trkpt>
      <trkpt lat="43.47218" lon="6.77973">
        <ele>124</ele>
        <time>2013-09-18T10:48:11.000Z</time>
      </trkpt>
      <trkpt lat="43.47218" lon="6.77975">
        <ele>124</ele>
        <time>2013-09-18T10:48:12.000Z</time>
      </trkpt>
      <trkpt lat="43.47218" lon="6.77985">
        <ele>125</ele>
        <time>2013-09-18T10:48:16.000Z</time>
      </trkpt>
      <trkpt lat="43.47219" lon="6.77988">
        <ele>125</ele>
        <time>2013-09-18T10:48:17.000Z</time>
      </trkpt>
      <trkpt lat="43.4722" lon="6.77991">
        <ele>125</ele>
        <time>2013-09-18T10:48:18.000Z</time>
      </trkpt>
      <trkpt lat="43.4722" lon="6.77993">
        <ele>125</ele>
        <time>2013-09-18T10:48:19.000Z</time>
      </trkpt>
      <trkpt lat="43.47221" lon="6.77996">
        <ele>125</ele>
        <time>2013-09-18T10:48:20.000Z</time>
      </trkpt>
      <trkpt lat="43.47222" lon="6.77999">
        <ele>125</ele>
        <time>2013-09-18T10:48:21.000Z</time>
      </trkpt>
      <trkpt lat="43.47223" lon="6.78001">
        <ele>123</ele>
        <time>2013-09-18T10:48:22.000Z</time>
      </trkpt>
      <trkpt lat="43.47223" lon="6.78004">
        <ele>123</ele>
        <time>2013-09-18T10:48:23.000Z</time>
      </trkpt>
      <trkpt lat="43.47224" lon="6.78006">
        <ele>123</ele>
        <time>2013-09-18T10:48:24.000Z</time>
      </trkpt>
      <trkpt lat="43.47225" lon="6.78008">
        <ele>123</ele>
        <time>2013-09-18T10:48:25.000Z</time>
      </trkpt>
      <trkpt lat="43.47225" lon="6.7801">
        <ele>123</ele>
        <time>2013-09-18T10:48:26.000Z</time>
      </trkpt>
      <trkpt lat="43.47226" lon="6.78013">
        <ele>123</ele>
        <time>2013-09-18T10:48:27.000Z</time>
      </trkpt>
      <trkpt lat="43.47227" lon="6.78015">
        <ele>123</ele>
        <time>2013-09-18T10:48:28.000Z</time>
      </trkpt>
      <trkpt lat="43.47227" lon="6.78017">
        <ele>123</ele>
        <time>2013-09-18T10:48:29.000Z</time>
      </trkpt>
      <trkpt lat="43.47228" lon="6.78019">
        <ele>122</ele>
        <time>2013-09-18T10:48:30.000Z</time>
      </trkpt>
      <trkpt lat="43.47228" lon="6.78021">
        <ele>122</ele>
        <time>2013-09-18T10:48:31.000Z</time>
      </trkpt>
      <trkpt lat="43.47229" lon="6.78024">
        <ele>122</ele>
        <time>2013-09-18T10:48:32.000Z</time>
      </trkpt>
      <trkpt lat="43.47229" lon="6.78027">
        <ele>122</ele>
        <time>2013-09-18T10:48:33.000Z</time>
      </trkpt>
      <trkpt lat="43.4723" lon="6.78029">
        <ele>122</ele>
        <time>2013-09-18T10:48:34.000Z</time>
      </trkpt>
      <trkpt lat="43.47231" lon="6.78032">
        <ele>122</ele>
        <time>2013-09-18T10:48:35.000Z</time>
      </trkpt>
      <trkpt lat="43.47232" lon="6.78034">
        <ele>121</ele>
        <time>2013-09-18T10:48:36.000Z</time>
      </trkpt>
      <trkpt lat="43.47233" lon="6.78037">
        <ele>121</ele>
        <time>2013-09-18T10:48:37.000Z</time>
      </trkpt>
      <trkpt lat="43.47234" lon="6.78039">
        <ele>121</ele>
        <time>2013-09-18T10:48:38.000Z</time>
      </trkpt>
      <trkpt lat="43.47235" lon="6.78042">
        <ele>121</ele>
        <time>2013-09-18T10:48:39.000Z</time>
      </trkpt>
      <trkpt lat="43.47236" lon="6.78044">
        <ele>121</ele>
        <time>2013-09-18T10:48:40.000Z</time>
      </trkpt>
      <trkpt lat="43.47237" lon="6.78047">
        <ele>121</ele>
        <time>2013-09-18T10:48:41.000Z</time>
      </trkpt>
      <trkpt lat="43.47238" lon="6.78049">
        <ele>121</ele>
        <time>2013-09-18T10:48:42.000Z</time>
      </trkpt>
      <trkpt lat="43.4724" lon="6.78051">
        <ele>120</ele>
        <time>2013-09-18T10:48:43.000Z</time>
      </trkpt>
      <trkpt lat="43.47241" lon="6.78053">
        <ele>120</ele>
        <time>2013-09-18T10:48:44.000Z</time>
      </trkpt>
      <trkpt lat="43.47242" lon="6.78056">
        <ele>120</ele>
        <time>2013-09-18T10:48:45.000Z</time>
      </trkpt>
      <trkpt lat="43.47243" lon="6.78058">
        <ele>120</ele>
        <time>2013-09-18T10:48:46.000Z</time>
      </trkpt>
      <trkpt lat="43.47244" lon="6.78061">
        <ele>120</ele>
        <time>2013-09-18T10:48:47.000Z</time>
      </trkpt>
      <trkpt lat="43.47245" lon="6.78063">
        <ele>120</ele>
        <time>2013-09-18T10:48:48.000Z</time>
      </trkpt>
      <trkpt lat="43.47246" lon="6.78066">
        <ele>120</ele>
        <time>2013-09-18T10:48:49.000Z</time>
      </trkpt>
      <trkpt lat="43.47247" lon="6.78068">
        <ele>120</ele>
        <time>2013-09-18T10:48:50.000Z</time>
      </trkpt>
      <trkpt lat="43.47249" lon="6.7807">
        <ele>120</ele>
        <time>2013-09-18T10:48:51.000Z</time>
      </trkpt>
      <trkpt lat="43.4725" lon="6.78072">
        <ele>124</ele>
        <time>2013-09-18T10:48:52.000Z</time>
      </trkpt>
      <trkpt lat="43.47252" lon="6.78074">
        <ele>124</ele>
        <time>2013-09-18T10:48:53.000Z</time>
      </trkpt>
      <trkpt lat="43.47254" lon="6.78076">
        <ele>124</ele>
        <time>2013-09-18T10:48:54.000Z</time>
      </trkpt>
      <trkpt lat="43.47255" lon="6.78078">
        <ele>123</ele>
        <time>2013-09-18T10:48:55.000Z</time>
      </trkpt>
      <trkpt lat="43.47257" lon="6.78079">
        <ele>124</ele>
        <time>2013-09-18T10:48:56.000Z</time>
      </trkpt>
      <trkpt lat="43.47259" lon="6.78081">
        <ele>124</ele>
        <time>2013-09-18T10:48:57.000Z</time>
      </trkpt>
      <trkpt lat="43.47261" lon="6.78082">
        <ele>125</ele>
        <time>2013-09-18T10:48:58.000Z</time>
      </trkpt>
      <trkpt lat="43.47263" lon="6.78083">
        <ele>125</ele>
        <time>2013-09-18T10:48:59.000Z</time>
      </trkpt>
      <trkpt lat="43.47265" lon="6.78083">
        <ele>126</ele>
        <time>2013-09-18T10:49:00.000Z</time>
      </trkpt>
      <trkpt lat="43.47267" lon="6.78084">
        <ele>121</ele>
        <time>2013-09-18T10:49:01.000Z</time>
      </trkpt>
      <trkpt lat="43.47269" lon="6.78084">
        <ele>121</ele>
        <time>2013-09-18T10:49:02.000Z</time>
      </trkpt>
      <trkpt lat="43.47271" lon="6.78085">
        <ele>121</ele>
        <time>2013-09-18T10:49:03.000Z</time>
      </trkpt>
      <trkpt lat="43.47272" lon="6.78085">
        <ele>121</ele>
        <time>2013-09-18T10:49:04.000Z</time>
      </trkpt>
      <trkpt lat="43.47274" lon="6.78085">
        <ele>122</ele>
        <time>2013-09-18T10:49:05.000Z</time>
      </trkpt>
      <trkpt lat="43.47276" lon="6.78086">
        <ele>122</ele>
        <time>2013-09-18T10:49:06.000Z</time>
      </trkpt>
      <trkpt lat="43.47278" lon="6.78087">
        <ele>122</ele>
        <time>2013-09-18T10:49:07.000Z</time>
      </trkpt>
      <trkpt lat="43.4728" lon="6.78087">
        <ele>122</ele>
        <time>2013-09-18T10:49:08.000Z</time>
      </trkpt>
      <trkpt lat="43.47282" lon="6.78088">
        <ele>122</ele>
        <time>2013-09-18T10:49:09.000Z</time>
      </trkpt>
      <trkpt lat="43.47284" lon="6.78089">
        <ele>122</ele>
        <time>2013-09-18T10:49:10.000Z</time>
      </trkpt>
      <trkpt lat="43.47286" lon="6.7809">
        <ele>123</ele>
        <time>2013-09-18T10:49:11.000Z</time>
      </trkpt>
      <trkpt lat="43.47287" lon="6.78091">
        <ele>123</ele>
        <time>2013-09-18T10:49:12.000Z</time>
      </trkpt>
      <trkpt lat="43.47289" lon="6.78092">
        <ele>123</ele>
        <time>2013-09-18T10:49:13.000Z</time>
      </trkpt>
      <trkpt lat="43.47291" lon="6.78093">
        <ele>123</ele>
        <time>2013-09-18T10:49:14.000Z</time>
      </trkpt>
      <trkpt lat="43.47293" lon="6.78094">
        <ele>124</ele>
        <time>2013-09-18T10:49:15.000Z</time>
      </trkpt>
      <trkpt lat="43.47295" lon="6.78095">
        <ele>124</ele>
        <time>2013-09-18T10:49:16.000Z</time>
      </trkpt>
      <trkpt lat="43.47296" lon="6.78097">
        <ele>124</ele>
        <time>2013-09-18T10:49:17.000Z</time>
      </trkpt>
      <trkpt lat="43.47298" lon="6.78098">
        <ele>124</ele>
        <time>2013-09-18T10:49:18.000Z</time>
      </trkpt>
      <trkpt lat="43.47299" lon="6.781">
        <ele>124</ele>
        <time>2013-09-18T10:49:19.000Z</time>
      </trkpt>
      <trkpt lat="43.47301" lon="6.78102">
        <ele>124</ele>
        <time>2013-09-18T10:49:20.000Z</time>
      </trkpt>
      <trkpt lat="43.47302" lon="6.78104">
        <ele>124</ele>
        <time>2013-09-18T10:49:21.000Z</time>
      </trkpt>
      <trkpt lat="43.47304" lon="6.78106">
        <ele>124</ele>
        <time>2013-09-18T10:49:22.000Z</time>
      </trkpt>
      <trkpt lat="43.47305" lon="6.78108">
        <ele>124</ele>
        <time>2013-09-18T10:49:23.000Z</time>
      </trkpt>
      <trkpt lat="43.47307" lon="6.78109">
        <ele>124</ele>
        <time>2013-09-18T10:49:24.000Z</time>
      </trkpt>
      <trkpt lat="43.47309" lon="6.78111">
        <ele>124</ele>
        <time>2013-09-18T10:49:25.000Z</time>
      </trkpt>
      <trkpt lat="43.4731" lon="6.78112">
        <ele>124</ele>
        <time>2013-09-18T10:49:26.000Z</time>
      </trkpt>
      <trkpt lat="43.47312" lon="6.78114">
        <ele>124</ele>
        <time>2013-09-18T10:49:27.000Z</time>
      </trkpt>
      <trkpt lat="43.47313" lon="6.78116">
        <ele>124</ele>
        <time>2013-09-18T10:49:28.000Z</time>
      </trkpt>
      <trkpt lat="43.47315" lon="6.78117">
        <ele>124</ele>
        <time>2013-09-18T10:49:29.000Z</time>
      </trkpt>
      <trkpt lat="43.47317" lon="6.78119">
        <ele>124</ele>
        <time>2013-09-18T10:49:30.000Z</time>
      </trkpt>
      <trkpt lat="43.47318" lon="6.7812">
        <ele>124</ele>
        <time>2013-09-18T10:49:31.000Z</time>
      </trkpt>
      <trkpt lat="43.4732" lon="6.78122">
        <ele>124</ele>
        <time>2013-09-18T10:49:32.000Z</time>
      </trkpt>
      <trkpt lat="43.47322" lon="6.78123">
        <ele>124</ele>
        <time>2013-09-18T10:49:33.000Z</time>
      </trkpt>
      <trkpt lat="43.47324" lon="6.78124">
        <ele>124</ele>
        <time>2013-09-18T10:49:34.000Z</time>
      </trkpt>
      <trkpt lat="43.47325" lon="6.78125">
        <ele>124</ele>
        <time>2013-09-18T10:49:35.000Z</time>
      </trkpt>
      <trkpt lat="43.47327" lon="6.78126">
        <ele>124</ele>
        <time>2013-09-18T10:49:36.000Z</time>
      </trkpt>
      <trkpt lat="43.47329" lon="6.78127">
        <ele>123</ele>
        <time>2013-09-18T10:49:37.000Z</time>
      </trkpt>
      <trkpt lat="43.47331" lon="6.78127">
        <ele>123</ele>
        <time>2013-09-18T10:49:38.000Z</time>
      </trkpt>
      <trkpt lat="43.47333" lon="6.78128">
        <ele>123</ele>
        <time>2013-09-18T10:49:39.000Z</time>
      </trkpt>
      <trkpt lat="43.47334" lon="6.78129">
        <ele>130</ele>
        <time>2013-09-18T10:49:40.000Z</time>
      </trkpt>
      <trkpt lat="43.47336" lon="6.78129">
        <ele>130</ele>
        <time>2013-09-18T10:49:41.000Z</time>
      </trkpt>
      <trkpt lat="43.47338" lon="6.7813">
        <ele>130</ele>
        <time>2013-09-18T10:49:42.000Z</time>
      </trkpt>
      <trkpt lat="43.4734" lon="6.7813">
        <ele>130</ele>
        <time>2013-09-18T10:49:43.000Z</time>
      </trkpt>
      <trkpt lat="43.47344" lon="6.7813">
        <ele>130</ele>
        <time>2013-09-18T10:49:45.000Z</time>
      </trkpt>
      <trkpt lat="43.47346" lon="6.7813">
        <ele>130</ele>
        <time>2013-09-18T10:49:46.000Z</time>
      </trkpt>
      <trkpt lat="43.47348" lon="6.78131">
        <ele>130</ele>
        <time>2013-09-18T10:49:47.000Z</time>
      </trkpt>
      <trkpt lat="43.4735" lon="6.78131">
        <ele>130</ele>
        <time>2013-09-18T10:49:48.000Z</time>
      </trkpt>
      <trkpt lat="43.47352" lon="6.78131">
        <ele>130</ele>
        <time>2013-09-18T10:49:49.000Z</time>
      </trkpt>
      <trkpt lat="43.47355" lon="6.78131">
        <ele>130</ele>
        <time>2013-09-18T10:49:50.000Z</time>
      </trkpt>
      <trkpt lat="43.47357" lon="6.78131">
        <ele>130</ele>
        <time>2013-09-18T10:49:51.000Z</time>
      </trkpt>
      <trkpt lat="43.47361" lon="6.78132">
        <ele>130</ele>
        <time>2013-09-18T10:49:53.000Z</time>
      </trkpt>
      <trkpt lat="43.47363" lon="6.78132">
        <ele>130</ele>
        <time>2013-09-18T10:49:54.000Z</time>
      </trkpt>
      <trkpt lat="43.47364" lon="6.78132">
        <ele>130</ele>
        <time>2013-09-18T10:49:55.000Z</time>
      </trkpt>
      <trkpt lat="43.47366" lon="6.78132">
        <ele>130</ele>
        <time>2013-09-18T10:49:56.000Z</time>
      </trkpt>
      <trkpt lat="43.47368" lon="6.78133">
        <ele>130</ele>
        <time>2013-09-18T10:49:57.000Z</time>
      </trkpt>
      <trkpt lat="43.4737" lon="6.78134">
        <ele>130</ele>
        <time>2013-09-18T10:49:58.000Z</time>
      </trkpt>
      <trkpt lat="43.47372" lon="6.78134">
        <ele>130</ele>
        <time>2013-09-18T10:49:59.000Z</time>
      </trkpt>
      <trkpt lat="43.47373" lon="6.78135">
        <ele>130</ele>
        <time>2013-09-18T10:50:00.000Z</time>
      </trkpt>
      <trkpt lat="43.47375" lon="6.78136">
        <ele>130</ele>
        <time>2013-09-18T10:50:01.000Z</time>
      </trkpt>
      <trkpt lat="43.47377" lon="6.78138">
        <ele>130</ele>
        <time>2013-09-18T10:50:02.000Z</time>
      </trkpt>
      <trkpt lat="43.47378" lon="6.78139">
        <ele>130</ele>
        <time>2013-09-18T10:50:03.000Z</time>
      </trkpt>
      <trkpt lat="43.4738" lon="6.78141">
        <ele>130</ele>
        <time>2013-09-18T10:50:04.000Z</time>
      </trkpt>
      <trkpt lat="43.47381" lon="6.78143">
        <ele>130</ele>
        <time>2013-09-18T10:50:05.000Z</time>
      </trkpt>
      <trkpt lat="43.47383" lon="6.78144">
        <ele>130</ele>
        <time>2013-09-18T10:50:06.000Z</time>
      </trkpt>
      <trkpt lat="43.47385" lon="6.78145">
        <ele>129</ele>
        <time>2013-09-18T10:50:07.000Z</time>
      </trkpt>
      <trkpt lat="43.47387" lon="6.78146">
        <ele>129</ele>
        <time>2013-09-18T10:50:08.000Z</time>
      </trkpt>
      <trkpt lat="43.47388" lon="6.78148">
        <ele>129</ele>
        <time>2013-09-18T10:50:09.000Z</time>
      </trkpt>
      <trkpt lat="43.4739" lon="6.78149">
        <ele>129</ele>
        <time>2013-09-18T10:50:10.000Z</time>
      </trkpt>
      <trkpt lat="43.47392" lon="6.78149">
        <ele>129</ele>
        <time>2013-09-18T10:50:11.000Z</time>
      </trkpt>
      <trkpt lat="43.47394" lon="6.7815">
        <ele>129</ele>
        <time>2013-09-18T10:50:12.000Z</time>
      </trkpt>
      <trkpt lat="43.47396" lon="6.78149">
        <ele>129</ele>
        <time>2013-09-18T10:50:13.000Z</time>
      </trkpt>
      <trkpt lat="43.47398" lon="6.78149">
        <ele>129</ele>
        <time>2013-09-18T10:50:14.000Z</time>
      </trkpt>
      <trkpt lat="43.474" lon="6.78148">
        <ele>129</ele>
        <time>2013-09-18T10:50:15.000Z</time>
      </trkpt>
      <trkpt lat="43.47401" lon="6.78147">
        <ele>129</ele>
        <time>2013-09-18T10:50:16.000Z</time>
      </trkpt>
      <trkpt lat="43.47403" lon="6.78146">
        <ele>129</ele>
        <time>2013-09-18T10:50:17.000Z</time>
      </trkpt>
      <trkpt lat="43.47404" lon="6.78144">
        <ele>129</ele>
        <time>2013-09-18T10:50:18.000Z</time>
      </trkpt>
      <trkpt lat="43.47406" lon="6.78143">
        <ele>129</ele>
        <time>2013-09-18T10:50:19.000Z</time>
      </trkpt>
      <trkpt lat="43.47407" lon="6.78141">
        <ele>130</ele>
        <time>2013-09-18T10:50:20.000Z</time>
      </trkpt>
      <trkpt lat="43.47409" lon="6.78139">
        <ele>130</ele>
        <time>2013-09-18T10:50:21.000Z</time>
      </trkpt>
      <trkpt lat="43.4741" lon="6.78137">
        <ele>130</ele>
        <time>2013-09-18T10:50:22.000Z</time>
      </trkpt>
      <trkpt lat="43.47412" lon="6.78136">
        <ele>130</ele>
        <time>2013-09-18T10:50:23.000Z</time>
      </trkpt>
      <trkpt lat="43.47413" lon="6.78134">
        <ele>131</ele>
        <time>2013-09-18T10:50:24.000Z</time>
      </trkpt>
      <trkpt lat="43.47415" lon="6.78132">
        <ele>131</ele>
        <time>2013-09-18T10:50:25.000Z</time>
      </trkpt>
      <trkpt lat="43.47416" lon="6.7813">
        <ele>131</ele>
        <time>2013-09-18T10:50:26.000Z</time>
      </trkpt>
      <trkpt lat="43.47417" lon="6.78128">
        <ele>134</ele>
        <time>2013-09-18T10:50:27.000Z</time>
      </trkpt>
      <trkpt lat="43.47419" lon="6.78126">
        <ele>134</ele>
        <time>2013-09-18T10:50:28.000Z</time>
      </trkpt>
      <trkpt lat="43.47421" lon="6.78124">
        <ele>135</ele>
        <time>2013-09-18T10:50:29.000Z</time>
      </trkpt>
      <trkpt lat="43.47422" lon="6.78122">
        <ele>135</ele>
        <time>2013-09-18T10:50:30.000Z</time>
      </trkpt>
      <trkpt lat="43.47424" lon="6.78121">
        <ele>135</ele>
        <time>2013-09-18T10:50:31.000Z</time>
      </trkpt>
      <trkpt lat="43.47426" lon="6.78119">
        <ele>135</ele>
        <time>2013-09-18T10:50:32.000Z</time>
      </trkpt>
      <trkpt lat="43.47427" lon="6.78117">
        <ele>136</ele>
        <time>2013-09-18T10:50:33.000Z</time>
      </trkpt>
      <trkpt lat="43.47428" lon="6.78115">
        <ele>136</ele>
        <time>2013-09-18T10:50:34.000Z</time>
      </trkpt>
      <trkpt lat="43.4743" lon="6.78113">
        <ele>136</ele>
        <time>2013-09-18T10:50:35.000Z</time>
      </trkpt>
      <trkpt lat="43.47431" lon="6.78111">
        <ele>136</ele>
        <time>2013-09-18T10:50:36.000Z</time>
      </trkpt>
      <trkpt lat="43.47433" lon="6.78109">
        <ele>137</ele>
        <time>2013-09-18T10:50:37.000Z</time>
      </trkpt>
      <trkpt lat="43.47434" lon="6.78108">
        <ele>137</ele>
        <time>2013-09-18T10:50:38.000Z</time>
      </trkpt>
      <trkpt lat="43.47436" lon="6.78106">
        <ele>137</ele>
        <time>2013-09-18T10:50:39.000Z</time>
      </trkpt>
      <trkpt lat="43.47437" lon="6.78104">
        <ele>137</ele>
        <time>2013-09-18T10:50:40.000Z</time>
      </trkpt>
      <trkpt lat="43.47439" lon="6.78102">
        <ele>137</ele>
        <time>2013-09-18T10:50:41.000Z</time>
      </trkpt>
      <trkpt lat="43.47441" lon="6.78101">
        <ele>137</ele>
        <time>2013-09-18T10:50:42.000Z</time>
      </trkpt>
      <trkpt lat="43.47442" lon="6.78099">
        <ele>137</ele>
        <time>2013-09-18T10:50:43.000Z</time>
      </trkpt>
      <trkpt lat="43.47444" lon="6.78097">
        <ele>137</ele>
        <time>2013-09-18T10:50:44.000Z</time>
      </trkpt>
      <trkpt lat="43.47446" lon="6.78096">
        <ele>137</ele>
        <time>2013-09-18T10:50:45.000Z</time>
      </trkpt>
      <trkpt lat="43.47447" lon="6.78094">
        <ele>137</ele>
        <time>2013-09-18T10:50:46.000Z</time>
      </trkpt>
      <trkpt lat="43.47449" lon="6.78093">
        <ele>137</ele>
        <time>2013-09-18T10:50:47.000Z</time>
      </trkpt>
      <trkpt lat="43.47451" lon="6.78091">
        <ele>137</ele>
        <time>2013-09-18T10:50:48.000Z</time>
      </trkpt>
      <trkpt lat="43.47453" lon="6.7809">
        <ele>137</ele>
        <time>2013-09-18T10:50:49.000Z</time>
      </trkpt>
      <trkpt lat="43.47455" lon="6.78089">
        <ele>137</ele>
        <time>2013-09-18T10:50:50.000Z</time>
      </trkpt>
      <trkpt lat="43.47456" lon="6.78088">
        <ele>137</ele>
        <time>2013-09-18T10:50:51.000Z</time>
      </trkpt>
      <trkpt lat="43.47458" lon="6.78087">
        <ele>137</ele>
        <time>2013-09-18T10:50:52.000Z</time>
      </trkpt>
      <trkpt lat="43.4746" lon="6.78086">
        <ele>137</ele>
        <time>2013-09-18T10:50:53.000Z</time>
      </trkpt>
      <trkpt lat="43.47462" lon="6.78086">
        <ele>137</ele>
        <time>2013-09-18T10:50:54.000Z</time>
      </trkpt>
      <trkpt lat="43.47464" lon="6.78085">
        <ele>137</ele>
        <time>2013-09-18T10:50:55.000Z</time>
      </trkpt>
      <trkpt lat="43.47466" lon="6.78085">
        <ele>137</ele>
        <time>2013-09-18T10:50:56.000Z</time>
      </trkpt>
      <trkpt lat="43.47468" lon="6.78084">
        <ele>137</ele>
        <time>2013-09-18T10:50:57.000Z</time>
      </trkpt>
      <trkpt lat="43.47472" lon="6.78085">
        <ele>137</ele>
        <time>2013-09-18T10:50:59.000Z</time>
      </trkpt>
      <trkpt lat="43.47476" lon="6.78084">
        <ele>138</ele>
        <time>2013-09-18T10:51:01.000Z</time>
      </trkpt>
      <trkpt lat="43.47478" lon="6.78085">
        <ele>138</ele>
        <time>2013-09-18T10:51:02.000Z</time>
      </trkpt>
      <trkpt lat="43.4748" lon="6.78085">
        <ele>138</ele>
        <time>2013-09-18T10:51:03.000Z</time>
      </trkpt>
      <trkpt lat="43.47482" lon="6.78085">
        <ele>138</ele>
        <time>2013-09-18T10:51:04.000Z</time>
      </trkpt>
      <trkpt lat="43.47483" lon="6.78086">
        <ele>138</ele>
        <time>2013-09-18T10:51:05.000Z</time>
      </trkpt>
      <trkpt lat="43.47485" lon="6.78086">
        <ele>138</ele>
        <time>2013-09-18T10:51:06.000Z</time>
      </trkpt>
      <trkpt lat="43.47487" lon="6.78087">
        <ele>138</ele>
        <time>2013-09-18T10:51:07.000Z</time>
      </trkpt>
      <trkpt lat="43.47489" lon="6.78088">
        <ele>138</ele>
        <time>2013-09-18T10:51:08.000Z</time>
      </trkpt>
      <trkpt lat="43.47491" lon="6.78089">
        <ele>139</ele>
        <time>2013-09-18T10:51:09.000Z</time>
      </trkpt>
      <trkpt lat="43.47493" lon="6.7809">
        <ele>139</ele>
        <time>2013-09-18T10:51:10.000Z</time>
      </trkpt>
      <trkpt lat="43.47495" lon="6.7809">
        <ele>139</ele>
        <time>2013-09-18T10:51:11.000Z</time>
      </trkpt>
      <trkpt lat="43.47497" lon="6.78091">
        <ele>139</ele>
        <time>2013-09-18T10:51:12.000Z</time>
      </trkpt>
      <trkpt lat="43.47499" lon="6.78091">
        <ele>139</ele>
        <time>2013-09-18T10:51:13.000Z</time>
      </trkpt>
      <trkpt lat="43.47501" lon="6.78092">
        <ele>142</ele>
        <time>2013-09-18T10:51:14.000Z</time>
      </trkpt>
      <trkpt lat="43.47503" lon="6.78093">
        <ele>142</ele>
        <time>2013-09-18T10:51:15.000Z</time>
      </trkpt>
      <trkpt lat="43.47505" lon="6.78093">
        <ele>142</ele>
        <time>2013-09-18T10:51:16.000Z</time>
      </trkpt>
      <trkpt lat="43.47508" lon="6.78094">
        <ele>143</ele>
        <time>2013-09-18T10:51:17.000Z</time>
      </trkpt>
      <trkpt lat="43.4751" lon="6.78094">
        <ele>143</ele>
        <time>2013-09-18T10:51:18.000Z</time>
      </trkpt>
      <trkpt lat="43.47512" lon="6.78095">
        <ele>143</ele>
        <time>2013-09-18T10:51:19.000Z</time>
      </trkpt>
      <trkpt lat="43.47514" lon="6.78095">
        <ele>144</ele>
        <time>2013-09-18T10:51:20.000Z</time>
      </trkpt>
      <trkpt lat="43.47521" lon="6.78095">
        <ele>145</ele>
        <time>2013-09-18T10:51:23.000Z</time>
      </trkpt>
      <trkpt lat="43.47523" lon="6.78095">
        <ele>145</ele>
        <time>2013-09-18T10:51:24.000Z</time>
      </trkpt>
      <trkpt lat="43.47526" lon="6.78094">
        <ele>145</ele>
        <time>2013-09-18T10:51:25.000Z</time>
      </trkpt>
      <trkpt lat="43.47528" lon="6.78093">
        <ele>146</ele>
        <time>2013-09-18T10:51:26.000Z</time>
      </trkpt>
      <trkpt lat="43.4753" lon="6.78092">
        <ele>146</ele>
        <time>2013-09-18T10:51:27.000Z</time>
      </trkpt>
      <trkpt lat="43.47532" lon="6.78091">
        <ele>146</ele>
        <time>2013-09-18T10:51:28.000Z</time>
      </trkpt>
      <trkpt lat="43.47534" lon="6.7809">
        <ele>147</ele>
        <time>2013-09-18T10:51:29.000Z</time>
      </trkpt>
      <trkpt lat="43.47536" lon="6.78089">
        <ele>147</ele>
        <time>2013-09-18T10:51:30.000Z</time>
      </trkpt>
      <trkpt lat="43.47537" lon="6.78088">
        <ele>147</ele>
        <time>2013-09-18T10:51:31.000Z</time>
      </trkpt>
      <trkpt lat="43.47539" lon="6.78087">
        <ele>148</ele>
        <time>2013-09-18T10:51:32.000Z</time>
      </trkpt>
      <trkpt lat="43.47541" lon="6.78086">
        <ele>148</ele>
        <time>2013-09-18T10:51:33.000Z</time>
      </trkpt>
      <trkpt lat="43.47543" lon="6.78084">
        <ele>148</ele>
        <time>2013-09-18T10:51:34.000Z</time>
      </trkpt>
      <trkpt lat="43.47545" lon="6.78083">
        <ele>147</ele>
        <time>2013-09-18T10:51:35.000Z</time>
      </trkpt>
      <trkpt lat="43.47546" lon="6.78082">
        <ele>147</ele>
        <time>2013-09-18T10:51:36.000Z</time>
      </trkpt>
      <trkpt lat="43.47548" lon="6.78081">
        <ele>147</ele>
        <time>2013-09-18T10:51:37.000Z</time>
      </trkpt>
      <trkpt lat="43.47549" lon="6.7808">
        <ele>147</ele>
        <time>2013-09-18T10:51:38.000Z</time>
      </trkpt>
      <trkpt lat="43.47551" lon="6.78079">
        <ele>147</ele>
        <time>2013-09-18T10:51:39.000Z</time>
      </trkpt>
      <trkpt lat="43.47552" lon="6.78077">
        <ele>148</ele>
        <time>2013-09-18T10:51:40.000Z</time>
      </trkpt>
      <trkpt lat="43.47553" lon="6.78076">
        <ele>148</ele>
        <time>2013-09-18T10:51:41.000Z</time>
      </trkpt>
      <trkpt lat="43.47555" lon="6.78074">
        <ele>148</ele>
        <time>2013-09-18T10:51:42.000Z</time>
      </trkpt>
      <trkpt lat="43.47556" lon="6.78073">
        <ele>148</ele>
        <time>2013-09-18T10:51:43.000Z</time>
      </trkpt>
      <trkpt lat="43.47558" lon="6.78072">
        <ele>148</ele>
        <time>2013-09-18T10:51:44.000Z</time>
      </trkpt>
      <trkpt lat="43.47559" lon="6.7807">
        <ele>148</ele>
        <time>2013-09-18T10:51:45.000Z</time>
      </trkpt>
      <trkpt lat="43.4756" lon="6.78069">
        <ele>149</ele>
        <time>2013-09-18T10:51:46.000Z</time>
      </trkpt>
      <trkpt lat="43.47562" lon="6.78068">
        <ele>149</ele>
        <time>2013-09-18T10:51:47.000Z</time>
      </trkpt>
      <trkpt lat="43.47563" lon="6.78066">
        <ele>149</ele>
        <time>2013-09-18T10:51:48.000Z</time>
      </trkpt>
      <trkpt lat="43.47564" lon="6.78065">
        <ele>149</ele>
        <time>2013-09-18T10:51:49.000Z</time>
      </trkpt>
      <trkpt lat="43.47566" lon="6.78064">
        <ele>149</ele>
        <time>2013-09-18T10:51:50.000Z</time>
      </trkpt>
      <trkpt lat="43.47567" lon="6.78062">
        <ele>149</ele>
        <time>2013-09-18T10:51:51.000Z</time>
      </trkpt>
      <trkpt lat="43.47568" lon="6.78061">
        <ele>149</ele>
        <time>2013-09-18T10:51:52.000Z</time>
      </trkpt>
      <trkpt lat="43.47569" lon="6.78059">
        <ele>148</ele>
        <time>2013-09-18T10:51:53.000Z</time>
      </trkpt>
      <trkpt lat="43.4757" lon="6.78058">
        <ele>148</ele>
        <time>2013-09-18T10:51:54.000Z</time>
      </trkpt>
      <trkpt lat="43.47571" lon="6.78057">
        <ele>148</ele>
        <time>2013-09-18T10:51:55.000Z</time>
      </trkpt>
      <trkpt lat="43.47572" lon="6.78055">
        <ele>148</ele>
        <time>2013-09-18T10:51:56.000Z</time>
      </trkpt>
      <trkpt lat="43.47573" lon="6.78054">
        <ele>148</ele>
        <time>2013-09-18T10:51:57.000Z</time>
      </trkpt>
      <trkpt lat="43.47574" lon="6.78053">
        <ele>148</ele>
        <time>2013-09-18T10:51:58.000Z</time>
      </trkpt>
      <trkpt lat="43.47575" lon="6.78052">
        <ele>148</ele>
        <time>2013-09-18T10:51:59.000Z</time>
      </trkpt>
      <trkpt lat="43.47576" lon="6.78051">
        <ele>148</ele>
        <time>2013-09-18T10:52:00.000Z</time>
      </trkpt>
      <trkpt lat="43.47577" lon="6.7805">
        <ele>148</ele>
        <time>2013-09-18T10:52:01.000Z</time>
      </trkpt>
      <trkpt lat="43.47578" lon="6.78049">
        <ele>148</ele>
        <time>2013-09-18T10:52:02.000Z</time>
      </trkpt>
      <trkpt lat="43.47579" lon="6.78048">
        <ele>148</ele>
        <time>2013-09-18T10:52:03.000Z</time>
      </trkpt>
      <trkpt lat="43.47581" lon="6.78047">
        <ele>147</ele>
        <time>2013-09-18T10:52:04.000Z</time>
      </trkpt>
      <trkpt lat="43.47582" lon="6.78046">
        <ele>147</ele>
        <time>2013-09-18T10:52:05.000Z</time>
      </trkpt>
      <trkpt lat="43.47583" lon="6.78045">
        <ele>147</ele>
        <time>2013-09-18T10:52:06.000Z</time>
      </trkpt>
      <trkpt lat="43.47584" lon="6.78044">
        <ele>158</ele>
        <time>2013-09-18T10:52:07.000Z</time>
      </trkpt>
      <trkpt lat="43.47585" lon="6.78043">
        <ele>158</ele>
        <time>2013-09-18T10:52:08.000Z</time>
      </trkpt>
      <trkpt lat="43.47586" lon="6.78042">
        <ele>158</ele>
        <time>2013-09-18T10:52:09.000Z</time>
      </trkpt>
      <trkpt lat="43.47587" lon="6.7804">
        <ele>158</ele>
        <time>2013-09-18T10:52:10.000Z</time>
      </trkpt>
      <trkpt lat="43.47588" lon="6.78039">
        <ele>158</ele>
        <time>2013-09-18T10:52:11.000Z</time>
      </trkpt>
      <trkpt lat="43.47589" lon="6.78038">
        <ele>158</ele>
        <time>2013-09-18T10:52:12.000Z</time>
      </trkpt>
      <trkpt lat="43.4759" lon="6.78037">
        <ele>158</ele>
        <time>2013-09-18T10:52:13.000Z</time>
      </trkpt>
      <trkpt lat="43.47591" lon="6.78036">
        <ele>158</ele>
        <time>2013-09-18T10:52:14.000Z</time>
      </trkpt>
      <trkpt lat="43.47592" lon="6.78035">
        <ele>158</ele>
        <time>2013-09-18T10:52:15.000Z</time>
      </trkpt>
      <trkpt lat="43.47593" lon="6.78033">
        <ele>157</ele>
        <time>2013-09-18T10:52:16.000Z</time>
      </trkpt>
      <trkpt lat="43.47594" lon="6.78032">
        <ele>157</ele>
        <time>2013-09-18T10:52:17.000Z</time>
      </trkpt>
      <trkpt lat="43.47595" lon="6.78031">
        <ele>157</ele>
        <time>2013-09-18T10:52:18.000Z</time>
      </trkpt>
      <trkpt lat="43.47596" lon="6.7803">
        <ele>157</ele>
        <time>2013-09-18T10:52:19.000Z</time>
      </trkpt>
      <trkpt lat="43.47597" lon="6.78029">
        <ele>157</ele>
        <time>2013-09-18T10:52:20.000Z</time>
      </trkpt>
      <trkpt lat="43.47599" lon="6.78028">
        <ele>157</ele>
        <time>2013-09-18T10:52:21.000Z</time>
      </trkpt>
      <trkpt lat="43.476" lon="6.78027">
        <ele>157</ele>
        <time>2013-09-18T10:52:22.000Z</time>
      </trkpt>
      <trkpt lat="43.47601" lon="6.78026">
        <ele>157</ele>
        <time>2013-09-18T10:52:23.000Z</time>
      </trkpt>
      <trkpt lat="43.47602" lon="6.78025">
        <ele>157</ele>
        <time>2013-09-18T10:52:24.000Z</time>
      </trkpt>
      <trkpt lat="43.47603" lon="6.78024">
        <ele>157</ele>
        <time>2013-09-18T10:52:25.000Z</time>
      </trkpt>
      <trkpt lat="43.47605" lon="6.78023">
        <ele>157</ele>
        <time>2013-09-18T10:52:26.000Z</time>
      </trkpt>
      <trkpt lat="43.47606" lon="6.78023">
        <ele>157</ele>
        <time>2013-09-18T10:52:27.000Z</time>
      </trkpt>
      <trkpt lat="43.47607" lon="6.78022">
        <ele>158</ele>
        <time>2013-09-18T10:52:28.000Z</time>
      </trkpt>
      <trkpt lat="43.47609" lon="6.78021">
        <ele>158</ele>
        <time>2013-09-18T10:52:29.000Z</time>
      </trkpt>
      <trkpt lat="43.4761" lon="6.7802">
        <ele>158</ele>
        <time>2013-09-18T10:52:30.000Z</time>
      </trkpt>
      <trkpt lat="43.47611" lon="6.78019">
        <ele>158</ele>
        <time>2013-09-18T10:52:31.000Z</time>
      </trkpt>
      <trkpt lat="43.47612" lon="6.78018">
        <ele>158</ele>
        <time>2013-09-18T10:52:32.000Z</time>
      </trkpt>
      <trkpt lat="43.47613" lon="6.78017">
        <ele>158</ele>
        <time>2013-09-18T10:52:33.000Z</time>
      </trkpt>
      <trkpt lat="43.47614" lon="6.78015">
        <ele>158</ele>
        <time>2013-09-18T10:52:34.000Z</time>
      </trkpt>
      <trkpt lat="43.47615" lon="6.78014">
        <ele>158</ele>
        <time>2013-09-18T10:52:35.000Z</time>
      </trkpt>
      <trkpt lat="43.47616" lon="6.78013">
        <ele>158</ele>
        <time>2013-09-18T10:52:36.000Z</time>
      </trkpt>
      <trkpt lat="43.47617" lon="6.78012">
        <ele>158</ele>
        <time>2013-09-18T10:52:37.000Z</time>
      </trkpt>
      <trkpt lat="43.47619" lon="6.78011">
        <ele>159</ele>
        <time>2013-09-18T10:52:38.000Z</time>
      </trkpt>
      <trkpt lat="43.4762" lon="6.7801">
        <ele>159</ele>
        <time>2013-09-18T10:52:39.000Z</time>
      </trkpt>
      <trkpt lat="43.47621" lon="6.78009">
        <ele>159</ele>
        <time>2013-09-18T10:52:40.000Z</time>
      </trkpt>
      <trkpt lat="43.47622" lon="6.78007">
        <ele>159</ele>
        <time>2013-09-18T10:52:41.000Z</time>
      </trkpt>
      <trkpt lat="43.47623" lon="6.78006">
        <ele>159</ele>
        <time>2013-09-18T10:52:42.000Z</time>
      </trkpt>
      <trkpt lat="43.47624" lon="6.78005">
        <ele>159</ele>
        <time>2013-09-18T10:52:43.000Z</time>
      </trkpt>
      <trkpt lat="43.47625" lon="6.78004">
        <ele>159</ele>
        <time>2013-09-18T10:52:44.000Z</time>
      </trkpt>
      <trkpt lat="43.47626" lon="6.78002">
        <ele>159</ele>
        <time>2013-09-18T10:52:45.000Z</time>
      </trkpt>
      <trkpt lat="43.47627" lon="6.78001">
        <ele>160</ele>
        <time>2013-09-18T10:52:46.000Z</time>
      </trkpt>
      <trkpt lat="43.47628" lon="6.78">
        <ele>160</ele>
        <time>2013-09-18T10:52:47.000Z</time>
      </trkpt>
      <trkpt lat="43.47629" lon="6.77999">
        <ele>149</ele>
        <time>2013-09-18T10:52:48.000Z</time>
      </trkpt>
      <trkpt lat="43.47631" lon="6.77998">
        <ele>149</ele>
        <time>2013-09-18T10:52:49.000Z</time>
      </trkpt>
      <trkpt lat="43.47632" lon="6.77997">
        <ele>150</ele>
        <time>2013-09-18T10:52:50.000Z</time>
      </trkpt>
      <trkpt lat="43.47633" lon="6.77996">
        <ele>150</ele>
        <time>2013-09-18T10:52:51.000Z</time>
      </trkpt>
      <trkpt lat="43.47634" lon="6.77995">
        <ele>150</ele>
        <time>2013-09-18T10:52:52.000Z</time>
      </trkpt>
      <trkpt lat="43.47636" lon="6.77994">
        <ele>150</ele>
        <time>2013-09-18T10:52:53.000Z</time>
      </trkpt>
      <trkpt lat="43.47637" lon="6.77992">
        <ele>150</ele>
        <time>2013-09-18T10:52:54.000Z</time>
      </trkpt>
      <trkpt lat="43.47638" lon="6.77991">
        <ele>151</ele>
        <time>2013-09-18T10:52:55.000Z</time>
      </trkpt>
      <trkpt lat="43.47639" lon="6.7799">
        <ele>151</ele>
        <time>2013-09-18T10:52:56.000Z</time>
      </trkpt>
      <trkpt lat="43.4764" lon="6.77989">
        <ele>151</ele>
        <time>2013-09-18T10:52:57.000Z</time>
      </trkpt>
      <trkpt lat="43.47642" lon="6.77988">
        <ele>151</ele>
        <time>2013-09-18T10:52:58.000Z</time>
      </trkpt>
      <trkpt lat="43.47643" lon="6.77987">
        <ele>151</ele>
        <time>2013-09-18T10:52:59.000Z</time>
      </trkpt>
      <trkpt lat="43.47644" lon="6.77986">
        <ele>151</ele>
        <time>2013-09-18T10:53:00.000Z</time>
      </trkpt>
      <trkpt lat="43.47645" lon="6.77985">
        <ele>151</ele>
        <time>2013-09-18T10:53:01.000Z</time>
      </trkpt>
      <trkpt lat="43.47646" lon="6.77984">
        <ele>152</ele>
        <time>2013-09-18T10:53:02.000Z</time>
      </trkpt>
      <trkpt lat="43.47647" lon="6.77983">
        <ele>152</ele>
        <time>2013-09-18T10:53:03.000Z</time>
      </trkpt>
      <trkpt lat="43.47649" lon="6.77982">
        <ele>152</ele>
        <time>2013-09-18T10:53:04.000Z</time>
      </trkpt>
      <trkpt lat="43.4765" lon="6.77981">
        <ele>152</ele>
        <time>2013-09-18T10:53:05.000Z</time>
      </trkpt>
      <trkpt lat="43.47651" lon="6.7798">
        <ele>152</ele>
        <time>2013-09-18T10:53:06.000Z</time>
      </trkpt>
      <trkpt lat="43.47652" lon="6.77979">
        <ele>152</ele>
        <time>2013-09-18T10:53:07.000Z</time>
      </trkpt>
      <trkpt lat="43.47653" lon="6.77978">
        <ele>152</ele>
        <time>2013-09-18T10:53:08.000Z</time>
      </trkpt>
      <trkpt lat="43.47654" lon="6.77977">
        <ele>152</ele>
        <time>2013-09-18T10:53:09.000Z</time>
      </trkpt>
      <trkpt lat="43.47655" lon="6.77976">
        <ele>152</ele>
        <time>2013-09-18T10:53:10.000Z</time>
      </trkpt>
      <trkpt lat="43.47656" lon="6.77975">
        <ele>151</ele>
        <time>2013-09-18T10:53:11.000Z</time>
      </trkpt>
      <trkpt lat="43.47658" lon="6.77975">
        <ele>151</ele>
        <time>2013-09-18T10:53:12.000Z</time>
      </trkpt>
      <trkpt lat="43.47659" lon="6.77974">
        <ele>152</ele>
        <time>2013-09-18T10:53:13.000Z</time>
      </trkpt>
      <trkpt lat="43.4766" lon="6.77974">
        <ele>152</ele>
        <time>2013-09-18T10:53:14.000Z</time>
      </trkpt>
      <trkpt lat="43.47662" lon="6.77973">
        <ele>152</ele>
        <time>2013-09-18T10:53:15.000Z</time>
      </trkpt>
      <trkpt lat="43.47663" lon="6.77973">
        <ele>151</ele>
        <time>2013-09-18T10:53:16.000Z</time>
      </trkpt>
      <trkpt lat="43.47664" lon="6.77972">
        <ele>151</ele>
        <time>2013-09-18T10:53:17.000Z</time>
      </trkpt>
      <trkpt lat="43.47666" lon="6.77972">
        <ele>151</ele>
        <time>2013-09-18T10:53:18.000Z</time>
      </trkpt>
      <trkpt lat="43.47667" lon="6.77972">
        <ele>158</ele>
        <time>2013-09-18T10:53:19.000Z</time>
      </trkpt>
      <trkpt lat="43.47668" lon="6.77971">
        <ele>158</ele>
        <time>2013-09-18T10:53:20.000Z</time>
      </trkpt>
      <trkpt lat="43.4767" lon="6.77971">
        <ele>158</ele>
        <time>2013-09-18T10:53:21.000Z</time>
      </trkpt>
      <trkpt lat="43.47671" lon="6.7797">
        <ele>158</ele>
        <time>2013-09-18T10:53:22.000Z</time>
      </trkpt>
      <trkpt lat="43.47672" lon="6.7797">
        <ele>158</ele>
        <time>2013-09-18T10:53:23.000Z</time>
      </trkpt>
      <trkpt lat="43.47673" lon="6.77969">
        <ele>158</ele>
        <time>2013-09-18T10:53:24.000Z</time>
      </trkpt>
      <trkpt lat="43.47675" lon="6.77969">
        <ele>158</ele>
        <time>2013-09-18T10:53:25.000Z</time>
      </trkpt>
      <trkpt lat="43.47676" lon="6.77969">
        <ele>158</ele>
        <time>2013-09-18T10:53:26.000Z</time>
      </trkpt>
      <trkpt lat="43.47677" lon="6.77969">
        <ele>158</ele>
        <time>2013-09-18T10:53:27.000Z</time>
      </trkpt>
      <trkpt lat="43.47679" lon="6.77969">
        <ele>158</ele>
        <time>2013-09-18T10:53:28.000Z</time>
      </trkpt>
      <trkpt lat="43.4768" lon="6.77968">
        <ele>158</ele>
        <time>2013-09-18T10:53:29.000Z</time>
      </trkpt>
      <trkpt lat="43.47681" lon="6.77967">
        <ele>158</ele>
        <time>2013-09-18T10:53:30.000Z</time>
      </trkpt>
      <trkpt lat="43.47683" lon="6.77967">
        <ele>158</ele>
        <time>2013-09-18T10:53:31.000Z</time>
      </trkpt>
      <trkpt lat="43.47684" lon="6.77966">
        <ele>157</ele>
        <time>2013-09-18T10:53:32.000Z</time>
      </trkpt>
      <trkpt lat="43.47685" lon="6.77965">
        <ele>157</ele>
        <time>2013-09-18T10:53:33.000Z</time>
      </trkpt>
      <trkpt lat="43.47686" lon="6.77965">
        <ele>157</ele>
        <time>2013-09-18T10:53:34.000Z</time>
      </trkpt>
      <trkpt lat="43.47689" lon="6.77965">
        <ele>157</ele>
        <time>2013-09-18T10:53:36.000Z</time>
      </trkpt>
      <trkpt lat="43.47693" lon="6.77965">
        <ele>157</ele>
        <time>2013-09-18T10:53:39.000Z</time>
      </trkpt>
      <trkpt lat="43.47695" lon="6.77964">
        <ele>157</ele>
        <time>2013-09-18T10:53:40.000Z</time>
      </trkpt>
      <trkpt lat="43.47696" lon="6.77964">
        <ele>157</ele>
        <time>2013-09-18T10:53:41.000Z</time>
      </trkpt>
      <trkpt lat="43.47697" lon="6.77964">
        <ele>157</ele>
        <time>2013-09-18T10:53:42.000Z</time>
      </trkpt>
      <trkpt lat="43.47699" lon="6.77964">
        <ele>157</ele>
        <time>2013-09-18T10:53:43.000Z</time>
      </trkpt>
      <trkpt lat="43.477" lon="6.77964">
        <ele>157</ele>
        <time>2013-09-18T10:53:44.000Z</time>
      </trkpt>
      <trkpt lat="43.47701" lon="6.77964">
        <ele>157</ele>
        <time>2013-09-18T10:53:45.000Z</time>
      </trkpt>
      <trkpt lat="43.47703" lon="6.77964">
        <ele>157</ele>
        <time>2013-09-18T10:53:46.000Z</time>
      </trkpt>
      <trkpt lat="43.47704" lon="6.77963">
        <ele>157</ele>
        <time>2013-09-18T10:53:47.000Z</time>
      </trkpt>
      <trkpt lat="43.47707" lon="6.77963">
        <ele>158</ele>
        <time>2013-09-18T10:53:49.000Z</time>
      </trkpt>
      <trkpt lat="43.47708" lon="6.77963">
        <ele>158</ele>
        <time>2013-09-18T10:53:50.000Z</time>
      </trkpt>
      <trkpt lat="43.47709" lon="6.77963">
        <ele>158</ele>
        <time>2013-09-18T10:53:51.000Z</time>
      </trkpt>
      <trkpt lat="43.47715" lon="6.77963">
        <ele>158</ele>
        <time>2013-09-18T10:53:55.000Z</time>
      </trkpt>
      <trkpt lat="43.47717" lon="6.77963">
        <ele>158</ele>
        <time>2013-09-18T10:53:56.000Z</time>
      </trkpt>
      <trkpt lat="43.47718" lon="6.77963">
        <ele>158</ele>
        <time>2013-09-18T10:53:57.000Z</time>
      </trkpt>
      <trkpt lat="43.47719" lon="6.77964">
        <ele>158</ele>
        <time>2013-09-18T10:53:58.000Z</time>
      </trkpt>
      <trkpt lat="43.4772" lon="6.77964">
        <ele>158</ele>
        <time>2013-09-18T10:53:59.000Z</time>
      </trkpt>
      <trkpt lat="43.47722" lon="6.77965">
        <ele>158</ele>
        <time>2013-09-18T10:54:00.000Z</time>
      </trkpt>
      <trkpt lat="43.47723" lon="6.77965">
        <ele>158</ele>
        <time>2013-09-18T10:54:01.000Z</time>
      </trkpt>
      <trkpt lat="43.47724" lon="6.77966">
        <ele>158</ele>
        <time>2013-09-18T10:54:02.000Z</time>
      </trkpt>
      <trkpt lat="43.47726" lon="6.77966">
        <ele>159</ele>
        <time>2013-09-18T10:54:03.000Z</time>
      </trkpt>
      <trkpt lat="43.47727" lon="6.77967">
        <ele>159</ele>
        <time>2013-09-18T10:54:04.000Z</time>
      </trkpt>
      <trkpt lat="43.47728" lon="6.77967">
        <ele>159</ele>
        <time>2013-09-18T10:54:05.000Z</time>
      </trkpt>
      <trkpt lat="43.47728" lon="6.77967">
        <ele>159</ele>
        <time>2013-09-18T10:54:06.000Z</time>
      </trkpt>
      <trkpt lat="43.47728" lon="6.77967">
        <ele>159</ele>
        <time>2013-09-18T10:54:09.000Z</time>
      </trkpt>
      <trkpt lat="43.47728" lon="6.77968">
        <ele>159</ele>
        <time>2013-09-18T10:54:15.000Z</time>
      </trkpt>
      <trkpt lat="43.47728" lon="6.77968">
        <ele>159</ele>
        <time>2013-09-18T10:54:18.000Z</time>
      </trkpt>
      <trkpt lat="43.47728" lon="6.77968">
        <ele>159</ele>
        <time>2013-09-18T10:54:21.000Z</time>
      </trkpt>
      <trkpt lat="43.47728" lon="6.77968">
        <ele>159</ele>
        <time>2013-09-18T10:54:22.000Z</time>
      </trkpt>
      <trkpt lat="43.47728" lon="6.77968">
        <ele>159</ele>
        <time>2013-09-18T10:54:24.000Z</time>
      </trkpt>
      <trkpt lat="43.47727" lon="6.77969">
        <ele>159</ele>
        <time>2013-09-18T10:54:25.000Z</time>
      </trkpt>
      <trkpt lat="43.47727" lon="6.7797">
        <ele>159</ele>
        <time>2013-09-18T10:54:26.000Z</time>
      </trkpt>
      <trkpt lat="43.47727" lon="6.77972">
        <ele>159</ele>
        <time>2013-09-18T10:54:27.000Z</time>
      </trkpt>
      <trkpt lat="43.47728" lon="6.77973">
        <ele>160</ele>
        <time>2013-09-18T10:54:28.000Z</time>
      </trkpt>
      <trkpt lat="43.47729" lon="6.77974">
        <ele>160</ele>
        <time>2013-09-18T10:54:29.000Z</time>
      </trkpt>
      <trkpt lat="43.4773" lon="6.77975">
        <ele>160</ele>
        <time>2013-09-18T10:54:30.000Z</time>
      </trkpt>
      <trkpt lat="43.47732" lon="6.77975">
        <ele>160</ele>
        <time>2013-09-18T10:54:31.000Z</time>
      </trkpt>
      <trkpt lat="43.47733" lon="6.77976">
        <ele>161</ele>
        <time>2013-09-18T10:54:32.000Z</time>
      </trkpt>
      <trkpt lat="43.47735" lon="6.77977">
        <ele>161</ele>
        <time>2013-09-18T10:54:33.000Z</time>
      </trkpt>
      <trkpt lat="43.47736" lon="6.77978">
        <ele>161</ele>
        <time>2013-09-18T10:54:34.000Z</time>
      </trkpt>
      <trkpt lat="43.47737" lon="6.77979">
        <ele>162</ele>
        <time>2013-09-18T10:54:35.000Z</time>
      </trkpt>
      <trkpt lat="43.47738" lon="6.7798">
        <ele>162</ele>
        <time>2013-09-18T10:54:36.000Z</time>
      </trkpt>
      <trkpt lat="43.4774" lon="6.77981">
        <ele>162</ele>
        <time>2013-09-18T10:54:37.000Z</time>
      </trkpt>
      <trkpt lat="43.47741" lon="6.77982">
        <ele>163</ele>
        <time>2013-09-18T10:54:38.000Z</time>
      </trkpt>
      <trkpt lat="43.47742" lon="6.77983">
        <ele>163</ele>
        <time>2013-09-18T10:54:39.000Z</time>
      </trkpt>
      <trkpt lat="43.47743" lon="6.77984">
        <ele>163</ele>
        <time>2013-09-18T10:54:40.000Z</time>
      </trkpt>
      <trkpt lat="43.47744" lon="6.77985">
        <ele>164</ele>
        <time>2013-09-18T10:54:41.000Z</time>
      </trkpt>
      <trkpt lat="43.47745" lon="6.77987">
        <ele>164</ele>
        <time>2013-09-18T10:54:42.000Z</time>
      </trkpt>
      <trkpt lat="43.47746" lon="6.77988">
        <ele>165</ele>
        <time>2013-09-18T10:54:43.000Z</time>
      </trkpt>
      <trkpt lat="43.47747" lon="6.77989">
        <ele>165</ele>
        <time>2013-09-18T10:54:44.000Z</time>
      </trkpt>
      <trkpt lat="43.47748" lon="6.77991">
        <ele>166</ele>
        <time>2013-09-18T10:54:45.000Z</time>
      </trkpt>
      <trkpt lat="43.47749" lon="6.77992">
        <ele>166</ele>
        <time>2013-09-18T10:54:46.000Z</time>
      </trkpt>
      <trkpt lat="43.4775" lon="6.77994">
        <ele>167</ele>
        <time>2013-09-18T10:54:47.000Z</time>
      </trkpt>
      <trkpt lat="43.47751" lon="6.77995">
        <ele>167</ele>
        <time>2013-09-18T10:54:48.000Z</time>
      </trkpt>
      <trkpt lat="43.47752" lon="6.77996">
        <ele>167</ele>
        <time>2013-09-18T10:54:49.000Z</time>
      </trkpt>
      <trkpt lat="43.47753" lon="6.77997">
        <ele>167</ele>
        <time>2013-09-18T10:54:50.000Z</time>
      </trkpt>
      <trkpt lat="43.47754" lon="6.77999">
        <ele>167</ele>
        <time>2013-09-18T10:54:51.000Z</time>
      </trkpt>
      <trkpt lat="43.47755" lon="6.78">
        <ele>167</ele>
        <time>2013-09-18T10:54:52.000Z</time>
      </trkpt>
      <trkpt lat="43.47757" lon="6.78001">
        <ele>171</ele>
        <time>2013-09-18T10:54:53.000Z</time>
      </trkpt>
      <trkpt lat="43.47757" lon="6.78003">
        <ele>172</ele>
        <time>2013-09-18T10:54:54.000Z</time>
      </trkpt>
      <trkpt lat="43.47758" lon="6.78004">
        <ele>172</ele>
        <time>2013-09-18T10:54:55.000Z</time>
      </trkpt>
      <trkpt lat="43.47759" lon="6.78006">
        <ele>172</ele>
        <time>2013-09-18T10:54:56.000Z</time>
      </trkpt>
      <trkpt lat="43.4776" lon="6.78007">
        <ele>172</ele>
        <time>2013-09-18T10:54:57.000Z</time>
      </trkpt>
      <trkpt lat="43.47761" lon="6.78008">
        <ele>172</ele>
        <time>2013-09-18T10:54:58.000Z</time>
      </trkpt>
      <trkpt lat="43.47762" lon="6.78009">
        <ele>173</ele>
        <time>2013-09-18T10:54:59.000Z</time>
      </trkpt>
      <trkpt lat="43.47763" lon="6.7801">
        <ele>173</ele>
        <time>2013-09-18T10:55:00.000Z</time>
      </trkpt>
      <trkpt lat="43.47764" lon="6.78011">
        <ele>173</ele>
        <time>2013-09-18T10:55:01.000Z</time>
      </trkpt>
      <trkpt lat="43.47766" lon="6.78012">
        <ele>173</ele>
        <time>2013-09-18T10:55:02.000Z</time>
      </trkpt>
      <trkpt lat="43.47767" lon="6.78013">
        <ele>173</ele>
        <time>2013-09-18T10:55:03.000Z</time>
      </trkpt>
      <trkpt lat="43.47768" lon="6.78014">
        <ele>173</ele>
        <time>2013-09-18T10:55:04.000Z</time>
      </trkpt>
      <trkpt lat="43.47769" lon="6.78015">
        <ele>174</ele>
        <time>2013-09-18T10:55:05.000Z</time>
      </trkpt>
      <trkpt lat="43.4777" lon="6.78017">
        <ele>174</ele>
        <time>2013-09-18T10:55:06.000Z</time>
      </trkpt>
      <trkpt lat="43.47771" lon="6.78018">
        <ele>174</ele>
        <time>2013-09-18T10:55:07.000Z</time>
      </trkpt>
      <trkpt lat="43.47772" lon="6.78019">
        <ele>174</ele>
        <time>2013-09-18T10:55:08.000Z</time>
      </trkpt>
      <trkpt lat="43.47774" lon="6.78019">
        <ele>174</ele>
        <time>2013-09-18T10:55:09.000Z</time>
      </trkpt>
      <trkpt lat="43.47775" lon="6.7802">
        <ele>174</ele>
        <time>2013-09-18T10:55:10.000Z</time>
      </trkpt>
      <trkpt lat="43.47777" lon="6.78021">
        <ele>174</ele>
        <time>2013-09-18T10:55:11.000Z</time>
      </trkpt>
      <trkpt lat="43.47778" lon="6.78021">
        <ele>174</ele>
        <time>2013-09-18T10:55:12.000Z</time>
      </trkpt>
      <trkpt lat="43.47779" lon="6.78022">
        <ele>174</ele>
        <time>2013-09-18T10:55:13.000Z</time>
      </trkpt>
      <trkpt lat="43.47781" lon="6.78023">
        <ele>174</ele>
        <time>2013-09-18T10:55:14.000Z</time>
      </trkpt>
      <trkpt lat="43.47782" lon="6.78024">
        <ele>174</ele>
        <time>2013-09-18T10:55:15.000Z</time>
      </trkpt>
      <trkpt lat="43.47783" lon="6.78025">
        <ele>174</ele>
        <time>2013-09-18T10:55:16.000Z</time>
      </trkpt>
      <trkpt lat="43.47785" lon="6.78026">
        <ele>174</ele>
        <time>2013-09-18T10:55:17.000Z</time>
      </trkpt>
      <trkpt lat="43.47786" lon="6.78027">
        <ele>174</ele>
        <time>2013-09-18T10:55:18.000Z</time>
      </trkpt>
      <trkpt lat="43.47787" lon="6.78027">
        <ele>174</ele>
        <time>2013-09-18T10:55:19.000Z</time>
      </trkpt>
      <trkpt lat="43.47789" lon="6.78027">
        <ele>174</ele>
        <time>2013-09-18T10:55:20.000Z</time>
      </trkpt>
      <trkpt lat="43.4779" lon="6.78028">
        <ele>174</ele>
        <time>2013-09-18T10:55:21.000Z</time>
      </trkpt>
      <trkpt lat="43.47791" lon="6.78029">
        <ele>174</ele>
        <time>2013-09-18T10:55:22.000Z</time>
      </trkpt>
      <trkpt lat="43.47793" lon="6.78029">
        <ele>174</ele>
        <time>2013-09-18T10:55:23.000Z</time>
      </trkpt>
      <trkpt lat="43.47794" lon="6.7803">
        <ele>174</ele>
        <time>2013-09-18T10:55:24.000Z</time>
      </trkpt>
      <trkpt lat="43.47795" lon="6.7803">
        <ele>174</ele>
        <time>2013-09-18T10:55:25.000Z</time>
      </trkpt>
      <trkpt lat="43.47797" lon="6.78031">
        <ele>174</ele>
        <time>2013-09-18T10:55:26.000Z</time>
      </trkpt>
      <trkpt lat="43.47798" lon="6.78032">
        <ele>174</ele>
        <time>2013-09-18T10:55:27.000Z</time>
      </trkpt>
      <trkpt lat="43.47799" lon="6.78033">
        <ele>174</ele>
        <time>2013-09-18T10:55:28.000Z</time>
      </trkpt>
      <trkpt lat="43.478" lon="6.78033">
        <ele>174</ele>
        <time>2013-09-18T10:55:29.000Z</time>
      </trkpt>
      <trkpt lat="43.47801" lon="6.78034">
        <ele>174</ele>
        <time>2013-09-18T10:55:30.000Z</time>
      </trkpt>
      <trkpt lat="43.47802" lon="6.78035">
        <ele>174</ele>
        <time>2013-09-18T10:55:31.000Z</time>
      </trkpt>
      <trkpt lat="43.47803" lon="6.78035">
        <ele>174</ele>
        <time>2013-09-18T10:55:32.000Z</time>
      </trkpt>
      <trkpt lat="43.47805" lon="6.78036">
        <ele>175</ele>
        <time>2013-09-18T10:55:33.000Z</time>
      </trkpt>
      <trkpt lat="43.47806" lon="6.78037">
        <ele>175</ele>
        <time>2013-09-18T10:55:34.000Z</time>
      </trkpt>
      <trkpt lat="43.47807" lon="6.78038">
        <ele>175</ele>
        <time>2013-09-18T10:55:35.000Z</time>
      </trkpt>
      <trkpt lat="43.47808" lon="6.78039">
        <ele>175</ele>
        <time>2013-09-18T10:55:36.000Z</time>
      </trkpt>
      <trkpt lat="43.47809" lon="6.78039">
        <ele>175</ele>
        <time>2013-09-18T10:55:37.000Z</time>
      </trkpt>
      <trkpt lat="43.47811" lon="6.7804">
        <ele>175</ele>
        <time>2013-09-18T10:55:38.000Z</time>
      </trkpt>
      <trkpt lat="43.47812" lon="6.78041">
        <ele>175</ele>
        <time>2013-09-18T10:55:39.000Z</time>
      </trkpt>
      <trkpt lat="43.47813" lon="6.78041">
        <ele>175</ele>
        <time>2013-09-18T10:55:40.000Z</time>
      </trkpt>
      <trkpt lat="43.47814" lon="6.78042">
        <ele>175</ele>
        <time>2013-09-18T10:55:41.000Z</time>
      </trkpt>
      <trkpt lat="43.47816" lon="6.78043">
        <ele>175</ele>
        <time>2013-09-18T10:55:42.000Z</time>
      </trkpt>
      <trkpt lat="43.47817" lon="6.78044">
        <ele>175</ele>
        <time>2013-09-18T10:55:43.000Z</time>
      </trkpt>
      <trkpt lat="43.47818" lon="6.78045">
        <ele>175</ele>
        <time>2013-09-18T10:55:44.000Z</time>
      </trkpt>
      <trkpt lat="43.47819" lon="6.78046">
        <ele>176</ele>
        <time>2013-09-18T10:55:45.000Z</time>
      </trkpt>
      <trkpt lat="43.4782" lon="6.78047">
        <ele>176</ele>
        <time>2013-09-18T10:55:46.000Z</time>
      </trkpt>
      <trkpt lat="43.47821" lon="6.78048">
        <ele>176</ele>
        <time>2013-09-18T10:55:47.000Z</time>
      </trkpt>
      <trkpt lat="43.47822" lon="6.78049">
        <ele>176</ele>
        <time>2013-09-18T10:55:48.000Z</time>
      </trkpt>
      <trkpt lat="43.47823" lon="6.7805">
        <ele>176</ele>
        <time>2013-09-18T10:55:49.000Z</time>
      </trkpt>
      <trkpt lat="43.47825" lon="6.78051">
        <ele>177</ele>
        <time>2013-09-18T10:55:50.000Z</time>
      </trkpt>
      <trkpt lat="43.47826" lon="6.78053">
        <ele>177</ele>
        <time>2013-09-18T10:55:51.000Z</time>
      </trkpt>
      <trkpt lat="43.47827" lon="6.78054">
        <ele>177</ele>
        <time>2013-09-18T10:55:52.000Z</time>
      </trkpt>
      <trkpt lat="43.47828" lon="6.78055">
        <ele>177</ele>
        <time>2013-09-18T10:55:53.000Z</time>
      </trkpt>
      <trkpt lat="43.47829" lon="6.78056">
        <ele>177</ele>
        <time>2013-09-18T10:55:54.000Z</time>
      </trkpt>
      <trkpt lat="43.4783" lon="6.78057">
        <ele>178</ele>
        <time>2013-09-18T10:55:55.000Z</time>
      </trkpt>
      <trkpt lat="43.47831" lon="6.78058">
        <ele>178</ele>
        <time>2013-09-18T10:55:56.000Z</time>
      </trkpt>
      <trkpt lat="43.47832" lon="6.7806">
        <ele>178</ele>
        <time>2013-09-18T10:55:57.000Z</time>
      </trkpt>
      <trkpt lat="43.47833" lon="6.78061">
        <ele>178</ele>
        <time>2013-09-18T10:55:58.000Z</time>
      </trkpt>
      <trkpt lat="43.47835" lon="6.78062">
        <ele>170</ele>
        <time>2013-09-18T10:55:59.000Z</time>
      </trkpt>
      <trkpt lat="43.47836" lon="6.78063">
        <ele>170</ele>
        <time>2013-09-18T10:56:00.000Z</time>
      </trkpt>
      <trkpt lat="43.47837" lon="6.78064">
        <ele>171</ele>
        <time>2013-09-18T10:56:01.000Z</time>
      </trkpt>
      <trkpt lat="43.47838" lon="6.78065">
        <ele>171</ele>
        <time>2013-09-18T10:56:02.000Z</time>
      </trkpt>
      <trkpt lat="43.47839" lon="6.78066">
        <ele>171</ele>
        <time>2013-09-18T10:56:03.000Z</time>
      </trkpt>
      <trkpt lat="43.47839" lon="6.78068">
        <ele>172</ele>
        <time>2013-09-18T10:56:04.000Z</time>
      </trkpt>
      <trkpt lat="43.4784" lon="6.78069">
        <ele>172</ele>
        <time>2013-09-18T10:56:05.000Z</time>
      </trkpt>
      <trkpt lat="43.47841" lon="6.78071">
        <ele>173</ele>
        <time>2013-09-18T10:56:06.000Z</time>
      </trkpt>
      <trkpt lat="43.47842" lon="6.78072">
        <ele>173</ele>
        <time>2013-09-18T10:56:07.000Z</time>
      </trkpt>
      <trkpt lat="43.47843" lon="6.78073">
        <ele>173</ele>
        <time>2013-09-18T10:56:08.000Z</time>
      </trkpt>
      <trkpt lat="43.47844" lon="6.78074">
        <ele>173</ele>
        <time>2013-09-18T10:56:09.000Z</time>
      </trkpt>
      <trkpt lat="43.47845" lon="6.78075">
        <ele>173</ele>
        <time>2013-09-18T10:56:10.000Z</time>
      </trkpt>
      <trkpt lat="43.47846" lon="6.78077">
        <ele>173</ele>
        <time>2013-09-18T10:56:11.000Z</time>
      </trkpt>
      <trkpt lat="43.47847" lon="6.78078">
        <ele>173</ele>
        <time>2013-09-18T10:56:12.000Z</time>
      </trkpt>
      <trkpt lat="43.47848" lon="6.78079">
        <ele>173</ele>
        <time>2013-09-18T10:56:13.000Z</time>
      </trkpt>
      <trkpt lat="43.47849" lon="6.7808">
        <ele>172</ele>
        <time>2013-09-18T10:56:14.000Z</time>
      </trkpt>
      <trkpt lat="43.4785" lon="6.78082">
        <ele>172</ele>
        <time>2013-09-18T10:56:15.000Z</time>
      </trkpt>
      <trkpt lat="43.47851" lon="6.78083">
        <ele>172</ele>
        <time>2013-09-18T10:56:16.000Z</time>
      </trkpt>
      <trkpt lat="43.47852" lon="6.78085">
        <ele>182</ele>
        <time>2013-09-18T10:56:17.000Z</time>
      </trkpt>
      <trkpt lat="43.47853" lon="6.78086">
        <ele>182</ele>
        <time>2013-09-18T10:56:18.000Z</time>
      </trkpt>
      <trkpt lat="43.47853" lon="6.78088">
        <ele>182</ele>
        <time>2013-09-18T10:56:19.000Z</time>
      </trkpt>
      <trkpt lat="43.47854" lon="6.78089">
        <ele>182</ele>
        <time>2013-09-18T10:56:20.000Z</time>
      </trkpt>
      <trkpt lat="43.47854" lon="6.7809">
        <ele>182</ele>
        <time>2013-09-18T10:56:22.000Z</time>
      </trkpt>
      <trkpt lat="43.47855" lon="6.78089">
        <ele>181</ele>
        <time>2013-09-18T10:56:34.000Z</time>
      </trkpt>
      <trkpt lat="43.47855" lon="6.78089">
        <ele>181</ele>
        <time>2013-09-18T10:56:38.000Z</time>
      </trkpt>
      <trkpt lat="43.47855" lon="6.78089">
        <ele>181</ele>
        <time>2013-09-18T10:56:45.000Z</time>
      </trkpt>
      <trkpt lat="43.47855" lon="6.78089">
        <ele>181</ele>
        <time>2013-09-18T10:56:47.000Z</time>
      </trkpt>
      <trkpt lat="43.47855" lon="6.78089">
        <ele>181</ele>
        <time>2013-09-18T10:56:59.000Z</time>
      </trkpt>
      <trkpt lat="43.47855" lon="6.78088">
        <ele>181</ele>
        <time>2013-09-18T10:57:02.000Z</time>
      </trkpt>
      <trkpt lat="43.47855" lon="6.78089">
        <ele>181</ele>
        <time>2013-09-18T10:57:07.000Z</time>
      </trkpt>
      <trkpt lat="43.47855" lon="6.78089">
        <ele>181</ele>
        <time>2013-09-18T10:57:14.000Z</time>
      </trkpt>
      <trkpt lat="43.47855" lon="6.78089">
        <ele>181</ele>
        <time>2013-09-18T10:57:20.000Z</time>
      </trkpt>
      <trkpt lat="43.47855" lon="6.78089">
        <ele>181</ele>
        <time>2013-09-18T10:57:23.000Z</time>
      </trkpt>
      <trkpt lat="43.47855" lon="6.7809">
        <ele>181</ele>
        <time>2013-09-18T10:57:30.000Z</time>
      </trkpt>
      <trkpt lat="43.47855" lon="6.78089">
        <ele>181</ele>
        <time>2013-09-18T10:57:32.000Z</time>
      </trkpt>
      <trkpt lat="43.47856" lon="6.7809">
        <ele>181</ele>
        <time>2013-09-18T10:57:33.000Z</time>
      </trkpt>
      <trkpt lat="43.47856" lon="6.78089">
        <ele>181</ele>
        <time>2013-09-18T10:57:35.000Z</time>
      </trkpt>
      <trkpt lat="43.47856" lon="6.78089">
        <ele>181</ele>
        <time>2013-09-18T10:57:37.000Z</time>
      </trkpt>
      <trkpt lat="43.47856" lon="6.78089">
        <ele>181</ele>
        <time>2013-09-18T10:57:39.000Z</time>
      </trkpt>
      <trkpt lat="43.47857" lon="6.78089">
        <ele>181</ele>
        <time>2013-09-18T10:57:40.000Z</time>
      </trkpt>
      <trkpt lat="43.47857" lon="6.78089">
        <ele>181</ele>
        <time>2013-09-18T10:57:42.000Z</time>
      </trkpt>
      <trkpt lat="43.47858" lon="6.78088">
        <ele>181</ele>
        <time>2013-09-18T10:57:43.000Z</time>
      </trkpt>
      <trkpt lat="43.47858" lon="6.78088">
        <ele>181</ele>
        <time>2013-09-18T10:57:44.000Z</time>
      </trkpt>
      <trkpt lat="43.47858" lon="6.78088">
        <ele>181</ele>
        <time>2013-09-18T10:57:45.000Z</time>
      </trkpt>
      <trkpt lat="43.47858" lon="6.78088">
        <ele>181</ele>
        <time>2013-09-18T10:57:46.000Z</time>
      </trkpt>
      <trkpt lat="43.47859" lon="6.78088">
        <ele>181</ele>
        <time>2013-09-18T10:57:47.000Z</time>
      </trkpt>
      <trkpt lat="43.47859" lon="6.78087">
        <ele>181</ele>
        <time>2013-09-18T10:57:48.000Z</time>
      </trkpt>
      <trkpt lat="43.47859" lon="6.78087">
        <ele>181</ele>
        <time>2013-09-18T10:57:53.000Z</time>
      </trkpt>
      <trkpt lat="43.47859" lon="6.78088">
        <ele>181</ele>
        <time>2013-09-18T10:57:56.000Z</time>
      </trkpt>
      <trkpt lat="43.47859" lon="6.78088">
        <ele>181</ele>
        <time>2013-09-18T10:58:02.000Z</time>
      </trkpt>
      <trkpt lat="43.47859" lon="6.78088">
        <ele>181</ele>
        <time>2013-09-18T10:58:03.000Z</time>
      </trkpt>
      <trkpt lat="43.47859" lon="6.78088">
        <ele>181</ele>
        <time>2013-09-18T10:58:10.000Z</time>
      </trkpt>
      <trkpt lat="43.47859" lon="6.78088">
        <ele>181</ele>
        <time>2013-09-18T10:58:14.000Z</time>
      </trkpt>
      <trkpt lat="43.47859" lon="6.78088">
        <ele>181</ele>
        <time>2013-09-18T10:58:17.000Z</time>
      </trkpt>
      <trkpt lat="43.47859" lon="6.78089">
        <ele>181</ele>
        <time>2013-09-18T10:58:18.000Z</time>
      </trkpt>
      <trkpt lat="43.47859" lon="6.78089">
        <ele>181</ele>
        <time>2013-09-18T10:58:19.000Z</time>
      </trkpt>
      <trkpt lat="43.4786" lon="6.7809">
        <ele>181</ele>
        <time>2013-09-18T10:58:20.000Z</time>
      </trkpt>
      <trkpt lat="43.4786" lon="6.78091">
        <ele>181</ele>
        <time>2013-09-18T10:58:21.000Z</time>
      </trkpt>
      <trkpt lat="43.47861" lon="6.78092">
        <ele>181</ele>
        <time>2013-09-18T10:58:22.000Z</time>
      </trkpt>
      <trkpt lat="43.47862" lon="6.78093">
        <ele>180</ele>
        <time>2013-09-18T10:58:23.000Z</time>
      </trkpt>
      <trkpt lat="43.47863" lon="6.78095">
        <ele>180</ele>
        <time>2013-09-18T10:58:24.000Z</time>
      </trkpt>
      <trkpt lat="43.47864" lon="6.78096">
        <ele>180</ele>
        <time>2013-09-18T10:58:25.000Z</time>
      </trkpt>
      <trkpt lat="43.47865" lon="6.78097">
        <ele>180</ele>
        <time>2013-09-18T10:58:26.000Z</time>
      </trkpt>
      <trkpt lat="43.47866" lon="6.78099">
        <ele>180</ele>
        <time>2013-09-18T10:58:27.000Z</time>
      </trkpt>
      <trkpt lat="43.47867" lon="6.781">
        <ele>180</ele>
        <time>2013-09-18T10:58:28.000Z</time>
      </trkpt>
      <trkpt lat="43.47868" lon="6.78102">
        <ele>180</ele>
        <time>2013-09-18T10:58:29.000Z</time>
      </trkpt>
      <trkpt lat="43.47869" lon="6.78104">
        <ele>180</ele>
        <time>2013-09-18T10:58:30.000Z</time>
      </trkpt>
      <trkpt lat="43.4787" lon="6.78105">
        <ele>180</ele>
        <time>2013-09-18T10:58:31.000Z</time>
      </trkpt>
      <trkpt lat="43.4787" lon="6.78107">
        <ele>180</ele>
        <time>2013-09-18T10:58:32.000Z</time>
      </trkpt>
      <trkpt lat="43.47871" lon="6.78108">
        <ele>180</ele>
        <time>2013-09-18T10:58:33.000Z</time>
      </trkpt>
      <trkpt lat="43.47872" lon="6.7811">
        <ele>180</ele>
        <time>2013-09-18T10:58:34.000Z</time>
      </trkpt>
      <trkpt lat="43.47873" lon="6.78111">
        <ele>180</ele>
        <time>2013-09-18T10:58:35.000Z</time>
      </trkpt>
      <trkpt lat="43.47874" lon="6.78113">
        <ele>180</ele>
        <time>2013-09-18T10:58:36.000Z</time>
      </trkpt>
      <trkpt lat="43.47875" lon="6.78114">
        <ele>180</ele>
        <time>2013-09-18T10:58:37.000Z</time>
      </trkpt>
      <trkpt lat="43.47876" lon="6.78115">
        <ele>180</ele>
        <time>2013-09-18T10:58:38.000Z</time>
      </trkpt>
      <trkpt lat="43.47877" lon="6.78117">
        <ele>180</ele>
        <time>2013-09-18T10:58:39.000Z</time>
      </trkpt>
      <trkpt lat="43.47878" lon="6.78118">
        <ele>180</ele>
        <time>2013-09-18T10:58:40.000Z</time>
      </trkpt>
      <trkpt lat="43.47878" lon="6.7812">
        <ele>180</ele>
        <time>2013-09-18T10:58:41.000Z</time>
      </trkpt>
      <trkpt lat="43.47879" lon="6.78121">
        <ele>180</ele>
        <time>2013-09-18T10:58:42.000Z</time>
      </trkpt>
      <trkpt lat="43.4788" lon="6.78123">
        <ele>181</ele>
        <time>2013-09-18T10:58:43.000Z</time>
      </trkpt>
      <trkpt lat="43.47881" lon="6.78125">
        <ele>181</ele>
        <time>2013-09-18T10:58:44.000Z</time>
      </trkpt>
      <trkpt lat="43.47881" lon="6.78126">
        <ele>181</ele>
        <time>2013-09-18T10:58:45.000Z</time>
      </trkpt>
      <trkpt lat="43.47882" lon="6.78128">
        <ele>181</ele>
        <time>2013-09-18T10:58:46.000Z</time>
      </trkpt>
      <trkpt lat="43.47883" lon="6.78129">
        <ele>181</ele>
        <time>2013-09-18T10:58:47.000Z</time>
      </trkpt>
      <trkpt lat="43.47884" lon="6.78131">
        <ele>181</ele>
        <time>2013-09-18T10:58:48.000Z</time>
      </trkpt>
      <trkpt lat="43.47885" lon="6.78132">
        <ele>181</ele>
        <time>2013-09-18T10:58:49.000Z</time>
      </trkpt>
      <trkpt lat="43.47886" lon="6.78134">
        <ele>181</ele>
        <time>2013-09-18T10:58:50.000Z</time>
      </trkpt>
      <trkpt lat="43.47887" lon="6.78135">
        <ele>181</ele>
        <time>2013-09-18T10:58:51.000Z</time>
      </trkpt>
      <trkpt lat="43.47888" lon="6.78137">
        <ele>181</ele>
        <time>2013-09-18T10:58:52.000Z</time>
      </trkpt>
      <trkpt lat="43.47889" lon="6.78139">
        <ele>182</ele>
        <time>2013-09-18T10:58:53.000Z</time>
      </trkpt>
      <trkpt lat="43.4789" lon="6.7814">
        <ele>182</ele>
        <time>2013-09-18T10:58:54.000Z</time>
      </trkpt>
      <trkpt lat="43.47891" lon="6.78142">
        <ele>182</ele>
        <time>2013-09-18T10:58:55.000Z</time>
      </trkpt>
      <trkpt lat="43.47892" lon="6.78143">
        <ele>182</ele>
        <time>2013-09-18T10:58:56.000Z</time>
      </trkpt>
      <trkpt lat="43.47893" lon="6.78145">
        <ele>182</ele>
        <time>2013-09-18T10:58:57.000Z</time>
      </trkpt>
      <trkpt lat="43.47894" lon="6.78147">
        <ele>182</ele>
        <time>2013-09-18T10:58:58.000Z</time>
      </trkpt>
      <trkpt lat="43.47895" lon="6.78148">
        <ele>182</ele>
        <time>2013-09-18T10:58:59.000Z</time>
      </trkpt>
      <trkpt lat="43.47897" lon="6.7815">
        <ele>182</ele>
        <time>2013-09-18T10:59:00.000Z</time>
      </trkpt>
      <trkpt lat="43.47898" lon="6.78152">
        <ele>182</ele>
        <time>2013-09-18T10:59:01.000Z</time>
      </trkpt>
      <trkpt lat="43.47899" lon="6.78153">
        <ele>182</ele>
        <time>2013-09-18T10:59:02.000Z</time>
      </trkpt>
      <trkpt lat="43.479" lon="6.78155">
        <ele>182</ele>
        <time>2013-09-18T10:59:03.000Z</time>
      </trkpt>
      <trkpt lat="43.47901" lon="6.78157">
        <ele>182</ele>
        <time>2013-09-18T10:59:04.000Z</time>
      </trkpt>
      <trkpt lat="43.47901" lon="6.78159">
        <ele>182</ele>
        <time>2013-09-18T10:59:05.000Z</time>
      </trkpt>
      <trkpt lat="43.47902" lon="6.7816">
        <ele>183</ele>
        <time>2013-09-18T10:59:06.000Z</time>
      </trkpt>
      <trkpt lat="43.47903" lon="6.78162">
        <ele>183</ele>
        <time>2013-09-18T10:59:07.000Z</time>
      </trkpt>
      <trkpt lat="43.47904" lon="6.78164">
        <ele>183</ele>
        <time>2013-09-18T10:59:08.000Z</time>
      </trkpt>
      <trkpt lat="43.47905" lon="6.78166">
        <ele>183</ele>
        <time>2013-09-18T10:59:09.000Z</time>
      </trkpt>
      <trkpt lat="43.47906" lon="6.78167">
        <ele>188</ele>
        <time>2013-09-18T10:59:10.000Z</time>
      </trkpt>
      <trkpt lat="43.47907" lon="6.78169">
        <ele>188</ele>
        <time>2013-09-18T10:59:11.000Z</time>
      </trkpt>
      <trkpt lat="43.47908" lon="6.78171">
        <ele>187</ele>
        <time>2013-09-18T10:59:12.000Z</time>
      </trkpt>
      <trkpt lat="43.47909" lon="6.78172">
        <ele>187</ele>
        <time>2013-09-18T10:59:13.000Z</time>
      </trkpt>
      <trkpt lat="43.4791" lon="6.78174">
        <ele>188</ele>
        <time>2013-09-18T10:59:14.000Z</time>
      </trkpt>
      <trkpt lat="43.47911" lon="6.78176">
        <ele>188</ele>
        <time>2013-09-18T10:59:15.000Z</time>
      </trkpt>
      <trkpt lat="43.47912" lon="6.78177">
        <ele>188</ele>
        <time>2013-09-18T10:59:16.000Z</time>
      </trkpt>
      <trkpt lat="43.47913" lon="6.78179">
        <ele>189</ele>
        <time>2013-09-18T10:59:17.000Z</time>
      </trkpt>
      <trkpt lat="43.47914" lon="6.78181">
        <ele>189</ele>
        <time>2013-09-18T10:59:18.000Z</time>
      </trkpt>
      <trkpt lat="43.47915" lon="6.78183">
        <ele>190</ele>
        <time>2013-09-18T10:59:19.000Z</time>
      </trkpt>
      <trkpt lat="43.47916" lon="6.78185">
        <ele>190</ele>
        <time>2013-09-18T10:59:20.000Z</time>
      </trkpt>
      <trkpt lat="43.47918" lon="6.78186">
        <ele>187</ele>
        <time>2013-09-18T10:59:21.000Z</time>
      </trkpt>
      <trkpt lat="43.47918" lon="6.78188">
        <ele>187</ele>
        <time>2013-09-18T10:59:22.000Z</time>
      </trkpt>
      <trkpt lat="43.47919" lon="6.7819">
        <ele>188</ele>
        <time>2013-09-18T10:59:23.000Z</time>
      </trkpt>
      <trkpt lat="43.4792" lon="6.78192">
        <ele>188</ele>
        <time>2013-09-18T10:59:24.000Z</time>
      </trkpt>
      <trkpt lat="43.47921" lon="6.78194">
        <ele>188</ele>
        <time>2013-09-18T10:59:25.000Z</time>
      </trkpt>
      <trkpt lat="43.47922" lon="6.78195">
        <ele>188</ele>
        <time>2013-09-18T10:59:26.000Z</time>
      </trkpt>
      <trkpt lat="43.47924" lon="6.78197">
        <ele>189</ele>
        <time>2013-09-18T10:59:27.000Z</time>
      </trkpt>
      <trkpt lat="43.47925" lon="6.78199">
        <ele>189</ele>
        <time>2013-09-18T10:59:28.000Z</time>
      </trkpt>
      <trkpt lat="43.47926" lon="6.782">
        <ele>189</ele>
        <time>2013-09-18T10:59:29.000Z</time>
      </trkpt>
      <trkpt lat="43.47927" lon="6.78202">
        <ele>189</ele>
        <time>2013-09-18T10:59:30.000Z</time>
      </trkpt>
      <trkpt lat="43.47928" lon="6.78203">
        <ele>190</ele>
        <time>2013-09-18T10:59:31.000Z</time>
      </trkpt>
      <trkpt lat="43.47929" lon="6.78205">
        <ele>190</ele>
        <time>2013-09-18T10:59:32.000Z</time>
      </trkpt>
      <trkpt lat="43.4793" lon="6.78206">
        <ele>190</ele>
        <time>2013-09-18T10:59:33.000Z</time>
      </trkpt>
      <trkpt lat="43.47931" lon="6.78207">
        <ele>190</ele>
        <time>2013-09-18T10:59:34.000Z</time>
      </trkpt>
      <trkpt lat="43.47932" lon="6.78208">
        <ele>190</ele>
        <time>2013-09-18T10:59:35.000Z</time>
      </trkpt>
      <trkpt lat="43.47933" lon="6.7821">
        <ele>191</ele>
        <time>2013-09-18T10:59:36.000Z</time>
      </trkpt>
      <trkpt lat="43.47934" lon="6.78211">
        <ele>191</ele>
        <time>2013-09-18T10:59:37.000Z</time>
      </trkpt>
      <trkpt lat="43.47935" lon="6.78213">
        <ele>191</ele>
        <time>2013-09-18T10:59:38.000Z</time>
      </trkpt>
      <trkpt lat="43.47937" lon="6.78214">
        <ele>191</ele>
        <time>2013-09-18T10:59:39.000Z</time>
      </trkpt>
      <trkpt lat="43.47938" lon="6.78216">
        <ele>191</ele>
        <time>2013-09-18T10:59:40.000Z</time>
      </trkpt>
      <trkpt lat="43.47939" lon="6.78217">
        <ele>192</ele>
        <time>2013-09-18T10:59:41.000Z</time>
      </trkpt>
      <trkpt lat="43.4794" lon="6.78218">
        <ele>192</ele>
        <time>2013-09-18T10:59:42.000Z</time>
      </trkpt>
      <trkpt lat="43.47941" lon="6.7822">
        <ele>192</ele>
        <time>2013-09-18T10:59:43.000Z</time>
      </trkpt>
      <trkpt lat="43.47943" lon="6.78221">
        <ele>192</ele>
        <time>2013-09-18T10:59:44.000Z</time>
      </trkpt>
      <trkpt lat="43.47944" lon="6.78222">
        <ele>192</ele>
        <time>2013-09-18T10:59:45.000Z</time>
      </trkpt>
      <trkpt lat="43.47945" lon="6.78223">
        <ele>192</ele>
        <time>2013-09-18T10:59:46.000Z</time>
      </trkpt>
      <trkpt lat="43.47946" lon="6.78224">
        <ele>192</ele>
        <time>2013-09-18T10:59:47.000Z</time>
      </trkpt>
      <trkpt lat="43.47947" lon="6.78225">
        <ele>192</ele>
        <time>2013-09-18T10:59:48.000Z</time>
      </trkpt>
      <trkpt lat="43.47948" lon="6.78226">
        <ele>192</ele>
        <time>2013-09-18T10:59:49.000Z</time>
      </trkpt>
      <trkpt lat="43.47949" lon="6.78228">
        <ele>192</ele>
        <time>2013-09-18T10:59:50.000Z</time>
      </trkpt>
      <trkpt lat="43.47951" lon="6.78229">
        <ele>192</ele>
        <time>2013-09-18T10:59:51.000Z</time>
      </trkpt>
      <trkpt lat="43.47952" lon="6.78231">
        <ele>193</ele>
        <time>2013-09-18T10:59:52.000Z</time>
      </trkpt>
      <trkpt lat="43.47953" lon="6.78232">
        <ele>193</ele>
        <time>2013-09-18T10:59:53.000Z</time>
      </trkpt>
      <trkpt lat="43.47954" lon="6.78233">
        <ele>193</ele>
        <time>2013-09-18T10:59:54.000Z</time>
      </trkpt>
      <trkpt lat="43.47955" lon="6.78234">
        <ele>193</ele>
        <time>2013-09-18T10:59:55.000Z</time>
      </trkpt>
      <trkpt lat="43.47956" lon="6.78235">
        <ele>193</ele>
        <time>2013-09-18T10:59:56.000Z</time>
      </trkpt>
      <trkpt lat="43.47957" lon="6.78236">
        <ele>193</ele>
        <time>2013-09-18T10:59:57.000Z</time>
      </trkpt>
      <trkpt lat="43.47958" lon="6.78236">
        <ele>193</ele>
        <time>2013-09-18T10:59:58.000Z</time>
      </trkpt>
      <trkpt lat="43.47959" lon="6.78237">
        <ele>193</ele>
        <time>2013-09-18T10:59:59.000Z</time>
      </trkpt>
      <trkpt lat="43.47961" lon="6.78238">
        <ele>193</ele>
        <time>2013-09-18T11:00:00.000Z</time>
      </trkpt>
      <trkpt lat="43.47962" lon="6.78239">
        <ele>193</ele>
        <time>2013-09-18T11:00:01.000Z</time>
      </trkpt>
      <trkpt lat="43.47963" lon="6.7824">
        <ele>193</ele>
        <time>2013-09-18T11:00:02.000Z</time>
      </trkpt>
      <trkpt lat="43.47964" lon="6.78241">
        <ele>193</ele>
        <time>2013-09-18T11:00:03.000Z</time>
      </trkpt>
      <trkpt lat="43.47965" lon="6.78242">
        <ele>193</ele>
        <time>2013-09-18T11:00:04.000Z</time>
      </trkpt>
      <trkpt lat="43.47966" lon="6.78243">
        <ele>193</ele>
        <time>2013-09-18T11:00:05.000Z</time>
      </trkpt>
      <trkpt lat="43.47967" lon="6.78245">
        <ele>193</ele>
        <time>2013-09-18T11:00:06.000Z</time>
      </trkpt>
      <trkpt lat="43.47968" lon="6.78246">
        <ele>193</ele>
        <time>2013-09-18T11:00:07.000Z</time>
      </trkpt>
      <trkpt lat="43.4797" lon="6.78247">
        <ele>193</ele>
        <time>2013-09-18T11:00:08.000Z</time>
      </trkpt>
      <trkpt lat="43.47971" lon="6.78248">
        <ele>193</ele>
        <time>2013-09-18T11:00:09.000Z</time>
      </trkpt>
      <trkpt lat="43.47972" lon="6.78249">
        <ele>193</ele>
        <time>2013-09-18T11:00:10.000Z</time>
      </trkpt>
      <trkpt lat="43.47973" lon="6.7825">
        <ele>193</ele>
        <time>2013-09-18T11:00:11.000Z</time>
      </trkpt>
      <trkpt lat="43.47974" lon="6.78251">
        <ele>202</ele>
        <time>2013-09-18T11:00:12.000Z</time>
      </trkpt>
      <trkpt lat="43.47975" lon="6.78252">
        <ele>202</ele>
        <time>2013-09-18T11:00:13.000Z</time>
      </trkpt>
      <trkpt lat="43.47977" lon="6.78253">
        <ele>202</ele>
        <time>2013-09-18T11:00:14.000Z</time>
      </trkpt>
      <trkpt lat="43.47978" lon="6.78254">
        <ele>202</ele>
        <time>2013-09-18T11:00:15.000Z</time>
      </trkpt>
      <trkpt lat="43.47979" lon="6.78255">
        <ele>202</ele>
        <time>2013-09-18T11:00:16.000Z</time>
      </trkpt>
      <trkpt lat="43.4798" lon="6.78256">
        <ele>202</ele>
        <time>2013-09-18T11:00:17.000Z</time>
      </trkpt>
      <trkpt lat="43.47981" lon="6.78256">
        <ele>201</ele>
        <time>2013-09-18T11:00:18.000Z</time>
      </trkpt>
      <trkpt lat="43.47982" lon="6.78257">
        <ele>201</ele>
        <time>2013-09-18T11:00:19.000Z</time>
      </trkpt>
      <trkpt lat="43.47984" lon="6.78259">
        <ele>201</ele>
        <time>2013-09-18T11:00:20.000Z</time>
      </trkpt>
      <trkpt lat="43.47985" lon="6.7826">
        <ele>201</ele>
        <time>2013-09-18T11:00:21.000Z</time>
      </trkpt>
      <trkpt lat="43.47986" lon="6.7826">
        <ele>201</ele>
        <time>2013-09-18T11:00:22.000Z</time>
      </trkpt>
      <trkpt lat="43.47987" lon="6.78261">
        <ele>201</ele>
        <time>2013-09-18T11:00:23.000Z</time>
      </trkpt>
      <trkpt lat="43.47989" lon="6.78261">
        <ele>201</ele>
        <time>2013-09-18T11:00:24.000Z</time>
      </trkpt>
      <trkpt lat="43.4799" lon="6.78262">
        <ele>201</ele>
        <time>2013-09-18T11:00:25.000Z</time>
      </trkpt>
      <trkpt lat="43.47991" lon="6.78263">
        <ele>201</ele>
        <time>2013-09-18T11:00:26.000Z</time>
      </trkpt>
      <trkpt lat="43.47992" lon="6.78263">
        <ele>201</ele>
        <time>2013-09-18T11:00:27.000Z</time>
      </trkpt>
      <trkpt lat="43.47994" lon="6.78264">
        <ele>201</ele>
        <time>2013-09-18T11:00:28.000Z</time>
      </trkpt>
      <trkpt lat="43.47995" lon="6.78265">
        <ele>201</ele>
        <time>2013-09-18T11:00:29.000Z</time>
      </trkpt>
      <trkpt lat="43.47996" lon="6.78265">
        <ele>201</ele>
        <time>2013-09-18T11:00:30.000Z</time>
      </trkpt>
      <trkpt lat="43.47998" lon="6.78265">
        <ele>201</ele>
        <time>2013-09-18T11:00:31.000Z</time>
      </trkpt>
      <trkpt lat="43.47999" lon="6.78264">
        <ele>201</ele>
        <time>2013-09-18T11:00:32.000Z</time>
      </trkpt>
      <trkpt lat="43.48001" lon="6.78264">
        <ele>202</ele>
        <time>2013-09-18T11:00:33.000Z</time>
      </trkpt>
      <trkpt lat="43.48002" lon="6.78263">
        <ele>202</ele>
        <time>2013-09-18T11:00:34.000Z</time>
      </trkpt>
      <trkpt lat="43.48004" lon="6.78262">
        <ele>201</ele>
        <time>2013-09-18T11:00:35.000Z</time>
      </trkpt>
      <trkpt lat="43.48006" lon="6.78261">
        <ele>201</ele>
        <time>2013-09-18T11:00:36.000Z</time>
      </trkpt>
      <trkpt lat="43.48007" lon="6.7826">
        <ele>201</ele>
        <time>2013-09-18T11:00:37.000Z</time>
      </trkpt>
      <trkpt lat="43.48008" lon="6.78259">
        <ele>201</ele>
        <time>2013-09-18T11:00:38.000Z</time>
      </trkpt>
      <trkpt lat="43.4801" lon="6.78258">
        <ele>201</ele>
        <time>2013-09-18T11:00:39.000Z</time>
      </trkpt>
      <trkpt lat="43.4801" lon="6.78257">
        <ele>201</ele>
        <time>2013-09-18T11:00:40.000Z</time>
      </trkpt>
      <trkpt lat="43.48011" lon="6.78255">
        <ele>201</ele>
        <time>2013-09-18T11:00:41.000Z</time>
      </trkpt>
      <trkpt lat="43.48012" lon="6.78254">
        <ele>201</ele>
        <time>2013-09-18T11:00:42.000Z</time>
      </trkpt>
      <trkpt lat="43.48012" lon="6.78252">
        <ele>201</ele>
        <time>2013-09-18T11:00:43.000Z</time>
      </trkpt>
      <trkpt lat="43.48013" lon="6.78251">
        <ele>201</ele>
        <time>2013-09-18T11:00:44.000Z</time>
      </trkpt>
      <trkpt lat="43.48014" lon="6.7825">
        <ele>192</ele>
        <time>2013-09-18T11:00:45.000Z</time>
      </trkpt>
      <trkpt lat="43.48015" lon="6.78248">
        <ele>192</ele>
        <time>2013-09-18T11:00:46.000Z</time>
      </trkpt>
      <trkpt lat="43.48016" lon="6.78247">
        <ele>192</ele>
        <time>2013-09-18T11:00:47.000Z</time>
      </trkpt>
      <trkpt lat="43.48017" lon="6.78246">
        <ele>191</ele>
        <time>2013-09-18T11:00:48.000Z</time>
      </trkpt>
      <trkpt lat="43.48018" lon="6.78245">
        <ele>191</ele>
        <time>2013-09-18T11:00:49.000Z</time>
      </trkpt>
      <trkpt lat="43.48018" lon="6.78243">
        <ele>191</ele>
        <time>2013-09-18T11:00:50.000Z</time>
      </trkpt>
      <trkpt lat="43.48019" lon="6.78242">
        <ele>190</ele>
        <time>2013-09-18T11:00:51.000Z</time>
      </trkpt>
      <trkpt lat="43.4802" lon="6.78241">
        <ele>190</ele>
        <time>2013-09-18T11:00:52.000Z</time>
      </trkpt>
      <trkpt lat="43.48021" lon="6.7824">
        <ele>190</ele>
        <time>2013-09-18T11:00:53.000Z</time>
      </trkpt>
      <trkpt lat="43.48022" lon="6.78239">
        <ele>190</ele>
        <time>2013-09-18T11:00:54.000Z</time>
      </trkpt>
      <trkpt lat="43.48023" lon="6.78238">
        <ele>189</ele>
        <time>2013-09-18T11:00:55.000Z</time>
      </trkpt>
      <trkpt lat="43.48024" lon="6.78237">
        <ele>189</ele>
        <time>2013-09-18T11:00:56.000Z</time>
      </trkpt>
      <trkpt lat="43.48025" lon="6.78237">
        <ele>189</ele>
        <time>2013-09-18T11:00:57.000Z</time>
      </trkpt>
      <trkpt lat="43.48027" lon="6.78236">
        <ele>189</ele>
        <time>2013-09-18T11:00:58.000Z</time>
      </trkpt>
      <trkpt lat="43.48028" lon="6.78236">
        <ele>189</ele>
        <time>2013-09-18T11:00:59.000Z</time>
      </trkpt>
      <trkpt lat="43.48029" lon="6.78235">
        <ele>189</ele>
        <time>2013-09-18T11:01:00.000Z</time>
      </trkpt>
      <trkpt lat="43.4803" lon="6.78235">
        <ele>188</ele>
        <time>2013-09-18T11:01:01.000Z</time>
      </trkpt>
      <trkpt lat="43.48032" lon="6.78235">
        <ele>188</ele>
        <time>2013-09-18T11:01:02.000Z</time>
      </trkpt>
      <trkpt lat="43.48033" lon="6.78235">
        <ele>188</ele>
        <time>2013-09-18T11:01:03.000Z</time>
      </trkpt>
      <trkpt lat="43.48034" lon="6.78236">
        <ele>188</ele>
        <time>2013-09-18T11:01:04.000Z</time>
      </trkpt>
      <trkpt lat="43.48035" lon="6.78236">
        <ele>188</ele>
        <time>2013-09-18T11:01:05.000Z</time>
      </trkpt>
      <trkpt lat="43.48037" lon="6.78237">
        <ele>188</ele>
        <time>2013-09-18T11:01:06.000Z</time>
      </trkpt>
      <trkpt lat="43.48038" lon="6.78238">
        <ele>188</ele>
        <time>2013-09-18T11:01:07.000Z</time>
      </trkpt>
      <trkpt lat="43.48039" lon="6.78239">
        <ele>189</ele>
        <time>2013-09-18T11:01:08.000Z</time>
      </trkpt>
      <trkpt lat="43.4804" lon="6.7824">
        <ele>189</ele>
        <time>2013-09-18T11:01:09.000Z</time>
      </trkpt>
      <trkpt lat="43.48041" lon="6.78241">
        <ele>189</ele>
        <time>2013-09-18T11:01:10.000Z</time>
      </trkpt>
      <trkpt lat="43.48042" lon="6.78242">
        <ele>189</ele>
        <time>2013-09-18T11:01:11.000Z</time>
      </trkpt>
      <trkpt lat="43.48042" lon="6.78242">
        <ele>189</ele>
        <time>2013-09-18T11:01:12.000Z</time>
      </trkpt>
      <trkpt lat="43.48042" lon="6.78242">
        <ele>189</ele>
        <time>2013-09-18T11:01:17.000Z</time>
      </trkpt>
      <trkpt lat="43.48042" lon="6.78242">
        <ele>189</ele>
        <time>2013-09-18T11:01:22.000Z</time>
      </trkpt>
      <trkpt lat="43.48043" lon="6.78242">
        <ele>189</ele>
        <time>2013-09-18T11:01:32.000Z</time>
      </trkpt>
      <trkpt lat="43.48042" lon="6.78241">
        <ele>189</ele>
        <time>2013-09-18T11:01:44.000Z</time>
      </trkpt>
      <trkpt lat="43.48042" lon="6.78241">
        <ele>189</ele>
        <time>2013-09-18T11:01:54.000Z</time>
      </trkpt>
      <trkpt lat="43.48042" lon="6.7824">
        <ele>189</ele>
        <time>2013-09-18T11:02:35.000Z</time>
      </trkpt>
      <trkpt lat="43.48043" lon="6.7824">
        <ele>189</ele>
        <time>2013-09-18T11:02:43.000Z</time>
      </trkpt>
      <trkpt lat="43.48043" lon="6.7824">
        <ele>189</ele>
        <time>2013-09-18T11:02:57.000Z</time>
      </trkpt>
      <trkpt lat="43.48043" lon="6.7824">
        <ele>189</ele>
        <time>2013-09-18T11:03:00.000Z</time>
      </trkpt>
      <trkpt lat="43.48044" lon="6.78241">
        <ele>189</ele>
        <time>2013-09-18T11:03:01.000Z</time>
      </trkpt>
      <trkpt lat="43.48044" lon="6.78242">
        <ele>189</ele>
        <time>2013-09-18T11:03:02.000Z</time>
      </trkpt>
      <trkpt lat="43.48043" lon="6.78246">
        <ele>189</ele>
        <time>2013-09-18T11:03:04.000Z</time>
      </trkpt>
      <trkpt lat="43.48044" lon="6.78247">
        <ele>189</ele>
        <time>2013-09-18T11:03:05.000Z</time>
      </trkpt>
      <trkpt lat="43.48044" lon="6.78249">
        <ele>189</ele>
        <time>2013-09-18T11:03:06.000Z</time>
      </trkpt>
      <trkpt lat="43.48045" lon="6.78251">
        <ele>204</ele>
        <time>2013-09-18T11:03:07.000Z</time>
      </trkpt>
      <trkpt lat="43.48046" lon="6.78252">
        <ele>204</ele>
        <time>2013-09-18T11:03:08.000Z</time>
      </trkpt>
      <trkpt lat="43.48047" lon="6.78254">
        <ele>204</ele>
        <time>2013-09-18T11:03:09.000Z</time>
      </trkpt>
      <trkpt lat="43.48048" lon="6.78255">
        <ele>204</ele>
        <time>2013-09-18T11:03:10.000Z</time>
      </trkpt>
      <trkpt lat="43.48049" lon="6.78257">
        <ele>204</ele>
        <time>2013-09-18T11:03:11.000Z</time>
      </trkpt>
      <trkpt lat="43.4805" lon="6.78258">
        <ele>204</ele>
        <time>2013-09-18T11:03:12.000Z</time>
      </trkpt>
      <trkpt lat="43.48051" lon="6.7826">
        <ele>204</ele>
        <time>2013-09-18T11:03:13.000Z</time>
      </trkpt>
      <trkpt lat="43.48052" lon="6.78261">
        <ele>204</ele>
        <time>2013-09-18T11:03:14.000Z</time>
      </trkpt>
      <trkpt lat="43.48053" lon="6.78263">
        <ele>204</ele>
        <time>2013-09-18T11:03:15.000Z</time>
      </trkpt>
      <trkpt lat="43.48053" lon="6.78265">
        <ele>205</ele>
        <time>2013-09-18T11:03:16.000Z</time>
      </trkpt>
      <trkpt lat="43.48054" lon="6.78267">
        <ele>205</ele>
        <time>2013-09-18T11:03:17.000Z</time>
      </trkpt>
      <trkpt lat="43.48055" lon="6.78268">
        <ele>205</ele>
        <time>2013-09-18T11:03:18.000Z</time>
      </trkpt>
      <trkpt lat="43.48056" lon="6.78269">
        <ele>205</ele>
        <time>2013-09-18T11:03:19.000Z</time>
      </trkpt>
      <trkpt lat="43.48057" lon="6.78271">
        <ele>205</ele>
        <time>2013-09-18T11:03:20.000Z</time>
      </trkpt>
      <trkpt lat="43.48058" lon="6.78272">
        <ele>205</ele>
        <time>2013-09-18T11:03:21.000Z</time>
      </trkpt>
      <trkpt lat="43.48059" lon="6.78274">
        <ele>205</ele>
        <time>2013-09-18T11:03:22.000Z</time>
      </trkpt>
      <trkpt lat="43.4806" lon="6.78276">
        <ele>206</ele>
        <time>2013-09-18T11:03:23.000Z</time>
      </trkpt>
      <trkpt lat="43.48061" lon="6.78277">
        <ele>206</ele>
        <time>2013-09-18T11:03:24.000Z</time>
      </trkpt>
      <trkpt lat="43.48062" lon="6.78279">
        <ele>206</ele>
        <time>2013-09-18T11:03:25.000Z</time>
      </trkpt>
      <trkpt lat="43.48063" lon="6.7828">
        <ele>206</ele>
        <time>2013-09-18T11:03:26.000Z</time>
      </trkpt>
      <trkpt lat="43.48064" lon="6.78281">
        <ele>206</ele>
        <time>2013-09-18T11:03:27.000Z</time>
      </trkpt>
      <trkpt lat="43.48065" lon="6.78283">
        <ele>207</ele>
        <time>2013-09-18T11:03:28.000Z</time>
      </trkpt>
      <trkpt lat="43.48066" lon="6.78284">
        <ele>207</ele>
        <time>2013-09-18T11:03:29.000Z</time>
      </trkpt>
      <trkpt lat="43.48066" lon="6.78286">
        <ele>207</ele>
        <time>2013-09-18T11:03:30.000Z</time>
      </trkpt>
      <trkpt lat="43.48067" lon="6.78288">
        <ele>208</ele>
        <time>2013-09-18T11:03:31.000Z</time>
      </trkpt>
      <trkpt lat="43.48068" lon="6.78289">
        <ele>208</ele>
        <time>2013-09-18T11:03:32.000Z</time>
      </trkpt>
      <trkpt lat="43.48069" lon="6.78291">
        <ele>208</ele>
        <time>2013-09-18T11:03:33.000Z</time>
      </trkpt>
      <trkpt lat="43.4807" lon="6.78293">
        <ele>208</ele>
        <time>2013-09-18T11:03:34.000Z</time>
      </trkpt>
      <trkpt lat="43.48071" lon="6.78294">
        <ele>209</ele>
        <time>2013-09-18T11:03:35.000Z</time>
      </trkpt>
      <trkpt lat="43.48072" lon="6.78295">
        <ele>209</ele>
        <time>2013-09-18T11:03:36.000Z</time>
      </trkpt>
      <trkpt lat="43.48073" lon="6.78297">
        <ele>209</ele>
        <time>2013-09-18T11:03:37.000Z</time>
      </trkpt>
      <trkpt lat="43.48074" lon="6.78298">
        <ele>210</ele>
        <time>2013-09-18T11:03:38.000Z</time>
      </trkpt>
      <trkpt lat="43.48075" lon="6.78299">
        <ele>210</ele>
        <time>2013-09-18T11:03:39.000Z</time>
      </trkpt>
      <trkpt lat="43.48076" lon="6.78301">
        <ele>210</ele>
        <time>2013-09-18T11:03:40.000Z</time>
      </trkpt>
      <trkpt lat="43.48077" lon="6.78302">
        <ele>211</ele>
        <time>2013-09-18T11:03:41.000Z</time>
      </trkpt>
      <trkpt lat="43.48078" lon="6.78304">
        <ele>211</ele>
        <time>2013-09-18T11:03:42.000Z</time>
      </trkpt>
      <trkpt lat="43.48079" lon="6.78304">
        <ele>211</ele>
        <time>2013-09-18T11:03:43.000Z</time>
      </trkpt>
      <trkpt lat="43.4808" lon="6.78305">
        <ele>211</ele>
        <time>2013-09-18T11:03:44.000Z</time>
      </trkpt>
      <trkpt lat="43.48082" lon="6.78306">
        <ele>212</ele>
        <time>2013-09-18T11:03:45.000Z</time>
      </trkpt>
      <trkpt lat="43.48083" lon="6.78307">
        <ele>212</ele>
        <time>2013-09-18T11:03:46.000Z</time>
      </trkpt>
      <trkpt lat="43.48084" lon="6.78307">
        <ele>213</ele>
        <time>2013-09-18T11:03:47.000Z</time>
      </trkpt>
      <trkpt lat="43.48085" lon="6.78308">
        <ele>213</ele>
        <time>2013-09-18T11:03:48.000Z</time>
      </trkpt>
      <trkpt lat="43.48087" lon="6.78308">
        <ele>213</ele>
        <time>2013-09-18T11:03:49.000Z</time>
      </trkpt>
      <trkpt lat="43.48088" lon="6.78308">
        <ele>213</ele>
        <time>2013-09-18T11:03:50.000Z</time>
      </trkpt>
      <trkpt lat="43.4809" lon="6.78309">
        <ele>213</ele>
        <time>2013-09-18T11:03:51.000Z</time>
      </trkpt>
      <trkpt lat="43.48092" lon="6.78308">
        <ele>213</ele>
        <time>2013-09-18T11:03:53.000Z</time>
      </trkpt>
      <trkpt lat="43.48094" lon="6.78307">
        <ele>213</ele>
        <time>2013-09-18T11:03:54.000Z</time>
      </trkpt>
      <trkpt lat="43.48095" lon="6.78307">
        <ele>213</ele>
        <time>2013-09-18T11:03:55.000Z</time>
      </trkpt>
      <trkpt lat="43.48097" lon="6.78306">
        <ele>212</ele>
        <time>2013-09-18T11:03:56.000Z</time>
      </trkpt>
      <trkpt lat="43.48098" lon="6.78305">
        <ele>212</ele>
        <time>2013-09-18T11:03:57.000Z</time>
      </trkpt>
      <trkpt lat="43.48099" lon="6.78304">
        <ele>212</ele>
        <time>2013-09-18T11:03:58.000Z</time>
      </trkpt>
      <trkpt lat="43.481" lon="6.78304">
        <ele>212</ele>
        <time>2013-09-18T11:03:59.000Z</time>
      </trkpt>
      <trkpt lat="43.48101" lon="6.78303">
        <ele>212</ele>
        <time>2013-09-18T11:04:00.000Z</time>
      </trkpt>
      <trkpt lat="43.48102" lon="6.78302">
        <ele>211</ele>
        <time>2013-09-18T11:04:01.000Z</time>
      </trkpt>
      <trkpt lat="43.48103" lon="6.78301">
        <ele>211</ele>
        <time>2013-09-18T11:04:02.000Z</time>
      </trkpt>
      <trkpt lat="43.48104" lon="6.783">
        <ele>211</ele>
        <time>2013-09-18T11:04:03.000Z</time>
      </trkpt>
      <trkpt lat="43.48105" lon="6.78299">
        <ele>211</ele>
        <time>2013-09-18T11:04:04.000Z</time>
      </trkpt>
      <trkpt lat="43.48106" lon="6.78298">
        <ele>211</ele>
        <time>2013-09-18T11:04:05.000Z</time>
      </trkpt>
      <trkpt lat="43.48107" lon="6.78297">
        <ele>210</ele>
        <time>2013-09-18T11:04:06.000Z</time>
      </trkpt>
      <trkpt lat="43.48108" lon="6.78296">
        <ele>210</ele>
        <time>2013-09-18T11:04:07.000Z</time>
      </trkpt>
      <trkpt lat="43.48109" lon="6.78294">
        <ele>210</ele>
        <time>2013-09-18T11:04:08.000Z</time>
      </trkpt>
      <trkpt lat="43.4811" lon="6.78293">
        <ele>210</ele>
        <time>2013-09-18T11:04:09.000Z</time>
      </trkpt>
      <trkpt lat="43.48111" lon="6.78292">
        <ele>210</ele>
        <time>2013-09-18T11:04:10.000Z</time>
      </trkpt>
      <trkpt lat="43.48112" lon="6.78291">
        <ele>209</ele>
        <time>2013-09-18T11:04:11.000Z</time>
      </trkpt>
      <trkpt lat="43.48113" lon="6.7829">
        <ele>209</ele>
        <time>2013-09-18T11:04:12.000Z</time>
      </trkpt>
      <trkpt lat="43.48114" lon="6.78288">
        <ele>209</ele>
        <time>2013-09-18T11:04:13.000Z</time>
      </trkpt>
      <trkpt lat="43.48115" lon="6.78287">
        <ele>209</ele>
        <time>2013-09-18T11:04:14.000Z</time>
      </trkpt>
      <trkpt lat="43.48116" lon="6.78286">
        <ele>209</ele>
        <time>2013-09-18T11:04:15.000Z</time>
      </trkpt>
      <trkpt lat="43.48117" lon="6.78285">
        <ele>208</ele>
        <time>2013-09-18T11:04:16.000Z</time>
      </trkpt>
      <trkpt lat="43.48118" lon="6.78284">
        <ele>208</ele>
        <time>2013-09-18T11:04:17.000Z</time>
      </trkpt>
      <trkpt lat="43.48119" lon="6.78283">
        <ele>208</ele>
        <time>2013-09-18T11:04:18.000Z</time>
      </trkpt>
      <trkpt lat="43.4812" lon="6.78283">
        <ele>208</ele>
        <time>2013-09-18T11:04:19.000Z</time>
      </trkpt>
      <trkpt lat="43.48121" lon="6.78282">
        <ele>208</ele>
        <time>2013-09-18T11:04:20.000Z</time>
      </trkpt>
      <trkpt lat="43.48122" lon="6.78281">
        <ele>208</ele>
        <time>2013-09-18T11:04:21.000Z</time>
      </trkpt>
      <trkpt lat="43.48123" lon="6.7828">
        <ele>207</ele>
        <time>2013-09-18T11:04:22.000Z</time>
      </trkpt>
      <trkpt lat="43.48125" lon="6.78279">
        <ele>207</ele>
        <time>2013-09-18T11:04:23.000Z</time>
      </trkpt>
      <trkpt lat="43.48126" lon="6.78279">
        <ele>207</ele>
        <time>2013-09-18T11:04:24.000Z</time>
      </trkpt>
      <trkpt lat="43.48127" lon="6.78278">
        <ele>207</ele>
        <time>2013-09-18T11:04:25.000Z</time>
      </trkpt>
      <trkpt lat="43.48128" lon="6.78278">
        <ele>207</ele>
        <time>2013-09-18T11:04:26.000Z</time>
      </trkpt>
      <trkpt lat="43.48129" lon="6.78278">
        <ele>207</ele>
        <time>2013-09-18T11:04:27.000Z</time>
      </trkpt>
      <trkpt lat="43.48133" lon="6.78278">
        <ele>207</ele>
        <time>2013-09-18T11:04:30.000Z</time>
      </trkpt>
      <trkpt lat="43.48134" lon="6.78279">
        <ele>207</ele>
        <time>2013-09-18T11:04:31.000Z</time>
      </trkpt>
      <trkpt lat="43.48136" lon="6.78279">
        <ele>207</ele>
        <time>2013-09-18T11:04:32.000Z</time>
      </trkpt>
      <trkpt lat="43.48137" lon="6.78279">
        <ele>207</ele>
        <time>2013-09-18T11:04:33.000Z</time>
      </trkpt>
      <trkpt lat="43.48139" lon="6.78279">
        <ele>207</ele>
        <time>2013-09-18T11:04:34.000Z</time>
      </trkpt>
      <trkpt lat="43.4814" lon="6.78279">
        <ele>207</ele>
        <time>2013-09-18T11:04:35.000Z</time>
      </trkpt>
      <trkpt lat="43.48141" lon="6.7828">
        <ele>207</ele>
        <time>2013-09-18T11:04:36.000Z</time>
      </trkpt>
      <trkpt lat="43.48142" lon="6.7828">
        <ele>207</ele>
        <time>2013-09-18T11:04:37.000Z</time>
      </trkpt>
      <trkpt lat="43.48144" lon="6.78281">
        <ele>207</ele>
        <time>2013-09-18T11:04:38.000Z</time>
      </trkpt>
      <trkpt lat="43.48145" lon="6.78282">
        <ele>207</ele>
        <time>2013-09-18T11:04:39.000Z</time>
      </trkpt>
      <trkpt lat="43.48146" lon="6.78283">
        <ele>208</ele>
        <time>2013-09-18T11:04:40.000Z</time>
      </trkpt>
      <trkpt lat="43.48147" lon="6.78284">
        <ele>208</ele>
        <time>2013-09-18T11:04:41.000Z</time>
      </trkpt>
      <trkpt lat="43.48148" lon="6.78285">
        <ele>208</ele>
        <time>2013-09-18T11:04:42.000Z</time>
      </trkpt>
      <trkpt lat="43.48149" lon="6.78286">
        <ele>208</ele>
        <time>2013-09-18T11:04:43.000Z</time>
      </trkpt>
      <trkpt lat="43.4815" lon="6.78286">
        <ele>208</ele>
        <time>2013-09-18T11:04:44.000Z</time>
      </trkpt>
      <trkpt lat="43.48151" lon="6.78288">
        <ele>209</ele>
        <time>2013-09-18T11:04:45.000Z</time>
      </trkpt>
      <trkpt lat="43.48151" lon="6.78289">
        <ele>209</ele>
        <time>2013-09-18T11:04:46.000Z</time>
      </trkpt>
      <trkpt lat="43.48152" lon="6.7829">
        <ele>209</ele>
        <time>2013-09-18T11:04:47.000Z</time>
      </trkpt>
      <trkpt lat="43.48153" lon="6.78291">
        <ele>209</ele>
        <time>2013-09-18T11:04:48.000Z</time>
      </trkpt>
      <trkpt lat="43.48154" lon="6.78292">
        <ele>210</ele>
        <time>2013-09-18T11:04:49.000Z</time>
      </trkpt>
      <trkpt lat="43.48155" lon="6.78293">
        <ele>210</ele>
        <time>2013-09-18T11:04:50.000Z</time>
      </trkpt>
      <trkpt lat="43.48156" lon="6.78294">
        <ele>210</ele>
        <time>2013-09-18T11:04:51.000Z</time>
      </trkpt>
      <trkpt lat="43.48157" lon="6.78295">
        <ele>211</ele>
        <time>2013-09-18T11:04:52.000Z</time>
      </trkpt>
      <trkpt lat="43.48158" lon="6.78296">
        <ele>211</ele>
        <time>2013-09-18T11:04:53.000Z</time>
      </trkpt>
      <trkpt lat="43.48159" lon="6.78297">
        <ele>211</ele>
        <time>2013-09-18T11:04:54.000Z</time>
      </trkpt>
      <trkpt lat="43.4816" lon="6.78298">
        <ele>212</ele>
        <time>2013-09-18T11:04:55.000Z</time>
      </trkpt>
      <trkpt lat="43.48161" lon="6.78299">
        <ele>212</ele>
        <time>2013-09-18T11:04:56.000Z</time>
      </trkpt>
      <trkpt lat="43.48162" lon="6.783">
        <ele>212</ele>
        <time>2013-09-18T11:04:57.000Z</time>
      </trkpt>
      <trkpt lat="43.48163" lon="6.78302">
        <ele>213</ele>
        <time>2013-09-18T11:04:58.000Z</time>
      </trkpt>
      <trkpt lat="43.48164" lon="6.78303">
        <ele>213</ele>
        <time>2013-09-18T11:04:59.000Z</time>
      </trkpt>
      <trkpt lat="43.48165" lon="6.78304">
        <ele>213</ele>
        <time>2013-09-18T11:05:00.000Z</time>
      </trkpt>
      <trkpt lat="43.48166" lon="6.78305">
        <ele>214</ele>
        <time>2013-09-18T11:05:01.000Z</time>
      </trkpt>
      <trkpt lat="43.48167" lon="6.78307">
        <ele>212</ele>
        <time>2013-09-18T11:05:02.000Z</time>
      </trkpt>
      <trkpt lat="43.48168" lon="6.78307">
        <ele>213</ele>
        <time>2013-09-18T11:05:03.000Z</time>
      </trkpt>
      <trkpt lat="43.48169" lon="6.78308">
        <ele>213</ele>
        <time>2013-09-18T11:05:04.000Z</time>
      </trkpt>
      <trkpt lat="43.4817" lon="6.78309">
        <ele>213</ele>
        <time>2013-09-18T11:05:05.000Z</time>
      </trkpt>
      <trkpt lat="43.48171" lon="6.7831">
        <ele>214</ele>
        <time>2013-09-18T11:05:06.000Z</time>
      </trkpt>
      <trkpt lat="43.48173" lon="6.78311">
        <ele>214</ele>
        <time>2013-09-18T11:05:07.000Z</time>
      </trkpt>
      <trkpt lat="43.48174" lon="6.78312">
        <ele>214</ele>
        <time>2013-09-18T11:05:08.000Z</time>
      </trkpt>
      <trkpt lat="43.48175" lon="6.78313">
        <ele>214</ele>
        <time>2013-09-18T11:05:09.000Z</time>
      </trkpt>
      <trkpt lat="43.48176" lon="6.78314">
        <ele>214</ele>
        <time>2013-09-18T11:05:10.000Z</time>
      </trkpt>
      <trkpt lat="43.48177" lon="6.78315">
        <ele>215</ele>
        <time>2013-09-18T11:05:11.000Z</time>
      </trkpt>
      <trkpt lat="43.48178" lon="6.78316">
        <ele>215</ele>
        <time>2013-09-18T11:05:12.000Z</time>
      </trkpt>
      <trkpt lat="43.48179" lon="6.78317">
        <ele>215</ele>
        <time>2013-09-18T11:05:13.000Z</time>
      </trkpt>
      <trkpt lat="43.4818" lon="6.78318">
        <ele>215</ele>
        <time>2013-09-18T11:05:14.000Z</time>
      </trkpt>
      <trkpt lat="43.48181" lon="6.78319">
        <ele>215</ele>
        <time>2013-09-18T11:05:15.000Z</time>
      </trkpt>
      <trkpt lat="43.48182" lon="6.7832">
        <ele>215</ele>
        <time>2013-09-18T11:05:16.000Z</time>
      </trkpt>
      <trkpt lat="43.48183" lon="6.78321">
        <ele>215</ele>
        <time>2013-09-18T11:05:17.000Z</time>
      </trkpt>
      <trkpt lat="43.48184" lon="6.78322">
        <ele>215</ele>
        <time>2013-09-18T11:05:18.000Z</time>
      </trkpt>
      <trkpt lat="43.48185" lon="6.78323">
        <ele>215</ele>
        <time>2013-09-18T11:05:19.000Z</time>
      </trkpt>
      <trkpt lat="43.48186" lon="6.78324">
        <ele>215</ele>
        <time>2013-09-18T11:05:20.000Z</time>
      </trkpt>
      <trkpt lat="43.48187" lon="6.78325">
        <ele>215</ele>
        <time>2013-09-18T11:05:21.000Z</time>
      </trkpt>
      <trkpt lat="43.48188" lon="6.78326">
        <ele>215</ele>
        <time>2013-09-18T11:05:22.000Z</time>
      </trkpt>
      <trkpt lat="43.48189" lon="6.78327">
        <ele>215</ele>
        <time>2013-09-18T11:05:23.000Z</time>
      </trkpt>
      <trkpt lat="43.48189" lon="6.78328">
        <ele>215</ele>
        <time>2013-09-18T11:05:24.000Z</time>
      </trkpt>
      <trkpt lat="43.4819" lon="6.78328">
        <ele>215</ele>
        <time>2013-09-18T11:05:25.000Z</time>
      </trkpt>
      <trkpt lat="43.48191" lon="6.78329">
        <ele>214</ele>
        <time>2013-09-18T11:05:26.000Z</time>
      </trkpt>
      <trkpt lat="43.48192" lon="6.7833">
        <ele>214</ele>
        <time>2013-09-18T11:05:27.000Z</time>
      </trkpt>
      <trkpt lat="43.48193" lon="6.78331">
        <ele>214</ele>
        <time>2013-09-18T11:05:28.000Z</time>
      </trkpt>
      <trkpt lat="43.48194" lon="6.78332">
        <ele>214</ele>
        <time>2013-09-18T11:05:29.000Z</time>
      </trkpt>
      <trkpt lat="43.48195" lon="6.78333">
        <ele>214</ele>
        <time>2013-09-18T11:05:30.000Z</time>
      </trkpt>
      <trkpt lat="43.48196" lon="6.78334">
        <ele>231</ele>
        <time>2013-09-18T11:05:31.000Z</time>
      </trkpt>
      <trkpt lat="43.48197" lon="6.78335">
        <ele>231</ele>
        <time>2013-09-18T11:05:32.000Z</time>
      </trkpt>
      <trkpt lat="43.48199" lon="6.78335">
        <ele>231</ele>
        <time>2013-09-18T11:05:33.000Z</time>
      </trkpt>
      <trkpt lat="43.48199" lon="6.78336">
        <ele>231</ele>
        <time>2013-09-18T11:05:34.000Z</time>
      </trkpt>
      <trkpt lat="43.482" lon="6.78337">
        <ele>231</ele>
        <time>2013-09-18T11:05:35.000Z</time>
      </trkpt>
      <trkpt lat="43.48201" lon="6.78338">
        <ele>231</ele>
        <time>2013-09-18T11:05:36.000Z</time>
      </trkpt>
      <trkpt lat="43.48202" lon="6.78339">
        <ele>231</ele>
        <time>2013-09-18T11:05:37.000Z</time>
      </trkpt>
      <trkpt lat="43.48203" lon="6.7834">
        <ele>231</ele>
        <time>2013-09-18T11:05:38.000Z</time>
      </trkpt>
      <trkpt lat="43.48204" lon="6.7834">
        <ele>231</ele>
        <time>2013-09-18T11:05:39.000Z</time>
      </trkpt>
      <trkpt lat="43.48205" lon="6.78341">
        <ele>231</ele>
        <time>2013-09-18T11:05:40.000Z</time>
      </trkpt>
      <trkpt lat="43.48207" lon="6.78342">
        <ele>231</ele>
        <time>2013-09-18T11:05:41.000Z</time>
      </trkpt>
      <trkpt lat="43.48208" lon="6.78343">
        <ele>231</ele>
        <time>2013-09-18T11:05:42.000Z</time>
      </trkpt>
      <trkpt lat="43.48208" lon="6.78344">
        <ele>231</ele>
        <time>2013-09-18T11:05:43.000Z</time>
      </trkpt>
      <trkpt lat="43.48209" lon="6.78345">
        <ele>231</ele>
        <time>2013-09-18T11:05:44.000Z</time>
      </trkpt>
      <trkpt lat="43.4821" lon="6.78346">
        <ele>231</ele>
        <time>2013-09-18T11:05:45.000Z</time>
      </trkpt>
      <trkpt lat="43.48211" lon="6.78347">
        <ele>231</ele>
        <time>2013-09-18T11:05:46.000Z</time>
      </trkpt>
      <trkpt lat="43.48212" lon="6.78348">
        <ele>231</ele>
        <time>2013-09-18T11:05:47.000Z</time>
      </trkpt>
      <trkpt lat="43.48213" lon="6.78349">
        <ele>231</ele>
        <time>2013-09-18T11:05:48.000Z</time>
      </trkpt>
      <trkpt lat="43.48214" lon="6.7835">
        <ele>231</ele>
        <time>2013-09-18T11:05:49.000Z</time>
      </trkpt>
      <trkpt lat="43.48215" lon="6.7835">
        <ele>231</ele>
        <time>2013-09-18T11:05:50.000Z</time>
      </trkpt>
      <trkpt lat="43.48216" lon="6.78351">
        <ele>231</ele>
        <time>2013-09-18T11:05:51.000Z</time>
      </trkpt>
      <trkpt lat="43.48217" lon="6.78352">
        <ele>231</ele>
        <time>2013-09-18T11:05:52.000Z</time>
      </trkpt>
      <trkpt lat="43.48218" lon="6.78353">
        <ele>231</ele>
        <time>2013-09-18T11:05:53.000Z</time>
      </trkpt>
      <trkpt lat="43.48219" lon="6.78353">
        <ele>231</ele>
        <time>2013-09-18T11:05:54.000Z</time>
      </trkpt>
      <trkpt lat="43.4822" lon="6.78354">
        <ele>231</ele>
        <time>2013-09-18T11:05:55.000Z</time>
      </trkpt>
      <trkpt lat="43.48221" lon="6.78355">
        <ele>231</ele>
        <time>2013-09-18T11:05:56.000Z</time>
      </trkpt>
      <trkpt lat="43.48222" lon="6.78356">
        <ele>231</ele>
        <time>2013-09-18T11:05:57.000Z</time>
      </trkpt>
      <trkpt lat="43.48223" lon="6.78357">
        <ele>231</ele>
        <time>2013-09-18T11:05:58.000Z</time>
      </trkpt>
      <trkpt lat="43.48224" lon="6.78358">
        <ele>231</ele>
        <time>2013-09-18T11:05:59.000Z</time>
      </trkpt>
      <trkpt lat="43.48225" lon="6.78359">
        <ele>231</ele>
        <time>2013-09-18T11:06:00.000Z</time>
      </trkpt>
      <trkpt lat="43.48225" lon="6.7836">
        <ele>231</ele>
        <time>2013-09-18T11:06:01.000Z</time>
      </trkpt>
      <trkpt lat="43.48226" lon="6.78361">
        <ele>231</ele>
        <time>2013-09-18T11:06:02.000Z</time>
      </trkpt>
      <trkpt lat="43.48227" lon="6.78361">
        <ele>231</ele>
        <time>2013-09-18T11:06:03.000Z</time>
      </trkpt>
      <trkpt lat="43.48228" lon="6.78362">
        <ele>231</ele>
        <time>2013-09-18T11:06:04.000Z</time>
      </trkpt>
      <trkpt lat="43.48229" lon="6.78363">
        <ele>231</ele>
        <time>2013-09-18T11:06:05.000Z</time>
      </trkpt>
      <trkpt lat="43.4823" lon="6.78364">
        <ele>231</ele>
        <time>2013-09-18T11:06:06.000Z</time>
      </trkpt>
      <trkpt lat="43.48231" lon="6.78365">
        <ele>232</ele>
        <time>2013-09-18T11:06:07.000Z</time>
      </trkpt>
      <trkpt lat="43.48232" lon="6.78366">
        <ele>232</ele>
        <time>2013-09-18T11:06:08.000Z</time>
      </trkpt>
      <trkpt lat="43.48233" lon="6.78367">
        <ele>232</ele>
        <time>2013-09-18T11:06:09.000Z</time>
      </trkpt>
      <trkpt lat="43.48234" lon="6.78368">
        <ele>232</ele>
        <time>2013-09-18T11:06:10.000Z</time>
      </trkpt>
      <trkpt lat="43.48235" lon="6.78368">
        <ele>232</ele>
        <time>2013-09-18T11:06:11.000Z</time>
      </trkpt>
      <trkpt lat="43.48236" lon="6.78369">
        <ele>232</ele>
        <time>2013-09-18T11:06:12.000Z</time>
      </trkpt>
      <trkpt lat="43.48237" lon="6.7837">
        <ele>232</ele>
        <time>2013-09-18T11:06:13.000Z</time>
      </trkpt>
      <trkpt lat="43.48238" lon="6.78371">
        <ele>233</ele>
        <time>2013-09-18T11:06:14.000Z</time>
      </trkpt>
      <trkpt lat="43.48239" lon="6.78372">
        <ele>233</ele>
        <time>2013-09-18T11:06:15.000Z</time>
      </trkpt>
      <trkpt lat="43.4824" lon="6.78373">
        <ele>233</ele>
        <time>2013-09-18T11:06:16.000Z</time>
      </trkpt>
      <trkpt lat="43.48241" lon="6.78374">
        <ele>233</ele>
        <time>2013-09-18T11:06:17.000Z</time>
      </trkpt>
      <trkpt lat="43.48242" lon="6.78375">
        <ele>233</ele>
        <time>2013-09-18T11:06:18.000Z</time>
      </trkpt>
      <trkpt lat="43.48243" lon="6.78376">
        <ele>234</ele>
        <time>2013-09-18T11:06:19.000Z</time>
      </trkpt>
      <trkpt lat="43.48244" lon="6.78377">
        <ele>234</ele>
        <time>2013-09-18T11:06:20.000Z</time>
      </trkpt>
      <trkpt lat="43.48244" lon="6.78378">
        <ele>234</ele>
        <time>2013-09-18T11:06:21.000Z</time>
      </trkpt>
      <trkpt lat="43.48246" lon="6.78378">
        <ele>234</ele>
        <time>2013-09-18T11:06:22.000Z</time>
      </trkpt>
      <trkpt lat="43.48247" lon="6.78379">
        <ele>234</ele>
        <time>2013-09-18T11:06:23.000Z</time>
      </trkpt>
      <trkpt lat="43.48248" lon="6.7838">
        <ele>235</ele>
        <time>2013-09-18T11:06:24.000Z</time>
      </trkpt>
      <trkpt lat="43.48249" lon="6.78381">
        <ele>235</ele>
        <time>2013-09-18T11:06:25.000Z</time>
      </trkpt>
      <trkpt lat="43.4825" lon="6.78382">
        <ele>235</ele>
        <time>2013-09-18T11:06:26.000Z</time>
      </trkpt>
      <trkpt lat="43.48251" lon="6.78383">
        <ele>234</ele>
        <time>2013-09-18T11:06:27.000Z</time>
      </trkpt>
      <trkpt lat="43.48252" lon="6.78384">
        <ele>234</ele>
        <time>2013-09-18T11:06:28.000Z</time>
      </trkpt>
      <trkpt lat="43.48252" lon="6.78385">
        <ele>234</ele>
        <time>2013-09-18T11:06:29.000Z</time>
      </trkpt>
      <trkpt lat="43.48253" lon="6.78386">
        <ele>235</ele>
        <time>2013-09-18T11:06:30.000Z</time>
      </trkpt>
      <trkpt lat="43.48254" lon="6.78387">
        <ele>235</ele>
        <time>2013-09-18T11:06:31.000Z</time>
      </trkpt>
      <trkpt lat="43.48255" lon="6.78388">
        <ele>235</ele>
        <time>2013-09-18T11:06:32.000Z</time>
      </trkpt>
      <trkpt lat="43.48256" lon="6.78389">
        <ele>235</ele>
        <time>2013-09-18T11:06:33.000Z</time>
      </trkpt>
      <trkpt lat="43.48257" lon="6.7839">
        <ele>236</ele>
        <time>2013-09-18T11:06:34.000Z</time>
      </trkpt>
      <trkpt lat="43.48258" lon="6.78391">
        <ele>236</ele>
        <time>2013-09-18T11:06:35.000Z</time>
      </trkpt>
      <trkpt lat="43.48258" lon="6.78392">
        <ele>236</ele>
        <time>2013-09-18T11:06:36.000Z</time>
      </trkpt>
      <trkpt lat="43.48259" lon="6.78392">
        <ele>236</ele>
        <time>2013-09-18T11:06:37.000Z</time>
      </trkpt>
      <trkpt lat="43.4826" lon="6.78393">
        <ele>236</ele>
        <time>2013-09-18T11:06:38.000Z</time>
      </trkpt>
      <trkpt lat="43.48261" lon="6.78394">
        <ele>237</ele>
        <time>2013-09-18T11:06:39.000Z</time>
      </trkpt>
      <trkpt lat="43.48262" lon="6.78395">
        <ele>237</ele>
        <time>2013-09-18T11:06:40.000Z</time>
      </trkpt>
      <trkpt lat="43.48263" lon="6.78396">
        <ele>237</ele>
        <time>2013-09-18T11:06:41.000Z</time>
      </trkpt>
      <trkpt lat="43.48264" lon="6.78397">
        <ele>237</ele>
        <time>2013-09-18T11:06:42.000Z</time>
      </trkpt>
      <trkpt lat="43.48265" lon="6.78398">
        <ele>237</ele>
        <time>2013-09-18T11:06:43.000Z</time>
      </trkpt>
      <trkpt lat="43.48266" lon="6.78399">
        <ele>237</ele>
        <time>2013-09-18T11:06:44.000Z</time>
      </trkpt>
      <trkpt lat="43.48266" lon="6.78401">
        <ele>238</ele>
        <time>2013-09-18T11:06:45.000Z</time>
      </trkpt>
      <trkpt lat="43.48267" lon="6.78402">
        <ele>238</ele>
        <time>2013-09-18T11:06:46.000Z</time>
      </trkpt>
      <trkpt lat="43.48268" lon="6.78403">
        <ele>238</ele>
        <time>2013-09-18T11:06:47.000Z</time>
      </trkpt>
      <trkpt lat="43.48269" lon="6.78404">
        <ele>238</ele>
        <time>2013-09-18T11:06:48.000Z</time>
      </trkpt>
      <trkpt lat="43.48269" lon="6.78405">
        <ele>238</ele>
        <time>2013-09-18T11:06:49.000Z</time>
      </trkpt>
      <trkpt lat="43.4827" lon="6.78406">
        <ele>238</ele>
        <time>2013-09-18T11:06:50.000Z</time>
      </trkpt>
      <trkpt lat="43.48271" lon="6.78408">
        <ele>238</ele>
        <time>2013-09-18T11:06:51.000Z</time>
      </trkpt>
      <trkpt lat="43.48271" lon="6.78409">
        <ele>238</ele>
        <time>2013-09-18T11:06:52.000Z</time>
      </trkpt>
      <trkpt lat="43.48272" lon="6.7841">
        <ele>238</ele>
        <time>2013-09-18T11:06:53.000Z</time>
      </trkpt>
      <trkpt lat="43.48273" lon="6.78411">
        <ele>238</ele>
        <time>2013-09-18T11:06:54.000Z</time>
      </trkpt>
      <trkpt lat="43.48274" lon="6.78412">
        <ele>238</ele>
        <time>2013-09-18T11:06:55.000Z</time>
      </trkpt>
      <trkpt lat="43.48275" lon="6.78413">
        <ele>238</ele>
        <time>2013-09-18T11:06:56.000Z</time>
      </trkpt>
      <trkpt lat="43.48276" lon="6.78414">
        <ele>238</ele>
        <time>2013-09-18T11:06:57.000Z</time>
      </trkpt>
      <trkpt lat="43.48277" lon="6.78415">
        <ele>238</ele>
        <time>2013-09-18T11:06:58.000Z</time>
      </trkpt>
      <trkpt lat="43.48278" lon="6.78416">
        <ele>238</ele>
        <time>2013-09-18T11:06:59.000Z</time>
      </trkpt>
      <trkpt lat="43.4828" lon="6.78417">
        <ele>238</ele>
        <time>2013-09-18T11:07:00.000Z</time>
      </trkpt>
      <trkpt lat="43.4828" lon="6.78418">
        <ele>254</ele>
        <time>2013-09-18T11:07:01.000Z</time>
      </trkpt>
      <trkpt lat="43.48282" lon="6.78419">
        <ele>254</ele>
        <time>2013-09-18T11:07:02.000Z</time>
      </trkpt>
      <trkpt lat="43.48283" lon="6.78419">
        <ele>254</ele>
        <time>2013-09-18T11:07:03.000Z</time>
      </trkpt>
      <trkpt lat="43.48284" lon="6.7842">
        <ele>254</ele>
        <time>2013-09-18T11:07:04.000Z</time>
      </trkpt>
      <trkpt lat="43.48285" lon="6.78421">
        <ele>254</ele>
        <time>2013-09-18T11:07:05.000Z</time>
      </trkpt>
      <trkpt lat="43.48286" lon="6.78422">
        <ele>254</ele>
        <time>2013-09-18T11:07:06.000Z</time>
      </trkpt>
      <trkpt lat="43.48287" lon="6.78423">
        <ele>255</ele>
        <time>2013-09-18T11:07:07.000Z</time>
      </trkpt>
      <trkpt lat="43.48288" lon="6.78423">
        <ele>255</ele>
        <time>2013-09-18T11:07:08.000Z</time>
      </trkpt>
      <trkpt lat="43.48289" lon="6.78424">
        <ele>255</ele>
        <time>2013-09-18T11:07:09.000Z</time>
      </trkpt>
      <trkpt lat="43.4829" lon="6.78425">
        <ele>255</ele>
        <time>2013-09-18T11:07:10.000Z</time>
      </trkpt>
      <trkpt lat="43.48291" lon="6.78425">
        <ele>255</ele>
        <time>2013-09-18T11:07:11.000Z</time>
      </trkpt>
      <trkpt lat="43.48292" lon="6.78426">
        <ele>255</ele>
        <time>2013-09-18T11:07:12.000Z</time>
      </trkpt>
      <trkpt lat="43.48294" lon="6.78426">
        <ele>255</ele>
        <time>2013-09-18T11:07:13.000Z</time>
      </trkpt>
      <trkpt lat="43.48295" lon="6.78427">
        <ele>255</ele>
        <time>2013-09-18T11:07:14.000Z</time>
      </trkpt>
      <trkpt lat="43.48296" lon="6.78427">
        <ele>255</ele>
        <time>2013-09-18T11:07:15.000Z</time>
      </trkpt>
      <trkpt lat="43.48297" lon="6.78427">
        <ele>255</ele>
        <time>2013-09-18T11:07:16.000Z</time>
      </trkpt>
      <trkpt lat="43.483" lon="6.78427">
        <ele>255</ele>
        <time>2013-09-18T11:07:18.000Z</time>
      </trkpt>
      <trkpt lat="43.48301" lon="6.78426">
        <ele>255</ele>
        <time>2013-09-18T11:07:19.000Z</time>
      </trkpt>
      <trkpt lat="43.48302" lon="6.78426">
        <ele>255</ele>
        <time>2013-09-18T11:07:20.000Z</time>
      </trkpt>
      <trkpt lat="43.48304" lon="6.78426">
        <ele>255</ele>
        <time>2013-09-18T11:07:21.000Z</time>
      </trkpt>
      <trkpt lat="43.48305" lon="6.78425">
        <ele>254</ele>
        <time>2013-09-18T11:07:22.000Z</time>
      </trkpt>
      <trkpt lat="43.48309" lon="6.78425">
        <ele>254</ele>
        <time>2013-09-18T11:07:25.000Z</time>
      </trkpt>
      <trkpt lat="43.4831" lon="6.78425">
        <ele>254</ele>
        <time>2013-09-18T11:07:26.000Z</time>
      </trkpt>
      <trkpt lat="43.48311" lon="6.78424">
        <ele>254</ele>
        <time>2013-09-18T11:07:27.000Z</time>
      </trkpt>
      <trkpt lat="43.48312" lon="6.78424">
        <ele>254</ele>
        <time>2013-09-18T11:07:28.000Z</time>
      </trkpt>
      <trkpt lat="43.48313" lon="6.78423">
        <ele>253</ele>
        <time>2013-09-18T11:07:29.000Z</time>
      </trkpt>
      <trkpt lat="43.48314" lon="6.78423">
        <ele>253</ele>
        <time>2013-09-18T11:07:30.000Z</time>
      </trkpt>
      <trkpt lat="43.48316" lon="6.78422">
        <ele>253</ele>
        <time>2013-09-18T11:07:31.000Z</time>
      </trkpt>
      <trkpt lat="43.48317" lon="6.78421">
        <ele>252</ele>
        <time>2013-09-18T11:07:32.000Z</time>
      </trkpt>
      <trkpt lat="43.48318" lon="6.78421">
        <ele>252</ele>
        <time>2013-09-18T11:07:33.000Z</time>
      </trkpt>
      <trkpt lat="43.4832" lon="6.78421">
        <ele>252</ele>
        <time>2013-09-18T11:07:34.000Z</time>
      </trkpt>
      <trkpt lat="43.48321" lon="6.7842">
        <ele>251</ele>
        <time>2013-09-18T11:07:35.000Z</time>
      </trkpt>
      <trkpt lat="43.48322" lon="6.78419">
        <ele>251</ele>
        <time>2013-09-18T11:07:36.000Z</time>
      </trkpt>
      <trkpt lat="43.48323" lon="6.78418">
        <ele>250</ele>
        <time>2013-09-18T11:07:37.000Z</time>
      </trkpt>
      <trkpt lat="43.48324" lon="6.78418">
        <ele>250</ele>
        <time>2013-09-18T11:07:38.000Z</time>
      </trkpt>
      <trkpt lat="43.48326" lon="6.78417">
        <ele>250</ele>
        <time>2013-09-18T11:07:39.000Z</time>
      </trkpt>
      <trkpt lat="43.48327" lon="6.78416">
        <ele>243</ele>
        <time>2013-09-18T11:07:40.000Z</time>
      </trkpt>
      <trkpt lat="43.48328" lon="6.78416">
        <ele>243</ele>
        <time>2013-09-18T11:07:41.000Z</time>
      </trkpt>
      <trkpt lat="43.48329" lon="6.78415">
        <ele>244</ele>
        <time>2013-09-18T11:07:42.000Z</time>
      </trkpt>
      <trkpt lat="43.4833" lon="6.78414">
        <ele>244</ele>
        <time>2013-09-18T11:07:43.000Z</time>
      </trkpt>
      <trkpt lat="43.48331" lon="6.78413">
        <ele>244</ele>
        <time>2013-09-18T11:07:44.000Z</time>
      </trkpt>
      <trkpt lat="43.48332" lon="6.78412">
        <ele>244</ele>
        <time>2013-09-18T11:07:45.000Z</time>
      </trkpt>
      <trkpt lat="43.48333" lon="6.78411">
        <ele>243</ele>
        <time>2013-09-18T11:07:46.000Z</time>
      </trkpt>
      <trkpt lat="43.48334" lon="6.7841">
        <ele>246</ele>
        <time>2013-09-18T11:07:47.000Z</time>
      </trkpt>
      <trkpt lat="43.48335" lon="6.78409">
        <ele>246</ele>
        <time>2013-09-18T11:07:48.000Z</time>
      </trkpt>
      <trkpt lat="43.48336" lon="6.78408">
        <ele>246</ele>
        <time>2013-09-18T11:07:49.000Z</time>
      </trkpt>
      <trkpt lat="43.48337" lon="6.78407">
        <ele>246</ele>
        <time>2013-09-18T11:07:50.000Z</time>
      </trkpt>
      <trkpt lat="43.48338" lon="6.78407">
        <ele>246</ele>
        <time>2013-09-18T11:07:51.000Z</time>
      </trkpt>
      <trkpt lat="43.48339" lon="6.78406">
        <ele>246</ele>
        <time>2013-09-18T11:07:52.000Z</time>
      </trkpt>
      <trkpt lat="43.4834" lon="6.78405">
        <ele>246</ele>
        <time>2013-09-18T11:07:53.000Z</time>
      </trkpt>
      <trkpt lat="43.48341" lon="6.78404">
        <ele>246</ele>
        <time>2013-09-18T11:07:54.000Z</time>
      </trkpt>
      <trkpt lat="43.48342" lon="6.78403">
        <ele>246</ele>
        <time>2013-09-18T11:07:55.000Z</time>
      </trkpt>
      <trkpt lat="43.48343" lon="6.78402">
        <ele>246</ele>
        <time>2013-09-18T11:07:56.000Z</time>
      </trkpt>
      <trkpt lat="43.48344" lon="6.78401">
        <ele>246</ele>
        <time>2013-09-18T11:07:57.000Z</time>
      </trkpt>
      <trkpt lat="43.48345" lon="6.784">
        <ele>246</ele>
        <time>2013-09-18T11:07:58.000Z</time>
      </trkpt>
      <trkpt lat="43.48346" lon="6.78399">
        <ele>246</ele>
        <time>2013-09-18T11:07:59.000Z</time>
      </trkpt>
      <trkpt lat="43.48347" lon="6.78398">
        <ele>246</ele>
        <time>2013-09-18T11:08:00.000Z</time>
      </trkpt>
      <trkpt lat="43.48348" lon="6.78397">
        <ele>246</ele>
        <time>2013-09-18T11:08:01.000Z</time>
      </trkpt>
      <trkpt lat="43.48349" lon="6.78396">
        <ele>246</ele>
        <time>2013-09-18T11:08:02.000Z</time>
      </trkpt>
      <trkpt lat="43.48349" lon="6.78395">
        <ele>246</ele>
        <time>2013-09-18T11:08:03.000Z</time>
      </trkpt>
      <trkpt lat="43.48351" lon="6.78394">
        <ele>246</ele>
        <time>2013-09-18T11:08:04.000Z</time>
      </trkpt>
      <trkpt lat="43.48352" lon="6.78393">
        <ele>246</ele>
        <time>2013-09-18T11:08:05.000Z</time>
      </trkpt>
      <trkpt lat="43.48353" lon="6.78392">
        <ele>246</ele>
        <time>2013-09-18T11:08:06.000Z</time>
      </trkpt>
      <trkpt lat="43.48354" lon="6.78391">
        <ele>246</ele>
        <time>2013-09-18T11:08:07.000Z</time>
      </trkpt>
      <trkpt lat="43.48355" lon="6.7839">
        <ele>246</ele>
        <time>2013-09-18T11:08:08.000Z</time>
      </trkpt>
      <trkpt lat="43.48356" lon="6.78389">
        <ele>246</ele>
        <time>2013-09-18T11:08:09.000Z</time>
      </trkpt>
      <trkpt lat="43.48357" lon="6.78388">
        <ele>246</ele>
        <time>2013-09-18T11:08:10.000Z</time>
      </trkpt>
      <trkpt lat="43.48358" lon="6.78387">
        <ele>246</ele>
        <time>2013-09-18T11:08:11.000Z</time>
      </trkpt>
      <trkpt lat="43.48359" lon="6.78386">
        <ele>246</ele>
        <time>2013-09-18T11:08:12.000Z</time>
      </trkpt>
      <trkpt lat="43.4836" lon="6.78385">
        <ele>246</ele>
        <time>2013-09-18T11:08:13.000Z</time>
      </trkpt>
      <trkpt lat="43.48361" lon="6.78384">
        <ele>246</ele>
        <time>2013-09-18T11:08:14.000Z</time>
      </trkpt>
      <trkpt lat="43.48362" lon="6.78383">
        <ele>246</ele>
        <time>2013-09-18T11:08:15.000Z</time>
      </trkpt>
      <trkpt lat="43.48363" lon="6.78382">
        <ele>246</ele>
        <time>2013-09-18T11:08:16.000Z</time>
      </trkpt>
      <trkpt lat="43.48364" lon="6.78381">
        <ele>246</ele>
        <time>2013-09-18T11:08:17.000Z</time>
      </trkpt>
      <trkpt lat="43.48365" lon="6.7838">
        <ele>246</ele>
        <time>2013-09-18T11:08:18.000Z</time>
      </trkpt>
      <trkpt lat="43.48366" lon="6.78379">
        <ele>246</ele>
        <time>2013-09-18T11:08:19.000Z</time>
      </trkpt>
      <trkpt lat="43.48367" lon="6.78378">
        <ele>246</ele>
        <time>2013-09-18T11:08:20.000Z</time>
      </trkpt>
      <trkpt lat="43.48369" lon="6.78377">
        <ele>246</ele>
        <time>2013-09-18T11:08:21.000Z</time>
      </trkpt>
      <trkpt lat="43.4837" lon="6.78376">
        <ele>246</ele>
        <time>2013-09-18T11:08:22.000Z</time>
      </trkpt>
      <trkpt lat="43.48371" lon="6.78375">
        <ele>246</ele>
        <time>2013-09-18T11:08:23.000Z</time>
      </trkpt>
      <trkpt lat="43.48372" lon="6.78373">
        <ele>246</ele>
        <time>2013-09-18T11:08:24.000Z</time>
      </trkpt>
      <trkpt lat="43.48373" lon="6.78373">
        <ele>246</ele>
        <time>2013-09-18T11:08:25.000Z</time>
      </trkpt>
      <trkpt lat="43.48374" lon="6.78372">
        <ele>246</ele>
        <time>2013-09-18T11:08:26.000Z</time>
      </trkpt>
      <trkpt lat="43.48375" lon="6.7837">
        <ele>246</ele>
        <time>2013-09-18T11:08:27.000Z</time>
      </trkpt>
      <trkpt lat="43.48376" lon="6.78369">
        <ele>246</ele>
        <time>2013-09-18T11:08:28.000Z</time>
      </trkpt>
      <trkpt lat="43.48377" lon="6.78368">
        <ele>246</ele>
        <time>2013-09-18T11:08:29.000Z</time>
      </trkpt>
      <trkpt lat="43.48377" lon="6.78367">
        <ele>246</ele>
        <time>2013-09-18T11:08:30.000Z</time>
      </trkpt>
      <trkpt lat="43.48378" lon="6.78366">
        <ele>246</ele>
        <time>2013-09-18T11:08:31.000Z</time>
      </trkpt>
      <trkpt lat="43.48379" lon="6.78364">
        <ele>246</ele>
        <time>2013-09-18T11:08:32.000Z</time>
      </trkpt>
      <trkpt lat="43.4838" lon="6.78363">
        <ele>246</ele>
        <time>2013-09-18T11:08:33.000Z</time>
      </trkpt>
      <trkpt lat="43.48381" lon="6.78362">
        <ele>246</ele>
        <time>2013-09-18T11:08:34.000Z</time>
      </trkpt>
      <trkpt lat="43.48382" lon="6.78361">
        <ele>246</ele>
        <time>2013-09-18T11:08:35.000Z</time>
      </trkpt>
      <trkpt lat="43.48383" lon="6.7836">
        <ele>246</ele>
        <time>2013-09-18T11:08:36.000Z</time>
      </trkpt>
      <trkpt lat="43.48384" lon="6.78359">
        <ele>246</ele>
        <time>2013-09-18T11:08:37.000Z</time>
      </trkpt>
      <trkpt lat="43.48385" lon="6.78358">
        <ele>246</ele>
        <time>2013-09-18T11:08:38.000Z</time>
      </trkpt>
      <trkpt lat="43.48386" lon="6.78357">
        <ele>246</ele>
        <time>2013-09-18T11:08:39.000Z</time>
      </trkpt>
      <trkpt lat="43.48386" lon="6.78355">
        <ele>246</ele>
        <time>2013-09-18T11:08:40.000Z</time>
      </trkpt>
      <trkpt lat="43.48387" lon="6.78354">
        <ele>246</ele>
        <time>2013-09-18T11:08:41.000Z</time>
      </trkpt>
      <trkpt lat="43.48388" lon="6.78353">
        <ele>246</ele>
        <time>2013-09-18T11:08:42.000Z</time>
      </trkpt>
      <trkpt lat="43.48389" lon="6.78352">
        <ele>246</ele>
        <time>2013-09-18T11:08:43.000Z</time>
      </trkpt>
      <trkpt lat="43.4839" lon="6.78351">
        <ele>247</ele>
        <time>2013-09-18T11:08:44.000Z</time>
      </trkpt>
      <trkpt lat="43.48391" lon="6.7835">
        <ele>247</ele>
        <time>2013-09-18T11:08:45.000Z</time>
      </trkpt>
      <trkpt lat="43.48392" lon="6.78348">
        <ele>247</ele>
        <time>2013-09-18T11:08:46.000Z</time>
      </trkpt>
      <trkpt lat="43.48393" lon="6.78347">
        <ele>247</ele>
        <time>2013-09-18T11:08:47.000Z</time>
      </trkpt>
      <trkpt lat="43.48393" lon="6.78346">
        <ele>247</ele>
        <time>2013-09-18T11:08:48.000Z</time>
      </trkpt>
      <trkpt lat="43.48394" lon="6.78344">
        <ele>247</ele>
        <time>2013-09-18T11:08:49.000Z</time>
      </trkpt>
      <trkpt lat="43.48395" lon="6.78343">
        <ele>247</ele>
        <time>2013-09-18T11:08:50.000Z</time>
      </trkpt>
      <trkpt lat="43.48396" lon="6.78341">
        <ele>247</ele>
        <time>2013-09-18T11:08:51.000Z</time>
      </trkpt>
      <trkpt lat="43.48397" lon="6.7834">
        <ele>247</ele>
        <time>2013-09-18T11:08:52.000Z</time>
      </trkpt>
      <trkpt lat="43.48397" lon="6.78339">
        <ele>247</ele>
        <time>2013-09-18T11:08:53.000Z</time>
      </trkpt>
      <trkpt lat="43.48398" lon="6.78338">
        <ele>247</ele>
        <time>2013-09-18T11:08:54.000Z</time>
      </trkpt>
      <trkpt lat="43.48399" lon="6.78337">
        <ele>247</ele>
        <time>2013-09-18T11:08:55.000Z</time>
      </trkpt>
      <trkpt lat="43.484" lon="6.78336">
        <ele>247</ele>
        <time>2013-09-18T11:08:56.000Z</time>
      </trkpt>
      <trkpt lat="43.48401" lon="6.78334">
        <ele>247</ele>
        <time>2013-09-18T11:08:57.000Z</time>
      </trkpt>
      <trkpt lat="43.48402" lon="6.78333">
        <ele>241</ele>
        <time>2013-09-18T11:08:58.000Z</time>
      </trkpt>
      <trkpt lat="43.48403" lon="6.78332">
        <ele>241</ele>
        <time>2013-09-18T11:08:59.000Z</time>
      </trkpt>
      <trkpt lat="43.48404" lon="6.78331">
        <ele>242</ele>
        <time>2013-09-18T11:09:00.000Z</time>
      </trkpt>
      <trkpt lat="43.48405" lon="6.7833">
        <ele>242</ele>
        <time>2013-09-18T11:09:01.000Z</time>
      </trkpt>
      <trkpt lat="43.48406" lon="6.78329">
        <ele>242</ele>
        <time>2013-09-18T11:09:02.000Z</time>
      </trkpt>
      <trkpt lat="43.48407" lon="6.78327">
        <ele>243</ele>
        <time>2013-09-18T11:09:03.000Z</time>
      </trkpt>
      <trkpt lat="43.48408" lon="6.78326">
        <ele>243</ele>
        <time>2013-09-18T11:09:04.000Z</time>
      </trkpt>
      <trkpt lat="43.4841" lon="6.78325">
        <ele>243</ele>
        <time>2013-09-18T11:09:05.000Z</time>
      </trkpt>
      <trkpt lat="43.48411" lon="6.78325">
        <ele>243</ele>
        <time>2013-09-18T11:09:06.000Z</time>
      </trkpt>
      <trkpt lat="43.48412" lon="6.78324">
        <ele>243</ele>
        <time>2013-09-18T11:09:07.000Z</time>
      </trkpt>
      <trkpt lat="43.48412" lon="6.78323">
        <ele>243</ele>
        <time>2013-09-18T11:09:08.000Z</time>
      </trkpt>
      <trkpt lat="43.48413" lon="6.78323">
        <ele>243</ele>
        <time>2013-09-18T11:09:09.000Z</time>
      </trkpt>
      <trkpt lat="43.48413" lon="6.78323">
        <ele>243</ele>
        <time>2013-09-18T11:09:10.000Z</time>
      </trkpt>
      <trkpt lat="43.48413" lon="6.78323">
        <ele>243</ele>
        <time>2013-09-18T11:09:11.000Z</time>
      </trkpt>
      <trkpt lat="43.48413" lon="6.78322">
        <ele>242</ele>
        <time>2013-09-18T11:09:13.000Z</time>
      </trkpt>
      <trkpt lat="43.48413" lon="6.78322">
        <ele>242</ele>
        <time>2013-09-18T11:09:15.000Z</time>
      </trkpt>
      <trkpt lat="43.48414" lon="6.78322">
        <ele>242</ele>
        <time>2013-09-18T11:09:16.000Z</time>
      </trkpt>
      <trkpt lat="43.48414" lon="6.78322">
        <ele>242</ele>
        <time>2013-09-18T11:09:18.000Z</time>
      </trkpt>
      <trkpt lat="43.48414" lon="6.78321">
        <ele>242</ele>
        <time>2013-09-18T11:09:20.000Z</time>
      </trkpt>
      <trkpt lat="43.48414" lon="6.78321">
        <ele>242</ele>
        <time>2013-09-18T11:09:22.000Z</time>
      </trkpt>
      <trkpt lat="43.48415" lon="6.78321">
        <ele>242</ele>
        <time>2013-09-18T11:09:25.000Z</time>
      </trkpt>
      <trkpt lat="43.48415" lon="6.78321">
        <ele>242</ele>
        <time>2013-09-18T11:09:27.000Z</time>
      </trkpt>
      <trkpt lat="43.48415" lon="6.78321">
        <ele>242</ele>
        <time>2013-09-18T11:09:28.000Z</time>
      </trkpt>
      <trkpt lat="43.48415" lon="6.78321">
        <ele>242</ele>
        <time>2013-09-18T11:09:30.000Z</time>
      </trkpt>
      <trkpt lat="43.48415" lon="6.7832">
        <ele>242</ele>
        <time>2013-09-18T11:09:32.000Z</time>
      </trkpt>
      <trkpt lat="43.48415" lon="6.7832">
        <ele>242</ele>
        <time>2013-09-18T11:09:33.000Z</time>
      </trkpt>
      <trkpt lat="43.48416" lon="6.7832">
        <ele>242</ele>
        <time>2013-09-18T11:09:37.000Z</time>
      </trkpt>
      <trkpt lat="43.48416" lon="6.7832">
        <ele>242</ele>
        <time>2013-09-18T11:09:41.000Z</time>
      </trkpt>
      <trkpt lat="43.48416" lon="6.78319">
        <ele>242</ele>
        <time>2013-09-18T11:09:49.000Z</time>
      </trkpt>
      <trkpt lat="43.48416" lon="6.78319">
        <ele>242</ele>
        <time>2013-09-18T11:09:57.000Z</time>
      </trkpt>
      <trkpt lat="43.48416" lon="6.78319">
        <ele>242</ele>
        <time>2013-09-18T11:10:06.000Z</time>
      </trkpt>
      <trkpt lat="43.48417" lon="6.78319">
        <ele>242</ele>
        <time>2013-09-18T11:10:10.000Z</time>
      </trkpt>
      <trkpt lat="43.48417" lon="6.78319">
        <ele>243</ele>
        <time>2013-09-18T11:10:17.000Z</time>
      </trkpt>
      <trkpt lat="43.48417" lon="6.7832">
        <ele>242</ele>
        <time>2013-09-18T11:10:28.000Z</time>
      </trkpt>
      <trkpt lat="43.48417" lon="6.7832">
        <ele>243</ele>
        <time>2013-09-18T11:10:33.000Z</time>
      </trkpt>
      <trkpt lat="43.48417" lon="6.7832">
        <ele>242</ele>
        <time>2013-09-18T11:10:48.000Z</time>
      </trkpt>
      <trkpt lat="43.48416" lon="6.7832">
        <ele>242</ele>
        <time>2013-09-18T11:10:54.000Z</time>
      </trkpt>
      <trkpt lat="43.48416" lon="6.7832">
        <ele>242</ele>
        <time>2013-09-18T11:11:00.000Z</time>
      </trkpt>
      <trkpt lat="43.48416" lon="6.7832">
        <ele>242</ele>
        <time>2013-09-18T11:11:01.000Z</time>
      </trkpt>
      <trkpt lat="43.48417" lon="6.7832">
        <ele>243</ele>
        <time>2013-09-18T11:11:04.000Z</time>
      </trkpt>
      <trkpt lat="43.48417" lon="6.7832">
        <ele>243</ele>
        <time>2013-09-18T11:11:05.000Z</time>
      </trkpt>
      <trkpt lat="43.48417" lon="6.7832">
        <ele>243</ele>
        <time>2013-09-18T11:11:18.000Z</time>
      </trkpt>
      <trkpt lat="43.48417" lon="6.7832">
        <ele>243</ele>
        <time>2013-09-18T11:11:24.000Z</time>
      </trkpt>
      <trkpt lat="43.48418" lon="6.78319">
        <ele>243</ele>
        <time>2013-09-18T11:11:35.000Z</time>
      </trkpt>
      <trkpt lat="43.48418" lon="6.78319">
        <ele>243</ele>
        <time>2013-09-18T11:11:45.000Z</time>
      </trkpt>
      <trkpt lat="43.48418" lon="6.78319">
        <ele>243</ele>
        <time>2013-09-18T11:11:53.000Z</time>
      </trkpt>
      <trkpt lat="43.48418" lon="6.7832">
        <ele>243</ele>
        <time>2013-09-18T11:11:54.000Z</time>
      </trkpt>
      <trkpt lat="43.48419" lon="6.7832">
        <ele>243</ele>
        <time>2013-09-18T11:11:55.000Z</time>
      </trkpt>
      <trkpt lat="43.4842" lon="6.78321">
        <ele>243</ele>
        <time>2013-09-18T11:11:56.000Z</time>
      </trkpt>
      <trkpt lat="43.48421" lon="6.78321">
        <ele>243</ele>
        <time>2013-09-18T11:11:57.000Z</time>
      </trkpt>
      <trkpt lat="43.48422" lon="6.78321">
        <ele>243</ele>
        <time>2013-09-18T11:11:58.000Z</time>
      </trkpt>
      <trkpt lat="43.48424" lon="6.78321">
        <ele>243</ele>
        <time>2013-09-18T11:11:59.000Z</time>
      </trkpt>
      <trkpt lat="43.48425" lon="6.7832">
        <ele>242</ele>
        <time>2013-09-18T11:12:00.000Z</time>
      </trkpt>
      <trkpt lat="43.48427" lon="6.7832">
        <ele>242</ele>
        <time>2013-09-18T11:12:01.000Z</time>
      </trkpt>
      <trkpt lat="43.48428" lon="6.78319">
        <ele>241</ele>
        <time>2013-09-18T11:12:02.000Z</time>
      </trkpt>
      <trkpt lat="43.4843" lon="6.78319">
        <ele>241</ele>
        <time>2013-09-18T11:12:03.000Z</time>
      </trkpt>
      <trkpt lat="43.48431" lon="6.78319">
        <ele>241</ele>
        <time>2013-09-18T11:12:04.000Z</time>
      </trkpt>
      <trkpt lat="43.48432" lon="6.7832">
        <ele>241</ele>
        <time>2013-09-18T11:12:05.000Z</time>
      </trkpt>
      <trkpt lat="43.48433" lon="6.7832">
        <ele>241</ele>
        <time>2013-09-18T11:12:06.000Z</time>
      </trkpt>
      <trkpt lat="43.48436" lon="6.7832">
        <ele>240</ele>
        <time>2013-09-18T11:12:08.000Z</time>
      </trkpt>
      <trkpt lat="43.48437" lon="6.78319">
        <ele>240</ele>
        <time>2013-09-18T11:12:09.000Z</time>
      </trkpt>
      <trkpt lat="43.48439" lon="6.78319">
        <ele>239</ele>
        <time>2013-09-18T11:12:10.000Z</time>
      </trkpt>
      <trkpt lat="43.4844" lon="6.78318">
        <ele>239</ele>
        <time>2013-09-18T11:12:11.000Z</time>
      </trkpt>
      <trkpt lat="43.48441" lon="6.78318">
        <ele>239</ele>
        <time>2013-09-18T11:12:12.000Z</time>
      </trkpt>
      <trkpt lat="43.48443" lon="6.78319">
        <ele>239</ele>
        <time>2013-09-18T11:12:13.000Z</time>
      </trkpt>
      <trkpt lat="43.48444" lon="6.78319">
        <ele>239</ele>
        <time>2013-09-18T11:12:14.000Z</time>
      </trkpt>
      <trkpt lat="43.48445" lon="6.78319">
        <ele>238</ele>
        <time>2013-09-18T11:12:15.000Z</time>
      </trkpt>
      <trkpt lat="43.48447" lon="6.7832">
        <ele>238</ele>
        <time>2013-09-18T11:12:16.000Z</time>
      </trkpt>
      <trkpt lat="43.4845" lon="6.7832">
        <ele>238</ele>
        <time>2013-09-18T11:12:18.000Z</time>
      </trkpt>
      <trkpt lat="43.48451" lon="6.78321">
        <ele>238</ele>
        <time>2013-09-18T11:12:19.000Z</time>
      </trkpt>
      <trkpt lat="43.48452" lon="6.78321">
        <ele>238</ele>
        <time>2013-09-18T11:12:20.000Z</time>
      </trkpt>
      <trkpt lat="43.48454" lon="6.78322">
        <ele>238</ele>
        <time>2013-09-18T11:12:21.000Z</time>
      </trkpt>
      <trkpt lat="43.48455" lon="6.78323">
        <ele>237</ele>
        <time>2013-09-18T11:12:22.000Z</time>
      </trkpt>
      <trkpt lat="43.48456" lon="6.78324">
        <ele>237</ele>
        <time>2013-09-18T11:12:23.000Z</time>
      </trkpt>
      <trkpt lat="43.48458" lon="6.78325">
        <ele>237</ele>
        <time>2013-09-18T11:12:24.000Z</time>
      </trkpt>
      <trkpt lat="43.48459" lon="6.78327">
        <ele>237</ele>
        <time>2013-09-18T11:12:25.000Z</time>
      </trkpt>
      <trkpt lat="43.4846" lon="6.78328">
        <ele>237</ele>
        <time>2013-09-18T11:12:26.000Z</time>
      </trkpt>
      <trkpt lat="43.48461" lon="6.78329">
        <ele>237</ele>
        <time>2013-09-18T11:12:27.000Z</time>
      </trkpt>
      <trkpt lat="43.48463" lon="6.7833">
        <ele>237</ele>
        <time>2013-09-18T11:12:28.000Z</time>
      </trkpt>
      <trkpt lat="43.48464" lon="6.78331">
        <ele>237</ele>
        <time>2013-09-18T11:12:29.000Z</time>
      </trkpt>
      <trkpt lat="43.48465" lon="6.78333">
        <ele>237</ele>
        <time>2013-09-18T11:12:30.000Z</time>
      </trkpt>
      <trkpt lat="43.48466" lon="6.78334">
        <ele>248</ele>
        <time>2013-09-18T11:12:31.000Z</time>
      </trkpt>
      <trkpt lat="43.48468" lon="6.78335">
        <ele>248</ele>
        <time>2013-09-18T11:12:32.000Z</time>
      </trkpt>
      <trkpt lat="43.48469" lon="6.78336">
        <ele>248</ele>
        <time>2013-09-18T11:12:33.000Z</time>
      </trkpt>
      <trkpt lat="43.4847" lon="6.78337">
        <ele>247</ele>
        <time>2013-09-18T11:12:34.000Z</time>
      </trkpt>
      <trkpt lat="43.48471" lon="6.78338">
        <ele>247</ele>
        <time>2013-09-18T11:12:35.000Z</time>
      </trkpt>
      <trkpt lat="43.48472" lon="6.7834">
        <ele>247</ele>
        <time>2013-09-18T11:12:36.000Z</time>
      </trkpt>
      <trkpt lat="43.48472" lon="6.78341">
        <ele>247</ele>
        <time>2013-09-18T11:12:37.000Z</time>
      </trkpt>
      <trkpt lat="43.48473" lon="6.78343">
        <ele>247</ele>
        <time>2013-09-18T11:12:38.000Z</time>
      </trkpt>
      <trkpt lat="43.48475" lon="6.78344">
        <ele>247</ele>
        <time>2013-09-18T11:12:39.000Z</time>
      </trkpt>
      <trkpt lat="43.48476" lon="6.78345">
        <ele>247</ele>
        <time>2013-09-18T11:12:40.000Z</time>
      </trkpt>
      <trkpt lat="43.48477" lon="6.78346">
        <ele>247</ele>
        <time>2013-09-18T11:12:41.000Z</time>
      </trkpt>
      <trkpt lat="43.48478" lon="6.78347">
        <ele>247</ele>
        <time>2013-09-18T11:12:42.000Z</time>
      </trkpt>
      <trkpt lat="43.48478" lon="6.78349">
        <ele>247</ele>
        <time>2013-09-18T11:12:43.000Z</time>
      </trkpt>
      <trkpt lat="43.48479" lon="6.7835">
        <ele>247</ele>
        <time>2013-09-18T11:12:44.000Z</time>
      </trkpt>
      <trkpt lat="43.4848" lon="6.78351">
        <ele>247</ele>
        <time>2013-09-18T11:12:45.000Z</time>
      </trkpt>
      <trkpt lat="43.48481" lon="6.78353">
        <ele>247</ele>
        <time>2013-09-18T11:12:46.000Z</time>
      </trkpt>
      <trkpt lat="43.48482" lon="6.78354">
        <ele>248</ele>
        <time>2013-09-18T11:12:47.000Z</time>
      </trkpt>
      <trkpt lat="43.48483" lon="6.78356">
        <ele>248</ele>
        <time>2013-09-18T11:12:48.000Z</time>
      </trkpt>
      <trkpt lat="43.48484" lon="6.78357">
        <ele>248</ele>
        <time>2013-09-18T11:12:49.000Z</time>
      </trkpt>
      <trkpt lat="43.48484" lon="6.78358">
        <ele>248</ele>
        <time>2013-09-18T11:12:50.000Z</time>
      </trkpt>
      <trkpt lat="43.48485" lon="6.7836">
        <ele>248</ele>
        <time>2013-09-18T11:12:51.000Z</time>
      </trkpt>
      <trkpt lat="43.48486" lon="6.78362">
        <ele>248</ele>
        <time>2013-09-18T11:12:52.000Z</time>
      </trkpt>
      <trkpt lat="43.48486" lon="6.78363">
        <ele>249</ele>
        <time>2013-09-18T11:12:53.000Z</time>
      </trkpt>
      <trkpt lat="43.48487" lon="6.78365">
        <ele>249</ele>
        <time>2013-09-18T11:12:54.000Z</time>
      </trkpt>
      <trkpt lat="43.48487" lon="6.78367">
        <ele>249</ele>
        <time>2013-09-18T11:12:55.000Z</time>
      </trkpt>
      <trkpt lat="43.48488" lon="6.78368">
        <ele>249</ele>
        <time>2013-09-18T11:12:56.000Z</time>
      </trkpt>
      <trkpt lat="43.48488" lon="6.7837">
        <ele>250</ele>
        <time>2013-09-18T11:12:57.000Z</time>
      </trkpt>
      <trkpt lat="43.48488" lon="6.78374">
        <ele>250</ele>
        <time>2013-09-18T11:12:59.000Z</time>
      </trkpt>
      <trkpt lat="43.48489" lon="6.78375">
        <ele>250</ele>
        <time>2013-09-18T11:13:00.000Z</time>
      </trkpt>
      <trkpt lat="43.48488" lon="6.78377">
        <ele>251</ele>
        <time>2013-09-18T11:13:01.000Z</time>
      </trkpt>
      <trkpt lat="43.48488" lon="6.7838">
        <ele>251</ele>
        <time>2013-09-18T11:13:03.000Z</time>
      </trkpt>
      <trkpt lat="43.48488" lon="6.78386">
        <ele>252</ele>
        <time>2013-09-18T11:13:06.000Z</time>
      </trkpt>
      <trkpt lat="43.48488" lon="6.78391">
        <ele>252</ele>
        <time>2013-09-18T11:13:09.000Z</time>
      </trkpt>
      <trkpt lat="43.48488" lon="6.78392">
        <ele>252</ele>
        <time>2013-09-18T11:13:10.000Z</time>
      </trkpt>
      <trkpt lat="43.48487" lon="6.78394">
        <ele>253</ele>
        <time>2013-09-18T11:13:11.000Z</time>
      </trkpt>
      <trkpt lat="43.48487" lon="6.78395">
        <ele>253</ele>
        <time>2013-09-18T11:13:12.000Z</time>
      </trkpt>
      <trkpt lat="43.48487" lon="6.78397">
        <ele>253</ele>
        <time>2013-09-18T11:13:13.000Z</time>
      </trkpt>
      <trkpt lat="43.48487" lon="6.78399">
        <ele>253</ele>
        <time>2013-09-18T11:13:14.000Z</time>
      </trkpt>
      <trkpt lat="43.48486" lon="6.784">
        <ele>253</ele>
        <time>2013-09-18T11:13:15.000Z</time>
      </trkpt>
      <trkpt lat="43.48486" lon="6.78402">
        <ele>253</ele>
        <time>2013-09-18T11:13:16.000Z</time>
      </trkpt>
      <trkpt lat="43.48485" lon="6.78403">
        <ele>253</ele>
        <time>2013-09-18T11:13:17.000Z</time>
      </trkpt>
      <trkpt lat="43.48485" lon="6.78405">
        <ele>254</ele>
        <time>2013-09-18T11:13:18.000Z</time>
      </trkpt>
      <trkpt lat="43.48485" lon="6.78407">
        <ele>254</ele>
        <time>2013-09-18T11:13:19.000Z</time>
      </trkpt>
      <trkpt lat="43.48484" lon="6.78408">
        <ele>254</ele>
        <time>2013-09-18T11:13:20.000Z</time>
      </trkpt>
      <trkpt lat="43.48484" lon="6.78412">
        <ele>254</ele>
        <time>2013-09-18T11:13:22.000Z</time>
      </trkpt>
      <trkpt lat="43.48484" lon="6.78413">
        <ele>254</ele>
        <time>2013-09-18T11:13:23.000Z</time>
      </trkpt>
      <trkpt lat="43.48483" lon="6.78415">
        <ele>254</ele>
        <time>2013-09-18T11:13:24.000Z</time>
      </trkpt>
      <trkpt lat="43.48484" lon="6.7842">
        <ele>263</ele>
        <time>2013-09-18T11:13:27.000Z</time>
      </trkpt>
      <trkpt lat="43.48484" lon="6.78422">
        <ele>263</ele>
        <time>2013-09-18T11:13:28.000Z</time>
      </trkpt>
      <trkpt lat="43.48484" lon="6.78423">
        <ele>263</ele>
        <time>2013-09-18T11:13:29.000Z</time>
      </trkpt>
      <trkpt lat="43.48484" lon="6.78426">
        <ele>263</ele>
        <time>2013-09-18T11:13:31.000Z</time>
      </trkpt>
      <trkpt lat="43.48484" lon="6.78428">
        <ele>264</ele>
        <time>2013-09-18T11:13:32.000Z</time>
      </trkpt>
      <trkpt lat="43.48485" lon="6.78429">
        <ele>264</ele>
        <time>2013-09-18T11:13:33.000Z</time>
      </trkpt>
      <trkpt lat="43.48485" lon="6.78431">
        <ele>264</ele>
        <time>2013-09-18T11:13:34.000Z</time>
      </trkpt>
      <trkpt lat="43.48486" lon="6.78432">
        <ele>264</ele>
        <time>2013-09-18T11:13:35.000Z</time>
      </trkpt>
      <trkpt lat="43.48486" lon="6.78433">
        <ele>265</ele>
        <time>2013-09-18T11:13:36.000Z</time>
      </trkpt>
      <trkpt lat="43.48487" lon="6.78435">
        <ele>265</ele>
        <time>2013-09-18T11:13:37.000Z</time>
      </trkpt>
      <trkpt lat="43.48487" lon="6.78436">
        <ele>265</ele>
        <time>2013-09-18T11:13:38.000Z</time>
      </trkpt>
      <trkpt lat="43.48488" lon="6.78438">
        <ele>265</ele>
        <time>2013-09-18T11:13:39.000Z</time>
      </trkpt>
      <trkpt lat="43.48488" lon="6.78439">
        <ele>266</ele>
        <time>2013-09-18T11:13:40.000Z</time>
      </trkpt>
      <trkpt lat="43.48489" lon="6.7844">
        <ele>266</ele>
        <time>2013-09-18T11:13:41.000Z</time>
      </trkpt>
      <trkpt lat="43.48489" lon="6.78441">
        <ele>266</ele>
        <time>2013-09-18T11:13:42.000Z</time>
      </trkpt>
      <trkpt lat="43.4849" lon="6.78443">
        <ele>266</ele>
        <time>2013-09-18T11:13:43.000Z</time>
      </trkpt>
      <trkpt lat="43.48491" lon="6.78444">
        <ele>267</ele>
        <time>2013-09-18T11:13:44.000Z</time>
      </trkpt>
      <trkpt lat="43.48491" lon="6.78446">
        <ele>267</ele>
        <time>2013-09-18T11:13:45.000Z</time>
      </trkpt>
      <trkpt lat="43.48492" lon="6.78447">
        <ele>267</ele>
        <time>2013-09-18T11:13:46.000Z</time>
      </trkpt>
      <trkpt lat="43.48492" lon="6.78449">
        <ele>268</ele>
        <time>2013-09-18T11:13:47.000Z</time>
      </trkpt>
      <trkpt lat="43.48493" lon="6.7845">
        <ele>268</ele>
        <time>2013-09-18T11:13:48.000Z</time>
      </trkpt>
      <trkpt lat="43.48493" lon="6.78452">
        <ele>268</ele>
        <time>2013-09-18T11:13:49.000Z</time>
      </trkpt>
      <trkpt lat="43.48494" lon="6.78453">
        <ele>268</ele>
        <time>2013-09-18T11:13:50.000Z</time>
      </trkpt>
      <trkpt lat="43.48495" lon="6.78454">
        <ele>269</ele>
        <time>2013-09-18T11:13:51.000Z</time>
      </trkpt>
      <trkpt lat="43.48495" lon="6.78456">
        <ele>269</ele>
        <time>2013-09-18T11:13:52.000Z</time>
      </trkpt>
      <trkpt lat="43.48496" lon="6.78457">
        <ele>269</ele>
        <time>2013-09-18T11:13:53.000Z</time>
      </trkpt>
      <trkpt lat="43.48496" lon="6.78459">
        <ele>269</ele>
        <time>2013-09-18T11:13:54.000Z</time>
      </trkpt>
      <trkpt lat="43.48497" lon="6.7846">
        <ele>270</ele>
        <time>2013-09-18T11:13:55.000Z</time>
      </trkpt>
      <trkpt lat="43.48498" lon="6.78461">
        <ele>270</ele>
        <time>2013-09-18T11:13:56.000Z</time>
      </trkpt>
      <trkpt lat="43.48498" lon="6.78463">
        <ele>270</ele>
        <time>2013-09-18T11:13:57.000Z</time>
      </trkpt>
      <trkpt lat="43.48499" lon="6.78464">
        <ele>270</ele>
        <time>2013-09-18T11:13:58.000Z</time>
      </trkpt>
      <trkpt lat="43.485" lon="6.78465">
        <ele>270</ele>
        <time>2013-09-18T11:13:59.000Z</time>
      </trkpt>
      <trkpt lat="43.485" lon="6.78466">
        <ele>258</ele>
        <time>2013-09-18T11:14:00.000Z</time>
      </trkpt>
      <trkpt lat="43.48501" lon="6.78468">
        <ele>258</ele>
        <time>2013-09-18T11:14:01.000Z</time>
      </trkpt>
      <trkpt lat="43.48502" lon="6.78469">
        <ele>258</ele>
        <time>2013-09-18T11:14:02.000Z</time>
      </trkpt>
      <trkpt lat="43.48503" lon="6.7847">
        <ele>259</ele>
        <time>2013-09-18T11:14:03.000Z</time>
      </trkpt>
      <trkpt lat="43.48503" lon="6.78472">
        <ele>259</ele>
        <time>2013-09-18T11:14:04.000Z</time>
      </trkpt>
      <trkpt lat="43.48504" lon="6.78474">
        <ele>260</ele>
        <time>2013-09-18T11:14:05.000Z</time>
      </trkpt>
      <trkpt lat="43.48504" lon="6.78475">
        <ele>260</ele>
        <time>2013-09-18T11:14:06.000Z</time>
      </trkpt>
      <trkpt lat="43.48505" lon="6.78476">
        <ele>260</ele>
        <time>2013-09-18T11:14:07.000Z</time>
      </trkpt>
      <trkpt lat="43.48506" lon="6.78478">
        <ele>261</ele>
        <time>2013-09-18T11:14:08.000Z</time>
      </trkpt>
      <trkpt lat="43.48507" lon="6.78479">
        <ele>261</ele>
        <time>2013-09-18T11:14:09.000Z</time>
      </trkpt>
      <trkpt lat="43.48507" lon="6.7848">
        <ele>261</ele>
        <time>2013-09-18T11:14:10.000Z</time>
      </trkpt>
      <trkpt lat="43.48508" lon="6.78481">
        <ele>262</ele>
        <time>2013-09-18T11:14:11.000Z</time>
      </trkpt>
      <trkpt lat="43.48509" lon="6.78483">
        <ele>262</ele>
        <time>2013-09-18T11:14:12.000Z</time>
      </trkpt>
      <trkpt lat="43.4851" lon="6.78484">
        <ele>262</ele>
        <time>2013-09-18T11:14:13.000Z</time>
      </trkpt>
      <trkpt lat="43.48511" lon="6.78485">
        <ele>263</ele>
        <time>2013-09-18T11:14:14.000Z</time>
      </trkpt>
      <trkpt lat="43.48511" lon="6.78487">
        <ele>263</ele>
        <time>2013-09-18T11:14:15.000Z</time>
      </trkpt>
      <trkpt lat="43.48512" lon="6.78488">
        <ele>263</ele>
        <time>2013-09-18T11:14:16.000Z</time>
      </trkpt>
      <trkpt lat="43.48513" lon="6.78489">
        <ele>263</ele>
        <time>2013-09-18T11:14:17.000Z</time>
      </trkpt>
      <trkpt lat="43.48513" lon="6.78491">
        <ele>264</ele>
        <time>2013-09-18T11:14:18.000Z</time>
      </trkpt>
      <trkpt lat="43.48514" lon="6.78492">
        <ele>264</ele>
        <time>2013-09-18T11:14:19.000Z</time>
      </trkpt>
      <trkpt lat="43.48515" lon="6.78493">
        <ele>263</ele>
        <time>2013-09-18T11:14:20.000Z</time>
      </trkpt>
      <trkpt lat="43.48516" lon="6.78494">
        <ele>263</ele>
        <time>2013-09-18T11:14:21.000Z</time>
      </trkpt>
      <trkpt lat="43.48517" lon="6.78496">
        <ele>263</ele>
        <time>2013-09-18T11:14:22.000Z</time>
      </trkpt>
      <trkpt lat="43.48518" lon="6.78497">
        <ele>263</ele>
        <time>2013-09-18T11:14:23.000Z</time>
      </trkpt>
      <trkpt lat="43.48519" lon="6.78498">
        <ele>262</ele>
        <time>2013-09-18T11:14:24.000Z</time>
      </trkpt>
      <trkpt lat="43.4852" lon="6.785">
        <ele>262</ele>
        <time>2013-09-18T11:14:25.000Z</time>
      </trkpt>
      <trkpt lat="43.48521" lon="6.78501">
        <ele>274</ele>
        <time>2013-09-18T11:14:26.000Z</time>
      </trkpt>
      <trkpt lat="43.48522" lon="6.78502">
        <ele>274</ele>
        <time>2013-09-18T11:14:27.000Z</time>
      </trkpt>
      <trkpt lat="43.48523" lon="6.78503">
        <ele>274</ele>
        <time>2013-09-18T11:14:28.000Z</time>
      </trkpt>
      <trkpt lat="43.48524" lon="6.78504">
        <ele>273</ele>
        <time>2013-09-18T11:14:29.000Z</time>
      </trkpt>
      <trkpt lat="43.48525" lon="6.78505">
        <ele>273</ele>
        <time>2013-09-18T11:14:30.000Z</time>
      </trkpt>
      <trkpt lat="43.48526" lon="6.78506">
        <ele>273</ele>
        <time>2013-09-18T11:14:31.000Z</time>
      </trkpt>
      <trkpt lat="43.48527" lon="6.78507">
        <ele>273</ele>
        <time>2013-09-18T11:14:32.000Z</time>
      </trkpt>
      <trkpt lat="43.48528" lon="6.78509">
        <ele>273</ele>
        <time>2013-09-18T11:14:33.000Z</time>
      </trkpt>
      <trkpt lat="43.48529" lon="6.7851">
        <ele>273</ele>
        <time>2013-09-18T11:14:34.000Z</time>
      </trkpt>
      <trkpt lat="43.4853" lon="6.78511">
        <ele>273</ele>
        <time>2013-09-18T11:14:35.000Z</time>
      </trkpt>
      <trkpt lat="43.48531" lon="6.78512">
        <ele>272</ele>
        <time>2013-09-18T11:14:36.000Z</time>
      </trkpt>
      <trkpt lat="43.48532" lon="6.78513">
        <ele>272</ele>
        <time>2013-09-18T11:14:37.000Z</time>
      </trkpt>
      <trkpt lat="43.48533" lon="6.78514">
        <ele>272</ele>
        <time>2013-09-18T11:14:38.000Z</time>
      </trkpt>
      <trkpt lat="43.48534" lon="6.78516">
        <ele>272</ele>
        <time>2013-09-18T11:14:39.000Z</time>
      </trkpt>
      <trkpt lat="43.48535" lon="6.78517">
        <ele>272</ele>
        <time>2013-09-18T11:14:40.000Z</time>
      </trkpt>
      <trkpt lat="43.48536" lon="6.78518">
        <ele>272</ele>
        <time>2013-09-18T11:14:41.000Z</time>
      </trkpt>
      <trkpt lat="43.48537" lon="6.78519">
        <ele>272</ele>
        <time>2013-09-18T11:14:42.000Z</time>
      </trkpt>
      <trkpt lat="43.48538" lon="6.7852">
        <ele>272</ele>
        <time>2013-09-18T11:14:43.000Z</time>
      </trkpt>
      <trkpt lat="43.48539" lon="6.78522">
        <ele>272</ele>
        <time>2013-09-18T11:14:44.000Z</time>
      </trkpt>
      <trkpt lat="43.48539" lon="6.78523">
        <ele>272</ele>
        <time>2013-09-18T11:14:45.000Z</time>
      </trkpt>
      <trkpt lat="43.4854" lon="6.78524">
        <ele>272</ele>
        <time>2013-09-18T11:14:46.000Z</time>
      </trkpt>
      <trkpt lat="43.4854" lon="6.78525">
        <ele>272</ele>
        <time>2013-09-18T11:14:47.000Z</time>
      </trkpt>
      <trkpt lat="43.48541" lon="6.78527">
        <ele>272</ele>
        <time>2013-09-18T11:14:48.000Z</time>
      </trkpt>
      <trkpt lat="43.48542" lon="6.78528">
        <ele>272</ele>
        <time>2013-09-18T11:14:49.000Z</time>
      </trkpt>
      <trkpt lat="43.48542" lon="6.78529">
        <ele>272</ele>
        <time>2013-09-18T11:14:50.000Z</time>
      </trkpt>
      <trkpt lat="43.48542" lon="6.78531">
        <ele>272</ele>
        <time>2013-09-18T11:14:51.000Z</time>
      </trkpt>
      <trkpt lat="43.48543" lon="6.78533">
        <ele>273</ele>
        <time>2013-09-18T11:14:52.000Z</time>
      </trkpt>
      <trkpt lat="43.48543" lon="6.78534">
        <ele>273</ele>
        <time>2013-09-18T11:14:53.000Z</time>
      </trkpt>
      <trkpt lat="43.48543" lon="6.78535">
        <ele>273</ele>
        <time>2013-09-18T11:14:54.000Z</time>
      </trkpt>
      <trkpt lat="43.48544" lon="6.78537">
        <ele>273</ele>
        <time>2013-09-18T11:14:55.000Z</time>
      </trkpt>
      <trkpt lat="43.48544" lon="6.78538">
        <ele>273</ele>
        <time>2013-09-18T11:14:56.000Z</time>
      </trkpt>
      <trkpt lat="43.48545" lon="6.7854">
        <ele>273</ele>
        <time>2013-09-18T11:14:57.000Z</time>
      </trkpt>
      <trkpt lat="43.48545" lon="6.78541">
        <ele>273</ele>
        <time>2013-09-18T11:14:58.000Z</time>
      </trkpt>
      <trkpt lat="43.48546" lon="6.78543">
        <ele>274</ele>
        <time>2013-09-18T11:14:59.000Z</time>
      </trkpt>
      <trkpt lat="43.48546" lon="6.78544">
        <ele>274</ele>
        <time>2013-09-18T11:15:00.000Z</time>
      </trkpt>
      <trkpt lat="43.48546" lon="6.78546">
        <ele>274</ele>
        <time>2013-09-18T11:15:01.000Z</time>
      </trkpt>
      <trkpt lat="43.48547" lon="6.78547">
        <ele>274</ele>
        <time>2013-09-18T11:15:02.000Z</time>
      </trkpt>
      <trkpt lat="43.48547" lon="6.78549">
        <ele>274</ele>
        <time>2013-09-18T11:15:03.000Z</time>
      </trkpt>
      <trkpt lat="43.48548" lon="6.7855">
        <ele>274</ele>
        <time>2013-09-18T11:15:04.000Z</time>
      </trkpt>
      <trkpt lat="43.48548" lon="6.78552">
        <ele>274</ele>
        <time>2013-09-18T11:15:05.000Z</time>
      </trkpt>
      <trkpt lat="43.48548" lon="6.78553">
        <ele>275</ele>
        <time>2013-09-18T11:15:06.000Z</time>
      </trkpt>
      <trkpt lat="43.48549" lon="6.78555">
        <ele>275</ele>
        <time>2013-09-18T11:15:07.000Z</time>
      </trkpt>
      <trkpt lat="43.48549" lon="6.78556">
        <ele>275</ele>
        <time>2013-09-18T11:15:08.000Z</time>
      </trkpt>
      <trkpt lat="43.4855" lon="6.78557">
        <ele>275</ele>
        <time>2013-09-18T11:15:09.000Z</time>
      </trkpt>
      <trkpt lat="43.4855" lon="6.78559">
        <ele>275</ele>
        <time>2013-09-18T11:15:10.000Z</time>
      </trkpt>
      <trkpt lat="43.4855" lon="6.7856">
        <ele>275</ele>
        <time>2013-09-18T11:15:11.000Z</time>
      </trkpt>
      <trkpt lat="43.48551" lon="6.78562">
        <ele>275</ele>
        <time>2013-09-18T11:15:12.000Z</time>
      </trkpt>
      <trkpt lat="43.48551" lon="6.78563">
        <ele>275</ele>
        <time>2013-09-18T11:15:13.000Z</time>
      </trkpt>
      <trkpt lat="43.48552" lon="6.78564">
        <ele>275</ele>
        <time>2013-09-18T11:15:14.000Z</time>
      </trkpt>
      <trkpt lat="43.48552" lon="6.78566">
        <ele>275</ele>
        <time>2013-09-18T11:15:15.000Z</time>
      </trkpt>
      <trkpt lat="43.48552" lon="6.78567">
        <ele>275</ele>
        <time>2013-09-18T11:15:16.000Z</time>
      </trkpt>
      <trkpt lat="43.48553" lon="6.78569">
        <ele>275</ele>
        <time>2013-09-18T11:15:17.000Z</time>
      </trkpt>
      <trkpt lat="43.48553" lon="6.7857">
        <ele>275</ele>
        <time>2013-09-18T11:15:18.000Z</time>
      </trkpt>
      <trkpt lat="43.48554" lon="6.78571">
        <ele>275</ele>
        <time>2013-09-18T11:15:19.000Z</time>
      </trkpt>
      <trkpt lat="43.48554" lon="6.78573">
        <ele>275</ele>
        <time>2013-09-18T11:15:20.000Z</time>
      </trkpt>
      <trkpt lat="43.48555" lon="6.78574">
        <ele>275</ele>
        <time>2013-09-18T11:15:21.000Z</time>
      </trkpt>
      <trkpt lat="43.48555" lon="6.78576">
        <ele>275</ele>
        <time>2013-09-18T11:15:22.000Z</time>
      </trkpt>
      <trkpt lat="43.48555" lon="6.78577">
        <ele>275</ele>
        <time>2013-09-18T11:15:23.000Z</time>
      </trkpt>
      <trkpt lat="43.48556" lon="6.78579">
        <ele>275</ele>
        <time>2013-09-18T11:15:24.000Z</time>
      </trkpt>
      <trkpt lat="43.48556" lon="6.7858">
        <ele>275</ele>
        <time>2013-09-18T11:15:25.000Z</time>
      </trkpt>
      <trkpt lat="43.48557" lon="6.78581">
        <ele>275</ele>
        <time>2013-09-18T11:15:26.000Z</time>
      </trkpt>
      <trkpt lat="43.48557" lon="6.78583">
        <ele>275</ele>
        <time>2013-09-18T11:15:27.000Z</time>
      </trkpt>
      <trkpt lat="43.48558" lon="6.78584">
        <ele>288</ele>
        <time>2013-09-18T11:15:28.000Z</time>
      </trkpt>
      <trkpt lat="43.48558" lon="6.78586">
        <ele>288</ele>
        <time>2013-09-18T11:15:29.000Z</time>
      </trkpt>
      <trkpt lat="43.48558" lon="6.78591">
        <ele>289</ele>
        <time>2013-09-18T11:15:32.000Z</time>
      </trkpt>
      <trkpt lat="43.48558" lon="6.78592">
        <ele>289</ele>
        <time>2013-09-18T11:15:33.000Z</time>
      </trkpt>
      <trkpt lat="43.48559" lon="6.78594">
        <ele>289</ele>
        <time>2013-09-18T11:15:34.000Z</time>
      </trkpt>
      <trkpt lat="43.48559" lon="6.78595">
        <ele>289</ele>
        <time>2013-09-18T11:15:35.000Z</time>
      </trkpt>
      <trkpt lat="43.48559" lon="6.78597">
        <ele>289</ele>
        <time>2013-09-18T11:15:36.000Z</time>
      </trkpt>
      <trkpt lat="43.48559" lon="6.78598">
        <ele>290</ele>
        <time>2013-09-18T11:15:37.000Z</time>
      </trkpt>
      <trkpt lat="43.4856" lon="6.78599">
        <ele>290</ele>
        <time>2013-09-18T11:15:38.000Z</time>
      </trkpt>
      <trkpt lat="43.4856" lon="6.78601">
        <ele>290</ele>
        <time>2013-09-18T11:15:39.000Z</time>
      </trkpt>
      <trkpt lat="43.48561" lon="6.78602">
        <ele>290</ele>
        <time>2013-09-18T11:15:40.000Z</time>
      </trkpt>
      <trkpt lat="43.48562" lon="6.78603">
        <ele>290</ele>
        <time>2013-09-18T11:15:41.000Z</time>
      </trkpt>
      <trkpt lat="43.48562" lon="6.78605">
        <ele>290</ele>
        <time>2013-09-18T11:15:42.000Z</time>
      </trkpt>
      <trkpt lat="43.48563" lon="6.78606">
        <ele>290</ele>
        <time>2013-09-18T11:15:43.000Z</time>
      </trkpt>
      <trkpt lat="43.48563" lon="6.78607">
        <ele>291</ele>
        <time>2013-09-18T11:15:44.000Z</time>
      </trkpt>
      <trkpt lat="43.48563" lon="6.78609">
        <ele>291</ele>
        <time>2013-09-18T11:15:45.000Z</time>
      </trkpt>
      <trkpt lat="43.48563" lon="6.7861">
        <ele>291</ele>
        <time>2013-09-18T11:15:46.000Z</time>
      </trkpt>
      <trkpt lat="43.48564" lon="6.78611">
        <ele>291</ele>
        <time>2013-09-18T11:15:47.000Z</time>
      </trkpt>
      <trkpt lat="43.48564" lon="6.78614">
        <ele>292</ele>
        <time>2013-09-18T11:15:49.000Z</time>
      </trkpt>
      <trkpt lat="43.48564" lon="6.78615">
        <ele>292</ele>
        <time>2013-09-18T11:15:50.000Z</time>
      </trkpt>
      <trkpt lat="43.48565" lon="6.78616">
        <ele>292</ele>
        <time>2013-09-18T11:15:51.000Z</time>
      </trkpt>
      <trkpt lat="43.48565" lon="6.78618">
        <ele>293</ele>
        <time>2013-09-18T11:15:52.000Z</time>
      </trkpt>
      <trkpt lat="43.48566" lon="6.78619">
        <ele>293</ele>
        <time>2013-09-18T11:15:53.000Z</time>
      </trkpt>
      <trkpt lat="43.48566" lon="6.78621">
        <ele>293</ele>
        <time>2013-09-18T11:15:54.000Z</time>
      </trkpt>
      <trkpt lat="43.48567" lon="6.78622">
        <ele>293</ele>
        <time>2013-09-18T11:15:55.000Z</time>
      </trkpt>
      <trkpt lat="43.48567" lon="6.78624">
        <ele>293</ele>
        <time>2013-09-18T11:15:56.000Z</time>
      </trkpt>
      <trkpt lat="43.48567" lon="6.78627">
        <ele>294</ele>
        <time>2013-09-18T11:15:58.000Z</time>
      </trkpt>
      <trkpt lat="43.48567" lon="6.78628">
        <ele>294</ele>
        <time>2013-09-18T11:15:59.000Z</time>
      </trkpt>
      <trkpt lat="43.48567" lon="6.7863">
        <ele>294</ele>
        <time>2013-09-18T11:16:01.000Z</time>
      </trkpt>
      <trkpt lat="43.48567" lon="6.7863">
        <ele>295</ele>
        <time>2013-09-18T11:16:03.000Z</time>
      </trkpt>
      <trkpt lat="43.48567" lon="6.7863">
        <ele>295</ele>
        <time>2013-09-18T11:16:04.000Z</time>
      </trkpt>
      <trkpt lat="43.48567" lon="6.7863">
        <ele>295</ele>
        <time>2013-09-18T11:16:07.000Z</time>
      </trkpt>
      <trkpt lat="43.48567" lon="6.7863">
        <ele>295</ele>
        <time>2013-09-18T11:16:10.000Z</time>
      </trkpt>
      <trkpt lat="43.48567" lon="6.7863">
        <ele>295</ele>
        <time>2013-09-18T11:16:14.000Z</time>
      </trkpt>
      <trkpt lat="43.48567" lon="6.7863">
        <ele>294</ele>
        <time>2013-09-18T11:16:20.000Z</time>
      </trkpt>
      <trkpt lat="43.48568" lon="6.7863">
        <ele>294</ele>
        <time>2013-09-18T11:16:29.000Z</time>
      </trkpt>
      <trkpt lat="43.48568" lon="6.7863">
        <ele>294</ele>
        <time>2013-09-18T11:16:33.000Z</time>
      </trkpt>
      <trkpt lat="43.48568" lon="6.78629">
        <ele>294</ele>
        <time>2013-09-18T11:16:41.000Z</time>
      </trkpt>
      <trkpt lat="43.48567" lon="6.78629">
        <ele>294</ele>
        <time>2013-09-18T11:16:44.000Z</time>
      </trkpt>
      <trkpt lat="43.48568" lon="6.78629">
        <ele>294</ele>
        <time>2013-09-18T11:16:47.000Z</time>
      </trkpt>
      <trkpt lat="43.48568" lon="6.78629">
        <ele>294</ele>
        <time>2013-09-18T11:16:55.000Z</time>
      </trkpt>
      <trkpt lat="43.48568" lon="6.78629">
        <ele>294</ele>
        <time>2013-09-18T11:16:56.000Z</time>
      </trkpt>
      <trkpt lat="43.48568" lon="6.7863">
        <ele>294</ele>
        <time>2013-09-18T11:16:58.000Z</time>
      </trkpt>
      <trkpt lat="43.48569" lon="6.78631">
        <ele>294</ele>
        <time>2013-09-18T11:16:59.000Z</time>
      </trkpt>
      <trkpt lat="43.48569" lon="6.78631">
        <ele>294</ele>
        <time>2013-09-18T11:17:00.000Z</time>
      </trkpt>
      <trkpt lat="43.48569" lon="6.78632">
        <ele>294</ele>
        <time>2013-09-18T11:17:01.000Z</time>
      </trkpt>
      <trkpt lat="43.4857" lon="6.78633">
        <ele>294</ele>
        <time>2013-09-18T11:17:02.000Z</time>
      </trkpt>
      <trkpt lat="43.4857" lon="6.78633">
        <ele>294</ele>
        <time>2013-09-18T11:17:04.000Z</time>
      </trkpt>
      <trkpt lat="43.4857" lon="6.78636">
        <ele>295</ele>
        <time>2013-09-18T11:17:08.000Z</time>
      </trkpt>
      <trkpt lat="43.4857" lon="6.78637">
        <ele>295</ele>
        <time>2013-09-18T11:17:10.000Z</time>
      </trkpt>
      <trkpt lat="43.4857" lon="6.78637">
        <ele>295</ele>
        <time>2013-09-18T11:17:11.000Z</time>
      </trkpt>
      <trkpt lat="43.4857" lon="6.78638">
        <ele>295</ele>
        <time>2013-09-18T11:17:12.000Z</time>
      </trkpt>
      <trkpt lat="43.4857" lon="6.78639">
        <ele>295</ele>
        <time>2013-09-18T11:17:13.000Z</time>
      </trkpt>
      <trkpt lat="43.4857" lon="6.7864">
        <ele>295</ele>
        <time>2013-09-18T11:17:14.000Z</time>
      </trkpt>
      <trkpt lat="43.48571" lon="6.78643">
        <ele>295</ele>
        <time>2013-09-18T11:17:16.000Z</time>
      </trkpt>
      <trkpt lat="43.48571" lon="6.78645">
        <ele>295</ele>
        <time>2013-09-18T11:17:17.000Z</time>
      </trkpt>
      <trkpt lat="43.48572" lon="6.78647">
        <ele>295</ele>
        <time>2013-09-18T11:17:18.000Z</time>
      </trkpt>
      <trkpt lat="43.48572" lon="6.78648">
        <ele>295</ele>
        <time>2013-09-18T11:17:19.000Z</time>
      </trkpt>
      <trkpt lat="43.48573" lon="6.7865">
        <ele>295</ele>
        <time>2013-09-18T11:17:20.000Z</time>
      </trkpt>
      <trkpt lat="43.48573" lon="6.78652">
        <ele>295</ele>
        <time>2013-09-18T11:17:21.000Z</time>
      </trkpt>
      <trkpt lat="43.48574" lon="6.78654">
        <ele>295</ele>
        <time>2013-09-18T11:17:22.000Z</time>
      </trkpt>
      <trkpt lat="43.48575" lon="6.78655">
        <ele>294</ele>
        <time>2013-09-18T11:17:23.000Z</time>
      </trkpt>
      <trkpt lat="43.48575" lon="6.78657">
        <ele>294</ele>
        <time>2013-09-18T11:17:24.000Z</time>
      </trkpt>
      <trkpt lat="43.48576" lon="6.78659">
        <ele>294</ele>
        <time>2013-09-18T11:17:25.000Z</time>
      </trkpt>
      <trkpt lat="43.48576" lon="6.7866">
        <ele>294</ele>
        <time>2013-09-18T11:17:26.000Z</time>
      </trkpt>
      <trkpt lat="43.48575" lon="6.7866">
        <ele>294</ele>
        <time>2013-09-18T11:17:27.000Z</time>
      </trkpt>
      <trkpt lat="43.48576" lon="6.78662">
        <ele>294</ele>
        <time>2013-09-18T11:17:28.000Z</time>
      </trkpt>
      <trkpt lat="43.48576" lon="6.78663">
        <ele>293</ele>
        <time>2013-09-18T11:17:29.000Z</time>
      </trkpt>
      <trkpt lat="43.48577" lon="6.78665">
        <ele>293</ele>
        <time>2013-09-18T11:17:30.000Z</time>
      </trkpt>
      <trkpt lat="43.48577" lon="6.78667">
        <ele>297</ele>
        <time>2013-09-18T11:17:31.000Z</time>
      </trkpt>
      <trkpt lat="43.48578" lon="6.78669">
        <ele>296</ele>
        <time>2013-09-18T11:17:32.000Z</time>
      </trkpt>
      <trkpt lat="43.48579" lon="6.7867">
        <ele>297</ele>
        <time>2013-09-18T11:17:33.000Z</time>
      </trkpt>
      <trkpt lat="43.4858" lon="6.78672">
        <ele>297</ele>
        <time>2013-09-18T11:17:34.000Z</time>
      </trkpt>
      <trkpt lat="43.4858" lon="6.78674">
        <ele>298</ele>
        <time>2013-09-18T11:17:35.000Z</time>
      </trkpt>
      <trkpt lat="43.48581" lon="6.78676">
        <ele>299</ele>
        <time>2013-09-18T11:17:36.000Z</time>
      </trkpt>
      <trkpt lat="43.48582" lon="6.78678">
        <ele>300</ele>
        <time>2013-09-18T11:17:37.000Z</time>
      </trkpt>
      <trkpt lat="43.48583" lon="6.78679">
        <ele>301</ele>
        <time>2013-09-18T11:17:38.000Z</time>
      </trkpt>
      <trkpt lat="43.48583" lon="6.7868">
        <ele>302</ele>
        <time>2013-09-18T11:17:39.000Z</time>
      </trkpt>
      <trkpt lat="43.48584" lon="6.78682">
        <ele>288</ele>
        <time>2013-09-18T11:17:40.000Z</time>
      </trkpt>
      <trkpt lat="43.48585" lon="6.78684">
        <ele>288</ele>
        <time>2013-09-18T11:17:41.000Z</time>
      </trkpt>
      <trkpt lat="43.48586" lon="6.78685">
        <ele>288</ele>
        <time>2013-09-18T11:17:42.000Z</time>
      </trkpt>
      <trkpt lat="43.48587" lon="6.78686">
        <ele>288</ele>
        <time>2013-09-18T11:17:43.000Z</time>
      </trkpt>
      <trkpt lat="43.48587" lon="6.78688">
        <ele>288</ele>
        <time>2013-09-18T11:17:44.000Z</time>
      </trkpt>
      <trkpt lat="43.48588" lon="6.7869">
        <ele>288</ele>
        <time>2013-09-18T11:17:45.000Z</time>
      </trkpt>
      <trkpt lat="43.48588" lon="6.78691">
        <ele>288</ele>
        <time>2013-09-18T11:17:46.000Z</time>
      </trkpt>
      <trkpt lat="43.48589" lon="6.78693">
        <ele>288</ele>
        <time>2013-09-18T11:17:47.000Z</time>
      </trkpt>
      <trkpt lat="43.4859" lon="6.78694">
        <ele>288</ele>
        <time>2013-09-18T11:17:48.000Z</time>
      </trkpt>
      <trkpt lat="43.4859" lon="6.78696">
        <ele>288</ele>
        <time>2013-09-18T11:17:49.000Z</time>
      </trkpt>
      <trkpt lat="43.4859" lon="6.78697">
        <ele>288</ele>
        <time>2013-09-18T11:17:50.000Z</time>
      </trkpt>
      <trkpt lat="43.48591" lon="6.78698">
        <ele>288</ele>
        <time>2013-09-18T11:17:51.000Z</time>
      </trkpt>
      <trkpt lat="43.48591" lon="6.78699">
        <ele>288</ele>
        <time>2013-09-18T11:17:52.000Z</time>
      </trkpt>
      <trkpt lat="43.48592" lon="6.787">
        <ele>288</ele>
        <time>2013-09-18T11:17:53.000Z</time>
      </trkpt>
      <trkpt lat="43.48593" lon="6.78702">
        <ele>288</ele>
        <time>2013-09-18T11:17:54.000Z</time>
      </trkpt>
      <trkpt lat="43.48593" lon="6.78703">
        <ele>288</ele>
        <time>2013-09-18T11:17:55.000Z</time>
      </trkpt>
      <trkpt lat="43.48594" lon="6.78704">
        <ele>288</ele>
        <time>2013-09-18T11:17:56.000Z</time>
      </trkpt>
      <trkpt lat="43.48595" lon="6.78706">
        <ele>288</ele>
        <time>2013-09-18T11:17:57.000Z</time>
      </trkpt>
      <trkpt lat="43.48595" lon="6.78707">
        <ele>288</ele>
        <time>2013-09-18T11:17:58.000Z</time>
      </trkpt>
      <trkpt lat="43.48595" lon="6.78708">
        <ele>289</ele>
        <time>2013-09-18T11:17:59.000Z</time>
      </trkpt>
      <trkpt lat="43.48596" lon="6.7871">
        <ele>289</ele>
        <time>2013-09-18T11:18:00.000Z</time>
      </trkpt>
      <trkpt lat="43.48597" lon="6.78711">
        <ele>289</ele>
        <time>2013-09-18T11:18:01.000Z</time>
      </trkpt>
      <trkpt lat="43.48597" lon="6.78712">
        <ele>289</ele>
        <time>2013-09-18T11:18:02.000Z</time>
      </trkpt>
      <trkpt lat="43.48598" lon="6.78713">
        <ele>289</ele>
        <time>2013-09-18T11:18:03.000Z</time>
      </trkpt>
      <trkpt lat="43.48598" lon="6.78714">
        <ele>289</ele>
        <time>2013-09-18T11:18:04.000Z</time>
      </trkpt>
      <trkpt lat="43.48599" lon="6.78716">
        <ele>289</ele>
        <time>2013-09-18T11:18:05.000Z</time>
      </trkpt>
      <trkpt lat="43.48599" lon="6.78717">
        <ele>289</ele>
        <time>2013-09-18T11:18:06.000Z</time>
      </trkpt>
      <trkpt lat="43.486" lon="6.78719">
        <ele>290</ele>
        <time>2013-09-18T11:18:07.000Z</time>
      </trkpt>
      <trkpt lat="43.486" lon="6.7872">
        <ele>290</ele>
        <time>2013-09-18T11:18:08.000Z</time>
      </trkpt>
      <trkpt lat="43.48601" lon="6.78722">
        <ele>290</ele>
        <time>2013-09-18T11:18:09.000Z</time>
      </trkpt>
      <trkpt lat="43.48601" lon="6.78723">
        <ele>290</ele>
        <time>2013-09-18T11:18:10.000Z</time>
      </trkpt>
      <trkpt lat="43.48602" lon="6.78724">
        <ele>290</ele>
        <time>2013-09-18T11:18:11.000Z</time>
      </trkpt>
      <trkpt lat="43.48603" lon="6.78726">
        <ele>291</ele>
        <time>2013-09-18T11:18:12.000Z</time>
      </trkpt>
      <trkpt lat="43.48603" lon="6.78727">
        <ele>291</ele>
        <time>2013-09-18T11:18:13.000Z</time>
      </trkpt>
      <trkpt lat="43.48604" lon="6.78729">
        <ele>291</ele>
        <time>2013-09-18T11:18:14.000Z</time>
      </trkpt>
      <trkpt lat="43.48604" lon="6.7873">
        <ele>291</ele>
        <time>2013-09-18T11:18:15.000Z</time>
      </trkpt>
      <trkpt lat="43.48605" lon="6.78731">
        <ele>291</ele>
        <time>2013-09-18T11:18:16.000Z</time>
      </trkpt>
      <trkpt lat="43.48606" lon="6.78733">
        <ele>291</ele>
        <time>2013-09-18T11:18:17.000Z</time>
      </trkpt>
      <trkpt lat="43.48606" lon="6.78735">
        <ele>291</ele>
        <time>2013-09-18T11:18:18.000Z</time>
      </trkpt>
      <trkpt lat="43.48607" lon="6.78736">
        <ele>292</ele>
        <time>2013-09-18T11:18:19.000Z</time>
      </trkpt>
      <trkpt lat="43.48608" lon="6.78738">
        <ele>292</ele>
        <time>2013-09-18T11:18:20.000Z</time>
      </trkpt>
      <trkpt lat="43.48608" lon="6.7874">
        <ele>292</ele>
        <time>2013-09-18T11:18:21.000Z</time>
      </trkpt>
      <trkpt lat="43.48609" lon="6.78741">
        <ele>292</ele>
        <time>2013-09-18T11:18:22.000Z</time>
      </trkpt>
      <trkpt lat="43.48609" lon="6.78743">
        <ele>292</ele>
        <time>2013-09-18T11:18:23.000Z</time>
      </trkpt>
      <trkpt lat="43.4861" lon="6.78744">
        <ele>292</ele>
        <time>2013-09-18T11:18:24.000Z</time>
      </trkpt>
      <trkpt lat="43.48611" lon="6.78745">
        <ele>291</ele>
        <time>2013-09-18T11:18:25.000Z</time>
      </trkpt>
      <trkpt lat="43.48611" lon="6.78747">
        <ele>291</ele>
        <time>2013-09-18T11:18:26.000Z</time>
      </trkpt>
      <trkpt lat="43.48611" lon="6.78748">
        <ele>291</ele>
        <time>2013-09-18T11:18:27.000Z</time>
      </trkpt>
      <trkpt lat="43.48612" lon="6.7875">
        <ele>291</ele>
        <time>2013-09-18T11:18:28.000Z</time>
      </trkpt>
      <trkpt lat="43.48612" lon="6.78751">
        <ele>303</ele>
        <time>2013-09-18T11:18:29.000Z</time>
      </trkpt>
      <trkpt lat="43.48612" lon="6.78753">
        <ele>303</ele>
        <time>2013-09-18T11:18:30.000Z</time>
      </trkpt>
      <trkpt lat="43.48613" lon="6.78754">
        <ele>303</ele>
        <time>2013-09-18T11:18:31.000Z</time>
      </trkpt>
      <trkpt lat="43.48614" lon="6.78756">
        <ele>303</ele>
        <time>2013-09-18T11:18:32.000Z</time>
      </trkpt>
      <trkpt lat="43.48615" lon="6.78757">
        <ele>303</ele>
        <time>2013-09-18T11:18:33.000Z</time>
      </trkpt>
      <trkpt lat="43.48615" lon="6.78759">
        <ele>303</ele>
        <time>2013-09-18T11:18:34.000Z</time>
      </trkpt>
      <trkpt lat="43.48616" lon="6.78761">
        <ele>303</ele>
        <time>2013-09-18T11:18:35.000Z</time>
      </trkpt>
      <trkpt lat="43.48617" lon="6.78762">
        <ele>303</ele>
        <time>2013-09-18T11:18:36.000Z</time>
      </trkpt>
      <trkpt lat="43.48617" lon="6.78764">
        <ele>303</ele>
        <time>2013-09-18T11:18:37.000Z</time>
      </trkpt>
      <trkpt lat="43.48617" lon="6.78765">
        <ele>303</ele>
        <time>2013-09-18T11:18:38.000Z</time>
      </trkpt>
      <trkpt lat="43.48618" lon="6.78767">
        <ele>303</ele>
        <time>2013-09-18T11:18:39.000Z</time>
      </trkpt>
      <trkpt lat="43.48618" lon="6.78769">
        <ele>303</ele>
        <time>2013-09-18T11:18:40.000Z</time>
      </trkpt>
      <trkpt lat="43.48618" lon="6.78774">
        <ele>304</ele>
        <time>2013-09-18T11:18:43.000Z</time>
      </trkpt>
      <trkpt lat="43.48619" lon="6.78775">
        <ele>304</ele>
        <time>2013-09-18T11:18:44.000Z</time>
      </trkpt>
      <trkpt lat="43.48619" lon="6.78777">
        <ele>304</ele>
        <time>2013-09-18T11:18:45.000Z</time>
      </trkpt>
      <trkpt lat="43.48619" lon="6.78779">
        <ele>304</ele>
        <time>2013-09-18T11:18:46.000Z</time>
      </trkpt>
      <trkpt lat="43.4862" lon="6.7878">
        <ele>304</ele>
        <time>2013-09-18T11:18:47.000Z</time>
      </trkpt>
      <trkpt lat="43.4862" lon="6.78782">
        <ele>304</ele>
        <time>2013-09-18T11:18:48.000Z</time>
      </trkpt>
      <trkpt lat="43.4862" lon="6.78783">
        <ele>304</ele>
        <time>2013-09-18T11:18:49.000Z</time>
      </trkpt>
      <trkpt lat="43.48621" lon="6.78784">
        <ele>304</ele>
        <time>2013-09-18T11:18:50.000Z</time>
      </trkpt>
      <trkpt lat="43.48621" lon="6.78786">
        <ele>305</ele>
        <time>2013-09-18T11:18:51.000Z</time>
      </trkpt>
      <trkpt lat="43.48621" lon="6.78787">
        <ele>305</ele>
        <time>2013-09-18T11:18:52.000Z</time>
      </trkpt>
      <trkpt lat="43.48621" lon="6.7879">
        <ele>305</ele>
        <time>2013-09-18T11:18:54.000Z</time>
      </trkpt>
      <trkpt lat="43.48621" lon="6.78793">
        <ele>306</ele>
        <time>2013-09-18T11:18:56.000Z</time>
      </trkpt>
      <trkpt lat="43.48621" lon="6.78794">
        <ele>306</ele>
        <time>2013-09-18T11:18:57.000Z</time>
      </trkpt>
      <trkpt lat="43.48622" lon="6.78797">
        <ele>306</ele>
        <time>2013-09-18T11:18:59.000Z</time>
      </trkpt>
      <trkpt lat="43.48622" lon="6.78799">
        <ele>306</ele>
        <time>2013-09-18T11:19:00.000Z</time>
      </trkpt>
      <trkpt lat="43.48622" lon="6.78802">
        <ele>307</ele>
        <time>2013-09-18T11:19:02.000Z</time>
      </trkpt>
      <trkpt lat="43.48622" lon="6.78804">
        <ele>307</ele>
        <time>2013-09-18T11:19:03.000Z</time>
      </trkpt>
      <trkpt lat="43.48622" lon="6.78805">
        <ele>307</ele>
        <time>2013-09-18T11:19:04.000Z</time>
      </trkpt>
      <trkpt lat="43.48621" lon="6.78806">
        <ele>307</ele>
        <time>2013-09-18T11:19:05.000Z</time>
      </trkpt>
      <trkpt lat="43.48622" lon="6.78808">
        <ele>307</ele>
        <time>2013-09-18T11:19:06.000Z</time>
      </trkpt>
      <trkpt lat="43.48622" lon="6.78814">
        <ele>308</ele>
        <time>2013-09-18T11:19:10.000Z</time>
      </trkpt>
      <trkpt lat="43.48622" lon="6.78815">
        <ele>308</ele>
        <time>2013-09-18T11:19:11.000Z</time>
      </trkpt>
      <trkpt lat="43.48622" lon="6.78817">
        <ele>308</ele>
        <time>2013-09-18T11:19:12.000Z</time>
      </trkpt>
      <trkpt lat="43.48623" lon="6.78818">
        <ele>308</ele>
        <time>2013-09-18T11:19:13.000Z</time>
      </trkpt>
      <trkpt lat="43.48623" lon="6.7882">
        <ele>309</ele>
        <time>2013-09-18T11:19:14.000Z</time>
      </trkpt>
      <trkpt lat="43.48623" lon="6.78823">
        <ele>309</ele>
        <time>2013-09-18T11:19:16.000Z</time>
      </trkpt>
      <trkpt lat="43.48623" lon="6.78824">
        <ele>309</ele>
        <time>2013-09-18T11:19:17.000Z</time>
      </trkpt>
      <trkpt lat="43.48623" lon="6.78826">
        <ele>309</ele>
        <time>2013-09-18T11:19:18.000Z</time>
      </trkpt>
      <trkpt lat="43.48623" lon="6.78827">
        <ele>309</ele>
        <time>2013-09-18T11:19:19.000Z</time>
      </trkpt>
      <trkpt lat="43.48624" lon="6.78828">
        <ele>309</ele>
        <time>2013-09-18T11:19:20.000Z</time>
      </trkpt>
      <trkpt lat="43.48624" lon="6.7883">
        <ele>309</ele>
        <time>2013-09-18T11:19:21.000Z</time>
      </trkpt>
      <trkpt lat="43.48625" lon="6.78831">
        <ele>309</ele>
        <time>2013-09-18T11:19:22.000Z</time>
      </trkpt>
      <trkpt lat="43.48625" lon="6.78832">
        <ele>309</ele>
        <time>2013-09-18T11:19:23.000Z</time>
      </trkpt>
      <trkpt lat="43.48626" lon="6.78834">
        <ele>322</ele>
        <time>2013-09-18T11:19:24.000Z</time>
      </trkpt>
      <trkpt lat="43.48626" lon="6.78835">
        <ele>322</ele>
        <time>2013-09-18T11:19:25.000Z</time>
      </trkpt>
      <trkpt lat="43.48627" lon="6.78836">
        <ele>322</ele>
        <time>2013-09-18T11:19:26.000Z</time>
      </trkpt>
      <trkpt lat="43.48628" lon="6.78838">
        <ele>322</ele>
        <time>2013-09-18T11:19:27.000Z</time>
      </trkpt>
      <trkpt lat="43.48629" lon="6.78839">
        <ele>322</ele>
        <time>2013-09-18T11:19:28.000Z</time>
      </trkpt>
      <trkpt lat="43.48629" lon="6.7884">
        <ele>322</ele>
        <time>2013-09-18T11:19:29.000Z</time>
      </trkpt>
      <trkpt lat="43.4863" lon="6.78841">
        <ele>321</ele>
        <time>2013-09-18T11:19:30.000Z</time>
      </trkpt>
      <trkpt lat="43.48631" lon="6.78842">
        <ele>321</ele>
        <time>2013-09-18T11:19:31.000Z</time>
      </trkpt>
      <trkpt lat="43.48632" lon="6.78843">
        <ele>321</ele>
        <time>2013-09-18T11:19:32.000Z</time>
      </trkpt>
      <trkpt lat="43.48633" lon="6.78844">
        <ele>321</ele>
        <time>2013-09-18T11:19:33.000Z</time>
      </trkpt>
      <trkpt lat="43.48634" lon="6.78845">
        <ele>321</ele>
        <time>2013-09-18T11:19:34.000Z</time>
      </trkpt>
      <trkpt lat="43.48635" lon="6.78846">
        <ele>321</ele>
        <time>2013-09-18T11:19:35.000Z</time>
      </trkpt>
      <trkpt lat="43.48636" lon="6.78846">
        <ele>321</ele>
        <time>2013-09-18T11:19:36.000Z</time>
      </trkpt>
      <trkpt lat="43.48637" lon="6.78847">
        <ele>321</ele>
        <time>2013-09-18T11:19:37.000Z</time>
      </trkpt>
      <trkpt lat="43.48638" lon="6.78848">
        <ele>320</ele>
        <time>2013-09-18T11:19:38.000Z</time>
      </trkpt>
      <trkpt lat="43.48639" lon="6.78849">
        <ele>320</ele>
        <time>2013-09-18T11:19:39.000Z</time>
      </trkpt>
      <trkpt lat="43.4864" lon="6.7885">
        <ele>320</ele>
        <time>2013-09-18T11:19:40.000Z</time>
      </trkpt>
      <trkpt lat="43.48641" lon="6.7885">
        <ele>320</ele>
        <time>2013-09-18T11:19:41.000Z</time>
      </trkpt>
      <trkpt lat="43.48642" lon="6.78851">
        <ele>320</ele>
        <time>2013-09-18T11:19:42.000Z</time>
      </trkpt>
      <trkpt lat="43.48644" lon="6.78851">
        <ele>320</ele>
        <time>2013-09-18T11:19:43.000Z</time>
      </trkpt>
      <trkpt lat="43.48645" lon="6.78851">
        <ele>319</ele>
        <time>2013-09-18T11:19:44.000Z</time>
      </trkpt>
      <trkpt lat="43.48646" lon="6.78852">
        <ele>319</ele>
        <time>2013-09-18T11:19:45.000Z</time>
      </trkpt>
      <trkpt lat="43.48647" lon="6.78852">
        <ele>319</ele>
        <time>2013-09-18T11:19:46.000Z</time>
      </trkpt>
      <trkpt lat="43.48648" lon="6.78853">
        <ele>319</ele>
        <time>2013-09-18T11:19:47.000Z</time>
      </trkpt>
      <trkpt lat="43.48649" lon="6.78853">
        <ele>319</ele>
        <time>2013-09-18T11:19:48.000Z</time>
      </trkpt>
      <trkpt lat="43.4865" lon="6.78853">
        <ele>319</ele>
        <time>2013-09-18T11:19:49.000Z</time>
      </trkpt>
      <trkpt lat="43.48652" lon="6.78854">
        <ele>318</ele>
        <time>2013-09-18T11:19:50.000Z</time>
      </trkpt>
      <trkpt lat="43.48653" lon="6.78854">
        <ele>318</ele>
        <time>2013-09-18T11:19:51.000Z</time>
      </trkpt>
      <trkpt lat="43.48654" lon="6.78854">
        <ele>318</ele>
        <time>2013-09-18T11:19:52.000Z</time>
      </trkpt>
      <trkpt lat="43.48655" lon="6.78855">
        <ele>318</ele>
        <time>2013-09-18T11:19:53.000Z</time>
      </trkpt>
      <trkpt lat="43.48656" lon="6.78855">
        <ele>318</ele>
        <time>2013-09-18T11:19:54.000Z</time>
      </trkpt>
      <trkpt lat="43.48657" lon="6.78856">
        <ele>318</ele>
        <time>2013-09-18T11:19:55.000Z</time>
      </trkpt>
      <trkpt lat="43.48658" lon="6.78857">
        <ele>318</ele>
        <time>2013-09-18T11:19:56.000Z</time>
      </trkpt>
      <trkpt lat="43.4866" lon="6.78857">
        <ele>318</ele>
        <time>2013-09-18T11:19:57.000Z</time>
      </trkpt>
      <trkpt lat="43.48661" lon="6.78858">
        <ele>318</ele>
        <time>2013-09-18T11:19:58.000Z</time>
      </trkpt>
      <trkpt lat="43.48662" lon="6.78859">
        <ele>318</ele>
        <time>2013-09-18T11:19:59.000Z</time>
      </trkpt>
      <trkpt lat="43.48663" lon="6.78859">
        <ele>318</ele>
        <time>2013-09-18T11:20:00.000Z</time>
      </trkpt>
      <trkpt lat="43.48664" lon="6.7886">
        <ele>319</ele>
        <time>2013-09-18T11:20:01.000Z</time>
      </trkpt>
      <trkpt lat="43.48665" lon="6.7886">
        <ele>319</ele>
        <time>2013-09-18T11:20:02.000Z</time>
      </trkpt>
      <trkpt lat="43.48668" lon="6.7886">
        <ele>312</ele>
        <time>2013-09-18T11:20:04.000Z</time>
      </trkpt>
      <trkpt lat="43.48669" lon="6.7886">
        <ele>312</ele>
        <time>2013-09-18T11:20:05.000Z</time>
      </trkpt>
      <trkpt lat="43.4867" lon="6.78861">
        <ele>312</ele>
        <time>2013-09-18T11:20:06.000Z</time>
      </trkpt>
      <trkpt lat="43.48672" lon="6.78861">
        <ele>312</ele>
        <time>2013-09-18T11:20:07.000Z</time>
      </trkpt>
      <trkpt lat="43.48673" lon="6.78861">
        <ele>312</ele>
        <time>2013-09-18T11:20:08.000Z</time>
      </trkpt>
      <trkpt lat="43.48675" lon="6.78861">
        <ele>312</ele>
        <time>2013-09-18T11:20:10.000Z</time>
      </trkpt>
      <trkpt lat="43.48678" lon="6.78862">
        <ele>312</ele>
        <time>2013-09-18T11:20:12.000Z</time>
      </trkpt>
      <trkpt lat="43.48679" lon="6.78862">
        <ele>312</ele>
        <time>2013-09-18T11:20:13.000Z</time>
      </trkpt>
      <trkpt lat="43.4868" lon="6.78863">
        <ele>312</ele>
        <time>2013-09-18T11:20:14.000Z</time>
      </trkpt>
      <trkpt lat="43.48681" lon="6.78863">
        <ele>313</ele>
        <time>2013-09-18T11:20:15.000Z</time>
      </trkpt>
      <trkpt lat="43.48683" lon="6.78863">
        <ele>313</ele>
        <time>2013-09-18T11:20:16.000Z</time>
      </trkpt>
      <trkpt lat="43.48684" lon="6.78864">
        <ele>313</ele>
        <time>2013-09-18T11:20:17.000Z</time>
      </trkpt>
      <trkpt lat="43.48685" lon="6.78864">
        <ele>313</ele>
        <time>2013-09-18T11:20:18.000Z</time>
      </trkpt>
      <trkpt lat="43.48687" lon="6.78864">
        <ele>313</ele>
        <time>2013-09-18T11:20:19.000Z</time>
      </trkpt>
      <trkpt lat="43.48691" lon="6.78864">
        <ele>313</ele>
        <time>2013-09-18T11:20:22.000Z</time>
      </trkpt>
      <trkpt lat="43.48692" lon="6.78864">
        <ele>313</ele>
        <time>2013-09-18T11:20:23.000Z</time>
      </trkpt>
      <trkpt lat="43.48693" lon="6.78865">
        <ele>313</ele>
        <time>2013-09-18T11:20:24.000Z</time>
      </trkpt>
      <trkpt lat="43.48695" lon="6.78865">
        <ele>313</ele>
        <time>2013-09-18T11:20:25.000Z</time>
      </trkpt>
      <trkpt lat="43.48696" lon="6.78865">
        <ele>313</ele>
        <time>2013-09-18T11:20:26.000Z</time>
      </trkpt>
      <trkpt lat="43.48697" lon="6.78866">
        <ele>313</ele>
        <time>2013-09-18T11:20:27.000Z</time>
      </trkpt>
      <trkpt lat="43.48699" lon="6.78866">
        <ele>313</ele>
        <time>2013-09-18T11:20:28.000Z</time>
      </trkpt>
      <trkpt lat="43.487" lon="6.78866">
        <ele>313</ele>
        <time>2013-09-18T11:20:29.000Z</time>
      </trkpt>
      <trkpt lat="43.48701" lon="6.78867">
        <ele>313</ele>
        <time>2013-09-18T11:20:30.000Z</time>
      </trkpt>
      <trkpt lat="43.48702" lon="6.78867">
        <ele>313</ele>
        <time>2013-09-18T11:20:31.000Z</time>
      </trkpt>
      <trkpt lat="43.48703" lon="6.78868">
        <ele>313</ele>
        <time>2013-09-18T11:20:32.000Z</time>
      </trkpt>
      <trkpt lat="43.48704" lon="6.78868">
        <ele>313</ele>
        <time>2013-09-18T11:20:33.000Z</time>
      </trkpt>
      <trkpt lat="43.48706" lon="6.78869">
        <ele>313</ele>
        <time>2013-09-18T11:20:34.000Z</time>
      </trkpt>
      <trkpt lat="43.48707" lon="6.7887">
        <ele>313</ele>
        <time>2013-09-18T11:20:35.000Z</time>
      </trkpt>
      <trkpt lat="43.48708" lon="6.7887">
        <ele>313</ele>
        <time>2013-09-18T11:20:36.000Z</time>
      </trkpt>
      <trkpt lat="43.48709" lon="6.78871">
        <ele>313</ele>
        <time>2013-09-18T11:20:37.000Z</time>
      </trkpt>
      <trkpt lat="43.48711" lon="6.78871">
        <ele>313</ele>
        <time>2013-09-18T11:20:38.000Z</time>
      </trkpt>
      <trkpt lat="43.48712" lon="6.78871">
        <ele>313</ele>
        <time>2013-09-18T11:20:39.000Z</time>
      </trkpt>
      <trkpt lat="43.48713" lon="6.78872">
        <ele>313</ele>
        <time>2013-09-18T11:20:40.000Z</time>
      </trkpt>
      <trkpt lat="43.48715" lon="6.78872">
        <ele>314</ele>
        <time>2013-09-18T11:20:41.000Z</time>
      </trkpt>
      <trkpt lat="43.48716" lon="6.78873">
        <ele>314</ele>
        <time>2013-09-18T11:20:42.000Z</time>
      </trkpt>
      <trkpt lat="43.48717" lon="6.78873">
        <ele>314</ele>
        <time>2013-09-18T11:20:43.000Z</time>
      </trkpt>
      <trkpt lat="43.48719" lon="6.78874">
        <ele>314</ele>
        <time>2013-09-18T11:20:44.000Z</time>
      </trkpt>
      <trkpt lat="43.4872" lon="6.78874">
        <ele>314</ele>
        <time>2013-09-18T11:20:45.000Z</time>
      </trkpt>
      <trkpt lat="43.48721" lon="6.78875">
        <ele>314</ele>
        <time>2013-09-18T11:20:46.000Z</time>
      </trkpt>
      <trkpt lat="43.48723" lon="6.78875">
        <ele>314</ele>
        <time>2013-09-18T11:20:47.000Z</time>
      </trkpt>
      <trkpt lat="43.48724" lon="6.78875">
        <ele>314</ele>
        <time>2013-09-18T11:20:48.000Z</time>
      </trkpt>
      <trkpt lat="43.48726" lon="6.78876">
        <ele>314</ele>
        <time>2013-09-18T11:20:49.000Z</time>
      </trkpt>
      <trkpt lat="43.48728" lon="6.78876">
        <ele>314</ele>
        <time>2013-09-18T11:20:50.000Z</time>
      </trkpt>
      <trkpt lat="43.48729" lon="6.78877">
        <ele>314</ele>
        <time>2013-09-18T11:20:51.000Z</time>
      </trkpt>
      <trkpt lat="43.4873" lon="6.78877">
        <ele>314</ele>
        <time>2013-09-18T11:20:52.000Z</time>
      </trkpt>
      <trkpt lat="43.48732" lon="6.78878">
        <ele>314</ele>
        <time>2013-09-18T11:20:53.000Z</time>
      </trkpt>
      <trkpt lat="43.48733" lon="6.78878">
        <ele>314</ele>
        <time>2013-09-18T11:20:54.000Z</time>
      </trkpt>
      <trkpt lat="43.48735" lon="6.78879">
        <ele>314</ele>
        <time>2013-09-18T11:20:55.000Z</time>
      </trkpt>
      <trkpt lat="43.48736" lon="6.7888">
        <ele>315</ele>
        <time>2013-09-18T11:20:56.000Z</time>
      </trkpt>
      <trkpt lat="43.48737" lon="6.78881">
        <ele>315</ele>
        <time>2013-09-18T11:20:57.000Z</time>
      </trkpt>
      <trkpt lat="43.48739" lon="6.78881">
        <ele>315</ele>
        <time>2013-09-18T11:20:58.000Z</time>
      </trkpt>
      <trkpt lat="43.4874" lon="6.78881">
        <ele>315</ele>
        <time>2013-09-18T11:20:59.000Z</time>
      </trkpt>
      <trkpt lat="43.48742" lon="6.78882">
        <ele>315</ele>
        <time>2013-09-18T11:21:00.000Z</time>
      </trkpt>
      <trkpt lat="43.48743" lon="6.78882">
        <ele>315</ele>
        <time>2013-09-18T11:21:01.000Z</time>
      </trkpt>
      <trkpt lat="43.48745" lon="6.78883">
        <ele>315</ele>
        <time>2013-09-18T11:21:02.000Z</time>
      </trkpt>
      <trkpt lat="43.48746" lon="6.78884">
        <ele>315</ele>
        <time>2013-09-18T11:21:03.000Z</time>
      </trkpt>
      <trkpt lat="43.48747" lon="6.78885">
        <ele>316</ele>
        <time>2013-09-18T11:21:04.000Z</time>
      </trkpt>
      <trkpt lat="43.48748" lon="6.78885">
        <ele>316</ele>
        <time>2013-09-18T11:21:05.000Z</time>
      </trkpt>
      <trkpt lat="43.4875" lon="6.78886">
        <ele>316</ele>
        <time>2013-09-18T11:21:06.000Z</time>
      </trkpt>
      <trkpt lat="43.48751" lon="6.78887">
        <ele>316</ele>
        <time>2013-09-18T11:21:07.000Z</time>
      </trkpt>
      <trkpt lat="43.48752" lon="6.78888">
        <ele>316</ele>
        <time>2013-09-18T11:21:08.000Z</time>
      </trkpt>
      <trkpt lat="43.48754" lon="6.78889">
        <ele>316</ele>
        <time>2013-09-18T11:21:09.000Z</time>
      </trkpt>
      <trkpt lat="43.48755" lon="6.7889">
        <ele>316</ele>
        <time>2013-09-18T11:21:10.000Z</time>
      </trkpt>
      <trkpt lat="43.48756" lon="6.7889">
        <ele>316</ele>
        <time>2013-09-18T11:21:11.000Z</time>
      </trkpt>
      <trkpt lat="43.48758" lon="6.78891">
        <ele>317</ele>
        <time>2013-09-18T11:21:12.000Z</time>
      </trkpt>
      <trkpt lat="43.48759" lon="6.78892">
        <ele>317</ele>
        <time>2013-09-18T11:21:13.000Z</time>
      </trkpt>
      <trkpt lat="43.4876" lon="6.78893">
        <ele>317</ele>
        <time>2013-09-18T11:21:14.000Z</time>
      </trkpt>
      <trkpt lat="43.48761" lon="6.78894">
        <ele>317</ele>
        <time>2013-09-18T11:21:15.000Z</time>
      </trkpt>
      <trkpt lat="43.48762" lon="6.78895">
        <ele>317</ele>
        <time>2013-09-18T11:21:16.000Z</time>
      </trkpt>
      <trkpt lat="43.48763" lon="6.78896">
        <ele>317</ele>
        <time>2013-09-18T11:21:17.000Z</time>
      </trkpt>
      <trkpt lat="43.48764" lon="6.78897">
        <ele>318</ele>
        <time>2013-09-18T11:21:18.000Z</time>
      </trkpt>
      <trkpt lat="43.48765" lon="6.78898">
        <ele>318</ele>
        <time>2013-09-18T11:21:19.000Z</time>
      </trkpt>
      <trkpt lat="43.48767" lon="6.78899">
        <ele>318</ele>
        <time>2013-09-18T11:21:20.000Z</time>
      </trkpt>
      <trkpt lat="43.48768" lon="6.789">
        <ele>318</ele>
        <time>2013-09-18T11:21:21.000Z</time>
      </trkpt>
      <trkpt lat="43.48769" lon="6.78902">
        <ele>318</ele>
        <time>2013-09-18T11:21:22.000Z</time>
      </trkpt>
      <trkpt lat="43.48769" lon="6.78903">
        <ele>318</ele>
        <time>2013-09-18T11:21:23.000Z</time>
      </trkpt>
      <trkpt lat="43.4877" lon="6.78905">
        <ele>318</ele>
        <time>2013-09-18T11:21:24.000Z</time>
      </trkpt>
      <trkpt lat="43.48771" lon="6.78906">
        <ele>318</ele>
        <time>2013-09-18T11:21:25.000Z</time>
      </trkpt>
      <trkpt lat="43.48772" lon="6.78907">
        <ele>318</ele>
        <time>2013-09-18T11:21:26.000Z</time>
      </trkpt>
      <trkpt lat="43.48773" lon="6.78908">
        <ele>318</ele>
        <time>2013-09-18T11:21:27.000Z</time>
      </trkpt>
      <trkpt lat="43.48775" lon="6.78909">
        <ele>318</ele>
        <time>2013-09-18T11:21:28.000Z</time>
      </trkpt>
      <trkpt lat="43.48776" lon="6.7891">
        <ele>318</ele>
        <time>2013-09-18T11:21:29.000Z</time>
      </trkpt>
      <trkpt lat="43.48777" lon="6.78911">
        <ele>318</ele>
        <time>2013-09-18T11:21:30.000Z</time>
      </trkpt>
      <trkpt lat="43.48778" lon="6.78912">
        <ele>318</ele>
        <time>2013-09-18T11:21:31.000Z</time>
      </trkpt>
      <trkpt lat="43.48779" lon="6.78913">
        <ele>318</ele>
        <time>2013-09-18T11:21:32.000Z</time>
      </trkpt>
      <trkpt lat="43.4878" lon="6.78914">
        <ele>318</ele>
        <time>2013-09-18T11:21:33.000Z</time>
      </trkpt>
      <trkpt lat="43.48781" lon="6.78915">
        <ele>318</ele>
        <time>2013-09-18T11:21:34.000Z</time>
      </trkpt>
      <trkpt lat="43.48782" lon="6.78916">
        <ele>318</ele>
        <time>2013-09-18T11:21:35.000Z</time>
      </trkpt>
      <trkpt lat="43.48783" lon="6.78917">
        <ele>335</ele>
        <time>2013-09-18T11:21:36.000Z</time>
      </trkpt>
      <trkpt lat="43.48784" lon="6.78918">
        <ele>335</ele>
        <time>2013-09-18T11:21:37.000Z</time>
      </trkpt>
      <trkpt lat="43.48786" lon="6.78919">
        <ele>335</ele>
        <time>2013-09-18T11:21:38.000Z</time>
      </trkpt>
      <trkpt lat="43.48787" lon="6.7892">
        <ele>335</ele>
        <time>2013-09-18T11:21:39.000Z</time>
      </trkpt>
      <trkpt lat="43.48788" lon="6.78921">
        <ele>335</ele>
        <time>2013-09-18T11:21:40.000Z</time>
      </trkpt>
      <trkpt lat="43.48789" lon="6.78921">
        <ele>335</ele>
        <time>2013-09-18T11:21:41.000Z</time>
      </trkpt>
      <trkpt lat="43.4879" lon="6.78922">
        <ele>335</ele>
        <time>2013-09-18T11:21:42.000Z</time>
      </trkpt>
      <trkpt lat="43.48792" lon="6.78922">
        <ele>336</ele>
        <time>2013-09-18T11:21:43.000Z</time>
      </trkpt>
      <trkpt lat="43.48793" lon="6.78923">
        <ele>336</ele>
        <time>2013-09-18T11:21:44.000Z</time>
      </trkpt>
      <trkpt lat="43.48794" lon="6.78923">
        <ele>336</ele>
        <time>2013-09-18T11:21:45.000Z</time>
      </trkpt>
      <trkpt lat="43.48795" lon="6.78923">
        <ele>336</ele>
        <time>2013-09-18T11:21:46.000Z</time>
      </trkpt>
      <trkpt lat="43.48797" lon="6.78923">
        <ele>336</ele>
        <time>2013-09-18T11:21:47.000Z</time>
      </trkpt>
      <trkpt lat="43.48798" lon="6.78923">
        <ele>335</ele>
        <time>2013-09-18T11:21:48.000Z</time>
      </trkpt>
      <trkpt lat="43.48799" lon="6.78923">
        <ele>335</ele>
        <time>2013-09-18T11:21:49.000Z</time>
      </trkpt>
      <trkpt lat="43.48803" lon="6.78924">
        <ele>335</ele>
        <time>2013-09-18T11:21:52.000Z</time>
      </trkpt>
      <trkpt lat="43.48804" lon="6.78923">
        <ele>335</ele>
        <time>2013-09-18T11:21:53.000Z</time>
      </trkpt>
      <trkpt lat="43.48808" lon="6.78923">
        <ele>335</ele>
        <time>2013-09-18T11:21:56.000Z</time>
      </trkpt>
      <trkpt lat="43.48809" lon="6.78923">
        <ele>334</ele>
        <time>2013-09-18T11:21:57.000Z</time>
      </trkpt>
      <trkpt lat="43.48812" lon="6.78923">
        <ele>334</ele>
        <time>2013-09-18T11:21:59.000Z</time>
      </trkpt>
      <trkpt lat="43.48813" lon="6.78923">
        <ele>334</ele>
        <time>2013-09-18T11:22:00.000Z</time>
      </trkpt>
      <trkpt lat="43.48814" lon="6.78923">
        <ele>334</ele>
        <time>2013-09-18T11:22:01.000Z</time>
      </trkpt>
      <trkpt lat="43.48815" lon="6.78922">
        <ele>333</ele>
        <time>2013-09-18T11:22:02.000Z</time>
      </trkpt>
      <trkpt lat="43.48817" lon="6.78922">
        <ele>333</ele>
        <time>2013-09-18T11:22:03.000Z</time>
      </trkpt>
      <trkpt lat="43.48818" lon="6.78921">
        <ele>333</ele>
        <time>2013-09-18T11:22:04.000Z</time>
      </trkpt>
      <trkpt lat="43.48819" lon="6.78921">
        <ele>332</ele>
        <time>2013-09-18T11:22:05.000Z</time>
      </trkpt>
      <trkpt lat="43.4882" lon="6.7892">
        <ele>332</ele>
        <time>2013-09-18T11:22:06.000Z</time>
      </trkpt>
      <trkpt lat="43.48822" lon="6.7892">
        <ele>331</ele>
        <time>2013-09-18T11:22:07.000Z</time>
      </trkpt>
      <trkpt lat="43.48823" lon="6.78919">
        <ele>331</ele>
        <time>2013-09-18T11:22:08.000Z</time>
      </trkpt>
      <trkpt lat="43.48824" lon="6.78919">
        <ele>331</ele>
        <time>2013-09-18T11:22:09.000Z</time>
      </trkpt>
      <trkpt lat="43.48825" lon="6.78919">
        <ele>330</ele>
        <time>2013-09-18T11:22:10.000Z</time>
      </trkpt>
      <trkpt lat="43.48827" lon="6.78918">
        <ele>329</ele>
        <time>2013-09-18T11:22:11.000Z</time>
      </trkpt>
      <trkpt lat="43.48829" lon="6.78918">
        <ele>328</ele>
        <time>2013-09-18T11:22:13.000Z</time>
      </trkpt>
      <trkpt lat="43.48831" lon="6.78918">
        <ele>328</ele>
        <time>2013-09-18T11:22:14.000Z</time>
      </trkpt>
      <trkpt lat="43.48832" lon="6.78918">
        <ele>327</ele>
        <time>2013-09-18T11:22:15.000Z</time>
      </trkpt>
      <trkpt lat="43.48834" lon="6.78918">
        <ele>327</ele>
        <time>2013-09-18T11:22:17.000Z</time>
      </trkpt>
      <trkpt lat="43.48836" lon="6.78917">
        <ele>328</ele>
        <time>2013-09-18T11:22:18.000Z</time>
      </trkpt>
      <trkpt lat="43.48837" lon="6.78917">
        <ele>329</ele>
        <time>2013-09-18T11:22:19.000Z</time>
      </trkpt>
      <trkpt lat="43.48842" lon="6.78917">
        <ele>332</ele>
        <time>2013-09-18T11:22:23.000Z</time>
      </trkpt>
      <trkpt lat="43.48844" lon="6.78917">
        <ele>333</ele>
        <time>2013-09-18T11:22:24.000Z</time>
      </trkpt>
      <trkpt lat="43.48845" lon="6.78917">
        <ele>333</ele>
        <time>2013-09-18T11:22:25.000Z</time>
      </trkpt>
      <trkpt lat="43.48846" lon="6.78917">
        <ele>334</ele>
        <time>2013-09-18T11:22:26.000Z</time>
      </trkpt>
      <trkpt lat="43.48846" lon="6.78917">
        <ele>326</ele>
        <time>2013-09-18T11:22:27.000Z</time>
      </trkpt>
      <trkpt lat="43.48847" lon="6.78916">
        <ele>326</ele>
        <time>2013-09-18T11:22:29.000Z</time>
      </trkpt>
      <trkpt lat="43.48847" lon="6.78916">
        <ele>326</ele>
        <time>2013-09-18T11:22:30.000Z</time>
      </trkpt>
      <trkpt lat="43.48848" lon="6.78916">
        <ele>326</ele>
        <time>2013-09-18T11:22:31.000Z</time>
      </trkpt>
      <trkpt lat="43.4885" lon="6.78916">
        <ele>326</ele>
        <time>2013-09-18T11:22:33.000Z</time>
      </trkpt>
      <trkpt lat="43.48851" lon="6.78915">
        <ele>326</ele>
        <time>2013-09-18T11:22:34.000Z</time>
      </trkpt>
      <trkpt lat="43.48852" lon="6.78915">
        <ele>326</ele>
        <time>2013-09-18T11:22:35.000Z</time>
      </trkpt>
      <trkpt lat="43.48853" lon="6.78916">
        <ele>326</ele>
        <time>2013-09-18T11:22:37.000Z</time>
      </trkpt>
      <trkpt lat="43.48854" lon="6.78916">
        <ele>326</ele>
        <time>2013-09-18T11:22:38.000Z</time>
      </trkpt>
      <trkpt lat="43.48854" lon="6.78916">
        <ele>326</ele>
        <time>2013-09-18T11:22:39.000Z</time>
      </trkpt>
      <trkpt lat="43.48855" lon="6.78916">
        <ele>326</ele>
        <time>2013-09-18T11:22:43.000Z</time>
      </trkpt>
      <trkpt lat="43.48855" lon="6.78915">
        <ele>326</ele>
        <time>2013-09-18T11:22:46.000Z</time>
      </trkpt>
      <trkpt lat="43.48855" lon="6.78915">
        <ele>326</ele>
        <time>2013-09-18T11:22:49.000Z</time>
      </trkpt>
      <trkpt lat="43.48856" lon="6.78915">
        <ele>326</ele>
        <time>2013-09-18T11:22:52.000Z</time>
      </trkpt>
      <trkpt lat="43.48856" lon="6.78915">
        <ele>326</ele>
        <time>2013-09-18T11:22:54.000Z</time>
      </trkpt>
      <trkpt lat="43.48856" lon="6.78915">
        <ele>326</ele>
        <time>2013-09-18T11:22:57.000Z</time>
      </trkpt>
      <trkpt lat="43.48856" lon="6.78915">
        <ele>326</ele>
        <time>2013-09-18T11:23:00.000Z</time>
      </trkpt>
      <trkpt lat="43.48856" lon="6.78914">
        <ele>326</ele>
        <time>2013-09-18T11:23:03.000Z</time>
      </trkpt>
      <trkpt lat="43.48857" lon="6.78915">
        <ele>327</ele>
        <time>2013-09-18T11:23:12.000Z</time>
      </trkpt>
      <trkpt lat="43.48857" lon="6.78915">
        <ele>327</ele>
        <time>2013-09-18T11:23:16.000Z</time>
      </trkpt>
      <trkpt lat="43.48858" lon="6.78915">
        <ele>327</ele>
        <time>2013-09-18T11:23:21.000Z</time>
      </trkpt>
      <trkpt lat="43.48857" lon="6.78915">
        <ele>327</ele>
        <time>2013-09-18T11:23:24.000Z</time>
      </trkpt>
      <trkpt lat="43.48857" lon="6.78915">
        <ele>327</ele>
        <time>2013-09-18T11:23:28.000Z</time>
      </trkpt>
      <trkpt lat="43.48857" lon="6.78915">
        <ele>327</ele>
        <time>2013-09-18T11:23:34.000Z</time>
      </trkpt>
      <trkpt lat="43.48857" lon="6.78916">
        <ele>327</ele>
        <time>2013-09-18T11:23:45.000Z</time>
      </trkpt>
      <trkpt lat="43.48857" lon="6.78917">
        <ele>338</ele>
        <time>2013-09-18T11:23:46.000Z</time>
      </trkpt>
      <trkpt lat="43.48857" lon="6.78917">
        <ele>338</ele>
        <time>2013-09-18T11:23:47.000Z</time>
      </trkpt>
      <trkpt lat="43.48857" lon="6.78917">
        <ele>338</ele>
        <time>2013-09-18T11:23:48.000Z</time>
      </trkpt>
      <trkpt lat="43.48858" lon="6.78917">
        <ele>338</ele>
        <time>2013-09-18T11:23:49.000Z</time>
      </trkpt>
      <trkpt lat="43.48858" lon="6.78918">
        <ele>338</ele>
        <time>2013-09-18T11:23:52.000Z</time>
      </trkpt>
      <trkpt lat="43.48858" lon="6.78919">
        <ele>339</ele>
        <time>2013-09-18T11:23:53.000Z</time>
      </trkpt>
      <trkpt lat="43.48859" lon="6.78919">
        <ele>339</ele>
        <time>2013-09-18T11:23:54.000Z</time>
      </trkpt>
      <trkpt lat="43.4886" lon="6.78919">
        <ele>339</ele>
        <time>2013-09-18T11:23:55.000Z</time>
      </trkpt>
      <trkpt lat="43.4886" lon="6.78919">
        <ele>339</ele>
        <time>2013-09-18T11:23:57.000Z</time>
      </trkpt>
      <trkpt lat="43.4886" lon="6.78919">
        <ele>339</ele>
        <time>2013-09-18T11:23:58.000Z</time>
      </trkpt>
      <trkpt lat="43.48859" lon="6.78919">
        <ele>339</ele>
        <time>2013-09-18T11:24:00.000Z</time>
      </trkpt>
      <trkpt lat="43.48858" lon="6.7892">
        <ele>339</ele>
        <time>2013-09-18T11:24:01.000Z</time>
      </trkpt>
      <trkpt lat="43.48857" lon="6.7892">
        <ele>338</ele>
        <time>2013-09-18T11:24:02.000Z</time>
      </trkpt>
      <trkpt lat="43.48855" lon="6.78919">
        <ele>338</ele>
        <time>2013-09-18T11:24:04.000Z</time>
      </trkpt>
      <trkpt lat="43.48854" lon="6.78919">
        <ele>337</ele>
        <time>2013-09-18T11:24:05.000Z</time>
      </trkpt>
      <trkpt lat="43.48853" lon="6.78918">
        <ele>337</ele>
        <time>2013-09-18T11:24:06.000Z</time>
      </trkpt>
      <trkpt lat="43.48853" lon="6.78917">
        <ele>337</ele>
        <time>2013-09-18T11:24:07.000Z</time>
      </trkpt>
      <trkpt lat="43.48853" lon="6.78916">
        <ele>326</ele>
        <time>2013-09-18T11:24:10.000Z</time>
      </trkpt>
      <trkpt lat="43.48853" lon="6.78916">
        <ele>326</ele>
        <time>2013-09-18T11:24:11.000Z</time>
      </trkpt>
      <trkpt lat="43.48854" lon="6.78916">
        <ele>326</ele>
        <time>2013-09-18T11:24:15.000Z</time>
      </trkpt>
      <trkpt lat="43.48855" lon="6.78917">
        <ele>337</ele>
        <time>2013-09-18T11:24:16.000Z</time>
      </trkpt>
      <trkpt lat="43.48855" lon="6.78918">
        <ele>338</ele>
        <time>2013-09-18T11:24:17.000Z</time>
      </trkpt>
      <trkpt lat="43.48856" lon="6.78919">
        <ele>338</ele>
        <time>2013-09-18T11:24:18.000Z</time>
      </trkpt>
      <trkpt lat="43.48858" lon="6.78918">
        <ele>338</ele>
        <time>2013-09-18T11:24:19.000Z</time>
      </trkpt>
      <trkpt lat="43.48859" lon="6.78917">
        <ele>339</ele>
        <time>2013-09-18T11:24:20.000Z</time>
      </trkpt>
      <trkpt lat="43.48861" lon="6.78917">
        <ele>327</ele>
        <time>2013-09-18T11:24:21.000Z</time>
      </trkpt>
      <trkpt lat="43.48862" lon="6.78916">
        <ele>327</ele>
        <time>2013-09-18T11:24:22.000Z</time>
      </trkpt>
      <trkpt lat="43.48864" lon="6.78916">
        <ele>327</ele>
        <time>2013-09-18T11:24:23.000Z</time>
      </trkpt>
      <trkpt lat="43.48865" lon="6.78916">
        <ele>327</ele>
        <time>2013-09-18T11:24:24.000Z</time>
      </trkpt>
      <trkpt lat="43.48867" lon="6.78916">
        <ele>327</ele>
        <time>2013-09-18T11:24:25.000Z</time>
      </trkpt>
      <trkpt lat="43.48868" lon="6.78916">
        <ele>328</ele>
        <time>2013-09-18T11:24:26.000Z</time>
      </trkpt>
      <trkpt lat="43.48869" lon="6.78915">
        <ele>328</ele>
        <time>2013-09-18T11:24:27.000Z</time>
      </trkpt>
      <trkpt lat="43.48871" lon="6.78915">
        <ele>328</ele>
        <time>2013-09-18T11:24:28.000Z</time>
      </trkpt>
      <trkpt lat="43.48872" lon="6.78914">
        <ele>328</ele>
        <time>2013-09-18T11:24:29.000Z</time>
      </trkpt>
      <trkpt lat="43.48873" lon="6.78913">
        <ele>328</ele>
        <time>2013-09-18T11:24:30.000Z</time>
      </trkpt>
      <trkpt lat="43.48874" lon="6.78913">
        <ele>328</ele>
        <time>2013-09-18T11:24:31.000Z</time>
      </trkpt>
      <trkpt lat="43.48876" lon="6.78912">
        <ele>328</ele>
        <time>2013-09-18T11:24:32.000Z</time>
      </trkpt>
      <trkpt lat="43.48877" lon="6.78911">
        <ele>329</ele>
        <time>2013-09-18T11:24:33.000Z</time>
      </trkpt>
      <trkpt lat="43.48878" lon="6.7891">
        <ele>329</ele>
        <time>2013-09-18T11:24:34.000Z</time>
      </trkpt>
      <trkpt lat="43.48879" lon="6.78908">
        <ele>329</ele>
        <time>2013-09-18T11:24:35.000Z</time>
      </trkpt>
      <trkpt lat="43.4888" lon="6.78907">
        <ele>329</ele>
        <time>2013-09-18T11:24:36.000Z</time>
      </trkpt>
      <trkpt lat="43.48881" lon="6.78906">
        <ele>329</ele>
        <time>2013-09-18T11:24:37.000Z</time>
      </trkpt>
      <trkpt lat="43.48883" lon="6.78905">
        <ele>329</ele>
        <time>2013-09-18T11:24:38.000Z</time>
      </trkpt>
      <trkpt lat="43.48884" lon="6.78904">
        <ele>329</ele>
        <time>2013-09-18T11:24:39.000Z</time>
      </trkpt>
      <trkpt lat="43.48885" lon="6.78903">
        <ele>329</ele>
        <time>2013-09-18T11:24:40.000Z</time>
      </trkpt>
      <trkpt lat="43.48886" lon="6.78902">
        <ele>329</ele>
        <time>2013-09-18T11:24:41.000Z</time>
      </trkpt>
      <trkpt lat="43.48887" lon="6.789">
        <ele>330</ele>
        <time>2013-09-18T11:24:42.000Z</time>
      </trkpt>
      <trkpt lat="43.48889" lon="6.78899">
        <ele>330</ele>
        <time>2013-09-18T11:24:43.000Z</time>
      </trkpt>
      <trkpt lat="43.4889" lon="6.78898">
        <ele>330</ele>
        <time>2013-09-18T11:24:44.000Z</time>
      </trkpt>
      <trkpt lat="43.48891" lon="6.78897">
        <ele>330</ele>
        <time>2013-09-18T11:24:45.000Z</time>
      </trkpt>
      <trkpt lat="43.48892" lon="6.78896">
        <ele>330</ele>
        <time>2013-09-18T11:24:46.000Z</time>
      </trkpt>
      <trkpt lat="43.48894" lon="6.78895">
        <ele>330</ele>
        <time>2013-09-18T11:24:47.000Z</time>
      </trkpt>
      <trkpt lat="43.48895" lon="6.78894">
        <ele>330</ele>
        <time>2013-09-18T11:24:48.000Z</time>
      </trkpt>
      <trkpt lat="43.48896" lon="6.78893">
        <ele>330</ele>
        <time>2013-09-18T11:24:49.000Z</time>
      </trkpt>
      <trkpt lat="43.48897" lon="6.78892">
        <ele>330</ele>
        <time>2013-09-18T11:24:50.000Z</time>
      </trkpt>
      <trkpt lat="43.48898" lon="6.78891">
        <ele>330</ele>
        <time>2013-09-18T11:24:51.000Z</time>
      </trkpt>
      <trkpt lat="43.48899" lon="6.78889">
        <ele>330</ele>
        <time>2013-09-18T11:24:52.000Z</time>
      </trkpt>
      <trkpt lat="43.48901" lon="6.78889">
        <ele>330</ele>
        <time>2013-09-18T11:24:53.000Z</time>
      </trkpt>
      <trkpt lat="43.48902" lon="6.78887">
        <ele>330</ele>
        <time>2013-09-18T11:24:54.000Z</time>
      </trkpt>
      <trkpt lat="43.48903" lon="6.78886">
        <ele>330</ele>
        <time>2013-09-18T11:24:55.000Z</time>
      </trkpt>
      <trkpt lat="43.48904" lon="6.78885">
        <ele>330</ele>
        <time>2013-09-18T11:24:56.000Z</time>
      </trkpt>
      <trkpt lat="43.48905" lon="6.78884">
        <ele>330</ele>
        <time>2013-09-18T11:24:57.000Z</time>
      </trkpt>
      <trkpt lat="43.48906" lon="6.78883">
        <ele>330</ele>
        <time>2013-09-18T11:24:58.000Z</time>
      </trkpt>
      <trkpt lat="43.48907" lon="6.78882">
        <ele>330</ele>
        <time>2013-09-18T11:24:59.000Z</time>
      </trkpt>
      <trkpt lat="43.48908" lon="6.78881">
        <ele>330</ele>
        <time>2013-09-18T11:25:00.000Z</time>
      </trkpt>
      <trkpt lat="43.48909" lon="6.7888">
        <ele>330</ele>
        <time>2013-09-18T11:25:01.000Z</time>
      </trkpt>
      <trkpt lat="43.48911" lon="6.78879">
        <ele>330</ele>
        <time>2013-09-18T11:25:02.000Z</time>
      </trkpt>
      <trkpt lat="43.48912" lon="6.78879">
        <ele>330</ele>
        <time>2013-09-18T11:25:03.000Z</time>
      </trkpt>
      <trkpt lat="43.48913" lon="6.78878">
        <ele>330</ele>
        <time>2013-09-18T11:25:04.000Z</time>
      </trkpt>
      <trkpt lat="43.48915" lon="6.78877">
        <ele>330</ele>
        <time>2013-09-18T11:25:05.000Z</time>
      </trkpt>
      <trkpt lat="43.48916" lon="6.78877">
        <ele>330</ele>
        <time>2013-09-18T11:25:06.000Z</time>
      </trkpt>
      <trkpt lat="43.48918" lon="6.78876">
        <ele>337</ele>
        <time>2013-09-18T11:25:07.000Z</time>
      </trkpt>
      <trkpt lat="43.48919" lon="6.78875">
        <ele>337</ele>
        <time>2013-09-18T11:25:08.000Z</time>
      </trkpt>
      <trkpt lat="43.4892" lon="6.78875">
        <ele>337</ele>
        <time>2013-09-18T11:25:09.000Z</time>
      </trkpt>
      <trkpt lat="43.48922" lon="6.78874">
        <ele>337</ele>
        <time>2013-09-18T11:25:10.000Z</time>
      </trkpt>
      <trkpt lat="43.48924" lon="6.78874">
        <ele>337</ele>
        <time>2013-09-18T11:25:11.000Z</time>
      </trkpt>
      <trkpt lat="43.48925" lon="6.78874">
        <ele>337</ele>
        <time>2013-09-18T11:25:12.000Z</time>
      </trkpt>
      <trkpt lat="43.48927" lon="6.78874">
        <ele>337</ele>
        <time>2013-09-18T11:25:13.000Z</time>
      </trkpt>
      <trkpt lat="43.48928" lon="6.78875">
        <ele>337</ele>
        <time>2013-09-18T11:25:14.000Z</time>
      </trkpt>
      <trkpt lat="43.4893" lon="6.78875">
        <ele>337</ele>
        <time>2013-09-18T11:25:15.000Z</time>
      </trkpt>
      <trkpt lat="43.48932" lon="6.78876">
        <ele>337</ele>
        <time>2013-09-18T11:25:16.000Z</time>
      </trkpt>
      <trkpt lat="43.48933" lon="6.78875">
        <ele>337</ele>
        <time>2013-09-18T11:25:17.000Z</time>
      </trkpt>
      <trkpt lat="43.48935" lon="6.78875">
        <ele>337</ele>
        <time>2013-09-18T11:25:18.000Z</time>
      </trkpt>
      <trkpt lat="43.48936" lon="6.78876">
        <ele>337</ele>
        <time>2013-09-18T11:25:19.000Z</time>
      </trkpt>
      <trkpt lat="43.48938" lon="6.78876">
        <ele>337</ele>
        <time>2013-09-18T11:25:20.000Z</time>
      </trkpt>
      <trkpt lat="43.4894" lon="6.78877">
        <ele>337</ele>
        <time>2013-09-18T11:25:21.000Z</time>
      </trkpt>
      <trkpt lat="43.48941" lon="6.78878">
        <ele>337</ele>
        <time>2013-09-18T11:25:22.000Z</time>
      </trkpt>
      <trkpt lat="43.48943" lon="6.78878">
        <ele>337</ele>
        <time>2013-09-18T11:25:23.000Z</time>
      </trkpt>
      <trkpt lat="43.48945" lon="6.78879">
        <ele>337</ele>
        <time>2013-09-18T11:25:24.000Z</time>
      </trkpt>
      <trkpt lat="43.48946" lon="6.78879">
        <ele>337</ele>
        <time>2013-09-18T11:25:25.000Z</time>
      </trkpt>
      <trkpt lat="43.48948" lon="6.7888">
        <ele>337</ele>
        <time>2013-09-18T11:25:26.000Z</time>
      </trkpt>
      <trkpt lat="43.48949" lon="6.78881">
        <ele>337</ele>
        <time>2013-09-18T11:25:27.000Z</time>
      </trkpt>
      <trkpt lat="43.48951" lon="6.78881">
        <ele>337</ele>
        <time>2013-09-18T11:25:28.000Z</time>
      </trkpt>
      <trkpt lat="43.48953" lon="6.78882">
        <ele>337</ele>
        <time>2013-09-18T11:25:29.000Z</time>
      </trkpt>
      <trkpt lat="43.48954" lon="6.78882">
        <ele>338</ele>
        <time>2013-09-18T11:25:30.000Z</time>
      </trkpt>
      <trkpt lat="43.48956" lon="6.78883">
        <ele>338</ele>
        <time>2013-09-18T11:25:31.000Z</time>
      </trkpt>
      <trkpt lat="43.48957" lon="6.78884">
        <ele>338</ele>
        <time>2013-09-18T11:25:32.000Z</time>
      </trkpt>
      <trkpt lat="43.48959" lon="6.78884">
        <ele>338</ele>
        <time>2013-09-18T11:25:33.000Z</time>
      </trkpt>
      <trkpt lat="43.48961" lon="6.78884">
        <ele>338</ele>
        <time>2013-09-18T11:25:34.000Z</time>
      </trkpt>
      <trkpt lat="43.48962" lon="6.78885">
        <ele>338</ele>
        <time>2013-09-18T11:25:35.000Z</time>
      </trkpt>
      <trkpt lat="43.48964" lon="6.78885">
        <ele>338</ele>
        <time>2013-09-18T11:25:36.000Z</time>
      </trkpt>
      <trkpt lat="43.48966" lon="6.78885">
        <ele>338</ele>
        <time>2013-09-18T11:25:37.000Z</time>
      </trkpt>
      <trkpt lat="43.48967" lon="6.78885">
        <ele>338</ele>
        <time>2013-09-18T11:25:38.000Z</time>
      </trkpt>
      <trkpt lat="43.48969" lon="6.78885">
        <ele>338</ele>
        <time>2013-09-18T11:25:39.000Z</time>
      </trkpt>
      <trkpt lat="43.48971" lon="6.78886">
        <ele>338</ele>
        <time>2013-09-18T11:25:40.000Z</time>
      </trkpt>
      <trkpt lat="43.48972" lon="6.78886">
        <ele>338</ele>
        <time>2013-09-18T11:25:41.000Z</time>
      </trkpt>
      <trkpt lat="43.48974" lon="6.78886">
        <ele>338</ele>
        <time>2013-09-18T11:25:42.000Z</time>
      </trkpt>
      <trkpt lat="43.48976" lon="6.78887">
        <ele>339</ele>
        <time>2013-09-18T11:25:43.000Z</time>
      </trkpt>
      <trkpt lat="43.48977" lon="6.78888">
        <ele>339</ele>
        <time>2013-09-18T11:25:44.000Z</time>
      </trkpt>
      <trkpt lat="43.48979" lon="6.78888">
        <ele>339</ele>
        <time>2013-09-18T11:25:45.000Z</time>
      </trkpt>
      <trkpt lat="43.4898" lon="6.78889">
        <ele>339</ele>
        <time>2013-09-18T11:25:46.000Z</time>
      </trkpt>
      <trkpt lat="43.48982" lon="6.78889">
        <ele>339</ele>
        <time>2013-09-18T11:25:47.000Z</time>
      </trkpt>
      <trkpt lat="43.48984" lon="6.78889">
        <ele>339</ele>
        <time>2013-09-18T11:25:48.000Z</time>
      </trkpt>
      <trkpt lat="43.48986" lon="6.78889">
        <ele>339</ele>
        <time>2013-09-18T11:25:49.000Z</time>
      </trkpt>
      <trkpt lat="43.48987" lon="6.78889">
        <ele>339</ele>
        <time>2013-09-18T11:25:50.000Z</time>
      </trkpt>
      <trkpt lat="43.48989" lon="6.7889">
        <ele>339</ele>
        <time>2013-09-18T11:25:51.000Z</time>
      </trkpt>
      <trkpt lat="43.48993" lon="6.7889">
        <ele>340</ele>
        <time>2013-09-18T11:25:53.000Z</time>
      </trkpt>
      <trkpt lat="43.48994" lon="6.7889">
        <ele>340</ele>
        <time>2013-09-18T11:25:54.000Z</time>
      </trkpt>
      <trkpt lat="43.48996" lon="6.7889">
        <ele>340</ele>
        <time>2013-09-18T11:25:55.000Z</time>
      </trkpt>
      <trkpt lat="43.48998" lon="6.78891">
        <ele>340</ele>
        <time>2013-09-18T11:25:56.000Z</time>
      </trkpt>
      <trkpt lat="43.48999" lon="6.78891">
        <ele>340</ele>
        <time>2013-09-18T11:25:57.000Z</time>
      </trkpt>
      <trkpt lat="43.49001" lon="6.78891">
        <ele>337</ele>
        <time>2013-09-18T11:25:58.000Z</time>
      </trkpt>
      <trkpt lat="43.49003" lon="6.78892">
        <ele>337</ele>
        <time>2013-09-18T11:25:59.000Z</time>
      </trkpt>
      <trkpt lat="43.49004" lon="6.78892">
        <ele>337</ele>
        <time>2013-09-18T11:26:00.000Z</time>
      </trkpt>
      <trkpt lat="43.49006" lon="6.78892">
        <ele>337</ele>
        <time>2013-09-18T11:26:01.000Z</time>
      </trkpt>
      <trkpt lat="43.49008" lon="6.78893">
        <ele>337</ele>
        <time>2013-09-18T11:26:02.000Z</time>
      </trkpt>
      <trkpt lat="43.49009" lon="6.78893">
        <ele>337</ele>
        <time>2013-09-18T11:26:03.000Z</time>
      </trkpt>
      <trkpt lat="43.49011" lon="6.78893">
        <ele>337</ele>
        <time>2013-09-18T11:26:04.000Z</time>
      </trkpt>
      <trkpt lat="43.49012" lon="6.78894">
        <ele>337</ele>
        <time>2013-09-18T11:26:05.000Z</time>
      </trkpt>
      <trkpt lat="43.49014" lon="6.78894">
        <ele>337</ele>
        <time>2013-09-18T11:26:06.000Z</time>
      </trkpt>
      <trkpt lat="43.49016" lon="6.78894">
        <ele>337</ele>
        <time>2013-09-18T11:26:07.000Z</time>
      </trkpt>
      <trkpt lat="43.49018" lon="6.78895">
        <ele>337</ele>
        <time>2013-09-18T11:26:08.000Z</time>
      </trkpt>
      <trkpt lat="43.49019" lon="6.78895">
        <ele>336</ele>
        <time>2013-09-18T11:26:09.000Z</time>
      </trkpt>
      <trkpt lat="43.49021" lon="6.78895">
        <ele>336</ele>
        <time>2013-09-18T11:26:10.000Z</time>
      </trkpt>
      <trkpt lat="43.49023" lon="6.78896">
        <ele>336</ele>
        <time>2013-09-18T11:26:11.000Z</time>
      </trkpt>
      <trkpt lat="43.49024" lon="6.78896">
        <ele>336</ele>
        <time>2013-09-18T11:26:12.000Z</time>
      </trkpt>
      <trkpt lat="43.49026" lon="6.78897">
        <ele>336</ele>
        <time>2013-09-18T11:26:13.000Z</time>
      </trkpt>
      <trkpt lat="43.49028" lon="6.78897">
        <ele>336</ele>
        <time>2013-09-18T11:26:14.000Z</time>
      </trkpt>
      <trkpt lat="43.4903" lon="6.78898">
        <ele>336</ele>
        <time>2013-09-18T11:26:15.000Z</time>
      </trkpt>
      <trkpt lat="43.49031" lon="6.78899">
        <ele>336</ele>
        <time>2013-09-18T11:26:16.000Z</time>
      </trkpt>
      <trkpt lat="43.49033" lon="6.789">
        <ele>336</ele>
        <time>2013-09-18T11:26:17.000Z</time>
      </trkpt>
      <trkpt lat="43.49035" lon="6.78901">
        <ele>335</ele>
        <time>2013-09-18T11:26:18.000Z</time>
      </trkpt>
      <trkpt lat="43.49036" lon="6.78902">
        <ele>335</ele>
        <time>2013-09-18T11:26:19.000Z</time>
      </trkpt>
      <trkpt lat="43.49038" lon="6.78902">
        <ele>335</ele>
        <time>2013-09-18T11:26:20.000Z</time>
      </trkpt>
      <trkpt lat="43.4904" lon="6.78903">
        <ele>335</ele>
        <time>2013-09-18T11:26:21.000Z</time>
      </trkpt>
      <trkpt lat="43.49041" lon="6.78904">
        <ele>335</ele>
        <time>2013-09-18T11:26:22.000Z</time>
      </trkpt>
      <trkpt lat="43.49043" lon="6.78905">
        <ele>335</ele>
        <time>2013-09-18T11:26:23.000Z</time>
      </trkpt>
      <trkpt lat="43.49044" lon="6.78906">
        <ele>335</ele>
        <time>2013-09-18T11:26:24.000Z</time>
      </trkpt>
      <trkpt lat="43.49046" lon="6.78907">
        <ele>335</ele>
        <time>2013-09-18T11:26:25.000Z</time>
      </trkpt>
      <trkpt lat="43.49047" lon="6.78908">
        <ele>335</ele>
        <time>2013-09-18T11:26:26.000Z</time>
      </trkpt>
      <trkpt lat="43.49049" lon="6.78909">
        <ele>335</ele>
        <time>2013-09-18T11:26:27.000Z</time>
      </trkpt>
      <trkpt lat="43.4905" lon="6.7891">
        <ele>335</ele>
        <time>2013-09-18T11:26:28.000Z</time>
      </trkpt>
      <trkpt lat="43.49051" lon="6.78911">
        <ele>335</ele>
        <time>2013-09-18T11:26:29.000Z</time>
      </trkpt>
      <trkpt lat="43.49053" lon="6.78912">
        <ele>336</ele>
        <time>2013-09-18T11:26:30.000Z</time>
      </trkpt>
      <trkpt lat="43.49055" lon="6.78913">
        <ele>336</ele>
        <time>2013-09-18T11:26:31.000Z</time>
      </trkpt>
      <trkpt lat="43.49056" lon="6.78914">
        <ele>336</ele>
        <time>2013-09-18T11:26:32.000Z</time>
      </trkpt>
      <trkpt lat="43.49058" lon="6.78915">
        <ele>336</ele>
        <time>2013-09-18T11:26:33.000Z</time>
      </trkpt>
      <trkpt lat="43.4906" lon="6.78915">
        <ele>336</ele>
        <time>2013-09-18T11:26:34.000Z</time>
      </trkpt>
      <trkpt lat="43.49061" lon="6.78916">
        <ele>336</ele>
        <time>2013-09-18T11:26:35.000Z</time>
      </trkpt>
      <trkpt lat="43.49063" lon="6.78917">
        <ele>350</ele>
        <time>2013-09-18T11:26:36.000Z</time>
      </trkpt>
      <trkpt lat="43.49065" lon="6.78917">
        <ele>349</ele>
        <time>2013-09-18T11:26:37.000Z</time>
      </trkpt>
      <trkpt lat="43.49066" lon="6.78918">
        <ele>349</ele>
        <time>2013-09-18T11:26:38.000Z</time>
      </trkpt>
      <trkpt lat="43.49068" lon="6.78918">
        <ele>348</ele>
        <time>2013-09-18T11:26:39.000Z</time>
      </trkpt>
      <trkpt lat="43.4907" lon="6.78919">
        <ele>348</ele>
        <time>2013-09-18T11:26:40.000Z</time>
      </trkpt>
      <trkpt lat="43.49071" lon="6.7892">
        <ele>348</ele>
        <time>2013-09-18T11:26:41.000Z</time>
      </trkpt>
      <trkpt lat="43.49073" lon="6.78921">
        <ele>347</ele>
        <time>2013-09-18T11:26:42.000Z</time>
      </trkpt>
      <trkpt lat="43.49074" lon="6.78922">
        <ele>347</ele>
        <time>2013-09-18T11:26:43.000Z</time>
      </trkpt>
      <trkpt lat="43.49076" lon="6.78923">
        <ele>347</ele>
        <time>2013-09-18T11:26:44.000Z</time>
      </trkpt>
      <trkpt lat="43.49077" lon="6.78924">
        <ele>347</ele>
        <time>2013-09-18T11:26:45.000Z</time>
      </trkpt>
      <trkpt lat="43.49079" lon="6.78925">
        <ele>346</ele>
        <time>2013-09-18T11:26:46.000Z</time>
      </trkpt>
      <trkpt lat="43.4908" lon="6.78925">
        <ele>346</ele>
        <time>2013-09-18T11:26:47.000Z</time>
      </trkpt>
      <trkpt lat="43.49082" lon="6.78926">
        <ele>346</ele>
        <time>2013-09-18T11:26:48.000Z</time>
      </trkpt>
      <trkpt lat="43.49083" lon="6.78927">
        <ele>347</ele>
        <time>2013-09-18T11:26:49.000Z</time>
      </trkpt>
      <trkpt lat="43.49085" lon="6.78928">
        <ele>344</ele>
        <time>2013-09-18T11:26:50.000Z</time>
      </trkpt>
      <trkpt lat="43.49086" lon="6.78929">
        <ele>345</ele>
        <time>2013-09-18T11:26:51.000Z</time>
      </trkpt>
      <trkpt lat="43.49087" lon="6.7893">
        <ele>345</ele>
        <time>2013-09-18T11:26:52.000Z</time>
      </trkpt>
      <trkpt lat="43.49089" lon="6.78932">
        <ele>345</ele>
        <time>2013-09-18T11:26:53.000Z</time>
      </trkpt>
      <trkpt lat="43.4909" lon="6.78933">
        <ele>345</ele>
        <time>2013-09-18T11:26:54.000Z</time>
      </trkpt>
      <trkpt lat="43.49091" lon="6.78934">
        <ele>346</ele>
        <time>2013-09-18T11:26:55.000Z</time>
      </trkpt>
      <trkpt lat="43.49092" lon="6.78934">
        <ele>346</ele>
        <time>2013-09-18T11:26:56.000Z</time>
      </trkpt>
      <trkpt lat="43.49093" lon="6.78934">
        <ele>346</ele>
        <time>2013-09-18T11:26:57.000Z</time>
      </trkpt>
      <trkpt lat="43.49093" lon="6.78934">
        <ele>346</ele>
        <time>2013-09-18T11:26:59.000Z</time>
      </trkpt>
      <trkpt lat="43.49093" lon="6.78935">
        <ele>346</ele>
        <time>2013-09-18T11:27:02.000Z</time>
      </trkpt>
      <trkpt lat="43.49094" lon="6.78935">
        <ele>346</ele>
        <time>2013-09-18T11:27:11.000Z</time>
      </trkpt>
      <trkpt lat="43.49094" lon="6.78936">
        <ele>346</ele>
        <time>2013-09-18T11:27:21.000Z</time>
      </trkpt>
      <trkpt lat="43.49094" lon="6.78936">
        <ele>346</ele>
        <time>2013-09-18T11:27:24.000Z</time>
      </trkpt>
      <trkpt lat="43.49094" lon="6.78937">
        <ele>346</ele>
        <time>2013-09-18T11:27:35.000Z</time>
      </trkpt>
      <trkpt lat="43.49094" lon="6.78937">
        <ele>346</ele>
        <time>2013-09-18T11:27:51.000Z</time>
      </trkpt>
      <trkpt lat="43.49095" lon="6.78936">
        <ele>346</ele>
        <time>2013-09-18T11:27:52.000Z</time>
      </trkpt>
      <trkpt lat="43.49095" lon="6.78936">
        <ele>346</ele>
        <time>2013-09-18T11:27:54.000Z</time>
      </trkpt>
      <trkpt lat="43.49096" lon="6.78937">
        <ele>346</ele>
        <time>2013-09-18T11:27:56.000Z</time>
      </trkpt>
      <trkpt lat="43.49097" lon="6.78937">
        <ele>346</ele>
        <time>2013-09-18T11:27:57.000Z</time>
      </trkpt>
      <trkpt lat="43.49098" lon="6.78937">
        <ele>347</ele>
        <time>2013-09-18T11:27:58.000Z</time>
      </trkpt>
      <trkpt lat="43.491" lon="6.78938">
        <ele>347</ele>
        <time>2013-09-18T11:27:59.000Z</time>
      </trkpt>
      <trkpt lat="43.49102" lon="6.78939">
        <ele>347</ele>
        <time>2013-09-18T11:28:00.000Z</time>
      </trkpt>
      <trkpt lat="43.49103" lon="6.78939">
        <ele>347</ele>
        <time>2013-09-18T11:28:01.000Z</time>
      </trkpt>
      <trkpt lat="43.49105" lon="6.7894">
        <ele>347</ele>
        <time>2013-09-18T11:28:02.000Z</time>
      </trkpt>
      <trkpt lat="43.49107" lon="6.7894">
        <ele>347</ele>
        <time>2013-09-18T11:28:03.000Z</time>
      </trkpt>
      <trkpt lat="43.49108" lon="6.7894">
        <ele>347</ele>
        <time>2013-09-18T11:28:04.000Z</time>
      </trkpt>
      <trkpt lat="43.4911" lon="6.78941">
        <ele>347</ele>
        <time>2013-09-18T11:28:05.000Z</time>
      </trkpt>
      <trkpt lat="43.49111" lon="6.78941">
        <ele>347</ele>
        <time>2013-09-18T11:28:06.000Z</time>
      </trkpt>
      <trkpt lat="43.49113" lon="6.78942">
        <ele>347</ele>
        <time>2013-09-18T11:28:07.000Z</time>
      </trkpt>
      <trkpt lat="43.49115" lon="6.78942">
        <ele>347</ele>
        <time>2013-09-18T11:28:08.000Z</time>
      </trkpt>
      <trkpt lat="43.49116" lon="6.78943">
        <ele>347</ele>
        <time>2013-09-18T11:28:09.000Z</time>
      </trkpt>
      <trkpt lat="43.49118" lon="6.78944">
        <ele>347</ele>
        <time>2013-09-18T11:28:10.000Z</time>
      </trkpt>
      <trkpt lat="43.4912" lon="6.78944">
        <ele>347</ele>
        <time>2013-09-18T11:28:11.000Z</time>
      </trkpt>
      <trkpt lat="43.49122" lon="6.78945">
        <ele>347</ele>
        <time>2013-09-18T11:28:12.000Z</time>
      </trkpt>
      <trkpt lat="43.49123" lon="6.78946">
        <ele>347</ele>
        <time>2013-09-18T11:28:13.000Z</time>
      </trkpt>
      <trkpt lat="43.49125" lon="6.78947">
        <ele>347</ele>
        <time>2013-09-18T11:28:14.000Z</time>
      </trkpt>
      <trkpt lat="43.49127" lon="6.78947">
        <ele>346</ele>
        <time>2013-09-18T11:28:15.000Z</time>
      </trkpt>
      <trkpt lat="43.49128" lon="6.78948">
        <ele>346</ele>
        <time>2013-09-18T11:28:16.000Z</time>
      </trkpt>
      <trkpt lat="43.4913" lon="6.78948">
        <ele>346</ele>
        <time>2013-09-18T11:28:17.000Z</time>
      </trkpt>
      <trkpt lat="43.49132" lon="6.78949">
        <ele>346</ele>
        <time>2013-09-18T11:28:18.000Z</time>
      </trkpt>
      <trkpt lat="43.49133" lon="6.7895">
        <ele>346</ele>
        <time>2013-09-18T11:28:19.000Z</time>
      </trkpt>
      <trkpt lat="43.49135" lon="6.78951">
        <ele>346</ele>
        <time>2013-09-18T11:28:20.000Z</time>
      </trkpt>
      <trkpt lat="43.49137" lon="6.78952">
        <ele>346</ele>
        <time>2013-09-18T11:28:21.000Z</time>
      </trkpt>
      <trkpt lat="43.49138" lon="6.78952">
        <ele>346</ele>
        <time>2013-09-18T11:28:22.000Z</time>
      </trkpt>
      <trkpt lat="43.4914" lon="6.78953">
        <ele>346</ele>
        <time>2013-09-18T11:28:23.000Z</time>
      </trkpt>
      <trkpt lat="43.49141" lon="6.78954">
        <ele>346</ele>
        <time>2013-09-18T11:28:24.000Z</time>
      </trkpt>
      <trkpt lat="43.49143" lon="6.78955">
        <ele>346</ele>
        <time>2013-09-18T11:28:25.000Z</time>
      </trkpt>
      <trkpt lat="43.49145" lon="6.78955">
        <ele>346</ele>
        <time>2013-09-18T11:28:26.000Z</time>
      </trkpt>
      <trkpt lat="43.49146" lon="6.78956">
        <ele>346</ele>
        <time>2013-09-18T11:28:27.000Z</time>
      </trkpt>
      <trkpt lat="43.49148" lon="6.78957">
        <ele>346</ele>
        <time>2013-09-18T11:28:28.000Z</time>
      </trkpt>
      <trkpt lat="43.49149" lon="6.78958">
        <ele>346</ele>
        <time>2013-09-18T11:28:29.000Z</time>
      </trkpt>
      <trkpt lat="43.49151" lon="6.78959">
        <ele>346</ele>
        <time>2013-09-18T11:28:30.000Z</time>
      </trkpt>
      <trkpt lat="43.49153" lon="6.7896">
        <ele>347</ele>
        <time>2013-09-18T11:28:31.000Z</time>
      </trkpt>
      <trkpt lat="43.49154" lon="6.78961">
        <ele>347</ele>
        <time>2013-09-18T11:28:32.000Z</time>
      </trkpt>
      <trkpt lat="43.49156" lon="6.78962">
        <ele>347</ele>
        <time>2013-09-18T11:28:33.000Z</time>
      </trkpt>
      <trkpt lat="43.49157" lon="6.78964">
        <ele>347</ele>
        <time>2013-09-18T11:28:34.000Z</time>
      </trkpt>
      <trkpt lat="43.49159" lon="6.78965">
        <ele>347</ele>
        <time>2013-09-18T11:28:35.000Z</time>
      </trkpt>
      <trkpt lat="43.49161" lon="6.78966">
        <ele>348</ele>
        <time>2013-09-18T11:28:36.000Z</time>
      </trkpt>
      <trkpt lat="43.49162" lon="6.78967">
        <ele>348</ele>
        <time>2013-09-18T11:28:37.000Z</time>
      </trkpt>
      <trkpt lat="43.49164" lon="6.78968">
        <ele>348</ele>
        <time>2013-09-18T11:28:38.000Z</time>
      </trkpt>
      <trkpt lat="43.49165" lon="6.7897">
        <ele>348</ele>
        <time>2013-09-18T11:28:39.000Z</time>
      </trkpt>
      <trkpt lat="43.49167" lon="6.78971">
        <ele>338</ele>
        <time>2013-09-18T11:28:40.000Z</time>
      </trkpt>
      <trkpt lat="43.49168" lon="6.78972">
        <ele>339</ele>
        <time>2013-09-18T11:28:41.000Z</time>
      </trkpt>
      <trkpt lat="43.4917" lon="6.78974">
        <ele>339</ele>
        <time>2013-09-18T11:28:42.000Z</time>
      </trkpt>
      <trkpt lat="43.49171" lon="6.78975">
        <ele>339</ele>
        <time>2013-09-18T11:28:43.000Z</time>
      </trkpt>
      <trkpt lat="43.49173" lon="6.78976">
        <ele>340</ele>
        <time>2013-09-18T11:28:44.000Z</time>
      </trkpt>
      <trkpt lat="43.49174" lon="6.78978">
        <ele>340</ele>
        <time>2013-09-18T11:28:45.000Z</time>
      </trkpt>
      <trkpt lat="43.49176" lon="6.78979">
        <ele>341</ele>
        <time>2013-09-18T11:28:46.000Z</time>
      </trkpt>
      <trkpt lat="43.49177" lon="6.78981">
        <ele>341</ele>
        <time>2013-09-18T11:28:47.000Z</time>
      </trkpt>
      <trkpt lat="43.49179" lon="6.78982">
        <ele>341</ele>
        <time>2013-09-18T11:28:48.000Z</time>
      </trkpt>
      <trkpt lat="43.4918" lon="6.78983">
        <ele>341</ele>
        <time>2013-09-18T11:28:49.000Z</time>
      </trkpt>
      <trkpt lat="43.49182" lon="6.78984">
        <ele>341</ele>
        <time>2013-09-18T11:28:50.000Z</time>
      </trkpt>
      <trkpt lat="43.49183" lon="6.78986">
        <ele>341</ele>
        <time>2013-09-18T11:28:51.000Z</time>
      </trkpt>
      <trkpt lat="43.49185" lon="6.78987">
        <ele>341</ele>
        <time>2013-09-18T11:28:52.000Z</time>
      </trkpt>
      <trkpt lat="43.49186" lon="6.78989">
        <ele>341</ele>
        <time>2013-09-18T11:28:53.000Z</time>
      </trkpt>
      <trkpt lat="43.49188" lon="6.7899">
        <ele>341</ele>
        <time>2013-09-18T11:28:54.000Z</time>
      </trkpt>
      <trkpt lat="43.49189" lon="6.78992">
        <ele>341</ele>
        <time>2013-09-18T11:28:55.000Z</time>
      </trkpt>
      <trkpt lat="43.49191" lon="6.78993">
        <ele>340</ele>
        <time>2013-09-18T11:28:56.000Z</time>
      </trkpt>
      <trkpt lat="43.49192" lon="6.78995">
        <ele>340</ele>
        <time>2013-09-18T11:28:57.000Z</time>
      </trkpt>
      <trkpt lat="43.49194" lon="6.78996">
        <ele>340</ele>
        <time>2013-09-18T11:28:58.000Z</time>
      </trkpt>
      <trkpt lat="43.49195" lon="6.78998">
        <ele>339</ele>
        <time>2013-09-18T11:28:59.000Z</time>
      </trkpt>
      <trkpt lat="43.49197" lon="6.78999">
        <ele>339</ele>
        <time>2013-09-18T11:29:00.000Z</time>
      </trkpt>
      <trkpt lat="43.49199" lon="6.79">
        <ele>348</ele>
        <time>2013-09-18T11:29:01.000Z</time>
      </trkpt>
      <trkpt lat="43.492" lon="6.79001">
        <ele>357</ele>
        <time>2013-09-18T11:29:02.000Z</time>
      </trkpt>
      <trkpt lat="43.49202" lon="6.79003">
        <ele>357</ele>
        <time>2013-09-18T11:29:03.000Z</time>
      </trkpt>
      <trkpt lat="43.49204" lon="6.79004">
        <ele>357</ele>
        <time>2013-09-18T11:29:04.000Z</time>
      </trkpt>
      <trkpt lat="43.49205" lon="6.79005">
        <ele>357</ele>
        <time>2013-09-18T11:29:05.000Z</time>
      </trkpt>
      <trkpt lat="43.49207" lon="6.79006">
        <ele>357</ele>
        <time>2013-09-18T11:29:06.000Z</time>
      </trkpt>
      <trkpt lat="43.49208" lon="6.79008">
        <ele>357</ele>
        <time>2013-09-18T11:29:07.000Z</time>
      </trkpt>
      <trkpt lat="43.4921" lon="6.79009">
        <ele>357</ele>
        <time>2013-09-18T11:29:08.000Z</time>
      </trkpt>
      <trkpt lat="43.49212" lon="6.7901">
        <ele>356</ele>
        <time>2013-09-18T11:29:09.000Z</time>
      </trkpt>
      <trkpt lat="43.49213" lon="6.79012">
        <ele>356</ele>
        <time>2013-09-18T11:29:10.000Z</time>
      </trkpt>
      <trkpt lat="43.49215" lon="6.79013">
        <ele>356</ele>
        <time>2013-09-18T11:29:11.000Z</time>
      </trkpt>
      <trkpt lat="43.49217" lon="6.79014">
        <ele>356</ele>
        <time>2013-09-18T11:29:12.000Z</time>
      </trkpt>
      <trkpt lat="43.49219" lon="6.79016">
        <ele>356</ele>
        <time>2013-09-18T11:29:13.000Z</time>
      </trkpt>
      <trkpt lat="43.49221" lon="6.79017">
        <ele>356</ele>
        <time>2013-09-18T11:29:14.000Z</time>
      </trkpt>
      <trkpt lat="43.49222" lon="6.79018">
        <ele>356</ele>
        <time>2013-09-18T11:29:15.000Z</time>
      </trkpt>
      <trkpt lat="43.49224" lon="6.7902">
        <ele>355</ele>
        <time>2013-09-18T11:29:16.000Z</time>
      </trkpt>
      <trkpt lat="43.49226" lon="6.79021">
        <ele>355</ele>
        <time>2013-09-18T11:29:17.000Z</time>
      </trkpt>
      <trkpt lat="43.49228" lon="6.79022">
        <ele>355</ele>
        <time>2013-09-18T11:29:18.000Z</time>
      </trkpt>
      <trkpt lat="43.49229" lon="6.79023">
        <ele>355</ele>
        <time>2013-09-18T11:29:19.000Z</time>
      </trkpt>
      <trkpt lat="43.49231" lon="6.79025">
        <ele>355</ele>
        <time>2013-09-18T11:29:20.000Z</time>
      </trkpt>
      <trkpt lat="43.49233" lon="6.79026">
        <ele>355</ele>
        <time>2013-09-18T11:29:21.000Z</time>
      </trkpt>
      <trkpt lat="43.49235" lon="6.79027">
        <ele>355</ele>
        <time>2013-09-18T11:29:22.000Z</time>
      </trkpt>
      <trkpt lat="43.49236" lon="6.79029">
        <ele>356</ele>
        <time>2013-09-18T11:29:23.000Z</time>
      </trkpt>
      <trkpt lat="43.49238" lon="6.7903">
        <ele>356</ele>
        <time>2013-09-18T11:29:24.000Z</time>
      </trkpt>
      <trkpt lat="43.4924" lon="6.79032">
        <ele>356</ele>
        <time>2013-09-18T11:29:25.000Z</time>
      </trkpt>
      <trkpt lat="43.49241" lon="6.79034">
        <ele>356</ele>
        <time>2013-09-18T11:29:26.000Z</time>
      </trkpt>
      <trkpt lat="43.49243" lon="6.79035">
        <ele>357</ele>
        <time>2013-09-18T11:29:27.000Z</time>
      </trkpt>
      <trkpt lat="43.49245" lon="6.79037">
        <ele>357</ele>
        <time>2013-09-18T11:29:28.000Z</time>
      </trkpt>
      <trkpt lat="43.49247" lon="6.79039">
        <ele>357</ele>
        <time>2013-09-18T11:29:29.000Z</time>
      </trkpt>
      <trkpt lat="43.49249" lon="6.79041">
        <ele>358</ele>
        <time>2013-09-18T11:29:30.000Z</time>
      </trkpt>
      <trkpt lat="43.4925" lon="6.79042">
        <ele>343</ele>
        <time>2013-09-18T11:29:31.000Z</time>
      </trkpt>
      <trkpt lat="43.49252" lon="6.79044">
        <ele>343</ele>
        <time>2013-09-18T11:29:32.000Z</time>
      </trkpt>
      <trkpt lat="43.49254" lon="6.79046">
        <ele>343</ele>
        <time>2013-09-18T11:29:33.000Z</time>
      </trkpt>
      <trkpt lat="43.49256" lon="6.79048">
        <ele>344</ele>
        <time>2013-09-18T11:29:34.000Z</time>
      </trkpt>
      <trkpt lat="43.49257" lon="6.7905">
        <ele>344</ele>
        <time>2013-09-18T11:29:35.000Z</time>
      </trkpt>
      <trkpt lat="43.49259" lon="6.79052">
        <ele>345</ele>
        <time>2013-09-18T11:29:36.000Z</time>
      </trkpt>
      <trkpt lat="43.49261" lon="6.79054">
        <ele>345</ele>
        <time>2013-09-18T11:29:37.000Z</time>
      </trkpt>
      <trkpt lat="43.49263" lon="6.79056">
        <ele>345</ele>
        <time>2013-09-18T11:29:38.000Z</time>
      </trkpt>
      <trkpt lat="43.49264" lon="6.79058">
        <ele>346</ele>
        <time>2013-09-18T11:29:39.000Z</time>
      </trkpt>
      <trkpt lat="43.49266" lon="6.7906">
        <ele>346</ele>
        <time>2013-09-18T11:29:40.000Z</time>
      </trkpt>
      <trkpt lat="43.49268" lon="6.79063">
        <ele>346</ele>
        <time>2013-09-18T11:29:41.000Z</time>
      </trkpt>
      <trkpt lat="43.4927" lon="6.79065">
        <ele>346</ele>
        <time>2013-09-18T11:29:42.000Z</time>
      </trkpt>
      <trkpt lat="43.49271" lon="6.79067">
        <ele>346</ele>
        <time>2013-09-18T11:29:43.000Z</time>
      </trkpt>
      <trkpt lat="43.49273" lon="6.79069">
        <ele>347</ele>
        <time>2013-09-18T11:29:44.000Z</time>
      </trkpt>
      <trkpt lat="43.49274" lon="6.79072">
        <ele>346</ele>
        <time>2013-09-18T11:29:45.000Z</time>
      </trkpt>
      <trkpt lat="43.49276" lon="6.79075">
        <ele>346</ele>
        <time>2013-09-18T11:29:46.000Z</time>
      </trkpt>
      <trkpt lat="43.49277" lon="6.79078">
        <ele>346</ele>
        <time>2013-09-18T11:29:47.000Z</time>
      </trkpt>
      <trkpt lat="43.49278" lon="6.7908">
        <ele>346</ele>
        <time>2013-09-18T11:29:48.000Z</time>
      </trkpt>
      <trkpt lat="43.4928" lon="6.79083">
        <ele>346</ele>
        <time>2013-09-18T11:29:49.000Z</time>
      </trkpt>
      <trkpt lat="43.49281" lon="6.79086">
        <ele>359</ele>
        <time>2013-09-18T11:29:50.000Z</time>
      </trkpt>
      <trkpt lat="43.49283" lon="6.79089">
        <ele>358</ele>
        <time>2013-09-18T11:29:51.000Z</time>
      </trkpt>
      <trkpt lat="43.49284" lon="6.79092">
        <ele>358</ele>
        <time>2013-09-18T11:29:52.000Z</time>
      </trkpt>
      <trkpt lat="43.49285" lon="6.79094">
        <ele>358</ele>
        <time>2013-09-18T11:29:53.000Z</time>
      </trkpt>
      <trkpt lat="43.49287" lon="6.79097">
        <ele>358</ele>
        <time>2013-09-18T11:29:54.000Z</time>
      </trkpt>
      <trkpt lat="43.49288" lon="6.791">
        <ele>358</ele>
        <time>2013-09-18T11:29:55.000Z</time>
      </trkpt>
      <trkpt lat="43.49289" lon="6.79102">
        <ele>358</ele>
        <time>2013-09-18T11:29:56.000Z</time>
      </trkpt>
      <trkpt lat="43.4929" lon="6.79105">
        <ele>358</ele>
        <time>2013-09-18T11:29:57.000Z</time>
      </trkpt>
      <trkpt lat="43.49291" lon="6.79107">
        <ele>358</ele>
        <time>2013-09-18T11:29:58.000Z</time>
      </trkpt>
      <trkpt lat="43.49292" lon="6.79109">
        <ele>358</ele>
        <time>2013-09-18T11:29:59.000Z</time>
      </trkpt>
      <trkpt lat="43.49293" lon="6.79111">
        <ele>358</ele>
        <time>2013-09-18T11:30:00.000Z</time>
      </trkpt>
      <trkpt lat="43.49294" lon="6.79114">
        <ele>358</ele>
        <time>2013-09-18T11:30:01.000Z</time>
      </trkpt>
      <trkpt lat="43.49295" lon="6.79116">
        <ele>358</ele>
        <time>2013-09-18T11:30:02.000Z</time>
      </trkpt>
      <trkpt lat="43.49296" lon="6.79119">
        <ele>358</ele>
        <time>2013-09-18T11:30:03.000Z</time>
      </trkpt>
      <trkpt lat="43.49297" lon="6.79121">
        <ele>358</ele>
        <time>2013-09-18T11:30:04.000Z</time>
      </trkpt>
      <trkpt lat="43.49297" lon="6.79124">
        <ele>358</ele>
        <time>2013-09-18T11:30:05.000Z</time>
      </trkpt>
      <trkpt lat="43.49298" lon="6.79126">
        <ele>359</ele>
        <time>2013-09-18T11:30:06.000Z</time>
      </trkpt>
      <trkpt lat="43.49299" lon="6.79129">
        <ele>359</ele>
        <time>2013-09-18T11:30:07.000Z</time>
      </trkpt>
      <trkpt lat="43.493" lon="6.79131">
        <ele>359</ele>
        <time>2013-09-18T11:30:08.000Z</time>
      </trkpt>
      <trkpt lat="43.493" lon="6.79134">
        <ele>359</ele>
        <time>2013-09-18T11:30:09.000Z</time>
      </trkpt>
      <trkpt lat="43.49301" lon="6.79136">
        <ele>359</ele>
        <time>2013-09-18T11:30:10.000Z</time>
      </trkpt>
      <trkpt lat="43.49302" lon="6.79138">
        <ele>359</ele>
        <time>2013-09-18T11:30:11.000Z</time>
      </trkpt>
      <trkpt lat="43.49302" lon="6.7914">
        <ele>359</ele>
        <time>2013-09-18T11:30:12.000Z</time>
      </trkpt>
      <trkpt lat="43.49303" lon="6.79142">
        <ele>359</ele>
        <time>2013-09-18T11:30:13.000Z</time>
      </trkpt>
      <trkpt lat="43.49304" lon="6.79144">
        <ele>359</ele>
        <time>2013-09-18T11:30:14.000Z</time>
      </trkpt>
      <trkpt lat="43.49305" lon="6.79147">
        <ele>359</ele>
        <time>2013-09-18T11:30:15.000Z</time>
      </trkpt>
      <trkpt lat="43.49306" lon="6.79149">
        <ele>359</ele>
        <time>2013-09-18T11:30:16.000Z</time>
      </trkpt>
      <trkpt lat="43.49307" lon="6.79151">
        <ele>359</ele>
        <time>2013-09-18T11:30:17.000Z</time>
      </trkpt>
      <trkpt lat="43.49307" lon="6.79154">
        <ele>359</ele>
        <time>2013-09-18T11:30:18.000Z</time>
      </trkpt>
      <trkpt lat="43.49308" lon="6.79156">
        <ele>359</ele>
        <time>2013-09-18T11:30:19.000Z</time>
      </trkpt>
      <trkpt lat="43.49309" lon="6.79158">
        <ele>359</ele>
        <time>2013-09-18T11:30:20.000Z</time>
      </trkpt>
      <trkpt lat="43.49309" lon="6.79161">
        <ele>358</ele>
        <time>2013-09-18T11:30:21.000Z</time>
      </trkpt>
      <trkpt lat="43.4931" lon="6.79163">
        <ele>358</ele>
        <time>2013-09-18T11:30:22.000Z</time>
      </trkpt>
      <trkpt lat="43.49311" lon="6.79165">
        <ele>358</ele>
        <time>2013-09-18T11:30:23.000Z</time>
      </trkpt>
      <trkpt lat="43.49312" lon="6.79168">
        <ele>368</ele>
        <time>2013-09-18T11:30:24.000Z</time>
      </trkpt>
      <trkpt lat="43.49313" lon="6.7917">
        <ele>367</ele>
        <time>2013-09-18T11:30:25.000Z</time>
      </trkpt>
      <trkpt lat="43.49314" lon="6.79172">
        <ele>367</ele>
        <time>2013-09-18T11:30:26.000Z</time>
      </trkpt>
      <trkpt lat="43.49315" lon="6.79175">
        <ele>367</ele>
        <time>2013-09-18T11:30:27.000Z</time>
      </trkpt>
      <trkpt lat="43.49316" lon="6.79177">
        <ele>367</ele>
        <time>2013-09-18T11:30:28.000Z</time>
      </trkpt>
      <trkpt lat="43.49317" lon="6.79179">
        <ele>367</ele>
        <time>2013-09-18T11:30:29.000Z</time>
      </trkpt>
      <trkpt lat="43.49318" lon="6.79182">
        <ele>368</ele>
        <time>2013-09-18T11:30:30.000Z</time>
      </trkpt>
      <trkpt lat="43.49319" lon="6.79184">
        <ele>368</ele>
        <time>2013-09-18T11:30:31.000Z</time>
      </trkpt>
      <trkpt lat="43.4932" lon="6.79187">
        <ele>368</ele>
        <time>2013-09-18T11:30:32.000Z</time>
      </trkpt>
      <trkpt lat="43.49322" lon="6.79189">
        <ele>369</ele>
        <time>2013-09-18T11:30:33.000Z</time>
      </trkpt>
      <trkpt lat="43.49323" lon="6.79191">
        <ele>369</ele>
        <time>2013-09-18T11:30:34.000Z</time>
      </trkpt>
      <trkpt lat="43.49324" lon="6.79193">
        <ele>370</ele>
        <time>2013-09-18T11:30:35.000Z</time>
      </trkpt>
      <trkpt lat="43.49325" lon="6.79195">
        <ele>370</ele>
        <time>2013-09-18T11:30:36.000Z</time>
      </trkpt>
      <trkpt lat="43.49326" lon="6.79198">
        <ele>371</ele>
        <time>2013-09-18T11:30:37.000Z</time>
      </trkpt>
      <trkpt lat="43.49327" lon="6.792">
        <ele>371</ele>
        <time>2013-09-18T11:30:38.000Z</time>
      </trkpt>
      <trkpt lat="43.49328" lon="6.79202">
        <ele>371</ele>
        <time>2013-09-18T11:30:39.000Z</time>
      </trkpt>
      <trkpt lat="43.4933" lon="6.79204">
        <ele>372</ele>
        <time>2013-09-18T11:30:40.000Z</time>
      </trkpt>
      <trkpt lat="43.49331" lon="6.79206">
        <ele>372</ele>
        <time>2013-09-18T11:30:41.000Z</time>
      </trkpt>
      <trkpt lat="43.49332" lon="6.79208">
        <ele>372</ele>
        <time>2013-09-18T11:30:42.000Z</time>
      </trkpt>
      <trkpt lat="43.49333" lon="6.79211">
        <ele>373</ele>
        <time>2013-09-18T11:30:43.000Z</time>
      </trkpt>
      <trkpt lat="43.49334" lon="6.79213">
        <ele>353</ele>
        <time>2013-09-18T11:30:44.000Z</time>
      </trkpt>
      <trkpt lat="43.49336" lon="6.79215">
        <ele>353</ele>
        <time>2013-09-18T11:30:45.000Z</time>
      </trkpt>
      <trkpt lat="43.49337" lon="6.79217">
        <ele>354</ele>
        <time>2013-09-18T11:30:46.000Z</time>
      </trkpt>
      <trkpt lat="43.49338" lon="6.79219">
        <ele>354</ele>
        <time>2013-09-18T11:30:47.000Z</time>
      </trkpt>
      <trkpt lat="43.49339" lon="6.79222">
        <ele>355</ele>
        <time>2013-09-18T11:30:48.000Z</time>
      </trkpt>
      <trkpt lat="43.49341" lon="6.79224">
        <ele>355</ele>
        <time>2013-09-18T11:30:49.000Z</time>
      </trkpt>
      <trkpt lat="43.49342" lon="6.79227">
        <ele>356</ele>
        <time>2013-09-18T11:30:50.000Z</time>
      </trkpt>
      <trkpt lat="43.49343" lon="6.7923">
        <ele>357</ele>
        <time>2013-09-18T11:30:51.000Z</time>
      </trkpt>
      <trkpt lat="43.49345" lon="6.79233">
        <ele>357</ele>
        <time>2013-09-18T11:30:52.000Z</time>
      </trkpt>
      <trkpt lat="43.49347" lon="6.79236">
        <ele>358</ele>
        <time>2013-09-18T11:30:53.000Z</time>
      </trkpt>
      <trkpt lat="43.49348" lon="6.79239">
        <ele>358</ele>
        <time>2013-09-18T11:30:54.000Z</time>
      </trkpt>
      <trkpt lat="43.49349" lon="6.79242">
        <ele>358</ele>
        <time>2013-09-18T11:30:55.000Z</time>
      </trkpt>
      <trkpt lat="43.49351" lon="6.79245">
        <ele>358</ele>
        <time>2013-09-18T11:30:56.000Z</time>
      </trkpt>
      <trkpt lat="43.49352" lon="6.79248">
        <ele>358</ele>
        <time>2013-09-18T11:30:57.000Z</time>
      </trkpt>
      <trkpt lat="43.49354" lon="6.79251">
        <ele>366</ele>
        <time>2013-09-18T11:30:58.000Z</time>
      </trkpt>
      <trkpt lat="43.49355" lon="6.79255">
        <ele>365</ele>
        <time>2013-09-18T11:30:59.000Z</time>
      </trkpt>
      <trkpt lat="43.49357" lon="6.79258">
        <ele>365</ele>
        <time>2013-09-18T11:31:00.000Z</time>
      </trkpt>
      <trkpt lat="43.49359" lon="6.79261">
        <ele>365</ele>
        <time>2013-09-18T11:31:01.000Z</time>
      </trkpt>
      <trkpt lat="43.49361" lon="6.79264">
        <ele>364</ele>
        <time>2013-09-18T11:31:02.000Z</time>
      </trkpt>
      <trkpt lat="43.49362" lon="6.79267">
        <ele>364</ele>
        <time>2013-09-18T11:31:03.000Z</time>
      </trkpt>
      <trkpt lat="43.49364" lon="6.7927">
        <ele>364</ele>
        <time>2013-09-18T11:31:04.000Z</time>
      </trkpt>
      <trkpt lat="43.49366" lon="6.79273">
        <ele>364</ele>
        <time>2013-09-18T11:31:05.000Z</time>
      </trkpt>
      <trkpt lat="43.49368" lon="6.79277">
        <ele>364</ele>
        <time>2013-09-18T11:31:06.000Z</time>
      </trkpt>
      <trkpt lat="43.4937" lon="6.7928">
        <ele>363</ele>
        <time>2013-09-18T11:31:07.000Z</time>
      </trkpt>
      <trkpt lat="43.49372" lon="6.79284">
        <ele>363</ele>
        <time>2013-09-18T11:31:08.000Z</time>
      </trkpt>
      <trkpt lat="43.49374" lon="6.79288">
        <ele>363</ele>
        <time>2013-09-18T11:31:09.000Z</time>
      </trkpt>
      <trkpt lat="43.49377" lon="6.79292">
        <ele>363</ele>
        <time>2013-09-18T11:31:10.000Z</time>
      </trkpt>
      <trkpt lat="43.49379" lon="6.79296">
        <ele>363</ele>
        <time>2013-09-18T11:31:11.000Z</time>
      </trkpt>
      <trkpt lat="43.49381" lon="6.79299">
        <ele>363</ele>
        <time>2013-09-18T11:31:12.000Z</time>
      </trkpt>
      <trkpt lat="43.49384" lon="6.79303">
        <ele>363</ele>
        <time>2013-09-18T11:31:13.000Z</time>
      </trkpt>
      <trkpt lat="43.49386" lon="6.79307">
        <ele>363</ele>
        <time>2013-09-18T11:31:14.000Z</time>
      </trkpt>
      <trkpt lat="43.49389" lon="6.7931">
        <ele>363</ele>
        <time>2013-09-18T11:31:15.000Z</time>
      </trkpt>
      <trkpt lat="43.49392" lon="6.79314">
        <ele>362</ele>
        <time>2013-09-18T11:31:16.000Z</time>
      </trkpt>
      <trkpt lat="43.49394" lon="6.79317">
        <ele>362</ele>
        <time>2013-09-18T11:31:17.000Z</time>
      </trkpt>
      <trkpt lat="43.49397" lon="6.79321">
        <ele>362</ele>
        <time>2013-09-18T11:31:18.000Z</time>
      </trkpt>
      <trkpt lat="43.49399" lon="6.79326">
        <ele>361</ele>
        <time>2013-09-18T11:31:19.000Z</time>
      </trkpt>
      <trkpt lat="43.49402" lon="6.7933">
        <ele>361</ele>
        <time>2013-09-18T11:31:20.000Z</time>
      </trkpt>
      <trkpt lat="43.49404" lon="6.79334">
        <ele>367</ele>
        <time>2013-09-18T11:31:21.000Z</time>
      </trkpt>
      <trkpt lat="43.49407" lon="6.79338">
        <ele>366</ele>
        <time>2013-09-18T11:31:22.000Z</time>
      </trkpt>
      <trkpt lat="43.4941" lon="6.79342">
        <ele>367</ele>
        <time>2013-09-18T11:31:23.000Z</time>
      </trkpt>
      <trkpt lat="43.49412" lon="6.79346">
        <ele>368</ele>
        <time>2013-09-18T11:31:24.000Z</time>
      </trkpt>
      <trkpt lat="43.49414" lon="6.7935">
        <ele>369</ele>
        <time>2013-09-18T11:31:25.000Z</time>
      </trkpt>
      <trkpt lat="43.49417" lon="6.79353">
        <ele>356</ele>
        <time>2013-09-18T11:31:26.000Z</time>
      </trkpt>
      <trkpt lat="43.49419" lon="6.79357">
        <ele>355</ele>
        <time>2013-09-18T11:31:27.000Z</time>
      </trkpt>
      <trkpt lat="43.49422" lon="6.79361">
        <ele>355</ele>
        <time>2013-09-18T11:31:28.000Z</time>
      </trkpt>
      <trkpt lat="43.49424" lon="6.79365">
        <ele>355</ele>
        <time>2013-09-18T11:31:29.000Z</time>
      </trkpt>
      <trkpt lat="43.49426" lon="6.79369">
        <ele>355</ele>
        <time>2013-09-18T11:31:30.000Z</time>
      </trkpt>
      <trkpt lat="43.49429" lon="6.79373">
        <ele>356</ele>
        <time>2013-09-18T11:31:31.000Z</time>
      </trkpt>
      <trkpt lat="43.49431" lon="6.79377">
        <ele>356</ele>
        <time>2013-09-18T11:31:32.000Z</time>
      </trkpt>
      <trkpt lat="43.49434" lon="6.79381">
        <ele>356</ele>
        <time>2013-09-18T11:31:33.000Z</time>
      </trkpt>
      <trkpt lat="43.49436" lon="6.79386">
        <ele>357</ele>
        <time>2013-09-18T11:31:34.000Z</time>
      </trkpt>
      <trkpt lat="43.49439" lon="6.79391">
        <ele>357</ele>
        <time>2013-09-18T11:31:35.000Z</time>
      </trkpt>
      <trkpt lat="43.49441" lon="6.79395">
        <ele>357</ele>
        <time>2013-09-18T11:31:36.000Z</time>
      </trkpt>
      <trkpt lat="43.49443" lon="6.794">
        <ele>357</ele>
        <time>2013-09-18T11:31:37.000Z</time>
      </trkpt>
      <trkpt lat="43.49445" lon="6.79405">
        <ele>357</ele>
        <time>2013-09-18T11:31:38.000Z</time>
      </trkpt>
      <trkpt lat="43.49447" lon="6.7941">
        <ele>357</ele>
        <time>2013-09-18T11:31:39.000Z</time>
      </trkpt>
      <trkpt lat="43.4945" lon="6.79415">
        <ele>357</ele>
        <time>2013-09-18T11:31:40.000Z</time>
      </trkpt>
      <trkpt lat="43.49452" lon="6.7942">
        <ele>363</ele>
        <time>2013-09-18T11:31:41.000Z</time>
      </trkpt>
      <trkpt lat="43.49454" lon="6.79425">
        <ele>363</ele>
        <time>2013-09-18T11:31:42.000Z</time>
      </trkpt>
      <trkpt lat="43.49455" lon="6.7943">
        <ele>362</ele>
        <time>2013-09-18T11:31:43.000Z</time>
      </trkpt>
      <trkpt lat="43.49457" lon="6.79435">
        <ele>362</ele>
        <time>2013-09-18T11:31:44.000Z</time>
      </trkpt>
      <trkpt lat="43.49459" lon="6.7944">
        <ele>362</ele>
        <time>2013-09-18T11:31:45.000Z</time>
      </trkpt>
      <trkpt lat="43.49461" lon="6.79444">
        <ele>362</ele>
        <time>2013-09-18T11:31:46.000Z</time>
      </trkpt>
      <trkpt lat="43.49462" lon="6.79449">
        <ele>362</ele>
        <time>2013-09-18T11:31:47.000Z</time>
      </trkpt>
      <trkpt lat="43.49464" lon="6.79453">
        <ele>361</ele>
        <time>2013-09-18T11:31:48.000Z</time>
      </trkpt>
      <trkpt lat="43.49466" lon="6.79458">
        <ele>361</ele>
        <time>2013-09-18T11:31:49.000Z</time>
      </trkpt>
      <trkpt lat="43.49467" lon="6.79462">
        <ele>361</ele>
        <time>2013-09-18T11:31:50.000Z</time>
      </trkpt>
      <trkpt lat="43.49468" lon="6.79466">
        <ele>361</ele>
        <time>2013-09-18T11:31:51.000Z</time>
      </trkpt>
      <trkpt lat="43.4947" lon="6.7947">
        <ele>361</ele>
        <time>2013-09-18T11:31:52.000Z</time>
      </trkpt>
      <trkpt lat="43.49471" lon="6.79474">
        <ele>361</ele>
        <time>2013-09-18T11:31:53.000Z</time>
      </trkpt>
      <trkpt lat="43.49472" lon="6.79478">
        <ele>360</ele>
        <time>2013-09-18T11:31:54.000Z</time>
      </trkpt>
      <trkpt lat="43.49473" lon="6.79481">
        <ele>360</ele>
        <time>2013-09-18T11:31:55.000Z</time>
      </trkpt>
      <trkpt lat="43.49473" lon="6.79485">
        <ele>360</ele>
        <time>2013-09-18T11:31:56.000Z</time>
      </trkpt>
      <trkpt lat="43.49474" lon="6.79488">
        <ele>359</ele>
        <time>2013-09-18T11:31:57.000Z</time>
      </trkpt>
      <trkpt lat="43.49475" lon="6.79491">
        <ele>359</ele>
        <time>2013-09-18T11:31:58.000Z</time>
      </trkpt>
      <trkpt lat="43.49475" lon="6.79494">
        <ele>359</ele>
        <time>2013-09-18T11:31:59.000Z</time>
      </trkpt>
      <trkpt lat="43.49475" lon="6.79498">
        <ele>359</ele>
        <time>2013-09-18T11:32:00.000Z</time>
      </trkpt>
      <trkpt lat="43.49476" lon="6.795">
        <ele>361</ele>
        <time>2013-09-18T11:32:01.000Z</time>
      </trkpt>
      <trkpt lat="43.49476" lon="6.79503">
        <ele>361</ele>
        <time>2013-09-18T11:32:02.000Z</time>
      </trkpt>
      <trkpt lat="43.49476" lon="6.79505">
        <ele>361</ele>
        <time>2013-09-18T11:32:03.000Z</time>
      </trkpt>
      <trkpt lat="43.49476" lon="6.79505">
        <ele>361</ele>
        <time>2013-09-18T11:32:04.000Z</time>
      </trkpt>
      <trkpt lat="43.49477" lon="6.79507">
        <ele>361</ele>
        <time>2013-09-18T11:32:12.000Z</time>
      </trkpt>
      <trkpt lat="43.49476" lon="6.79507">
        <ele>361</ele>
        <time>2013-09-18T11:32:15.000Z</time>
      </trkpt>
      <trkpt lat="43.49477" lon="6.79508">
        <ele>361</ele>
        <time>2013-09-18T11:32:18.000Z</time>
      </trkpt>
      <trkpt lat="43.49476" lon="6.79508">
        <ele>361</ele>
        <time>2013-09-18T11:32:20.000Z</time>
      </trkpt>
      <trkpt lat="43.49477" lon="6.79508">
        <ele>361</ele>
        <time>2013-09-18T11:32:24.000Z</time>
      </trkpt>
      <trkpt lat="43.49476" lon="6.79509">
        <ele>361</ele>
        <time>2013-09-18T11:32:39.000Z</time>
      </trkpt>
      <trkpt lat="43.49477" lon="6.7951">
        <ele>361</ele>
        <time>2013-09-18T11:32:40.000Z</time>
      </trkpt>
      <trkpt lat="43.49476" lon="6.79511">
        <ele>361</ele>
        <time>2013-09-18T11:32:46.000Z</time>
      </trkpt>
      <trkpt lat="43.49477" lon="6.79513">
        <ele>361</ele>
        <time>2013-09-18T11:32:47.000Z</time>
      </trkpt>
      <trkpt lat="43.49477" lon="6.79515">
        <ele>362</ele>
        <time>2013-09-18T11:32:48.000Z</time>
      </trkpt>
      <trkpt lat="43.49477" lon="6.79518">
        <ele>362</ele>
        <time>2013-09-18T11:32:49.000Z</time>
      </trkpt>
      <trkpt lat="43.49478" lon="6.79522">
        <ele>362</ele>
        <time>2013-09-18T11:32:50.000Z</time>
      </trkpt>
      <trkpt lat="43.49478" lon="6.79527">
        <ele>362</ele>
        <time>2013-09-18T11:32:51.000Z</time>
      </trkpt>
      <trkpt lat="43.49478" lon="6.79532">
        <ele>363</ele>
        <time>2013-09-18T11:32:52.000Z</time>
      </trkpt>
      <trkpt lat="43.49479" lon="6.79538">
        <ele>363</ele>
        <time>2013-09-18T11:32:53.000Z</time>
      </trkpt>
      <trkpt lat="43.49479" lon="6.79549">
        <ele>363</ele>
        <time>2013-09-18T11:32:55.000Z</time>
      </trkpt>
      <trkpt lat="43.49479" lon="6.7956">
        <ele>362</ele>
        <time>2013-09-18T11:32:57.000Z</time>
      </trkpt>
      <trkpt lat="43.49478" lon="6.79566">
        <ele>361</ele>
        <time>2013-09-18T11:32:58.000Z</time>
      </trkpt>
      <trkpt lat="43.49478" lon="6.79571">
        <ele>361</ele>
        <time>2013-09-18T11:32:59.000Z</time>
      </trkpt>
      <trkpt lat="43.49478" lon="6.79577">
        <ele>361</ele>
        <time>2013-09-18T11:33:00.000Z</time>
      </trkpt>
      <trkpt lat="43.49477" lon="6.79583">
        <ele>361</ele>
        <time>2013-09-18T11:33:01.000Z</time>
      </trkpt>
      <trkpt lat="43.49476" lon="6.79588">
        <ele>359</ele>
        <time>2013-09-18T11:33:02.000Z</time>
      </trkpt>
      <trkpt lat="43.49475" lon="6.79594">
        <ele>360</ele>
        <time>2013-09-18T11:33:03.000Z</time>
      </trkpt>
      <trkpt lat="43.49474" lon="6.79599">
        <ele>360</ele>
        <time>2013-09-18T11:33:04.000Z</time>
      </trkpt>
      <trkpt lat="43.49473" lon="6.79604">
        <ele>361</ele>
        <time>2013-09-18T11:33:05.000Z</time>
      </trkpt>
      <trkpt lat="43.49471" lon="6.79609">
        <ele>361</ele>
        <time>2013-09-18T11:33:06.000Z</time>
      </trkpt>
      <trkpt lat="43.49469" lon="6.79613">
        <ele>362</ele>
        <time>2013-09-18T11:33:07.000Z</time>
      </trkpt>
      <trkpt lat="43.49466" lon="6.79617">
        <ele>362</ele>
        <time>2013-09-18T11:33:08.000Z</time>
      </trkpt>
      <trkpt lat="43.49464" lon="6.79621">
        <ele>363</ele>
        <time>2013-09-18T11:33:09.000Z</time>
      </trkpt>
      <trkpt lat="43.49462" lon="6.79624">
        <ele>363</ele>
        <time>2013-09-18T11:33:10.000Z</time>
      </trkpt>
      <trkpt lat="43.4946" lon="6.79627">
        <ele>363</ele>
        <time>2013-09-18T11:33:11.000Z</time>
      </trkpt>
      <trkpt lat="43.49457" lon="6.7963">
        <ele>364</ele>
        <time>2013-09-18T11:33:12.000Z</time>
      </trkpt>
      <trkpt lat="43.49455" lon="6.79633">
        <ele>364</ele>
        <time>2013-09-18T11:33:13.000Z</time>
      </trkpt>
      <trkpt lat="43.49453" lon="6.79637">
        <ele>365</ele>
        <time>2013-09-18T11:33:14.000Z</time>
      </trkpt>
      <trkpt lat="43.4945" lon="6.7964">
        <ele>365</ele>
        <time>2013-09-18T11:33:15.000Z</time>
      </trkpt>
      <trkpt lat="43.49448" lon="6.79644">
        <ele>366</ele>
        <time>2013-09-18T11:33:16.000Z</time>
      </trkpt>
      <trkpt lat="43.49445" lon="6.79648">
        <ele>366</ele>
        <time>2013-09-18T11:33:17.000Z</time>
      </trkpt>
      <trkpt lat="43.49443" lon="6.79652">
        <ele>367</ele>
        <time>2013-09-18T11:33:18.000Z</time>
      </trkpt>
      <trkpt lat="43.4944" lon="6.79657">
        <ele>368</ele>
        <time>2013-09-18T11:33:19.000Z</time>
      </trkpt>
      <trkpt lat="43.49438" lon="6.79661">
        <ele>369</ele>
        <time>2013-09-18T11:33:20.000Z</time>
      </trkpt>
      <trkpt lat="43.49436" lon="6.79666">
        <ele>370</ele>
        <time>2013-09-18T11:33:21.000Z</time>
      </trkpt>
      <trkpt lat="43.49435" lon="6.79672">
        <ele>370</ele>
        <time>2013-09-18T11:33:22.000Z</time>
      </trkpt>
      <trkpt lat="43.49434" lon="6.79678">
        <ele>369</ele>
        <time>2013-09-18T11:33:23.000Z</time>
      </trkpt>
      <trkpt lat="43.49434" lon="6.79684">
        <ele>369</ele>
        <time>2013-09-18T11:33:24.000Z</time>
      </trkpt>
      <trkpt lat="43.49435" lon="6.79689">
        <ele>368</ele>
        <time>2013-09-18T11:33:25.000Z</time>
      </trkpt>
      <trkpt lat="43.49436" lon="6.79694">
        <ele>368</ele>
        <time>2013-09-18T11:33:26.000Z</time>
      </trkpt>
      <trkpt lat="43.49437" lon="6.79698">
        <ele>367</ele>
        <time>2013-09-18T11:33:27.000Z</time>
      </trkpt>
      <trkpt lat="43.49438" lon="6.79703">
        <ele>367</ele>
        <time>2013-09-18T11:33:28.000Z</time>
      </trkpt>
      <trkpt lat="43.4944" lon="6.79707">
        <ele>367</ele>
        <time>2013-09-18T11:33:29.000Z</time>
      </trkpt>
      <trkpt lat="43.49441" lon="6.79711">
        <ele>367</ele>
        <time>2013-09-18T11:33:30.000Z</time>
      </trkpt>
      <trkpt lat="43.49443" lon="6.79715">
        <ele>367</ele>
        <time>2013-09-18T11:33:31.000Z</time>
      </trkpt>
      <trkpt lat="43.49445" lon="6.79719">
        <ele>367</ele>
        <time>2013-09-18T11:33:32.000Z</time>
      </trkpt>
      <trkpt lat="43.49446" lon="6.79724">
        <ele>367</ele>
        <time>2013-09-18T11:33:33.000Z</time>
      </trkpt>
      <trkpt lat="43.49448" lon="6.79728">
        <ele>367</ele>
        <time>2013-09-18T11:33:34.000Z</time>
      </trkpt>
      <trkpt lat="43.4945" lon="6.79732">
        <ele>366</ele>
        <time>2013-09-18T11:33:35.000Z</time>
      </trkpt>
      <trkpt lat="43.49452" lon="6.79736">
        <ele>366</ele>
        <time>2013-09-18T11:33:36.000Z</time>
      </trkpt>
      <trkpt lat="43.49455" lon="6.79741">
        <ele>365</ele>
        <time>2013-09-18T11:33:37.000Z</time>
      </trkpt>
      <trkpt lat="43.49457" lon="6.79746">
        <ele>365</ele>
        <time>2013-09-18T11:33:38.000Z</time>
      </trkpt>
      <trkpt lat="43.49459" lon="6.79751">
        <ele>367</ele>
        <time>2013-09-18T11:33:39.000Z</time>
      </trkpt>
      <trkpt lat="43.49461" lon="6.79756">
        <ele>366</ele>
        <time>2013-09-18T11:33:40.000Z</time>
      </trkpt>
      <trkpt lat="43.49464" lon="6.79761">
        <ele>365</ele>
        <time>2013-09-18T11:33:41.000Z</time>
      </trkpt>
      <trkpt lat="43.49466" lon="6.79766">
        <ele>365</ele>
        <time>2013-09-18T11:33:42.000Z</time>
      </trkpt>
      <trkpt lat="43.49468" lon="6.79771">
        <ele>364</ele>
        <time>2013-09-18T11:33:43.000Z</time>
      </trkpt>
      <trkpt lat="43.4947" lon="6.79776">
        <ele>364</ele>
        <time>2013-09-18T11:33:44.000Z</time>
      </trkpt>
      <trkpt lat="43.49471" lon="6.79782">
        <ele>364</ele>
        <time>2013-09-18T11:33:45.000Z</time>
      </trkpt>
      <trkpt lat="43.49473" lon="6.79788">
        <ele>364</ele>
        <time>2013-09-18T11:33:46.000Z</time>
      </trkpt>
      <trkpt lat="43.49474" lon="6.79794">
        <ele>364</ele>
        <time>2013-09-18T11:33:47.000Z</time>
      </trkpt>
      <trkpt lat="43.49475" lon="6.798">
        <ele>364</ele>
        <time>2013-09-18T11:33:48.000Z</time>
      </trkpt>
      <trkpt lat="43.49476" lon="6.79806">
        <ele>363</ele>
        <time>2013-09-18T11:33:49.000Z</time>
      </trkpt>
      <trkpt lat="43.49476" lon="6.79813">
        <ele>363</ele>
        <time>2013-09-18T11:33:50.000Z</time>
      </trkpt>
      <trkpt lat="43.49476" lon="6.79819">
        <ele>362</ele>
        <time>2013-09-18T11:33:51.000Z</time>
      </trkpt>
      <trkpt lat="43.49476" lon="6.79826">
        <ele>362</ele>
        <time>2013-09-18T11:33:52.000Z</time>
      </trkpt>
      <trkpt lat="43.49476" lon="6.79832">
        <ele>362</ele>
        <time>2013-09-18T11:33:53.000Z</time>
      </trkpt>
      <trkpt lat="43.49475" lon="6.79839">
        <ele>360</ele>
        <time>2013-09-18T11:33:54.000Z</time>
      </trkpt>
      <trkpt lat="43.49475" lon="6.79846">
        <ele>361</ele>
        <time>2013-09-18T11:33:55.000Z</time>
      </trkpt>
      <trkpt lat="43.49474" lon="6.79852">
        <ele>361</ele>
        <time>2013-09-18T11:33:56.000Z</time>
      </trkpt>
      <trkpt lat="43.49473" lon="6.79859">
        <ele>362</ele>
        <time>2013-09-18T11:33:57.000Z</time>
      </trkpt>
      <trkpt lat="43.49472" lon="6.79865">
        <ele>362</ele>
        <time>2013-09-18T11:33:58.000Z</time>
      </trkpt>
      <trkpt lat="43.49471" lon="6.79871">
        <ele>362</ele>
        <time>2013-09-18T11:33:59.000Z</time>
      </trkpt>
      <trkpt lat="43.4947" lon="6.79878">
        <ele>362</ele>
        <time>2013-09-18T11:34:00.000Z</time>
      </trkpt>
      <trkpt lat="43.49469" lon="6.79884">
        <ele>362</ele>
        <time>2013-09-18T11:34:01.000Z</time>
      </trkpt>
      <trkpt lat="43.49467" lon="6.7989">
        <ele>362</ele>
        <time>2013-09-18T11:34:02.000Z</time>
      </trkpt>
      <trkpt lat="43.49466" lon="6.79896">
        <ele>362</ele>
        <time>2013-09-18T11:34:03.000Z</time>
      </trkpt>
      <trkpt lat="43.49464" lon="6.79902">
        <ele>362</ele>
        <time>2013-09-18T11:34:04.000Z</time>
      </trkpt>
      <trkpt lat="43.49462" lon="6.79909">
        <ele>362</ele>
        <time>2013-09-18T11:34:05.000Z</time>
      </trkpt>
      <trkpt lat="43.4946" lon="6.79915">
        <ele>363</ele>
        <time>2013-09-18T11:34:06.000Z</time>
      </trkpt>
      <trkpt lat="43.49457" lon="6.79922">
        <ele>360</ele>
        <time>2013-09-18T11:34:07.000Z</time>
      </trkpt>
      <trkpt lat="43.49455" lon="6.79928">
        <ele>360</ele>
        <time>2013-09-18T11:34:08.000Z</time>
      </trkpt>
      <trkpt lat="43.49452" lon="6.79934">
        <ele>361</ele>
        <time>2013-09-18T11:34:09.000Z</time>
      </trkpt>
      <trkpt lat="43.49449" lon="6.7994">
        <ele>361</ele>
        <time>2013-09-18T11:34:10.000Z</time>
      </trkpt>
      <trkpt lat="43.49447" lon="6.79946">
        <ele>361</ele>
        <time>2013-09-18T11:34:11.000Z</time>
      </trkpt>
      <trkpt lat="43.49445" lon="6.79951">
        <ele>361</ele>
        <time>2013-09-18T11:34:12.000Z</time>
      </trkpt>
      <trkpt lat="43.49442" lon="6.79956">
        <ele>361</ele>
        <time>2013-09-18T11:34:13.000Z</time>
      </trkpt>
      <trkpt lat="43.4944" lon="6.79961">
        <ele>361</ele>
        <time>2013-09-18T11:34:14.000Z</time>
      </trkpt>
      <trkpt lat="43.49439" lon="6.79965">
        <ele>361</ele>
        <time>2013-09-18T11:34:15.000Z</time>
      </trkpt>
      <trkpt lat="43.49437" lon="6.79969">
        <ele>362</ele>
        <time>2013-09-18T11:34:16.000Z</time>
      </trkpt>
      <trkpt lat="43.49436" lon="6.79972">
        <ele>362</ele>
        <time>2013-09-18T11:34:17.000Z</time>
      </trkpt>
      <trkpt lat="43.49434" lon="6.79976">
        <ele>362</ele>
        <time>2013-09-18T11:34:18.000Z</time>
      </trkpt>
      <trkpt lat="43.49433" lon="6.79979">
        <ele>362</ele>
        <time>2013-09-18T11:34:19.000Z</time>
      </trkpt>
      <trkpt lat="43.49433" lon="6.79982">
        <ele>362</ele>
        <time>2013-09-18T11:34:20.000Z</time>
      </trkpt>
      <trkpt lat="43.49432" lon="6.79986">
        <ele>362</ele>
        <time>2013-09-18T11:34:21.000Z</time>
      </trkpt>
      <trkpt lat="43.49432" lon="6.79989">
        <ele>363</ele>
        <time>2013-09-18T11:34:22.000Z</time>
      </trkpt>
      <trkpt lat="43.49431" lon="6.79992">
        <ele>363</ele>
        <time>2013-09-18T11:34:23.000Z</time>
      </trkpt>
      <trkpt lat="43.4943" lon="6.79996">
        <ele>363</ele>
        <time>2013-09-18T11:34:24.000Z</time>
      </trkpt>
      <trkpt lat="43.4943" lon="6.79999">
        <ele>364</ele>
        <time>2013-09-18T11:34:25.000Z</time>
      </trkpt>
      <trkpt lat="43.4943" lon="6.80007">
        <ele>363</ele>
        <time>2013-09-18T11:34:27.000Z</time>
      </trkpt>
      <trkpt lat="43.4943" lon="6.80015">
        <ele>362</ele>
        <time>2013-09-18T11:34:29.000Z</time>
      </trkpt>
      <trkpt lat="43.4943" lon="6.80019">
        <ele>361</ele>
        <time>2013-09-18T11:34:30.000Z</time>
      </trkpt>
      <trkpt lat="43.49431" lon="6.80023">
        <ele>361</ele>
        <time>2013-09-18T11:34:31.000Z</time>
      </trkpt>
      <trkpt lat="43.49431" lon="6.80026">
        <ele>360</ele>
        <time>2013-09-18T11:34:32.000Z</time>
      </trkpt>
      <trkpt lat="43.49431" lon="6.8003">
        <ele>360</ele>
        <time>2013-09-18T11:34:33.000Z</time>
      </trkpt>
      <trkpt lat="43.49432" lon="6.80034">
        <ele>360</ele>
        <time>2013-09-18T11:34:34.000Z</time>
      </trkpt>
      <trkpt lat="43.49432" lon="6.80038">
        <ele>360</ele>
        <time>2013-09-18T11:34:35.000Z</time>
      </trkpt>
      <trkpt lat="43.49433" lon="6.80041">
        <ele>359</ele>
        <time>2013-09-18T11:34:36.000Z</time>
      </trkpt>
      <trkpt lat="43.49433" lon="6.80044">
        <ele>359</ele>
        <time>2013-09-18T11:34:37.000Z</time>
      </trkpt>
      <trkpt lat="43.49434" lon="6.80047">
        <ele>359</ele>
        <time>2013-09-18T11:34:38.000Z</time>
      </trkpt>
      <trkpt lat="43.49434" lon="6.8005">
        <ele>359</ele>
        <time>2013-09-18T11:34:39.000Z</time>
      </trkpt>
      <trkpt lat="43.49434" lon="6.80053">
        <ele>359</ele>
        <time>2013-09-18T11:34:40.000Z</time>
      </trkpt>
      <trkpt lat="43.49435" lon="6.80056">
        <ele>359</ele>
        <time>2013-09-18T11:34:41.000Z</time>
      </trkpt>
      <trkpt lat="43.49435" lon="6.8006">
        <ele>359</ele>
        <time>2013-09-18T11:34:42.000Z</time>
      </trkpt>
      <trkpt lat="43.49436" lon="6.80063">
        <ele>359</ele>
        <time>2013-09-18T11:34:43.000Z</time>
      </trkpt>
      <trkpt lat="43.49436" lon="6.80067">
        <ele>359</ele>
        <time>2013-09-18T11:34:44.000Z</time>
      </trkpt>
      <trkpt lat="43.49436" lon="6.80076">
        <ele>359</ele>
        <time>2013-09-18T11:34:46.000Z</time>
      </trkpt>
      <trkpt lat="43.49436" lon="6.80086">
        <ele>358</ele>
        <time>2013-09-18T11:34:48.000Z</time>
      </trkpt>
      <trkpt lat="43.49436" lon="6.80091">
        <ele>358</ele>
        <time>2013-09-18T11:34:49.000Z</time>
      </trkpt>
      <trkpt lat="43.49435" lon="6.80097">
        <ele>358</ele>
        <time>2013-09-18T11:34:50.000Z</time>
      </trkpt>
      <trkpt lat="43.49433" lon="6.80103">
        <ele>358</ele>
        <time>2013-09-18T11:34:51.000Z</time>
      </trkpt>
      <trkpt lat="43.49432" lon="6.8011">
        <ele>358</ele>
        <time>2013-09-18T11:34:52.000Z</time>
      </trkpt>
      <trkpt lat="43.4943" lon="6.80116">
        <ele>358</ele>
        <time>2013-09-18T11:34:53.000Z</time>
      </trkpt>
      <trkpt lat="43.49429" lon="6.80122">
        <ele>357</ele>
        <time>2013-09-18T11:34:54.000Z</time>
      </trkpt>
      <trkpt lat="43.49428" lon="6.80129">
        <ele>357</ele>
        <time>2013-09-18T11:34:55.000Z</time>
      </trkpt>
      <trkpt lat="43.49427" lon="6.80136">
        <ele>356</ele>
        <time>2013-09-18T11:34:56.000Z</time>
      </trkpt>
      <trkpt lat="43.49427" lon="6.80143">
        <ele>356</ele>
        <time>2013-09-18T11:34:57.000Z</time>
      </trkpt>
      <trkpt lat="43.49427" lon="6.80149">
        <ele>355</ele>
        <time>2013-09-18T11:34:58.000Z</time>
      </trkpt>
      <trkpt lat="43.49428" lon="6.80156">
        <ele>354</ele>
        <time>2013-09-18T11:34:59.000Z</time>
      </trkpt>
      <trkpt lat="43.49429" lon="6.80162">
        <ele>354</ele>
        <time>2013-09-18T11:35:00.000Z</time>
      </trkpt>
      <trkpt lat="43.49431" lon="6.80168">
        <ele>349</ele>
        <time>2013-09-18T11:35:01.000Z</time>
      </trkpt>
      <trkpt lat="43.49433" lon="6.80174">
        <ele>349</ele>
        <time>2013-09-18T11:35:02.000Z</time>
      </trkpt>
      <trkpt lat="43.49437" lon="6.8018">
        <ele>349</ele>
        <time>2013-09-18T11:35:03.000Z</time>
      </trkpt>
      <trkpt lat="43.49441" lon="6.80185">
        <ele>348</ele>
        <time>2013-09-18T11:35:04.000Z</time>
      </trkpt>
      <trkpt lat="43.49445" lon="6.8019">
        <ele>348</ele>
        <time>2013-09-18T11:35:05.000Z</time>
      </trkpt>
      <trkpt lat="43.49451" lon="6.80194">
        <ele>348</ele>
        <time>2013-09-18T11:35:06.000Z</time>
      </trkpt>
      <trkpt lat="43.49456" lon="6.80197">
        <ele>348</ele>
        <time>2013-09-18T11:35:07.000Z</time>
      </trkpt>
      <trkpt lat="43.49462" lon="6.80199">
        <ele>348</ele>
        <time>2013-09-18T11:35:08.000Z</time>
      </trkpt>
      <trkpt lat="43.49467" lon="6.802">
        <ele>349</ele>
        <time>2013-09-18T11:35:09.000Z</time>
      </trkpt>
      <trkpt lat="43.49473" lon="6.802">
        <ele>349</ele>
        <time>2013-09-18T11:35:10.000Z</time>
      </trkpt>
      <trkpt lat="43.49478" lon="6.802">
        <ele>350</ele>
        <time>2013-09-18T11:35:11.000Z</time>
      </trkpt>
      <trkpt lat="43.49482" lon="6.80199">
        <ele>350</ele>
        <time>2013-09-18T11:35:12.000Z</time>
      </trkpt>
      <trkpt lat="43.49486" lon="6.80198">
        <ele>351</ele>
        <time>2013-09-18T11:35:13.000Z</time>
      </trkpt>
      <trkpt lat="43.4949" lon="6.80197">
        <ele>352</ele>
        <time>2013-09-18T11:35:14.000Z</time>
      </trkpt>
      <trkpt lat="43.49493" lon="6.80196">
        <ele>352</ele>
        <time>2013-09-18T11:35:15.000Z</time>
      </trkpt>
      <trkpt lat="43.49496" lon="6.80196">
        <ele>352</ele>
        <time>2013-09-18T11:35:16.000Z</time>
      </trkpt>
      <trkpt lat="43.49502" lon="6.80196">
        <ele>357</ele>
        <time>2013-09-18T11:35:18.000Z</time>
      </trkpt>
      <trkpt lat="43.49504" lon="6.80195">
        <ele>358</ele>
        <time>2013-09-18T11:35:19.000Z</time>
      </trkpt>
      <trkpt lat="43.49507" lon="6.80193">
        <ele>358</ele>
        <time>2013-09-18T11:35:20.000Z</time>
      </trkpt>
      <trkpt lat="43.49509" lon="6.80192">
        <ele>358</ele>
        <time>2013-09-18T11:35:21.000Z</time>
      </trkpt>
      <trkpt lat="43.49512" lon="6.80191">
        <ele>358</ele>
        <time>2013-09-18T11:35:22.000Z</time>
      </trkpt>
      <trkpt lat="43.49515" lon="6.8019">
        <ele>358</ele>
        <time>2013-09-18T11:35:23.000Z</time>
      </trkpt>
      <trkpt lat="43.49518" lon="6.8019">
        <ele>358</ele>
        <time>2013-09-18T11:35:24.000Z</time>
      </trkpt>
      <trkpt lat="43.49521" lon="6.80188">
        <ele>358</ele>
        <time>2013-09-18T11:35:25.000Z</time>
      </trkpt>
      <trkpt lat="43.49523" lon="6.80187">
        <ele>358</ele>
        <time>2013-09-18T11:35:26.000Z</time>
      </trkpt>
      <trkpt lat="43.49526" lon="6.80186">
        <ele>358</ele>
        <time>2013-09-18T11:35:27.000Z</time>
      </trkpt>
      <trkpt lat="43.4953" lon="6.80186">
        <ele>358</ele>
        <time>2013-09-18T11:35:28.000Z</time>
      </trkpt>
      <trkpt lat="43.49533" lon="6.80185">
        <ele>358</ele>
        <time>2013-09-18T11:35:29.000Z</time>
      </trkpt>
      <trkpt lat="43.49536" lon="6.80184">
        <ele>358</ele>
        <time>2013-09-18T11:35:30.000Z</time>
      </trkpt>
      <trkpt lat="43.49538" lon="6.80182">
        <ele>358</ele>
        <time>2013-09-18T11:35:31.000Z</time>
      </trkpt>
      <trkpt lat="43.49541" lon="6.80181">
        <ele>358</ele>
        <time>2013-09-18T11:35:32.000Z</time>
      </trkpt>
      <trkpt lat="43.49544" lon="6.8018">
        <ele>358</ele>
        <time>2013-09-18T11:35:33.000Z</time>
      </trkpt>
      <trkpt lat="43.49547" lon="6.80179">
        <ele>358</ele>
        <time>2013-09-18T11:35:34.000Z</time>
      </trkpt>
      <trkpt lat="43.49549" lon="6.80177">
        <ele>358</ele>
        <time>2013-09-18T11:35:35.000Z</time>
      </trkpt>
      <trkpt lat="43.4955" lon="6.80176">
        <ele>358</ele>
        <time>2013-09-18T11:35:36.000Z</time>
      </trkpt>
      <trkpt lat="43.49551" lon="6.80174">
        <ele>358</ele>
        <time>2013-09-18T11:35:37.000Z</time>
      </trkpt>
      <trkpt lat="43.49552" lon="6.80173">
        <ele>358</ele>
        <time>2013-09-18T11:35:38.000Z</time>
      </trkpt>
      <trkpt lat="43.49553" lon="6.80171">
        <ele>358</ele>
        <time>2013-09-18T11:35:39.000Z</time>
      </trkpt>
      <trkpt lat="43.49555" lon="6.8017">
        <ele>358</ele>
        <time>2013-09-18T11:35:40.000Z</time>
      </trkpt>
      <trkpt lat="43.49557" lon="6.8017">
        <ele>358</ele>
        <time>2013-09-18T11:35:41.000Z</time>
      </trkpt>
      <trkpt lat="43.49559" lon="6.80169">
        <ele>359</ele>
        <time>2013-09-18T11:35:42.000Z</time>
      </trkpt>
      <trkpt lat="43.4956" lon="6.80168">
        <ele>359</ele>
        <time>2013-09-18T11:35:43.000Z</time>
      </trkpt>
      <trkpt lat="43.49561" lon="6.80168">
        <ele>359</ele>
        <time>2013-09-18T11:35:44.000Z</time>
      </trkpt>
      <trkpt lat="43.49561" lon="6.80168">
        <ele>359</ele>
        <time>2013-09-18T11:35:45.000Z</time>
      </trkpt>
      <trkpt lat="43.49561" lon="6.80168">
        <ele>359</ele>
        <time>2013-09-18T11:35:47.000Z</time>
      </trkpt>
      <trkpt lat="43.49562" lon="6.80168">
        <ele>359</ele>
        <time>2013-09-18T11:35:51.000Z</time>
      </trkpt>
      <trkpt lat="43.49561" lon="6.80166">
        <ele>360</ele>
        <time>2013-09-18T11:35:53.000Z</time>
      </trkpt>
      <trkpt lat="43.49561" lon="6.80165">
        <ele>360</ele>
        <time>2013-09-18T11:35:54.000Z</time>
      </trkpt>
      <trkpt lat="43.49561" lon="6.80165">
        <ele>360</ele>
        <time>2013-09-18T11:35:55.000Z</time>
      </trkpt>
      <trkpt lat="43.49561" lon="6.80164">
        <ele>360</ele>
        <time>2013-09-18T11:35:57.000Z</time>
      </trkpt>
      <trkpt lat="43.49561" lon="6.80165">
        <ele>360</ele>
        <time>2013-09-18T11:36:00.000Z</time>
      </trkpt>
      <trkpt lat="43.49561" lon="6.80164">
        <ele>360</ele>
        <time>2013-09-18T11:36:01.000Z</time>
      </trkpt>
      <trkpt lat="43.49561" lon="6.80164">
        <ele>360</ele>
        <time>2013-09-18T11:36:02.000Z</time>
      </trkpt>
      <trkpt lat="43.49563" lon="6.80164">
        <ele>360</ele>
        <time>2013-09-18T11:36:17.000Z</time>
      </trkpt>
      <trkpt lat="43.49564" lon="6.80165">
        <ele>360</ele>
        <time>2013-09-18T11:36:30.000Z</time>
      </trkpt>
      <trkpt lat="43.49565" lon="6.80165">
        <ele>360</ele>
        <time>2013-09-18T11:36:57.000Z</time>
      </trkpt>
      <trkpt lat="43.49565" lon="6.80165">
        <ele>360</ele>
        <time>2013-09-18T11:37:19.000Z</time>
      </trkpt>
      <trkpt lat="43.49567" lon="6.80165">
        <ele>360</ele>
        <time>2013-09-18T11:38:01.000Z</time>
      </trkpt>
      <trkpt lat="43.49567" lon="6.80165">
        <ele>360</ele>
        <time>2013-09-18T11:38:05.000Z</time>
      </trkpt>
      <trkpt lat="43.49567" lon="6.80165">
        <ele>360</ele>
        <time>2013-09-18T11:38:10.000Z</time>
      </trkpt>
      <trkpt lat="43.49567" lon="6.80165">
        <ele>360</ele>
        <time>2013-09-18T11:38:14.000Z</time>
      </trkpt>
      <trkpt lat="43.49567" lon="6.80166">
        <ele>360</ele>
        <time>2013-09-18T11:38:15.000Z</time>
      </trkpt>
      <trkpt lat="43.49566" lon="6.80166">
        <ele>360</ele>
        <time>2013-09-18T11:38:16.000Z</time>
      </trkpt>
      <trkpt lat="43.49566" lon="6.80166">
        <ele>360</ele>
        <time>2013-09-18T11:38:17.000Z</time>
      </trkpt>
      <trkpt lat="43.49566" lon="6.80166">
        <ele>360</ele>
        <time>2013-09-18T11:38:19.000Z</time>
      </trkpt>
      <trkpt lat="43.49566" lon="6.80166">
        <ele>360</ele>
        <time>2013-09-18T11:38:20.000Z</time>
      </trkpt>
      <trkpt lat="43.49565" lon="6.80166">
        <ele>360</ele>
        <time>2013-09-18T11:38:27.000Z</time>
      </trkpt>
      <trkpt lat="43.49565" lon="6.80166">
        <ele>360</ele>
        <time>2013-09-18T11:38:30.000Z</time>
      </trkpt>
      <trkpt lat="43.49565" lon="6.80166">
        <ele>360</ele>
        <time>2013-09-18T11:38:32.000Z</time>
      </trkpt>
      <trkpt lat="43.49565" lon="6.80166">
        <ele>360</ele>
        <time>2013-09-18T11:38:35.000Z</time>
      </trkpt>
      <trkpt lat="43.49565" lon="6.80167">
        <ele>360</ele>
        <time>2013-09-18T11:38:39.000Z</time>
      </trkpt>
      <trkpt lat="43.49564" lon="6.80167">
        <ele>359</ele>
        <time>2013-09-18T11:38:43.000Z</time>
      </trkpt>
      <trkpt lat="43.49564" lon="6.80167">
        <ele>360</ele>
        <time>2013-09-18T11:38:45.000Z</time>
      </trkpt>
      <trkpt lat="43.49564" lon="6.80166">
        <ele>360</ele>
        <time>2013-09-18T11:38:47.000Z</time>
      </trkpt>
      <trkpt lat="43.49564" lon="6.80166">
        <ele>360</ele>
        <time>2013-09-18T11:38:48.000Z</time>
      </trkpt>
      <trkpt lat="43.49563" lon="6.80166">
        <ele>360</ele>
        <time>2013-09-18T11:38:51.000Z</time>
      </trkpt>
      <trkpt lat="43.49563" lon="6.80166">
        <ele>360</ele>
        <time>2013-09-18T11:38:54.000Z</time>
      </trkpt>
      <trkpt lat="43.49563" lon="6.80166">
        <ele>360</ele>
        <time>2013-09-18T11:38:57.000Z</time>
      </trkpt>
      <trkpt lat="43.49563" lon="6.80166">
        <ele>360</ele>
        <time>2013-09-18T11:39:12.000Z</time>
      </trkpt>
      <trkpt lat="43.49563" lon="6.80166">
        <ele>360</ele>
        <time>2013-09-18T11:39:15.000Z</time>
      </trkpt>
      <trkpt lat="43.49563" lon="6.80166">
        <ele>360</ele>
        <time>2013-09-18T11:39:21.000Z</time>
      </trkpt>
      <trkpt lat="43.49563" lon="6.80166">
        <ele>360</ele>
        <time>2013-09-18T11:39:35.000Z</time>
      </trkpt>
      <trkpt lat="43.49563" lon="6.80166">
        <ele>360</ele>
        <time>2013-09-18T11:39:41.000Z</time>
      </trkpt>
      <trkpt lat="43.49563" lon="6.80166">
        <ele>360</ele>
        <time>2013-09-18T11:39:45.000Z</time>
      </trkpt>
      <trkpt lat="43.49563" lon="6.80166">
        <ele>360</ele>
        <time>2013-09-18T11:39:54.000Z</time>
      </trkpt>
      <trkpt lat="43.49563" lon="6.80166">
        <ele>360</ele>
        <time>2013-09-18T11:39:56.000Z</time>
      </trkpt>
      <trkpt lat="43.49563" lon="6.80166">
        <ele>360</ele>
        <time>2013-09-18T11:40:01.000Z</time>
      </trkpt>
      <trkpt lat="43.49562" lon="6.80166">
        <ele>360</ele>
        <time>2013-09-18T11:40:18.000Z</time>
      </trkpt>
      <trkpt lat="43.49562" lon="6.80166">
        <ele>360</ele>
        <time>2013-09-18T11:40:29.000Z</time>
      </trkpt>
      <trkpt lat="43.49562" lon="6.80166">
        <ele>360</ele>
        <time>2013-09-18T11:40:33.000Z</time>
      </trkpt>
      <trkpt lat="43.49563" lon="6.80166">
        <ele>360</ele>
        <time>2013-09-18T11:40:35.000Z</time>
      </trkpt>
      <trkpt lat="43.49563" lon="6.80166">
        <ele>360</ele>
        <time>2013-09-18T11:40:36.000Z</time>
      </trkpt>
      <trkpt lat="43.49563" lon="6.80167">
        <ele>360</ele>
        <time>2013-09-18T11:40:37.000Z</time>
      </trkpt>
      <trkpt lat="43.49564" lon="6.80167">
        <ele>359</ele>
        <time>2013-09-18T11:40:38.000Z</time>
      </trkpt>
      <trkpt lat="43.49564" lon="6.80167">
        <ele>359</ele>
        <time>2013-09-18T11:40:39.000Z</time>
      </trkpt>
      <trkpt lat="43.49564" lon="6.80167">
        <ele>359</ele>
        <time>2013-09-18T11:40:40.000Z</time>
      </trkpt>
      <trkpt lat="43.49564" lon="6.80168">
        <ele>359</ele>
        <time>2013-09-18T11:40:41.000Z</time>
      </trkpt>
      <trkpt lat="43.49564" lon="6.80168">
        <ele>359</ele>
        <time>2013-09-18T11:40:42.000Z</time>
      </trkpt>
      <trkpt lat="43.49565" lon="6.80168">
        <ele>359</ele>
        <time>2013-09-18T11:40:45.000Z</time>
      </trkpt>
      <trkpt lat="43.49564" lon="6.80168">
        <ele>359</ele>
        <time>2013-09-18T11:40:46.000Z</time>
      </trkpt>
      <trkpt lat="43.49564" lon="6.80168">
        <ele>359</ele>
        <time>2013-09-18T11:40:49.000Z</time>
      </trkpt>
      <trkpt lat="43.49564" lon="6.80167">
        <ele>359</ele>
        <time>2013-09-18T11:40:52.000Z</time>
      </trkpt>
      <trkpt lat="43.49564" lon="6.80167">
        <ele>359</ele>
        <time>2013-09-18T11:40:59.000Z</time>
      </trkpt>
      <trkpt lat="43.49564" lon="6.80167">
        <ele>359</ele>
        <time>2013-09-18T11:41:00.000Z</time>
      </trkpt>
      <trkpt lat="43.49564" lon="6.80166">
        <ele>360</ele>
        <time>2013-09-18T11:41:03.000Z</time>
      </trkpt>
      <trkpt lat="43.49564" lon="6.80166">
        <ele>360</ele>
        <time>2013-09-18T11:41:10.000Z</time>
      </trkpt>
      <trkpt lat="43.49564" lon="6.80165">
        <ele>360</ele>
        <time>2013-09-18T11:41:18.000Z</time>
      </trkpt>
      <trkpt lat="43.49564" lon="6.80165">
        <ele>360</ele>
        <time>2013-09-18T11:41:25.000Z</time>
      </trkpt>
      <trkpt lat="43.49564" lon="6.80165">
        <ele>360</ele>
        <time>2013-09-18T11:41:26.000Z</time>
      </trkpt>
      <trkpt lat="43.49564" lon="6.80165">
        <ele>360</ele>
        <time>2013-09-18T11:41:27.000Z</time>
      </trkpt>
      <trkpt lat="43.49564" lon="6.80165">
        <ele>360</ele>
        <time>2013-09-18T11:41:30.000Z</time>
      </trkpt>
      <trkpt lat="43.49564" lon="6.80165">
        <ele>360</ele>
        <time>2013-09-18T11:41:34.000Z</time>
      </trkpt>
      <trkpt lat="43.49564" lon="6.80165">
        <ele>360</ele>
        <time>2013-09-18T11:41:36.000Z</time>
      </trkpt>
      <trkpt lat="43.49564" lon="6.80166">
        <ele>360</ele>
        <time>2013-09-18T11:41:40.000Z</time>
      </trkpt>
      <trkpt lat="43.49564" lon="6.80166">
        <ele>360</ele>
        <time>2013-09-18T11:41:57.000Z</time>
      </trkpt>
      <trkpt lat="43.49564" lon="6.80166">
        <ele>360</ele>
        <time>2013-09-18T11:42:00.000Z</time>
      </trkpt>
      <trkpt lat="43.49565" lon="6.80166">
        <ele>360</ele>
        <time>2013-09-18T11:42:02.000Z</time>
      </trkpt>
      <trkpt lat="43.49564" lon="6.80167">
        <ele>359</ele>
        <time>2013-09-18T11:42:04.000Z</time>
      </trkpt>
      <trkpt lat="43.49565" lon="6.80169">
        <ele>359</ele>
        <time>2013-09-18T11:42:05.000Z</time>
      </trkpt>
      <trkpt lat="43.49566" lon="6.8017">
        <ele>359</ele>
        <time>2013-09-18T11:42:06.000Z</time>
      </trkpt>
      <trkpt lat="43.49567" lon="6.80171">
        <ele>359</ele>
        <time>2013-09-18T11:42:07.000Z</time>
      </trkpt>
      <trkpt lat="43.49569" lon="6.80171">
        <ele>359</ele>
        <time>2013-09-18T11:42:08.000Z</time>
      </trkpt>
      <trkpt lat="43.4957" lon="6.80171">
        <ele>359</ele>
        <time>2013-09-18T11:42:09.000Z</time>
      </trkpt>
      <trkpt lat="43.49571" lon="6.80172">
        <ele>359</ele>
        <time>2013-09-18T11:42:10.000Z</time>
      </trkpt>
      <trkpt lat="43.49573" lon="6.80173">
        <ele>359</ele>
        <time>2013-09-18T11:42:11.000Z</time>
      </trkpt>
      <trkpt lat="43.49575" lon="6.80175">
        <ele>359</ele>
        <time>2013-09-18T11:42:12.000Z</time>
      </trkpt>
      <trkpt lat="43.49576" lon="6.80176">
        <ele>359</ele>
        <time>2013-09-18T11:42:13.000Z</time>
      </trkpt>
      <trkpt lat="43.49578" lon="6.80178">
        <ele>359</ele>
        <time>2013-09-18T11:42:14.000Z</time>
      </trkpt>
      <trkpt lat="43.49578" lon="6.80179">
        <ele>359</ele>
        <time>2013-09-18T11:42:15.000Z</time>
      </trkpt>
      <trkpt lat="43.49579" lon="6.80181">
        <ele>359</ele>
        <time>2013-09-18T11:42:16.000Z</time>
      </trkpt>
      <trkpt lat="43.4958" lon="6.80183">
        <ele>359</ele>
        <time>2013-09-18T11:42:17.000Z</time>
      </trkpt>
      <trkpt lat="43.4958" lon="6.80184">
        <ele>359</ele>
        <time>2013-09-18T11:42:18.000Z</time>
      </trkpt>
      <trkpt lat="43.49581" lon="6.80185">
        <ele>358</ele>
        <time>2013-09-18T11:42:19.000Z</time>
      </trkpt>
      <trkpt lat="43.49581" lon="6.80187">
        <ele>358</ele>
        <time>2013-09-18T11:42:20.000Z</time>
      </trkpt>
      <trkpt lat="43.49581" lon="6.80188">
        <ele>358</ele>
        <time>2013-09-18T11:42:21.000Z</time>
      </trkpt>
      <trkpt lat="43.49582" lon="6.80188">
        <ele>358</ele>
        <time>2013-09-18T11:42:22.000Z</time>
      </trkpt>
      <trkpt lat="43.49581" lon="6.80189">
        <ele>358</ele>
        <time>2013-09-18T11:42:23.000Z</time>
      </trkpt>
      <trkpt lat="43.49582" lon="6.80188">
        <ele>358</ele>
        <time>2013-09-18T11:42:25.000Z</time>
      </trkpt>
      <trkpt lat="43.49581" lon="6.80188">
        <ele>358</ele>
        <time>2013-09-18T11:42:26.000Z</time>
      </trkpt>
      <trkpt lat="43.49581" lon="6.80188">
        <ele>358</ele>
        <time>2013-09-18T11:42:28.000Z</time>
      </trkpt>
      <trkpt lat="43.49581" lon="6.80188">
        <ele>358</ele>
        <time>2013-09-18T11:42:33.000Z</time>
      </trkpt>
      <trkpt lat="43.49581" lon="6.80189">
        <ele>358</ele>
        <time>2013-09-18T11:42:43.000Z</time>
      </trkpt>
      <trkpt lat="43.49581" lon="6.8019">
        <ele>358</ele>
        <time>2013-09-18T11:42:44.000Z</time>
      </trkpt>
      <trkpt lat="43.49582" lon="6.80192">
        <ele>358</ele>
        <time>2013-09-18T11:42:45.000Z</time>
      </trkpt>
      <trkpt lat="43.49582" lon="6.80194">
        <ele>358</ele>
        <time>2013-09-18T11:42:46.000Z</time>
      </trkpt>
      <trkpt lat="43.49583" lon="6.80196">
        <ele>358</ele>
        <time>2013-09-18T11:42:47.000Z</time>
      </trkpt>
      <trkpt lat="43.49584" lon="6.80198">
        <ele>362</ele>
        <time>2013-09-18T11:42:48.000Z</time>
      </trkpt>
      <trkpt lat="43.49585" lon="6.80199">
        <ele>362</ele>
        <time>2013-09-18T11:42:49.000Z</time>
      </trkpt>
      <trkpt lat="43.49586" lon="6.80201">
        <ele>362</ele>
        <time>2013-09-18T11:42:50.000Z</time>
      </trkpt>
      <trkpt lat="43.49587" lon="6.80203">
        <ele>362</ele>
        <time>2013-09-18T11:42:51.000Z</time>
      </trkpt>
      <trkpt lat="43.49588" lon="6.80205">
        <ele>362</ele>
        <time>2013-09-18T11:42:52.000Z</time>
      </trkpt>
      <trkpt lat="43.49588" lon="6.80207">
        <ele>362</ele>
        <time>2013-09-18T11:42:53.000Z</time>
      </trkpt>
      <trkpt lat="43.49589" lon="6.80209">
        <ele>362</ele>
        <time>2013-09-18T11:42:54.000Z</time>
      </trkpt>
      <trkpt lat="43.4959" lon="6.80211">
        <ele>362</ele>
        <time>2013-09-18T11:42:55.000Z</time>
      </trkpt>
      <trkpt lat="43.49591" lon="6.80213">
        <ele>362</ele>
        <time>2013-09-18T11:42:56.000Z</time>
      </trkpt>
      <trkpt lat="43.49592" lon="6.80216">
        <ele>362</ele>
        <time>2013-09-18T11:42:57.000Z</time>
      </trkpt>
      <trkpt lat="43.49593" lon="6.80218">
        <ele>362</ele>
        <time>2013-09-18T11:42:58.000Z</time>
      </trkpt>
      <trkpt lat="43.49594" lon="6.8022">
        <ele>362</ele>
        <time>2013-09-18T11:42:59.000Z</time>
      </trkpt>
      <trkpt lat="43.49595" lon="6.80222">
        <ele>361</ele>
        <time>2013-09-18T11:43:00.000Z</time>
      </trkpt>
      <trkpt lat="43.49596" lon="6.80225">
        <ele>361</ele>
        <time>2013-09-18T11:43:01.000Z</time>
      </trkpt>
      <trkpt lat="43.49597" lon="6.80227">
        <ele>361</ele>
        <time>2013-09-18T11:43:02.000Z</time>
      </trkpt>
      <trkpt lat="43.49598" lon="6.8023">
        <ele>361</ele>
        <time>2013-09-18T11:43:03.000Z</time>
      </trkpt>
      <trkpt lat="43.49599" lon="6.80232">
        <ele>361</ele>
        <time>2013-09-18T11:43:04.000Z</time>
      </trkpt>
      <trkpt lat="43.496" lon="6.80235">
        <ele>361</ele>
        <time>2013-09-18T11:43:05.000Z</time>
      </trkpt>
      <trkpt lat="43.49601" lon="6.80238">
        <ele>361</ele>
        <time>2013-09-18T11:43:06.000Z</time>
      </trkpt>
      <trkpt lat="43.49602" lon="6.8024">
        <ele>361</ele>
        <time>2013-09-18T11:43:07.000Z</time>
      </trkpt>
      <trkpt lat="43.49604" lon="6.80243">
        <ele>361</ele>
        <time>2013-09-18T11:43:08.000Z</time>
      </trkpt>
      <trkpt lat="43.49605" lon="6.80245">
        <ele>361</ele>
        <time>2013-09-18T11:43:09.000Z</time>
      </trkpt>
      <trkpt lat="43.49607" lon="6.80248">
        <ele>361</ele>
        <time>2013-09-18T11:43:10.000Z</time>
      </trkpt>
      <trkpt lat="43.49608" lon="6.8025">
        <ele>362</ele>
        <time>2013-09-18T11:43:11.000Z</time>
      </trkpt>
      <trkpt lat="43.4961" lon="6.80251">
        <ele>360</ele>
        <time>2013-09-18T11:43:12.000Z</time>
      </trkpt>
      <trkpt lat="43.49612" lon="6.80253">
        <ele>360</ele>
        <time>2013-09-18T11:43:13.000Z</time>
      </trkpt>
      <trkpt lat="43.49613" lon="6.80255">
        <ele>360</ele>
        <time>2013-09-18T11:43:14.000Z</time>
      </trkpt>
      <trkpt lat="43.49614" lon="6.80257">
        <ele>360</ele>
        <time>2013-09-18T11:43:15.000Z</time>
      </trkpt>
      <trkpt lat="43.49616" lon="6.80259">
        <ele>361</ele>
        <time>2013-09-18T11:43:16.000Z</time>
      </trkpt>
      <trkpt lat="43.49617" lon="6.80261">
        <ele>361</ele>
        <time>2013-09-18T11:43:17.000Z</time>
      </trkpt>
      <trkpt lat="43.49619" lon="6.80262">
        <ele>361</ele>
        <time>2013-09-18T11:43:18.000Z</time>
      </trkpt>
      <trkpt lat="43.4962" lon="6.80264">
        <ele>361</ele>
        <time>2013-09-18T11:43:19.000Z</time>
      </trkpt>
      <trkpt lat="43.49622" lon="6.80265">
        <ele>361</ele>
        <time>2013-09-18T11:43:20.000Z</time>
      </trkpt>
      <trkpt lat="43.49623" lon="6.80267">
        <ele>362</ele>
        <time>2013-09-18T11:43:21.000Z</time>
      </trkpt>
      <trkpt lat="43.49625" lon="6.8027">
        <ele>362</ele>
        <time>2013-09-18T11:43:22.000Z</time>
      </trkpt>
      <trkpt lat="43.49626" lon="6.80271">
        <ele>362</ele>
        <time>2013-09-18T11:43:23.000Z</time>
      </trkpt>
      <trkpt lat="43.49628" lon="6.80273">
        <ele>362</ele>
        <time>2013-09-18T11:43:24.000Z</time>
      </trkpt>
      <trkpt lat="43.4963" lon="6.80275">
        <ele>362</ele>
        <time>2013-09-18T11:43:25.000Z</time>
      </trkpt>
      <trkpt lat="43.49631" lon="6.80277">
        <ele>362</ele>
        <time>2013-09-18T11:43:26.000Z</time>
      </trkpt>
      <trkpt lat="43.49633" lon="6.80279">
        <ele>363</ele>
        <time>2013-09-18T11:43:27.000Z</time>
      </trkpt>
      <trkpt lat="43.49634" lon="6.80281">
        <ele>363</ele>
        <time>2013-09-18T11:43:28.000Z</time>
      </trkpt>
      <trkpt lat="43.49635" lon="6.80283">
        <ele>363</ele>
        <time>2013-09-18T11:43:29.000Z</time>
      </trkpt>
      <trkpt lat="43.49637" lon="6.80285">
        <ele>363</ele>
        <time>2013-09-18T11:43:30.000Z</time>
      </trkpt>
      <trkpt lat="43.49638" lon="6.80287">
        <ele>363</ele>
        <time>2013-09-18T11:43:31.000Z</time>
      </trkpt>
      <trkpt lat="43.49639" lon="6.80289">
        <ele>363</ele>
        <time>2013-09-18T11:43:32.000Z</time>
      </trkpt>
      <trkpt lat="43.49641" lon="6.80291">
        <ele>363</ele>
        <time>2013-09-18T11:43:33.000Z</time>
      </trkpt>
      <trkpt lat="43.49642" lon="6.80293">
        <ele>363</ele>
        <time>2013-09-18T11:43:34.000Z</time>
      </trkpt>
      <trkpt lat="43.49643" lon="6.80295">
        <ele>363</ele>
        <time>2013-09-18T11:43:35.000Z</time>
      </trkpt>
      <trkpt lat="43.49644" lon="6.80297">
        <ele>364</ele>
        <time>2013-09-18T11:43:36.000Z</time>
      </trkpt>
      <trkpt lat="43.49645" lon="6.803">
        <ele>364</ele>
        <time>2013-09-18T11:43:37.000Z</time>
      </trkpt>
      <trkpt lat="43.49646" lon="6.80302">
        <ele>364</ele>
        <time>2013-09-18T11:43:38.000Z</time>
      </trkpt>
      <trkpt lat="43.49647" lon="6.80304">
        <ele>364</ele>
        <time>2013-09-18T11:43:39.000Z</time>
      </trkpt>
      <trkpt lat="43.49648" lon="6.80306">
        <ele>364</ele>
        <time>2013-09-18T11:43:40.000Z</time>
      </trkpt>
      <trkpt lat="43.49648" lon="6.80309">
        <ele>365</ele>
        <time>2013-09-18T11:43:41.000Z</time>
      </trkpt>
      <trkpt lat="43.49649" lon="6.80311">
        <ele>365</ele>
        <time>2013-09-18T11:43:42.000Z</time>
      </trkpt>
      <trkpt lat="43.49649" lon="6.80313">
        <ele>365</ele>
        <time>2013-09-18T11:43:43.000Z</time>
      </trkpt>
      <trkpt lat="43.49649" lon="6.80322">
        <ele>366</ele>
        <time>2013-09-18T11:43:47.000Z</time>
      </trkpt>
      <trkpt lat="43.49649" lon="6.80324">
        <ele>366</ele>
        <time>2013-09-18T11:43:48.000Z</time>
      </trkpt>
      <trkpt lat="43.49649" lon="6.80333">
        <ele>367</ele>
        <time>2013-09-18T11:43:52.000Z</time>
      </trkpt>
      <trkpt lat="43.49649" lon="6.80335">
        <ele>362</ele>
        <time>2013-09-18T11:43:53.000Z</time>
      </trkpt>
      <trkpt lat="43.49649" lon="6.80337">
        <ele>362</ele>
        <time>2013-09-18T11:43:54.000Z</time>
      </trkpt>
      <trkpt lat="43.49649" lon="6.8034">
        <ele>362</ele>
        <time>2013-09-18T11:43:55.000Z</time>
      </trkpt>
      <trkpt lat="43.49649" lon="6.80342">
        <ele>361</ele>
        <time>2013-09-18T11:43:56.000Z</time>
      </trkpt>
      <trkpt lat="43.49649" lon="6.80344">
        <ele>361</ele>
        <time>2013-09-18T11:43:57.000Z</time>
      </trkpt>
      <trkpt lat="43.49649" lon="6.80346">
        <ele>360</ele>
        <time>2013-09-18T11:43:58.000Z</time>
      </trkpt>
      <trkpt lat="43.49649" lon="6.80351">
        <ele>359</ele>
        <time>2013-09-18T11:44:00.000Z</time>
      </trkpt>
      <trkpt lat="43.49649" lon="6.80354">
        <ele>359</ele>
        <time>2013-09-18T11:44:01.000Z</time>
      </trkpt>
      <trkpt lat="43.49649" lon="6.80356">
        <ele>358</ele>
        <time>2013-09-18T11:44:02.000Z</time>
      </trkpt>
      <trkpt lat="43.4965" lon="6.80358">
        <ele>358</ele>
        <time>2013-09-18T11:44:03.000Z</time>
      </trkpt>
      <trkpt lat="43.49651" lon="6.80361">
        <ele>358</ele>
        <time>2013-09-18T11:44:04.000Z</time>
      </trkpt>
      <trkpt lat="43.49651" lon="6.80363">
        <ele>358</ele>
        <time>2013-09-18T11:44:05.000Z</time>
      </trkpt>
      <trkpt lat="43.49652" lon="6.80365">
        <ele>357</ele>
        <time>2013-09-18T11:44:06.000Z</time>
      </trkpt>
      <trkpt lat="43.49653" lon="6.80368">
        <ele>357</ele>
        <time>2013-09-18T11:44:07.000Z</time>
      </trkpt>
      <trkpt lat="43.49654" lon="6.8037">
        <ele>357</ele>
        <time>2013-09-18T11:44:08.000Z</time>
      </trkpt>
      <trkpt lat="43.49655" lon="6.80372">
        <ele>357</ele>
        <time>2013-09-18T11:44:09.000Z</time>
      </trkpt>
      <trkpt lat="43.49656" lon="6.80374">
        <ele>357</ele>
        <time>2013-09-18T11:44:10.000Z</time>
      </trkpt>
      <trkpt lat="43.49657" lon="6.80376">
        <ele>357</ele>
        <time>2013-09-18T11:44:11.000Z</time>
      </trkpt>
      <trkpt lat="43.49658" lon="6.80378">
        <ele>357</ele>
        <time>2013-09-18T11:44:12.000Z</time>
      </trkpt>
      <trkpt lat="43.49659" lon="6.8038">
        <ele>357</ele>
        <time>2013-09-18T11:44:13.000Z</time>
      </trkpt>
      <trkpt lat="43.4966" lon="6.80383">
        <ele>357</ele>
        <time>2013-09-18T11:44:14.000Z</time>
      </trkpt>
      <trkpt lat="43.49662" lon="6.80384">
        <ele>357</ele>
        <time>2013-09-18T11:44:15.000Z</time>
      </trkpt>
      <trkpt lat="43.49663" lon="6.80386">
        <ele>357</ele>
        <time>2013-09-18T11:44:16.000Z</time>
      </trkpt>
      <trkpt lat="43.49665" lon="6.80388">
        <ele>357</ele>
        <time>2013-09-18T11:44:17.000Z</time>
      </trkpt>
      <trkpt lat="43.49666" lon="6.8039">
        <ele>357</ele>
        <time>2013-09-18T11:44:18.000Z</time>
      </trkpt>
      <trkpt lat="43.49668" lon="6.80392">
        <ele>374</ele>
        <time>2013-09-18T11:44:19.000Z</time>
      </trkpt>
      <trkpt lat="43.49669" lon="6.80394">
        <ele>374</ele>
        <time>2013-09-18T11:44:20.000Z</time>
      </trkpt>
      <trkpt lat="43.49671" lon="6.80395">
        <ele>374</ele>
        <time>2013-09-18T11:44:21.000Z</time>
      </trkpt>
      <trkpt lat="43.49672" lon="6.80397">
        <ele>374</ele>
        <time>2013-09-18T11:44:22.000Z</time>
      </trkpt>
      <trkpt lat="43.49674" lon="6.80399">
        <ele>373</ele>
        <time>2013-09-18T11:44:23.000Z</time>
      </trkpt>
      <trkpt lat="43.49675" lon="6.804">
        <ele>373</ele>
        <time>2013-09-18T11:44:24.000Z</time>
      </trkpt>
      <trkpt lat="43.49677" lon="6.80402">
        <ele>373</ele>
        <time>2013-09-18T11:44:25.000Z</time>
      </trkpt>
      <trkpt lat="43.49678" lon="6.80403">
        <ele>373</ele>
        <time>2013-09-18T11:44:26.000Z</time>
      </trkpt>
      <trkpt lat="43.4968" lon="6.80405">
        <ele>373</ele>
        <time>2013-09-18T11:44:27.000Z</time>
      </trkpt>
      <trkpt lat="43.49681" lon="6.80406">
        <ele>373</ele>
        <time>2013-09-18T11:44:28.000Z</time>
      </trkpt>
      <trkpt lat="43.49683" lon="6.80408">
        <ele>373</ele>
        <time>2013-09-18T11:44:29.000Z</time>
      </trkpt>
      <trkpt lat="43.49685" lon="6.80409">
        <ele>374</ele>
        <time>2013-09-18T11:44:30.000Z</time>
      </trkpt>
      <trkpt lat="43.49687" lon="6.8041">
        <ele>374</ele>
        <time>2013-09-18T11:44:31.000Z</time>
      </trkpt>
      <trkpt lat="43.49688" lon="6.80412">
        <ele>375</ele>
        <time>2013-09-18T11:44:32.000Z</time>
      </trkpt>
      <trkpt lat="43.4969" lon="6.80414">
        <ele>375</ele>
        <time>2013-09-18T11:44:33.000Z</time>
      </trkpt>
      <trkpt lat="43.49692" lon="6.80416">
        <ele>376</ele>
        <time>2013-09-18T11:44:34.000Z</time>
      </trkpt>
      <trkpt lat="43.49693" lon="6.80417">
        <ele>372</ele>
        <time>2013-09-18T11:44:35.000Z</time>
      </trkpt>
      <trkpt lat="43.49695" lon="6.80419">
        <ele>372</ele>
        <time>2013-09-18T11:44:36.000Z</time>
      </trkpt>
      <trkpt lat="43.49696" lon="6.80421">
        <ele>372</ele>
        <time>2013-09-18T11:44:37.000Z</time>
      </trkpt>
      <trkpt lat="43.49698" lon="6.80423">
        <ele>373</ele>
        <time>2013-09-18T11:44:38.000Z</time>
      </trkpt>
      <trkpt lat="43.49699" lon="6.80425">
        <ele>373</ele>
        <time>2013-09-18T11:44:39.000Z</time>
      </trkpt>
      <trkpt lat="43.49701" lon="6.80427">
        <ele>373</ele>
        <time>2013-09-18T11:44:40.000Z</time>
      </trkpt>
      <trkpt lat="43.49702" lon="6.8043">
        <ele>374</ele>
        <time>2013-09-18T11:44:41.000Z</time>
      </trkpt>
      <trkpt lat="43.49703" lon="6.80432">
        <ele>374</ele>
        <time>2013-09-18T11:44:42.000Z</time>
      </trkpt>
      <trkpt lat="43.49705" lon="6.80434">
        <ele>374</ele>
        <time>2013-09-18T11:44:43.000Z</time>
      </trkpt>
      <trkpt lat="43.49706" lon="6.80437">
        <ele>374</ele>
        <time>2013-09-18T11:44:44.000Z</time>
      </trkpt>
      <trkpt lat="43.49707" lon="6.80439">
        <ele>374</ele>
        <time>2013-09-18T11:44:45.000Z</time>
      </trkpt>
      <trkpt lat="43.49708" lon="6.80441">
        <ele>375</ele>
        <time>2013-09-18T11:44:46.000Z</time>
      </trkpt>
      <trkpt lat="43.49709" lon="6.80444">
        <ele>375</ele>
        <time>2013-09-18T11:44:47.000Z</time>
      </trkpt>
      <trkpt lat="43.4971" lon="6.80447">
        <ele>375</ele>
        <time>2013-09-18T11:44:48.000Z</time>
      </trkpt>
      <trkpt lat="43.49711" lon="6.80449">
        <ele>375</ele>
        <time>2013-09-18T11:44:49.000Z</time>
      </trkpt>
      <trkpt lat="43.49712" lon="6.80452">
        <ele>375</ele>
        <time>2013-09-18T11:44:50.000Z</time>
      </trkpt>
      <trkpt lat="43.49713" lon="6.80454">
        <ele>375</ele>
        <time>2013-09-18T11:44:51.000Z</time>
      </trkpt>
      <trkpt lat="43.49714" lon="6.80457">
        <ele>375</ele>
        <time>2013-09-18T11:44:52.000Z</time>
      </trkpt>
      <trkpt lat="43.49715" lon="6.80459">
        <ele>375</ele>
        <time>2013-09-18T11:44:53.000Z</time>
      </trkpt>
      <trkpt lat="43.49716" lon="6.80462">
        <ele>375</ele>
        <time>2013-09-18T11:44:54.000Z</time>
      </trkpt>
      <trkpt lat="43.49717" lon="6.80464">
        <ele>375</ele>
        <time>2013-09-18T11:44:55.000Z</time>
      </trkpt>
      <trkpt lat="43.49718" lon="6.80466">
        <ele>375</ele>
        <time>2013-09-18T11:44:56.000Z</time>
      </trkpt>
      <trkpt lat="43.49719" lon="6.80469">
        <ele>375</ele>
        <time>2013-09-18T11:44:57.000Z</time>
      </trkpt>
      <trkpt lat="43.4972" lon="6.80471">
        <ele>375</ele>
        <time>2013-09-18T11:44:58.000Z</time>
      </trkpt>
      <trkpt lat="43.4972" lon="6.80473">
        <ele>375</ele>
        <time>2013-09-18T11:44:59.000Z</time>
      </trkpt>
      <trkpt lat="43.49721" lon="6.80475">
        <ele>376</ele>
        <time>2013-09-18T11:45:00.000Z</time>
      </trkpt>
      <trkpt lat="43.49721" lon="6.80477">
        <ele>376</ele>
        <time>2013-09-18T11:45:01.000Z</time>
      </trkpt>
      <trkpt lat="43.49722" lon="6.80479">
        <ele>376</ele>
        <time>2013-09-18T11:45:02.000Z</time>
      </trkpt>
      <trkpt lat="43.49723" lon="6.80481">
        <ele>376</ele>
        <time>2013-09-18T11:45:03.000Z</time>
      </trkpt>
      <trkpt lat="43.49723" lon="6.80483">
        <ele>376</ele>
        <time>2013-09-18T11:45:04.000Z</time>
      </trkpt>
      <trkpt lat="43.49724" lon="6.80484">
        <ele>376</ele>
        <time>2013-09-18T11:45:05.000Z</time>
      </trkpt>
      <trkpt lat="43.49725" lon="6.80486">
        <ele>376</ele>
        <time>2013-09-18T11:45:06.000Z</time>
      </trkpt>
      <trkpt lat="43.49725" lon="6.80488">
        <ele>377</ele>
        <time>2013-09-18T11:45:07.000Z</time>
      </trkpt>
      <trkpt lat="43.49726" lon="6.8049">
        <ele>377</ele>
        <time>2013-09-18T11:45:08.000Z</time>
      </trkpt>
      <trkpt lat="43.49726" lon="6.80492">
        <ele>377</ele>
        <time>2013-09-18T11:45:09.000Z</time>
      </trkpt>
      <trkpt lat="43.49727" lon="6.80494">
        <ele>377</ele>
        <time>2013-09-18T11:45:10.000Z</time>
      </trkpt>
      <trkpt lat="43.49728" lon="6.80496">
        <ele>377</ele>
        <time>2013-09-18T11:45:11.000Z</time>
      </trkpt>
      <trkpt lat="43.49728" lon="6.80497">
        <ele>377</ele>
        <time>2013-09-18T11:45:12.000Z</time>
      </trkpt>
      <trkpt lat="43.49729" lon="6.80499">
        <ele>378</ele>
        <time>2013-09-18T11:45:13.000Z</time>
      </trkpt>
      <trkpt lat="43.4973" lon="6.80501">
        <ele>377</ele>
        <time>2013-09-18T11:45:14.000Z</time>
      </trkpt>
      <trkpt lat="43.4973" lon="6.80503">
        <ele>377</ele>
        <time>2013-09-18T11:45:15.000Z</time>
      </trkpt>
      <trkpt lat="43.4973" lon="6.80504">
        <ele>377</ele>
        <time>2013-09-18T11:45:16.000Z</time>
      </trkpt>
      <trkpt lat="43.49731" lon="6.80506">
        <ele>377</ele>
        <time>2013-09-18T11:45:17.000Z</time>
      </trkpt>
      <trkpt lat="43.49731" lon="6.80508">
        <ele>377</ele>
        <time>2013-09-18T11:45:18.000Z</time>
      </trkpt>
      <trkpt lat="43.49731" lon="6.8051">
        <ele>377</ele>
        <time>2013-09-18T11:45:19.000Z</time>
      </trkpt>
      <trkpt lat="43.49731" lon="6.80511">
        <ele>377</ele>
        <time>2013-09-18T11:45:20.000Z</time>
      </trkpt>
      <trkpt lat="43.49732" lon="6.80513">
        <ele>377</ele>
        <time>2013-09-18T11:45:21.000Z</time>
      </trkpt>
      <trkpt lat="43.49732" lon="6.80515">
        <ele>377</ele>
        <time>2013-09-18T11:45:22.000Z</time>
      </trkpt>
      <trkpt lat="43.49732" lon="6.80516">
        <ele>377</ele>
        <time>2013-09-18T11:45:23.000Z</time>
      </trkpt>
      <trkpt lat="43.49732" lon="6.80518">
        <ele>377</ele>
        <time>2013-09-18T11:45:24.000Z</time>
      </trkpt>
      <trkpt lat="43.49732" lon="6.8052">
        <ele>377</ele>
        <time>2013-09-18T11:45:25.000Z</time>
      </trkpt>
      <trkpt lat="43.49733" lon="6.80521">
        <ele>377</ele>
        <time>2013-09-18T11:45:26.000Z</time>
      </trkpt>
      <trkpt lat="43.49732" lon="6.80523">
        <ele>377</ele>
        <time>2013-09-18T11:45:27.000Z</time>
      </trkpt>
      <trkpt lat="43.49732" lon="6.80529">
        <ele>376</ele>
        <time>2013-09-18T11:45:30.000Z</time>
      </trkpt>
      <trkpt lat="43.49732" lon="6.80531">
        <ele>376</ele>
        <time>2013-09-18T11:45:31.000Z</time>
      </trkpt>
      <trkpt lat="43.49732" lon="6.80533">
        <ele>376</ele>
        <time>2013-09-18T11:45:32.000Z</time>
      </trkpt>
      <trkpt lat="43.49731" lon="6.80535">
        <ele>376</ele>
        <time>2013-09-18T11:45:33.000Z</time>
      </trkpt>
      <trkpt lat="43.49731" lon="6.80536">
        <ele>376</ele>
        <time>2013-09-18T11:45:34.000Z</time>
      </trkpt>
      <trkpt lat="43.4973" lon="6.80538">
        <ele>376</ele>
        <time>2013-09-18T11:45:35.000Z</time>
      </trkpt>
      <trkpt lat="43.4973" lon="6.8054">
        <ele>376</ele>
        <time>2013-09-18T11:45:36.000Z</time>
      </trkpt>
      <trkpt lat="43.4973" lon="6.80542">
        <ele>376</ele>
        <time>2013-09-18T11:45:37.000Z</time>
      </trkpt>
      <trkpt lat="43.49729" lon="6.80545">
        <ele>376</ele>
        <time>2013-09-18T11:45:38.000Z</time>
      </trkpt>
      <trkpt lat="43.49728" lon="6.80547">
        <ele>376</ele>
        <time>2013-09-18T11:45:39.000Z</time>
      </trkpt>
      <trkpt lat="43.49727" lon="6.80549">
        <ele>376</ele>
        <time>2013-09-18T11:45:40.000Z</time>
      </trkpt>
      <trkpt lat="43.49726" lon="6.80552">
        <ele>376</ele>
        <time>2013-09-18T11:45:41.000Z</time>
      </trkpt>
      <trkpt lat="43.49724" lon="6.80554">
        <ele>376</ele>
        <time>2013-09-18T11:45:42.000Z</time>
      </trkpt>
      <trkpt lat="43.49723" lon="6.80556">
        <ele>376</ele>
        <time>2013-09-18T11:45:43.000Z</time>
      </trkpt>
      <trkpt lat="43.49722" lon="6.80558">
        <ele>375</ele>
        <time>2013-09-18T11:45:44.000Z</time>
      </trkpt>
      <trkpt lat="43.4972" lon="6.80561">
        <ele>375</ele>
        <time>2013-09-18T11:45:45.000Z</time>
      </trkpt>
      <trkpt lat="43.49718" lon="6.80563">
        <ele>375</ele>
        <time>2013-09-18T11:45:46.000Z</time>
      </trkpt>
      <trkpt lat="43.49716" lon="6.80565">
        <ele>375</ele>
        <time>2013-09-18T11:45:47.000Z</time>
      </trkpt>
      <trkpt lat="43.49715" lon="6.80568">
        <ele>375</ele>
        <time>2013-09-18T11:45:48.000Z</time>
      </trkpt>
      <trkpt lat="43.49713" lon="6.8057">
        <ele>375</ele>
        <time>2013-09-18T11:45:49.000Z</time>
      </trkpt>
      <trkpt lat="43.49711" lon="6.80573">
        <ele>374</ele>
        <time>2013-09-18T11:45:50.000Z</time>
      </trkpt>
      <trkpt lat="43.49709" lon="6.80575">
        <ele>374</ele>
        <time>2013-09-18T11:45:51.000Z</time>
      </trkpt>
      <trkpt lat="43.49707" lon="6.80578">
        <ele>374</ele>
        <time>2013-09-18T11:45:52.000Z</time>
      </trkpt>
      <trkpt lat="43.49705" lon="6.8058">
        <ele>374</ele>
        <time>2013-09-18T11:45:53.000Z</time>
      </trkpt>
      <trkpt lat="43.49703" lon="6.80583">
        <ele>373</ele>
        <time>2013-09-18T11:45:54.000Z</time>
      </trkpt>
      <trkpt lat="43.49701" lon="6.80586">
        <ele>374</ele>
        <time>2013-09-18T11:45:55.000Z</time>
      </trkpt>
      <trkpt lat="43.49699" lon="6.80588">
        <ele>374</ele>
        <time>2013-09-18T11:45:56.000Z</time>
      </trkpt>
      <trkpt lat="43.49696" lon="6.80591">
        <ele>373</ele>
        <time>2013-09-18T11:45:57.000Z</time>
      </trkpt>
      <trkpt lat="43.49694" lon="6.80594">
        <ele>373</ele>
        <time>2013-09-18T11:45:58.000Z</time>
      </trkpt>
      <trkpt lat="43.49692" lon="6.80596">
        <ele>373</ele>
        <time>2013-09-18T11:45:59.000Z</time>
      </trkpt>
      <trkpt lat="43.49689" lon="6.80599">
        <ele>372</ele>
        <time>2013-09-18T11:46:00.000Z</time>
      </trkpt>
      <trkpt lat="43.49687" lon="6.80601">
        <ele>372</ele>
        <time>2013-09-18T11:46:01.000Z</time>
      </trkpt>
      <trkpt lat="43.49685" lon="6.80603">
        <ele>372</ele>
        <time>2013-09-18T11:46:02.000Z</time>
      </trkpt>
      <trkpt lat="43.49683" lon="6.80604">
        <ele>372</ele>
        <time>2013-09-18T11:46:03.000Z</time>
      </trkpt>
      <trkpt lat="43.49681" lon="6.80604">
        <ele>372</ele>
        <time>2013-09-18T11:46:04.000Z</time>
      </trkpt>
      <trkpt lat="43.49679" lon="6.80605">
        <ele>372</ele>
        <time>2013-09-18T11:46:05.000Z</time>
      </trkpt>
      <trkpt lat="43.49678" lon="6.80606">
        <ele>372</ele>
        <time>2013-09-18T11:46:06.000Z</time>
      </trkpt>
      <trkpt lat="43.49678" lon="6.80606">
        <ele>372</ele>
        <time>2013-09-18T11:46:07.000Z</time>
      </trkpt>
      <trkpt lat="43.49678" lon="6.80606">
        <ele>372</ele>
        <time>2013-09-18T11:46:09.000Z</time>
      </trkpt>
      <trkpt lat="43.49678" lon="6.80607">
        <ele>372</ele>
        <time>2013-09-18T11:46:13.000Z</time>
      </trkpt>
      <trkpt lat="43.49678" lon="6.80607">
        <ele>372</ele>
        <time>2013-09-18T11:46:20.000Z</time>
      </trkpt>
      <trkpt lat="43.49678" lon="6.80607">
        <ele>372</ele>
        <time>2013-09-18T11:46:24.000Z</time>
      </trkpt>
      <trkpt lat="43.49678" lon="6.80607">
        <ele>372</ele>
        <time>2013-09-18T11:46:28.000Z</time>
      </trkpt>
      <trkpt lat="43.49679" lon="6.80607">
        <ele>372</ele>
        <time>2013-09-18T11:46:37.000Z</time>
      </trkpt>
      <trkpt lat="43.49679" lon="6.80607">
        <ele>372</ele>
        <time>2013-09-18T11:46:45.000Z</time>
      </trkpt>
      <trkpt lat="43.49679" lon="6.80607">
        <ele>372</ele>
        <time>2013-09-18T11:46:58.000Z</time>
      </trkpt>
      <trkpt lat="43.4968" lon="6.80607">
        <ele>372</ele>
        <time>2013-09-18T11:47:02.000Z</time>
      </trkpt>
      <trkpt lat="43.49679" lon="6.80607">
        <ele>372</ele>
        <time>2013-09-18T11:47:17.000Z</time>
      </trkpt>
      <trkpt lat="43.49679" lon="6.80608">
        <ele>372</ele>
        <time>2013-09-18T11:47:25.000Z</time>
      </trkpt>
      <trkpt lat="43.49679" lon="6.80608">
        <ele>372</ele>
        <time>2013-09-18T11:47:30.000Z</time>
      </trkpt>
      <trkpt lat="43.49679" lon="6.80608">
        <ele>372</ele>
        <time>2013-09-18T11:47:46.000Z</time>
      </trkpt>
      <trkpt lat="43.49679" lon="6.8061">
        <ele>372</ele>
        <time>2013-09-18T11:47:53.000Z</time>
      </trkpt>
      <trkpt lat="43.49678" lon="6.80611">
        <ele>372</ele>
        <time>2013-09-18T11:47:54.000Z</time>
      </trkpt>
      <trkpt lat="43.49677" lon="6.80613">
        <ele>372</ele>
        <time>2013-09-18T11:47:55.000Z</time>
      </trkpt>
      <trkpt lat="43.49676" lon="6.80615">
        <ele>372</ele>
        <time>2013-09-18T11:47:56.000Z</time>
      </trkpt>
      <trkpt lat="43.49676" lon="6.80619">
        <ele>372</ele>
        <time>2013-09-18T11:47:57.000Z</time>
      </trkpt>
      <trkpt lat="43.49676" lon="6.80622">
        <ele>372</ele>
        <time>2013-09-18T11:47:58.000Z</time>
      </trkpt>
      <trkpt lat="43.49676" lon="6.80625">
        <ele>372</ele>
        <time>2013-09-18T11:47:59.000Z</time>
      </trkpt>
      <trkpt lat="43.49677" lon="6.80629">
        <ele>372</ele>
        <time>2013-09-18T11:48:00.000Z</time>
      </trkpt>
      <trkpt lat="43.49679" lon="6.80632">
        <ele>372</ele>
        <time>2013-09-18T11:48:01.000Z</time>
      </trkpt>
      <trkpt lat="43.49681" lon="6.80635">
        <ele>372</ele>
        <time>2013-09-18T11:48:02.000Z</time>
      </trkpt>
      <trkpt lat="43.49683" lon="6.80637">
        <ele>372</ele>
        <time>2013-09-18T11:48:03.000Z</time>
      </trkpt>
      <trkpt lat="43.49685" lon="6.80639">
        <ele>372</ele>
        <time>2013-09-18T11:48:04.000Z</time>
      </trkpt>
      <trkpt lat="43.49687" lon="6.80641">
        <ele>372</ele>
        <time>2013-09-18T11:48:05.000Z</time>
      </trkpt>
      <trkpt lat="43.49689" lon="6.80642">
        <ele>373</ele>
        <time>2013-09-18T11:48:06.000Z</time>
      </trkpt>
      <trkpt lat="43.49691" lon="6.80643">
        <ele>373</ele>
        <time>2013-09-18T11:48:07.000Z</time>
      </trkpt>
      <trkpt lat="43.49693" lon="6.80645">
        <ele>373</ele>
        <time>2013-09-18T11:48:08.000Z</time>
      </trkpt>
      <trkpt lat="43.49695" lon="6.80648">
        <ele>373</ele>
        <time>2013-09-18T11:48:09.000Z</time>
      </trkpt>
      <trkpt lat="43.49696" lon="6.8065">
        <ele>373</ele>
        <time>2013-09-18T11:48:10.000Z</time>
      </trkpt>
      <trkpt lat="43.49698" lon="6.80652">
        <ele>373</ele>
        <time>2013-09-18T11:48:11.000Z</time>
      </trkpt>
      <trkpt lat="43.49701" lon="6.80654">
        <ele>373</ele>
        <time>2013-09-18T11:48:12.000Z</time>
      </trkpt>
      <trkpt lat="43.49703" lon="6.80657">
        <ele>374</ele>
        <time>2013-09-18T11:48:13.000Z</time>
      </trkpt>
      <trkpt lat="43.49705" lon="6.80659">
        <ele>374</ele>
        <time>2013-09-18T11:48:14.000Z</time>
      </trkpt>
      <trkpt lat="43.49708" lon="6.80662">
        <ele>374</ele>
        <time>2013-09-18T11:48:15.000Z</time>
      </trkpt>
      <trkpt lat="43.49711" lon="6.80665">
        <ele>375</ele>
        <time>2013-09-18T11:48:16.000Z</time>
      </trkpt>
      <trkpt lat="43.49713" lon="6.80668">
        <ele>372</ele>
        <time>2013-09-18T11:48:17.000Z</time>
      </trkpt>
      <trkpt lat="43.49716" lon="6.80671">
        <ele>373</ele>
        <time>2013-09-18T11:48:18.000Z</time>
      </trkpt>
      <trkpt lat="43.49719" lon="6.80675">
        <ele>373</ele>
        <time>2013-09-18T11:48:19.000Z</time>
      </trkpt>
      <trkpt lat="43.49721" lon="6.80679">
        <ele>373</ele>
        <time>2013-09-18T11:48:20.000Z</time>
      </trkpt>
      <trkpt lat="43.49723" lon="6.80684">
        <ele>373</ele>
        <time>2013-09-18T11:48:21.000Z</time>
      </trkpt>
      <trkpt lat="43.49725" lon="6.80689">
        <ele>373</ele>
        <time>2013-09-18T11:48:22.000Z</time>
      </trkpt>
      <trkpt lat="43.49726" lon="6.80695">
        <ele>373</ele>
        <time>2013-09-18T11:48:23.000Z</time>
      </trkpt>
      <trkpt lat="43.49728" lon="6.807">
        <ele>373</ele>
        <time>2013-09-18T11:48:24.000Z</time>
      </trkpt>
      <trkpt lat="43.49729" lon="6.80706">
        <ele>373</ele>
        <time>2013-09-18T11:48:25.000Z</time>
      </trkpt>
      <trkpt lat="43.4973" lon="6.80712">
        <ele>373</ele>
        <time>2013-09-18T11:48:26.000Z</time>
      </trkpt>
      <trkpt lat="43.49731" lon="6.80718">
        <ele>373</ele>
        <time>2013-09-18T11:48:27.000Z</time>
      </trkpt>
      <trkpt lat="43.49732" lon="6.80725">
        <ele>373</ele>
        <time>2013-09-18T11:48:28.000Z</time>
      </trkpt>
      <trkpt lat="43.49733" lon="6.80732">
        <ele>374</ele>
        <time>2013-09-18T11:48:29.000Z</time>
      </trkpt>
      <trkpt lat="43.49734" lon="6.80739">
        <ele>374</ele>
        <time>2013-09-18T11:48:30.000Z</time>
      </trkpt>
      <trkpt lat="43.49735" lon="6.80746">
        <ele>375</ele>
        <time>2013-09-18T11:48:31.000Z</time>
      </trkpt>
      <trkpt lat="43.49736" lon="6.80754">
        <ele>372</ele>
        <time>2013-09-18T11:48:32.000Z</time>
      </trkpt>
      <trkpt lat="43.49737" lon="6.80761">
        <ele>371</ele>
        <time>2013-09-18T11:48:33.000Z</time>
      </trkpt>
      <trkpt lat="43.49737" lon="6.80769">
        <ele>370</ele>
        <time>2013-09-18T11:48:34.000Z</time>
      </trkpt>
      <trkpt lat="43.49738" lon="6.80777">
        <ele>368</ele>
        <time>2013-09-18T11:48:35.000Z</time>
      </trkpt>
      <trkpt lat="43.49739" lon="6.80786">
        <ele>367</ele>
        <time>2013-09-18T11:48:36.000Z</time>
      </trkpt>
      <trkpt lat="43.49739" lon="6.80794">
        <ele>367</ele>
        <time>2013-09-18T11:48:37.000Z</time>
      </trkpt>
      <trkpt lat="43.49739" lon="6.80802">
        <ele>367</ele>
        <time>2013-09-18T11:48:38.000Z</time>
      </trkpt>
      <trkpt lat="43.49739" lon="6.8081">
        <ele>367</ele>
        <time>2013-09-18T11:48:39.000Z</time>
      </trkpt>
      <trkpt lat="43.49739" lon="6.80816">
        <ele>368</ele>
        <time>2013-09-18T11:48:40.000Z</time>
      </trkpt>
      <trkpt lat="43.49739" lon="6.80822">
        <ele>369</ele>
        <time>2013-09-18T11:48:41.000Z</time>
      </trkpt>
      <trkpt lat="43.4974" lon="6.80827">
        <ele>370</ele>
        <time>2013-09-18T11:48:42.000Z</time>
      </trkpt>
      <trkpt lat="43.4974" lon="6.80831">
        <ele>371</ele>
        <time>2013-09-18T11:48:43.000Z</time>
      </trkpt>
      <trkpt lat="43.4974" lon="6.80836">
        <ele>368</ele>
        <time>2013-09-18T11:48:44.000Z</time>
      </trkpt>
      <trkpt lat="43.49741" lon="6.80841">
        <ele>367</ele>
        <time>2013-09-18T11:48:45.000Z</time>
      </trkpt>
      <trkpt lat="43.49742" lon="6.80846">
        <ele>365</ele>
        <time>2013-09-18T11:48:46.000Z</time>
      </trkpt>
      <trkpt lat="43.49742" lon="6.80851">
        <ele>363</ele>
        <time>2013-09-18T11:48:47.000Z</time>
      </trkpt>
      <trkpt lat="43.49743" lon="6.80856">
        <ele>361</ele>
        <time>2013-09-18T11:48:48.000Z</time>
      </trkpt>
      <trkpt lat="43.49743" lon="6.80861">
        <ele>360</ele>
        <time>2013-09-18T11:48:49.000Z</time>
      </trkpt>
      <trkpt lat="43.49744" lon="6.80866">
        <ele>359</ele>
        <time>2013-09-18T11:48:50.000Z</time>
      </trkpt>
      <trkpt lat="43.49745" lon="6.80872">
        <ele>358</ele>
        <time>2013-09-18T11:48:51.000Z</time>
      </trkpt>
      <trkpt lat="43.49747" lon="6.80877">
        <ele>358</ele>
        <time>2013-09-18T11:48:52.000Z</time>
      </trkpt>
      <trkpt lat="43.49749" lon="6.80881">
        <ele>357</ele>
        <time>2013-09-18T11:48:53.000Z</time>
      </trkpt>
      <trkpt lat="43.49751" lon="6.80886">
        <ele>372</ele>
        <time>2013-09-18T11:48:54.000Z</time>
      </trkpt>
      <trkpt lat="43.49752" lon="6.80889">
        <ele>372</ele>
        <time>2013-09-18T11:48:55.000Z</time>
      </trkpt>
      <trkpt lat="43.49754" lon="6.80893">
        <ele>371</ele>
        <time>2013-09-18T11:48:56.000Z</time>
      </trkpt>
      <trkpt lat="43.49755" lon="6.80895">
        <ele>370</ele>
        <time>2013-09-18T11:48:57.000Z</time>
      </trkpt>
      <trkpt lat="43.49756" lon="6.80897">
        <ele>370</ele>
        <time>2013-09-18T11:48:58.000Z</time>
      </trkpt>
      <trkpt lat="43.49757" lon="6.80897">
        <ele>370</ele>
        <time>2013-09-18T11:48:59.000Z</time>
      </trkpt>
      <trkpt lat="43.49757" lon="6.80898">
        <ele>370</ele>
        <time>2013-09-18T11:49:01.000Z</time>
      </trkpt>
      <trkpt lat="43.49757" lon="6.80898">
        <ele>370</ele>
        <time>2013-09-18T11:49:03.000Z</time>
      </trkpt>
      <trkpt lat="43.49758" lon="6.80898">
        <ele>370</ele>
        <time>2013-09-18T11:49:05.000Z</time>
      </trkpt>
      <trkpt lat="43.49758" lon="6.80899">
        <ele>370</ele>
        <time>2013-09-18T11:49:07.000Z</time>
      </trkpt>
      <trkpt lat="43.49758" lon="6.80899">
        <ele>370</ele>
        <time>2013-09-18T11:49:09.000Z</time>
      </trkpt>
      <trkpt lat="43.49758" lon="6.80899">
        <ele>370</ele>
        <time>2013-09-18T11:49:11.000Z</time>
      </trkpt>
      <trkpt lat="43.49758" lon="6.80899">
        <ele>370</ele>
        <time>2013-09-18T11:49:13.000Z</time>
      </trkpt>
      <trkpt lat="43.49758" lon="6.809">
        <ele>370</ele>
        <time>2013-09-18T11:49:16.000Z</time>
      </trkpt>
      <trkpt lat="43.49759" lon="6.809">
        <ele>370</ele>
        <time>2013-09-18T11:49:19.000Z</time>
      </trkpt>
      <trkpt lat="43.49758" lon="6.809">
        <ele>369</ele>
        <time>2013-09-18T11:49:33.000Z</time>
      </trkpt>
      <trkpt lat="43.49759" lon="6.809">
        <ele>370</ele>
        <time>2013-09-18T11:49:39.000Z</time>
      </trkpt>
      <trkpt lat="43.49759" lon="6.809">
        <ele>370</ele>
        <time>2013-09-18T11:49:41.000Z</time>
      </trkpt>
      <trkpt lat="43.49759" lon="6.809">
        <ele>370</ele>
        <time>2013-09-18T11:49:44.000Z</time>
      </trkpt>
      <trkpt lat="43.49759" lon="6.80899">
        <ele>370</ele>
        <time>2013-09-18T11:49:45.000Z</time>
      </trkpt>
      <trkpt lat="43.49759" lon="6.80899">
        <ele>370</ele>
        <time>2013-09-18T11:49:46.000Z</time>
      </trkpt>
      <trkpt lat="43.49759" lon="6.80898">
        <ele>370</ele>
        <time>2013-09-18T11:49:47.000Z</time>
      </trkpt>
      <trkpt lat="43.49758" lon="6.80898">
        <ele>370</ele>
        <time>2013-09-18T11:49:48.000Z</time>
      </trkpt>
      <trkpt lat="43.49758" lon="6.80897">
        <ele>370</ele>
        <time>2013-09-18T11:49:52.000Z</time>
      </trkpt>
      <trkpt lat="43.49757" lon="6.80896">
        <ele>370</ele>
        <time>2013-09-18T11:49:53.000Z</time>
      </trkpt>
      <trkpt lat="43.49756" lon="6.80894">
        <ele>371</ele>
        <time>2013-09-18T11:49:54.000Z</time>
      </trkpt>
      <trkpt lat="43.49755" lon="6.80893">
        <ele>371</ele>
        <time>2013-09-18T11:49:55.000Z</time>
      </trkpt>
      <trkpt lat="43.49754" lon="6.80891">
        <ele>371</ele>
        <time>2013-09-18T11:49:56.000Z</time>
      </trkpt>
      <trkpt lat="43.49753" lon="6.80888">
        <ele>372</ele>
        <time>2013-09-18T11:49:57.000Z</time>
      </trkpt>
      <trkpt lat="43.49752" lon="6.80886">
        <ele>372</ele>
        <time>2013-09-18T11:49:58.000Z</time>
      </trkpt>
      <trkpt lat="43.49751" lon="6.80883">
        <ele>373</ele>
        <time>2013-09-18T11:49:59.000Z</time>
      </trkpt>
      <trkpt lat="43.4975" lon="6.8088">
        <ele>373</ele>
        <time>2013-09-18T11:50:00.000Z</time>
      </trkpt>
      <trkpt lat="43.49749" lon="6.80878">
        <ele>358</ele>
        <time>2013-09-18T11:50:01.000Z</time>
      </trkpt>
      <trkpt lat="43.49748" lon="6.80875">
        <ele>358</ele>
        <time>2013-09-18T11:50:02.000Z</time>
      </trkpt>
      <trkpt lat="43.49747" lon="6.80873">
        <ele>358</ele>
        <time>2013-09-18T11:50:03.000Z</time>
      </trkpt>
      <trkpt lat="43.49746" lon="6.8087">
        <ele>359</ele>
        <time>2013-09-18T11:50:04.000Z</time>
      </trkpt>
      <trkpt lat="43.49746" lon="6.80867">
        <ele>359</ele>
        <time>2013-09-18T11:50:05.000Z</time>
      </trkpt>
      <trkpt lat="43.49745" lon="6.80864">
        <ele>360</ele>
        <time>2013-09-18T11:50:06.000Z</time>
      </trkpt>
      <trkpt lat="43.49745" lon="6.80861">
        <ele>360</ele>
        <time>2013-09-18T11:50:07.000Z</time>
      </trkpt>
      <trkpt lat="43.49745" lon="6.80855">
        <ele>362</ele>
        <time>2013-09-18T11:50:10.000Z</time>
      </trkpt>
      <trkpt lat="43.49745" lon="6.80853">
        <ele>363</ele>
        <time>2013-09-18T11:50:11.000Z</time>
      </trkpt>
      <trkpt lat="43.49746" lon="6.80851">
        <ele>364</ele>
        <time>2013-09-18T11:50:12.000Z</time>
      </trkpt>
      <trkpt lat="43.49747" lon="6.8085">
        <ele>365</ele>
        <time>2013-09-18T11:50:13.000Z</time>
      </trkpt>
      <trkpt lat="43.4975" lon="6.80851">
        <ele>364</ele>
        <time>2013-09-18T11:50:15.000Z</time>
      </trkpt>
      <trkpt lat="43.4975" lon="6.80854">
        <ele>376</ele>
        <time>2013-09-18T11:50:16.000Z</time>
      </trkpt>
      <trkpt lat="43.49751" lon="6.80856">
        <ele>376</ele>
        <time>2013-09-18T11:50:17.000Z</time>
      </trkpt>
      <trkpt lat="43.49752" lon="6.80859">
        <ele>376</ele>
        <time>2013-09-18T11:50:18.000Z</time>
      </trkpt>
      <trkpt lat="43.49752" lon="6.80861">
        <ele>376</ele>
        <time>2013-09-18T11:50:19.000Z</time>
      </trkpt>
      <trkpt lat="43.49753" lon="6.80864">
        <ele>375</ele>
        <time>2013-09-18T11:50:20.000Z</time>
      </trkpt>
      <trkpt lat="43.49753" lon="6.80866">
        <ele>375</ele>
        <time>2013-09-18T11:50:21.000Z</time>
      </trkpt>
      <trkpt lat="43.49754" lon="6.80868">
        <ele>375</ele>
        <time>2013-09-18T11:50:22.000Z</time>
      </trkpt>
      <trkpt lat="43.49754" lon="6.8087">
        <ele>375</ele>
        <time>2013-09-18T11:50:23.000Z</time>
      </trkpt>
      <trkpt lat="43.49755" lon="6.80871">
        <ele>375</ele>
        <time>2013-09-18T11:50:24.000Z</time>
      </trkpt>
      <trkpt lat="43.49755" lon="6.80873">
        <ele>375</ele>
        <time>2013-09-18T11:50:25.000Z</time>
      </trkpt>
      <trkpt lat="43.49756" lon="6.80874">
        <ele>374</ele>
        <time>2013-09-18T11:50:26.000Z</time>
      </trkpt>
      <trkpt lat="43.49756" lon="6.80875">
        <ele>374</ele>
        <time>2013-09-18T11:50:27.000Z</time>
      </trkpt>
      <trkpt lat="43.49757" lon="6.80876">
        <ele>374</ele>
        <time>2013-09-18T11:50:28.000Z</time>
      </trkpt>
      <trkpt lat="43.49757" lon="6.80878">
        <ele>374</ele>
        <time>2013-09-18T11:50:29.000Z</time>
      </trkpt>
      <trkpt lat="43.49758" lon="6.80879">
        <ele>374</ele>
        <time>2013-09-18T11:50:30.000Z</time>
      </trkpt>
      <trkpt lat="43.49758" lon="6.80881">
        <ele>374</ele>
        <time>2013-09-18T11:50:31.000Z</time>
      </trkpt>
      <trkpt lat="43.49759" lon="6.80882">
        <ele>374</ele>
        <time>2013-09-18T11:50:32.000Z</time>
      </trkpt>
      <trkpt lat="43.4976" lon="6.80883">
        <ele>373</ele>
        <time>2013-09-18T11:50:33.000Z</time>
      </trkpt>
      <trkpt lat="43.49761" lon="6.80884">
        <ele>373</ele>
        <time>2013-09-18T11:50:34.000Z</time>
      </trkpt>
      <trkpt lat="43.49762" lon="6.80885">
        <ele>373</ele>
        <time>2013-09-18T11:50:35.000Z</time>
      </trkpt>
      <trkpt lat="43.49762" lon="6.80887">
        <ele>373</ele>
        <time>2013-09-18T11:50:36.000Z</time>
      </trkpt>
      <trkpt lat="43.49764" lon="6.80888">
        <ele>373</ele>
        <time>2013-09-18T11:50:37.000Z</time>
      </trkpt>
      <trkpt lat="43.49765" lon="6.80889">
        <ele>373</ele>
        <time>2013-09-18T11:50:38.000Z</time>
      </trkpt>
      <trkpt lat="43.49766" lon="6.80891">
        <ele>373</ele>
        <time>2013-09-18T11:50:39.000Z</time>
      </trkpt>
      <trkpt lat="43.49766" lon="6.80892">
        <ele>373</ele>
        <time>2013-09-18T11:50:40.000Z</time>
      </trkpt>
      <trkpt lat="43.49767" lon="6.80894">
        <ele>372</ele>
        <time>2013-09-18T11:50:41.000Z</time>
      </trkpt>
      <trkpt lat="43.49769" lon="6.80895">
        <ele>372</ele>
        <time>2013-09-18T11:50:42.000Z</time>
      </trkpt>
      <trkpt lat="43.4977" lon="6.80896">
        <ele>373</ele>
        <time>2013-09-18T11:50:43.000Z</time>
      </trkpt>
      <trkpt lat="43.49772" lon="6.80897">
        <ele>373</ele>
        <time>2013-09-18T11:50:44.000Z</time>
      </trkpt>
      <trkpt lat="43.49773" lon="6.80897">
        <ele>373</ele>
        <time>2013-09-18T11:50:45.000Z</time>
      </trkpt>
      <trkpt lat="43.49775" lon="6.80898">
        <ele>373</ele>
        <time>2013-09-18T11:50:46.000Z</time>
      </trkpt>
      <trkpt lat="43.49776" lon="6.80899">
        <ele>373</ele>
        <time>2013-09-18T11:50:47.000Z</time>
      </trkpt>
      <trkpt lat="43.49778" lon="6.80899">
        <ele>374</ele>
        <time>2013-09-18T11:50:48.000Z</time>
      </trkpt>
      <trkpt lat="43.4978" lon="6.809">
        <ele>374</ele>
        <time>2013-09-18T11:50:49.000Z</time>
      </trkpt>
      <trkpt lat="43.49782" lon="6.80901">
        <ele>374</ele>
        <time>2013-09-18T11:50:50.000Z</time>
      </trkpt>
      <trkpt lat="43.49784" lon="6.80902">
        <ele>375</ele>
        <time>2013-09-18T11:50:51.000Z</time>
      </trkpt>
      <trkpt lat="43.49785" lon="6.80904">
        <ele>375</ele>
        <time>2013-09-18T11:50:52.000Z</time>
      </trkpt>
      <trkpt lat="43.49787" lon="6.80905">
        <ele>375</ele>
        <time>2013-09-18T11:50:53.000Z</time>
      </trkpt>
      <trkpt lat="43.49789" lon="6.80906">
        <ele>375</ele>
        <time>2013-09-18T11:50:54.000Z</time>
      </trkpt>
      <trkpt lat="43.4979" lon="6.80907">
        <ele>376</ele>
        <time>2013-09-18T11:50:55.000Z</time>
      </trkpt>
      <trkpt lat="43.49792" lon="6.80908">
        <ele>376</ele>
        <time>2013-09-18T11:50:56.000Z</time>
      </trkpt>
      <trkpt lat="43.49794" lon="6.80909">
        <ele>376</ele>
        <time>2013-09-18T11:50:57.000Z</time>
      </trkpt>
      <trkpt lat="43.49795" lon="6.8091">
        <ele>376</ele>
        <time>2013-09-18T11:50:58.000Z</time>
      </trkpt>
      <trkpt lat="43.49797" lon="6.80911">
        <ele>377</ele>
        <time>2013-09-18T11:50:59.000Z</time>
      </trkpt>
      <trkpt lat="43.49798" lon="6.80912">
        <ele>377</ele>
        <time>2013-09-18T11:51:00.000Z</time>
      </trkpt>
      <trkpt lat="43.498" lon="6.80913">
        <ele>377</ele>
        <time>2013-09-18T11:51:01.000Z</time>
      </trkpt>
      <trkpt lat="43.49801" lon="6.80913">
        <ele>378</ele>
        <time>2013-09-18T11:51:02.000Z</time>
      </trkpt>
      <trkpt lat="43.49803" lon="6.80914">
        <ele>378</ele>
        <time>2013-09-18T11:51:03.000Z</time>
      </trkpt>
      <trkpt lat="43.49805" lon="6.80915">
        <ele>378</ele>
        <time>2013-09-18T11:51:04.000Z</time>
      </trkpt>
      <trkpt lat="43.49806" lon="6.80916">
        <ele>378</ele>
        <time>2013-09-18T11:51:05.000Z</time>
      </trkpt>
      <trkpt lat="43.49808" lon="6.80917">
        <ele>367</ele>
        <time>2013-09-18T11:51:06.000Z</time>
      </trkpt>
      <trkpt lat="43.4981" lon="6.80918">
        <ele>368</ele>
        <time>2013-09-18T11:51:07.000Z</time>
      </trkpt>
      <trkpt lat="43.49811" lon="6.80918">
        <ele>368</ele>
        <time>2013-09-18T11:51:08.000Z</time>
      </trkpt>
      <trkpt lat="43.49813" lon="6.80919">
        <ele>369</ele>
        <time>2013-09-18T11:51:09.000Z</time>
      </trkpt>
      <trkpt lat="43.49815" lon="6.8092">
        <ele>370</ele>
        <time>2013-09-18T11:51:10.000Z</time>
      </trkpt>
      <trkpt lat="43.49816" lon="6.80921">
        <ele>370</ele>
        <time>2013-09-18T11:51:11.000Z</time>
      </trkpt>
      <trkpt lat="43.49818" lon="6.80922">
        <ele>371</ele>
        <time>2013-09-18T11:51:12.000Z</time>
      </trkpt>
      <trkpt lat="43.4982" lon="6.80923">
        <ele>372</ele>
        <time>2013-09-18T11:51:13.000Z</time>
      </trkpt>
      <trkpt lat="43.49821" lon="6.80923">
        <ele>372</ele>
        <time>2013-09-18T11:51:14.000Z</time>
      </trkpt>
      <trkpt lat="43.49822" lon="6.80924">
        <ele>373</ele>
        <time>2013-09-18T11:51:15.000Z</time>
      </trkpt>
      <trkpt lat="43.49824" lon="6.80925">
        <ele>373</ele>
        <time>2013-09-18T11:51:16.000Z</time>
      </trkpt>
      <trkpt lat="43.49825" lon="6.80926">
        <ele>373</ele>
        <time>2013-09-18T11:51:17.000Z</time>
      </trkpt>
      <trkpt lat="43.49827" lon="6.80926">
        <ele>374</ele>
        <time>2013-09-18T11:51:18.000Z</time>
      </trkpt>
      <trkpt lat="43.49828" lon="6.80927">
        <ele>374</ele>
        <time>2013-09-18T11:51:19.000Z</time>
      </trkpt>
      <trkpt lat="43.4983" lon="6.80928">
        <ele>374</ele>
        <time>2013-09-18T11:51:20.000Z</time>
      </trkpt>
      <trkpt lat="43.49831" lon="6.80929">
        <ele>374</ele>
        <time>2013-09-18T11:51:21.000Z</time>
      </trkpt>
      <trkpt lat="43.49833" lon="6.80929">
        <ele>373</ele>
        <time>2013-09-18T11:51:22.000Z</time>
      </trkpt>
      <trkpt lat="43.49834" lon="6.8093">
        <ele>380</ele>
        <time>2013-09-18T11:51:23.000Z</time>
      </trkpt>
      <trkpt lat="43.49836" lon="6.80931">
        <ele>380</ele>
        <time>2013-09-18T11:51:24.000Z</time>
      </trkpt>
      <trkpt lat="43.49837" lon="6.80932">
        <ele>379</ele>
        <time>2013-09-18T11:51:25.000Z</time>
      </trkpt>
      <trkpt lat="43.49839" lon="6.80933">
        <ele>379</ele>
        <time>2013-09-18T11:51:26.000Z</time>
      </trkpt>
      <trkpt lat="43.4984" lon="6.80934">
        <ele>379</ele>
        <time>2013-09-18T11:51:27.000Z</time>
      </trkpt>
      <trkpt lat="43.49842" lon="6.80935">
        <ele>379</ele>
        <time>2013-09-18T11:51:28.000Z</time>
      </trkpt>
      <trkpt lat="43.49843" lon="6.80936">
        <ele>378</ele>
        <time>2013-09-18T11:51:29.000Z</time>
      </trkpt>
      <trkpt lat="43.49844" lon="6.80937">
        <ele>378</ele>
        <time>2013-09-18T11:51:30.000Z</time>
      </trkpt>
      <trkpt lat="43.49846" lon="6.80938">
        <ele>378</ele>
        <time>2013-09-18T11:51:31.000Z</time>
      </trkpt>
      <trkpt lat="43.49848" lon="6.80939">
        <ele>378</ele>
        <time>2013-09-18T11:51:32.000Z</time>
      </trkpt>
      <trkpt lat="43.49849" lon="6.8094">
        <ele>378</ele>
        <time>2013-09-18T11:51:33.000Z</time>
      </trkpt>
      <trkpt lat="43.49851" lon="6.8094">
        <ele>377</ele>
        <time>2013-09-18T11:51:34.000Z</time>
      </trkpt>
      <trkpt lat="43.49852" lon="6.80941">
        <ele>377</ele>
        <time>2013-09-18T11:51:35.000Z</time>
      </trkpt>
      <trkpt lat="43.49854" lon="6.80941">
        <ele>377</ele>
        <time>2013-09-18T11:51:36.000Z</time>
      </trkpt>
      <trkpt lat="43.49856" lon="6.80942">
        <ele>377</ele>
        <time>2013-09-18T11:51:37.000Z</time>
      </trkpt>
      <trkpt lat="43.49857" lon="6.80942">
        <ele>377</ele>
        <time>2013-09-18T11:51:38.000Z</time>
      </trkpt>
      <trkpt lat="43.49859" lon="6.80943">
        <ele>377</ele>
        <time>2013-09-18T11:51:39.000Z</time>
      </trkpt>
      <trkpt lat="43.4986" lon="6.80944">
        <ele>377</ele>
        <time>2013-09-18T11:51:40.000Z</time>
      </trkpt>
      <trkpt lat="43.49862" lon="6.80945">
        <ele>377</ele>
        <time>2013-09-18T11:51:41.000Z</time>
      </trkpt>
      <trkpt lat="43.49863" lon="6.80946">
        <ele>377</ele>
        <time>2013-09-18T11:51:42.000Z</time>
      </trkpt>
      <trkpt lat="43.49865" lon="6.80947">
        <ele>377</ele>
        <time>2013-09-18T11:51:43.000Z</time>
      </trkpt>
      <trkpt lat="43.49867" lon="6.80947">
        <ele>377</ele>
        <time>2013-09-18T11:51:44.000Z</time>
      </trkpt>
      <trkpt lat="43.49868" lon="6.80947">
        <ele>377</ele>
        <time>2013-09-18T11:51:45.000Z</time>
      </trkpt>
      <trkpt lat="43.4987" lon="6.80948">
        <ele>377</ele>
        <time>2013-09-18T11:51:46.000Z</time>
      </trkpt>
      <trkpt lat="43.49871" lon="6.80949">
        <ele>377</ele>
        <time>2013-09-18T11:51:47.000Z</time>
      </trkpt>
      <trkpt lat="43.49873" lon="6.80949">
        <ele>377</ele>
        <time>2013-09-18T11:51:48.000Z</time>
      </trkpt>
      <trkpt lat="43.49875" lon="6.8095">
        <ele>377</ele>
        <time>2013-09-18T11:51:49.000Z</time>
      </trkpt>
      <trkpt lat="43.49876" lon="6.8095">
        <ele>377</ele>
        <time>2013-09-18T11:51:50.000Z</time>
      </trkpt>
      <trkpt lat="43.49878" lon="6.80951">
        <ele>377</ele>
        <time>2013-09-18T11:51:51.000Z</time>
      </trkpt>
      <trkpt lat="43.4988" lon="6.80952">
        <ele>377</ele>
        <time>2013-09-18T11:51:52.000Z</time>
      </trkpt>
      <trkpt lat="43.49881" lon="6.80953">
        <ele>377</ele>
        <time>2013-09-18T11:51:53.000Z</time>
      </trkpt>
      <trkpt lat="43.49883" lon="6.80954">
        <ele>377</ele>
        <time>2013-09-18T11:51:54.000Z</time>
      </trkpt>
      <trkpt lat="43.49884" lon="6.80954">
        <ele>377</ele>
        <time>2013-09-18T11:51:55.000Z</time>
      </trkpt>
      <trkpt lat="43.49886" lon="6.80954">
        <ele>377</ele>
        <time>2013-09-18T11:51:56.000Z</time>
      </trkpt>
      <trkpt lat="43.49888" lon="6.80955">
        <ele>377</ele>
        <time>2013-09-18T11:51:57.000Z</time>
      </trkpt>
      <trkpt lat="43.49889" lon="6.80955">
        <ele>377</ele>
        <time>2013-09-18T11:51:58.000Z</time>
      </trkpt>
      <trkpt lat="43.49891" lon="6.80956">
        <ele>378</ele>
        <time>2013-09-18T11:51:59.000Z</time>
      </trkpt>
      <trkpt lat="43.49893" lon="6.80957">
        <ele>378</ele>
        <time>2013-09-18T11:52:00.000Z</time>
      </trkpt>
      <trkpt lat="43.49894" lon="6.80957">
        <ele>378</ele>
        <time>2013-09-18T11:52:01.000Z</time>
      </trkpt>
      <trkpt lat="43.49895" lon="6.80958">
        <ele>378</ele>
        <time>2013-09-18T11:52:02.000Z</time>
      </trkpt>
      <trkpt lat="43.49897" lon="6.80959">
        <ele>378</ele>
        <time>2013-09-18T11:52:03.000Z</time>
      </trkpt>
      <trkpt lat="43.49898" lon="6.80959">
        <ele>378</ele>
        <time>2013-09-18T11:52:04.000Z</time>
      </trkpt>
      <trkpt lat="43.499" lon="6.8096">
        <ele>378</ele>
        <time>2013-09-18T11:52:05.000Z</time>
      </trkpt>
      <trkpt lat="43.49901" lon="6.8096">
        <ele>378</ele>
        <time>2013-09-18T11:52:06.000Z</time>
      </trkpt>
      <trkpt lat="43.49903" lon="6.80961">
        <ele>378</ele>
        <time>2013-09-18T11:52:07.000Z</time>
      </trkpt>
      <trkpt lat="43.49904" lon="6.80961">
        <ele>378</ele>
        <time>2013-09-18T11:52:08.000Z</time>
      </trkpt>
      <trkpt lat="43.49906" lon="6.80962">
        <ele>378</ele>
        <time>2013-09-18T11:52:09.000Z</time>
      </trkpt>
      <trkpt lat="43.49907" lon="6.80963">
        <ele>378</ele>
        <time>2013-09-18T11:52:10.000Z</time>
      </trkpt>
      <trkpt lat="43.49908" lon="6.80964">
        <ele>378</ele>
        <time>2013-09-18T11:52:11.000Z</time>
      </trkpt>
      <trkpt lat="43.4991" lon="6.80965">
        <ele>378</ele>
        <time>2013-09-18T11:52:12.000Z</time>
      </trkpt>
      <trkpt lat="43.49911" lon="6.80966">
        <ele>378</ele>
        <time>2013-09-18T11:52:13.000Z</time>
      </trkpt>
      <trkpt lat="43.49912" lon="6.80967">
        <ele>378</ele>
        <time>2013-09-18T11:52:14.000Z</time>
      </trkpt>
      <trkpt lat="43.49914" lon="6.80967">
        <ele>378</ele>
        <time>2013-09-18T11:52:15.000Z</time>
      </trkpt>
      <trkpt lat="43.49915" lon="6.80968">
        <ele>378</ele>
        <time>2013-09-18T11:52:16.000Z</time>
      </trkpt>
      <trkpt lat="43.49917" lon="6.80968">
        <ele>384</ele>
        <time>2013-09-18T11:52:17.000Z</time>
      </trkpt>
      <trkpt lat="43.49918" lon="6.80969">
        <ele>384</ele>
        <time>2013-09-18T11:52:18.000Z</time>
      </trkpt>
      <trkpt lat="43.49919" lon="6.8097">
        <ele>384</ele>
        <time>2013-09-18T11:52:19.000Z</time>
      </trkpt>
      <trkpt lat="43.4992" lon="6.80971">
        <ele>384</ele>
        <time>2013-09-18T11:52:20.000Z</time>
      </trkpt>
      <trkpt lat="43.49922" lon="6.80971">
        <ele>384</ele>
        <time>2013-09-18T11:52:21.000Z</time>
      </trkpt>
      <trkpt lat="43.49923" lon="6.80972">
        <ele>384</ele>
        <time>2013-09-18T11:52:22.000Z</time>
      </trkpt>
      <trkpt lat="43.49924" lon="6.80973">
        <ele>384</ele>
        <time>2013-09-18T11:52:23.000Z</time>
      </trkpt>
      <trkpt lat="43.49925" lon="6.80974">
        <ele>384</ele>
        <time>2013-09-18T11:52:24.000Z</time>
      </trkpt>
      <trkpt lat="43.49926" lon="6.80975">
        <ele>384</ele>
        <time>2013-09-18T11:52:25.000Z</time>
      </trkpt>
      <trkpt lat="43.49928" lon="6.80975">
        <ele>384</ele>
        <time>2013-09-18T11:52:26.000Z</time>
      </trkpt>
      <trkpt lat="43.49929" lon="6.80976">
        <ele>384</ele>
        <time>2013-09-18T11:52:27.000Z</time>
      </trkpt>
      <trkpt lat="43.4993" lon="6.80976">
        <ele>384</ele>
        <time>2013-09-18T11:52:28.000Z</time>
      </trkpt>
      <trkpt lat="43.49931" lon="6.80978">
        <ele>384</ele>
        <time>2013-09-18T11:52:29.000Z</time>
      </trkpt>
      <trkpt lat="43.49932" lon="6.80979">
        <ele>384</ele>
        <time>2013-09-18T11:52:30.000Z</time>
      </trkpt>
      <trkpt lat="43.49933" lon="6.8098">
        <ele>384</ele>
        <time>2013-09-18T11:52:31.000Z</time>
      </trkpt>
      <trkpt lat="43.49934" lon="6.80981">
        <ele>384</ele>
        <time>2013-09-18T11:52:32.000Z</time>
      </trkpt>
      <trkpt lat="43.49935" lon="6.80982">
        <ele>384</ele>
        <time>2013-09-18T11:52:33.000Z</time>
      </trkpt>
      <trkpt lat="43.49936" lon="6.80983">
        <ele>384</ele>
        <time>2013-09-18T11:52:34.000Z</time>
      </trkpt>
      <trkpt lat="43.49937" lon="6.80984">
        <ele>384</ele>
        <time>2013-09-18T11:52:35.000Z</time>
      </trkpt>
      <trkpt lat="43.49938" lon="6.80985">
        <ele>384</ele>
        <time>2013-09-18T11:52:36.000Z</time>
      </trkpt>
      <trkpt lat="43.49939" lon="6.80986">
        <ele>384</ele>
        <time>2013-09-18T11:52:37.000Z</time>
      </trkpt>
      <trkpt lat="43.49941" lon="6.80986">
        <ele>384</ele>
        <time>2013-09-18T11:52:38.000Z</time>
      </trkpt>
      <trkpt lat="43.49942" lon="6.80987">
        <ele>384</ele>
        <time>2013-09-18T11:52:39.000Z</time>
      </trkpt>
      <trkpt lat="43.49943" lon="6.80988">
        <ele>384</ele>
        <time>2013-09-18T11:52:40.000Z</time>
      </trkpt>
      <trkpt lat="43.49944" lon="6.80989">
        <ele>385</ele>
        <time>2013-09-18T11:52:41.000Z</time>
      </trkpt>
      <trkpt lat="43.49945" lon="6.80989">
        <ele>385</ele>
        <time>2013-09-18T11:52:42.000Z</time>
      </trkpt>
      <trkpt lat="43.49946" lon="6.8099">
        <ele>385</ele>
        <time>2013-09-18T11:52:43.000Z</time>
      </trkpt>
      <trkpt lat="43.49947" lon="6.80991">
        <ele>385</ele>
        <time>2013-09-18T11:52:44.000Z</time>
      </trkpt>
      <trkpt lat="43.49948" lon="6.80992">
        <ele>385</ele>
        <time>2013-09-18T11:52:45.000Z</time>
      </trkpt>
      <trkpt lat="43.4995" lon="6.80993">
        <ele>385</ele>
        <time>2013-09-18T11:52:46.000Z</time>
      </trkpt>
      <trkpt lat="43.49951" lon="6.80994">
        <ele>385</ele>
        <time>2013-09-18T11:52:47.000Z</time>
      </trkpt>
      <trkpt lat="43.49952" lon="6.80994">
        <ele>386</ele>
        <time>2013-09-18T11:52:48.000Z</time>
      </trkpt>
      <trkpt lat="43.49953" lon="6.80995">
        <ele>386</ele>
        <time>2013-09-18T11:52:49.000Z</time>
      </trkpt>
      <trkpt lat="43.49954" lon="6.80996">
        <ele>386</ele>
        <time>2013-09-18T11:52:50.000Z</time>
      </trkpt>
      <trkpt lat="43.49955" lon="6.80998">
        <ele>386</ele>
        <time>2013-09-18T11:52:51.000Z</time>
      </trkpt>
      <trkpt lat="43.49956" lon="6.80998">
        <ele>386</ele>
        <time>2013-09-18T11:52:52.000Z</time>
      </trkpt>
      <trkpt lat="43.49957" lon="6.80999">
        <ele>386</ele>
        <time>2013-09-18T11:52:53.000Z</time>
      </trkpt>
      <trkpt lat="43.49958" lon="6.81">
        <ele>386</ele>
        <time>2013-09-18T11:52:54.000Z</time>
      </trkpt>
      <trkpt lat="43.49959" lon="6.81001">
        <ele>387</ele>
        <time>2013-09-18T11:52:55.000Z</time>
      </trkpt>
      <trkpt lat="43.4996" lon="6.81002">
        <ele>387</ele>
        <time>2013-09-18T11:52:56.000Z</time>
      </trkpt>
      <trkpt lat="43.49961" lon="6.81002">
        <ele>387</ele>
        <time>2013-09-18T11:52:57.000Z</time>
      </trkpt>
      <trkpt lat="43.49963" lon="6.81003">
        <ele>387</ele>
        <time>2013-09-18T11:52:58.000Z</time>
      </trkpt>
      <trkpt lat="43.49964" lon="6.81004">
        <ele>387</ele>
        <time>2013-09-18T11:52:59.000Z</time>
      </trkpt>
      <trkpt lat="43.49965" lon="6.81004">
        <ele>388</ele>
        <time>2013-09-18T11:53:00.000Z</time>
      </trkpt>
      <trkpt lat="43.49966" lon="6.81005">
        <ele>388</ele>
        <time>2013-09-18T11:53:01.000Z</time>
      </trkpt>
      <trkpt lat="43.49968" lon="6.81005">
        <ele>388</ele>
        <time>2013-09-18T11:53:02.000Z</time>
      </trkpt>
      <trkpt lat="43.49969" lon="6.81005">
        <ele>388</ele>
        <time>2013-09-18T11:53:03.000Z</time>
      </trkpt>
      <trkpt lat="43.4997" lon="6.81006">
        <ele>388</ele>
        <time>2013-09-18T11:53:04.000Z</time>
      </trkpt>
      <trkpt lat="43.49971" lon="6.81007">
        <ele>389</ele>
        <time>2013-09-18T11:53:05.000Z</time>
      </trkpt>
      <trkpt lat="43.49973" lon="6.81008">
        <ele>389</ele>
        <time>2013-09-18T11:53:06.000Z</time>
      </trkpt>
      <trkpt lat="43.49974" lon="6.81009">
        <ele>389</ele>
        <time>2013-09-18T11:53:07.000Z</time>
      </trkpt>
      <trkpt lat="43.49975" lon="6.8101">
        <ele>389</ele>
        <time>2013-09-18T11:53:08.000Z</time>
      </trkpt>
      <trkpt lat="43.49976" lon="6.81011">
        <ele>389</ele>
        <time>2013-09-18T11:53:09.000Z</time>
      </trkpt>
      <trkpt lat="43.49977" lon="6.81012">
        <ele>389</ele>
        <time>2013-09-18T11:53:10.000Z</time>
      </trkpt>
      <trkpt lat="43.49978" lon="6.81013">
        <ele>390</ele>
        <time>2013-09-18T11:53:11.000Z</time>
      </trkpt>
      <trkpt lat="43.4998" lon="6.81014">
        <ele>390</ele>
        <time>2013-09-18T11:53:12.000Z</time>
      </trkpt>
      <trkpt lat="43.49981" lon="6.81015">
        <ele>390</ele>
        <time>2013-09-18T11:53:13.000Z</time>
      </trkpt>
      <trkpt lat="43.49982" lon="6.81015">
        <ele>390</ele>
        <time>2013-09-18T11:53:14.000Z</time>
      </trkpt>
      <trkpt lat="43.49983" lon="6.81016">
        <ele>390</ele>
        <time>2013-09-18T11:53:15.000Z</time>
      </trkpt>
      <trkpt lat="43.49985" lon="6.81017">
        <ele>390</ele>
        <time>2013-09-18T11:53:16.000Z</time>
      </trkpt>
      <trkpt lat="43.49986" lon="6.81018">
        <ele>391</ele>
        <time>2013-09-18T11:53:17.000Z</time>
      </trkpt>
      <trkpt lat="43.49987" lon="6.81019">
        <ele>391</ele>
        <time>2013-09-18T11:53:18.000Z</time>
      </trkpt>
      <trkpt lat="43.49989" lon="6.8102">
        <ele>391</ele>
        <time>2013-09-18T11:53:19.000Z</time>
      </trkpt>
      <trkpt lat="43.4999" lon="6.8102">
        <ele>391</ele>
        <time>2013-09-18T11:53:20.000Z</time>
      </trkpt>
      <trkpt lat="43.49991" lon="6.81021">
        <ele>391</ele>
        <time>2013-09-18T11:53:21.000Z</time>
      </trkpt>
      <trkpt lat="43.49993" lon="6.81022">
        <ele>391</ele>
        <time>2013-09-18T11:53:22.000Z</time>
      </trkpt>
      <trkpt lat="43.49994" lon="6.81023">
        <ele>391</ele>
        <time>2013-09-18T11:53:23.000Z</time>
      </trkpt>
      <trkpt lat="43.49995" lon="6.81024">
        <ele>391</ele>
        <time>2013-09-18T11:53:24.000Z</time>
      </trkpt>
      <trkpt lat="43.49996" lon="6.81025">
        <ele>391</ele>
        <time>2013-09-18T11:53:25.000Z</time>
      </trkpt>
      <trkpt lat="43.49997" lon="6.81025">
        <ele>391</ele>
        <time>2013-09-18T11:53:26.000Z</time>
      </trkpt>
      <trkpt lat="43.49999" lon="6.81026">
        <ele>391</ele>
        <time>2013-09-18T11:53:27.000Z</time>
      </trkpt>
      <trkpt lat="43.5" lon="6.81027">
        <ele>391</ele>
        <time>2013-09-18T11:53:28.000Z</time>
      </trkpt>
      <trkpt lat="43.50001" lon="6.81028">
        <ele>403</ele>
        <time>2013-09-18T11:53:29.000Z</time>
      </trkpt>
      <trkpt lat="43.50003" lon="6.81028">
        <ele>403</ele>
        <time>2013-09-18T11:53:30.000Z</time>
      </trkpt>
      <trkpt lat="43.50004" lon="6.81029">
        <ele>403</ele>
        <time>2013-09-18T11:53:31.000Z</time>
      </trkpt>
      <trkpt lat="43.50005" lon="6.8103">
        <ele>403</ele>
        <time>2013-09-18T11:53:32.000Z</time>
      </trkpt>
      <trkpt lat="43.50006" lon="6.8103">
        <ele>403</ele>
        <time>2013-09-18T11:53:33.000Z</time>
      </trkpt>
      <trkpt lat="43.50008" lon="6.81031">
        <ele>403</ele>
        <time>2013-09-18T11:53:34.000Z</time>
      </trkpt>
      <trkpt lat="43.50009" lon="6.81031">
        <ele>403</ele>
        <time>2013-09-18T11:53:35.000Z</time>
      </trkpt>
      <trkpt lat="43.5001" lon="6.81032">
        <ele>404</ele>
        <time>2013-09-18T11:53:36.000Z</time>
      </trkpt>
      <trkpt lat="43.50012" lon="6.81032">
        <ele>404</ele>
        <time>2013-09-18T11:53:37.000Z</time>
      </trkpt>
      <trkpt lat="43.50013" lon="6.81032">
        <ele>404</ele>
        <time>2013-09-18T11:53:38.000Z</time>
      </trkpt>
      <trkpt lat="43.50014" lon="6.81033">
        <ele>404</ele>
        <time>2013-09-18T11:53:39.000Z</time>
      </trkpt>
      <trkpt lat="43.50016" lon="6.81033">
        <ele>404</ele>
        <time>2013-09-18T11:53:40.000Z</time>
      </trkpt>
      <trkpt lat="43.50017" lon="6.81033">
        <ele>404</ele>
        <time>2013-09-18T11:53:41.000Z</time>
      </trkpt>
      <trkpt lat="43.50019" lon="6.81034">
        <ele>404</ele>
        <time>2013-09-18T11:53:43.000Z</time>
      </trkpt>
      <trkpt lat="43.50021" lon="6.81034">
        <ele>404</ele>
        <time>2013-09-18T11:53:44.000Z</time>
      </trkpt>
      <trkpt lat="43.50022" lon="6.81034">
        <ele>405</ele>
        <time>2013-09-18T11:53:45.000Z</time>
      </trkpt>
      <trkpt lat="43.50023" lon="6.81035">
        <ele>405</ele>
        <time>2013-09-18T11:53:46.000Z</time>
      </trkpt>
      <trkpt lat="43.50024" lon="6.81035">
        <ele>405</ele>
        <time>2013-09-18T11:53:47.000Z</time>
      </trkpt>
      <trkpt lat="43.50026" lon="6.81035">
        <ele>405</ele>
        <time>2013-09-18T11:53:48.000Z</time>
      </trkpt>
      <trkpt lat="43.50027" lon="6.81035">
        <ele>405</ele>
        <time>2013-09-18T11:53:49.000Z</time>
      </trkpt>
      <trkpt lat="43.50028" lon="6.81035">
        <ele>405</ele>
        <time>2013-09-18T11:53:50.000Z</time>
      </trkpt>
      <trkpt lat="43.50029" lon="6.81035">
        <ele>405</ele>
        <time>2013-09-18T11:53:51.000Z</time>
      </trkpt>
      <trkpt lat="43.5003" lon="6.81035">
        <ele>405</ele>
        <time>2013-09-18T11:53:52.000Z</time>
      </trkpt>
      <trkpt lat="43.50032" lon="6.81035">
        <ele>405</ele>
        <time>2013-09-18T11:53:53.000Z</time>
      </trkpt>
      <trkpt lat="43.50033" lon="6.81035">
        <ele>405</ele>
        <time>2013-09-18T11:53:54.000Z</time>
      </trkpt>
      <trkpt lat="43.50034" lon="6.81035">
        <ele>406</ele>
        <time>2013-09-18T11:53:55.000Z</time>
      </trkpt>
      <trkpt lat="43.50035" lon="6.81036">
        <ele>406</ele>
        <time>2013-09-18T11:53:56.000Z</time>
      </trkpt>
      <trkpt lat="43.50037" lon="6.81036">
        <ele>406</ele>
        <time>2013-09-18T11:53:57.000Z</time>
      </trkpt>
      <trkpt lat="43.50039" lon="6.81036">
        <ele>406</ele>
        <time>2013-09-18T11:53:59.000Z</time>
      </trkpt>
      <trkpt lat="43.50042" lon="6.81036">
        <ele>406</ele>
        <time>2013-09-18T11:54:01.000Z</time>
      </trkpt>
      <trkpt lat="43.50043" lon="6.81036">
        <ele>406</ele>
        <time>2013-09-18T11:54:02.000Z</time>
      </trkpt>
      <trkpt lat="43.50044" lon="6.81036">
        <ele>406</ele>
        <time>2013-09-18T11:54:03.000Z</time>
      </trkpt>
      <trkpt lat="43.50047" lon="6.81036">
        <ele>407</ele>
        <time>2013-09-18T11:54:06.000Z</time>
      </trkpt>
      <trkpt lat="43.50052" lon="6.81036">
        <ele>407</ele>
        <time>2013-09-18T11:54:10.000Z</time>
      </trkpt>
      <trkpt lat="43.50056" lon="6.81036">
        <ele>407</ele>
        <time>2013-09-18T11:54:13.000Z</time>
      </trkpt>
      <trkpt lat="43.50057" lon="6.81036">
        <ele>407</ele>
        <time>2013-09-18T11:54:14.000Z</time>
      </trkpt>
      <trkpt lat="43.50058" lon="6.81035">
        <ele>407</ele>
        <time>2013-09-18T11:54:15.000Z</time>
      </trkpt>
      <trkpt lat="43.50059" lon="6.81035">
        <ele>407</ele>
        <time>2013-09-18T11:54:16.000Z</time>
      </trkpt>
      <trkpt lat="43.5006" lon="6.81034">
        <ele>407</ele>
        <time>2013-09-18T11:54:17.000Z</time>
      </trkpt>
      <trkpt lat="43.50061" lon="6.81034">
        <ele>407</ele>
        <time>2013-09-18T11:54:18.000Z</time>
      </trkpt>
      <trkpt lat="43.50062" lon="6.81033">
        <ele>407</ele>
        <time>2013-09-18T11:54:19.000Z</time>
      </trkpt>
      <trkpt lat="43.50063" lon="6.81033">
        <ele>407</ele>
        <time>2013-09-18T11:54:20.000Z</time>
      </trkpt>
      <trkpt lat="43.50064" lon="6.81032">
        <ele>407</ele>
        <time>2013-09-18T11:54:21.000Z</time>
      </trkpt>
      <trkpt lat="43.50065" lon="6.81031">
        <ele>407</ele>
        <time>2013-09-18T11:54:22.000Z</time>
      </trkpt>
      <trkpt lat="43.50066" lon="6.81031">
        <ele>407</ele>
        <time>2013-09-18T11:54:23.000Z</time>
      </trkpt>
      <trkpt lat="43.50067" lon="6.81031">
        <ele>407</ele>
        <time>2013-09-18T11:54:24.000Z</time>
      </trkpt>
      <trkpt lat="43.50069" lon="6.8103">
        <ele>407</ele>
        <time>2013-09-18T11:54:25.000Z</time>
      </trkpt>
      <trkpt lat="43.5007" lon="6.8103">
        <ele>407</ele>
        <time>2013-09-18T11:54:26.000Z</time>
      </trkpt>
      <trkpt lat="43.50071" lon="6.81029">
        <ele>407</ele>
        <time>2013-09-18T11:54:27.000Z</time>
      </trkpt>
      <trkpt lat="43.50072" lon="6.81028">
        <ele>406</ele>
        <time>2013-09-18T11:54:28.000Z</time>
      </trkpt>
      <trkpt lat="43.50073" lon="6.81028">
        <ele>406</ele>
        <time>2013-09-18T11:54:29.000Z</time>
      </trkpt>
      <trkpt lat="43.50075" lon="6.81027">
        <ele>406</ele>
        <time>2013-09-18T11:54:30.000Z</time>
      </trkpt>
      <trkpt lat="43.50076" lon="6.81027">
        <ele>406</ele>
        <time>2013-09-18T11:54:31.000Z</time>
      </trkpt>
      <trkpt lat="43.50077" lon="6.81027">
        <ele>406</ele>
        <time>2013-09-18T11:54:32.000Z</time>
      </trkpt>
      <trkpt lat="43.50078" lon="6.81026">
        <ele>406</ele>
        <time>2013-09-18T11:54:33.000Z</time>
      </trkpt>
      <trkpt lat="43.5008" lon="6.81025">
        <ele>406</ele>
        <time>2013-09-18T11:54:34.000Z</time>
      </trkpt>
      <trkpt lat="43.50081" lon="6.81025">
        <ele>406</ele>
        <time>2013-09-18T11:54:35.000Z</time>
      </trkpt>
      <trkpt lat="43.50082" lon="6.81025">
        <ele>406</ele>
        <time>2013-09-18T11:54:36.000Z</time>
      </trkpt>
      <trkpt lat="43.50083" lon="6.81024">
        <ele>406</ele>
        <time>2013-09-18T11:54:37.000Z</time>
      </trkpt>
      <trkpt lat="43.50084" lon="6.81023">
        <ele>415</ele>
        <time>2013-09-18T11:54:38.000Z</time>
      </trkpt>
      <trkpt lat="43.50085" lon="6.81022">
        <ele>414</ele>
        <time>2013-09-18T11:54:39.000Z</time>
      </trkpt>
      <trkpt lat="43.50085" lon="6.81021">
        <ele>414</ele>
        <time>2013-09-18T11:54:40.000Z</time>
      </trkpt>
      <trkpt lat="43.50086" lon="6.81021">
        <ele>414</ele>
        <time>2013-09-18T11:54:41.000Z</time>
      </trkpt>
      <trkpt lat="43.50087" lon="6.8102">
        <ele>414</ele>
        <time>2013-09-18T11:54:42.000Z</time>
      </trkpt>
      <trkpt lat="43.50089" lon="6.81019">
        <ele>413</ele>
        <time>2013-09-18T11:54:43.000Z</time>
      </trkpt>
      <trkpt lat="43.5009" lon="6.81018">
        <ele>413</ele>
        <time>2013-09-18T11:54:44.000Z</time>
      </trkpt>
      <trkpt lat="43.50091" lon="6.81018">
        <ele>413</ele>
        <time>2013-09-18T11:54:45.000Z</time>
      </trkpt>
      <trkpt lat="43.50093" lon="6.81017">
        <ele>413</ele>
        <time>2013-09-18T11:54:46.000Z</time>
      </trkpt>
      <trkpt lat="43.50094" lon="6.81017">
        <ele>413</ele>
        <time>2013-09-18T11:54:47.000Z</time>
      </trkpt>
      <trkpt lat="43.50095" lon="6.81016">
        <ele>413</ele>
        <time>2013-09-18T11:54:48.000Z</time>
      </trkpt>
      <trkpt lat="43.50096" lon="6.81016">
        <ele>414</ele>
        <time>2013-09-18T11:54:49.000Z</time>
      </trkpt>
      <trkpt lat="43.50097" lon="6.81015">
        <ele>414</ele>
        <time>2013-09-18T11:54:50.000Z</time>
      </trkpt>
      <trkpt lat="43.50098" lon="6.81014">
        <ele>414</ele>
        <time>2013-09-18T11:54:51.000Z</time>
      </trkpt>
      <trkpt lat="43.50099" lon="6.81014">
        <ele>414</ele>
        <time>2013-09-18T11:54:52.000Z</time>
      </trkpt>
      <trkpt lat="43.50101" lon="6.81014">
        <ele>414</ele>
        <time>2013-09-18T11:54:53.000Z</time>
      </trkpt>
      <trkpt lat="43.50102" lon="6.81013">
        <ele>415</ele>
        <time>2013-09-18T11:54:54.000Z</time>
      </trkpt>
      <trkpt lat="43.50103" lon="6.81013">
        <ele>415</ele>
        <time>2013-09-18T11:54:55.000Z</time>
      </trkpt>
      <trkpt lat="43.50104" lon="6.81013">
        <ele>415</ele>
        <time>2013-09-18T11:54:56.000Z</time>
      </trkpt>
      <trkpt lat="43.50106" lon="6.81012">
        <ele>415</ele>
        <time>2013-09-18T11:54:57.000Z</time>
      </trkpt>
      <trkpt lat="43.50107" lon="6.81012">
        <ele>416</ele>
        <time>2013-09-18T11:54:58.000Z</time>
      </trkpt>
      <trkpt lat="43.50108" lon="6.81012">
        <ele>416</ele>
        <time>2013-09-18T11:54:59.000Z</time>
      </trkpt>
      <trkpt lat="43.50109" lon="6.81011">
        <ele>416</ele>
        <time>2013-09-18T11:55:00.000Z</time>
      </trkpt>
      <trkpt lat="43.5011" lon="6.81011">
        <ele>416</ele>
        <time>2013-09-18T11:55:01.000Z</time>
      </trkpt>
      <trkpt lat="43.50112" lon="6.81011">
        <ele>417</ele>
        <time>2013-09-18T11:55:02.000Z</time>
      </trkpt>
      <trkpt lat="43.50113" lon="6.8101">
        <ele>417</ele>
        <time>2013-09-18T11:55:03.000Z</time>
      </trkpt>
      <trkpt lat="43.50114" lon="6.81009">
        <ele>417</ele>
        <time>2013-09-18T11:55:04.000Z</time>
      </trkpt>
      <trkpt lat="43.50115" lon="6.81009">
        <ele>417</ele>
        <time>2013-09-18T11:55:05.000Z</time>
      </trkpt>
      <trkpt lat="43.50116" lon="6.81008">
        <ele>417</ele>
        <time>2013-09-18T11:55:06.000Z</time>
      </trkpt>
      <trkpt lat="43.50117" lon="6.81008">
        <ele>418</ele>
        <time>2013-09-18T11:55:07.000Z</time>
      </trkpt>
      <trkpt lat="43.50118" lon="6.81007">
        <ele>418</ele>
        <time>2013-09-18T11:55:08.000Z</time>
      </trkpt>
      <trkpt lat="43.50119" lon="6.81007">
        <ele>418</ele>
        <time>2013-09-18T11:55:09.000Z</time>
      </trkpt>
      <trkpt lat="43.5012" lon="6.81006">
        <ele>418</ele>
        <time>2013-09-18T11:55:10.000Z</time>
      </trkpt>
      <trkpt lat="43.50121" lon="6.81005">
        <ele>418</ele>
        <time>2013-09-18T11:55:11.000Z</time>
      </trkpt>
      <trkpt lat="43.50122" lon="6.81005">
        <ele>419</ele>
        <time>2013-09-18T11:55:12.000Z</time>
      </trkpt>
      <trkpt lat="43.50124" lon="6.81004">
        <ele>419</ele>
        <time>2013-09-18T11:55:13.000Z</time>
      </trkpt>
      <trkpt lat="43.50125" lon="6.81004">
        <ele>419</ele>
        <time>2013-09-18T11:55:14.000Z</time>
      </trkpt>
      <trkpt lat="43.50126" lon="6.81003">
        <ele>419</ele>
        <time>2013-09-18T11:55:15.000Z</time>
      </trkpt>
      <trkpt lat="43.50127" lon="6.81003">
        <ele>419</ele>
        <time>2013-09-18T11:55:16.000Z</time>
      </trkpt>
      <trkpt lat="43.50128" lon="6.81002">
        <ele>419</ele>
        <time>2013-09-18T11:55:17.000Z</time>
      </trkpt>
      <trkpt lat="43.50129" lon="6.81002">
        <ele>419</ele>
        <time>2013-09-18T11:55:18.000Z</time>
      </trkpt>
      <trkpt lat="43.5013" lon="6.81001">
        <ele>420</ele>
        <time>2013-09-18T11:55:19.000Z</time>
      </trkpt>
      <trkpt lat="43.50132" lon="6.81001">
        <ele>420</ele>
        <time>2013-09-18T11:55:20.000Z</time>
      </trkpt>
      <trkpt lat="43.50133" lon="6.81">
        <ele>420</ele>
        <time>2013-09-18T11:55:21.000Z</time>
      </trkpt>
      <trkpt lat="43.50134" lon="6.81">
        <ele>403</ele>
        <time>2013-09-18T11:55:22.000Z</time>
      </trkpt>
      <trkpt lat="43.50135" lon="6.81">
        <ele>404</ele>
        <time>2013-09-18T11:55:23.000Z</time>
      </trkpt>
      <trkpt lat="43.50136" lon="6.80999">
        <ele>404</ele>
        <time>2013-09-18T11:55:24.000Z</time>
      </trkpt>
      <trkpt lat="43.50137" lon="6.80999">
        <ele>404</ele>
        <time>2013-09-18T11:55:25.000Z</time>
      </trkpt>
      <trkpt lat="43.50138" lon="6.80998">
        <ele>404</ele>
        <time>2013-09-18T11:55:26.000Z</time>
      </trkpt>
      <trkpt lat="43.5014" lon="6.80998">
        <ele>405</ele>
        <time>2013-09-18T11:55:27.000Z</time>
      </trkpt>
      <trkpt lat="43.50141" lon="6.80997">
        <ele>405</ele>
        <time>2013-09-18T11:55:28.000Z</time>
      </trkpt>
      <trkpt lat="43.50142" lon="6.80997">
        <ele>405</ele>
        <time>2013-09-18T11:55:29.000Z</time>
      </trkpt>
      <trkpt lat="43.50143" lon="6.80996">
        <ele>406</ele>
        <time>2013-09-18T11:55:30.000Z</time>
      </trkpt>
      <trkpt lat="43.50144" lon="6.80996">
        <ele>406</ele>
        <time>2013-09-18T11:55:31.000Z</time>
      </trkpt>
      <trkpt lat="43.50145" lon="6.80995">
        <ele>406</ele>
        <time>2013-09-18T11:55:32.000Z</time>
      </trkpt>
      <trkpt lat="43.50146" lon="6.80995">
        <ele>407</ele>
        <time>2013-09-18T11:55:33.000Z</time>
      </trkpt>
      <trkpt lat="43.50147" lon="6.80994">
        <ele>407</ele>
        <time>2013-09-18T11:55:34.000Z</time>
      </trkpt>
      <trkpt lat="43.50149" lon="6.80994">
        <ele>407</ele>
        <time>2013-09-18T11:55:35.000Z</time>
      </trkpt>
      <trkpt lat="43.5015" lon="6.80994">
        <ele>408</ele>
        <time>2013-09-18T11:55:36.000Z</time>
      </trkpt>
      <trkpt lat="43.50151" lon="6.80993">
        <ele>408</ele>
        <time>2013-09-18T11:55:37.000Z</time>
      </trkpt>
      <trkpt lat="43.50152" lon="6.80993">
        <ele>408</ele>
        <time>2013-09-18T11:55:38.000Z</time>
      </trkpt>
      <trkpt lat="43.50153" lon="6.80993">
        <ele>409</ele>
        <time>2013-09-18T11:55:39.000Z</time>
      </trkpt>
      <trkpt lat="43.50154" lon="6.80992">
        <ele>409</ele>
        <time>2013-09-18T11:55:40.000Z</time>
      </trkpt>
      <trkpt lat="43.50155" lon="6.80992">
        <ele>409</ele>
        <time>2013-09-18T11:55:41.000Z</time>
      </trkpt>
      <trkpt lat="43.50157" lon="6.80991">
        <ele>410</ele>
        <time>2013-09-18T11:55:42.000Z</time>
      </trkpt>
      <trkpt lat="43.50158" lon="6.80991">
        <ele>410</ele>
        <time>2013-09-18T11:55:43.000Z</time>
      </trkpt>
      <trkpt lat="43.50159" lon="6.80991">
        <ele>410</ele>
        <time>2013-09-18T11:55:44.000Z</time>
      </trkpt>
      <trkpt lat="43.5016" lon="6.8099">
        <ele>410</ele>
        <time>2013-09-18T11:55:45.000Z</time>
      </trkpt>
      <trkpt lat="43.50161" lon="6.8099">
        <ele>411</ele>
        <time>2013-09-18T11:55:46.000Z</time>
      </trkpt>
      <trkpt lat="43.50162" lon="6.8099">
        <ele>411</ele>
        <time>2013-09-18T11:55:47.000Z</time>
      </trkpt>
      <trkpt lat="43.50163" lon="6.8099">
        <ele>411</ele>
        <time>2013-09-18T11:55:48.000Z</time>
      </trkpt>
      <trkpt lat="43.50165" lon="6.80989">
        <ele>411</ele>
        <time>2013-09-18T11:55:49.000Z</time>
      </trkpt>
      <trkpt lat="43.50166" lon="6.80989">
        <ele>411</ele>
        <time>2013-09-18T11:55:50.000Z</time>
      </trkpt>
      <trkpt lat="43.50167" lon="6.80989">
        <ele>416</ele>
        <time>2013-09-18T11:55:51.000Z</time>
      </trkpt>
      <trkpt lat="43.50168" lon="6.80989">
        <ele>416</ele>
        <time>2013-09-18T11:55:52.000Z</time>
      </trkpt>
      <trkpt lat="43.50169" lon="6.80988">
        <ele>416</ele>
        <time>2013-09-18T11:55:53.000Z</time>
      </trkpt>
      <trkpt lat="43.5017" lon="6.80988">
        <ele>416</ele>
        <time>2013-09-18T11:55:54.000Z</time>
      </trkpt>
      <trkpt lat="43.50171" lon="6.80988">
        <ele>416</ele>
        <time>2013-09-18T11:55:55.000Z</time>
      </trkpt>
      <trkpt lat="43.50172" lon="6.80987">
        <ele>416</ele>
        <time>2013-09-18T11:55:56.000Z</time>
      </trkpt>
      <trkpt lat="43.50174" lon="6.80987">
        <ele>416</ele>
        <time>2013-09-18T11:55:57.000Z</time>
      </trkpt>
      <trkpt lat="43.50175" lon="6.80987">
        <ele>415</ele>
        <time>2013-09-18T11:55:58.000Z</time>
      </trkpt>
      <trkpt lat="43.50176" lon="6.80986">
        <ele>415</ele>
        <time>2013-09-18T11:55:59.000Z</time>
      </trkpt>
      <trkpt lat="43.50177" lon="6.80986">
        <ele>415</ele>
        <time>2013-09-18T11:56:00.000Z</time>
      </trkpt>
      <trkpt lat="43.50178" lon="6.80985">
        <ele>415</ele>
        <time>2013-09-18T11:56:01.000Z</time>
      </trkpt>
      <trkpt lat="43.50179" lon="6.80985">
        <ele>415</ele>
        <time>2013-09-18T11:56:02.000Z</time>
      </trkpt>
      <trkpt lat="43.50181" lon="6.80985">
        <ele>415</ele>
        <time>2013-09-18T11:56:03.000Z</time>
      </trkpt>
      <trkpt lat="43.50182" lon="6.80984">
        <ele>415</ele>
        <time>2013-09-18T11:56:04.000Z</time>
      </trkpt>
      <trkpt lat="43.50183" lon="6.80984">
        <ele>415</ele>
        <time>2013-09-18T11:56:05.000Z</time>
      </trkpt>
      <trkpt lat="43.50184" lon="6.80984">
        <ele>415</ele>
        <time>2013-09-18T11:56:06.000Z</time>
      </trkpt>
      <trkpt lat="43.50185" lon="6.80984">
        <ele>415</ele>
        <time>2013-09-18T11:56:07.000Z</time>
      </trkpt>
      <trkpt lat="43.50188" lon="6.80983">
        <ele>415</ele>
        <time>2013-09-18T11:56:09.000Z</time>
      </trkpt>
      <trkpt lat="43.50189" lon="6.80983">
        <ele>415</ele>
        <time>2013-09-18T11:56:10.000Z</time>
      </trkpt>
      <trkpt lat="43.5019" lon="6.80983">
        <ele>415</ele>
        <time>2013-09-18T11:56:11.000Z</time>
      </trkpt>
      <trkpt lat="43.50191" lon="6.80983">
        <ele>415</ele>
        <time>2013-09-18T11:56:12.000Z</time>
      </trkpt>
      <trkpt lat="43.50192" lon="6.80982">
        <ele>415</ele>
        <time>2013-09-18T11:56:13.000Z</time>
      </trkpt>
      <trkpt lat="43.50193" lon="6.80982">
        <ele>415</ele>
        <time>2013-09-18T11:56:14.000Z</time>
      </trkpt>
      <trkpt lat="43.50195" lon="6.80982">
        <ele>415</ele>
        <time>2013-09-18T11:56:15.000Z</time>
      </trkpt>
      <trkpt lat="43.50196" lon="6.80981">
        <ele>415</ele>
        <time>2013-09-18T11:56:16.000Z</time>
      </trkpt>
      <trkpt lat="43.50197" lon="6.80981">
        <ele>415</ele>
        <time>2013-09-18T11:56:17.000Z</time>
      </trkpt>
      <trkpt lat="43.50198" lon="6.8098">
        <ele>415</ele>
        <time>2013-09-18T11:56:18.000Z</time>
      </trkpt>
      <trkpt lat="43.50199" lon="6.8098">
        <ele>415</ele>
        <time>2013-09-18T11:56:19.000Z</time>
      </trkpt>
      <trkpt lat="43.502" lon="6.8098">
        <ele>415</ele>
        <time>2013-09-18T11:56:20.000Z</time>
      </trkpt>
      <trkpt lat="43.50202" lon="6.8098">
        <ele>415</ele>
        <time>2013-09-18T11:56:21.000Z</time>
      </trkpt>
      <trkpt lat="43.50203" lon="6.80979">
        <ele>415</ele>
        <time>2013-09-18T11:56:22.000Z</time>
      </trkpt>
      <trkpt lat="43.50204" lon="6.80979">
        <ele>415</ele>
        <time>2013-09-18T11:56:23.000Z</time>
      </trkpt>
      <trkpt lat="43.50205" lon="6.80978">
        <ele>415</ele>
        <time>2013-09-18T11:56:24.000Z</time>
      </trkpt>
      <trkpt lat="43.50206" lon="6.80978">
        <ele>415</ele>
        <time>2013-09-18T11:56:25.000Z</time>
      </trkpt>
      <trkpt lat="43.50208" lon="6.80978">
        <ele>415</ele>
        <time>2013-09-18T11:56:26.000Z</time>
      </trkpt>
      <trkpt lat="43.50209" lon="6.80977">
        <ele>415</ele>
        <time>2013-09-18T11:56:27.000Z</time>
      </trkpt>
      <trkpt lat="43.5021" lon="6.80977">
        <ele>415</ele>
        <time>2013-09-18T11:56:28.000Z</time>
      </trkpt>
      <trkpt lat="43.50211" lon="6.80976">
        <ele>415</ele>
        <time>2013-09-18T11:56:29.000Z</time>
      </trkpt>
      <trkpt lat="43.50213" lon="6.80976">
        <ele>415</ele>
        <time>2013-09-18T11:56:30.000Z</time>
      </trkpt>
      <trkpt lat="43.50214" lon="6.80976">
        <ele>416</ele>
        <time>2013-09-18T11:56:31.000Z</time>
      </trkpt>
      <trkpt lat="43.50215" lon="6.80975">
        <ele>416</ele>
        <time>2013-09-18T11:56:32.000Z</time>
      </trkpt>
      <trkpt lat="43.50216" lon="6.80975">
        <ele>416</ele>
        <time>2013-09-18T11:56:33.000Z</time>
      </trkpt>
      <trkpt lat="43.50217" lon="6.80974">
        <ele>416</ele>
        <time>2013-09-18T11:56:34.000Z</time>
      </trkpt>
      <trkpt lat="43.50219" lon="6.80974">
        <ele>416</ele>
        <time>2013-09-18T11:56:35.000Z</time>
      </trkpt>
      <trkpt lat="43.5022" lon="6.80974">
        <ele>416</ele>
        <time>2013-09-18T11:56:36.000Z</time>
      </trkpt>
      <trkpt lat="43.50221" lon="6.80973">
        <ele>416</ele>
        <time>2013-09-18T11:56:37.000Z</time>
      </trkpt>
      <trkpt lat="43.50222" lon="6.80973">
        <ele>416</ele>
        <time>2013-09-18T11:56:38.000Z</time>
      </trkpt>
      <trkpt lat="43.50224" lon="6.80973">
        <ele>416</ele>
        <time>2013-09-18T11:56:39.000Z</time>
      </trkpt>
      <trkpt lat="43.50225" lon="6.80973">
        <ele>416</ele>
        <time>2013-09-18T11:56:40.000Z</time>
      </trkpt>
      <trkpt lat="43.50226" lon="6.80972">
        <ele>417</ele>
        <time>2013-09-18T11:56:41.000Z</time>
      </trkpt>
      <trkpt lat="43.50227" lon="6.80972">
        <ele>417</ele>
        <time>2013-09-18T11:56:42.000Z</time>
      </trkpt>
      <trkpt lat="43.5023" lon="6.80972">
        <ele>417</ele>
        <time>2013-09-18T11:56:44.000Z</time>
      </trkpt>
      <trkpt lat="43.50231" lon="6.80971">
        <ele>417</ele>
        <time>2013-09-18T11:56:45.000Z</time>
      </trkpt>
      <trkpt lat="43.50232" lon="6.80971">
        <ele>417</ele>
        <time>2013-09-18T11:56:46.000Z</time>
      </trkpt>
      <trkpt lat="43.50234" lon="6.80971">
        <ele>417</ele>
        <time>2013-09-18T11:56:48.000Z</time>
      </trkpt>
      <trkpt lat="43.50236" lon="6.8097">
        <ele>417</ele>
        <time>2013-09-18T11:56:49.000Z</time>
      </trkpt>
      <trkpt lat="43.50237" lon="6.80969">
        <ele>417</ele>
        <time>2013-09-18T11:56:50.000Z</time>
      </trkpt>
      <trkpt lat="43.50238" lon="6.80969">
        <ele>417</ele>
        <time>2013-09-18T11:56:51.000Z</time>
      </trkpt>
      <trkpt lat="43.50239" lon="6.80968">
        <ele>417</ele>
        <time>2013-09-18T11:56:52.000Z</time>
      </trkpt>
      <trkpt lat="43.5024" lon="6.80968">
        <ele>417</ele>
        <time>2013-09-18T11:56:53.000Z</time>
      </trkpt>
      <trkpt lat="43.50241" lon="6.80968">
        <ele>417</ele>
        <time>2013-09-18T11:56:54.000Z</time>
      </trkpt>
      <trkpt lat="43.50243" lon="6.80967">
        <ele>417</ele>
        <time>2013-09-18T11:56:55.000Z</time>
      </trkpt>
      <trkpt lat="43.50244" lon="6.80966">
        <ele>417</ele>
        <time>2013-09-18T11:56:56.000Z</time>
      </trkpt>
      <trkpt lat="43.50244" lon="6.80966">
        <ele>417</ele>
        <time>2013-09-18T11:56:57.000Z</time>
      </trkpt>
      <trkpt lat="43.50245" lon="6.80965">
        <ele>417</ele>
        <time>2013-09-18T11:56:58.000Z</time>
      </trkpt>
      <trkpt lat="43.50246" lon="6.80965">
        <ele>416</ele>
        <time>2013-09-18T11:56:59.000Z</time>
      </trkpt>
      <trkpt lat="43.50248" lon="6.80964">
        <ele>416</ele>
        <time>2013-09-18T11:57:00.000Z</time>
      </trkpt>
      <trkpt lat="43.50249" lon="6.80964">
        <ele>416</ele>
        <time>2013-09-18T11:57:01.000Z</time>
      </trkpt>
      <trkpt lat="43.5025" lon="6.80964">
        <ele>417</ele>
        <time>2013-09-18T11:57:02.000Z</time>
      </trkpt>
      <trkpt lat="43.50253" lon="6.80964">
        <ele>424</ele>
        <time>2013-09-18T11:57:04.000Z</time>
      </trkpt>
      <trkpt lat="43.50254" lon="6.80964">
        <ele>424</ele>
        <time>2013-09-18T11:57:05.000Z</time>
      </trkpt>
      <trkpt lat="43.50255" lon="6.80964">
        <ele>424</ele>
        <time>2013-09-18T11:57:06.000Z</time>
      </trkpt>
      <trkpt lat="43.50256" lon="6.80963">
        <ele>423</ele>
        <time>2013-09-18T11:57:07.000Z</time>
      </trkpt>
      <trkpt lat="43.50257" lon="6.80963">
        <ele>423</ele>
        <time>2013-09-18T11:57:08.000Z</time>
      </trkpt>
      <trkpt lat="43.50258" lon="6.80962">
        <ele>423</ele>
        <time>2013-09-18T11:57:09.000Z</time>
      </trkpt>
      <trkpt lat="43.50259" lon="6.80962">
        <ele>423</ele>
        <time>2013-09-18T11:57:10.000Z</time>
      </trkpt>
      <trkpt lat="43.5026" lon="6.80961">
        <ele>423</ele>
        <time>2013-09-18T11:57:11.000Z</time>
      </trkpt>
      <trkpt lat="43.50261" lon="6.8096">
        <ele>423</ele>
        <time>2013-09-18T11:57:12.000Z</time>
      </trkpt>
      <trkpt lat="43.50263" lon="6.8096">
        <ele>423</ele>
        <time>2013-09-18T11:57:13.000Z</time>
      </trkpt>
      <trkpt lat="43.50264" lon="6.8096">
        <ele>423</ele>
        <time>2013-09-18T11:57:14.000Z</time>
      </trkpt>
      <trkpt lat="43.50265" lon="6.8096">
        <ele>423</ele>
        <time>2013-09-18T11:57:15.000Z</time>
      </trkpt>
      <trkpt lat="43.50266" lon="6.80959">
        <ele>423</ele>
        <time>2013-09-18T11:57:16.000Z</time>
      </trkpt>
      <trkpt lat="43.50267" lon="6.80959">
        <ele>423</ele>
        <time>2013-09-18T11:57:17.000Z</time>
      </trkpt>
      <trkpt lat="43.50268" lon="6.80958">
        <ele>422</ele>
        <time>2013-09-18T11:57:18.000Z</time>
      </trkpt>
      <trkpt lat="43.50269" lon="6.80958">
        <ele>422</ele>
        <time>2013-09-18T11:57:19.000Z</time>
      </trkpt>
      <trkpt lat="43.5027" lon="6.80957">
        <ele>422</ele>
        <time>2013-09-18T11:57:20.000Z</time>
      </trkpt>
      <trkpt lat="43.50272" lon="6.80957">
        <ele>422</ele>
        <time>2013-09-18T11:57:21.000Z</time>
      </trkpt>
      <trkpt lat="43.50273" lon="6.80956">
        <ele>422</ele>
        <time>2013-09-18T11:57:22.000Z</time>
      </trkpt>
      <trkpt lat="43.50274" lon="6.80956">
        <ele>422</ele>
        <time>2013-09-18T11:57:23.000Z</time>
      </trkpt>
      <trkpt lat="43.50275" lon="6.80956">
        <ele>422</ele>
        <time>2013-09-18T11:57:24.000Z</time>
      </trkpt>
      <trkpt lat="43.50276" lon="6.80955">
        <ele>422</ele>
        <time>2013-09-18T11:57:25.000Z</time>
      </trkpt>
      <trkpt lat="43.50277" lon="6.80955">
        <ele>422</ele>
        <time>2013-09-18T11:57:26.000Z</time>
      </trkpt>
      <trkpt lat="43.50278" lon="6.80955">
        <ele>422</ele>
        <time>2013-09-18T11:57:27.000Z</time>
      </trkpt>
      <trkpt lat="43.5028" lon="6.80954">
        <ele>422</ele>
        <time>2013-09-18T11:57:28.000Z</time>
      </trkpt>
      <trkpt lat="43.50281" lon="6.80954">
        <ele>422</ele>
        <time>2013-09-18T11:57:29.000Z</time>
      </trkpt>
      <trkpt lat="43.50282" lon="6.80954">
        <ele>422</ele>
        <time>2013-09-18T11:57:30.000Z</time>
      </trkpt>
      <trkpt lat="43.50284" lon="6.80954">
        <ele>422</ele>
        <time>2013-09-18T11:57:32.000Z</time>
      </trkpt>
      <trkpt lat="43.50286" lon="6.80954">
        <ele>422</ele>
        <time>2013-09-18T11:57:33.000Z</time>
      </trkpt>
      <trkpt lat="43.50288" lon="6.80953">
        <ele>422</ele>
        <time>2013-09-18T11:57:35.000Z</time>
      </trkpt>
      <trkpt lat="43.50289" lon="6.80953">
        <ele>422</ele>
        <time>2013-09-18T11:57:36.000Z</time>
      </trkpt>
      <trkpt lat="43.50292" lon="6.80953">
        <ele>422</ele>
        <time>2013-09-18T11:57:38.000Z</time>
      </trkpt>
      <trkpt lat="43.50293" lon="6.80953">
        <ele>422</ele>
        <time>2013-09-18T11:57:39.000Z</time>
      </trkpt>
      <trkpt lat="43.50294" lon="6.80953">
        <ele>422</ele>
        <time>2013-09-18T11:57:40.000Z</time>
      </trkpt>
      <trkpt lat="43.50295" lon="6.80953">
        <ele>422</ele>
        <time>2013-09-18T11:57:41.000Z</time>
      </trkpt>
      <trkpt lat="43.50297" lon="6.80953">
        <ele>422</ele>
        <time>2013-09-18T11:57:42.000Z</time>
      </trkpt>
      <trkpt lat="43.50298" lon="6.80953">
        <ele>423</ele>
        <time>2013-09-18T11:57:43.000Z</time>
      </trkpt>
      <trkpt lat="43.50299" lon="6.80953">
        <ele>423</ele>
        <time>2013-09-18T11:57:44.000Z</time>
      </trkpt>
      <trkpt lat="43.50301" lon="6.80954">
        <ele>423</ele>
        <time>2013-09-18T11:57:45.000Z</time>
      </trkpt>
      <trkpt lat="43.50302" lon="6.80954">
        <ele>423</ele>
        <time>2013-09-18T11:57:46.000Z</time>
      </trkpt>
      <trkpt lat="43.50304" lon="6.80953">
        <ele>423</ele>
        <time>2013-09-18T11:57:48.000Z</time>
      </trkpt>
      <trkpt lat="43.50306" lon="6.80953">
        <ele>423</ele>
        <time>2013-09-18T11:57:49.000Z</time>
      </trkpt>
      <trkpt lat="43.50307" lon="6.80953">
        <ele>423</ele>
        <time>2013-09-18T11:57:50.000Z</time>
      </trkpt>
      <trkpt lat="43.50312" lon="6.80953">
        <ele>423</ele>
        <time>2013-09-18T11:57:54.000Z</time>
      </trkpt>
      <trkpt lat="43.50314" lon="6.80953">
        <ele>423</ele>
        <time>2013-09-18T11:57:56.000Z</time>
      </trkpt>
      <trkpt lat="43.50315" lon="6.80954">
        <ele>423</ele>
        <time>2013-09-18T11:57:57.000Z</time>
      </trkpt>
      <trkpt lat="43.50317" lon="6.80954">
        <ele>423</ele>
        <time>2013-09-18T11:57:59.000Z</time>
      </trkpt>
      <trkpt lat="43.50319" lon="6.80954">
        <ele>423</ele>
        <time>2013-09-18T11:58:00.000Z</time>
      </trkpt>
      <trkpt lat="43.5032" lon="6.80954">
        <ele>423</ele>
        <time>2013-09-18T11:58:01.000Z</time>
      </trkpt>
      <trkpt lat="43.50322" lon="6.80955">
        <ele>424</ele>
        <time>2013-09-18T11:58:03.000Z</time>
      </trkpt>
      <trkpt lat="43.50324" lon="6.80955">
        <ele>424</ele>
        <time>2013-09-18T11:58:04.000Z</time>
      </trkpt>
      <trkpt lat="43.50325" lon="6.80956">
        <ele>424</ele>
        <time>2013-09-18T11:58:05.000Z</time>
      </trkpt>
      <trkpt lat="43.50326" lon="6.80956">
        <ele>424</ele>
        <time>2013-09-18T11:58:06.000Z</time>
      </trkpt>
      <trkpt lat="43.50328" lon="6.80956">
        <ele>424</ele>
        <time>2013-09-18T11:58:07.000Z</time>
      </trkpt>
      <trkpt lat="43.50329" lon="6.80957">
        <ele>424</ele>
        <time>2013-09-18T11:58:08.000Z</time>
      </trkpt>
      <trkpt lat="43.5033" lon="6.80957">
        <ele>424</ele>
        <time>2013-09-18T11:58:09.000Z</time>
      </trkpt>
      <trkpt lat="43.50332" lon="6.80957">
        <ele>425</ele>
        <time>2013-09-18T11:58:10.000Z</time>
      </trkpt>
      <trkpt lat="43.50333" lon="6.80958">
        <ele>425</ele>
        <time>2013-09-18T11:58:11.000Z</time>
      </trkpt>
      <trkpt lat="43.50334" lon="6.80958">
        <ele>422</ele>
        <time>2013-09-18T11:58:12.000Z</time>
      </trkpt>
      <trkpt lat="43.50336" lon="6.80958">
        <ele>422</ele>
        <time>2013-09-18T11:58:13.000Z</time>
      </trkpt>
      <trkpt lat="43.50337" lon="6.80959">
        <ele>422</ele>
        <time>2013-09-18T11:58:14.000Z</time>
      </trkpt>
      <trkpt lat="43.50338" lon="6.80959">
        <ele>422</ele>
        <time>2013-09-18T11:58:15.000Z</time>
      </trkpt>
      <trkpt lat="43.50339" lon="6.8096">
        <ele>422</ele>
        <time>2013-09-18T11:58:16.000Z</time>
      </trkpt>
      <trkpt lat="43.5034" lon="6.80961">
        <ele>423</ele>
        <time>2013-09-18T11:58:17.000Z</time>
      </trkpt>
      <trkpt lat="43.50342" lon="6.80961">
        <ele>423</ele>
        <time>2013-09-18T11:58:18.000Z</time>
      </trkpt>
      <trkpt lat="43.50343" lon="6.80962">
        <ele>423</ele>
        <time>2013-09-18T11:58:19.000Z</time>
      </trkpt>
      <trkpt lat="43.50344" lon="6.80962">
        <ele>423</ele>
        <time>2013-09-18T11:58:20.000Z</time>
      </trkpt>
      <trkpt lat="43.50345" lon="6.80963">
        <ele>423</ele>
        <time>2013-09-18T11:58:21.000Z</time>
      </trkpt>
      <trkpt lat="43.50346" lon="6.80964">
        <ele>423</ele>
        <time>2013-09-18T11:58:22.000Z</time>
      </trkpt>
      <trkpt lat="43.50348" lon="6.80964">
        <ele>423</ele>
        <time>2013-09-18T11:58:23.000Z</time>
      </trkpt>
      <trkpt lat="43.50349" lon="6.80965">
        <ele>423</ele>
        <time>2013-09-18T11:58:24.000Z</time>
      </trkpt>
      <trkpt lat="43.5035" lon="6.80966">
        <ele>423</ele>
        <time>2013-09-18T11:58:25.000Z</time>
      </trkpt>
      <trkpt lat="43.50351" lon="6.80967">
        <ele>424</ele>
        <time>2013-09-18T11:58:26.000Z</time>
      </trkpt>
      <trkpt lat="43.50352" lon="6.80967">
        <ele>424</ele>
        <time>2013-09-18T11:58:27.000Z</time>
      </trkpt>
      <trkpt lat="43.50354" lon="6.80968">
        <ele>424</ele>
        <time>2013-09-18T11:58:28.000Z</time>
      </trkpt>
      <trkpt lat="43.50355" lon="6.80969">
        <ele>424</ele>
        <time>2013-09-18T11:58:29.000Z</time>
      </trkpt>
      <trkpt lat="43.50356" lon="6.8097">
        <ele>424</ele>
        <time>2013-09-18T11:58:30.000Z</time>
      </trkpt>
      <trkpt lat="43.50357" lon="6.80971">
        <ele>424</ele>
        <time>2013-09-18T11:58:31.000Z</time>
      </trkpt>
      <trkpt lat="43.50358" lon="6.80971">
        <ele>424</ele>
        <time>2013-09-18T11:58:32.000Z</time>
      </trkpt>
      <trkpt lat="43.50359" lon="6.80972">
        <ele>424</ele>
        <time>2013-09-18T11:58:33.000Z</time>
      </trkpt>
      <trkpt lat="43.50361" lon="6.80973">
        <ele>424</ele>
        <time>2013-09-18T11:58:34.000Z</time>
      </trkpt>
      <trkpt lat="43.50362" lon="6.80973">
        <ele>424</ele>
        <time>2013-09-18T11:58:35.000Z</time>
      </trkpt>
      <trkpt lat="43.50363" lon="6.80974">
        <ele>424</ele>
        <time>2013-09-18T11:58:36.000Z</time>
      </trkpt>
      <trkpt lat="43.50364" lon="6.80975">
        <ele>424</ele>
        <time>2013-09-18T11:58:37.000Z</time>
      </trkpt>
      <trkpt lat="43.50365" lon="6.80976">
        <ele>424</ele>
        <time>2013-09-18T11:58:38.000Z</time>
      </trkpt>
      <trkpt lat="43.50366" lon="6.80977">
        <ele>424</ele>
        <time>2013-09-18T11:58:39.000Z</time>
      </trkpt>
      <trkpt lat="43.50367" lon="6.80977">
        <ele>424</ele>
        <time>2013-09-18T11:58:40.000Z</time>
      </trkpt>
      <trkpt lat="43.50369" lon="6.80978">
        <ele>424</ele>
        <time>2013-09-18T11:58:41.000Z</time>
      </trkpt>
      <trkpt lat="43.5037" lon="6.80979">
        <ele>424</ele>
        <time>2013-09-18T11:58:42.000Z</time>
      </trkpt>
      <trkpt lat="43.50371" lon="6.8098">
        <ele>424</ele>
        <time>2013-09-18T11:58:43.000Z</time>
      </trkpt>
      <trkpt lat="43.50372" lon="6.80981">
        <ele>424</ele>
        <time>2013-09-18T11:58:44.000Z</time>
      </trkpt>
      <trkpt lat="43.50373" lon="6.80982">
        <ele>424</ele>
        <time>2013-09-18T11:58:45.000Z</time>
      </trkpt>
      <trkpt lat="43.50374" lon="6.80983">
        <ele>424</ele>
        <time>2013-09-18T11:58:46.000Z</time>
      </trkpt>
      <trkpt lat="43.50375" lon="6.80984">
        <ele>424</ele>
        <time>2013-09-18T11:58:47.000Z</time>
      </trkpt>
      <trkpt lat="43.50376" lon="6.80985">
        <ele>424</ele>
        <time>2013-09-18T11:58:48.000Z</time>
      </trkpt>
      <trkpt lat="43.50377" lon="6.80986">
        <ele>424</ele>
        <time>2013-09-18T11:58:49.000Z</time>
      </trkpt>
      <trkpt lat="43.50378" lon="6.80986">
        <ele>424</ele>
        <time>2013-09-18T11:58:50.000Z</time>
      </trkpt>
      <trkpt lat="43.50379" lon="6.80987">
        <ele>424</ele>
        <time>2013-09-18T11:58:51.000Z</time>
      </trkpt>
      <trkpt lat="43.5038" lon="6.80989">
        <ele>424</ele>
        <time>2013-09-18T11:58:52.000Z</time>
      </trkpt>
      <trkpt lat="43.50381" lon="6.8099">
        <ele>424</ele>
        <time>2013-09-18T11:58:53.000Z</time>
      </trkpt>
      <trkpt lat="43.50382" lon="6.80991">
        <ele>424</ele>
        <time>2013-09-18T11:58:54.000Z</time>
      </trkpt>
      <trkpt lat="43.50384" lon="6.80992">
        <ele>424</ele>
        <time>2013-09-18T11:58:55.000Z</time>
      </trkpt>
      <trkpt lat="43.50385" lon="6.80993">
        <ele>424</ele>
        <time>2013-09-18T11:58:56.000Z</time>
      </trkpt>
      <trkpt lat="43.50386" lon="6.80994">
        <ele>424</ele>
        <time>2013-09-18T11:58:57.000Z</time>
      </trkpt>
      <trkpt lat="43.50387" lon="6.80995">
        <ele>424</ele>
        <time>2013-09-18T11:58:58.000Z</time>
      </trkpt>
      <trkpt lat="43.50387" lon="6.80997">
        <ele>424</ele>
        <time>2013-09-18T11:58:59.000Z</time>
      </trkpt>
      <trkpt lat="43.50388" lon="6.80998">
        <ele>424</ele>
        <time>2013-09-18T11:59:00.000Z</time>
      </trkpt>
      <trkpt lat="43.50389" lon="6.80999">
        <ele>424</ele>
        <time>2013-09-18T11:59:01.000Z</time>
      </trkpt>
      <trkpt lat="43.5039" lon="6.80999">
        <ele>424</ele>
        <time>2013-09-18T11:59:02.000Z</time>
      </trkpt>
      <trkpt lat="43.50391" lon="6.81">
        <ele>442</ele>
        <time>2013-09-18T11:59:03.000Z</time>
      </trkpt>
      <trkpt lat="43.50392" lon="6.81002">
        <ele>442</ele>
        <time>2013-09-18T11:59:04.000Z</time>
      </trkpt>
      <trkpt lat="43.50393" lon="6.81003">
        <ele>442</ele>
        <time>2013-09-18T11:59:05.000Z</time>
      </trkpt>
      <trkpt lat="43.50394" lon="6.81004">
        <ele>442</ele>
        <time>2013-09-18T11:59:06.000Z</time>
      </trkpt>
      <trkpt lat="43.50395" lon="6.81005">
        <ele>441</ele>
        <time>2013-09-18T11:59:07.000Z</time>
      </trkpt>
      <trkpt lat="43.50396" lon="6.81006">
        <ele>441</ele>
        <time>2013-09-18T11:59:08.000Z</time>
      </trkpt>
      <trkpt lat="43.50397" lon="6.81006">
        <ele>441</ele>
        <time>2013-09-18T11:59:09.000Z</time>
      </trkpt>
      <trkpt lat="43.50398" lon="6.81007">
        <ele>440</ele>
        <time>2013-09-18T11:59:10.000Z</time>
      </trkpt>
      <trkpt lat="43.50399" lon="6.81008">
        <ele>440</ele>
        <time>2013-09-18T11:59:11.000Z</time>
      </trkpt>
      <trkpt lat="43.504" lon="6.81009">
        <ele>440</ele>
        <time>2013-09-18T11:59:12.000Z</time>
      </trkpt>
      <trkpt lat="43.50401" lon="6.8101">
        <ele>440</ele>
        <time>2013-09-18T11:59:13.000Z</time>
      </trkpt>
      <trkpt lat="43.50402" lon="6.81011">
        <ele>439</ele>
        <time>2013-09-18T11:59:14.000Z</time>
      </trkpt>
      <trkpt lat="43.50403" lon="6.81012">
        <ele>439</ele>
        <time>2013-09-18T11:59:15.000Z</time>
      </trkpt>
      <trkpt lat="43.50404" lon="6.81013">
        <ele>440</ele>
        <time>2013-09-18T11:59:16.000Z</time>
      </trkpt>
      <trkpt lat="43.50405" lon="6.81014">
        <ele>440</ele>
        <time>2013-09-18T11:59:17.000Z</time>
      </trkpt>
      <trkpt lat="43.50406" lon="6.81015">
        <ele>440</ele>
        <time>2013-09-18T11:59:18.000Z</time>
      </trkpt>
      <trkpt lat="43.50407" lon="6.81017">
        <ele>440</ele>
        <time>2013-09-18T11:59:19.000Z</time>
      </trkpt>
      <trkpt lat="43.50407" lon="6.81018">
        <ele>441</ele>
        <time>2013-09-18T11:59:20.000Z</time>
      </trkpt>
      <trkpt lat="43.50408" lon="6.81019">
        <ele>441</ele>
        <time>2013-09-18T11:59:21.000Z</time>
      </trkpt>
      <trkpt lat="43.50409" lon="6.81021">
        <ele>441</ele>
        <time>2013-09-18T11:59:22.000Z</time>
      </trkpt>
      <trkpt lat="43.5041" lon="6.81022">
        <ele>442</ele>
        <time>2013-09-18T11:59:23.000Z</time>
      </trkpt>
      <trkpt lat="43.50411" lon="6.81023">
        <ele>442</ele>
        <time>2013-09-18T11:59:24.000Z</time>
      </trkpt>
      <trkpt lat="43.50412" lon="6.81025">
        <ele>443</ele>
        <time>2013-09-18T11:59:25.000Z</time>
      </trkpt>
      <trkpt lat="43.50412" lon="6.81026">
        <ele>443</ele>
        <time>2013-09-18T11:59:26.000Z</time>
      </trkpt>
      <trkpt lat="43.50413" lon="6.81027">
        <ele>444</ele>
        <time>2013-09-18T11:59:27.000Z</time>
      </trkpt>
      <trkpt lat="43.50413" lon="6.81029">
        <ele>445</ele>
        <time>2013-09-18T11:59:28.000Z</time>
      </trkpt>
      <trkpt lat="43.50414" lon="6.81031">
        <ele>445</ele>
        <time>2013-09-18T11:59:29.000Z</time>
      </trkpt>
      <trkpt lat="43.50415" lon="6.81032">
        <ele>445</ele>
        <time>2013-09-18T11:59:30.000Z</time>
      </trkpt>
      <trkpt lat="43.50416" lon="6.81034">
        <ele>446</ele>
        <time>2013-09-18T11:59:31.000Z</time>
      </trkpt>
      <trkpt lat="43.50416" lon="6.81035">
        <ele>446</ele>
        <time>2013-09-18T11:59:32.000Z</time>
      </trkpt>
      <trkpt lat="43.50417" lon="6.81036">
        <ele>426</ele>
        <time>2013-09-18T11:59:33.000Z</time>
      </trkpt>
      <trkpt lat="43.50418" lon="6.81038">
        <ele>426</ele>
        <time>2013-09-18T11:59:34.000Z</time>
      </trkpt>
      <trkpt lat="43.50418" lon="6.81039">
        <ele>427</ele>
        <time>2013-09-18T11:59:35.000Z</time>
      </trkpt>
      <trkpt lat="43.50419" lon="6.81041">
        <ele>427</ele>
        <time>2013-09-18T11:59:36.000Z</time>
      </trkpt>
      <trkpt lat="43.50419" lon="6.81042">
        <ele>427</ele>
        <time>2013-09-18T11:59:37.000Z</time>
      </trkpt>
      <trkpt lat="43.5042" lon="6.81044">
        <ele>428</ele>
        <time>2013-09-18T11:59:38.000Z</time>
      </trkpt>
      <trkpt lat="43.5042" lon="6.81046">
        <ele>428</ele>
        <time>2013-09-18T11:59:39.000Z</time>
      </trkpt>
      <trkpt lat="43.50421" lon="6.81047">
        <ele>428</ele>
        <time>2013-09-18T11:59:40.000Z</time>
      </trkpt>
      <trkpt lat="43.50421" lon="6.81048">
        <ele>429</ele>
        <time>2013-09-18T11:59:41.000Z</time>
      </trkpt>
      <trkpt lat="43.50422" lon="6.8105">
        <ele>429</ele>
        <time>2013-09-18T11:59:42.000Z</time>
      </trkpt>
      <trkpt lat="43.50423" lon="6.81051">
        <ele>430</ele>
        <time>2013-09-18T11:59:43.000Z</time>
      </trkpt>
      <trkpt lat="43.50423" lon="6.81053">
        <ele>430</ele>
        <time>2013-09-18T11:59:44.000Z</time>
      </trkpt>
      <trkpt lat="43.50424" lon="6.81054">
        <ele>431</ele>
        <time>2013-09-18T11:59:45.000Z</time>
      </trkpt>
      <trkpt lat="43.50425" lon="6.81055">
        <ele>431</ele>
        <time>2013-09-18T11:59:46.000Z</time>
      </trkpt>
      <trkpt lat="43.50425" lon="6.81057">
        <ele>432</ele>
        <time>2013-09-18T11:59:47.000Z</time>
      </trkpt>
      <trkpt lat="43.50426" lon="6.81058">
        <ele>432</ele>
        <time>2013-09-18T11:59:48.000Z</time>
      </trkpt>
      <trkpt lat="43.50426" lon="6.81059">
        <ele>432</ele>
        <time>2013-09-18T11:59:49.000Z</time>
      </trkpt>
      <trkpt lat="43.50427" lon="6.81061">
        <ele>433</ele>
        <time>2013-09-18T11:59:50.000Z</time>
      </trkpt>
      <trkpt lat="43.50427" lon="6.81062">
        <ele>434</ele>
        <time>2013-09-18T11:59:51.000Z</time>
      </trkpt>
      <trkpt lat="43.50427" lon="6.81064">
        <ele>434</ele>
        <time>2013-09-18T11:59:52.000Z</time>
      </trkpt>
      <trkpt lat="43.50428" lon="6.81066">
        <ele>435</ele>
        <time>2013-09-18T11:59:53.000Z</time>
      </trkpt>
      <trkpt lat="43.50428" lon="6.81068">
        <ele>436</ele>
        <time>2013-09-18T11:59:54.000Z</time>
      </trkpt>
      <trkpt lat="43.50428" lon="6.81069">
        <ele>437</ele>
        <time>2013-09-18T11:59:55.000Z</time>
      </trkpt>
      <trkpt lat="43.50428" lon="6.81071">
        <ele>438</ele>
        <time>2013-09-18T11:59:56.000Z</time>
      </trkpt>
      <trkpt lat="43.50429" lon="6.81073">
        <ele>438</ele>
        <time>2013-09-18T11:59:57.000Z</time>
      </trkpt>
      <trkpt lat="43.50429" lon="6.81076">
        <ele>440</ele>
        <time>2013-09-18T11:59:59.000Z</time>
      </trkpt>
      <trkpt lat="43.5043" lon="6.81078">
        <ele>440</ele>
        <time>2013-09-18T12:00:00.000Z</time>
      </trkpt>
      <trkpt lat="43.5043" lon="6.81079">
        <ele>440</ele>
        <time>2013-09-18T12:00:01.000Z</time>
      </trkpt>
      <trkpt lat="43.50431" lon="6.81081">
        <ele>440</ele>
        <time>2013-09-18T12:00:02.000Z</time>
      </trkpt>
      <trkpt lat="43.50431" lon="6.81082">
        <ele>440</ele>
        <time>2013-09-18T12:00:03.000Z</time>
      </trkpt>
      <trkpt lat="43.50432" lon="6.81084">
        <ele>448</ele>
        <time>2013-09-18T12:00:04.000Z</time>
      </trkpt>
      <trkpt lat="43.50431" lon="6.81086">
        <ele>448</ele>
        <time>2013-09-18T12:00:06.000Z</time>
      </trkpt>
      <trkpt lat="43.50431" lon="6.81087">
        <ele>448</ele>
        <time>2013-09-18T12:00:07.000Z</time>
      </trkpt>
      <trkpt lat="43.5043" lon="6.81088">
        <ele>449</ele>
        <time>2013-09-18T12:00:08.000Z</time>
      </trkpt>
      <trkpt lat="43.5043" lon="6.81089">
        <ele>449</ele>
        <time>2013-09-18T12:00:09.000Z</time>
      </trkpt>
      <trkpt lat="43.5043" lon="6.81091">
        <ele>448</ele>
        <time>2013-09-18T12:00:10.000Z</time>
      </trkpt>
      <trkpt lat="43.50429" lon="6.81092">
        <ele>448</ele>
        <time>2013-09-18T12:00:11.000Z</time>
      </trkpt>
      <trkpt lat="43.50429" lon="6.81093">
        <ele>448</ele>
        <time>2013-09-18T12:00:12.000Z</time>
      </trkpt>
      <trkpt lat="43.50429" lon="6.81097">
        <ele>448</ele>
        <time>2013-09-18T12:00:14.000Z</time>
      </trkpt>
      <trkpt lat="43.50429" lon="6.81098">
        <ele>448</ele>
        <time>2013-09-18T12:00:15.000Z</time>
      </trkpt>
      <trkpt lat="43.5043" lon="6.811">
        <ele>447</ele>
        <time>2013-09-18T12:00:16.000Z</time>
      </trkpt>
      <trkpt lat="43.5043" lon="6.81101">
        <ele>447</ele>
        <time>2013-09-18T12:00:17.000Z</time>
      </trkpt>
      <trkpt lat="43.50431" lon="6.81103">
        <ele>447</ele>
        <time>2013-09-18T12:00:18.000Z</time>
      </trkpt>
      <trkpt lat="43.50431" lon="6.81104">
        <ele>447</ele>
        <time>2013-09-18T12:00:19.000Z</time>
      </trkpt>
      <trkpt lat="43.50431" lon="6.81106">
        <ele>446</ele>
        <time>2013-09-18T12:00:20.000Z</time>
      </trkpt>
      <trkpt lat="43.50432" lon="6.81111">
        <ele>446</ele>
        <time>2013-09-18T12:00:24.000Z</time>
      </trkpt>
      <trkpt lat="43.50432" lon="6.81113">
        <ele>446</ele>
        <time>2013-09-18T12:00:26.000Z</time>
      </trkpt>
      <trkpt lat="43.50432" lon="6.81115">
        <ele>446</ele>
        <time>2013-09-18T12:00:27.000Z</time>
      </trkpt>
      <trkpt lat="43.50433" lon="6.81116">
        <ele>446</ele>
        <time>2013-09-18T12:00:28.000Z</time>
      </trkpt>
      <trkpt lat="43.50433" lon="6.81117">
        <ele>446</ele>
        <time>2013-09-18T12:00:29.000Z</time>
      </trkpt>
      <trkpt lat="43.50434" lon="6.8112">
        <ele>446</ele>
        <time>2013-09-18T12:00:31.000Z</time>
      </trkpt>
      <trkpt lat="43.50434" lon="6.81121">
        <ele>446</ele>
        <time>2013-09-18T12:00:32.000Z</time>
      </trkpt>
      <trkpt lat="43.50434" lon="6.81122">
        <ele>446</ele>
        <time>2013-09-18T12:00:33.000Z</time>
      </trkpt>
      <trkpt lat="43.50434" lon="6.81124">
        <ele>446</ele>
        <time>2013-09-18T12:00:34.000Z</time>
      </trkpt>
      <trkpt lat="43.50433" lon="6.81125">
        <ele>447</ele>
        <time>2013-09-18T12:00:35.000Z</time>
      </trkpt>
      <trkpt lat="43.50433" lon="6.81126">
        <ele>447</ele>
        <time>2013-09-18T12:00:36.000Z</time>
      </trkpt>
      <trkpt lat="43.50433" lon="6.81127">
        <ele>447</ele>
        <time>2013-09-18T12:00:37.000Z</time>
      </trkpt>
      <trkpt lat="43.50433" lon="6.81128">
        <ele>447</ele>
        <time>2013-09-18T12:00:38.000Z</time>
      </trkpt>
      <trkpt lat="43.50433" lon="6.81129">
        <ele>447</ele>
        <time>2013-09-18T12:00:39.000Z</time>
      </trkpt>
      <trkpt lat="43.50433" lon="6.8113">
        <ele>447</ele>
        <time>2013-09-18T12:00:40.000Z</time>
      </trkpt>
      <trkpt lat="43.50433" lon="6.81131">
        <ele>448</ele>
        <time>2013-09-18T12:00:41.000Z</time>
      </trkpt>
      <trkpt lat="43.50433" lon="6.81133">
        <ele>448</ele>
        <time>2013-09-18T12:00:42.000Z</time>
      </trkpt>
      <trkpt lat="43.50433" lon="6.81134">
        <ele>448</ele>
        <time>2013-09-18T12:00:43.000Z</time>
      </trkpt>
      <trkpt lat="43.50432" lon="6.81135">
        <ele>449</ele>
        <time>2013-09-18T12:00:44.000Z</time>
      </trkpt>
      <trkpt lat="43.50432" lon="6.81138">
        <ele>449</ele>
        <time>2013-09-18T12:00:46.000Z</time>
      </trkpt>
      <trkpt lat="43.50432" lon="6.81139">
        <ele>450</ele>
        <time>2013-09-18T12:00:47.000Z</time>
      </trkpt>
      <trkpt lat="43.50432" lon="6.8114">
        <ele>450</ele>
        <time>2013-09-18T12:00:48.000Z</time>
      </trkpt>
      <trkpt lat="43.50431" lon="6.81142">
        <ele>451</ele>
        <time>2013-09-18T12:00:49.000Z</time>
      </trkpt>
      <trkpt lat="43.5043" lon="6.81143">
        <ele>451</ele>
        <time>2013-09-18T12:00:50.000Z</time>
      </trkpt>
      <trkpt lat="43.5043" lon="6.81144">
        <ele>452</ele>
        <time>2013-09-18T12:00:51.000Z</time>
      </trkpt>
      <trkpt lat="43.50429" lon="6.81145">
        <ele>452</ele>
        <time>2013-09-18T12:00:52.000Z</time>
      </trkpt>
      <trkpt lat="43.50428" lon="6.81145">
        <ele>453</ele>
        <time>2013-09-18T12:00:53.000Z</time>
      </trkpt>
      <trkpt lat="43.50427" lon="6.81146">
        <ele>453</ele>
        <time>2013-09-18T12:00:54.000Z</time>
      </trkpt>
      <trkpt lat="43.50426" lon="6.81147">
        <ele>454</ele>
        <time>2013-09-18T12:00:55.000Z</time>
      </trkpt>
      <trkpt lat="43.50425" lon="6.81147">
        <ele>454</ele>
        <time>2013-09-18T12:00:56.000Z</time>
      </trkpt>
      <trkpt lat="43.50425" lon="6.81149">
        <ele>455</ele>
        <time>2013-09-18T12:00:57.000Z</time>
      </trkpt>
      <trkpt lat="43.50425" lon="6.8115">
        <ele>456</ele>
        <time>2013-09-18T12:00:58.000Z</time>
      </trkpt>
      <trkpt lat="43.50425" lon="6.81151">
        <ele>456</ele>
        <time>2013-09-18T12:00:59.000Z</time>
      </trkpt>
      <trkpt lat="43.50425" lon="6.81152">
        <ele>457</ele>
        <time>2013-09-18T12:01:00.000Z</time>
      </trkpt>
      <trkpt lat="43.50426" lon="6.81154">
        <ele>457</ele>
        <time>2013-09-18T12:01:01.000Z</time>
      </trkpt>
      <trkpt lat="43.50426" lon="6.81157">
        <ele>459</ele>
        <time>2013-09-18T12:01:03.000Z</time>
      </trkpt>
      <trkpt lat="43.50425" lon="6.81159">
        <ele>460</ele>
        <time>2013-09-18T12:01:04.000Z</time>
      </trkpt>
      <trkpt lat="43.50425" lon="6.8116">
        <ele>461</ele>
        <time>2013-09-18T12:01:05.000Z</time>
      </trkpt>
      <trkpt lat="43.50425" lon="6.81162">
        <ele>462</ele>
        <time>2013-09-18T12:01:06.000Z</time>
      </trkpt>
      <trkpt lat="43.50425" lon="6.81165">
        <ele>463</ele>
        <time>2013-09-18T12:01:08.000Z</time>
      </trkpt>
      <trkpt lat="43.50426" lon="6.81168">
        <ele>466</ele>
        <time>2013-09-18T12:01:09.000Z</time>
      </trkpt>
      <trkpt lat="43.50426" lon="6.8117">
        <ele>466</ele>
        <time>2013-09-18T12:01:10.000Z</time>
      </trkpt>
      <trkpt lat="43.50426" lon="6.81172">
        <ele>465</ele>
        <time>2013-09-18T12:01:11.000Z</time>
      </trkpt>
      <trkpt lat="43.50427" lon="6.81173">
        <ele>465</ele>
        <time>2013-09-18T12:01:12.000Z</time>
      </trkpt>
      <trkpt lat="43.50427" lon="6.81175">
        <ele>464</ele>
        <time>2013-09-18T12:01:13.000Z</time>
      </trkpt>
      <trkpt lat="43.50427" lon="6.81177">
        <ele>464</ele>
        <time>2013-09-18T12:01:14.000Z</time>
      </trkpt>
      <trkpt lat="43.50427" lon="6.81178">
        <ele>463</ele>
        <time>2013-09-18T12:01:15.000Z</time>
      </trkpt>
      <trkpt lat="43.50427" lon="6.81182">
        <ele>463</ele>
        <time>2013-09-18T12:01:17.000Z</time>
      </trkpt>
      <trkpt lat="43.50428" lon="6.81184">
        <ele>462</ele>
        <time>2013-09-18T12:01:18.000Z</time>
      </trkpt>
      <trkpt lat="43.50429" lon="6.81186">
        <ele>462</ele>
        <time>2013-09-18T12:01:19.000Z</time>
      </trkpt>
      <trkpt lat="43.50429" lon="6.81188">
        <ele>461</ele>
        <time>2013-09-18T12:01:20.000Z</time>
      </trkpt>
      <trkpt lat="43.5043" lon="6.8119">
        <ele>461</ele>
        <time>2013-09-18T12:01:21.000Z</time>
      </trkpt>
      <trkpt lat="43.50431" lon="6.81192">
        <ele>460</ele>
        <time>2013-09-18T12:01:22.000Z</time>
      </trkpt>
      <trkpt lat="43.50432" lon="6.81194">
        <ele>460</ele>
        <time>2013-09-18T12:01:23.000Z</time>
      </trkpt>
      <trkpt lat="43.50432" lon="6.81196">
        <ele>460</ele>
        <time>2013-09-18T12:01:24.000Z</time>
      </trkpt>
      <trkpt lat="43.50433" lon="6.81198">
        <ele>459</ele>
        <time>2013-09-18T12:01:25.000Z</time>
      </trkpt>
      <trkpt lat="43.50432" lon="6.81201">
        <ele>459</ele>
        <time>2013-09-18T12:01:27.000Z</time>
      </trkpt>
      <trkpt lat="43.50432" lon="6.81202">
        <ele>459</ele>
        <time>2013-09-18T12:01:28.000Z</time>
      </trkpt>
      <trkpt lat="43.50432" lon="6.81204">
        <ele>459</ele>
        <time>2013-09-18T12:01:29.000Z</time>
      </trkpt>
      <trkpt lat="43.50433" lon="6.81206">
        <ele>459</ele>
        <time>2013-09-18T12:01:30.000Z</time>
      </trkpt>
      <trkpt lat="43.50433" lon="6.81208">
        <ele>460</ele>
        <time>2013-09-18T12:01:31.000Z</time>
      </trkpt>
      <trkpt lat="43.50433" lon="6.8121">
        <ele>460</ele>
        <time>2013-09-18T12:01:32.000Z</time>
      </trkpt>
      <trkpt lat="43.50433" lon="6.81212">
        <ele>460</ele>
        <time>2013-09-18T12:01:33.000Z</time>
      </trkpt>
      <trkpt lat="43.50434" lon="6.81214">
        <ele>460</ele>
        <time>2013-09-18T12:01:34.000Z</time>
      </trkpt>
      <trkpt lat="43.50434" lon="6.81216">
        <ele>460</ele>
        <time>2013-09-18T12:01:35.000Z</time>
      </trkpt>
      <trkpt lat="43.50434" lon="6.81217">
        <ele>460</ele>
        <time>2013-09-18T12:01:36.000Z</time>
      </trkpt>
      <trkpt lat="43.50434" lon="6.81219">
        <ele>460</ele>
        <time>2013-09-18T12:01:37.000Z</time>
      </trkpt>
      <trkpt lat="43.50434" lon="6.81221">
        <ele>461</ele>
        <time>2013-09-18T12:01:38.000Z</time>
      </trkpt>
      <trkpt lat="43.50434" lon="6.81224">
        <ele>461</ele>
        <time>2013-09-18T12:01:40.000Z</time>
      </trkpt>
      <trkpt lat="43.50434" lon="6.81231">
        <ele>462</ele>
        <time>2013-09-18T12:01:44.000Z</time>
      </trkpt>
      <trkpt lat="43.50434" lon="6.81232">
        <ele>463</ele>
        <time>2013-09-18T12:01:45.000Z</time>
      </trkpt>
      <trkpt lat="43.50434" lon="6.81234">
        <ele>463</ele>
        <time>2013-09-18T12:01:46.000Z</time>
      </trkpt>
      <trkpt lat="43.50434" lon="6.81236">
        <ele>463</ele>
        <time>2013-09-18T12:01:47.000Z</time>
      </trkpt>
      <trkpt lat="43.50434" lon="6.81237">
        <ele>464</ele>
        <time>2013-09-18T12:01:48.000Z</time>
      </trkpt>
      <trkpt lat="43.50434" lon="6.81239">
        <ele>464</ele>
        <time>2013-09-18T12:01:49.000Z</time>
      </trkpt>
      <trkpt lat="43.50433" lon="6.81242">
        <ele>465</ele>
        <time>2013-09-18T12:01:51.000Z</time>
      </trkpt>
      <trkpt lat="43.50433" lon="6.81245">
        <ele>466</ele>
        <time>2013-09-18T12:01:53.000Z</time>
      </trkpt>
      <trkpt lat="43.50433" lon="6.81249">
        <ele>466</ele>
        <time>2013-09-18T12:01:55.000Z</time>
      </trkpt>
      <trkpt lat="43.50433" lon="6.81252">
        <ele>473</ele>
        <time>2013-09-18T12:01:57.000Z</time>
      </trkpt>
      <trkpt lat="43.50433" lon="6.81253">
        <ele>473</ele>
        <time>2013-09-18T12:01:58.000Z</time>
      </trkpt>
      <trkpt lat="43.50432" lon="6.81255">
        <ele>473</ele>
        <time>2013-09-18T12:01:59.000Z</time>
      </trkpt>
      <trkpt lat="43.50432" lon="6.81257">
        <ele>473</ele>
        <time>2013-09-18T12:02:01.000Z</time>
      </trkpt>
      <trkpt lat="43.50431" lon="6.81259">
        <ele>473</ele>
        <time>2013-09-18T12:02:02.000Z</time>
      </trkpt>
      <trkpt lat="43.50432" lon="6.8126">
        <ele>473</ele>
        <time>2013-09-18T12:02:03.000Z</time>
      </trkpt>
      <trkpt lat="43.50431" lon="6.81262">
        <ele>473</ele>
        <time>2013-09-18T12:02:04.000Z</time>
      </trkpt>
      <trkpt lat="43.50432" lon="6.81265">
        <ele>473</ele>
        <time>2013-09-18T12:02:06.000Z</time>
      </trkpt>
      <trkpt lat="43.50432" lon="6.81266">
        <ele>473</ele>
        <time>2013-09-18T12:02:07.000Z</time>
      </trkpt>
      <trkpt lat="43.50433" lon="6.81268">
        <ele>473</ele>
        <time>2013-09-18T12:02:08.000Z</time>
      </trkpt>
      <trkpt lat="43.50433" lon="6.8127">
        <ele>473</ele>
        <time>2013-09-18T12:02:09.000Z</time>
      </trkpt>
      <trkpt lat="43.50434" lon="6.81271">
        <ele>473</ele>
        <time>2013-09-18T12:02:10.000Z</time>
      </trkpt>
      <trkpt lat="43.50435" lon="6.81273">
        <ele>473</ele>
        <time>2013-09-18T12:02:11.000Z</time>
      </trkpt>
      <trkpt lat="43.50435" lon="6.81274">
        <ele>472</ele>
        <time>2013-09-18T12:02:12.000Z</time>
      </trkpt>
      <trkpt lat="43.50436" lon="6.81276">
        <ele>472</ele>
        <time>2013-09-18T12:02:13.000Z</time>
      </trkpt>
      <trkpt lat="43.50436" lon="6.81277">
        <ele>473</ele>
        <time>2013-09-18T12:02:14.000Z</time>
      </trkpt>
      <trkpt lat="43.50437" lon="6.81279">
        <ele>473</ele>
        <time>2013-09-18T12:02:15.000Z</time>
      </trkpt>
      <trkpt lat="43.50438" lon="6.8128">
        <ele>473</ele>
        <time>2013-09-18T12:02:16.000Z</time>
      </trkpt>
      <trkpt lat="43.50438" lon="6.81282">
        <ele>473</ele>
        <time>2013-09-18T12:02:17.000Z</time>
      </trkpt>
      <trkpt lat="43.50439" lon="6.81284">
        <ele>473</ele>
        <time>2013-09-18T12:02:18.000Z</time>
      </trkpt>
      <trkpt lat="43.5044" lon="6.81285">
        <ele>473</ele>
        <time>2013-09-18T12:02:19.000Z</time>
      </trkpt>
      <trkpt lat="43.5044" lon="6.81287">
        <ele>473</ele>
        <time>2013-09-18T12:02:20.000Z</time>
      </trkpt>
      <trkpt lat="43.50441" lon="6.81288">
        <ele>473</ele>
        <time>2013-09-18T12:02:21.000Z</time>
      </trkpt>
      <trkpt lat="43.50442" lon="6.81289">
        <ele>473</ele>
        <time>2013-09-18T12:02:22.000Z</time>
      </trkpt>
      <trkpt lat="43.50443" lon="6.8129">
        <ele>473</ele>
        <time>2013-09-18T12:02:23.000Z</time>
      </trkpt>
      <trkpt lat="43.50443" lon="6.81291">
        <ele>473</ele>
        <time>2013-09-18T12:02:24.000Z</time>
      </trkpt>
      <trkpt lat="43.50444" lon="6.81293">
        <ele>473</ele>
        <time>2013-09-18T12:02:25.000Z</time>
      </trkpt>
      <trkpt lat="43.50445" lon="6.81294">
        <ele>473</ele>
        <time>2013-09-18T12:02:26.000Z</time>
      </trkpt>
      <trkpt lat="43.50445" lon="6.81295">
        <ele>473</ele>
        <time>2013-09-18T12:02:27.000Z</time>
      </trkpt>
      <trkpt lat="43.50446" lon="6.81296">
        <ele>473</ele>
        <time>2013-09-18T12:02:28.000Z</time>
      </trkpt>
      <trkpt lat="43.50447" lon="6.81297">
        <ele>473</ele>
        <time>2013-09-18T12:02:29.000Z</time>
      </trkpt>
      <trkpt lat="43.50448" lon="6.81298">
        <ele>473</ele>
        <time>2013-09-18T12:02:30.000Z</time>
      </trkpt>
      <trkpt lat="43.50449" lon="6.813">
        <ele>473</ele>
        <time>2013-09-18T12:02:31.000Z</time>
      </trkpt>
      <trkpt lat="43.5045" lon="6.81301">
        <ele>473</ele>
        <time>2013-09-18T12:02:32.000Z</time>
      </trkpt>
      <trkpt lat="43.50451" lon="6.81301">
        <ele>473</ele>
        <time>2013-09-18T12:02:33.000Z</time>
      </trkpt>
      <trkpt lat="43.50452" lon="6.81302">
        <ele>473</ele>
        <time>2013-09-18T12:02:34.000Z</time>
      </trkpt>
      <trkpt lat="43.50453" lon="6.81303">
        <ele>473</ele>
        <time>2013-09-18T12:02:35.000Z</time>
      </trkpt>
      <trkpt lat="43.50454" lon="6.81304">
        <ele>473</ele>
        <time>2013-09-18T12:02:36.000Z</time>
      </trkpt>
      <trkpt lat="43.50455" lon="6.81305">
        <ele>473</ele>
        <time>2013-09-18T12:02:37.000Z</time>
      </trkpt>
      <trkpt lat="43.50457" lon="6.81305">
        <ele>472</ele>
        <time>2013-09-18T12:02:38.000Z</time>
      </trkpt>
      <trkpt lat="43.50458" lon="6.81306">
        <ele>472</ele>
        <time>2013-09-18T12:02:39.000Z</time>
      </trkpt>
      <trkpt lat="43.50459" lon="6.81306">
        <ele>472</ele>
        <time>2013-09-18T12:02:40.000Z</time>
      </trkpt>
      <trkpt lat="43.5046" lon="6.81307">
        <ele>472</ele>
        <time>2013-09-18T12:02:41.000Z</time>
      </trkpt>
      <trkpt lat="43.50462" lon="6.81308">
        <ele>472</ele>
        <time>2013-09-18T12:02:42.000Z</time>
      </trkpt>
      <trkpt lat="43.50463" lon="6.81309">
        <ele>472</ele>
        <time>2013-09-18T12:02:43.000Z</time>
      </trkpt>
      <trkpt lat="43.50464" lon="6.8131">
        <ele>472</ele>
        <time>2013-09-18T12:02:44.000Z</time>
      </trkpt>
      <trkpt lat="43.50465" lon="6.81311">
        <ele>471</ele>
        <time>2013-09-18T12:02:45.000Z</time>
      </trkpt>
      <trkpt lat="43.50466" lon="6.81312">
        <ele>471</ele>
        <time>2013-09-18T12:02:46.000Z</time>
      </trkpt>
      <trkpt lat="43.50467" lon="6.81314">
        <ele>471</ele>
        <time>2013-09-18T12:02:47.000Z</time>
      </trkpt>
      <trkpt lat="43.50467" lon="6.81315">
        <ele>472</ele>
        <time>2013-09-18T12:02:48.000Z</time>
      </trkpt>
      <trkpt lat="43.50467" lon="6.81319">
        <ele>472</ele>
        <time>2013-09-18T12:02:50.000Z</time>
      </trkpt>
      <trkpt lat="43.50466" lon="6.8132">
        <ele>472</ele>
        <time>2013-09-18T12:02:51.000Z</time>
      </trkpt>
      <trkpt lat="43.50465" lon="6.81321">
        <ele>472</ele>
        <time>2013-09-18T12:02:52.000Z</time>
      </trkpt>
      <trkpt lat="43.50464" lon="6.81321">
        <ele>472</ele>
        <time>2013-09-18T12:02:53.000Z</time>
      </trkpt>
      <trkpt lat="43.50464" lon="6.81321">
        <ele>473</ele>
        <time>2013-09-18T12:02:54.000Z</time>
      </trkpt>
      <trkpt lat="43.50463" lon="6.81321">
        <ele>473</ele>
        <time>2013-09-18T12:02:55.000Z</time>
      </trkpt>
      <trkpt lat="43.50462" lon="6.81321">
        <ele>473</ele>
        <time>2013-09-18T12:02:56.000Z</time>
      </trkpt>
      <trkpt lat="43.50462" lon="6.81321">
        <ele>473</ele>
        <time>2013-09-18T12:02:57.000Z</time>
      </trkpt>
      <trkpt lat="43.50464" lon="6.81321">
        <ele>473</ele>
        <time>2013-09-18T12:03:02.000Z</time>
      </trkpt>
      <trkpt lat="43.50465" lon="6.81321">
        <ele>472</ele>
        <time>2013-09-18T12:03:04.000Z</time>
      </trkpt>
      <trkpt lat="43.50466" lon="6.81321">
        <ele>472</ele>
        <time>2013-09-18T12:03:15.000Z</time>
      </trkpt>
      <trkpt lat="43.50466" lon="6.81321">
        <ele>472</ele>
        <time>2013-09-18T12:03:17.000Z</time>
      </trkpt>
      <trkpt lat="43.50466" lon="6.81321">
        <ele>472</ele>
        <time>2013-09-18T12:03:19.000Z</time>
      </trkpt>
      <trkpt lat="43.50466" lon="6.81321">
        <ele>472</ele>
        <time>2013-09-18T12:03:21.000Z</time>
      </trkpt>
      <trkpt lat="43.50466" lon="6.8132">
        <ele>472</ele>
        <time>2013-09-18T12:03:24.000Z</time>
      </trkpt>
      <trkpt lat="43.50466" lon="6.8132">
        <ele>472</ele>
        <time>2013-09-18T12:03:30.000Z</time>
      </trkpt>
      <trkpt lat="43.50467" lon="6.8132">
        <ele>472</ele>
        <time>2013-09-18T12:03:32.000Z</time>
      </trkpt>
      <trkpt lat="43.50467" lon="6.8132">
        <ele>472</ele>
        <time>2013-09-18T12:03:41.000Z</time>
      </trkpt>
      <trkpt lat="43.50467" lon="6.8132">
        <ele>472</ele>
        <time>2013-09-18T12:03:49.000Z</time>
      </trkpt>
      <trkpt lat="43.50467" lon="6.8132">
        <ele>472</ele>
        <time>2013-09-18T12:03:51.000Z</time>
      </trkpt>
      <trkpt lat="43.50468" lon="6.8132">
        <ele>472</ele>
        <time>2013-09-18T12:03:53.000Z</time>
      </trkpt>
      <trkpt lat="43.50468" lon="6.8132">
        <ele>472</ele>
        <time>2013-09-18T12:03:54.000Z</time>
      </trkpt>
      <trkpt lat="43.50468" lon="6.81321">
        <ele>472</ele>
        <time>2013-09-18T12:03:56.000Z</time>
      </trkpt>
      <trkpt lat="43.50468" lon="6.81321">
        <ele>472</ele>
        <time>2013-09-18T12:03:57.000Z</time>
      </trkpt>
      <trkpt lat="43.50468" lon="6.81321">
        <ele>472</ele>
        <time>2013-09-18T12:03:59.000Z</time>
      </trkpt>
      <trkpt lat="43.50468" lon="6.81321">
        <ele>472</ele>
        <time>2013-09-18T12:04:01.000Z</time>
      </trkpt>
      <trkpt lat="43.50467" lon="6.8132">
        <ele>472</ele>
        <time>2013-09-18T12:04:02.000Z</time>
      </trkpt>
      <trkpt lat="43.50466" lon="6.8132">
        <ele>472</ele>
        <time>2013-09-18T12:04:03.000Z</time>
      </trkpt>
      <trkpt lat="43.50465" lon="6.8132">
        <ele>472</ele>
        <time>2013-09-18T12:04:04.000Z</time>
      </trkpt>
      <trkpt lat="43.50465" lon="6.81319">
        <ele>472</ele>
        <time>2013-09-18T12:04:05.000Z</time>
      </trkpt>
      <trkpt lat="43.50464" lon="6.81319">
        <ele>472</ele>
        <time>2013-09-18T12:04:06.000Z</time>
      </trkpt>
      <trkpt lat="43.50463" lon="6.81318">
        <ele>473</ele>
        <time>2013-09-18T12:04:08.000Z</time>
      </trkpt>
      <trkpt lat="43.50462" lon="6.81318">
        <ele>473</ele>
        <time>2013-09-18T12:04:09.000Z</time>
      </trkpt>
      <trkpt lat="43.50461" lon="6.81317">
        <ele>473</ele>
        <time>2013-09-18T12:04:10.000Z</time>
      </trkpt>
      <trkpt lat="43.5046" lon="6.81317">
        <ele>473</ele>
        <time>2013-09-18T12:04:11.000Z</time>
      </trkpt>
      <trkpt lat="43.50459" lon="6.81316">
        <ele>473</ele>
        <time>2013-09-18T12:04:12.000Z</time>
      </trkpt>
      <trkpt lat="43.50458" lon="6.81315">
        <ele>473</ele>
        <time>2013-09-18T12:04:13.000Z</time>
      </trkpt>
      <trkpt lat="43.50457" lon="6.81314">
        <ele>473</ele>
        <time>2013-09-18T12:04:14.000Z</time>
      </trkpt>
      <trkpt lat="43.50456" lon="6.81314">
        <ele>473</ele>
        <time>2013-09-18T12:04:15.000Z</time>
      </trkpt>
      <trkpt lat="43.50455" lon="6.81313">
        <ele>474</ele>
        <time>2013-09-18T12:04:16.000Z</time>
      </trkpt>
      <trkpt lat="43.50454" lon="6.81312">
        <ele>474</ele>
        <time>2013-09-18T12:04:17.000Z</time>
      </trkpt>
      <trkpt lat="43.50453" lon="6.81311">
        <ele>474</ele>
        <time>2013-09-18T12:04:18.000Z</time>
      </trkpt>
      <trkpt lat="43.50453" lon="6.8131">
        <ele>474</ele>
        <time>2013-09-18T12:04:19.000Z</time>
      </trkpt>
      <trkpt lat="43.50452" lon="6.8131">
        <ele>474</ele>
        <time>2013-09-18T12:04:20.000Z</time>
      </trkpt>
      <trkpt lat="43.50452" lon="6.81309">
        <ele>474</ele>
        <time>2013-09-18T12:04:21.000Z</time>
      </trkpt>
      <trkpt lat="43.50451" lon="6.81308">
        <ele>474</ele>
        <time>2013-09-18T12:04:22.000Z</time>
      </trkpt>
      <trkpt lat="43.5045" lon="6.81307">
        <ele>474</ele>
        <time>2013-09-18T12:04:23.000Z</time>
      </trkpt>
      <trkpt lat="43.50449" lon="6.81306">
        <ele>474</ele>
        <time>2013-09-18T12:04:24.000Z</time>
      </trkpt>
      <trkpt lat="43.50448" lon="6.81305">
        <ele>474</ele>
        <time>2013-09-18T12:04:25.000Z</time>
      </trkpt>
      <trkpt lat="43.50448" lon="6.81303">
        <ele>474</ele>
        <time>2013-09-18T12:04:26.000Z</time>
      </trkpt>
      <trkpt lat="43.50447" lon="6.81302">
        <ele>474</ele>
        <time>2013-09-18T12:04:27.000Z</time>
      </trkpt>
      <trkpt lat="43.50447" lon="6.81301">
        <ele>474</ele>
        <time>2013-09-18T12:04:28.000Z</time>
      </trkpt>
      <trkpt lat="43.50446" lon="6.813">
        <ele>474</ele>
        <time>2013-09-18T12:04:29.000Z</time>
      </trkpt>
      <trkpt lat="43.50445" lon="6.81298">
        <ele>474</ele>
        <time>2013-09-18T12:04:30.000Z</time>
      </trkpt>
      <trkpt lat="43.50445" lon="6.81297">
        <ele>473</ele>
        <time>2013-09-18T12:04:31.000Z</time>
      </trkpt>
      <trkpt lat="43.50444" lon="6.81296">
        <ele>473</ele>
        <time>2013-09-18T12:04:32.000Z</time>
      </trkpt>
      <trkpt lat="43.50443" lon="6.81295">
        <ele>473</ele>
        <time>2013-09-18T12:04:33.000Z</time>
      </trkpt>
      <trkpt lat="43.50443" lon="6.81293">
        <ele>473</ele>
        <time>2013-09-18T12:04:34.000Z</time>
      </trkpt>
      <trkpt lat="43.50442" lon="6.81292">
        <ele>473</ele>
        <time>2013-09-18T12:04:35.000Z</time>
      </trkpt>
      <trkpt lat="43.50441" lon="6.81291">
        <ele>473</ele>
        <time>2013-09-18T12:04:36.000Z</time>
      </trkpt>
      <trkpt lat="43.50441" lon="6.81289">
        <ele>473</ele>
        <time>2013-09-18T12:04:37.000Z</time>
      </trkpt>
      <trkpt lat="43.5044" lon="6.81288">
        <ele>473</ele>
        <time>2013-09-18T12:04:38.000Z</time>
      </trkpt>
      <trkpt lat="43.5044" lon="6.81287">
        <ele>473</ele>
        <time>2013-09-18T12:04:39.000Z</time>
      </trkpt>
      <trkpt lat="43.5044" lon="6.81285">
        <ele>473</ele>
        <time>2013-09-18T12:04:40.000Z</time>
      </trkpt>
      <trkpt lat="43.50439" lon="6.81283">
        <ele>473</ele>
        <time>2013-09-18T12:04:41.000Z</time>
      </trkpt>
      <trkpt lat="43.50439" lon="6.81282">
        <ele>472</ele>
        <time>2013-09-18T12:04:42.000Z</time>
      </trkpt>
      <trkpt lat="43.50439" lon="6.81281">
        <ele>472</ele>
        <time>2013-09-18T12:04:43.000Z</time>
      </trkpt>
      <trkpt lat="43.50438" lon="6.81279">
        <ele>472</ele>
        <time>2013-09-18T12:04:44.000Z</time>
      </trkpt>
      <trkpt lat="43.50438" lon="6.81277">
        <ele>472</ele>
        <time>2013-09-18T12:04:45.000Z</time>
      </trkpt>
      <trkpt lat="43.50438" lon="6.81274">
        <ele>472</ele>
        <time>2013-09-18T12:04:47.000Z</time>
      </trkpt>
      <trkpt lat="43.50438" lon="6.81272">
        <ele>472</ele>
        <time>2013-09-18T12:04:48.000Z</time>
      </trkpt>
      <trkpt lat="43.50437" lon="6.81271">
        <ele>472</ele>
        <time>2013-09-18T12:04:49.000Z</time>
      </trkpt>
      <trkpt lat="43.50436" lon="6.81269">
        <ele>472</ele>
        <time>2013-09-18T12:04:50.000Z</time>
      </trkpt>
      <trkpt lat="43.50436" lon="6.81268">
        <ele>472</ele>
        <time>2013-09-18T12:04:51.000Z</time>
      </trkpt>
      <trkpt lat="43.50435" lon="6.81266">
        <ele>472</ele>
        <time>2013-09-18T12:04:52.000Z</time>
      </trkpt>
      <trkpt lat="43.50434" lon="6.81264">
        <ele>472</ele>
        <time>2013-09-18T12:04:53.000Z</time>
      </trkpt>
      <trkpt lat="43.50434" lon="6.81262">
        <ele>473</ele>
        <time>2013-09-18T12:04:54.000Z</time>
      </trkpt>
      <trkpt lat="43.50433" lon="6.8126">
        <ele>473</ele>
        <time>2013-09-18T12:04:55.000Z</time>
      </trkpt>
      <trkpt lat="43.50433" lon="6.81259">
        <ele>473</ele>
        <time>2013-09-18T12:04:56.000Z</time>
      </trkpt>
      <trkpt lat="43.50432" lon="6.81257">
        <ele>473</ele>
        <time>2013-09-18T12:04:57.000Z</time>
      </trkpt>
      <trkpt lat="43.50433" lon="6.81256">
        <ele>473</ele>
        <time>2013-09-18T12:04:58.000Z</time>
      </trkpt>
      <trkpt lat="43.50433" lon="6.81254">
        <ele>473</ele>
        <time>2013-09-18T12:04:59.000Z</time>
      </trkpt>
      <trkpt lat="43.50432" lon="6.81252">
        <ele>473</ele>
        <time>2013-09-18T12:05:00.000Z</time>
      </trkpt>
      <trkpt lat="43.50432" lon="6.81251">
        <ele>473</ele>
        <time>2013-09-18T12:05:01.000Z</time>
      </trkpt>
      <trkpt lat="43.50431" lon="6.81249">
        <ele>467</ele>
        <time>2013-09-18T12:05:02.000Z</time>
      </trkpt>
      <trkpt lat="43.50431" lon="6.81247">
        <ele>467</ele>
        <time>2013-09-18T12:05:03.000Z</time>
      </trkpt>
      <trkpt lat="43.5043" lon="6.81245">
        <ele>467</ele>
        <time>2013-09-18T12:05:04.000Z</time>
      </trkpt>
      <trkpt lat="43.5043" lon="6.81243">
        <ele>467</ele>
        <time>2013-09-18T12:05:05.000Z</time>
      </trkpt>
      <trkpt lat="43.50428" lon="6.81241">
        <ele>467</ele>
        <time>2013-09-18T12:05:06.000Z</time>
      </trkpt>
      <trkpt lat="43.50427" lon="6.81239">
        <ele>467</ele>
        <time>2013-09-18T12:05:07.000Z</time>
      </trkpt>
      <trkpt lat="43.50426" lon="6.81237">
        <ele>466</ele>
        <time>2013-09-18T12:05:08.000Z</time>
      </trkpt>
      <trkpt lat="43.50425" lon="6.81235">
        <ele>466</ele>
        <time>2013-09-18T12:05:09.000Z</time>
      </trkpt>
      <trkpt lat="43.50425" lon="6.81233">
        <ele>465</ele>
        <time>2013-09-18T12:05:10.000Z</time>
      </trkpt>
      <trkpt lat="43.50424" lon="6.81231">
        <ele>465</ele>
        <time>2013-09-18T12:05:11.000Z</time>
      </trkpt>
      <trkpt lat="43.50424" lon="6.81229">
        <ele>464</ele>
        <time>2013-09-18T12:05:12.000Z</time>
      </trkpt>
      <trkpt lat="43.50424" lon="6.81227">
        <ele>464</ele>
        <time>2013-09-18T12:05:13.000Z</time>
      </trkpt>
      <trkpt lat="43.50424" lon="6.81226">
        <ele>463</ele>
        <time>2013-09-18T12:05:14.000Z</time>
      </trkpt>
      <trkpt lat="43.50425" lon="6.81224">
        <ele>463</ele>
        <time>2013-09-18T12:05:15.000Z</time>
      </trkpt>
      <trkpt lat="43.50424" lon="6.81222">
        <ele>463</ele>
        <time>2013-09-18T12:05:16.000Z</time>
      </trkpt>
      <trkpt lat="43.50423" lon="6.8122">
        <ele>462</ele>
        <time>2013-09-18T12:05:17.000Z</time>
      </trkpt>
      <trkpt lat="43.50423" lon="6.81218">
        <ele>462</ele>
        <time>2013-09-18T12:05:18.000Z</time>
      </trkpt>
      <trkpt lat="43.50423" lon="6.81216">
        <ele>462</ele>
        <time>2013-09-18T12:05:19.000Z</time>
      </trkpt>
      <trkpt lat="43.50423" lon="6.81215">
        <ele>462</ele>
        <time>2013-09-18T12:05:20.000Z</time>
      </trkpt>
      <trkpt lat="43.50422" lon="6.81213">
        <ele>461</ele>
        <time>2013-09-18T12:05:21.000Z</time>
      </trkpt>
      <trkpt lat="43.50422" lon="6.81211">
        <ele>461</ele>
        <time>2013-09-18T12:05:22.000Z</time>
      </trkpt>
      <trkpt lat="43.5042" lon="6.81209">
        <ele>461</ele>
        <time>2013-09-18T12:05:23.000Z</time>
      </trkpt>
      <trkpt lat="43.50419" lon="6.81207">
        <ele>461</ele>
        <time>2013-09-18T12:05:24.000Z</time>
      </trkpt>
      <trkpt lat="43.50418" lon="6.81205">
        <ele>461</ele>
        <time>2013-09-18T12:05:25.000Z</time>
      </trkpt>
      <trkpt lat="43.50417" lon="6.81203">
        <ele>462</ele>
        <time>2013-09-18T12:05:26.000Z</time>
      </trkpt>
      <trkpt lat="43.50418" lon="6.812">
        <ele>462</ele>
        <time>2013-09-18T12:05:28.000Z</time>
      </trkpt>
      <trkpt lat="43.50417" lon="6.81198">
        <ele>462</ele>
        <time>2013-09-18T12:05:29.000Z</time>
      </trkpt>
      <trkpt lat="43.50417" lon="6.81197">
        <ele>462</ele>
        <time>2013-09-18T12:05:30.000Z</time>
      </trkpt>
      <trkpt lat="43.50417" lon="6.81195">
        <ele>462</ele>
        <time>2013-09-18T12:05:31.000Z</time>
      </trkpt>
      <trkpt lat="43.50416" lon="6.81193">
        <ele>485</ele>
        <time>2013-09-18T12:05:32.000Z</time>
      </trkpt>
      <trkpt lat="43.50416" lon="6.81191">
        <ele>484</ele>
        <time>2013-09-18T12:05:33.000Z</time>
      </trkpt>
      <trkpt lat="43.50415" lon="6.81189">
        <ele>484</ele>
        <time>2013-09-18T12:05:34.000Z</time>
      </trkpt>
      <trkpt lat="43.50414" lon="6.81187">
        <ele>483</ele>
        <time>2013-09-18T12:05:35.000Z</time>
      </trkpt>
      <trkpt lat="43.50413" lon="6.81185">
        <ele>483</ele>
        <time>2013-09-18T12:05:36.000Z</time>
      </trkpt>
      <trkpt lat="43.50413" lon="6.81183">
        <ele>482</ele>
        <time>2013-09-18T12:05:37.000Z</time>
      </trkpt>
      <trkpt lat="43.50413" lon="6.81181">
        <ele>481</ele>
        <time>2013-09-18T12:05:38.000Z</time>
      </trkpt>
      <trkpt lat="43.50412" lon="6.81179">
        <ele>481</ele>
        <time>2013-09-18T12:05:39.000Z</time>
      </trkpt>
      <trkpt lat="43.50412" lon="6.81177">
        <ele>480</ele>
        <time>2013-09-18T12:05:40.000Z</time>
      </trkpt>
      <trkpt lat="43.50411" lon="6.81175">
        <ele>479</ele>
        <time>2013-09-18T12:05:41.000Z</time>
      </trkpt>
      <trkpt lat="43.5041" lon="6.81173">
        <ele>479</ele>
        <time>2013-09-18T12:05:42.000Z</time>
      </trkpt>
      <trkpt lat="43.5041" lon="6.81171">
        <ele>478</ele>
        <time>2013-09-18T12:05:43.000Z</time>
      </trkpt>
      <trkpt lat="43.5041" lon="6.81169">
        <ele>478</ele>
        <time>2013-09-18T12:05:44.000Z</time>
      </trkpt>
      <trkpt lat="43.50409" lon="6.81167">
        <ele>478</ele>
        <time>2013-09-18T12:05:45.000Z</time>
      </trkpt>
      <trkpt lat="43.50409" lon="6.81162">
        <ele>475</ele>
        <time>2013-09-18T12:05:48.000Z</time>
      </trkpt>
      <trkpt lat="43.50408" lon="6.8116">
        <ele>475</ele>
        <time>2013-09-18T12:05:49.000Z</time>
      </trkpt>
      <trkpt lat="43.50408" lon="6.81157">
        <ele>475</ele>
        <time>2013-09-18T12:05:50.000Z</time>
      </trkpt>
      <trkpt lat="43.50407" lon="6.81155">
        <ele>475</ele>
        <time>2013-09-18T12:05:51.000Z</time>
      </trkpt>
      <trkpt lat="43.50407" lon="6.81153">
        <ele>476</ele>
        <time>2013-09-18T12:05:52.000Z</time>
      </trkpt>
      <trkpt lat="43.50406" lon="6.81151">
        <ele>476</ele>
        <time>2013-09-18T12:05:53.000Z</time>
      </trkpt>
      <trkpt lat="43.50405" lon="6.81148">
        <ele>476</ele>
        <time>2013-09-18T12:05:54.000Z</time>
      </trkpt>
      <trkpt lat="43.50405" lon="6.81146">
        <ele>476</ele>
        <time>2013-09-18T12:05:55.000Z</time>
      </trkpt>
      <trkpt lat="43.50405" lon="6.81144">
        <ele>476</ele>
        <time>2013-09-18T12:05:56.000Z</time>
      </trkpt>
      <trkpt lat="43.50404" lon="6.81142">
        <ele>476</ele>
        <time>2013-09-18T12:05:57.000Z</time>
      </trkpt>
      <trkpt lat="43.50404" lon="6.8114">
        <ele>476</ele>
        <time>2013-09-18T12:05:58.000Z</time>
      </trkpt>
      <trkpt lat="43.50403" lon="6.81138">
        <ele>476</ele>
        <time>2013-09-18T12:05:59.000Z</time>
      </trkpt>
      <trkpt lat="43.50403" lon="6.81136">
        <ele>476</ele>
        <time>2013-09-18T12:06:00.000Z</time>
      </trkpt>
      <trkpt lat="43.50402" lon="6.81134">
        <ele>476</ele>
        <time>2013-09-18T12:06:01.000Z</time>
      </trkpt>
      <trkpt lat="43.50401" lon="6.81133">
        <ele>476</ele>
        <time>2013-09-18T12:06:02.000Z</time>
      </trkpt>
      <trkpt lat="43.50401" lon="6.81131">
        <ele>476</ele>
        <time>2013-09-18T12:06:03.000Z</time>
      </trkpt>
      <trkpt lat="43.50401" lon="6.81129">
        <ele>476</ele>
        <time>2013-09-18T12:06:04.000Z</time>
      </trkpt>
      <trkpt lat="43.504" lon="6.81128">
        <ele>476</ele>
        <time>2013-09-18T12:06:05.000Z</time>
      </trkpt>
      <trkpt lat="43.504" lon="6.81126">
        <ele>475</ele>
        <time>2013-09-18T12:06:06.000Z</time>
      </trkpt>
      <trkpt lat="43.504" lon="6.81124">
        <ele>475</ele>
        <time>2013-09-18T12:06:07.000Z</time>
      </trkpt>
      <trkpt lat="43.50399" lon="6.81123">
        <ele>475</ele>
        <time>2013-09-18T12:06:08.000Z</time>
      </trkpt>
      <trkpt lat="43.50398" lon="6.81121">
        <ele>475</ele>
        <time>2013-09-18T12:06:09.000Z</time>
      </trkpt>
      <trkpt lat="43.50398" lon="6.8112">
        <ele>475</ele>
        <time>2013-09-18T12:06:10.000Z</time>
      </trkpt>
      <trkpt lat="43.50398" lon="6.81118">
        <ele>475</ele>
        <time>2013-09-18T12:06:11.000Z</time>
      </trkpt>
      <trkpt lat="43.50398" lon="6.81115">
        <ele>474</ele>
        <time>2013-09-18T12:06:13.000Z</time>
      </trkpt>
      <trkpt lat="43.50397" lon="6.81114">
        <ele>474</ele>
        <time>2013-09-18T12:06:14.000Z</time>
      </trkpt>
      <trkpt lat="43.50396" lon="6.81112">
        <ele>474</ele>
        <time>2013-09-18T12:06:15.000Z</time>
      </trkpt>
      <trkpt lat="43.50395" lon="6.8111">
        <ele>474</ele>
        <time>2013-09-18T12:06:16.000Z</time>
      </trkpt>
      <trkpt lat="43.50395" lon="6.81109">
        <ele>473</ele>
        <time>2013-09-18T12:06:17.000Z</time>
      </trkpt>
      <trkpt lat="43.50394" lon="6.81107">
        <ele>473</ele>
        <time>2013-09-18T12:06:18.000Z</time>
      </trkpt>
      <trkpt lat="43.50393" lon="6.81105">
        <ele>473</ele>
        <time>2013-09-18T12:06:19.000Z</time>
      </trkpt>
      <trkpt lat="43.50393" lon="6.81103">
        <ele>473</ele>
        <time>2013-09-18T12:06:20.000Z</time>
      </trkpt>
      <trkpt lat="43.50392" lon="6.81102">
        <ele>473</ele>
        <time>2013-09-18T12:06:21.000Z</time>
      </trkpt>
      <trkpt lat="43.50391" lon="6.811">
        <ele>473</ele>
        <time>2013-09-18T12:06:22.000Z</time>
      </trkpt>
      <trkpt lat="43.5039" lon="6.81099">
        <ele>473</ele>
        <time>2013-09-18T12:06:23.000Z</time>
      </trkpt>
      <trkpt lat="43.5039" lon="6.81097">
        <ele>473</ele>
        <time>2013-09-18T12:06:24.000Z</time>
      </trkpt>
      <trkpt lat="43.50389" lon="6.81096">
        <ele>473</ele>
        <time>2013-09-18T12:06:25.000Z</time>
      </trkpt>
      <trkpt lat="43.50388" lon="6.81094">
        <ele>473</ele>
        <time>2013-09-18T12:06:26.000Z</time>
      </trkpt>
      <trkpt lat="43.50387" lon="6.81093">
        <ele>473</ele>
        <time>2013-09-18T12:06:27.000Z</time>
      </trkpt>
      <trkpt lat="43.50386" lon="6.81091">
        <ele>473</ele>
        <time>2013-09-18T12:06:28.000Z</time>
      </trkpt>
      <trkpt lat="43.50385" lon="6.81089">
        <ele>473</ele>
        <time>2013-09-18T12:06:29.000Z</time>
      </trkpt>
      <trkpt lat="43.50384" lon="6.81087">
        <ele>473</ele>
        <time>2013-09-18T12:06:30.000Z</time>
      </trkpt>
      <trkpt lat="43.50382" lon="6.81086">
        <ele>474</ele>
        <time>2013-09-18T12:06:31.000Z</time>
      </trkpt>
      <trkpt lat="43.50381" lon="6.81084">
        <ele>474</ele>
        <time>2013-09-18T12:06:32.000Z</time>
      </trkpt>
      <trkpt lat="43.5038" lon="6.81082">
        <ele>458</ele>
        <time>2013-09-18T12:06:33.000Z</time>
      </trkpt>
      <trkpt lat="43.50379" lon="6.81081">
        <ele>458</ele>
        <time>2013-09-18T12:06:34.000Z</time>
      </trkpt>
      <trkpt lat="43.50377" lon="6.8108">
        <ele>458</ele>
        <time>2013-09-18T12:06:35.000Z</time>
      </trkpt>
      <trkpt lat="43.50375" lon="6.81078">
        <ele>458</ele>
        <time>2013-09-18T12:06:36.000Z</time>
      </trkpt>
      <trkpt lat="43.50374" lon="6.81077">
        <ele>459</ele>
        <time>2013-09-18T12:06:37.000Z</time>
      </trkpt>
      <trkpt lat="43.50372" lon="6.81076">
        <ele>459</ele>
        <time>2013-09-18T12:06:38.000Z</time>
      </trkpt>
      <trkpt lat="43.5037" lon="6.81075">
        <ele>459</ele>
        <time>2013-09-18T12:06:39.000Z</time>
      </trkpt>
      <trkpt lat="43.50368" lon="6.81074">
        <ele>460</ele>
        <time>2013-09-18T12:06:40.000Z</time>
      </trkpt>
      <trkpt lat="43.50367" lon="6.81074">
        <ele>460</ele>
        <time>2013-09-18T12:06:41.000Z</time>
      </trkpt>
      <trkpt lat="43.50365" lon="6.81073">
        <ele>461</ele>
        <time>2013-09-18T12:06:42.000Z</time>
      </trkpt>
      <trkpt lat="43.50363" lon="6.81072">
        <ele>461</ele>
        <time>2013-09-18T12:06:43.000Z</time>
      </trkpt>
      <trkpt lat="43.50362" lon="6.81072">
        <ele>461</ele>
        <time>2013-09-18T12:06:44.000Z</time>
      </trkpt>
      <trkpt lat="43.5036" lon="6.81071">
        <ele>462</ele>
        <time>2013-09-18T12:06:45.000Z</time>
      </trkpt>
      <trkpt lat="43.50359" lon="6.81071">
        <ele>462</ele>
        <time>2013-09-18T12:06:46.000Z</time>
      </trkpt>
      <trkpt lat="43.50357" lon="6.81071">
        <ele>463</ele>
        <time>2013-09-18T12:06:47.000Z</time>
      </trkpt>
      <trkpt lat="43.50356" lon="6.8107">
        <ele>463</ele>
        <time>2013-09-18T12:06:48.000Z</time>
      </trkpt>
      <trkpt lat="43.50354" lon="6.8107">
        <ele>463</ele>
        <time>2013-09-18T12:06:49.000Z</time>
      </trkpt>
      <trkpt lat="43.50353" lon="6.8107">
        <ele>464</ele>
        <time>2013-09-18T12:06:50.000Z</time>
      </trkpt>
      <trkpt lat="43.5035" lon="6.81069">
        <ele>465</ele>
        <time>2013-09-18T12:06:52.000Z</time>
      </trkpt>
      <trkpt lat="43.50348" lon="6.81069">
        <ele>466</ele>
        <time>2013-09-18T12:06:53.000Z</time>
      </trkpt>
      <trkpt lat="43.50346" lon="6.81069">
        <ele>466</ele>
        <time>2013-09-18T12:06:54.000Z</time>
      </trkpt>
      <trkpt lat="43.50345" lon="6.81069">
        <ele>467</ele>
        <time>2013-09-18T12:06:55.000Z</time>
      </trkpt>
      <trkpt lat="43.50343" lon="6.81068">
        <ele>467</ele>
        <time>2013-09-18T12:06:56.000Z</time>
      </trkpt>
      <trkpt lat="43.5034" lon="6.81069">
        <ele>468</ele>
        <time>2013-09-18T12:06:58.000Z</time>
      </trkpt>
      <trkpt lat="43.50338" lon="6.81069">
        <ele>469</ele>
        <time>2013-09-18T12:06:59.000Z</time>
      </trkpt>
      <trkpt lat="43.50334" lon="6.81069">
        <ele>469</ele>
        <time>2013-09-18T12:07:01.000Z</time>
      </trkpt>
      <trkpt lat="43.50333" lon="6.81069">
        <ele>472</ele>
        <time>2013-09-18T12:07:02.000Z</time>
      </trkpt>
      <trkpt lat="43.50331" lon="6.8107">
        <ele>472</ele>
        <time>2013-09-18T12:07:03.000Z</time>
      </trkpt>
      <trkpt lat="43.50329" lon="6.8107">
        <ele>472</ele>
        <time>2013-09-18T12:07:04.000Z</time>
      </trkpt>
      <trkpt lat="43.50327" lon="6.81071">
        <ele>472</ele>
        <time>2013-09-18T12:07:05.000Z</time>
      </trkpt>
      <trkpt lat="43.50326" lon="6.81071">
        <ele>472</ele>
        <time>2013-09-18T12:07:06.000Z</time>
      </trkpt>
      <trkpt lat="43.50324" lon="6.81072">
        <ele>472</ele>
        <time>2013-09-18T12:07:07.000Z</time>
      </trkpt>
      <trkpt lat="43.50323" lon="6.81072">
        <ele>471</ele>
        <time>2013-09-18T12:07:08.000Z</time>
      </trkpt>
      <trkpt lat="43.50321" lon="6.81073">
        <ele>471</ele>
        <time>2013-09-18T12:07:09.000Z</time>
      </trkpt>
      <trkpt lat="43.5032" lon="6.81074">
        <ele>471</ele>
        <time>2013-09-18T12:07:10.000Z</time>
      </trkpt>
      <trkpt lat="43.50319" lon="6.81074">
        <ele>471</ele>
        <time>2013-09-18T12:07:11.000Z</time>
      </trkpt>
      <trkpt lat="43.50318" lon="6.81075">
        <ele>471</ele>
        <time>2013-09-18T12:07:12.000Z</time>
      </trkpt>
      <trkpt lat="43.50317" lon="6.81076">
        <ele>471</ele>
        <time>2013-09-18T12:07:13.000Z</time>
      </trkpt>
      <trkpt lat="43.50316" lon="6.81077">
        <ele>470</ele>
        <time>2013-09-18T12:07:14.000Z</time>
      </trkpt>
      <trkpt lat="43.50314" lon="6.81077">
        <ele>470</ele>
        <time>2013-09-18T12:07:15.000Z</time>
      </trkpt>
      <trkpt lat="43.50313" lon="6.81078">
        <ele>470</ele>
        <time>2013-09-18T12:07:16.000Z</time>
      </trkpt>
      <trkpt lat="43.50312" lon="6.81079">
        <ele>469</ele>
        <time>2013-09-18T12:07:17.000Z</time>
      </trkpt>
      <trkpt lat="43.50311" lon="6.8108">
        <ele>469</ele>
        <time>2013-09-18T12:07:18.000Z</time>
      </trkpt>
      <trkpt lat="43.50309" lon="6.81081">
        <ele>469</ele>
        <time>2013-09-18T12:07:19.000Z</time>
      </trkpt>
      <trkpt lat="43.50308" lon="6.81082">
        <ele>469</ele>
        <time>2013-09-18T12:07:20.000Z</time>
      </trkpt>
      <trkpt lat="43.50306" lon="6.81083">
        <ele>468</ele>
        <time>2013-09-18T12:07:21.000Z</time>
      </trkpt>
      <trkpt lat="43.50305" lon="6.81084">
        <ele>486</ele>
        <time>2013-09-18T12:07:22.000Z</time>
      </trkpt>
      <trkpt lat="43.50304" lon="6.81085">
        <ele>486</ele>
        <time>2013-09-18T12:07:23.000Z</time>
      </trkpt>
      <trkpt lat="43.50302" lon="6.81085">
        <ele>486</ele>
        <time>2013-09-18T12:07:24.000Z</time>
      </trkpt>
      <trkpt lat="43.50301" lon="6.81086">
        <ele>486</ele>
        <time>2013-09-18T12:07:25.000Z</time>
      </trkpt>
      <trkpt lat="43.503" lon="6.81087">
        <ele>486</ele>
        <time>2013-09-18T12:07:26.000Z</time>
      </trkpt>
      <trkpt lat="43.50299" lon="6.81088">
        <ele>486</ele>
        <time>2013-09-18T12:07:27.000Z</time>
      </trkpt>
      <trkpt lat="43.50297" lon="6.81089">
        <ele>486</ele>
        <time>2013-09-18T12:07:28.000Z</time>
      </trkpt>
      <trkpt lat="43.50296" lon="6.8109">
        <ele>486</ele>
        <time>2013-09-18T12:07:29.000Z</time>
      </trkpt>
      <trkpt lat="43.50295" lon="6.81092">
        <ele>486</ele>
        <time>2013-09-18T12:07:30.000Z</time>
      </trkpt>
      <trkpt lat="43.50294" lon="6.81093">
        <ele>486</ele>
        <time>2013-09-18T12:07:31.000Z</time>
      </trkpt>
      <trkpt lat="43.50293" lon="6.81094">
        <ele>486</ele>
        <time>2013-09-18T12:07:32.000Z</time>
      </trkpt>
      <trkpt lat="43.50292" lon="6.81095">
        <ele>486</ele>
        <time>2013-09-18T12:07:33.000Z</time>
      </trkpt>
      <trkpt lat="43.50291" lon="6.81096">
        <ele>486</ele>
        <time>2013-09-18T12:07:34.000Z</time>
      </trkpt>
      <trkpt lat="43.5029" lon="6.81097">
        <ele>487</ele>
        <time>2013-09-18T12:07:35.000Z</time>
      </trkpt>
      <trkpt lat="43.50289" lon="6.81098">
        <ele>487</ele>
        <time>2013-09-18T12:07:36.000Z</time>
      </trkpt>
      <trkpt lat="43.50288" lon="6.81099">
        <ele>487</ele>
        <time>2013-09-18T12:07:37.000Z</time>
      </trkpt>
      <trkpt lat="43.50287" lon="6.811">
        <ele>487</ele>
        <time>2013-09-18T12:07:38.000Z</time>
      </trkpt>
      <trkpt lat="43.50286" lon="6.81101">
        <ele>487</ele>
        <time>2013-09-18T12:07:39.000Z</time>
      </trkpt>
      <trkpt lat="43.50285" lon="6.81102">
        <ele>487</ele>
        <time>2013-09-18T12:07:40.000Z</time>
      </trkpt>
      <trkpt lat="43.50283" lon="6.81103">
        <ele>487</ele>
        <time>2013-09-18T12:07:41.000Z</time>
      </trkpt>
      <trkpt lat="43.50282" lon="6.81104">
        <ele>487</ele>
        <time>2013-09-18T12:07:42.000Z</time>
      </trkpt>
      <trkpt lat="43.50281" lon="6.81105">
        <ele>487</ele>
        <time>2013-09-18T12:07:43.000Z</time>
      </trkpt>
      <trkpt lat="43.5028" lon="6.81106">
        <ele>487</ele>
        <time>2013-09-18T12:07:44.000Z</time>
      </trkpt>
      <trkpt lat="43.50279" lon="6.81107">
        <ele>487</ele>
        <time>2013-09-18T12:07:45.000Z</time>
      </trkpt>
      <trkpt lat="43.50278" lon="6.81107">
        <ele>487</ele>
        <time>2013-09-18T12:07:46.000Z</time>
      </trkpt>
      <trkpt lat="43.50277" lon="6.81108">
        <ele>487</ele>
        <time>2013-09-18T12:07:47.000Z</time>
      </trkpt>
      <trkpt lat="43.50276" lon="6.81109">
        <ele>487</ele>
        <time>2013-09-18T12:07:48.000Z</time>
      </trkpt>
      <trkpt lat="43.50275" lon="6.8111">
        <ele>487</ele>
        <time>2013-09-18T12:07:49.000Z</time>
      </trkpt>
      <trkpt lat="43.50274" lon="6.81111">
        <ele>487</ele>
        <time>2013-09-18T12:07:50.000Z</time>
      </trkpt>
      <trkpt lat="43.50273" lon="6.81112">
        <ele>487</ele>
        <time>2013-09-18T12:07:51.000Z</time>
      </trkpt>
      <trkpt lat="43.50271" lon="6.81112">
        <ele>487</ele>
        <time>2013-09-18T12:07:52.000Z</time>
      </trkpt>
      <trkpt lat="43.5027" lon="6.81113">
        <ele>487</ele>
        <time>2013-09-18T12:07:53.000Z</time>
      </trkpt>
      <trkpt lat="43.50269" lon="6.81114">
        <ele>487</ele>
        <time>2013-09-18T12:07:54.000Z</time>
      </trkpt>
      <trkpt lat="43.50267" lon="6.81115">
        <ele>487</ele>
        <time>2013-09-18T12:07:55.000Z</time>
      </trkpt>
      <trkpt lat="43.50266" lon="6.81116">
        <ele>488</ele>
        <time>2013-09-18T12:07:56.000Z</time>
      </trkpt>
      <trkpt lat="43.50265" lon="6.81117">
        <ele>488</ele>
        <time>2013-09-18T12:07:57.000Z</time>
      </trkpt>
      <trkpt lat="43.50264" lon="6.81118">
        <ele>488</ele>
        <time>2013-09-18T12:07:58.000Z</time>
      </trkpt>
      <trkpt lat="43.50263" lon="6.81119">
        <ele>488</ele>
        <time>2013-09-18T12:07:59.000Z</time>
      </trkpt>
      <trkpt lat="43.50261" lon="6.8112">
        <ele>488</ele>
        <time>2013-09-18T12:08:00.000Z</time>
      </trkpt>
      <trkpt lat="43.5026" lon="6.81121">
        <ele>488</ele>
        <time>2013-09-18T12:08:01.000Z</time>
      </trkpt>
      <trkpt lat="43.50259" lon="6.81122">
        <ele>489</ele>
        <time>2013-09-18T12:08:02.000Z</time>
      </trkpt>
      <trkpt lat="43.50258" lon="6.81123">
        <ele>489</ele>
        <time>2013-09-18T12:08:03.000Z</time>
      </trkpt>
      <trkpt lat="43.50256" lon="6.81124">
        <ele>489</ele>
        <time>2013-09-18T12:08:04.000Z</time>
      </trkpt>
      <trkpt lat="43.50255" lon="6.81125">
        <ele>489</ele>
        <time>2013-09-18T12:08:05.000Z</time>
      </trkpt>
      <trkpt lat="43.50254" lon="6.81125">
        <ele>489</ele>
        <time>2013-09-18T12:08:06.000Z</time>
      </trkpt>
      <trkpt lat="43.50252" lon="6.81126">
        <ele>489</ele>
        <time>2013-09-18T12:08:07.000Z</time>
      </trkpt>
      <trkpt lat="43.50251" lon="6.81127">
        <ele>490</ele>
        <time>2013-09-18T12:08:08.000Z</time>
      </trkpt>
      <trkpt lat="43.5025" lon="6.81128">
        <ele>479</ele>
        <time>2013-09-18T12:08:09.000Z</time>
      </trkpt>
      <trkpt lat="43.50248" lon="6.81128">
        <ele>479</ele>
        <time>2013-09-18T12:08:10.000Z</time>
      </trkpt>
      <trkpt lat="43.50247" lon="6.81129">
        <ele>479</ele>
        <time>2013-09-18T12:08:11.000Z</time>
      </trkpt>
      <trkpt lat="43.50245" lon="6.8113">
        <ele>479</ele>
        <time>2013-09-18T12:08:12.000Z</time>
      </trkpt>
      <trkpt lat="43.50244" lon="6.81131">
        <ele>479</ele>
        <time>2013-09-18T12:08:13.000Z</time>
      </trkpt>
      <trkpt lat="43.50243" lon="6.81131">
        <ele>479</ele>
        <time>2013-09-18T12:08:14.000Z</time>
      </trkpt>
      <trkpt lat="43.50241" lon="6.81132">
        <ele>480</ele>
        <time>2013-09-18T12:08:15.000Z</time>
      </trkpt>
      <trkpt lat="43.5024" lon="6.81133">
        <ele>480</ele>
        <time>2013-09-18T12:08:16.000Z</time>
      </trkpt>
      <trkpt lat="43.50239" lon="6.81134">
        <ele>480</ele>
        <time>2013-09-18T12:08:17.000Z</time>
      </trkpt>
      <trkpt lat="43.50238" lon="6.81135">
        <ele>480</ele>
        <time>2013-09-18T12:08:18.000Z</time>
      </trkpt>
      <trkpt lat="43.50236" lon="6.81136">
        <ele>480</ele>
        <time>2013-09-18T12:08:19.000Z</time>
      </trkpt>
      <trkpt lat="43.50235" lon="6.81137">
        <ele>480</ele>
        <time>2013-09-18T12:08:20.000Z</time>
      </trkpt>
      <trkpt lat="43.50234" lon="6.81138">
        <ele>480</ele>
        <time>2013-09-18T12:08:21.000Z</time>
      </trkpt>
      <trkpt lat="43.50233" lon="6.81139">
        <ele>480</ele>
        <time>2013-09-18T12:08:22.000Z</time>
      </trkpt>
      <trkpt lat="43.50232" lon="6.81141">
        <ele>481</ele>
        <time>2013-09-18T12:08:23.000Z</time>
      </trkpt>
      <trkpt lat="43.50231" lon="6.81142">
        <ele>481</ele>
        <time>2013-09-18T12:08:24.000Z</time>
      </trkpt>
      <trkpt lat="43.5023" lon="6.81143">
        <ele>481</ele>
        <time>2013-09-18T12:08:25.000Z</time>
      </trkpt>
      <trkpt lat="43.50229" lon="6.81145">
        <ele>481</ele>
        <time>2013-09-18T12:08:26.000Z</time>
      </trkpt>
      <trkpt lat="43.50228" lon="6.81146">
        <ele>481</ele>
        <time>2013-09-18T12:08:27.000Z</time>
      </trkpt>
      <trkpt lat="43.50227" lon="6.81147">
        <ele>481</ele>
        <time>2013-09-18T12:08:28.000Z</time>
      </trkpt>
      <trkpt lat="43.50226" lon="6.81149">
        <ele>481</ele>
        <time>2013-09-18T12:08:29.000Z</time>
      </trkpt>
      <trkpt lat="43.50225" lon="6.8115">
        <ele>481</ele>
        <time>2013-09-18T12:08:30.000Z</time>
      </trkpt>
      <trkpt lat="43.50225" lon="6.81152">
        <ele>481</ele>
        <time>2013-09-18T12:08:31.000Z</time>
      </trkpt>
      <trkpt lat="43.50224" lon="6.81153">
        <ele>481</ele>
        <time>2013-09-18T12:08:32.000Z</time>
      </trkpt>
      <trkpt lat="43.50223" lon="6.81155">
        <ele>481</ele>
        <time>2013-09-18T12:08:33.000Z</time>
      </trkpt>
      <trkpt lat="43.50223" lon="6.81156">
        <ele>482</ele>
        <time>2013-09-18T12:08:34.000Z</time>
      </trkpt>
      <trkpt lat="43.50222" lon="6.81158">
        <ele>481</ele>
        <time>2013-09-18T12:08:35.000Z</time>
      </trkpt>
      <trkpt lat="43.50221" lon="6.81159">
        <ele>481</ele>
        <time>2013-09-18T12:08:36.000Z</time>
      </trkpt>
      <trkpt lat="43.5022" lon="6.81161">
        <ele>481</ele>
        <time>2013-09-18T12:08:37.000Z</time>
      </trkpt>
      <trkpt lat="43.5022" lon="6.81163">
        <ele>481</ele>
        <time>2013-09-18T12:08:38.000Z</time>
      </trkpt>
      <trkpt lat="43.50219" lon="6.81164">
        <ele>481</ele>
        <time>2013-09-18T12:08:39.000Z</time>
      </trkpt>
      <trkpt lat="43.50218" lon="6.81166">
        <ele>481</ele>
        <time>2013-09-18T12:08:40.000Z</time>
      </trkpt>
      <trkpt lat="43.50218" lon="6.81168">
        <ele>491</ele>
        <time>2013-09-18T12:08:41.000Z</time>
      </trkpt>
      <trkpt lat="43.50218" lon="6.81169">
        <ele>491</ele>
        <time>2013-09-18T12:08:42.000Z</time>
      </trkpt>
      <trkpt lat="43.50217" lon="6.81171">
        <ele>491</ele>
        <time>2013-09-18T12:08:43.000Z</time>
      </trkpt>
      <trkpt lat="43.50217" lon="6.81173">
        <ele>490</ele>
        <time>2013-09-18T12:08:44.000Z</time>
      </trkpt>
      <trkpt lat="43.50216" lon="6.81174">
        <ele>490</ele>
        <time>2013-09-18T12:08:45.000Z</time>
      </trkpt>
      <trkpt lat="43.50216" lon="6.81175">
        <ele>490</ele>
        <time>2013-09-18T12:08:46.000Z</time>
      </trkpt>
      <trkpt lat="43.50215" lon="6.81177">
        <ele>490</ele>
        <time>2013-09-18T12:08:47.000Z</time>
      </trkpt>
      <trkpt lat="43.50215" lon="6.81179">
        <ele>490</ele>
        <time>2013-09-18T12:08:48.000Z</time>
      </trkpt>
      <trkpt lat="43.50215" lon="6.8118">
        <ele>490</ele>
        <time>2013-09-18T12:08:49.000Z</time>
      </trkpt>
      <trkpt lat="43.50214" lon="6.81182">
        <ele>490</ele>
        <time>2013-09-18T12:08:50.000Z</time>
      </trkpt>
      <trkpt lat="43.50214" lon="6.81184">
        <ele>490</ele>
        <time>2013-09-18T12:08:51.000Z</time>
      </trkpt>
      <trkpt lat="43.50214" lon="6.81186">
        <ele>490</ele>
        <time>2013-09-18T12:08:52.000Z</time>
      </trkpt>
      <trkpt lat="43.50214" lon="6.81187">
        <ele>490</ele>
        <time>2013-09-18T12:08:53.000Z</time>
      </trkpt>
      <trkpt lat="43.50213" lon="6.81189">
        <ele>490</ele>
        <time>2013-09-18T12:08:54.000Z</time>
      </trkpt>
      <trkpt lat="43.50213" lon="6.81193">
        <ele>490</ele>
        <time>2013-09-18T12:08:56.000Z</time>
      </trkpt>
      <trkpt lat="43.50213" lon="6.81195">
        <ele>490</ele>
        <time>2013-09-18T12:08:57.000Z</time>
      </trkpt>
      <trkpt lat="43.50212" lon="6.81196">
        <ele>490</ele>
        <time>2013-09-18T12:08:58.000Z</time>
      </trkpt>
      <trkpt lat="43.50212" lon="6.81198">
        <ele>490</ele>
        <time>2013-09-18T12:08:59.000Z</time>
      </trkpt>
      <trkpt lat="43.50212" lon="6.81209">
        <ele>491</ele>
        <time>2013-09-18T12:09:05.000Z</time>
      </trkpt>
      <trkpt lat="43.50213" lon="6.81212">
        <ele>491</ele>
        <time>2013-09-18T12:09:07.000Z</time>
      </trkpt>
      <trkpt lat="43.50213" lon="6.81214">
        <ele>491</ele>
        <time>2013-09-18T12:09:08.000Z</time>
      </trkpt>
      <trkpt lat="43.50213" lon="6.81216">
        <ele>491</ele>
        <time>2013-09-18T12:09:09.000Z</time>
      </trkpt>
      <trkpt lat="43.50212" lon="6.81218">
        <ele>491</ele>
        <time>2013-09-18T12:09:10.000Z</time>
      </trkpt>
      <trkpt lat="43.50212" lon="6.81225">
        <ele>492</ele>
        <time>2013-09-18T12:09:14.000Z</time>
      </trkpt>
      <trkpt lat="43.50212" lon="6.81229">
        <ele>492</ele>
        <time>2013-09-18T12:09:16.000Z</time>
      </trkpt>
      <trkpt lat="43.50213" lon="6.81233">
        <ele>492</ele>
        <time>2013-09-18T12:09:18.000Z</time>
      </trkpt>
      <trkpt lat="43.50212" lon="6.81235">
        <ele>492</ele>
        <time>2013-09-18T12:09:19.000Z</time>
      </trkpt>
      <trkpt lat="43.50213" lon="6.81237">
        <ele>492</ele>
        <time>2013-09-18T12:09:20.000Z</time>
      </trkpt>
      <trkpt lat="43.50213" lon="6.81239">
        <ele>493</ele>
        <time>2013-09-18T12:09:21.000Z</time>
      </trkpt>
      <trkpt lat="43.50213" lon="6.81241">
        <ele>493</ele>
        <time>2013-09-18T12:09:22.000Z</time>
      </trkpt>
      <trkpt lat="43.50213" lon="6.81245">
        <ele>493</ele>
        <time>2013-09-18T12:09:24.000Z</time>
      </trkpt>
      <trkpt lat="43.50213" lon="6.81247">
        <ele>493</ele>
        <time>2013-09-18T12:09:25.000Z</time>
      </trkpt>
      <trkpt lat="43.50214" lon="6.81249">
        <ele>493</ele>
        <time>2013-09-18T12:09:26.000Z</time>
      </trkpt>
      <trkpt lat="43.50214" lon="6.81254">
        <ele>498</ele>
        <time>2013-09-18T12:09:28.000Z</time>
      </trkpt>
      <trkpt lat="43.50214" lon="6.81256">
        <ele>498</ele>
        <time>2013-09-18T12:09:29.000Z</time>
      </trkpt>
      <trkpt lat="43.50214" lon="6.81262">
        <ele>498</ele>
        <time>2013-09-18T12:09:32.000Z</time>
      </trkpt>
      <trkpt lat="43.50214" lon="6.81264">
        <ele>498</ele>
        <time>2013-09-18T12:09:33.000Z</time>
      </trkpt>
      <trkpt lat="43.50214" lon="6.8127">
        <ele>498</ele>
        <time>2013-09-18T12:09:36.000Z</time>
      </trkpt>
      <trkpt lat="43.50214" lon="6.81272">
        <ele>498</ele>
        <time>2013-09-18T12:09:37.000Z</time>
      </trkpt>
      <trkpt lat="43.50215" lon="6.81274">
        <ele>498</ele>
        <time>2013-09-18T12:09:38.000Z</time>
      </trkpt>
      <trkpt lat="43.50215" lon="6.81292">
        <ele>499</ele>
        <time>2013-09-18T12:09:47.000Z</time>
      </trkpt>
      <trkpt lat="43.50215" lon="6.81294">
        <ele>499</ele>
        <time>2013-09-18T12:09:48.000Z</time>
      </trkpt>
      <trkpt lat="43.50214" lon="6.81296">
        <ele>499</ele>
        <time>2013-09-18T12:09:49.000Z</time>
      </trkpt>
      <trkpt lat="43.50214" lon="6.81301">
        <ele>499</ele>
        <time>2013-09-18T12:09:52.000Z</time>
      </trkpt>
      <trkpt lat="43.50214" lon="6.81303">
        <ele>499</ele>
        <time>2013-09-18T12:09:53.000Z</time>
      </trkpt>
      <trkpt lat="43.50214" lon="6.81307">
        <ele>499</ele>
        <time>2013-09-18T12:09:55.000Z</time>
      </trkpt>
      <trkpt lat="43.50214" lon="6.81311">
        <ele>500</ele>
        <time>2013-09-18T12:09:57.000Z</time>
      </trkpt>
      <trkpt lat="43.50215" lon="6.81313">
        <ele>500</ele>
        <time>2013-09-18T12:09:58.000Z</time>
      </trkpt>
      <trkpt lat="43.50215" lon="6.81314">
        <ele>500</ele>
        <time>2013-09-18T12:09:59.000Z</time>
      </trkpt>
      <trkpt lat="43.50215" lon="6.81316">
        <ele>500</ele>
        <time>2013-09-18T12:10:00.000Z</time>
      </trkpt>
      <trkpt lat="43.50215" lon="6.81321">
        <ele>501</ele>
        <time>2013-09-18T12:10:03.000Z</time>
      </trkpt>
      <trkpt lat="43.50214" lon="6.81322">
        <ele>500</ele>
        <time>2013-09-18T12:10:04.000Z</time>
      </trkpt>
      <trkpt lat="43.50214" lon="6.81324">
        <ele>500</ele>
        <time>2013-09-18T12:10:05.000Z</time>
      </trkpt>
      <trkpt lat="43.50214" lon="6.81325">
        <ele>500</ele>
        <time>2013-09-18T12:10:06.000Z</time>
      </trkpt>
      <trkpt lat="43.50214" lon="6.81329">
        <ele>501</ele>
        <time>2013-09-18T12:10:08.000Z</time>
      </trkpt>
      <trkpt lat="43.50214" lon="6.81334">
        <ele>506</ele>
        <time>2013-09-18T12:10:11.000Z</time>
      </trkpt>
      <trkpt lat="43.50214" lon="6.81335">
        <ele>506</ele>
        <time>2013-09-18T12:10:12.000Z</time>
      </trkpt>
      <trkpt lat="43.50214" lon="6.81337">
        <ele>506</ele>
        <time>2013-09-18T12:10:13.000Z</time>
      </trkpt>
      <trkpt lat="43.50213" lon="6.81339">
        <ele>506</ele>
        <time>2013-09-18T12:10:14.000Z</time>
      </trkpt>
      <trkpt lat="43.50213" lon="6.8134">
        <ele>505</ele>
        <time>2013-09-18T12:10:15.000Z</time>
      </trkpt>
      <trkpt lat="43.50213" lon="6.81342">
        <ele>505</ele>
        <time>2013-09-18T12:10:16.000Z</time>
      </trkpt>
      <trkpt lat="43.50213" lon="6.81343">
        <ele>505</ele>
        <time>2013-09-18T12:10:17.000Z</time>
      </trkpt>
      <trkpt lat="43.50212" lon="6.81345">
        <ele>505</ele>
        <time>2013-09-18T12:10:18.000Z</time>
      </trkpt>
      <trkpt lat="43.50212" lon="6.81349">
        <ele>505</ele>
        <time>2013-09-18T12:10:20.000Z</time>
      </trkpt>
      <trkpt lat="43.50212" lon="6.81355">
        <ele>505</ele>
        <time>2013-09-18T12:10:24.000Z</time>
      </trkpt>
      <trkpt lat="43.50212" lon="6.81359">
        <ele>506</ele>
        <time>2013-09-18T12:10:26.000Z</time>
      </trkpt>
      <trkpt lat="43.50212" lon="6.81361">
        <ele>506</ele>
        <time>2013-09-18T12:10:27.000Z</time>
      </trkpt>
      <trkpt lat="43.50211" lon="6.81362">
        <ele>505</ele>
        <time>2013-09-18T12:10:28.000Z</time>
      </trkpt>
      <trkpt lat="43.50211" lon="6.81364">
        <ele>505</ele>
        <time>2013-09-18T12:10:29.000Z</time>
      </trkpt>
      <trkpt lat="43.5021" lon="6.81365">
        <ele>505</ele>
        <time>2013-09-18T12:10:30.000Z</time>
      </trkpt>
      <trkpt lat="43.5021" lon="6.81367">
        <ele>505</ele>
        <time>2013-09-18T12:10:31.000Z</time>
      </trkpt>
      <trkpt lat="43.50209" lon="6.81369">
        <ele>505</ele>
        <time>2013-09-18T12:10:32.000Z</time>
      </trkpt>
      <trkpt lat="43.50208" lon="6.8137">
        <ele>505</ele>
        <time>2013-09-18T12:10:33.000Z</time>
      </trkpt>
      <trkpt lat="43.50207" lon="6.81371">
        <ele>505</ele>
        <time>2013-09-18T12:10:34.000Z</time>
      </trkpt>
      <trkpt lat="43.50206" lon="6.81373">
        <ele>505</ele>
        <time>2013-09-18T12:10:35.000Z</time>
      </trkpt>
      <trkpt lat="43.50205" lon="6.81374">
        <ele>505</ele>
        <time>2013-09-18T12:10:36.000Z</time>
      </trkpt>
      <trkpt lat="43.50204" lon="6.81376">
        <ele>505</ele>
        <time>2013-09-18T12:10:37.000Z</time>
      </trkpt>
      <trkpt lat="43.50203" lon="6.81377">
        <ele>504</ele>
        <time>2013-09-18T12:10:38.000Z</time>
      </trkpt>
      <trkpt lat="43.50203" lon="6.81378">
        <ele>504</ele>
        <time>2013-09-18T12:10:39.000Z</time>
      </trkpt>
      <trkpt lat="43.50202" lon="6.8138">
        <ele>504</ele>
        <time>2013-09-18T12:10:40.000Z</time>
      </trkpt>
      <trkpt lat="43.50201" lon="6.81381">
        <ele>504</ele>
        <time>2013-09-18T12:10:41.000Z</time>
      </trkpt>
      <trkpt lat="43.502" lon="6.81382">
        <ele>504</ele>
        <time>2013-09-18T12:10:42.000Z</time>
      </trkpt>
      <trkpt lat="43.50199" lon="6.81384">
        <ele>504</ele>
        <time>2013-09-18T12:10:43.000Z</time>
      </trkpt>
      <trkpt lat="43.50198" lon="6.81385">
        <ele>504</ele>
        <time>2013-09-18T12:10:44.000Z</time>
      </trkpt>
      <trkpt lat="43.50197" lon="6.81387">
        <ele>503</ele>
        <time>2013-09-18T12:10:45.000Z</time>
      </trkpt>
      <trkpt lat="43.50197" lon="6.81388">
        <ele>503</ele>
        <time>2013-09-18T12:10:46.000Z</time>
      </trkpt>
      <trkpt lat="43.50196" lon="6.8139">
        <ele>503</ele>
        <time>2013-09-18T12:10:47.000Z</time>
      </trkpt>
      <trkpt lat="43.50196" lon="6.81392">
        <ele>503</ele>
        <time>2013-09-18T12:10:48.000Z</time>
      </trkpt>
      <trkpt lat="43.50195" lon="6.81393">
        <ele>503</ele>
        <time>2013-09-18T12:10:49.000Z</time>
      </trkpt>
      <trkpt lat="43.50195" lon="6.81395">
        <ele>503</ele>
        <time>2013-09-18T12:10:50.000Z</time>
      </trkpt>
      <trkpt lat="43.50194" lon="6.81397">
        <ele>503</ele>
        <time>2013-09-18T12:10:51.000Z</time>
      </trkpt>
      <trkpt lat="43.50194" lon="6.81399">
        <ele>503</ele>
        <time>2013-09-18T12:10:52.000Z</time>
      </trkpt>
      <trkpt lat="43.50193" lon="6.814">
        <ele>502</ele>
        <time>2013-09-18T12:10:53.000Z</time>
      </trkpt>
      <trkpt lat="43.50193" lon="6.81402">
        <ele>502</ele>
        <time>2013-09-18T12:10:54.000Z</time>
      </trkpt>
      <trkpt lat="43.50193" lon="6.81404">
        <ele>502</ele>
        <time>2013-09-18T12:10:55.000Z</time>
      </trkpt>
      <trkpt lat="43.50192" lon="6.81406">
        <ele>502</ele>
        <time>2013-09-18T12:10:56.000Z</time>
      </trkpt>
      <trkpt lat="43.50192" lon="6.81409">
        <ele>502</ele>
        <time>2013-09-18T12:10:58.000Z</time>
      </trkpt>
      <trkpt lat="43.50192" lon="6.81411">
        <ele>502</ele>
        <time>2013-09-18T12:10:59.000Z</time>
      </trkpt>
      <trkpt lat="43.50192" lon="6.81412">
        <ele>502</ele>
        <time>2013-09-18T12:11:00.000Z</time>
      </trkpt>
      <trkpt lat="43.50191" lon="6.81414">
        <ele>501</ele>
        <time>2013-09-18T12:11:01.000Z</time>
      </trkpt>
      <trkpt lat="43.50191" lon="6.81416">
        <ele>501</ele>
        <time>2013-09-18T12:11:02.000Z</time>
      </trkpt>
      <trkpt lat="43.50191" lon="6.81423">
        <ele>507</ele>
        <time>2013-09-18T12:11:06.000Z</time>
      </trkpt>
      <trkpt lat="43.50191" lon="6.81425">
        <ele>507</ele>
        <time>2013-09-18T12:11:07.000Z</time>
      </trkpt>
      <trkpt lat="43.50191" lon="6.81427">
        <ele>507</ele>
        <time>2013-09-18T12:11:08.000Z</time>
      </trkpt>
      <trkpt lat="43.50191" lon="6.81429">
        <ele>507</ele>
        <time>2013-09-18T12:11:09.000Z</time>
      </trkpt>
      <trkpt lat="43.5019" lon="6.8143">
        <ele>507</ele>
        <time>2013-09-18T12:11:10.000Z</time>
      </trkpt>
      <trkpt lat="43.5019" lon="6.81432">
        <ele>508</ele>
        <time>2013-09-18T12:11:11.000Z</time>
      </trkpt>
      <trkpt lat="43.5019" lon="6.81435">
        <ele>508</ele>
        <time>2013-09-18T12:11:13.000Z</time>
      </trkpt>
      <trkpt lat="43.5019" lon="6.81437">
        <ele>508</ele>
        <time>2013-09-18T12:11:14.000Z</time>
      </trkpt>
      <trkpt lat="43.50189" lon="6.81439">
        <ele>508</ele>
        <time>2013-09-18T12:11:15.000Z</time>
      </trkpt>
      <trkpt lat="43.50189" lon="6.81441">
        <ele>509</ele>
        <time>2013-09-18T12:11:16.000Z</time>
      </trkpt>
      <trkpt lat="43.50189" lon="6.81442">
        <ele>509</ele>
        <time>2013-09-18T12:11:17.000Z</time>
      </trkpt>
      <trkpt lat="43.50189" lon="6.81444">
        <ele>509</ele>
        <time>2013-09-18T12:11:18.000Z</time>
      </trkpt>
      <trkpt lat="43.50189" lon="6.81446">
        <ele>509</ele>
        <time>2013-09-18T12:11:19.000Z</time>
      </trkpt>
      <trkpt lat="43.50189" lon="6.81447">
        <ele>509</ele>
        <time>2013-09-18T12:11:20.000Z</time>
      </trkpt>
      <trkpt lat="43.50188" lon="6.81451">
        <ele>510</ele>
        <time>2013-09-18T12:11:22.000Z</time>
      </trkpt>
      <trkpt lat="43.50189" lon="6.81457">
        <ele>510</ele>
        <time>2013-09-18T12:11:25.000Z</time>
      </trkpt>
      <trkpt lat="43.50189" lon="6.81458">
        <ele>510</ele>
        <time>2013-09-18T12:11:26.000Z</time>
      </trkpt>
      <trkpt lat="43.50189" lon="6.8146">
        <ele>510</ele>
        <time>2013-09-18T12:11:27.000Z</time>
      </trkpt>
      <trkpt lat="43.50189" lon="6.81462">
        <ele>511</ele>
        <time>2013-09-18T12:11:28.000Z</time>
      </trkpt>
      <trkpt lat="43.50189" lon="6.81465">
        <ele>511</ele>
        <time>2013-09-18T12:11:30.000Z</time>
      </trkpt>
      <trkpt lat="43.5019" lon="6.81467">
        <ele>511</ele>
        <time>2013-09-18T12:11:31.000Z</time>
      </trkpt>
      <trkpt lat="43.5019" lon="6.81469">
        <ele>511</ele>
        <time>2013-09-18T12:11:32.000Z</time>
      </trkpt>
      <trkpt lat="43.5019" lon="6.81473">
        <ele>511</ele>
        <time>2013-09-18T12:11:34.000Z</time>
      </trkpt>
      <trkpt lat="43.5019" lon="6.81474">
        <ele>511</ele>
        <time>2013-09-18T12:11:35.000Z</time>
      </trkpt>
      <trkpt lat="43.50191" lon="6.81476">
        <ele>511</ele>
        <time>2013-09-18T12:11:36.000Z</time>
      </trkpt>
      <trkpt lat="43.50191" lon="6.81478">
        <ele>511</ele>
        <time>2013-09-18T12:11:37.000Z</time>
      </trkpt>
      <trkpt lat="43.50191" lon="6.8148">
        <ele>511</ele>
        <time>2013-09-18T12:11:38.000Z</time>
      </trkpt>
      <trkpt lat="43.50192" lon="6.81481">
        <ele>511</ele>
        <time>2013-09-18T12:11:39.000Z</time>
      </trkpt>
      <trkpt lat="43.50192" lon="6.81483">
        <ele>511</ele>
        <time>2013-09-18T12:11:40.000Z</time>
      </trkpt>
      <trkpt lat="43.50192" lon="6.81485">
        <ele>511</ele>
        <time>2013-09-18T12:11:41.000Z</time>
      </trkpt>
      <trkpt lat="43.50192" lon="6.81487">
        <ele>511</ele>
        <time>2013-09-18T12:11:42.000Z</time>
      </trkpt>
      <trkpt lat="43.50193" lon="6.81488">
        <ele>511</ele>
        <time>2013-09-18T12:11:43.000Z</time>
      </trkpt>
      <trkpt lat="43.50193" lon="6.8149">
        <ele>511</ele>
        <time>2013-09-18T12:11:44.000Z</time>
      </trkpt>
      <trkpt lat="43.50193" lon="6.81492">
        <ele>511</ele>
        <time>2013-09-18T12:11:45.000Z</time>
      </trkpt>
      <trkpt lat="43.50193" lon="6.81494">
        <ele>511</ele>
        <time>2013-09-18T12:11:46.000Z</time>
      </trkpt>
      <trkpt lat="43.50194" lon="6.81498">
        <ele>511</ele>
        <time>2013-09-18T12:11:48.000Z</time>
      </trkpt>
      <trkpt lat="43.50193" lon="6.81499">
        <ele>511</ele>
        <time>2013-09-18T12:11:49.000Z</time>
      </trkpt>
      <trkpt lat="43.50194" lon="6.81501">
        <ele>514</ele>
        <time>2013-09-18T12:11:50.000Z</time>
      </trkpt>
      <trkpt lat="43.50194" lon="6.81505">
        <ele>515</ele>
        <time>2013-09-18T12:11:52.000Z</time>
      </trkpt>
      <trkpt lat="43.50194" lon="6.81507">
        <ele>515</ele>
        <time>2013-09-18T12:11:53.000Z</time>
      </trkpt>
      <trkpt lat="43.50194" lon="6.81509">
        <ele>515</ele>
        <time>2013-09-18T12:11:54.000Z</time>
      </trkpt>
      <trkpt lat="43.50194" lon="6.81511">
        <ele>515</ele>
        <time>2013-09-18T12:11:55.000Z</time>
      </trkpt>
      <trkpt lat="43.50195" lon="6.81513">
        <ele>515</ele>
        <time>2013-09-18T12:11:56.000Z</time>
      </trkpt>
      <trkpt lat="43.50195" lon="6.81515">
        <ele>516</ele>
        <time>2013-09-18T12:11:57.000Z</time>
      </trkpt>
      <trkpt lat="43.50195" lon="6.8152">
        <ele>516</ele>
        <time>2013-09-18T12:11:59.000Z</time>
      </trkpt>
      <trkpt lat="43.50195" lon="6.81522">
        <ele>517</ele>
        <time>2013-09-18T12:12:00.000Z</time>
      </trkpt>
      <trkpt lat="43.50195" lon="6.81524">
        <ele>517</ele>
        <time>2013-09-18T12:12:01.000Z</time>
      </trkpt>
      <trkpt lat="43.50196" lon="6.81528">
        <ele>517</ele>
        <time>2013-09-18T12:12:03.000Z</time>
      </trkpt>
      <trkpt lat="43.50196" lon="6.8153">
        <ele>517</ele>
        <time>2013-09-18T12:12:04.000Z</time>
      </trkpt>
      <trkpt lat="43.50196" lon="6.81536">
        <ele>518</ele>
        <time>2013-09-18T12:12:07.000Z</time>
      </trkpt>
      <trkpt lat="43.50196" lon="6.81538">
        <ele>518</ele>
        <time>2013-09-18T12:12:08.000Z</time>
      </trkpt>
      <trkpt lat="43.50196" lon="6.81546">
        <ele>518</ele>
        <time>2013-09-18T12:12:12.000Z</time>
      </trkpt>
      <trkpt lat="43.50196" lon="6.8155">
        <ele>518</ele>
        <time>2013-09-18T12:12:14.000Z</time>
      </trkpt>
      <trkpt lat="43.50196" lon="6.81556">
        <ele>518</ele>
        <time>2013-09-18T12:12:17.000Z</time>
      </trkpt>
      <trkpt lat="43.50197" lon="6.81558">
        <ele>518</ele>
        <time>2013-09-18T12:12:18.000Z</time>
      </trkpt>
      <trkpt lat="43.50197" lon="6.8156">
        <ele>518</ele>
        <time>2013-09-18T12:12:19.000Z</time>
      </trkpt>
      <trkpt lat="43.50197" lon="6.81562">
        <ele>518</ele>
        <time>2013-09-18T12:12:20.000Z</time>
      </trkpt>
      <trkpt lat="43.50197" lon="6.81564">
        <ele>518</ele>
        <time>2013-09-18T12:12:21.000Z</time>
      </trkpt>
      <trkpt lat="43.50198" lon="6.81566">
        <ele>518</ele>
        <time>2013-09-18T12:12:22.000Z</time>
      </trkpt>
      <trkpt lat="43.50198" lon="6.81568">
        <ele>518</ele>
        <time>2013-09-18T12:12:23.000Z</time>
      </trkpt>
      <trkpt lat="43.50199" lon="6.8157">
        <ele>518</ele>
        <time>2013-09-18T12:12:24.000Z</time>
      </trkpt>
      <trkpt lat="43.50199" lon="6.81572">
        <ele>518</ele>
        <time>2013-09-18T12:12:25.000Z</time>
      </trkpt>
      <trkpt lat="43.502" lon="6.81574">
        <ele>518</ele>
        <time>2013-09-18T12:12:26.000Z</time>
      </trkpt>
      <trkpt lat="43.502" lon="6.81576">
        <ele>519</ele>
        <time>2013-09-18T12:12:27.000Z</time>
      </trkpt>
      <trkpt lat="43.50201" lon="6.81578">
        <ele>519</ele>
        <time>2013-09-18T12:12:28.000Z</time>
      </trkpt>
      <trkpt lat="43.50201" lon="6.8158">
        <ele>519</ele>
        <time>2013-09-18T12:12:29.000Z</time>
      </trkpt>
      <trkpt lat="43.50202" lon="6.81582">
        <ele>519</ele>
        <time>2013-09-18T12:12:30.000Z</time>
      </trkpt>
      <trkpt lat="43.50202" lon="6.81583">
        <ele>519</ele>
        <time>2013-09-18T12:12:31.000Z</time>
      </trkpt>
      <trkpt lat="43.50203" lon="6.81585">
        <ele>522</ele>
        <time>2013-09-18T12:12:32.000Z</time>
      </trkpt>
      <trkpt lat="43.50203" lon="6.81587">
        <ele>522</ele>
        <time>2013-09-18T12:12:33.000Z</time>
      </trkpt>
      <trkpt lat="43.50204" lon="6.81589">
        <ele>522</ele>
        <time>2013-09-18T12:12:34.000Z</time>
      </trkpt>
      <trkpt lat="43.50204" lon="6.81591">
        <ele>522</ele>
        <time>2013-09-18T12:12:35.000Z</time>
      </trkpt>
      <trkpt lat="43.50205" lon="6.81593">
        <ele>523</ele>
        <time>2013-09-18T12:12:36.000Z</time>
      </trkpt>
      <trkpt lat="43.50206" lon="6.81595">
        <ele>523</ele>
        <time>2013-09-18T12:12:37.000Z</time>
      </trkpt>
      <trkpt lat="43.50206" lon="6.81596">
        <ele>523</ele>
        <time>2013-09-18T12:12:38.000Z</time>
      </trkpt>
      <trkpt lat="43.50207" lon="6.81598">
        <ele>524</ele>
        <time>2013-09-18T12:12:39.000Z</time>
      </trkpt>
      <trkpt lat="43.50208" lon="6.816">
        <ele>524</ele>
        <time>2013-09-18T12:12:40.000Z</time>
      </trkpt>
      <trkpt lat="43.50208" lon="6.81602">
        <ele>524</ele>
        <time>2013-09-18T12:12:41.000Z</time>
      </trkpt>
      <trkpt lat="43.50209" lon="6.81604">
        <ele>524</ele>
        <time>2013-09-18T12:12:42.000Z</time>
      </trkpt>
      <trkpt lat="43.50209" lon="6.81606">
        <ele>525</ele>
        <time>2013-09-18T12:12:43.000Z</time>
      </trkpt>
      <trkpt lat="43.50209" lon="6.81607">
        <ele>525</ele>
        <time>2013-09-18T12:12:44.000Z</time>
      </trkpt>
      <trkpt lat="43.5021" lon="6.81609">
        <ele>525</ele>
        <time>2013-09-18T12:12:45.000Z</time>
      </trkpt>
      <trkpt lat="43.5021" lon="6.81611">
        <ele>525</ele>
        <time>2013-09-18T12:12:46.000Z</time>
      </trkpt>
      <trkpt lat="43.5021" lon="6.81612">
        <ele>525</ele>
        <time>2013-09-18T12:12:47.000Z</time>
      </trkpt>
      <trkpt lat="43.50211" lon="6.81613">
        <ele>525</ele>
        <time>2013-09-18T12:12:48.000Z</time>
      </trkpt>
      <trkpt lat="43.5021" lon="6.81613">
        <ele>525</ele>
        <time>2013-09-18T12:12:59.000Z</time>
      </trkpt>
      <trkpt lat="43.5021" lon="6.81613">
        <ele>525</ele>
        <time>2013-09-18T12:13:02.000Z</time>
      </trkpt>
      <trkpt lat="43.5021" lon="6.81613">
        <ele>525</ele>
        <time>2013-09-18T12:13:04.000Z</time>
      </trkpt>
      <trkpt lat="43.50209" lon="6.81613">
        <ele>525</ele>
        <time>2013-09-18T12:13:09.000Z</time>
      </trkpt>
      <trkpt lat="43.50209" lon="6.81613">
        <ele>525</ele>
        <time>2013-09-18T12:13:13.000Z</time>
      </trkpt>
      <trkpt lat="43.50209" lon="6.81613">
        <ele>525</ele>
        <time>2013-09-18T12:13:16.000Z</time>
      </trkpt>
      <trkpt lat="43.50209" lon="6.81613">
        <ele>525</ele>
        <time>2013-09-18T12:13:25.000Z</time>
      </trkpt>
      <trkpt lat="43.5021" lon="6.81614">
        <ele>525</ele>
        <time>2013-09-18T12:13:26.000Z</time>
      </trkpt>
      <trkpt lat="43.5021" lon="6.81614">
        <ele>525</ele>
        <time>2013-09-18T12:13:28.000Z</time>
      </trkpt>
      <trkpt lat="43.5021" lon="6.81614">
        <ele>525</ele>
        <time>2013-09-18T12:13:33.000Z</time>
      </trkpt>
      <trkpt lat="43.5021" lon="6.81614">
        <ele>525</ele>
        <time>2013-09-18T12:13:38.000Z</time>
      </trkpt>
      <trkpt lat="43.5021" lon="6.81614">
        <ele>525</ele>
        <time>2013-09-18T12:13:46.000Z</time>
      </trkpt>
      <trkpt lat="43.5021" lon="6.81614">
        <ele>525</ele>
        <time>2013-09-18T12:13:51.000Z</time>
      </trkpt>
      <trkpt lat="43.5021" lon="6.81614">
        <ele>525</ele>
        <time>2013-09-18T12:13:54.000Z</time>
      </trkpt>
      <trkpt lat="43.5021" lon="6.81614">
        <ele>525</ele>
        <time>2013-09-18T12:13:59.000Z</time>
      </trkpt>
      <trkpt lat="43.50209" lon="6.81614">
        <ele>525</ele>
        <time>2013-09-18T12:14:01.000Z</time>
      </trkpt>
      <trkpt lat="43.50209" lon="6.81614">
        <ele>525</ele>
        <time>2013-09-18T12:14:06.000Z</time>
      </trkpt>
      <trkpt lat="43.50209" lon="6.81614">
        <ele>525</ele>
        <time>2013-09-18T12:14:10.000Z</time>
      </trkpt>
      <trkpt lat="43.50209" lon="6.81613">
        <ele>525</ele>
        <time>2013-09-18T12:14:12.000Z</time>
      </trkpt>
      <trkpt lat="43.50209" lon="6.81613">
        <ele>525</ele>
        <time>2013-09-18T12:14:14.000Z</time>
      </trkpt>
      <trkpt lat="43.50209" lon="6.81613">
        <ele>525</ele>
        <time>2013-09-18T12:14:20.000Z</time>
      </trkpt>
      <trkpt lat="43.50209" lon="6.81612">
        <ele>525</ele>
        <time>2013-09-18T12:14:36.000Z</time>
      </trkpt>
      <trkpt lat="43.50209" lon="6.81612">
        <ele>525</ele>
        <time>2013-09-18T12:14:41.000Z</time>
      </trkpt>
      <trkpt lat="43.50209" lon="6.81611">
        <ele>525</ele>
        <time>2013-09-18T12:14:45.000Z</time>
      </trkpt>
      <trkpt lat="43.50209" lon="6.81611">
        <ele>525</ele>
        <time>2013-09-18T12:14:49.000Z</time>
      </trkpt>
      <trkpt lat="43.50209" lon="6.81611">
        <ele>525</ele>
        <time>2013-09-18T12:14:51.000Z</time>
      </trkpt>
      <trkpt lat="43.50209" lon="6.81612">
        <ele>525</ele>
        <time>2013-09-18T12:14:54.000Z</time>
      </trkpt>
      <trkpt lat="43.50208" lon="6.81612">
        <ele>524</ele>
        <time>2013-09-18T12:14:57.000Z</time>
      </trkpt>
      <trkpt lat="43.50208" lon="6.81612">
        <ele>524</ele>
        <time>2013-09-18T12:14:59.000Z</time>
      </trkpt>
      <trkpt lat="43.50208" lon="6.81612">
        <ele>524</ele>
        <time>2013-09-18T12:15:03.000Z</time>
      </trkpt>
      <trkpt lat="43.50208" lon="6.81612">
        <ele>524</ele>
        <time>2013-09-18T12:15:06.000Z</time>
      </trkpt>
      <trkpt lat="43.50208" lon="6.81612">
        <ele>524</ele>
        <time>2013-09-18T12:15:09.000Z</time>
      </trkpt>
      <trkpt lat="43.50207" lon="6.81613">
        <ele>524</ele>
        <time>2013-09-18T12:15:14.000Z</time>
      </trkpt>
      <trkpt lat="43.50207" lon="6.81613">
        <ele>524</ele>
        <time>2013-09-18T12:15:17.000Z</time>
      </trkpt>
      <trkpt lat="43.50207" lon="6.81613">
        <ele>524</ele>
        <time>2013-09-18T12:15:26.000Z</time>
      </trkpt>
      <trkpt lat="43.50208" lon="6.81613">
        <ele>524</ele>
        <time>2013-09-18T12:15:31.000Z</time>
      </trkpt>
      <trkpt lat="43.50208" lon="6.81614">
        <ele>524</ele>
        <time>2013-09-18T12:15:32.000Z</time>
      </trkpt>
      <trkpt lat="43.50208" lon="6.81615">
        <ele>524</ele>
        <time>2013-09-18T12:15:33.000Z</time>
      </trkpt>
      <trkpt lat="43.50208" lon="6.81616">
        <ele>525</ele>
        <time>2013-09-18T12:15:34.000Z</time>
      </trkpt>
      <trkpt lat="43.50208" lon="6.81616">
        <ele>525</ele>
        <time>2013-09-18T12:15:35.000Z</time>
      </trkpt>
      <trkpt lat="43.50209" lon="6.81617">
        <ele>525</ele>
        <time>2013-09-18T12:15:36.000Z</time>
      </trkpt>
      <trkpt lat="43.50209" lon="6.81618">
        <ele>525</ele>
        <time>2013-09-18T12:15:37.000Z</time>
      </trkpt>
      <trkpt lat="43.50209" lon="6.81618">
        <ele>525</ele>
        <time>2013-09-18T12:15:38.000Z</time>
      </trkpt>
      <trkpt lat="43.50209" lon="6.81618">
        <ele>525</ele>
        <time>2013-09-18T12:15:40.000Z</time>
      </trkpt>
      <trkpt lat="43.50209" lon="6.81619">
        <ele>525</ele>
        <time>2013-09-18T12:15:41.000Z</time>
      </trkpt>
      <trkpt lat="43.50209" lon="6.81623">
        <ele>525</ele>
        <time>2013-09-18T12:15:44.000Z</time>
      </trkpt>
      <trkpt lat="43.50209" lon="6.81623">
        <ele>525</ele>
        <time>2013-09-18T12:15:45.000Z</time>
      </trkpt>
      <trkpt lat="43.5021" lon="6.81623">
        <ele>525</ele>
        <time>2013-09-18T12:15:46.000Z</time>
      </trkpt>
      <trkpt lat="43.5021" lon="6.81625">
        <ele>525</ele>
        <time>2013-09-18T12:15:50.000Z</time>
      </trkpt>
      <trkpt lat="43.5021" lon="6.81624">
        <ele>525</ele>
        <time>2013-09-18T12:15:53.000Z</time>
      </trkpt>
      <trkpt lat="43.5021" lon="6.81626">
        <ele>525</ele>
        <time>2013-09-18T12:15:55.000Z</time>
      </trkpt>
      <trkpt lat="43.5021" lon="6.81628">
        <ele>525</ele>
        <time>2013-09-18T12:15:57.000Z</time>
      </trkpt>
      <trkpt lat="43.5021" lon="6.81629">
        <ele>525</ele>
        <time>2013-09-18T12:15:58.000Z</time>
      </trkpt>
      <trkpt lat="43.5021" lon="6.81629">
        <ele>525</ele>
        <time>2013-09-18T12:15:59.000Z</time>
      </trkpt>
      <trkpt lat="43.5021" lon="6.81629">
        <ele>525</ele>
        <time>2013-09-18T12:16:00.000Z</time>
      </trkpt>
      <trkpt lat="43.5021" lon="6.81629">
        <ele>525</ele>
        <time>2013-09-18T12:16:04.000Z</time>
      </trkpt>
      <trkpt lat="43.50211" lon="6.81629">
        <ele>525</ele>
        <time>2013-09-18T12:16:06.000Z</time>
      </trkpt>
      <trkpt lat="43.50211" lon="6.81629">
        <ele>525</ele>
        <time>2013-09-18T12:16:09.000Z</time>
      </trkpt>
      <trkpt lat="43.50211" lon="6.81629">
        <ele>525</ele>
        <time>2013-09-18T12:16:13.000Z</time>
      </trkpt>
      <trkpt lat="43.5021" lon="6.81629">
        <ele>525</ele>
        <time>2013-09-18T12:16:16.000Z</time>
      </trkpt>
      <trkpt lat="43.5021" lon="6.81629">
        <ele>525</ele>
        <time>2013-09-18T12:16:18.000Z</time>
      </trkpt>
      <trkpt lat="43.5021" lon="6.81629">
        <ele>525</ele>
        <time>2013-09-18T12:16:24.000Z</time>
      </trkpt>
      <trkpt lat="43.5021" lon="6.8163">
        <ele>525</ele>
        <time>2013-09-18T12:16:27.000Z</time>
      </trkpt>
      <trkpt lat="43.50209" lon="6.8163">
        <ele>525</ele>
        <time>2013-09-18T12:16:29.000Z</time>
      </trkpt>
      <trkpt lat="43.50209" lon="6.81629">
        <ele>525</ele>
        <time>2013-09-18T12:16:30.000Z</time>
      </trkpt>
      <trkpt lat="43.50209" lon="6.81629">
        <ele>525</ele>
        <time>2013-09-18T12:16:36.000Z</time>
      </trkpt>
      <trkpt lat="43.50209" lon="6.81629">
        <ele>525</ele>
        <time>2013-09-18T12:16:39.000Z</time>
      </trkpt>
      <trkpt lat="43.5021" lon="6.8163">
        <ele>525</ele>
        <time>2013-09-18T12:16:46.000Z</time>
      </trkpt>
      <trkpt lat="43.50209" lon="6.8163">
        <ele>525</ele>
        <time>2013-09-18T12:16:49.000Z</time>
      </trkpt>
      <trkpt lat="43.5021" lon="6.8163">
        <ele>525</ele>
        <time>2013-09-18T12:16:52.000Z</time>
      </trkpt>
      <trkpt lat="43.5021" lon="6.8163">
        <ele>525</ele>
        <time>2013-09-18T12:16:56.000Z</time>
      </trkpt>
      <trkpt lat="43.5021" lon="6.8163">
        <ele>525</ele>
        <time>2013-09-18T12:16:58.000Z</time>
      </trkpt>
      <trkpt lat="43.5021" lon="6.81631">
        <ele>525</ele>
        <time>2013-09-18T12:17:01.000Z</time>
      </trkpt>
      <trkpt lat="43.50211" lon="6.8163">
        <ele>525</ele>
        <time>2013-09-18T12:17:12.000Z</time>
      </trkpt>
      <trkpt lat="43.50212" lon="6.8163">
        <ele>526</ele>
        <time>2013-09-18T12:17:17.000Z</time>
      </trkpt>
      <trkpt lat="43.50212" lon="6.81631">
        <ele>526</ele>
        <time>2013-09-18T12:17:19.000Z</time>
      </trkpt>
      <trkpt lat="43.50212" lon="6.81633">
        <ele>526</ele>
        <time>2013-09-18T12:17:23.000Z</time>
      </trkpt>
      <trkpt lat="43.50211" lon="6.81635">
        <ele>526</ele>
        <time>2013-09-18T12:17:26.000Z</time>
      </trkpt>
      <trkpt lat="43.50211" lon="6.81636">
        <ele>526</ele>
        <time>2013-09-18T12:17:27.000Z</time>
      </trkpt>
      <trkpt lat="43.50211" lon="6.81637">
        <ele>526</ele>
        <time>2013-09-18T12:17:28.000Z</time>
      </trkpt>
      <trkpt lat="43.50211" lon="6.81639">
        <ele>526</ele>
        <time>2013-09-18T12:17:29.000Z</time>
      </trkpt>
      <trkpt lat="43.50211" lon="6.81642">
        <ele>526</ele>
        <time>2013-09-18T12:17:31.000Z</time>
      </trkpt>
      <trkpt lat="43.50211" lon="6.81647">
        <ele>526</ele>
        <time>2013-09-18T12:17:33.000Z</time>
      </trkpt>
      <trkpt lat="43.5021" lon="6.81649">
        <ele>526</ele>
        <time>2013-09-18T12:17:34.000Z</time>
      </trkpt>
      <trkpt lat="43.5021" lon="6.81651">
        <ele>526</ele>
        <time>2013-09-18T12:17:35.000Z</time>
      </trkpt>
      <trkpt lat="43.5021" lon="6.81653">
        <ele>526</ele>
        <time>2013-09-18T12:17:36.000Z</time>
      </trkpt>
      <trkpt lat="43.50209" lon="6.81655">
        <ele>526</ele>
        <time>2013-09-18T12:17:37.000Z</time>
      </trkpt>
      <trkpt lat="43.50209" lon="6.81657">
        <ele>525</ele>
        <time>2013-09-18T12:17:38.000Z</time>
      </trkpt>
      <trkpt lat="43.50208" lon="6.81659">
        <ele>525</ele>
        <time>2013-09-18T12:17:39.000Z</time>
      </trkpt>
      <trkpt lat="43.50208" lon="6.81662">
        <ele>525</ele>
        <time>2013-09-18T12:17:40.000Z</time>
      </trkpt>
      <trkpt lat="43.50208" lon="6.81664">
        <ele>525</ele>
        <time>2013-09-18T12:17:41.000Z</time>
      </trkpt>
      <trkpt lat="43.50208" lon="6.81667">
        <ele>531</ele>
        <time>2013-09-18T12:17:42.000Z</time>
      </trkpt>
      <trkpt lat="43.50207" lon="6.81669">
        <ele>531</ele>
        <time>2013-09-18T12:17:43.000Z</time>
      </trkpt>
      <trkpt lat="43.50207" lon="6.81671">
        <ele>531</ele>
        <time>2013-09-18T12:17:44.000Z</time>
      </trkpt>
      <trkpt lat="43.50206" lon="6.81674">
        <ele>531</ele>
        <time>2013-09-18T12:17:45.000Z</time>
      </trkpt>
      <trkpt lat="43.50206" lon="6.81677">
        <ele>531</ele>
        <time>2013-09-18T12:17:46.000Z</time>
      </trkpt>
      <trkpt lat="43.50205" lon="6.8168">
        <ele>531</ele>
        <time>2013-09-18T12:17:47.000Z</time>
      </trkpt>
      <trkpt lat="43.50204" lon="6.81682">
        <ele>531</ele>
        <time>2013-09-18T12:17:48.000Z</time>
      </trkpt>
      <trkpt lat="43.50203" lon="6.81685">
        <ele>531</ele>
        <time>2013-09-18T12:17:49.000Z</time>
      </trkpt>
      <trkpt lat="43.50202" lon="6.81687">
        <ele>531</ele>
        <time>2013-09-18T12:17:50.000Z</time>
      </trkpt>
      <trkpt lat="43.50201" lon="6.81689">
        <ele>531</ele>
        <time>2013-09-18T12:17:51.000Z</time>
      </trkpt>
      <trkpt lat="43.502" lon="6.81691">
        <ele>531</ele>
        <time>2013-09-18T12:17:52.000Z</time>
      </trkpt>
      <trkpt lat="43.50199" lon="6.81693">
        <ele>531</ele>
        <time>2013-09-18T12:17:53.000Z</time>
      </trkpt>
      <trkpt lat="43.50197" lon="6.81694">
        <ele>531</ele>
        <time>2013-09-18T12:17:54.000Z</time>
      </trkpt>
      <trkpt lat="43.50196" lon="6.81696">
        <ele>531</ele>
        <time>2013-09-18T12:17:55.000Z</time>
      </trkpt>
      <trkpt lat="43.50195" lon="6.81698">
        <ele>531</ele>
        <time>2013-09-18T12:17:56.000Z</time>
      </trkpt>
      <trkpt lat="43.50194" lon="6.817">
        <ele>531</ele>
        <time>2013-09-18T12:17:57.000Z</time>
      </trkpt>
      <trkpt lat="43.50193" lon="6.81702">
        <ele>532</ele>
        <time>2013-09-18T12:17:58.000Z</time>
      </trkpt>
      <trkpt lat="43.50191" lon="6.81703">
        <ele>532</ele>
        <time>2013-09-18T12:17:59.000Z</time>
      </trkpt>
      <trkpt lat="43.5019" lon="6.81705">
        <ele>532</ele>
        <time>2013-09-18T12:18:00.000Z</time>
      </trkpt>
      <trkpt lat="43.50189" lon="6.81706">
        <ele>532</ele>
        <time>2013-09-18T12:18:01.000Z</time>
      </trkpt>
      <trkpt lat="43.50187" lon="6.81708">
        <ele>532</ele>
        <time>2013-09-18T12:18:02.000Z</time>
      </trkpt>
      <trkpt lat="43.50186" lon="6.81709">
        <ele>532</ele>
        <time>2013-09-18T12:18:03.000Z</time>
      </trkpt>
      <trkpt lat="43.50185" lon="6.81711">
        <ele>532</ele>
        <time>2013-09-18T12:18:04.000Z</time>
      </trkpt>
      <trkpt lat="43.50184" lon="6.81712">
        <ele>533</ele>
        <time>2013-09-18T12:18:05.000Z</time>
      </trkpt>
      <trkpt lat="43.50183" lon="6.81714">
        <ele>533</ele>
        <time>2013-09-18T12:18:06.000Z</time>
      </trkpt>
      <trkpt lat="43.50182" lon="6.81715">
        <ele>533</ele>
        <time>2013-09-18T12:18:07.000Z</time>
      </trkpt>
      <trkpt lat="43.50181" lon="6.81716">
        <ele>533</ele>
        <time>2013-09-18T12:18:08.000Z</time>
      </trkpt>
      <trkpt lat="43.50179" lon="6.81717">
        <ele>533</ele>
        <time>2013-09-18T12:18:09.000Z</time>
      </trkpt>
      <trkpt lat="43.50178" lon="6.81719">
        <ele>533</ele>
        <time>2013-09-18T12:18:10.000Z</time>
      </trkpt>
      <trkpt lat="43.50177" lon="6.8172">
        <ele>533</ele>
        <time>2013-09-18T12:18:11.000Z</time>
      </trkpt>
      <trkpt lat="43.50176" lon="6.81721">
        <ele>534</ele>
        <time>2013-09-18T12:18:12.000Z</time>
      </trkpt>
      <trkpt lat="43.50175" lon="6.81723">
        <ele>534</ele>
        <time>2013-09-18T12:18:13.000Z</time>
      </trkpt>
      <trkpt lat="43.50173" lon="6.81724">
        <ele>534</ele>
        <time>2013-09-18T12:18:14.000Z</time>
      </trkpt>
      <trkpt lat="43.50172" lon="6.81725">
        <ele>534</ele>
        <time>2013-09-18T12:18:15.000Z</time>
      </trkpt>
      <trkpt lat="43.50171" lon="6.81726">
        <ele>535</ele>
        <time>2013-09-18T12:18:16.000Z</time>
      </trkpt>
      <trkpt lat="43.50169" lon="6.81728">
        <ele>535</ele>
        <time>2013-09-18T12:18:17.000Z</time>
      </trkpt>
      <trkpt lat="43.50168" lon="6.81729">
        <ele>535</ele>
        <time>2013-09-18T12:18:18.000Z</time>
      </trkpt>
      <trkpt lat="43.50167" lon="6.8173">
        <ele>535</ele>
        <time>2013-09-18T12:18:19.000Z</time>
      </trkpt>
      <trkpt lat="43.50166" lon="6.81731">
        <ele>525</ele>
        <time>2013-09-18T12:18:20.000Z</time>
      </trkpt>
      <trkpt lat="43.50165" lon="6.81732">
        <ele>526</ele>
        <time>2013-09-18T12:18:21.000Z</time>
      </trkpt>
      <trkpt lat="43.50164" lon="6.81733">
        <ele>526</ele>
        <time>2013-09-18T12:18:22.000Z</time>
      </trkpt>
      <trkpt lat="43.50163" lon="6.81735">
        <ele>527</ele>
        <time>2013-09-18T12:18:23.000Z</time>
      </trkpt>
      <trkpt lat="43.50162" lon="6.81736">
        <ele>528</ele>
        <time>2013-09-18T12:18:24.000Z</time>
      </trkpt>
      <trkpt lat="43.50161" lon="6.81737">
        <ele>528</ele>
        <time>2013-09-18T12:18:25.000Z</time>
      </trkpt>
      <trkpt lat="43.50159" lon="6.81738">
        <ele>528</ele>
        <time>2013-09-18T12:18:26.000Z</time>
      </trkpt>
      <trkpt lat="43.50158" lon="6.81739">
        <ele>528</ele>
        <time>2013-09-18T12:18:27.000Z</time>
      </trkpt>
      <trkpt lat="43.50157" lon="6.8174">
        <ele>528</ele>
        <time>2013-09-18T12:18:28.000Z</time>
      </trkpt>
      <trkpt lat="43.50155" lon="6.81742">
        <ele>528</ele>
        <time>2013-09-18T12:18:29.000Z</time>
      </trkpt>
      <trkpt lat="43.50154" lon="6.81743">
        <ele>528</ele>
        <time>2013-09-18T12:18:30.000Z</time>
      </trkpt>
      <trkpt lat="43.50153" lon="6.81744">
        <ele>528</ele>
        <time>2013-09-18T12:18:31.000Z</time>
      </trkpt>
      <trkpt lat="43.50152" lon="6.81745">
        <ele>527</ele>
        <time>2013-09-18T12:18:32.000Z</time>
      </trkpt>
      <trkpt lat="43.50151" lon="6.81747">
        <ele>527</ele>
        <time>2013-09-18T12:18:33.000Z</time>
      </trkpt>
      <trkpt lat="43.50149" lon="6.81748">
        <ele>526</ele>
        <time>2013-09-18T12:18:34.000Z</time>
      </trkpt>
      <trkpt lat="43.50148" lon="6.81749">
        <ele>526</ele>
        <time>2013-09-18T12:18:35.000Z</time>
      </trkpt>
      <trkpt lat="43.50147" lon="6.81751">
        <ele>540</ele>
        <time>2013-09-18T12:18:36.000Z</time>
      </trkpt>
      <trkpt lat="43.50146" lon="6.81752">
        <ele>540</ele>
        <time>2013-09-18T12:18:37.000Z</time>
      </trkpt>
      <trkpt lat="43.50145" lon="6.81753">
        <ele>540</ele>
        <time>2013-09-18T12:18:38.000Z</time>
      </trkpt>
      <trkpt lat="43.50143" lon="6.81754">
        <ele>540</ele>
        <time>2013-09-18T12:18:39.000Z</time>
      </trkpt>
      <trkpt lat="43.50142" lon="6.81756">
        <ele>540</ele>
        <time>2013-09-18T12:18:40.000Z</time>
      </trkpt>
      <trkpt lat="43.50141" lon="6.81757">
        <ele>540</ele>
        <time>2013-09-18T12:18:41.000Z</time>
      </trkpt>
      <trkpt lat="43.5014" lon="6.81758">
        <ele>540</ele>
        <time>2013-09-18T12:18:42.000Z</time>
      </trkpt>
      <trkpt lat="43.50139" lon="6.81759">
        <ele>540</ele>
        <time>2013-09-18T12:18:43.000Z</time>
      </trkpt>
      <trkpt lat="43.50138" lon="6.81761">
        <ele>540</ele>
        <time>2013-09-18T12:18:44.000Z</time>
      </trkpt>
      <trkpt lat="43.50137" lon="6.81762">
        <ele>540</ele>
        <time>2013-09-18T12:18:45.000Z</time>
      </trkpt>
      <trkpt lat="43.50136" lon="6.81763">
        <ele>540</ele>
        <time>2013-09-18T12:18:46.000Z</time>
      </trkpt>
      <trkpt lat="43.50135" lon="6.81764">
        <ele>540</ele>
        <time>2013-09-18T12:18:47.000Z</time>
      </trkpt>
      <trkpt lat="43.50133" lon="6.81765">
        <ele>540</ele>
        <time>2013-09-18T12:18:48.000Z</time>
      </trkpt>
      <trkpt lat="43.50132" lon="6.81767">
        <ele>540</ele>
        <time>2013-09-18T12:18:49.000Z</time>
      </trkpt>
      <trkpt lat="43.50131" lon="6.81768">
        <ele>540</ele>
        <time>2013-09-18T12:18:50.000Z</time>
      </trkpt>
      <trkpt lat="43.5013" lon="6.81769">
        <ele>540</ele>
        <time>2013-09-18T12:18:51.000Z</time>
      </trkpt>
      <trkpt lat="43.50128" lon="6.8177">
        <ele>540</ele>
        <time>2013-09-18T12:18:52.000Z</time>
      </trkpt>
      <trkpt lat="43.50127" lon="6.81771">
        <ele>540</ele>
        <time>2013-09-18T12:18:53.000Z</time>
      </trkpt>
      <trkpt lat="43.50125" lon="6.81772">
        <ele>540</ele>
        <time>2013-09-18T12:18:54.000Z</time>
      </trkpt>
      <trkpt lat="43.50124" lon="6.81773">
        <ele>540</ele>
        <time>2013-09-18T12:18:55.000Z</time>
      </trkpt>
      <trkpt lat="43.50123" lon="6.81774">
        <ele>539</ele>
        <time>2013-09-18T12:18:56.000Z</time>
      </trkpt>
      <trkpt lat="43.50122" lon="6.81775">
        <ele>539</ele>
        <time>2013-09-18T12:18:57.000Z</time>
      </trkpt>
      <trkpt lat="43.5012" lon="6.81776">
        <ele>539</ele>
        <time>2013-09-18T12:18:58.000Z</time>
      </trkpt>
      <trkpt lat="43.50119" lon="6.81777">
        <ele>539</ele>
        <time>2013-09-18T12:18:59.000Z</time>
      </trkpt>
      <trkpt lat="43.50118" lon="6.81778">
        <ele>539</ele>
        <time>2013-09-18T12:19:00.000Z</time>
      </trkpt>
      <trkpt lat="43.50116" lon="6.81779">
        <ele>539</ele>
        <time>2013-09-18T12:19:01.000Z</time>
      </trkpt>
      <trkpt lat="43.50115" lon="6.8178">
        <ele>539</ele>
        <time>2013-09-18T12:19:02.000Z</time>
      </trkpt>
      <trkpt lat="43.50114" lon="6.81781">
        <ele>539</ele>
        <time>2013-09-18T12:19:03.000Z</time>
      </trkpt>
      <trkpt lat="43.50112" lon="6.81782">
        <ele>539</ele>
        <time>2013-09-18T12:19:04.000Z</time>
      </trkpt>
      <trkpt lat="43.50111" lon="6.81783">
        <ele>539</ele>
        <time>2013-09-18T12:19:05.000Z</time>
      </trkpt>
      <trkpt lat="43.50109" lon="6.81784">
        <ele>539</ele>
        <time>2013-09-18T12:19:06.000Z</time>
      </trkpt>
      <trkpt lat="43.50108" lon="6.81785">
        <ele>539</ele>
        <time>2013-09-18T12:19:07.000Z</time>
      </trkpt>
      <trkpt lat="43.50106" lon="6.81786">
        <ele>539</ele>
        <time>2013-09-18T12:19:08.000Z</time>
      </trkpt>
      <trkpt lat="43.50105" lon="6.81786">
        <ele>539</ele>
        <time>2013-09-18T12:19:09.000Z</time>
      </trkpt>
      <trkpt lat="43.50104" lon="6.81787">
        <ele>539</ele>
        <time>2013-09-18T12:19:10.000Z</time>
      </trkpt>
      <trkpt lat="43.50102" lon="6.81788">
        <ele>539</ele>
        <time>2013-09-18T12:19:11.000Z</time>
      </trkpt>
      <trkpt lat="43.50101" lon="6.81789">
        <ele>539</ele>
        <time>2013-09-18T12:19:12.000Z</time>
      </trkpt>
      <trkpt lat="43.501" lon="6.81791">
        <ele>540</ele>
        <time>2013-09-18T12:19:13.000Z</time>
      </trkpt>
      <trkpt lat="43.50098" lon="6.81792">
        <ele>540</ele>
        <time>2013-09-18T12:19:14.000Z</time>
      </trkpt>
      <trkpt lat="43.50097" lon="6.81793">
        <ele>540</ele>
        <time>2013-09-18T12:19:15.000Z</time>
      </trkpt>
      <trkpt lat="43.50095" lon="6.81794">
        <ele>540</ele>
        <time>2013-09-18T12:19:16.000Z</time>
      </trkpt>
      <trkpt lat="43.50094" lon="6.81795">
        <ele>540</ele>
        <time>2013-09-18T12:19:17.000Z</time>
      </trkpt>
      <trkpt lat="43.50092" lon="6.81795">
        <ele>540</ele>
        <time>2013-09-18T12:19:18.000Z</time>
      </trkpt>
      <trkpt lat="43.50091" lon="6.81796">
        <ele>540</ele>
        <time>2013-09-18T12:19:19.000Z</time>
      </trkpt>
      <trkpt lat="43.50089" lon="6.81797">
        <ele>540</ele>
        <time>2013-09-18T12:19:20.000Z</time>
      </trkpt>
      <trkpt lat="43.50088" lon="6.81797">
        <ele>540</ele>
        <time>2013-09-18T12:19:21.000Z</time>
      </trkpt>
      <trkpt lat="43.50086" lon="6.81798">
        <ele>540</ele>
        <time>2013-09-18T12:19:22.000Z</time>
      </trkpt>
      <trkpt lat="43.50085" lon="6.81798">
        <ele>540</ele>
        <time>2013-09-18T12:19:23.000Z</time>
      </trkpt>
      <trkpt lat="43.50083" lon="6.81799">
        <ele>529</ele>
        <time>2013-09-18T12:19:24.000Z</time>
      </trkpt>
      <trkpt lat="43.50082" lon="6.818">
        <ele>529</ele>
        <time>2013-09-18T12:19:25.000Z</time>
      </trkpt>
      <trkpt lat="43.5008" lon="6.818">
        <ele>529</ele>
        <time>2013-09-18T12:19:26.000Z</time>
      </trkpt>
      <trkpt lat="43.50078" lon="6.818">
        <ele>529</ele>
        <time>2013-09-18T12:19:27.000Z</time>
      </trkpt>
      <trkpt lat="43.50077" lon="6.81801">
        <ele>529</ele>
        <time>2013-09-18T12:19:28.000Z</time>
      </trkpt>
      <trkpt lat="43.50075" lon="6.81802">
        <ele>530</ele>
        <time>2013-09-18T12:19:29.000Z</time>
      </trkpt>
      <trkpt lat="43.50074" lon="6.81803">
        <ele>530</ele>
        <time>2013-09-18T12:19:30.000Z</time>
      </trkpt>
      <trkpt lat="43.50073" lon="6.81804">
        <ele>530</ele>
        <time>2013-09-18T12:19:31.000Z</time>
      </trkpt>
      <trkpt lat="43.50071" lon="6.81805">
        <ele>530</ele>
        <time>2013-09-18T12:19:32.000Z</time>
      </trkpt>
      <trkpt lat="43.5007" lon="6.81805">
        <ele>530</ele>
        <time>2013-09-18T12:19:33.000Z</time>
      </trkpt>
      <trkpt lat="43.50069" lon="6.81806">
        <ele>530</ele>
        <time>2013-09-18T12:19:34.000Z</time>
      </trkpt>
      <trkpt lat="43.50068" lon="6.81807">
        <ele>530</ele>
        <time>2013-09-18T12:19:35.000Z</time>
      </trkpt>
      <trkpt lat="43.50067" lon="6.81807">
        <ele>530</ele>
        <time>2013-09-18T12:19:36.000Z</time>
      </trkpt>
      <trkpt lat="43.50067" lon="6.81808">
        <ele>530</ele>
        <time>2013-09-18T12:19:37.000Z</time>
      </trkpt>
      <trkpt lat="43.50067" lon="6.81808">
        <ele>530</ele>
        <time>2013-09-18T12:19:38.000Z</time>
      </trkpt>
      <trkpt lat="43.50066" lon="6.81807">
        <ele>530</ele>
        <time>2013-09-18T12:19:39.000Z</time>
      </trkpt>
      <trkpt lat="43.50066" lon="6.81807">
        <ele>530</ele>
        <time>2013-09-18T12:19:40.000Z</time>
      </trkpt>
      <trkpt lat="43.50066" lon="6.81807">
        <ele>530</ele>
        <time>2013-09-18T12:19:42.000Z</time>
      </trkpt>
      <trkpt lat="43.50066" lon="6.81807">
        <ele>530</ele>
        <time>2013-09-18T12:19:43.000Z</time>
      </trkpt>
      <trkpt lat="43.50066" lon="6.81807">
        <ele>530</ele>
        <time>2013-09-18T12:19:44.000Z</time>
      </trkpt>
      <trkpt lat="43.50065" lon="6.81807">
        <ele>530</ele>
        <time>2013-09-18T12:19:46.000Z</time>
      </trkpt>
      <trkpt lat="43.50065" lon="6.81806">
        <ele>529</ele>
        <time>2013-09-18T12:19:48.000Z</time>
      </trkpt>
      <trkpt lat="43.50065" lon="6.81806">
        <ele>529</ele>
        <time>2013-09-18T12:19:50.000Z</time>
      </trkpt>
      <trkpt lat="43.50064" lon="6.81806">
        <ele>529</ele>
        <time>2013-09-18T12:19:53.000Z</time>
      </trkpt>
      <trkpt lat="43.50064" lon="6.81806">
        <ele>529</ele>
        <time>2013-09-18T12:19:56.000Z</time>
      </trkpt>
      <trkpt lat="43.50064" lon="6.81806">
        <ele>529</ele>
        <time>2013-09-18T12:19:59.000Z</time>
      </trkpt>
      <trkpt lat="43.50064" lon="6.81806">
        <ele>529</ele>
        <time>2013-09-18T12:20:04.000Z</time>
      </trkpt>
      <trkpt lat="43.50064" lon="6.81806">
        <ele>529</ele>
        <time>2013-09-18T12:20:14.000Z</time>
      </trkpt>
      <trkpt lat="43.50064" lon="6.81806">
        <ele>529</ele>
        <time>2013-09-18T12:20:18.000Z</time>
      </trkpt>
      <trkpt lat="43.50064" lon="6.81806">
        <ele>529</ele>
        <time>2013-09-18T12:20:22.000Z</time>
      </trkpt>
      <trkpt lat="43.50064" lon="6.81807">
        <ele>529</ele>
        <time>2013-09-18T12:20:26.000Z</time>
      </trkpt>
      <trkpt lat="43.50064" lon="6.81807">
        <ele>529</ele>
        <time>2013-09-18T12:20:30.000Z</time>
      </trkpt>
      <trkpt lat="43.50064" lon="6.81807">
        <ele>529</ele>
        <time>2013-09-18T12:20:33.000Z</time>
      </trkpt>
      <trkpt lat="43.50065" lon="6.81807">
        <ele>530</ele>
        <time>2013-09-18T12:20:53.000Z</time>
      </trkpt>
      <trkpt lat="43.50065" lon="6.81807">
        <ele>530</ele>
        <time>2013-09-18T12:20:57.000Z</time>
      </trkpt>
      <trkpt lat="43.50065" lon="6.81807">
        <ele>530</ele>
        <time>2013-09-18T12:21:00.000Z</time>
      </trkpt>
      <trkpt lat="43.50065" lon="6.81808">
        <ele>530</ele>
        <time>2013-09-18T12:21:04.000Z</time>
      </trkpt>
      <trkpt lat="43.50065" lon="6.81808">
        <ele>530</ele>
        <time>2013-09-18T12:21:11.000Z</time>
      </trkpt>
      <trkpt lat="43.50066" lon="6.81808">
        <ele>530</ele>
        <time>2013-09-18T12:21:15.000Z</time>
      </trkpt>
      <trkpt lat="43.50066" lon="6.81809">
        <ele>530</ele>
        <time>2013-09-18T12:21:19.000Z</time>
      </trkpt>
      <trkpt lat="43.50066" lon="6.81809">
        <ele>530</ele>
        <time>2013-09-18T12:21:20.000Z</time>
      </trkpt>
      <trkpt lat="43.50066" lon="6.81809">
        <ele>530</ele>
        <time>2013-09-18T12:21:25.000Z</time>
      </trkpt>
      <trkpt lat="43.50066" lon="6.81809">
        <ele>530</ele>
        <time>2013-09-18T12:21:29.000Z</time>
      </trkpt>
      <trkpt lat="43.50066" lon="6.81811">
        <ele>531</ele>
        <time>2013-09-18T12:21:31.000Z</time>
      </trkpt>
      <trkpt lat="43.50067" lon="6.81812">
        <ele>531</ele>
        <time>2013-09-18T12:21:32.000Z</time>
      </trkpt>
      <trkpt lat="43.50067" lon="6.81813">
        <ele>531</ele>
        <time>2013-09-18T12:21:33.000Z</time>
      </trkpt>
      <trkpt lat="43.50068" lon="6.81813">
        <ele>532</ele>
        <time>2013-09-18T12:21:34.000Z</time>
      </trkpt>
      <trkpt lat="43.5007" lon="6.81814">
        <ele>532</ele>
        <time>2013-09-18T12:21:35.000Z</time>
      </trkpt>
      <trkpt lat="43.50071" lon="6.81815">
        <ele>533</ele>
        <time>2013-09-18T12:21:36.000Z</time>
      </trkpt>
      <trkpt lat="43.50073" lon="6.81816">
        <ele>534</ele>
        <time>2013-09-18T12:21:37.000Z</time>
      </trkpt>
      <trkpt lat="43.50075" lon="6.81817">
        <ele>534</ele>
        <time>2013-09-18T12:21:38.000Z</time>
      </trkpt>
      <trkpt lat="43.50076" lon="6.81818">
        <ele>535</ele>
        <time>2013-09-18T12:21:39.000Z</time>
      </trkpt>
      <trkpt lat="43.50078" lon="6.81818">
        <ele>535</ele>
        <time>2013-09-18T12:21:40.000Z</time>
      </trkpt>
      <trkpt lat="43.50081" lon="6.81818">
        <ele>536</ele>
        <time>2013-09-18T12:21:42.000Z</time>
      </trkpt>
      <trkpt lat="43.50083" lon="6.81818">
        <ele>536</ele>
        <time>2013-09-18T12:21:43.000Z</time>
      </trkpt>
      <trkpt lat="43.50084" lon="6.81817">
        <ele>544</ele>
        <time>2013-09-18T12:21:44.000Z</time>
      </trkpt>
      <trkpt lat="43.50086" lon="6.81816">
        <ele>544</ele>
        <time>2013-09-18T12:21:45.000Z</time>
      </trkpt>
      <trkpt lat="43.50087" lon="6.81815">
        <ele>543</ele>
        <time>2013-09-18T12:21:46.000Z</time>
      </trkpt>
      <trkpt lat="43.50089" lon="6.81814">
        <ele>543</ele>
        <time>2013-09-18T12:21:47.000Z</time>
      </trkpt>
      <trkpt lat="43.5009" lon="6.81813">
        <ele>543</ele>
        <time>2013-09-18T12:21:48.000Z</time>
      </trkpt>
      <trkpt lat="43.50091" lon="6.81812">
        <ele>543</ele>
        <time>2013-09-18T12:21:49.000Z</time>
      </trkpt>
      <trkpt lat="43.50093" lon="6.81811">
        <ele>543</ele>
        <time>2013-09-18T12:21:50.000Z</time>
      </trkpt>
      <trkpt lat="43.50094" lon="6.8181">
        <ele>543</ele>
        <time>2013-09-18T12:21:51.000Z</time>
      </trkpt>
      <trkpt lat="43.50096" lon="6.81809">
        <ele>543</ele>
        <time>2013-09-18T12:21:52.000Z</time>
      </trkpt>
      <trkpt lat="43.50097" lon="6.81808">
        <ele>543</ele>
        <time>2013-09-18T12:21:53.000Z</time>
      </trkpt>
      <trkpt lat="43.50098" lon="6.81806">
        <ele>542</ele>
        <time>2013-09-18T12:21:54.000Z</time>
      </trkpt>
      <trkpt lat="43.501" lon="6.81805">
        <ele>542</ele>
        <time>2013-09-18T12:21:55.000Z</time>
      </trkpt>
      <trkpt lat="43.50101" lon="6.81805">
        <ele>542</ele>
        <time>2013-09-18T12:21:56.000Z</time>
      </trkpt>
      <trkpt lat="43.50102" lon="6.81804">
        <ele>542</ele>
        <time>2013-09-18T12:21:57.000Z</time>
      </trkpt>
      <trkpt lat="43.50104" lon="6.81803">
        <ele>542</ele>
        <time>2013-09-18T12:21:58.000Z</time>
      </trkpt>
      <trkpt lat="43.50105" lon="6.81802">
        <ele>542</ele>
        <time>2013-09-18T12:21:59.000Z</time>
      </trkpt>
      <trkpt lat="43.50106" lon="6.81802">
        <ele>542</ele>
        <time>2013-09-18T12:22:00.000Z</time>
      </trkpt>
      <trkpt lat="43.50108" lon="6.81801">
        <ele>542</ele>
        <time>2013-09-18T12:22:01.000Z</time>
      </trkpt>
      <trkpt lat="43.50109" lon="6.818">
        <ele>542</ele>
        <time>2013-09-18T12:22:02.000Z</time>
      </trkpt>
      <trkpt lat="43.5011" lon="6.818">
        <ele>542</ele>
        <time>2013-09-18T12:22:03.000Z</time>
      </trkpt>
      <trkpt lat="43.50112" lon="6.81799">
        <ele>542</ele>
        <time>2013-09-18T12:22:04.000Z</time>
      </trkpt>
      <trkpt lat="43.50113" lon="6.81798">
        <ele>542</ele>
        <time>2013-09-18T12:22:05.000Z</time>
      </trkpt>
      <trkpt lat="43.50115" lon="6.81798">
        <ele>542</ele>
        <time>2013-09-18T12:22:06.000Z</time>
      </trkpt>
      <trkpt lat="43.50116" lon="6.81797">
        <ele>543</ele>
        <time>2013-09-18T12:22:07.000Z</time>
      </trkpt>
      <trkpt lat="43.50118" lon="6.81797">
        <ele>543</ele>
        <time>2013-09-18T12:22:08.000Z</time>
      </trkpt>
      <trkpt lat="43.50119" lon="6.81796">
        <ele>543</ele>
        <time>2013-09-18T12:22:09.000Z</time>
      </trkpt>
      <trkpt lat="43.50121" lon="6.81795">
        <ele>543</ele>
        <time>2013-09-18T12:22:10.000Z</time>
      </trkpt>
      <trkpt lat="43.50122" lon="6.81795">
        <ele>543</ele>
        <time>2013-09-18T12:22:11.000Z</time>
      </trkpt>
      <trkpt lat="43.50124" lon="6.81794">
        <ele>543</ele>
        <time>2013-09-18T12:22:12.000Z</time>
      </trkpt>
      <trkpt lat="43.50125" lon="6.81794">
        <ele>543</ele>
        <time>2013-09-18T12:22:13.000Z</time>
      </trkpt>
      <trkpt lat="43.50127" lon="6.81793">
        <ele>543</ele>
        <time>2013-09-18T12:22:14.000Z</time>
      </trkpt>
      <trkpt lat="43.50128" lon="6.81792">
        <ele>543</ele>
        <time>2013-09-18T12:22:15.000Z</time>
      </trkpt>
      <trkpt lat="43.5013" lon="6.81792">
        <ele>543</ele>
        <time>2013-09-18T12:22:16.000Z</time>
      </trkpt>
      <trkpt lat="43.50131" lon="6.81791">
        <ele>543</ele>
        <time>2013-09-18T12:22:17.000Z</time>
      </trkpt>
      <trkpt lat="43.50133" lon="6.8179">
        <ele>543</ele>
        <time>2013-09-18T12:22:18.000Z</time>
      </trkpt>
      <trkpt lat="43.50134" lon="6.81789">
        <ele>543</ele>
        <time>2013-09-18T12:22:19.000Z</time>
      </trkpt>
      <trkpt lat="43.50136" lon="6.81788">
        <ele>543</ele>
        <time>2013-09-18T12:22:20.000Z</time>
      </trkpt>
      <trkpt lat="43.50137" lon="6.81788">
        <ele>544</ele>
        <time>2013-09-18T12:22:21.000Z</time>
      </trkpt>
      <trkpt lat="43.50139" lon="6.81787">
        <ele>544</ele>
        <time>2013-09-18T12:22:22.000Z</time>
      </trkpt>
      <trkpt lat="43.5014" lon="6.81786">
        <ele>544</ele>
        <time>2013-09-18T12:22:23.000Z</time>
      </trkpt>
      <trkpt lat="43.50141" lon="6.81785">
        <ele>544</ele>
        <time>2013-09-18T12:22:24.000Z</time>
      </trkpt>
      <trkpt lat="43.50143" lon="6.81784">
        <ele>543</ele>
        <time>2013-09-18T12:22:25.000Z</time>
      </trkpt>
      <trkpt lat="43.50144" lon="6.81783">
        <ele>543</ele>
        <time>2013-09-18T12:22:26.000Z</time>
      </trkpt>
      <trkpt lat="43.50146" lon="6.81782">
        <ele>543</ele>
        <time>2013-09-18T12:22:27.000Z</time>
      </trkpt>
      <trkpt lat="43.50147" lon="6.81781">
        <ele>543</ele>
        <time>2013-09-18T12:22:28.000Z</time>
      </trkpt>
      <trkpt lat="43.50149" lon="6.8178">
        <ele>543</ele>
        <time>2013-09-18T12:22:29.000Z</time>
      </trkpt>
      <trkpt lat="43.5015" lon="6.8178">
        <ele>543</ele>
        <time>2013-09-18T12:22:30.000Z</time>
      </trkpt>
      <trkpt lat="43.50152" lon="6.81779">
        <ele>543</ele>
        <time>2013-09-18T12:22:31.000Z</time>
      </trkpt>
      <trkpt lat="43.50153" lon="6.81778">
        <ele>543</ele>
        <time>2013-09-18T12:22:32.000Z</time>
      </trkpt>
      <trkpt lat="43.50155" lon="6.81777">
        <ele>543</ele>
        <time>2013-09-18T12:22:33.000Z</time>
      </trkpt>
      <trkpt lat="43.50156" lon="6.81776">
        <ele>543</ele>
        <time>2013-09-18T12:22:34.000Z</time>
      </trkpt>
      <trkpt lat="43.50158" lon="6.81775">
        <ele>543</ele>
        <time>2013-09-18T12:22:35.000Z</time>
      </trkpt>
      <trkpt lat="43.50159" lon="6.81775">
        <ele>543</ele>
        <time>2013-09-18T12:22:36.000Z</time>
      </trkpt>
      <trkpt lat="43.50161" lon="6.81774">
        <ele>543</ele>
        <time>2013-09-18T12:22:37.000Z</time>
      </trkpt>
      <trkpt lat="43.50162" lon="6.81773">
        <ele>543</ele>
        <time>2013-09-18T12:22:38.000Z</time>
      </trkpt>
      <trkpt lat="43.50164" lon="6.81773">
        <ele>543</ele>
        <time>2013-09-18T12:22:39.000Z</time>
      </trkpt>
      <trkpt lat="43.50165" lon="6.81772">
        <ele>543</ele>
        <time>2013-09-18T12:22:40.000Z</time>
      </trkpt>
      <trkpt lat="43.50167" lon="6.81771">
        <ele>548</ele>
        <time>2013-09-18T12:22:41.000Z</time>
      </trkpt>
      <trkpt lat="43.50169" lon="6.81771">
        <ele>548</ele>
        <time>2013-09-18T12:22:42.000Z</time>
      </trkpt>
      <trkpt lat="43.5017" lon="6.8177">
        <ele>547</ele>
        <time>2013-09-18T12:22:43.000Z</time>
      </trkpt>
      <trkpt lat="43.50172" lon="6.8177">
        <ele>547</ele>
        <time>2013-09-18T12:22:44.000Z</time>
      </trkpt>
      <trkpt lat="43.50173" lon="6.81769">
        <ele>547</ele>
        <time>2013-09-18T12:22:45.000Z</time>
      </trkpt>
      <trkpt lat="43.50175" lon="6.81768">
        <ele>547</ele>
        <time>2013-09-18T12:22:46.000Z</time>
      </trkpt>
      <trkpt lat="43.50176" lon="6.81768">
        <ele>547</ele>
        <time>2013-09-18T12:22:47.000Z</time>
      </trkpt>
      <trkpt lat="43.50178" lon="6.81767">
        <ele>547</ele>
        <time>2013-09-18T12:22:48.000Z</time>
      </trkpt>
      <trkpt lat="43.5018" lon="6.81767">
        <ele>547</ele>
        <time>2013-09-18T12:22:49.000Z</time>
      </trkpt>
      <trkpt lat="43.50181" lon="6.81766">
        <ele>547</ele>
        <time>2013-09-18T12:22:50.000Z</time>
      </trkpt>
      <trkpt lat="43.50183" lon="6.81766">
        <ele>548</ele>
        <time>2013-09-18T12:22:51.000Z</time>
      </trkpt>
      <trkpt lat="43.50185" lon="6.81766">
        <ele>548</ele>
        <time>2013-09-18T12:22:52.000Z</time>
      </trkpt>
      <trkpt lat="43.50187" lon="6.81765">
        <ele>548</ele>
        <time>2013-09-18T12:22:53.000Z</time>
      </trkpt>
      <trkpt lat="43.50188" lon="6.81765">
        <ele>548</ele>
        <time>2013-09-18T12:22:54.000Z</time>
      </trkpt>
      <trkpt lat="43.5019" lon="6.81764">
        <ele>548</ele>
        <time>2013-09-18T12:22:55.000Z</time>
      </trkpt>
      <trkpt lat="43.50192" lon="6.81764">
        <ele>548</ele>
        <time>2013-09-18T12:22:56.000Z</time>
      </trkpt>
      <trkpt lat="43.50194" lon="6.81763">
        <ele>549</ele>
        <time>2013-09-18T12:22:57.000Z</time>
      </trkpt>
      <trkpt lat="43.50196" lon="6.81763">
        <ele>549</ele>
        <time>2013-09-18T12:22:58.000Z</time>
      </trkpt>
      <trkpt lat="43.50197" lon="6.81763">
        <ele>549</ele>
        <time>2013-09-18T12:22:59.000Z</time>
      </trkpt>
      <trkpt lat="43.50199" lon="6.81762">
        <ele>549</ele>
        <time>2013-09-18T12:23:00.000Z</time>
      </trkpt>
      <trkpt lat="43.50201" lon="6.81762">
        <ele>549</ele>
        <time>2013-09-18T12:23:01.000Z</time>
      </trkpt>
      <trkpt lat="43.50203" lon="6.81762">
        <ele>549</ele>
        <time>2013-09-18T12:23:02.000Z</time>
      </trkpt>
      <trkpt lat="43.50205" lon="6.81761">
        <ele>549</ele>
        <time>2013-09-18T12:23:03.000Z</time>
      </trkpt>
      <trkpt lat="43.50206" lon="6.81761">
        <ele>549</ele>
        <time>2013-09-18T12:23:04.000Z</time>
      </trkpt>
      <trkpt lat="43.50208" lon="6.81761">
        <ele>549</ele>
        <time>2013-09-18T12:23:05.000Z</time>
      </trkpt>
      <trkpt lat="43.5021" lon="6.8176">
        <ele>549</ele>
        <time>2013-09-18T12:23:06.000Z</time>
      </trkpt>
      <trkpt lat="43.50212" lon="6.8176">
        <ele>550</ele>
        <time>2013-09-18T12:23:07.000Z</time>
      </trkpt>
      <trkpt lat="43.50214" lon="6.81759">
        <ele>550</ele>
        <time>2013-09-18T12:23:08.000Z</time>
      </trkpt>
      <trkpt lat="43.50216" lon="6.81759">
        <ele>550</ele>
        <time>2013-09-18T12:23:09.000Z</time>
      </trkpt>
      <trkpt lat="43.50218" lon="6.81759">
        <ele>550</ele>
        <time>2013-09-18T12:23:10.000Z</time>
      </trkpt>
      <trkpt lat="43.50219" lon="6.81759">
        <ele>550</ele>
        <time>2013-09-18T12:23:11.000Z</time>
      </trkpt>
      <trkpt lat="43.50222" lon="6.81758">
        <ele>549</ele>
        <time>2013-09-18T12:23:12.000Z</time>
      </trkpt>
      <trkpt lat="43.50224" lon="6.81758">
        <ele>549</ele>
        <time>2013-09-18T12:23:13.000Z</time>
      </trkpt>
      <trkpt lat="43.50226" lon="6.81757">
        <ele>549</ele>
        <time>2013-09-18T12:23:14.000Z</time>
      </trkpt>
      <trkpt lat="43.50228" lon="6.81757">
        <ele>549</ele>
        <time>2013-09-18T12:23:15.000Z</time>
      </trkpt>
      <trkpt lat="43.5023" lon="6.81756">
        <ele>549</ele>
        <time>2013-09-18T12:23:16.000Z</time>
      </trkpt>
      <trkpt lat="43.50231" lon="6.81755">
        <ele>549</ele>
        <time>2013-09-18T12:23:17.000Z</time>
      </trkpt>
      <trkpt lat="43.50233" lon="6.81755">
        <ele>549</ele>
        <time>2013-09-18T12:23:18.000Z</time>
      </trkpt>
      <trkpt lat="43.50235" lon="6.81754">
        <ele>549</ele>
        <time>2013-09-18T12:23:19.000Z</time>
      </trkpt>
      <trkpt lat="43.50236" lon="6.81753">
        <ele>548</ele>
        <time>2013-09-18T12:23:20.000Z</time>
      </trkpt>
      <trkpt lat="43.50238" lon="6.81752">
        <ele>548</ele>
        <time>2013-09-18T12:23:21.000Z</time>
      </trkpt>
      <trkpt lat="43.5024" lon="6.81752">
        <ele>548</ele>
        <time>2013-09-18T12:23:22.000Z</time>
      </trkpt>
      <trkpt lat="43.50241" lon="6.81751">
        <ele>548</ele>
        <time>2013-09-18T12:23:23.000Z</time>
      </trkpt>
      <trkpt lat="43.50243" lon="6.8175">
        <ele>547</ele>
        <time>2013-09-18T12:23:24.000Z</time>
      </trkpt>
      <trkpt lat="43.50244" lon="6.8175">
        <ele>544</ele>
        <time>2013-09-18T12:23:25.000Z</time>
      </trkpt>
      <trkpt lat="43.50246" lon="6.8175">
        <ele>544</ele>
        <time>2013-09-18T12:23:26.000Z</time>
      </trkpt>
      <trkpt lat="43.50248" lon="6.81749">
        <ele>545</ele>
        <time>2013-09-18T12:23:27.000Z</time>
      </trkpt>
      <trkpt lat="43.50249" lon="6.81749">
        <ele>545</ele>
        <time>2013-09-18T12:23:28.000Z</time>
      </trkpt>
      <trkpt lat="43.5025" lon="6.81748">
        <ele>546</ele>
        <time>2013-09-18T12:23:29.000Z</time>
      </trkpt>
      <trkpt lat="43.50252" lon="6.81748">
        <ele>546</ele>
        <time>2013-09-18T12:23:30.000Z</time>
      </trkpt>
      <trkpt lat="43.50253" lon="6.81748">
        <ele>546</ele>
        <time>2013-09-18T12:23:31.000Z</time>
      </trkpt>
      <trkpt lat="43.50254" lon="6.81748">
        <ele>546</ele>
        <time>2013-09-18T12:23:32.000Z</time>
      </trkpt>
      <trkpt lat="43.50255" lon="6.81749">
        <ele>545</ele>
        <time>2013-09-18T12:23:33.000Z</time>
      </trkpt>
      <trkpt lat="43.50257" lon="6.81748">
        <ele>545</ele>
        <time>2013-09-18T12:23:35.000Z</time>
      </trkpt>
      <trkpt lat="43.50258" lon="6.81748">
        <ele>545</ele>
        <time>2013-09-18T12:23:36.000Z</time>
      </trkpt>
      <trkpt lat="43.50259" lon="6.81746">
        <ele>545</ele>
        <time>2013-09-18T12:23:37.000Z</time>
      </trkpt>
      <trkpt lat="43.50259" lon="6.81745">
        <ele>545</ele>
        <time>2013-09-18T12:23:38.000Z</time>
      </trkpt>
      <trkpt lat="43.5026" lon="6.81744">
        <ele>545</ele>
        <time>2013-09-18T12:23:39.000Z</time>
      </trkpt>
      <trkpt lat="43.5026" lon="6.81742">
        <ele>545</ele>
        <time>2013-09-18T12:23:40.000Z</time>
      </trkpt>
      <trkpt lat="43.5026" lon="6.8174">
        <ele>545</ele>
        <time>2013-09-18T12:23:41.000Z</time>
      </trkpt>
      <trkpt lat="43.5026" lon="6.81739">
        <ele>545</ele>
        <time>2013-09-18T12:23:42.000Z</time>
      </trkpt>
      <trkpt lat="43.5026" lon="6.81739">
        <ele>545</ele>
        <time>2013-09-18T12:23:43.000Z</time>
      </trkpt>
      <trkpt lat="43.5026" lon="6.81739">
        <ele>545</ele>
        <time>2013-09-18T12:23:46.000Z</time>
      </trkpt>
      <trkpt lat="43.5026" lon="6.81739">
        <ele>545</ele>
        <time>2013-09-18T12:23:50.000Z</time>
      </trkpt>
      <trkpt lat="43.5026" lon="6.81738">
        <ele>545</ele>
        <time>2013-09-18T12:23:51.000Z</time>
      </trkpt>
      <trkpt lat="43.5026" lon="6.81738">
        <ele>545</ele>
        <time>2013-09-18T12:23:52.000Z</time>
      </trkpt>
      <trkpt lat="43.50261" lon="6.81736">
        <ele>545</ele>
        <time>2013-09-18T12:23:54.000Z</time>
      </trkpt>
      <trkpt lat="43.50261" lon="6.81735">
        <ele>545</ele>
        <time>2013-09-18T12:23:55.000Z</time>
      </trkpt>
      <trkpt lat="43.50261" lon="6.81734">
        <ele>544</ele>
        <time>2013-09-18T12:23:56.000Z</time>
      </trkpt>
      <trkpt lat="43.50261" lon="6.81733">
        <ele>544</ele>
        <time>2013-09-18T12:23:57.000Z</time>
      </trkpt>
      <trkpt lat="43.50262" lon="6.81732">
        <ele>544</ele>
        <time>2013-09-18T12:23:58.000Z</time>
      </trkpt>
      <trkpt lat="43.50262" lon="6.81732">
        <ele>544</ele>
        <time>2013-09-18T12:23:59.000Z</time>
      </trkpt>
      <trkpt lat="43.50262" lon="6.81732">
        <ele>544</ele>
        <time>2013-09-18T12:24:00.000Z</time>
      </trkpt>
      <trkpt lat="43.50262" lon="6.81731">
        <ele>544</ele>
        <time>2013-09-18T12:24:01.000Z</time>
      </trkpt>
      <trkpt lat="43.50262" lon="6.81731">
        <ele>544</ele>
        <time>2013-09-18T12:24:02.000Z</time>
      </trkpt>
      <trkpt lat="43.50263" lon="6.81731">
        <ele>544</ele>
        <time>2013-09-18T12:24:03.000Z</time>
      </trkpt>
      <trkpt lat="43.50263" lon="6.81731">
        <ele>544</ele>
        <time>2013-09-18T12:24:04.000Z</time>
      </trkpt>
      <trkpt lat="43.50264" lon="6.8173">
        <ele>544</ele>
        <time>2013-09-18T12:24:05.000Z</time>
      </trkpt>
      <trkpt lat="43.50264" lon="6.8173">
        <ele>544</ele>
        <time>2013-09-18T12:24:06.000Z</time>
      </trkpt>
      <trkpt lat="43.50264" lon="6.8173">
        <ele>544</ele>
        <time>2013-09-18T12:24:09.000Z</time>
      </trkpt>
      <trkpt lat="43.50265" lon="6.8173">
        <ele>544</ele>
        <time>2013-09-18T12:24:10.000Z</time>
      </trkpt>
      <trkpt lat="43.50266" lon="6.81729">
        <ele>544</ele>
        <time>2013-09-18T12:24:11.000Z</time>
      </trkpt>
      <trkpt lat="43.50267" lon="6.81727">
        <ele>544</ele>
        <time>2013-09-18T12:24:12.000Z</time>
      </trkpt>
      <trkpt lat="43.50268" lon="6.81726">
        <ele>544</ele>
        <time>2013-09-18T12:24:13.000Z</time>
      </trkpt>
      <trkpt lat="43.50268" lon="6.81724">
        <ele>544</ele>
        <time>2013-09-18T12:24:14.000Z</time>
      </trkpt>
      <trkpt lat="43.50269" lon="6.81723">
        <ele>544</ele>
        <time>2013-09-18T12:24:15.000Z</time>
      </trkpt>
      <trkpt lat="43.5027" lon="6.81721">
        <ele>544</ele>
        <time>2013-09-18T12:24:16.000Z</time>
      </trkpt>
      <trkpt lat="43.50271" lon="6.8172">
        <ele>544</ele>
        <time>2013-09-18T12:24:17.000Z</time>
      </trkpt>
      <trkpt lat="43.50272" lon="6.81719">
        <ele>544</ele>
        <time>2013-09-18T12:24:18.000Z</time>
      </trkpt>
      <trkpt lat="43.50273" lon="6.81717">
        <ele>544</ele>
        <time>2013-09-18T12:24:19.000Z</time>
      </trkpt>
      <trkpt lat="43.50274" lon="6.81716">
        <ele>544</ele>
        <time>2013-09-18T12:24:20.000Z</time>
      </trkpt>
      <trkpt lat="43.50274" lon="6.81714">
        <ele>544</ele>
        <time>2013-09-18T12:24:21.000Z</time>
      </trkpt>
      <trkpt lat="43.50275" lon="6.81713">
        <ele>544</ele>
        <time>2013-09-18T12:24:22.000Z</time>
      </trkpt>
      <trkpt lat="43.50276" lon="6.81712">
        <ele>544</ele>
        <time>2013-09-18T12:24:23.000Z</time>
      </trkpt>
      <trkpt lat="43.50277" lon="6.8171">
        <ele>544</ele>
        <time>2013-09-18T12:24:24.000Z</time>
      </trkpt>
      <trkpt lat="43.50278" lon="6.81709">
        <ele>544</ele>
        <time>2013-09-18T12:24:25.000Z</time>
      </trkpt>
      <trkpt lat="43.50279" lon="6.81707">
        <ele>544</ele>
        <time>2013-09-18T12:24:26.000Z</time>
      </trkpt>
      <trkpt lat="43.5028" lon="6.81706">
        <ele>544</ele>
        <time>2013-09-18T12:24:27.000Z</time>
      </trkpt>
      <trkpt lat="43.50281" lon="6.81705">
        <ele>544</ele>
        <time>2013-09-18T12:24:28.000Z</time>
      </trkpt>
      <trkpt lat="43.50281" lon="6.81703">
        <ele>544</ele>
        <time>2013-09-18T12:24:29.000Z</time>
      </trkpt>
      <trkpt lat="43.50282" lon="6.81702">
        <ele>545</ele>
        <time>2013-09-18T12:24:30.000Z</time>
      </trkpt>
      <trkpt lat="43.50283" lon="6.81701">
        <ele>545</ele>
        <time>2013-09-18T12:24:31.000Z</time>
      </trkpt>
      <trkpt lat="43.50284" lon="6.817">
        <ele>545</ele>
        <time>2013-09-18T12:24:32.000Z</time>
      </trkpt>
      <trkpt lat="43.50284" lon="6.81699">
        <ele>545</ele>
        <time>2013-09-18T12:24:33.000Z</time>
      </trkpt>
      <trkpt lat="43.50285" lon="6.81697">
        <ele>545</ele>
        <time>2013-09-18T12:24:34.000Z</time>
      </trkpt>
      <trkpt lat="43.50286" lon="6.81696">
        <ele>545</ele>
        <time>2013-09-18T12:24:35.000Z</time>
      </trkpt>
      <trkpt lat="43.50287" lon="6.81694">
        <ele>545</ele>
        <time>2013-09-18T12:24:36.000Z</time>
      </trkpt>
      <trkpt lat="43.50287" lon="6.81693">
        <ele>545</ele>
        <time>2013-09-18T12:24:37.000Z</time>
      </trkpt>
      <trkpt lat="43.50288" lon="6.81692">
        <ele>545</ele>
        <time>2013-09-18T12:24:38.000Z</time>
      </trkpt>
      <trkpt lat="43.50289" lon="6.81691">
        <ele>545</ele>
        <time>2013-09-18T12:24:39.000Z</time>
      </trkpt>
      <trkpt lat="43.5029" lon="6.81689">
        <ele>545</ele>
        <time>2013-09-18T12:24:40.000Z</time>
      </trkpt>
      <trkpt lat="43.5029" lon="6.81688">
        <ele>545</ele>
        <time>2013-09-18T12:24:41.000Z</time>
      </trkpt>
      <trkpt lat="43.50291" lon="6.81686">
        <ele>546</ele>
        <time>2013-09-18T12:24:42.000Z</time>
      </trkpt>
      <trkpt lat="43.50291" lon="6.81685">
        <ele>546</ele>
        <time>2013-09-18T12:24:43.000Z</time>
      </trkpt>
      <trkpt lat="43.50292" lon="6.81684">
        <ele>546</ele>
        <time>2013-09-18T12:24:44.000Z</time>
      </trkpt>
      <trkpt lat="43.50293" lon="6.81682">
        <ele>546</ele>
        <time>2013-09-18T12:24:45.000Z</time>
      </trkpt>
      <trkpt lat="43.50294" lon="6.81681">
        <ele>546</ele>
        <time>2013-09-18T12:24:46.000Z</time>
      </trkpt>
      <trkpt lat="43.50294" lon="6.81679">
        <ele>546</ele>
        <time>2013-09-18T12:24:47.000Z</time>
      </trkpt>
      <trkpt lat="43.50295" lon="6.81678">
        <ele>546</ele>
        <time>2013-09-18T12:24:48.000Z</time>
      </trkpt>
      <trkpt lat="43.50295" lon="6.81676">
        <ele>546</ele>
        <time>2013-09-18T12:24:49.000Z</time>
      </trkpt>
      <trkpt lat="43.50295" lon="6.81674">
        <ele>547</ele>
        <time>2013-09-18T12:24:50.000Z</time>
      </trkpt>
      <trkpt lat="43.50295" lon="6.81672">
        <ele>547</ele>
        <time>2013-09-18T12:24:51.000Z</time>
      </trkpt>
      <trkpt lat="43.50296" lon="6.81671">
        <ele>547</ele>
        <time>2013-09-18T12:24:52.000Z</time>
      </trkpt>
      <trkpt lat="43.50296" lon="6.81669">
        <ele>547</ele>
        <time>2013-09-18T12:24:53.000Z</time>
      </trkpt>
      <trkpt lat="43.50296" lon="6.81667">
        <ele>547</ele>
        <time>2013-09-18T12:24:54.000Z</time>
      </trkpt>
      <trkpt lat="43.50296" lon="6.81665">
        <ele>553</ele>
        <time>2013-09-18T12:24:55.000Z</time>
      </trkpt>
      <trkpt lat="43.50296" lon="6.81661">
        <ele>553</ele>
        <time>2013-09-18T12:24:57.000Z</time>
      </trkpt>
      <trkpt lat="43.50296" lon="6.81658">
        <ele>553</ele>
        <time>2013-09-18T12:24:59.000Z</time>
      </trkpt>
      <trkpt lat="43.50296" lon="6.81657">
        <ele>553</ele>
        <time>2013-09-18T12:25:00.000Z</time>
      </trkpt>
      <trkpt lat="43.50296" lon="6.81657">
        <ele>553</ele>
        <time>2013-09-18T12:25:03.000Z</time>
      </trkpt>
      <trkpt lat="43.50296" lon="6.81656">
        <ele>553</ele>
        <time>2013-09-18T12:25:04.000Z</time>
      </trkpt>
      <trkpt lat="43.50296" lon="6.81656">
        <ele>553</ele>
        <time>2013-09-18T12:25:05.000Z</time>
      </trkpt>
      <trkpt lat="43.50295" lon="6.81656">
        <ele>553</ele>
        <time>2013-09-18T12:25:08.000Z</time>
      </trkpt>
      <trkpt lat="43.50295" lon="6.81655">
        <ele>553</ele>
        <time>2013-09-18T12:25:11.000Z</time>
      </trkpt>
      <trkpt lat="43.50295" lon="6.81654">
        <ele>553</ele>
        <time>2013-09-18T12:25:12.000Z</time>
      </trkpt>
      <trkpt lat="43.50294" lon="6.81654">
        <ele>553</ele>
        <time>2013-09-18T12:25:13.000Z</time>
      </trkpt>
      <trkpt lat="43.50294" lon="6.81652">
        <ele>553</ele>
        <time>2013-09-18T12:25:14.000Z</time>
      </trkpt>
      <trkpt lat="43.50293" lon="6.81651">
        <ele>553</ele>
        <time>2013-09-18T12:25:15.000Z</time>
      </trkpt>
      <trkpt lat="43.50293" lon="6.8165">
        <ele>553</ele>
        <time>2013-09-18T12:25:16.000Z</time>
      </trkpt>
      <trkpt lat="43.50292" lon="6.81649">
        <ele>553</ele>
        <time>2013-09-18T12:25:17.000Z</time>
      </trkpt>
      <trkpt lat="43.50292" lon="6.81648">
        <ele>553</ele>
        <time>2013-09-18T12:25:18.000Z</time>
      </trkpt>
      <trkpt lat="43.50291" lon="6.81647">
        <ele>553</ele>
        <time>2013-09-18T12:25:19.000Z</time>
      </trkpt>
      <trkpt lat="43.50291" lon="6.81646">
        <ele>553</ele>
        <time>2013-09-18T12:25:20.000Z</time>
      </trkpt>
      <trkpt lat="43.5029" lon="6.81645">
        <ele>553</ele>
        <time>2013-09-18T12:25:21.000Z</time>
      </trkpt>
      <trkpt lat="43.5029" lon="6.81643">
        <ele>553</ele>
        <time>2013-09-18T12:25:22.000Z</time>
      </trkpt>
      <trkpt lat="43.5029" lon="6.81642">
        <ele>553</ele>
        <time>2013-09-18T12:25:23.000Z</time>
      </trkpt>
      <trkpt lat="43.5029" lon="6.81641">
        <ele>553</ele>
        <time>2013-09-18T12:25:24.000Z</time>
      </trkpt>
      <trkpt lat="43.50289" lon="6.8164">
        <ele>553</ele>
        <time>2013-09-18T12:25:25.000Z</time>
      </trkpt>
      <trkpt lat="43.50289" lon="6.81639">
        <ele>553</ele>
        <time>2013-09-18T12:25:26.000Z</time>
      </trkpt>
      <trkpt lat="43.50289" lon="6.81637">
        <ele>553</ele>
        <time>2013-09-18T12:25:27.000Z</time>
      </trkpt>
      <trkpt lat="43.50288" lon="6.81636">
        <ele>553</ele>
        <time>2013-09-18T12:25:28.000Z</time>
      </trkpt>
      <trkpt lat="43.50288" lon="6.81635">
        <ele>553</ele>
        <time>2013-09-18T12:25:29.000Z</time>
      </trkpt>
      <trkpt lat="43.50288" lon="6.81633">
        <ele>553</ele>
        <time>2013-09-18T12:25:31.000Z</time>
      </trkpt>
      <trkpt lat="43.50288" lon="6.81632">
        <ele>553</ele>
        <time>2013-09-18T12:25:32.000Z</time>
      </trkpt>
      <trkpt lat="43.50287" lon="6.81629">
        <ele>553</ele>
        <time>2013-09-18T12:25:34.000Z</time>
      </trkpt>
      <trkpt lat="43.50287" lon="6.81628">
        <ele>553</ele>
        <time>2013-09-18T12:25:35.000Z</time>
      </trkpt>
      <trkpt lat="43.50287" lon="6.81626">
        <ele>553</ele>
        <time>2013-09-18T12:25:37.000Z</time>
      </trkpt>
      <trkpt lat="43.50288" lon="6.81625">
        <ele>553</ele>
        <time>2013-09-18T12:25:38.000Z</time>
      </trkpt>
      <trkpt lat="43.50288" lon="6.81624">
        <ele>553</ele>
        <time>2013-09-18T12:25:39.000Z</time>
      </trkpt>
      <trkpt lat="43.50288" lon="6.81621">
        <ele>553</ele>
        <time>2013-09-18T12:25:42.000Z</time>
      </trkpt>
      <trkpt lat="43.50287" lon="6.8162">
        <ele>554</ele>
        <time>2013-09-18T12:25:43.000Z</time>
      </trkpt>
      <trkpt lat="43.50287" lon="6.81618">
        <ele>554</ele>
        <time>2013-09-18T12:25:44.000Z</time>
      </trkpt>
      <trkpt lat="43.50287" lon="6.81617">
        <ele>554</ele>
        <time>2013-09-18T12:25:45.000Z</time>
      </trkpt>
      <trkpt lat="43.50287" lon="6.81616">
        <ele>554</ele>
        <time>2013-09-18T12:25:46.000Z</time>
      </trkpt>
      <trkpt lat="43.50287" lon="6.81613">
        <ele>554</ele>
        <time>2013-09-18T12:25:48.000Z</time>
      </trkpt>
      <trkpt lat="43.50286" lon="6.81612">
        <ele>554</ele>
        <time>2013-09-18T12:25:49.000Z</time>
      </trkpt>
      <trkpt lat="43.50286" lon="6.81611">
        <ele>554</ele>
        <time>2013-09-18T12:25:50.000Z</time>
      </trkpt>
      <trkpt lat="43.50286" lon="6.81609">
        <ele>554</ele>
        <time>2013-09-18T12:25:52.000Z</time>
      </trkpt>
      <trkpt lat="43.50286" lon="6.81608">
        <ele>554</ele>
        <time>2013-09-18T12:25:53.000Z</time>
      </trkpt>
      <trkpt lat="43.50285" lon="6.81607">
        <ele>554</ele>
        <time>2013-09-18T12:25:54.000Z</time>
      </trkpt>
      <trkpt lat="43.50286" lon="6.81605">
        <ele>554</ele>
        <time>2013-09-18T12:25:56.000Z</time>
      </trkpt>
      <trkpt lat="43.50286" lon="6.81604">
        <ele>554</ele>
        <time>2013-09-18T12:25:57.000Z</time>
      </trkpt>
      <trkpt lat="43.50285" lon="6.81602">
        <ele>554</ele>
        <time>2013-09-18T12:25:59.000Z</time>
      </trkpt>
      <trkpt lat="43.50286" lon="6.81599">
        <ele>554</ele>
        <time>2013-09-18T12:26:01.000Z</time>
      </trkpt>
      <trkpt lat="43.50286" lon="6.81598">
        <ele>554</ele>
        <time>2013-09-18T12:26:02.000Z</time>
      </trkpt>
      <trkpt lat="43.50286" lon="6.81594">
        <ele>554</ele>
        <time>2013-09-18T12:26:05.000Z</time>
      </trkpt>
      <trkpt lat="43.50285" lon="6.81593">
        <ele>554</ele>
        <time>2013-09-18T12:26:06.000Z</time>
      </trkpt>
      <trkpt lat="43.50285" lon="6.81591">
        <ele>554</ele>
        <time>2013-09-18T12:26:07.000Z</time>
      </trkpt>
      <trkpt lat="43.50285" lon="6.8159">
        <ele>554</ele>
        <time>2013-09-18T12:26:08.000Z</time>
      </trkpt>
      <trkpt lat="43.50284" lon="6.81589">
        <ele>554</ele>
        <time>2013-09-18T12:26:09.000Z</time>
      </trkpt>
      <trkpt lat="43.50284" lon="6.81587">
        <ele>554</ele>
        <time>2013-09-18T12:26:10.000Z</time>
      </trkpt>
      <trkpt lat="43.50284" lon="6.81586">
        <ele>554</ele>
        <time>2013-09-18T12:26:11.000Z</time>
      </trkpt>
      <trkpt lat="43.50283" lon="6.81585">
        <ele>554</ele>
        <time>2013-09-18T12:26:12.000Z</time>
      </trkpt>
      <trkpt lat="43.50283" lon="6.81583">
        <ele>553</ele>
        <time>2013-09-18T12:26:13.000Z</time>
      </trkpt>
      <trkpt lat="43.50283" lon="6.81582">
        <ele>553</ele>
        <time>2013-09-18T12:26:14.000Z</time>
      </trkpt>
      <trkpt lat="43.50282" lon="6.81581">
        <ele>553</ele>
        <time>2013-09-18T12:26:15.000Z</time>
      </trkpt>
      <trkpt lat="43.50282" lon="6.81579">
        <ele>553</ele>
        <time>2013-09-18T12:26:16.000Z</time>
      </trkpt>
      <trkpt lat="43.50281" lon="6.81578">
        <ele>553</ele>
        <time>2013-09-18T12:26:17.000Z</time>
      </trkpt>
      <trkpt lat="43.50281" lon="6.81577">
        <ele>553</ele>
        <time>2013-09-18T12:26:18.000Z</time>
      </trkpt>
      <trkpt lat="43.5028" lon="6.81576">
        <ele>553</ele>
        <time>2013-09-18T12:26:19.000Z</time>
      </trkpt>
      <trkpt lat="43.5028" lon="6.81574">
        <ele>553</ele>
        <time>2013-09-18T12:26:20.000Z</time>
      </trkpt>
      <trkpt lat="43.50279" lon="6.81573">
        <ele>553</ele>
        <time>2013-09-18T12:26:21.000Z</time>
      </trkpt>
      <trkpt lat="43.50279" lon="6.81572">
        <ele>553</ele>
        <time>2013-09-18T12:26:22.000Z</time>
      </trkpt>
      <trkpt lat="43.50278" lon="6.81571">
        <ele>552</ele>
        <time>2013-09-18T12:26:23.000Z</time>
      </trkpt>
      <trkpt lat="43.50277" lon="6.81569">
        <ele>552</ele>
        <time>2013-09-18T12:26:24.000Z</time>
      </trkpt>
      <trkpt lat="43.50277" lon="6.81568">
        <ele>552</ele>
        <time>2013-09-18T12:26:25.000Z</time>
      </trkpt>
      <trkpt lat="43.50276" lon="6.81567">
        <ele>552</ele>
        <time>2013-09-18T12:26:26.000Z</time>
      </trkpt>
      <trkpt lat="43.50275" lon="6.81566">
        <ele>552</ele>
        <time>2013-09-18T12:26:27.000Z</time>
      </trkpt>
      <trkpt lat="43.50274" lon="6.81565">
        <ele>552</ele>
        <time>2013-09-18T12:26:28.000Z</time>
      </trkpt>
      <trkpt lat="43.50274" lon="6.81563">
        <ele>552</ele>
        <time>2013-09-18T12:26:29.000Z</time>
      </trkpt>
      <trkpt lat="43.50273" lon="6.81562">
        <ele>552</ele>
        <time>2013-09-18T12:26:30.000Z</time>
      </trkpt>
      <trkpt lat="43.50272" lon="6.81561">
        <ele>552</ele>
        <time>2013-09-18T12:26:31.000Z</time>
      </trkpt>
      <trkpt lat="43.50272" lon="6.8156">
        <ele>552</ele>
        <time>2013-09-18T12:26:32.000Z</time>
      </trkpt>
      <trkpt lat="43.50271" lon="6.81559">
        <ele>552</ele>
        <time>2013-09-18T12:26:33.000Z</time>
      </trkpt>
      <trkpt lat="43.5027" lon="6.81558">
        <ele>552</ele>
        <time>2013-09-18T12:26:34.000Z</time>
      </trkpt>
      <trkpt lat="43.5027" lon="6.81557">
        <ele>551</ele>
        <time>2013-09-18T12:26:35.000Z</time>
      </trkpt>
      <trkpt lat="43.5027" lon="6.81556">
        <ele>551</ele>
        <time>2013-09-18T12:26:36.000Z</time>
      </trkpt>
      <trkpt lat="43.50269" lon="6.81554">
        <ele>551</ele>
        <time>2013-09-18T12:26:37.000Z</time>
      </trkpt>
      <trkpt lat="43.50269" lon="6.81553">
        <ele>551</ele>
        <time>2013-09-18T12:26:38.000Z</time>
      </trkpt>
      <trkpt lat="43.50269" lon="6.81546">
        <ele>551</ele>
        <time>2013-09-18T12:26:45.000Z</time>
      </trkpt>
      <trkpt lat="43.50269" lon="6.81545">
        <ele>551</ele>
        <time>2013-09-18T12:26:46.000Z</time>
      </trkpt>
      <trkpt lat="43.50269" lon="6.81544">
        <ele>551</ele>
        <time>2013-09-18T12:26:47.000Z</time>
      </trkpt>
      <trkpt lat="43.50269" lon="6.81543">
        <ele>551</ele>
        <time>2013-09-18T12:26:48.000Z</time>
      </trkpt>
      <trkpt lat="43.50268" lon="6.81543">
        <ele>551</ele>
        <time>2013-09-18T12:26:49.000Z</time>
      </trkpt>
      <trkpt lat="43.50268" lon="6.81542">
        <ele>551</ele>
        <time>2013-09-18T12:26:51.000Z</time>
      </trkpt>
      <trkpt lat="43.50268" lon="6.81541">
        <ele>551</ele>
        <time>2013-09-18T12:26:53.000Z</time>
      </trkpt>
      <trkpt lat="43.50268" lon="6.81541">
        <ele>551</ele>
        <time>2013-09-18T12:26:54.000Z</time>
      </trkpt>
      <trkpt lat="43.50267" lon="6.8154">
        <ele>551</ele>
        <time>2013-09-18T12:26:55.000Z</time>
      </trkpt>
      <trkpt lat="43.50267" lon="6.8154">
        <ele>551</ele>
        <time>2013-09-18T12:26:56.000Z</time>
      </trkpt>
      <trkpt lat="43.50267" lon="6.8154">
        <ele>551</ele>
        <time>2013-09-18T12:26:57.000Z</time>
      </trkpt>
      <trkpt lat="43.50266" lon="6.8154">
        <ele>551</ele>
        <time>2013-09-18T12:26:58.000Z</time>
      </trkpt>
      <trkpt lat="43.50266" lon="6.81539">
        <ele>551</ele>
        <time>2013-09-18T12:26:59.000Z</time>
      </trkpt>
      <trkpt lat="43.50266" lon="6.81539">
        <ele>551</ele>
        <time>2013-09-18T12:27:03.000Z</time>
      </trkpt>
      <trkpt lat="43.50267" lon="6.81539">
        <ele>551</ele>
        <time>2013-09-18T12:27:22.000Z</time>
      </trkpt>
      <trkpt lat="43.50268" lon="6.81539">
        <ele>551</ele>
        <time>2013-09-18T12:27:27.000Z</time>
      </trkpt>
      <trkpt lat="43.50268" lon="6.8154">
        <ele>551</ele>
        <time>2013-09-18T12:27:30.000Z</time>
      </trkpt>
      <trkpt lat="43.50268" lon="6.8154">
        <ele>551</ele>
        <time>2013-09-18T12:27:33.000Z</time>
      </trkpt>
      <trkpt lat="43.50269" lon="6.8154">
        <ele>551</ele>
        <time>2013-09-18T12:27:36.000Z</time>
      </trkpt>
      <trkpt lat="43.50269" lon="6.8154">
        <ele>551</ele>
        <time>2013-09-18T12:27:40.000Z</time>
      </trkpt>
      <trkpt lat="43.5027" lon="6.8154">
        <ele>551</ele>
        <time>2013-09-18T12:27:45.000Z</time>
      </trkpt>
      <trkpt lat="43.50271" lon="6.8154">
        <ele>551</ele>
        <time>2013-09-18T12:27:51.000Z</time>
      </trkpt>
      <trkpt lat="43.50272" lon="6.81541">
        <ele>551</ele>
        <time>2013-09-18T12:27:58.000Z</time>
      </trkpt>
      <trkpt lat="43.50273" lon="6.81541">
        <ele>551</ele>
        <time>2013-09-18T12:28:06.000Z</time>
      </trkpt>
      <trkpt lat="43.50274" lon="6.81541">
        <ele>551</ele>
        <time>2013-09-18T12:28:10.000Z</time>
      </trkpt>
      <trkpt lat="43.50274" lon="6.81541">
        <ele>551</ele>
        <time>2013-09-18T12:28:13.000Z</time>
      </trkpt>
      <trkpt lat="43.50275" lon="6.81541">
        <ele>552</ele>
        <time>2013-09-18T12:28:16.000Z</time>
      </trkpt>
      <trkpt lat="43.50275" lon="6.81541">
        <ele>552</ele>
        <time>2013-09-18T12:28:18.000Z</time>
      </trkpt>
      <trkpt lat="43.50275" lon="6.81542">
        <ele>552</ele>
        <time>2013-09-18T12:28:19.000Z</time>
      </trkpt>
      <trkpt lat="43.50276" lon="6.81542">
        <ele>552</ele>
        <time>2013-09-18T12:28:21.000Z</time>
      </trkpt>
      <trkpt lat="43.50276" lon="6.81542">
        <ele>552</ele>
        <time>2013-09-18T12:28:22.000Z</time>
      </trkpt>
      <trkpt lat="43.50276" lon="6.81542">
        <ele>552</ele>
        <time>2013-09-18T12:28:23.000Z</time>
      </trkpt>
      <trkpt lat="43.50276" lon="6.81542">
        <ele>552</ele>
        <time>2013-09-18T12:28:25.000Z</time>
      </trkpt>
      <trkpt lat="43.50276" lon="6.81542">
        <ele>552</ele>
        <time>2013-09-18T12:28:26.000Z</time>
      </trkpt>
      <trkpt lat="43.50277" lon="6.81542">
        <ele>552</ele>
        <time>2013-09-18T12:28:27.000Z</time>
      </trkpt>
      <trkpt lat="43.50277" lon="6.81541">
        <ele>552</ele>
        <time>2013-09-18T12:28:28.000Z</time>
      </trkpt>
      <trkpt lat="43.50277" lon="6.81542">
        <ele>552</ele>
        <time>2013-09-18T12:28:29.000Z</time>
      </trkpt>
      <trkpt lat="43.50277" lon="6.81541">
        <ele>552</ele>
        <time>2013-09-18T12:28:30.000Z</time>
      </trkpt>
      <trkpt lat="43.50275" lon="6.81541">
        <ele>552</ele>
        <time>2013-09-18T12:28:35.000Z</time>
      </trkpt>
      <trkpt lat="43.50275" lon="6.81541">
        <ele>552</ele>
        <time>2013-09-18T12:28:37.000Z</time>
      </trkpt>
      <trkpt lat="43.50274" lon="6.81541">
        <ele>551</ele>
        <time>2013-09-18T12:28:39.000Z</time>
      </trkpt>
      <trkpt lat="43.50273" lon="6.81541">
        <ele>551</ele>
        <time>2013-09-18T12:28:41.000Z</time>
      </trkpt>
      <trkpt lat="43.50273" lon="6.81541">
        <ele>551</ele>
        <time>2013-09-18T12:28:42.000Z</time>
      </trkpt>
      <trkpt lat="43.50273" lon="6.8154">
        <ele>551</ele>
        <time>2013-09-18T12:28:43.000Z</time>
      </trkpt>
      <trkpt lat="43.50272" lon="6.8154">
        <ele>551</ele>
        <time>2013-09-18T12:28:47.000Z</time>
      </trkpt>
      <trkpt lat="43.50271" lon="6.8154">
        <ele>551</ele>
        <time>2013-09-18T12:28:49.000Z</time>
      </trkpt>
      <trkpt lat="43.50271" lon="6.8154">
        <ele>551</ele>
        <time>2013-09-18T12:28:50.000Z</time>
      </trkpt>
      <trkpt lat="43.5027" lon="6.8154">
        <ele>551</ele>
        <time>2013-09-18T12:28:52.000Z</time>
      </trkpt>
      <trkpt lat="43.50271" lon="6.8154">
        <ele>551</ele>
        <time>2013-09-18T12:28:54.000Z</time>
      </trkpt>
      <trkpt lat="43.50271" lon="6.8154">
        <ele>551</ele>
        <time>2013-09-18T12:28:55.000Z</time>
      </trkpt>
      <trkpt lat="43.5027" lon="6.81542">
        <ele>551</ele>
        <time>2013-09-18T12:28:57.000Z</time>
      </trkpt>
      <trkpt lat="43.5027" lon="6.81543">
        <ele>551</ele>
        <time>2013-09-18T12:28:58.000Z</time>
      </trkpt>
      <trkpt lat="43.5027" lon="6.81544">
        <ele>551</ele>
        <time>2013-09-18T12:28:59.000Z</time>
      </trkpt>
      <trkpt lat="43.5027" lon="6.81544">
        <ele>551</ele>
        <time>2013-09-18T12:29:00.000Z</time>
      </trkpt>
      <trkpt lat="43.5027" lon="6.81546">
        <ele>551</ele>
        <time>2013-09-18T12:29:03.000Z</time>
      </trkpt>
      <trkpt lat="43.50269" lon="6.81547">
        <ele>551</ele>
        <time>2013-09-18T12:29:04.000Z</time>
      </trkpt>
      <trkpt lat="43.50269" lon="6.81548">
        <ele>551</ele>
        <time>2013-09-18T12:29:05.000Z</time>
      </trkpt>
      <trkpt lat="43.50268" lon="6.81548">
        <ele>551</ele>
        <time>2013-09-18T12:29:06.000Z</time>
      </trkpt>
      <trkpt lat="43.50268" lon="6.81549">
        <ele>551</ele>
        <time>2013-09-18T12:29:07.000Z</time>
      </trkpt>
      <trkpt lat="43.50268" lon="6.8155">
        <ele>551</ele>
        <time>2013-09-18T12:29:08.000Z</time>
      </trkpt>
      <trkpt lat="43.50268" lon="6.81551">
        <ele>551</ele>
        <time>2013-09-18T12:29:09.000Z</time>
      </trkpt>
      <trkpt lat="43.50268" lon="6.81556">
        <ele>551</ele>
        <time>2013-09-18T12:29:14.000Z</time>
      </trkpt>
      <trkpt lat="43.50268" lon="6.81557">
        <ele>551</ele>
        <time>2013-09-18T12:29:15.000Z</time>
      </trkpt>
      <trkpt lat="43.50269" lon="6.81558">
        <ele>551</ele>
        <time>2013-09-18T12:29:16.000Z</time>
      </trkpt>
      <trkpt lat="43.50269" lon="6.81558">
        <ele>551</ele>
        <time>2013-09-18T12:29:17.000Z</time>
      </trkpt>
      <trkpt lat="43.50269" lon="6.81559">
        <ele>551</ele>
        <time>2013-09-18T12:29:18.000Z</time>
      </trkpt>
      <trkpt lat="43.5027" lon="6.81559">
        <ele>551</ele>
        <time>2013-09-18T12:29:21.000Z</time>
      </trkpt>
      <trkpt lat="43.5027" lon="6.8156">
        <ele>551</ele>
        <time>2013-09-18T12:29:23.000Z</time>
      </trkpt>
      <trkpt lat="43.50271" lon="6.81561">
        <ele>552</ele>
        <time>2013-09-18T12:29:24.000Z</time>
      </trkpt>
      <trkpt lat="43.50272" lon="6.81562">
        <ele>552</ele>
        <time>2013-09-18T12:29:25.000Z</time>
      </trkpt>
      <trkpt lat="43.50273" lon="6.81564">
        <ele>552</ele>
        <time>2013-09-18T12:29:26.000Z</time>
      </trkpt>
      <trkpt lat="43.50274" lon="6.81566">
        <ele>552</ele>
        <time>2013-09-18T12:29:27.000Z</time>
      </trkpt>
      <trkpt lat="43.50275" lon="6.81568">
        <ele>552</ele>
        <time>2013-09-18T12:29:28.000Z</time>
      </trkpt>
      <trkpt lat="43.50276" lon="6.81569">
        <ele>552</ele>
        <time>2013-09-18T12:29:29.000Z</time>
      </trkpt>
      <trkpt lat="43.50277" lon="6.81571">
        <ele>552</ele>
        <time>2013-09-18T12:29:30.000Z</time>
      </trkpt>
      <trkpt lat="43.50278" lon="6.81573">
        <ele>552</ele>
        <time>2013-09-18T12:29:31.000Z</time>
      </trkpt>
      <trkpt lat="43.50279" lon="6.81574">
        <ele>553</ele>
        <time>2013-09-18T12:29:32.000Z</time>
      </trkpt>
      <trkpt lat="43.5028" lon="6.81576">
        <ele>553</ele>
        <time>2013-09-18T12:29:33.000Z</time>
      </trkpt>
      <trkpt lat="43.50281" lon="6.81578">
        <ele>553</ele>
        <time>2013-09-18T12:29:34.000Z</time>
      </trkpt>
      <trkpt lat="43.50282" lon="6.8158">
        <ele>553</ele>
        <time>2013-09-18T12:29:35.000Z</time>
      </trkpt>
      <trkpt lat="43.50283" lon="6.81582">
        <ele>553</ele>
        <time>2013-09-18T12:29:36.000Z</time>
      </trkpt>
      <trkpt lat="43.50283" lon="6.81585">
        <ele>554</ele>
        <time>2013-09-18T12:29:37.000Z</time>
      </trkpt>
      <trkpt lat="43.50284" lon="6.81587">
        <ele>554</ele>
        <time>2013-09-18T12:29:38.000Z</time>
      </trkpt>
      <trkpt lat="43.50284" lon="6.81588">
        <ele>554</ele>
        <time>2013-09-18T12:29:39.000Z</time>
      </trkpt>
      <trkpt lat="43.50285" lon="6.81589">
        <ele>554</ele>
        <time>2013-09-18T12:29:40.000Z</time>
      </trkpt>
      <trkpt lat="43.50285" lon="6.81589">
        <ele>554</ele>
        <time>2013-09-18T12:29:41.000Z</time>
      </trkpt>
      <trkpt lat="43.50285" lon="6.8159">
        <ele>554</ele>
        <time>2013-09-18T12:29:42.000Z</time>
      </trkpt>
      <trkpt lat="43.50286" lon="6.81591">
        <ele>554</ele>
        <time>2013-09-18T12:29:43.000Z</time>
      </trkpt>
      <trkpt lat="43.50286" lon="6.81592">
        <ele>554</ele>
        <time>2013-09-18T12:29:44.000Z</time>
      </trkpt>
      <trkpt lat="43.50286" lon="6.81593">
        <ele>554</ele>
        <time>2013-09-18T12:29:45.000Z</time>
      </trkpt>
      <trkpt lat="43.50286" lon="6.81597">
        <ele>554</ele>
        <time>2013-09-18T12:29:48.000Z</time>
      </trkpt>
      <trkpt lat="43.50286" lon="6.81606">
        <ele>554</ele>
        <time>2013-09-18T12:29:56.000Z</time>
      </trkpt>
      <trkpt lat="43.50286" lon="6.81608">
        <ele>554</ele>
        <time>2013-09-18T12:29:58.000Z</time>
      </trkpt>
      <trkpt lat="43.50287" lon="6.81609">
        <ele>554</ele>
        <time>2013-09-18T12:29:59.000Z</time>
      </trkpt>
      <trkpt lat="43.50287" lon="6.8161">
        <ele>554</ele>
        <time>2013-09-18T12:30:00.000Z</time>
      </trkpt>
      <trkpt lat="43.50287" lon="6.81611">
        <ele>554</ele>
        <time>2013-09-18T12:30:01.000Z</time>
      </trkpt>
      <trkpt lat="43.50287" lon="6.81614">
        <ele>554</ele>
        <time>2013-09-18T12:30:03.000Z</time>
      </trkpt>
      <trkpt lat="43.50287" lon="6.81615">
        <ele>554</ele>
        <time>2013-09-18T12:30:04.000Z</time>
      </trkpt>
      <trkpt lat="43.50287" lon="6.81616">
        <ele>554</ele>
        <time>2013-09-18T12:30:05.000Z</time>
      </trkpt>
      <trkpt lat="43.50287" lon="6.8162">
        <ele>553</ele>
        <time>2013-09-18T12:30:08.000Z</time>
      </trkpt>
      <trkpt lat="43.50287" lon="6.81623">
        <ele>553</ele>
        <time>2013-09-18T12:30:10.000Z</time>
      </trkpt>
      <trkpt lat="43.50288" lon="6.81628">
        <ele>553</ele>
        <time>2013-09-18T12:30:14.000Z</time>
      </trkpt>
      <trkpt lat="43.50288" lon="6.81631">
        <ele>553</ele>
        <time>2013-09-18T12:30:16.000Z</time>
      </trkpt>
      <trkpt lat="43.50288" lon="6.81632">
        <ele>553</ele>
        <time>2013-09-18T12:30:17.000Z</time>
      </trkpt>
      <trkpt lat="43.50288" lon="6.81634">
        <ele>553</ele>
        <time>2013-09-18T12:30:18.000Z</time>
      </trkpt>
      <trkpt lat="43.50289" lon="6.81635">
        <ele>553</ele>
        <time>2013-09-18T12:30:19.000Z</time>
      </trkpt>
      <trkpt lat="43.50289" lon="6.81636">
        <ele>553</ele>
        <time>2013-09-18T12:30:20.000Z</time>
      </trkpt>
      <trkpt lat="43.50289" lon="6.81637">
        <ele>553</ele>
        <time>2013-09-18T12:30:21.000Z</time>
      </trkpt>
      <trkpt lat="43.5029" lon="6.81639">
        <ele>553</ele>
        <time>2013-09-18T12:30:22.000Z</time>
      </trkpt>
      <trkpt lat="43.5029" lon="6.8164">
        <ele>553</ele>
        <time>2013-09-18T12:30:23.000Z</time>
      </trkpt>
      <trkpt lat="43.5029" lon="6.81641">
        <ele>553</ele>
        <time>2013-09-18T12:30:24.000Z</time>
      </trkpt>
      <trkpt lat="43.50291" lon="6.81643">
        <ele>553</ele>
        <time>2013-09-18T12:30:25.000Z</time>
      </trkpt>
      <trkpt lat="43.50291" lon="6.81644">
        <ele>553</ele>
        <time>2013-09-18T12:30:26.000Z</time>
      </trkpt>
      <trkpt lat="43.50292" lon="6.81646">
        <ele>553</ele>
        <time>2013-09-18T12:30:27.000Z</time>
      </trkpt>
      <trkpt lat="43.50292" lon="6.81647">
        <ele>553</ele>
        <time>2013-09-18T12:30:28.000Z</time>
      </trkpt>
      <trkpt lat="43.50293" lon="6.81648">
        <ele>553</ele>
        <time>2013-09-18T12:30:29.000Z</time>
      </trkpt>
      <trkpt lat="43.50293" lon="6.8165">
        <ele>553</ele>
        <time>2013-09-18T12:30:30.000Z</time>
      </trkpt>
      <trkpt lat="43.50294" lon="6.81651">
        <ele>553</ele>
        <time>2013-09-18T12:30:31.000Z</time>
      </trkpt>
      <trkpt lat="43.50295" lon="6.81652">
        <ele>553</ele>
        <time>2013-09-18T12:30:32.000Z</time>
      </trkpt>
      <trkpt lat="43.50295" lon="6.81653">
        <ele>553</ele>
        <time>2013-09-18T12:30:33.000Z</time>
      </trkpt>
      <trkpt lat="43.50295" lon="6.81653">
        <ele>553</ele>
        <time>2013-09-18T12:30:34.000Z</time>
      </trkpt>
      <trkpt lat="43.50295" lon="6.81654">
        <ele>553</ele>
        <time>2013-09-18T12:30:35.000Z</time>
      </trkpt>
      <trkpt lat="43.50296" lon="6.81654">
        <ele>553</ele>
        <time>2013-09-18T12:30:37.000Z</time>
      </trkpt>
      <trkpt lat="43.50295" lon="6.81654">
        <ele>553</ele>
        <time>2013-09-18T12:30:39.000Z</time>
      </trkpt>
      <trkpt lat="43.50296" lon="6.81657">
        <ele>553</ele>
        <time>2013-09-18T12:30:41.000Z</time>
      </trkpt>
      <trkpt lat="43.50295" lon="6.8166">
        <ele>553</ele>
        <time>2013-09-18T12:30:42.000Z</time>
      </trkpt>
      <trkpt lat="43.50295" lon="6.81663">
        <ele>553</ele>
        <time>2013-09-18T12:30:43.000Z</time>
      </trkpt>
      <trkpt lat="43.50295" lon="6.81666">
        <ele>553</ele>
        <time>2013-09-18T12:30:44.000Z</time>
      </trkpt>
      <trkpt lat="43.50294" lon="6.81669">
        <ele>547</ele>
        <time>2013-09-18T12:30:45.000Z</time>
      </trkpt>
      <trkpt lat="43.50294" lon="6.81672">
        <ele>547</ele>
        <time>2013-09-18T12:30:46.000Z</time>
      </trkpt>
      <trkpt lat="43.50293" lon="6.81675">
        <ele>546</ele>
        <time>2013-09-18T12:30:47.000Z</time>
      </trkpt>
      <trkpt lat="43.50292" lon="6.81679">
        <ele>546</ele>
        <time>2013-09-18T12:30:48.000Z</time>
      </trkpt>
      <trkpt lat="43.5029" lon="6.81683">
        <ele>546</ele>
        <time>2013-09-18T12:30:49.000Z</time>
      </trkpt>
      <trkpt lat="43.50288" lon="6.81687">
        <ele>545</ele>
        <time>2013-09-18T12:30:50.000Z</time>
      </trkpt>
      <trkpt lat="43.50285" lon="6.81691">
        <ele>545</ele>
        <time>2013-09-18T12:30:51.000Z</time>
      </trkpt>
      <trkpt lat="43.50283" lon="6.81696">
        <ele>545</ele>
        <time>2013-09-18T12:30:52.000Z</time>
      </trkpt>
      <trkpt lat="43.5028" lon="6.81701">
        <ele>545</ele>
        <time>2013-09-18T12:30:53.000Z</time>
      </trkpt>
      <trkpt lat="43.50277" lon="6.81705">
        <ele>544</ele>
        <time>2013-09-18T12:30:54.000Z</time>
      </trkpt>
      <trkpt lat="43.50275" lon="6.81709">
        <ele>544</ele>
        <time>2013-09-18T12:30:55.000Z</time>
      </trkpt>
      <trkpt lat="43.50274" lon="6.81712">
        <ele>544</ele>
        <time>2013-09-18T12:30:56.000Z</time>
      </trkpt>
      <trkpt lat="43.50272" lon="6.81715">
        <ele>544</ele>
        <time>2013-09-18T12:30:57.000Z</time>
      </trkpt>
      <trkpt lat="43.50271" lon="6.81717">
        <ele>544</ele>
        <time>2013-09-18T12:30:58.000Z</time>
      </trkpt>
      <trkpt lat="43.50269" lon="6.8172">
        <ele>544</ele>
        <time>2013-09-18T12:30:59.000Z</time>
      </trkpt>
      <trkpt lat="43.50267" lon="6.81722">
        <ele>544</ele>
        <time>2013-09-18T12:31:00.000Z</time>
      </trkpt>
      <trkpt lat="43.50266" lon="6.81724">
        <ele>544</ele>
        <time>2013-09-18T12:31:01.000Z</time>
      </trkpt>
      <trkpt lat="43.50265" lon="6.81725">
        <ele>544</ele>
        <time>2013-09-18T12:31:02.000Z</time>
      </trkpt>
      <trkpt lat="43.50264" lon="6.81726">
        <ele>544</ele>
        <time>2013-09-18T12:31:03.000Z</time>
      </trkpt>
      <trkpt lat="43.50264" lon="6.81727">
        <ele>544</ele>
        <time>2013-09-18T12:31:05.000Z</time>
      </trkpt>
      <trkpt lat="43.50263" lon="6.81727">
        <ele>544</ele>
        <time>2013-09-18T12:31:06.000Z</time>
      </trkpt>
      <trkpt lat="43.50262" lon="6.81728">
        <ele>544</ele>
        <time>2013-09-18T12:31:07.000Z</time>
      </trkpt>
      <trkpt lat="43.50261" lon="6.81729">
        <ele>544</ele>
        <time>2013-09-18T12:31:08.000Z</time>
      </trkpt>
      <trkpt lat="43.50261" lon="6.81729">
        <ele>544</ele>
        <time>2013-09-18T12:31:09.000Z</time>
      </trkpt>
      <trkpt lat="43.5026" lon="6.8173">
        <ele>544</ele>
        <time>2013-09-18T12:31:10.000Z</time>
      </trkpt>
      <trkpt lat="43.5026" lon="6.8173">
        <ele>544</ele>
        <time>2013-09-18T12:31:11.000Z</time>
      </trkpt>
      <trkpt lat="43.5026" lon="6.81731">
        <ele>544</ele>
        <time>2013-09-18T12:31:12.000Z</time>
      </trkpt>
      <trkpt lat="43.5026" lon="6.81733">
        <ele>545</ele>
        <time>2013-09-18T12:31:18.000Z</time>
      </trkpt>
      <trkpt lat="43.5026" lon="6.81735">
        <ele>545</ele>
        <time>2013-09-18T12:31:27.000Z</time>
      </trkpt>
      <trkpt lat="43.50259" lon="6.81737">
        <ele>545</ele>
        <time>2013-09-18T12:31:28.000Z</time>
      </trkpt>
      <trkpt lat="43.50259" lon="6.81739">
        <ele>545</ele>
        <time>2013-09-18T12:31:29.000Z</time>
      </trkpt>
      <trkpt lat="43.50258" lon="6.81741">
        <ele>545</ele>
        <time>2013-09-18T12:31:30.000Z</time>
      </trkpt>
      <trkpt lat="43.50257" lon="6.81744">
        <ele>545</ele>
        <time>2013-09-18T12:31:31.000Z</time>
      </trkpt>
      <trkpt lat="43.50256" lon="6.81746">
        <ele>545</ele>
        <time>2013-09-18T12:31:32.000Z</time>
      </trkpt>
      <trkpt lat="43.50256" lon="6.81749">
        <ele>545</ele>
        <time>2013-09-18T12:31:33.000Z</time>
      </trkpt>
      <trkpt lat="43.50256" lon="6.81752">
        <ele>544</ele>
        <time>2013-09-18T12:31:34.000Z</time>
      </trkpt>
      <trkpt lat="43.50256" lon="6.81755">
        <ele>544</ele>
        <time>2013-09-18T12:31:35.000Z</time>
      </trkpt>
      <trkpt lat="43.50255" lon="6.81758">
        <ele>544</ele>
        <time>2013-09-18T12:31:36.000Z</time>
      </trkpt>
      <trkpt lat="43.50255" lon="6.81761">
        <ele>544</ele>
        <time>2013-09-18T12:31:37.000Z</time>
      </trkpt>
      <trkpt lat="43.50255" lon="6.81764">
        <ele>543</ele>
        <time>2013-09-18T12:31:38.000Z</time>
      </trkpt>
      <trkpt lat="43.50254" lon="6.81767">
        <ele>543</ele>
        <time>2013-09-18T12:31:39.000Z</time>
      </trkpt>
      <trkpt lat="43.50254" lon="6.81769">
        <ele>543</ele>
        <time>2013-09-18T12:31:40.000Z</time>
      </trkpt>
      <trkpt lat="43.50253" lon="6.81772">
        <ele>543</ele>
        <time>2013-09-18T12:31:41.000Z</time>
      </trkpt>
      <trkpt lat="43.50253" lon="6.81775">
        <ele>543</ele>
        <time>2013-09-18T12:31:42.000Z</time>
      </trkpt>
      <trkpt lat="43.50253" lon="6.81777">
        <ele>543</ele>
        <time>2013-09-18T12:31:43.000Z</time>
      </trkpt>
      <trkpt lat="43.50253" lon="6.8178">
        <ele>543</ele>
        <time>2013-09-18T12:31:44.000Z</time>
      </trkpt>
      <trkpt lat="43.50253" lon="6.81782">
        <ele>543</ele>
        <time>2013-09-18T12:31:45.000Z</time>
      </trkpt>
      <trkpt lat="43.50253" lon="6.81785">
        <ele>543</ele>
        <time>2013-09-18T12:31:46.000Z</time>
      </trkpt>
      <trkpt lat="43.50253" lon="6.81789">
        <ele>543</ele>
        <time>2013-09-18T12:31:48.000Z</time>
      </trkpt>
      <trkpt lat="43.50252" lon="6.81791">
        <ele>543</ele>
        <time>2013-09-18T12:31:49.000Z</time>
      </trkpt>
      <trkpt lat="43.50252" lon="6.81796">
        <ele>544</ele>
        <time>2013-09-18T12:31:51.000Z</time>
      </trkpt>
      <trkpt lat="43.50253" lon="6.81803">
        <ele>545</ele>
        <time>2013-09-18T12:31:54.000Z</time>
      </trkpt>
      <trkpt lat="43.50253" lon="6.8181">
        <ele>546</ele>
        <time>2013-09-18T12:31:57.000Z</time>
      </trkpt>
      <trkpt lat="43.50253" lon="6.81813">
        <ele>547</ele>
        <time>2013-09-18T12:31:58.000Z</time>
      </trkpt>
      <trkpt lat="43.50253" lon="6.81817">
        <ele>549</ele>
        <time>2013-09-18T12:32:00.000Z</time>
      </trkpt>
      <trkpt lat="43.50253" lon="6.8182">
        <ele>550</ele>
        <time>2013-09-18T12:32:01.000Z</time>
      </trkpt>
      <trkpt lat="43.50253" lon="6.81826">
        <ele>552</ele>
        <time>2013-09-18T12:32:04.000Z</time>
      </trkpt>
      <trkpt lat="43.50253" lon="6.8183">
        <ele>555</ele>
        <time>2013-09-18T12:32:06.000Z</time>
      </trkpt>
      <trkpt lat="43.50253" lon="6.81832">
        <ele>556</ele>
        <time>2013-09-18T12:32:07.000Z</time>
      </trkpt>
      <trkpt lat="43.50252" lon="6.81836">
        <ele>556</ele>
        <time>2013-09-18T12:32:09.000Z</time>
      </trkpt>
      <trkpt lat="43.50252" lon="6.81838">
        <ele>555</ele>
        <time>2013-09-18T12:32:10.000Z</time>
      </trkpt>
      <trkpt lat="43.50252" lon="6.81844">
        <ele>552</ele>
        <time>2013-09-18T12:32:13.000Z</time>
      </trkpt>
      <trkpt lat="43.50252" lon="6.81846">
        <ele>551</ele>
        <time>2013-09-18T12:32:14.000Z</time>
      </trkpt>
      <trkpt lat="43.50252" lon="6.81851">
        <ele>549</ele>
        <time>2013-09-18T12:32:16.000Z</time>
      </trkpt>
      <trkpt lat="43.50252" lon="6.81853">
        <ele>549</ele>
        <time>2013-09-18T12:32:17.000Z</time>
      </trkpt>
      <trkpt lat="43.50251" lon="6.81855">
        <ele>549</ele>
        <time>2013-09-18T12:32:18.000Z</time>
      </trkpt>
      <trkpt lat="43.50251" lon="6.81857">
        <ele>548</ele>
        <time>2013-09-18T12:32:19.000Z</time>
      </trkpt>
      <trkpt lat="43.50251" lon="6.81859">
        <ele>548</ele>
        <time>2013-09-18T12:32:20.000Z</time>
      </trkpt>
      <trkpt lat="43.50251" lon="6.81861">
        <ele>548</ele>
        <time>2013-09-18T12:32:21.000Z</time>
      </trkpt>
      <trkpt lat="43.50251" lon="6.81863">
        <ele>547</ele>
        <time>2013-09-18T12:32:22.000Z</time>
      </trkpt>
      <trkpt lat="43.50251" lon="6.81867">
        <ele>547</ele>
        <time>2013-09-18T12:32:24.000Z</time>
      </trkpt>
      <trkpt lat="43.50251" lon="6.8187">
        <ele>547</ele>
        <time>2013-09-18T12:32:25.000Z</time>
      </trkpt>
      <trkpt lat="43.50251" lon="6.81872">
        <ele>547</ele>
        <time>2013-09-18T12:32:26.000Z</time>
      </trkpt>
      <trkpt lat="43.5025" lon="6.81874">
        <ele>547</ele>
        <time>2013-09-18T12:32:27.000Z</time>
      </trkpt>
      <trkpt lat="43.5025" lon="6.81876">
        <ele>566</ele>
        <time>2013-09-18T12:32:28.000Z</time>
      </trkpt>
      <trkpt lat="43.5025" lon="6.81879">
        <ele>566</ele>
        <time>2013-09-18T12:32:29.000Z</time>
      </trkpt>
      <trkpt lat="43.5025" lon="6.81885">
        <ele>566</ele>
        <time>2013-09-18T12:32:32.000Z</time>
      </trkpt>
      <trkpt lat="43.5025" lon="6.81889">
        <ele>566</ele>
        <time>2013-09-18T12:32:34.000Z</time>
      </trkpt>
      <trkpt lat="43.5025" lon="6.81891">
        <ele>566</ele>
        <time>2013-09-18T12:32:35.000Z</time>
      </trkpt>
      <trkpt lat="43.50249" lon="6.81895">
        <ele>566</ele>
        <time>2013-09-18T12:32:37.000Z</time>
      </trkpt>
      <trkpt lat="43.50249" lon="6.81897">
        <ele>566</ele>
        <time>2013-09-18T12:32:38.000Z</time>
      </trkpt>
      <trkpt lat="43.50249" lon="6.81899">
        <ele>566</ele>
        <time>2013-09-18T12:32:39.000Z</time>
      </trkpt>
      <trkpt lat="43.50249" lon="6.819">
        <ele>566</ele>
        <time>2013-09-18T12:32:40.000Z</time>
      </trkpt>
      <trkpt lat="43.50249" lon="6.81902">
        <ele>566</ele>
        <time>2013-09-18T12:32:41.000Z</time>
      </trkpt>
      <trkpt lat="43.50248" lon="6.81906">
        <ele>566</ele>
        <time>2013-09-18T12:32:43.000Z</time>
      </trkpt>
      <trkpt lat="43.50248" lon="6.81908">
        <ele>566</ele>
        <time>2013-09-18T12:32:44.000Z</time>
      </trkpt>
      <trkpt lat="43.50248" lon="6.8191">
        <ele>566</ele>
        <time>2013-09-18T12:32:45.000Z</time>
      </trkpt>
      <trkpt lat="43.50248" lon="6.81912">
        <ele>566</ele>
        <time>2013-09-18T12:32:46.000Z</time>
      </trkpt>
      <trkpt lat="43.50247" lon="6.81915">
        <ele>565</ele>
        <time>2013-09-18T12:32:47.000Z</time>
      </trkpt>
      <trkpt lat="43.50248" lon="6.81923">
        <ele>567</ele>
        <time>2013-09-18T12:32:51.000Z</time>
      </trkpt>
      <trkpt lat="43.50248" lon="6.81926">
        <ele>568</ele>
        <time>2013-09-18T12:32:52.000Z</time>
      </trkpt>
      <trkpt lat="43.50248" lon="6.8193">
        <ele>569</ele>
        <time>2013-09-18T12:32:54.000Z</time>
      </trkpt>
      <trkpt lat="43.50247" lon="6.81932">
        <ele>569</ele>
        <time>2013-09-18T12:32:55.000Z</time>
      </trkpt>
      <trkpt lat="43.50247" lon="6.81934">
        <ele>570</ele>
        <time>2013-09-18T12:32:56.000Z</time>
      </trkpt>
      <trkpt lat="43.50247" lon="6.81936">
        <ele>570</ele>
        <time>2013-09-18T12:32:57.000Z</time>
      </trkpt>
      <trkpt lat="43.50247" lon="6.81938">
        <ele>570</ele>
        <time>2013-09-18T12:32:58.000Z</time>
      </trkpt>
      <trkpt lat="43.50247" lon="6.8194">
        <ele>570</ele>
        <time>2013-09-18T12:32:59.000Z</time>
      </trkpt>
      <trkpt lat="43.50248" lon="6.81942">
        <ele>571</ele>
        <time>2013-09-18T12:33:00.000Z</time>
      </trkpt>
      <trkpt lat="43.50248" lon="6.81944">
        <ele>571</ele>
        <time>2013-09-18T12:33:01.000Z</time>
      </trkpt>
      <trkpt lat="43.50249" lon="6.81946">
        <ele>571</ele>
        <time>2013-09-18T12:33:02.000Z</time>
      </trkpt>
      <trkpt lat="43.50249" lon="6.81948">
        <ele>571</ele>
        <time>2013-09-18T12:33:03.000Z</time>
      </trkpt>
      <trkpt lat="43.50249" lon="6.81951">
        <ele>571</ele>
        <time>2013-09-18T12:33:04.000Z</time>
      </trkpt>
      <trkpt lat="43.5025" lon="6.81953">
        <ele>571</ele>
        <time>2013-09-18T12:33:05.000Z</time>
      </trkpt>
      <trkpt lat="43.5025" lon="6.81955">
        <ele>572</ele>
        <time>2013-09-18T12:33:06.000Z</time>
      </trkpt>
      <trkpt lat="43.5025" lon="6.81957">
        <ele>572</ele>
        <time>2013-09-18T12:33:07.000Z</time>
      </trkpt>
      <trkpt lat="43.5025" lon="6.8196">
        <ele>572</ele>
        <time>2013-09-18T12:33:08.000Z</time>
      </trkpt>
      <trkpt lat="43.5025" lon="6.81962">
        <ele>552</ele>
        <time>2013-09-18T12:33:09.000Z</time>
      </trkpt>
      <trkpt lat="43.50251" lon="6.81965">
        <ele>553</ele>
        <time>2013-09-18T12:33:10.000Z</time>
      </trkpt>
      <trkpt lat="43.5025" lon="6.81977">
        <ele>555</ele>
        <time>2013-09-18T12:33:15.000Z</time>
      </trkpt>
      <trkpt lat="43.5025" lon="6.81982">
        <ele>557</ele>
        <time>2013-09-18T12:33:17.000Z</time>
      </trkpt>
      <trkpt lat="43.5025" lon="6.81985">
        <ele>571</ele>
        <time>2013-09-18T12:33:18.000Z</time>
      </trkpt>
      <trkpt lat="43.5025" lon="6.81987">
        <ele>571</ele>
        <time>2013-09-18T12:33:19.000Z</time>
      </trkpt>
      <trkpt lat="43.5025" lon="6.81989">
        <ele>571</ele>
        <time>2013-09-18T12:33:20.000Z</time>
      </trkpt>
      <trkpt lat="43.50249" lon="6.81992">
        <ele>570</ele>
        <time>2013-09-18T12:33:21.000Z</time>
      </trkpt>
      <trkpt lat="43.50249" lon="6.81995">
        <ele>570</ele>
        <time>2013-09-18T12:33:22.000Z</time>
      </trkpt>
      <trkpt lat="43.5025" lon="6.82">
        <ele>569</ele>
        <time>2013-09-18T12:33:24.000Z</time>
      </trkpt>
      <trkpt lat="43.5025" lon="6.82002">
        <ele>570</ele>
        <time>2013-09-18T12:33:25.000Z</time>
      </trkpt>
      <trkpt lat="43.5025" lon="6.82005">
        <ele>567</ele>
        <time>2013-09-18T12:33:26.000Z</time>
      </trkpt>
      <trkpt lat="43.5025" lon="6.82007">
        <ele>565</ele>
        <time>2013-09-18T12:33:27.000Z</time>
      </trkpt>
      <trkpt lat="43.50251" lon="6.82009">
        <ele>565</ele>
        <time>2013-09-18T12:33:28.000Z</time>
      </trkpt>
      <trkpt lat="43.50251" lon="6.82011">
        <ele>564</ele>
        <time>2013-09-18T12:33:29.000Z</time>
      </trkpt>
      <trkpt lat="43.50252" lon="6.82013">
        <ele>563</ele>
        <time>2013-09-18T12:33:30.000Z</time>
      </trkpt>
      <trkpt lat="43.50252" lon="6.82016">
        <ele>563</ele>
        <time>2013-09-18T12:33:31.000Z</time>
      </trkpt>
      <trkpt lat="43.50253" lon="6.82018">
        <ele>562</ele>
        <time>2013-09-18T12:33:32.000Z</time>
      </trkpt>
      <trkpt lat="43.50254" lon="6.8202">
        <ele>562</ele>
        <time>2013-09-18T12:33:33.000Z</time>
      </trkpt>
      <trkpt lat="43.50255" lon="6.82022">
        <ele>561</ele>
        <time>2013-09-18T12:33:34.000Z</time>
      </trkpt>
      <trkpt lat="43.50255" lon="6.82024">
        <ele>561</ele>
        <time>2013-09-18T12:33:35.000Z</time>
      </trkpt>
      <trkpt lat="43.50256" lon="6.82026">
        <ele>561</ele>
        <time>2013-09-18T12:33:36.000Z</time>
      </trkpt>
      <trkpt lat="43.50256" lon="6.82028">
        <ele>561</ele>
        <time>2013-09-18T12:33:37.000Z</time>
      </trkpt>
      <trkpt lat="43.50257" lon="6.8203">
        <ele>561</ele>
        <time>2013-09-18T12:33:38.000Z</time>
      </trkpt>
      <trkpt lat="43.50257" lon="6.82032">
        <ele>561</ele>
        <time>2013-09-18T12:33:39.000Z</time>
      </trkpt>
      <trkpt lat="43.50258" lon="6.82034">
        <ele>561</ele>
        <time>2013-09-18T12:33:40.000Z</time>
      </trkpt>
      <trkpt lat="43.50258" lon="6.82036">
        <ele>561</ele>
        <time>2013-09-18T12:33:41.000Z</time>
      </trkpt>
      <trkpt lat="43.50259" lon="6.82038">
        <ele>561</ele>
        <time>2013-09-18T12:33:42.000Z</time>
      </trkpt>
      <trkpt lat="43.50259" lon="6.8204">
        <ele>561</ele>
        <time>2013-09-18T12:33:43.000Z</time>
      </trkpt>
      <trkpt lat="43.5026" lon="6.82042">
        <ele>561</ele>
        <time>2013-09-18T12:33:44.000Z</time>
      </trkpt>
      <trkpt lat="43.5026" lon="6.82044">
        <ele>561</ele>
        <time>2013-09-18T12:33:45.000Z</time>
      </trkpt>
      <trkpt lat="43.5026" lon="6.82046">
        <ele>561</ele>
        <time>2013-09-18T12:33:46.000Z</time>
      </trkpt>
      <trkpt lat="43.50261" lon="6.82048">
        <ele>562</ele>
        <time>2013-09-18T12:33:47.000Z</time>
      </trkpt>
      <trkpt lat="43.50261" lon="6.8205">
        <ele>562</ele>
        <time>2013-09-18T12:33:48.000Z</time>
      </trkpt>
      <trkpt lat="43.50262" lon="6.82052">
        <ele>562</ele>
        <time>2013-09-18T12:33:49.000Z</time>
      </trkpt>
      <trkpt lat="43.50262" lon="6.82054">
        <ele>563</ele>
        <time>2013-09-18T12:33:50.000Z</time>
      </trkpt>
      <trkpt lat="43.50263" lon="6.82056">
        <ele>563</ele>
        <time>2013-09-18T12:33:51.000Z</time>
      </trkpt>
      <trkpt lat="43.50263" lon="6.82058">
        <ele>563</ele>
        <time>2013-09-18T12:33:52.000Z</time>
      </trkpt>
      <trkpt lat="43.50264" lon="6.82061">
        <ele>564</ele>
        <time>2013-09-18T12:33:53.000Z</time>
      </trkpt>
      <trkpt lat="43.50265" lon="6.82063">
        <ele>564</ele>
        <time>2013-09-18T12:33:54.000Z</time>
      </trkpt>
      <trkpt lat="43.50266" lon="6.82065">
        <ele>565</ele>
        <time>2013-09-18T12:33:55.000Z</time>
      </trkpt>
      <trkpt lat="43.50266" lon="6.82067">
        <ele>565</ele>
        <time>2013-09-18T12:33:56.000Z</time>
      </trkpt>
      <trkpt lat="43.50267" lon="6.82069">
        <ele>565</ele>
        <time>2013-09-18T12:33:57.000Z</time>
      </trkpt>
      <trkpt lat="43.50268" lon="6.82071">
        <ele>566</ele>
        <time>2013-09-18T12:33:58.000Z</time>
      </trkpt>
      <trkpt lat="43.50268" lon="6.82072">
        <ele>565</ele>
        <time>2013-09-18T12:33:59.000Z</time>
      </trkpt>
      <trkpt lat="43.50269" lon="6.82073">
        <ele>566</ele>
        <time>2013-09-18T12:34:01.000Z</time>
      </trkpt>
      <trkpt lat="43.50269" lon="6.82074">
        <ele>566</ele>
        <time>2013-09-18T12:34:02.000Z</time>
      </trkpt>
      <trkpt lat="43.5027" lon="6.82075">
        <ele>565</ele>
        <time>2013-09-18T12:34:03.000Z</time>
      </trkpt>
      <trkpt lat="43.50271" lon="6.82076">
        <ele>565</ele>
        <time>2013-09-18T12:34:04.000Z</time>
      </trkpt>
      <trkpt lat="43.50271" lon="6.82077">
        <ele>565</ele>
        <time>2013-09-18T12:34:05.000Z</time>
      </trkpt>
      <trkpt lat="43.50272" lon="6.82078">
        <ele>565</ele>
        <time>2013-09-18T12:34:06.000Z</time>
      </trkpt>
      <trkpt lat="43.50273" lon="6.82079">
        <ele>564</ele>
        <time>2013-09-18T12:34:07.000Z</time>
      </trkpt>
      <trkpt lat="43.50274" lon="6.8208">
        <ele>564</ele>
        <time>2013-09-18T12:34:08.000Z</time>
      </trkpt>
      <trkpt lat="43.50275" lon="6.82081">
        <ele>563</ele>
        <time>2013-09-18T12:34:09.000Z</time>
      </trkpt>
      <trkpt lat="43.50276" lon="6.82082">
        <ele>563</ele>
        <time>2013-09-18T12:34:10.000Z</time>
      </trkpt>
      <trkpt lat="43.50277" lon="6.82083">
        <ele>563</ele>
        <time>2013-09-18T12:34:11.000Z</time>
      </trkpt>
      <trkpt lat="43.50277" lon="6.82084">
        <ele>568</ele>
        <time>2013-09-18T12:34:12.000Z</time>
      </trkpt>
      <trkpt lat="43.50278" lon="6.82084">
        <ele>568</ele>
        <time>2013-09-18T12:34:13.000Z</time>
      </trkpt>
      <trkpt lat="43.50278" lon="6.82085">
        <ele>568</ele>
        <time>2013-09-18T12:34:14.000Z</time>
      </trkpt>
      <trkpt lat="43.50279" lon="6.82086">
        <ele>568</ele>
        <time>2013-09-18T12:34:15.000Z</time>
      </trkpt>
      <trkpt lat="43.50279" lon="6.82086">
        <ele>568</ele>
        <time>2013-09-18T12:34:16.000Z</time>
      </trkpt>
      <trkpt lat="43.50279" lon="6.82087">
        <ele>568</ele>
        <time>2013-09-18T12:34:17.000Z</time>
      </trkpt>
      <trkpt lat="43.5028" lon="6.82087">
        <ele>567</ele>
        <time>2013-09-18T12:34:19.000Z</time>
      </trkpt>
      <trkpt lat="43.50279" lon="6.82087">
        <ele>568</ele>
        <time>2013-09-18T12:34:27.000Z</time>
      </trkpt>
      <trkpt lat="43.50279" lon="6.82087">
        <ele>568</ele>
        <time>2013-09-18T12:34:28.000Z</time>
      </trkpt>
      <trkpt lat="43.50279" lon="6.82088">
        <ele>568</ele>
        <time>2013-09-18T12:34:29.000Z</time>
      </trkpt>
      <trkpt lat="43.50277" lon="6.82087">
        <ele>568</ele>
        <time>2013-09-18T12:34:31.000Z</time>
      </trkpt>
      <trkpt lat="43.50276" lon="6.82086">
        <ele>569</ele>
        <time>2013-09-18T12:34:32.000Z</time>
      </trkpt>
      <trkpt lat="43.50275" lon="6.82086">
        <ele>569</ele>
        <time>2013-09-18T12:34:33.000Z</time>
      </trkpt>
      <trkpt lat="43.50274" lon="6.82085">
        <ele>570</ele>
        <time>2013-09-18T12:34:34.000Z</time>
      </trkpt>
      <trkpt lat="43.50273" lon="6.82085">
        <ele>570</ele>
        <time>2013-09-18T12:34:35.000Z</time>
      </trkpt>
      <trkpt lat="43.50273" lon="6.82084">
        <ele>570</ele>
        <time>2013-09-18T12:34:36.000Z</time>
      </trkpt>
      <trkpt lat="43.50272" lon="6.82083">
        <ele>565</ele>
        <time>2013-09-18T12:34:37.000Z</time>
      </trkpt>
      <trkpt lat="43.50271" lon="6.82083">
        <ele>566</ele>
        <time>2013-09-18T12:34:38.000Z</time>
      </trkpt>
      <trkpt lat="43.5027" lon="6.82082">
        <ele>566</ele>
        <time>2013-09-18T12:34:39.000Z</time>
      </trkpt>
      <trkpt lat="43.50269" lon="6.82082">
        <ele>567</ele>
        <time>2013-09-18T12:34:40.000Z</time>
      </trkpt>
      <trkpt lat="43.50269" lon="6.82082">
        <ele>567</ele>
        <time>2013-09-18T12:34:41.000Z</time>
      </trkpt>
      <trkpt lat="43.50268" lon="6.82081">
        <ele>567</ele>
        <time>2013-09-18T12:34:42.000Z</time>
      </trkpt>
      <trkpt lat="43.50267" lon="6.82081">
        <ele>568</ele>
        <time>2013-09-18T12:34:43.000Z</time>
      </trkpt>
      <trkpt lat="43.50266" lon="6.8208">
        <ele>568</ele>
        <time>2013-09-18T12:34:44.000Z</time>
      </trkpt>
      <trkpt lat="43.50266" lon="6.82079">
        <ele>569</ele>
        <time>2013-09-18T12:34:45.000Z</time>
      </trkpt>
      <trkpt lat="43.50265" lon="6.82079">
        <ele>569</ele>
        <time>2013-09-18T12:34:46.000Z</time>
      </trkpt>
      <trkpt lat="43.50264" lon="6.82078">
        <ele>569</ele>
        <time>2013-09-18T12:34:47.000Z</time>
      </trkpt>
      <trkpt lat="43.50263" lon="6.82078">
        <ele>570</ele>
        <time>2013-09-18T12:34:48.000Z</time>
      </trkpt>
      <trkpt lat="43.50262" lon="6.82077">
        <ele>570</ele>
        <time>2013-09-18T12:34:49.000Z</time>
      </trkpt>
      <trkpt lat="43.50261" lon="6.82077">
        <ele>571</ele>
        <time>2013-09-18T12:34:50.000Z</time>
      </trkpt>
      <trkpt lat="43.5026" lon="6.82077">
        <ele>571</ele>
        <time>2013-09-18T12:34:51.000Z</time>
      </trkpt>
      <trkpt lat="43.50259" lon="6.82076">
        <ele>572</ele>
        <time>2013-09-18T12:34:52.000Z</time>
      </trkpt>
      <trkpt lat="43.50258" lon="6.82076">
        <ele>572</ele>
        <time>2013-09-18T12:34:53.000Z</time>
      </trkpt>
      <trkpt lat="43.50257" lon="6.82075">
        <ele>572</ele>
        <time>2013-09-18T12:34:54.000Z</time>
      </trkpt>
      <trkpt lat="43.50257" lon="6.82074">
        <ele>572</ele>
        <time>2013-09-18T12:34:55.000Z</time>
      </trkpt>
      <trkpt lat="43.50256" lon="6.82074">
        <ele>572</ele>
        <time>2013-09-18T12:34:56.000Z</time>
      </trkpt>
      <trkpt lat="43.50255" lon="6.82073">
        <ele>572</ele>
        <time>2013-09-18T12:34:57.000Z</time>
      </trkpt>
      <trkpt lat="43.50254" lon="6.82072">
        <ele>572</ele>
        <time>2013-09-18T12:34:58.000Z</time>
      </trkpt>
      <trkpt lat="43.50254" lon="6.82072">
        <ele>572</ele>
        <time>2013-09-18T12:34:59.000Z</time>
      </trkpt>
      <trkpt lat="43.50253" lon="6.82071">
        <ele>571</ele>
        <time>2013-09-18T12:35:00.000Z</time>
      </trkpt>
      <trkpt lat="43.50252" lon="6.8207">
        <ele>571</ele>
        <time>2013-09-18T12:35:01.000Z</time>
      </trkpt>
      <trkpt lat="43.50252" lon="6.8207">
        <ele>571</ele>
        <time>2013-09-18T12:35:02.000Z</time>
      </trkpt>
      <trkpt lat="43.50251" lon="6.82069">
        <ele>570</ele>
        <time>2013-09-18T12:35:03.000Z</time>
      </trkpt>
      <trkpt lat="43.5025" lon="6.82068">
        <ele>579</ele>
        <time>2013-09-18T12:35:04.000Z</time>
      </trkpt>
      <trkpt lat="43.50249" lon="6.82067">
        <ele>579</ele>
        <time>2013-09-18T12:35:05.000Z</time>
      </trkpt>
      <trkpt lat="43.50249" lon="6.82066">
        <ele>579</ele>
        <time>2013-09-18T12:35:06.000Z</time>
      </trkpt>
      <trkpt lat="43.50248" lon="6.82065">
        <ele>579</ele>
        <time>2013-09-18T12:35:07.000Z</time>
      </trkpt>
      <trkpt lat="43.50247" lon="6.82064">
        <ele>579</ele>
        <time>2013-09-18T12:35:08.000Z</time>
      </trkpt>
      <trkpt lat="43.50247" lon="6.82063">
        <ele>579</ele>
        <time>2013-09-18T12:35:09.000Z</time>
      </trkpt>
      <trkpt lat="43.50246" lon="6.82062">
        <ele>579</ele>
        <time>2013-09-18T12:35:10.000Z</time>
      </trkpt>
      <trkpt lat="43.50245" lon="6.82061">
        <ele>578</ele>
        <time>2013-09-18T12:35:11.000Z</time>
      </trkpt>
      <trkpt lat="43.50244" lon="6.8206">
        <ele>578</ele>
        <time>2013-09-18T12:35:12.000Z</time>
      </trkpt>
      <trkpt lat="43.50244" lon="6.82059">
        <ele>578</ele>
        <time>2013-09-18T12:35:13.000Z</time>
      </trkpt>
      <trkpt lat="43.50243" lon="6.82058">
        <ele>578</ele>
        <time>2013-09-18T12:35:14.000Z</time>
      </trkpt>
      <trkpt lat="43.50242" lon="6.82057">
        <ele>578</ele>
        <time>2013-09-18T12:35:15.000Z</time>
      </trkpt>
      <trkpt lat="43.50242" lon="6.82056">
        <ele>578</ele>
        <time>2013-09-18T12:35:16.000Z</time>
      </trkpt>
      <trkpt lat="43.50241" lon="6.82055">
        <ele>578</ele>
        <time>2013-09-18T12:35:17.000Z</time>
      </trkpt>
      <trkpt lat="43.50241" lon="6.82054">
        <ele>578</ele>
        <time>2013-09-18T12:35:18.000Z</time>
      </trkpt>
      <trkpt lat="43.5024" lon="6.82053">
        <ele>577</ele>
        <time>2013-09-18T12:35:19.000Z</time>
      </trkpt>
      <trkpt lat="43.50239" lon="6.82052">
        <ele>577</ele>
        <time>2013-09-18T12:35:20.000Z</time>
      </trkpt>
      <trkpt lat="43.50239" lon="6.82051">
        <ele>577</ele>
        <time>2013-09-18T12:35:21.000Z</time>
      </trkpt>
      <trkpt lat="43.50238" lon="6.8205">
        <ele>577</ele>
        <time>2013-09-18T12:35:22.000Z</time>
      </trkpt>
      <trkpt lat="43.50238" lon="6.82048">
        <ele>577</ele>
        <time>2013-09-18T12:35:23.000Z</time>
      </trkpt>
      <trkpt lat="43.50237" lon="6.82047">
        <ele>577</ele>
        <time>2013-09-18T12:35:24.000Z</time>
      </trkpt>
      <trkpt lat="43.50237" lon="6.82047">
        <ele>577</ele>
        <time>2013-09-18T12:35:25.000Z</time>
      </trkpt>
      <trkpt lat="43.50236" lon="6.82046">
        <ele>577</ele>
        <time>2013-09-18T12:35:26.000Z</time>
      </trkpt>
      <trkpt lat="43.50236" lon="6.82045">
        <ele>577</ele>
        <time>2013-09-18T12:35:27.000Z</time>
      </trkpt>
      <trkpt lat="43.50235" lon="6.82044">
        <ele>577</ele>
        <time>2013-09-18T12:35:28.000Z</time>
      </trkpt>
      <trkpt lat="43.50235" lon="6.82044">
        <ele>577</ele>
        <time>2013-09-18T12:35:29.000Z</time>
      </trkpt>
      <trkpt lat="43.50235" lon="6.82043">
        <ele>577</ele>
        <time>2013-09-18T12:35:31.000Z</time>
      </trkpt>
      <trkpt lat="43.50235" lon="6.82043">
        <ele>577</ele>
        <time>2013-09-18T12:35:33.000Z</time>
      </trkpt>
      <trkpt lat="43.50235" lon="6.82043">
        <ele>577</ele>
        <time>2013-09-18T12:35:34.000Z</time>
      </trkpt>
      <trkpt lat="43.50235" lon="6.82043">
        <ele>577</ele>
        <time>2013-09-18T12:35:35.000Z</time>
      </trkpt>
      <trkpt lat="43.50235" lon="6.82043">
        <ele>577</ele>
        <time>2013-09-18T12:35:39.000Z</time>
      </trkpt>
      <trkpt lat="43.50234" lon="6.82043">
        <ele>577</ele>
        <time>2013-09-18T12:35:43.000Z</time>
      </trkpt>
      <trkpt lat="43.50233" lon="6.82044">
        <ele>577</ele>
        <time>2013-09-18T12:35:44.000Z</time>
      </trkpt>
      <trkpt lat="43.50233" lon="6.82045">
        <ele>577</ele>
        <time>2013-09-18T12:35:45.000Z</time>
      </trkpt>
      <trkpt lat="43.50232" lon="6.82046">
        <ele>577</ele>
        <time>2013-09-18T12:35:46.000Z</time>
      </trkpt>
      <trkpt lat="43.50232" lon="6.82047">
        <ele>577</ele>
        <time>2013-09-18T12:35:47.000Z</time>
      </trkpt>
      <trkpt lat="43.50232" lon="6.82051">
        <ele>577</ele>
        <time>2013-09-18T12:35:50.000Z</time>
      </trkpt>
      <trkpt lat="43.50232" lon="6.82052">
        <ele>577</ele>
        <time>2013-09-18T12:35:52.000Z</time>
      </trkpt>
      <trkpt lat="43.50232" lon="6.82052">
        <ele>577</ele>
        <time>2013-09-18T12:35:55.000Z</time>
      </trkpt>
      <trkpt lat="43.50233" lon="6.82054">
        <ele>577</ele>
        <time>2013-09-18T12:35:57.000Z</time>
      </trkpt>
      <trkpt lat="43.50233" lon="6.82055">
        <ele>578</ele>
        <time>2013-09-18T12:35:58.000Z</time>
      </trkpt>
      <trkpt lat="43.50233" lon="6.82056">
        <ele>578</ele>
        <time>2013-09-18T12:35:59.000Z</time>
      </trkpt>
      <trkpt lat="43.50233" lon="6.82057">
        <ele>578</ele>
        <time>2013-09-18T12:36:00.000Z</time>
      </trkpt>
      <trkpt lat="43.50233" lon="6.82059">
        <ele>578</ele>
        <time>2013-09-18T12:36:01.000Z</time>
      </trkpt>
      <trkpt lat="43.50234" lon="6.8206">
        <ele>578</ele>
        <time>2013-09-18T12:36:02.000Z</time>
      </trkpt>
      <trkpt lat="43.50234" lon="6.82061">
        <ele>578</ele>
        <time>2013-09-18T12:36:03.000Z</time>
      </trkpt>
      <trkpt lat="43.50234" lon="6.82062">
        <ele>578</ele>
        <time>2013-09-18T12:36:04.000Z</time>
      </trkpt>
      <trkpt lat="43.50234" lon="6.82063">
        <ele>578</ele>
        <time>2013-09-18T12:36:05.000Z</time>
      </trkpt>
      <trkpt lat="43.50235" lon="6.82064">
        <ele>578</ele>
        <time>2013-09-18T12:36:06.000Z</time>
      </trkpt>
      <trkpt lat="43.50235" lon="6.82065">
        <ele>578</ele>
        <time>2013-09-18T12:36:07.000Z</time>
      </trkpt>
      <trkpt lat="43.50235" lon="6.82067">
        <ele>579</ele>
        <time>2013-09-18T12:36:08.000Z</time>
      </trkpt>
      <trkpt lat="43.50236" lon="6.82068">
        <ele>579</ele>
        <time>2013-09-18T12:36:09.000Z</time>
      </trkpt>
      <trkpt lat="43.50236" lon="6.82069">
        <ele>579</ele>
        <time>2013-09-18T12:36:10.000Z</time>
      </trkpt>
      <trkpt lat="43.50237" lon="6.8207">
        <ele>579</ele>
        <time>2013-09-18T12:36:11.000Z</time>
      </trkpt>
      <trkpt lat="43.50237" lon="6.82071">
        <ele>579</ele>
        <time>2013-09-18T12:36:12.000Z</time>
      </trkpt>
      <trkpt lat="43.50237" lon="6.82074">
        <ele>579</ele>
        <time>2013-09-18T12:36:14.000Z</time>
      </trkpt>
      <trkpt lat="43.50237" lon="6.82075">
        <ele>579</ele>
        <time>2013-09-18T12:36:15.000Z</time>
      </trkpt>
      <trkpt lat="43.50238" lon="6.82076">
        <ele>579</ele>
        <time>2013-09-18T12:36:16.000Z</time>
      </trkpt>
      <trkpt lat="43.50238" lon="6.82077">
        <ele>580</ele>
        <time>2013-09-18T12:36:17.000Z</time>
      </trkpt>
      <trkpt lat="43.50238" lon="6.82078">
        <ele>580</ele>
        <time>2013-09-18T12:36:18.000Z</time>
      </trkpt>
      <trkpt lat="43.50239" lon="6.82079">
        <ele>580</ele>
        <time>2013-09-18T12:36:19.000Z</time>
      </trkpt>
      <trkpt lat="43.50239" lon="6.8208">
        <ele>580</ele>
        <time>2013-09-18T12:36:20.000Z</time>
      </trkpt>
      <trkpt lat="43.50239" lon="6.82081">
        <ele>580</ele>
        <time>2013-09-18T12:36:21.000Z</time>
      </trkpt>
      <trkpt lat="43.5024" lon="6.82082">
        <ele>580</ele>
        <time>2013-09-18T12:36:22.000Z</time>
      </trkpt>
      <trkpt lat="43.5024" lon="6.82083">
        <ele>580</ele>
        <time>2013-09-18T12:36:23.000Z</time>
      </trkpt>
      <trkpt lat="43.50241" lon="6.82084">
        <ele>581</ele>
        <time>2013-09-18T12:36:24.000Z</time>
      </trkpt>
      <trkpt lat="43.50241" lon="6.82084">
        <ele>581</ele>
        <time>2013-09-18T12:36:25.000Z</time>
      </trkpt>
      <trkpt lat="43.50242" lon="6.82085">
        <ele>581</ele>
        <time>2013-09-18T12:36:26.000Z</time>
      </trkpt>
      <trkpt lat="43.50242" lon="6.82086">
        <ele>581</ele>
        <time>2013-09-18T12:36:27.000Z</time>
      </trkpt>
      <trkpt lat="43.50243" lon="6.82086">
        <ele>581</ele>
        <time>2013-09-18T12:36:28.000Z</time>
      </trkpt>
      <trkpt lat="43.50243" lon="6.82087">
        <ele>581</ele>
        <time>2013-09-18T12:36:29.000Z</time>
      </trkpt>
      <trkpt lat="43.50244" lon="6.82088">
        <ele>581</ele>
        <time>2013-09-18T12:36:30.000Z</time>
      </trkpt>
      <trkpt lat="43.50244" lon="6.82089">
        <ele>581</ele>
        <time>2013-09-18T12:36:31.000Z</time>
      </trkpt>
      <trkpt lat="43.50245" lon="6.82089">
        <ele>581</ele>
        <time>2013-09-18T12:36:32.000Z</time>
      </trkpt>
      <trkpt lat="43.50245" lon="6.8209">
        <ele>581</ele>
        <time>2013-09-18T12:36:33.000Z</time>
      </trkpt>
      <trkpt lat="43.50245" lon="6.82091">
        <ele>581</ele>
        <time>2013-09-18T12:36:34.000Z</time>
      </trkpt>
      <trkpt lat="43.50246" lon="6.82092">
        <ele>581</ele>
        <time>2013-09-18T12:36:35.000Z</time>
      </trkpt>
      <trkpt lat="43.50246" lon="6.82093">
        <ele>581</ele>
        <time>2013-09-18T12:36:36.000Z</time>
      </trkpt>
      <trkpt lat="43.50246" lon="6.82094">
        <ele>581</ele>
        <time>2013-09-18T12:36:37.000Z</time>
      </trkpt>
      <trkpt lat="43.50246" lon="6.82095">
        <ele>581</ele>
        <time>2013-09-18T12:36:38.000Z</time>
      </trkpt>
      <trkpt lat="43.50247" lon="6.82096">
        <ele>581</ele>
        <time>2013-09-18T12:36:39.000Z</time>
      </trkpt>
      <trkpt lat="43.50247" lon="6.82097">
        <ele>581</ele>
        <time>2013-09-18T12:36:40.000Z</time>
      </trkpt>
      <trkpt lat="43.50247" lon="6.82098">
        <ele>581</ele>
        <time>2013-09-18T12:36:41.000Z</time>
      </trkpt>
      <trkpt lat="43.50248" lon="6.82099">
        <ele>581</ele>
        <time>2013-09-18T12:36:42.000Z</time>
      </trkpt>
      <trkpt lat="43.50248" lon="6.821">
        <ele>581</ele>
        <time>2013-09-18T12:36:43.000Z</time>
      </trkpt>
      <trkpt lat="43.50249" lon="6.82101">
        <ele>581</ele>
        <time>2013-09-18T12:36:44.000Z</time>
      </trkpt>
      <trkpt lat="43.5025" lon="6.82101">
        <ele>581</ele>
        <time>2013-09-18T12:36:45.000Z</time>
      </trkpt>
      <trkpt lat="43.5025" lon="6.82102">
        <ele>581</ele>
        <time>2013-09-18T12:36:46.000Z</time>
      </trkpt>
      <trkpt lat="43.50251" lon="6.82102">
        <ele>574</ele>
        <time>2013-09-18T12:36:48.000Z</time>
      </trkpt>
      <trkpt lat="43.50251" lon="6.82102">
        <ele>574</ele>
        <time>2013-09-18T12:36:50.000Z</time>
      </trkpt>
      <trkpt lat="43.50251" lon="6.82103">
        <ele>574</ele>
        <time>2013-09-18T12:36:53.000Z</time>
      </trkpt>
      <trkpt lat="43.50251" lon="6.82103">
        <ele>574</ele>
        <time>2013-09-18T12:36:54.000Z</time>
      </trkpt>
      <trkpt lat="43.50251" lon="6.82104">
        <ele>574</ele>
        <time>2013-09-18T12:36:55.000Z</time>
      </trkpt>
      <trkpt lat="43.50251" lon="6.82104">
        <ele>573</ele>
        <time>2013-09-18T12:36:58.000Z</time>
      </trkpt>
      <trkpt lat="43.50251" lon="6.82104">
        <ele>573</ele>
        <time>2013-09-18T12:37:00.000Z</time>
      </trkpt>
      <trkpt lat="43.50251" lon="6.82105">
        <ele>573</ele>
        <time>2013-09-18T12:37:01.000Z</time>
      </trkpt>
      <trkpt lat="43.50251" lon="6.82105">
        <ele>573</ele>
        <time>2013-09-18T12:37:02.000Z</time>
      </trkpt>
      <trkpt lat="43.50252" lon="6.82106">
        <ele>573</ele>
        <time>2013-09-18T12:37:04.000Z</time>
      </trkpt>
      <trkpt lat="43.50252" lon="6.82107">
        <ele>573</ele>
        <time>2013-09-18T12:37:05.000Z</time>
      </trkpt>
      <trkpt lat="43.50252" lon="6.82108">
        <ele>573</ele>
        <time>2013-09-18T12:37:06.000Z</time>
      </trkpt>
      <trkpt lat="43.50253" lon="6.82108">
        <ele>573</ele>
        <time>2013-09-18T12:37:07.000Z</time>
      </trkpt>
      <trkpt lat="43.50253" lon="6.82109">
        <ele>573</ele>
        <time>2013-09-18T12:37:08.000Z</time>
      </trkpt>
      <trkpt lat="43.50253" lon="6.82109">
        <ele>572</ele>
        <time>2013-09-18T12:37:09.000Z</time>
      </trkpt>
      <trkpt lat="43.50254" lon="6.8211">
        <ele>572</ele>
        <time>2013-09-18T12:37:10.000Z</time>
      </trkpt>
      <trkpt lat="43.50254" lon="6.82111">
        <ele>572</ele>
        <time>2013-09-18T12:37:11.000Z</time>
      </trkpt>
      <trkpt lat="43.50254" lon="6.82111">
        <ele>572</ele>
        <time>2013-09-18T12:37:12.000Z</time>
      </trkpt>
      <trkpt lat="43.50254" lon="6.82112">
        <ele>572</ele>
        <time>2013-09-18T12:37:14.000Z</time>
      </trkpt>
      <trkpt lat="43.50254" lon="6.82113">
        <ele>572</ele>
        <time>2013-09-18T12:37:15.000Z</time>
      </trkpt>
      <trkpt lat="43.50255" lon="6.82114">
        <ele>572</ele>
        <time>2013-09-18T12:37:16.000Z</time>
      </trkpt>
      <trkpt lat="43.50255" lon="6.82115">
        <ele>572</ele>
        <time>2013-09-18T12:37:17.000Z</time>
      </trkpt>
      <trkpt lat="43.50256" lon="6.82115">
        <ele>572</ele>
        <time>2013-09-18T12:37:18.000Z</time>
      </trkpt>
      <trkpt lat="43.50256" lon="6.82116">
        <ele>572</ele>
        <time>2013-09-18T12:37:19.000Z</time>
      </trkpt>
      <trkpt lat="43.50256" lon="6.82116">
        <ele>572</ele>
        <time>2013-09-18T12:37:20.000Z</time>
      </trkpt>
      <trkpt lat="43.50256" lon="6.82116">
        <ele>572</ele>
        <time>2013-09-18T12:37:21.000Z</time>
      </trkpt>
      <trkpt lat="43.50257" lon="6.82117">
        <ele>571</ele>
        <time>2013-09-18T12:37:22.000Z</time>
      </trkpt>
      <trkpt lat="43.50257" lon="6.82118">
        <ele>571</ele>
        <time>2013-09-18T12:37:23.000Z</time>
      </trkpt>
      <trkpt lat="43.50257" lon="6.82118">
        <ele>571</ele>
        <time>2013-09-18T12:37:24.000Z</time>
      </trkpt>
      <trkpt lat="43.50258" lon="6.82119">
        <ele>571</ele>
        <time>2013-09-18T12:37:26.000Z</time>
      </trkpt>
      <trkpt lat="43.50259" lon="6.82119">
        <ele>571</ele>
        <time>2013-09-18T12:37:28.000Z</time>
      </trkpt>
      <trkpt lat="43.50259" lon="6.82119">
        <ele>571</ele>
        <time>2013-09-18T12:37:29.000Z</time>
      </trkpt>
      <trkpt lat="43.50259" lon="6.8212">
        <ele>571</ele>
        <time>2013-09-18T12:37:30.000Z</time>
      </trkpt>
      <trkpt lat="43.5026" lon="6.8212">
        <ele>571</ele>
        <time>2013-09-18T12:37:31.000Z</time>
      </trkpt>
      <trkpt lat="43.5026" lon="6.8212">
        <ele>571</ele>
        <time>2013-09-18T12:37:33.000Z</time>
      </trkpt>
      <trkpt lat="43.5026" lon="6.8212">
        <ele>571</ele>
        <time>2013-09-18T12:37:35.000Z</time>
      </trkpt>
      <trkpt lat="43.50261" lon="6.8212">
        <ele>571</ele>
        <time>2013-09-18T12:37:36.000Z</time>
      </trkpt>
      <trkpt lat="43.50261" lon="6.82121">
        <ele>571</ele>
        <time>2013-09-18T12:37:37.000Z</time>
      </trkpt>
      <trkpt lat="43.50261" lon="6.82121">
        <ele>571</ele>
        <time>2013-09-18T12:37:39.000Z</time>
      </trkpt>
      <trkpt lat="43.50261" lon="6.82121">
        <ele>571</ele>
        <time>2013-09-18T12:37:40.000Z</time>
      </trkpt>
      <trkpt lat="43.50261" lon="6.82121">
        <ele>571</ele>
        <time>2013-09-18T12:37:45.000Z</time>
      </trkpt>
      <trkpt lat="43.50261" lon="6.82122">
        <ele>571</ele>
        <time>2013-09-18T12:37:48.000Z</time>
      </trkpt>
      <trkpt lat="43.50261" lon="6.82122">
        <ele>571</ele>
        <time>2013-09-18T12:37:49.000Z</time>
      </trkpt>
      <trkpt lat="43.5026" lon="6.82123">
        <ele>571</ele>
        <time>2013-09-18T12:37:50.000Z</time>
      </trkpt>
      <trkpt lat="43.5026" lon="6.82123">
        <ele>571</ele>
        <time>2013-09-18T12:37:51.000Z</time>
      </trkpt>
      <trkpt lat="43.50259" lon="6.82123">
        <ele>571</ele>
        <time>2013-09-18T12:37:52.000Z</time>
      </trkpt>
      <trkpt lat="43.50258" lon="6.82123">
        <ele>571</ele>
        <time>2013-09-18T12:37:55.000Z</time>
      </trkpt>
      <trkpt lat="43.50258" lon="6.82123">
        <ele>571</ele>
        <time>2013-09-18T12:37:59.000Z</time>
      </trkpt>
      <trkpt lat="43.50258" lon="6.82123">
        <ele>571</ele>
        <time>2013-09-18T12:38:00.000Z</time>
      </trkpt>
      <trkpt lat="43.50258" lon="6.82124">
        <ele>571</ele>
        <time>2013-09-18T12:38:01.000Z</time>
      </trkpt>
      <trkpt lat="43.50257" lon="6.82124">
        <ele>572</ele>
        <time>2013-09-18T12:38:03.000Z</time>
      </trkpt>
      <trkpt lat="43.50256" lon="6.82124">
        <ele>572</ele>
        <time>2013-09-18T12:38:05.000Z</time>
      </trkpt>
      <trkpt lat="43.50256" lon="6.82124">
        <ele>572</ele>
        <time>2013-09-18T12:38:09.000Z</time>
      </trkpt>
      <trkpt lat="43.50255" lon="6.82124">
        <ele>572</ele>
        <time>2013-09-18T12:38:11.000Z</time>
      </trkpt>
      <trkpt lat="43.50255" lon="6.82124">
        <ele>572</ele>
        <time>2013-09-18T12:38:12.000Z</time>
      </trkpt>
      <trkpt lat="43.50254" lon="6.82124">
        <ele>572</ele>
        <time>2013-09-18T12:38:14.000Z</time>
      </trkpt>
      <trkpt lat="43.50253" lon="6.82124">
        <ele>572</ele>
        <time>2013-09-18T12:38:15.000Z</time>
      </trkpt>
      <trkpt lat="43.50252" lon="6.82124">
        <ele>572</ele>
        <time>2013-09-18T12:38:18.000Z</time>
      </trkpt>
      <trkpt lat="43.50252" lon="6.82123">
        <ele>572</ele>
        <time>2013-09-18T12:38:22.000Z</time>
      </trkpt>
      <trkpt lat="43.5025" lon="6.82123">
        <ele>572</ele>
        <time>2013-09-18T12:38:28.000Z</time>
      </trkpt>
      <trkpt lat="43.50249" lon="6.82123">
        <ele>582</ele>
        <time>2013-09-18T12:38:30.000Z</time>
      </trkpt>
      <trkpt lat="43.50249" lon="6.82123">
        <ele>582</ele>
        <time>2013-09-18T12:38:31.000Z</time>
      </trkpt>
      <trkpt lat="43.50249" lon="6.82123">
        <ele>582</ele>
        <time>2013-09-18T12:38:32.000Z</time>
      </trkpt>
      <trkpt lat="43.50249" lon="6.82123">
        <ele>582</ele>
        <time>2013-09-18T12:38:33.000Z</time>
      </trkpt>
      <trkpt lat="43.50248" lon="6.82123">
        <ele>582</ele>
        <time>2013-09-18T12:38:34.000Z</time>
      </trkpt>
      <trkpt lat="43.50248" lon="6.82123">
        <ele>582</ele>
        <time>2013-09-18T12:38:35.000Z</time>
      </trkpt>
      <trkpt lat="43.50247" lon="6.82124">
        <ele>582</ele>
        <time>2013-09-18T12:38:37.000Z</time>
      </trkpt>
      <trkpt lat="43.50247" lon="6.82124">
        <ele>582</ele>
        <time>2013-09-18T12:38:42.000Z</time>
      </trkpt>
      <trkpt lat="43.50246" lon="6.82124">
        <ele>582</ele>
        <time>2013-09-18T12:38:43.000Z</time>
      </trkpt>
      <trkpt lat="43.50246" lon="6.82125">
        <ele>582</ele>
        <time>2013-09-18T12:38:46.000Z</time>
      </trkpt>
      <trkpt lat="43.50246" lon="6.82125">
        <ele>582</ele>
        <time>2013-09-18T12:38:48.000Z</time>
      </trkpt>
      <trkpt lat="43.50246" lon="6.82126">
        <ele>582</ele>
        <time>2013-09-18T12:38:50.000Z</time>
      </trkpt>
      <trkpt lat="43.50247" lon="6.82127">
        <ele>582</ele>
        <time>2013-09-18T12:38:51.000Z</time>
      </trkpt>
      <trkpt lat="43.50247" lon="6.82128">
        <ele>582</ele>
        <time>2013-09-18T12:38:52.000Z</time>
      </trkpt>
      <trkpt lat="43.50247" lon="6.82129">
        <ele>582</ele>
        <time>2013-09-18T12:38:53.000Z</time>
      </trkpt>
      <trkpt lat="43.50247" lon="6.8213">
        <ele>582</ele>
        <time>2013-09-18T12:38:54.000Z</time>
      </trkpt>
      <trkpt lat="43.50247" lon="6.82132">
        <ele>583</ele>
        <time>2013-09-18T12:38:58.000Z</time>
      </trkpt>
      <trkpt lat="43.50248" lon="6.82132">
        <ele>583</ele>
        <time>2013-09-18T12:38:59.000Z</time>
      </trkpt>
      <trkpt lat="43.50248" lon="6.82135">
        <ele>583</ele>
        <time>2013-09-18T12:39:03.000Z</time>
      </trkpt>
      <trkpt lat="43.50248" lon="6.82135">
        <ele>583</ele>
        <time>2013-09-18T12:39:04.000Z</time>
      </trkpt>
      <trkpt lat="43.50248" lon="6.82136">
        <ele>583</ele>
        <time>2013-09-18T12:39:06.000Z</time>
      </trkpt>
      <trkpt lat="43.50248" lon="6.82136">
        <ele>583</ele>
        <time>2013-09-18T12:39:07.000Z</time>
      </trkpt>
      <trkpt lat="43.50249" lon="6.82137">
        <ele>583</ele>
        <time>2013-09-18T12:39:08.000Z</time>
      </trkpt>
      <trkpt lat="43.50249" lon="6.82138">
        <ele>583</ele>
        <time>2013-09-18T12:39:09.000Z</time>
      </trkpt>
      <trkpt lat="43.5025" lon="6.82138">
        <ele>583</ele>
        <time>2013-09-18T12:39:10.000Z</time>
      </trkpt>
      <trkpt lat="43.5025" lon="6.82138">
        <ele>583</ele>
        <time>2013-09-18T12:39:11.000Z</time>
      </trkpt>
      <trkpt lat="43.5025" lon="6.82139">
        <ele>575</ele>
        <time>2013-09-18T12:39:12.000Z</time>
      </trkpt>
      <trkpt lat="43.50251" lon="6.8214">
        <ele>575</ele>
        <time>2013-09-18T12:39:13.000Z</time>
      </trkpt>
      <trkpt lat="43.50251" lon="6.8214">
        <ele>575</ele>
        <time>2013-09-18T12:39:14.000Z</time>
      </trkpt>
      <trkpt lat="43.50251" lon="6.8214">
        <ele>575</ele>
        <time>2013-09-18T12:39:16.000Z</time>
      </trkpt>
      <trkpt lat="43.50251" lon="6.82141">
        <ele>575</ele>
        <time>2013-09-18T12:39:17.000Z</time>
      </trkpt>
      <trkpt lat="43.50251" lon="6.82141">
        <ele>575</ele>
        <time>2013-09-18T12:39:18.000Z</time>
      </trkpt>
      <trkpt lat="43.50252" lon="6.82142">
        <ele>575</ele>
        <time>2013-09-18T12:39:19.000Z</time>
      </trkpt>
      <trkpt lat="43.50252" lon="6.82142">
        <ele>575</ele>
        <time>2013-09-18T12:39:20.000Z</time>
      </trkpt>
      <trkpt lat="43.50252" lon="6.82143">
        <ele>576</ele>
        <time>2013-09-18T12:39:22.000Z</time>
      </trkpt>
      <trkpt lat="43.50252" lon="6.82144">
        <ele>576</ele>
        <time>2013-09-18T12:39:23.000Z</time>
      </trkpt>
      <trkpt lat="43.50252" lon="6.82145">
        <ele>576</ele>
        <time>2013-09-18T12:39:24.000Z</time>
      </trkpt>
      <trkpt lat="43.50252" lon="6.82145">
        <ele>576</ele>
        <time>2013-09-18T12:39:25.000Z</time>
      </trkpt>
      <trkpt lat="43.50252" lon="6.82147">
        <ele>577</ele>
        <time>2013-09-18T12:39:27.000Z</time>
      </trkpt>
      <trkpt lat="43.50252" lon="6.82147">
        <ele>577</ele>
        <time>2013-09-18T12:39:30.000Z</time>
      </trkpt>
      <trkpt lat="43.50252" lon="6.82147">
        <ele>577</ele>
        <time>2013-09-18T12:39:31.000Z</time>
      </trkpt>
      <trkpt lat="43.50252" lon="6.82148">
        <ele>577</ele>
        <time>2013-09-18T12:39:36.000Z</time>
      </trkpt>
      <trkpt lat="43.50252" lon="6.82149">
        <ele>578</ele>
        <time>2013-09-18T12:39:40.000Z</time>
      </trkpt>
      <trkpt lat="43.50252" lon="6.82149">
        <ele>578</ele>
        <time>2013-09-18T12:39:41.000Z</time>
      </trkpt>
      <trkpt lat="43.50252" lon="6.82149">
        <ele>578</ele>
        <time>2013-09-18T12:39:44.000Z</time>
      </trkpt>
      <trkpt lat="43.50252" lon="6.82149">
        <ele>578</ele>
        <time>2013-09-18T12:39:46.000Z</time>
      </trkpt>
      <trkpt lat="43.50253" lon="6.8215">
        <ele>578</ele>
        <time>2013-09-18T12:39:49.000Z</time>
      </trkpt>
      <trkpt lat="43.50253" lon="6.8215">
        <ele>578</ele>
        <time>2013-09-18T12:39:51.000Z</time>
      </trkpt>
      <trkpt lat="43.50253" lon="6.8215">
        <ele>578</ele>
        <time>2013-09-18T12:40:05.000Z</time>
      </trkpt>
      <trkpt lat="43.50253" lon="6.82149">
        <ele>578</ele>
        <time>2013-09-18T12:40:10.000Z</time>
      </trkpt>
      <trkpt lat="43.50253" lon="6.82149">
        <ele>578</ele>
        <time>2013-09-18T12:40:18.000Z</time>
      </trkpt>
      <trkpt lat="43.50253" lon="6.82149">
        <ele>577</ele>
        <time>2013-09-18T12:40:27.000Z</time>
      </trkpt>
      <trkpt lat="43.50254" lon="6.82149">
        <ele>577</ele>
        <time>2013-09-18T12:40:36.000Z</time>
      </trkpt>
      <trkpt lat="43.50254" lon="6.82149">
        <ele>577</ele>
        <time>2013-09-18T12:40:43.000Z</time>
      </trkpt>
      <trkpt lat="43.50254" lon="6.82149">
        <ele>577</ele>
        <time>2013-09-18T12:40:48.000Z</time>
      </trkpt>
      <trkpt lat="43.50254" lon="6.82148">
        <ele>577</ele>
        <time>2013-09-18T12:40:50.000Z</time>
      </trkpt>
      <trkpt lat="43.50254" lon="6.82148">
        <ele>577</ele>
        <time>2013-09-18T12:40:56.000Z</time>
      </trkpt>
      <trkpt lat="43.50254" lon="6.82148">
        <ele>577</ele>
        <time>2013-09-18T12:40:58.000Z</time>
      </trkpt>
      <trkpt lat="43.50254" lon="6.82148">
        <ele>577</ele>
        <time>2013-09-18T12:41:02.000Z</time>
      </trkpt>
      <trkpt lat="43.50254" lon="6.82148">
        <ele>577</ele>
        <time>2013-09-18T12:41:09.000Z</time>
      </trkpt>
      <trkpt lat="43.50253" lon="6.82148">
        <ele>577</ele>
        <time>2013-09-18T12:41:47.000Z</time>
      </trkpt>
      <trkpt lat="43.50253" lon="6.82147">
        <ele>577</ele>
        <time>2013-09-18T12:41:52.000Z</time>
      </trkpt>
      <trkpt lat="43.50253" lon="6.82147">
        <ele>577</ele>
        <time>2013-09-18T12:41:59.000Z</time>
      </trkpt>
      <trkpt lat="43.50253" lon="6.82147">
        <ele>577</ele>
        <time>2013-09-18T12:42:02.000Z</time>
      </trkpt>
      <trkpt lat="43.50253" lon="6.82147">
        <ele>577</ele>
        <time>2013-09-18T12:42:06.000Z</time>
      </trkpt>
      <trkpt lat="43.50253" lon="6.82146">
        <ele>576</ele>
        <time>2013-09-18T12:42:13.000Z</time>
      </trkpt>
      <trkpt lat="43.50253" lon="6.82146">
        <ele>576</ele>
        <time>2013-09-18T12:42:15.000Z</time>
      </trkpt>
      <trkpt lat="43.50253" lon="6.82146">
        <ele>576</ele>
        <time>2013-09-18T12:42:19.000Z</time>
      </trkpt>
      <trkpt lat="43.50252" lon="6.82146">
        <ele>576</ele>
        <time>2013-09-18T12:42:23.000Z</time>
      </trkpt>
      <trkpt lat="43.50252" lon="6.82146">
        <ele>576</ele>
        <time>2013-09-18T12:42:26.000Z</time>
      </trkpt>
      <trkpt lat="43.50252" lon="6.82146">
        <ele>576</ele>
        <time>2013-09-18T12:42:31.000Z</time>
      </trkpt>
      <trkpt lat="43.50253" lon="6.82145">
        <ele>576</ele>
        <time>2013-09-18T12:42:33.000Z</time>
      </trkpt>
      <trkpt lat="43.50253" lon="6.82145">
        <ele>576</ele>
        <time>2013-09-18T12:42:36.000Z</time>
      </trkpt>
      <trkpt lat="43.50253" lon="6.82145">
        <ele>576</ele>
        <time>2013-09-18T12:42:39.000Z</time>
      </trkpt>
      <trkpt lat="43.50253" lon="6.82145">
        <ele>576</ele>
        <time>2013-09-18T12:42:40.000Z</time>
      </trkpt>
      <trkpt lat="43.50252" lon="6.82145">
        <ele>576</ele>
        <time>2013-09-18T12:42:46.000Z</time>
      </trkpt>
      <trkpt lat="43.50252" lon="6.82146">
        <ele>576</ele>
        <time>2013-09-18T12:42:47.000Z</time>
      </trkpt>
      <trkpt lat="43.50251" lon="6.82146">
        <ele>576</ele>
        <time>2013-09-18T12:42:49.000Z</time>
      </trkpt>
      <trkpt lat="43.5025" lon="6.82146">
        <ele>577</ele>
        <time>2013-09-18T12:42:51.000Z</time>
      </trkpt>
      <trkpt lat="43.5025" lon="6.82146">
        <ele>577</ele>
        <time>2013-09-18T12:42:54.000Z</time>
      </trkpt>
      <trkpt lat="43.5025" lon="6.82146">
        <ele>584</ele>
        <time>2013-09-18T12:42:56.000Z</time>
      </trkpt>
      <trkpt lat="43.5025" lon="6.82146">
        <ele>584</ele>
        <time>2013-09-18T12:43:01.000Z</time>
      </trkpt>
      <trkpt lat="43.50249" lon="6.82147">
        <ele>584</ele>
        <time>2013-09-18T12:43:02.000Z</time>
      </trkpt>
      <trkpt lat="43.50249" lon="6.82147">
        <ele>584</ele>
        <time>2013-09-18T12:43:04.000Z</time>
      </trkpt>
      <trkpt lat="43.50249" lon="6.82147">
        <ele>584</ele>
        <time>2013-09-18T12:43:06.000Z</time>
      </trkpt>
      <trkpt lat="43.50249" lon="6.82147">
        <ele>585</ele>
        <time>2013-09-18T12:43:10.000Z</time>
      </trkpt>
      <trkpt lat="43.50249" lon="6.82147">
        <ele>585</ele>
        <time>2013-09-18T12:43:12.000Z</time>
      </trkpt>
      <trkpt lat="43.50249" lon="6.82148">
        <ele>585</ele>
        <time>2013-09-18T12:43:16.000Z</time>
      </trkpt>
      <trkpt lat="43.50249" lon="6.82148">
        <ele>585</ele>
        <time>2013-09-18T12:43:18.000Z</time>
      </trkpt>
      <trkpt lat="43.5025" lon="6.82148">
        <ele>585</ele>
        <time>2013-09-18T12:43:22.000Z</time>
      </trkpt>
      <trkpt lat="43.50249" lon="6.82149">
        <ele>585</ele>
        <time>2013-09-18T12:43:39.000Z</time>
      </trkpt>
      <trkpt lat="43.50249" lon="6.82149">
        <ele>585</ele>
        <time>2013-09-18T12:43:42.000Z</time>
      </trkpt>
      <trkpt lat="43.50249" lon="6.82149">
        <ele>585</ele>
        <time>2013-09-18T12:43:46.000Z</time>
      </trkpt>
      <trkpt lat="43.50249" lon="6.82149">
        <ele>585</ele>
        <time>2013-09-18T12:43:53.000Z</time>
      </trkpt>
      <trkpt lat="43.50249" lon="6.82149">
        <ele>585</ele>
        <time>2013-09-18T12:43:56.000Z</time>
      </trkpt>
      <trkpt lat="43.5025" lon="6.82149">
        <ele>585</ele>
        <time>2013-09-18T12:44:10.000Z</time>
      </trkpt>
      <trkpt lat="43.5025" lon="6.82149">
        <ele>578</ele>
        <time>2013-09-18T12:44:13.000Z</time>
      </trkpt>
      <trkpt lat="43.5025" lon="6.82149">
        <ele>578</ele>
        <time>2013-09-18T12:44:16.000Z</time>
      </trkpt>
      <trkpt lat="43.50251" lon="6.82149">
        <ele>578</ele>
        <time>2013-09-18T12:44:19.000Z</time>
      </trkpt>
      <trkpt lat="43.50251" lon="6.82149">
        <ele>578</ele>
        <time>2013-09-18T12:44:23.000Z</time>
      </trkpt>
      <trkpt lat="43.50251" lon="6.82148">
        <ele>577</ele>
        <time>2013-09-18T12:44:27.000Z</time>
      </trkpt>
      <trkpt lat="43.50252" lon="6.82148">
        <ele>577</ele>
        <time>2013-09-18T12:44:31.000Z</time>
      </trkpt>
      <trkpt lat="43.50252" lon="6.82148">
        <ele>577</ele>
        <time>2013-09-18T12:44:37.000Z</time>
      </trkpt>
      <trkpt lat="43.50253" lon="6.82148">
        <ele>577</ele>
        <time>2013-09-18T12:44:43.000Z</time>
      </trkpt>
      <trkpt lat="43.50252" lon="6.82148">
        <ele>577</ele>
        <time>2013-09-18T12:45:34.000Z</time>
      </trkpt>
      <trkpt lat="43.50252" lon="6.82148">
        <ele>577</ele>
        <time>2013-09-18T12:45:41.000Z</time>
      </trkpt>
      <trkpt lat="43.50252" lon="6.82148">
        <ele>577</ele>
        <time>2013-09-18T12:45:53.000Z</time>
      </trkpt>
      <trkpt lat="43.50252" lon="6.82148">
        <ele>577</ele>
        <time>2013-09-18T12:45:57.000Z</time>
      </trkpt>
      <trkpt lat="43.50253" lon="6.82148">
        <ele>577</ele>
        <time>2013-09-18T12:46:09.000Z</time>
      </trkpt>
      <trkpt lat="43.50253" lon="6.82148">
        <ele>577</ele>
        <time>2013-09-18T12:46:16.000Z</time>
      </trkpt>
      <trkpt lat="43.50254" lon="6.82147">
        <ele>577</ele>
        <time>2013-09-18T12:46:28.000Z</time>
      </trkpt>
      <trkpt lat="43.50255" lon="6.82147">
        <ele>576</ele>
        <time>2013-09-18T12:46:38.000Z</time>
      </trkpt>
      <trkpt lat="43.50256" lon="6.82147">
        <ele>576</ele>
        <time>2013-09-18T12:46:51.000Z</time>
      </trkpt>
      <trkpt lat="43.50256" lon="6.82147">
        <ele>576</ele>
        <time>2013-09-18T12:46:56.000Z</time>
      </trkpt>
      <trkpt lat="43.50257" lon="6.82147">
        <ele>576</ele>
        <time>2013-09-18T12:47:00.000Z</time>
      </trkpt>
      <trkpt lat="43.50257" lon="6.82146">
        <ele>576</ele>
        <time>2013-09-18T12:47:07.000Z</time>
      </trkpt>
      <trkpt lat="43.50256" lon="6.82146">
        <ele>576</ele>
        <time>2013-09-18T12:47:24.000Z</time>
      </trkpt>
      <trkpt lat="43.50253" lon="6.82146">
        <ele>576</ele>
        <time>2013-09-18T12:47:47.000Z</time>
      </trkpt>
      <trkpt lat="43.50254" lon="6.82146">
        <ele>576</ele>
        <time>2013-09-18T12:47:55.000Z</time>
      </trkpt>
      <trkpt lat="43.50254" lon="6.82146">
        <ele>576</ele>
        <time>2013-09-18T12:48:04.000Z</time>
      </trkpt>
      <trkpt lat="43.50254" lon="6.82147">
        <ele>576</ele>
        <time>2013-09-18T12:48:10.000Z</time>
      </trkpt>
      <trkpt lat="43.50254" lon="6.82147">
        <ele>576</ele>
        <time>2013-09-18T12:48:19.000Z</time>
      </trkpt>
      <trkpt lat="43.50254" lon="6.82147">
        <ele>576</ele>
        <time>2013-09-18T12:48:22.000Z</time>
      </trkpt>
      <trkpt lat="43.50254" lon="6.82147">
        <ele>577</ele>
        <time>2013-09-18T12:48:32.000Z</time>
      </trkpt>
      <trkpt lat="43.50253" lon="6.82147">
        <ele>577</ele>
        <time>2013-09-18T12:48:51.000Z</time>
      </trkpt>
      <trkpt lat="43.50253" lon="6.82147">
        <ele>577</ele>
        <time>2013-09-18T12:49:05.000Z</time>
      </trkpt>
      <trkpt lat="43.50253" lon="6.82147">
        <ele>577</ele>
        <time>2013-09-18T12:49:29.000Z</time>
      </trkpt>
      <trkpt lat="43.50254" lon="6.82147">
        <ele>577</ele>
        <time>2013-09-18T12:49:37.000Z</time>
      </trkpt>
      <trkpt lat="43.50253" lon="6.82147">
        <ele>577</ele>
        <time>2013-09-18T12:49:40.000Z</time>
      </trkpt>
      <trkpt lat="43.50253" lon="6.82147">
        <ele>577</ele>
        <time>2013-09-18T12:49:45.000Z</time>
      </trkpt>
      <trkpt lat="43.50253" lon="6.82147">
        <ele>577</ele>
        <time>2013-09-18T12:50:02.000Z</time>
      </trkpt>
      <trkpt lat="43.50253" lon="6.82147">
        <ele>577</ele>
        <time>2013-09-18T12:50:25.000Z</time>
      </trkpt>
      <trkpt lat="43.50252" lon="6.82147">
        <ele>577</ele>
        <time>2013-09-18T12:50:38.000Z</time>
      </trkpt>
      <trkpt lat="43.50252" lon="6.82146">
        <ele>577</ele>
        <time>2013-09-18T12:50:50.000Z</time>
      </trkpt>
      <trkpt lat="43.50252" lon="6.82146">
        <ele>576</ele>
        <time>2013-09-18T12:51:11.000Z</time>
      </trkpt>
      <trkpt lat="43.50252" lon="6.82146">
        <ele>576</ele>
        <time>2013-09-18T12:51:14.000Z</time>
      </trkpt>
      <trkpt lat="43.50252" lon="6.82146">
        <ele>576</ele>
        <time>2013-09-18T12:51:28.000Z</time>
      </trkpt>
      <trkpt lat="43.50252" lon="6.82145">
        <ele>576</ele>
        <time>2013-09-18T12:51:29.000Z</time>
      </trkpt>
      <trkpt lat="43.50252" lon="6.82144">
        <ele>576</ele>
        <time>2013-09-18T12:51:31.000Z</time>
      </trkpt>
      <trkpt lat="43.50252" lon="6.82143">
        <ele>575</ele>
        <time>2013-09-18T12:51:34.000Z</time>
      </trkpt>
      <trkpt lat="43.50253" lon="6.82143">
        <ele>575</ele>
        <time>2013-09-18T12:51:39.000Z</time>
      </trkpt>
      <trkpt lat="43.50253" lon="6.82143">
        <ele>575</ele>
        <time>2013-09-18T12:51:40.000Z</time>
      </trkpt>
      <trkpt lat="43.50253" lon="6.82144">
        <ele>576</ele>
        <time>2013-09-18T12:51:48.000Z</time>
      </trkpt>
      <trkpt lat="43.50252" lon="6.82143">
        <ele>575</ele>
        <time>2013-09-18T12:51:49.000Z</time>
      </trkpt>
      <trkpt lat="43.50252" lon="6.82143">
        <ele>575</ele>
        <time>2013-09-18T12:51:51.000Z</time>
      </trkpt>
      <trkpt lat="43.50252" lon="6.82143">
        <ele>575</ele>
        <time>2013-09-18T12:51:52.000Z</time>
      </trkpt>
      <trkpt lat="43.50252" lon="6.82142">
        <ele>575</ele>
        <time>2013-09-18T12:51:53.000Z</time>
      </trkpt>
      <trkpt lat="43.50252" lon="6.82142">
        <ele>575</ele>
        <time>2013-09-18T12:51:54.000Z</time>
      </trkpt>
      <trkpt lat="43.50252" lon="6.82142">
        <ele>575</ele>
        <time>2013-09-18T12:51:55.000Z</time>
      </trkpt>
      <trkpt lat="43.50251" lon="6.82141">
        <ele>575</ele>
        <time>2013-09-18T12:51:56.000Z</time>
      </trkpt>
      <trkpt lat="43.50251" lon="6.82141">
        <ele>575</ele>
        <time>2013-09-18T12:51:57.000Z</time>
      </trkpt>
      <trkpt lat="43.50251" lon="6.82141">
        <ele>575</ele>
        <time>2013-09-18T12:51:58.000Z</time>
      </trkpt>
      <trkpt lat="43.50251" lon="6.8214">
        <ele>575</ele>
        <time>2013-09-18T12:51:59.000Z</time>
      </trkpt>
      <trkpt lat="43.50251" lon="6.8214">
        <ele>575</ele>
        <time>2013-09-18T12:52:00.000Z</time>
      </trkpt>
      <trkpt lat="43.5025" lon="6.8214">
        <ele>575</ele>
        <time>2013-09-18T12:52:02.000Z</time>
      </trkpt>
      <trkpt lat="43.5025" lon="6.8214">
        <ele>583</ele>
        <time>2013-09-18T12:52:03.000Z</time>
      </trkpt>
      <trkpt lat="43.5025" lon="6.82139">
        <ele>583</ele>
        <time>2013-09-18T12:52:04.000Z</time>
      </trkpt>
      <trkpt lat="43.5025" lon="6.82139">
        <ele>583</ele>
        <time>2013-09-18T12:52:05.000Z</time>
      </trkpt>
      <trkpt lat="43.50249" lon="6.82139">
        <ele>583</ele>
        <time>2013-09-18T12:52:06.000Z</time>
      </trkpt>
      <trkpt lat="43.50249" lon="6.82138">
        <ele>583</ele>
        <time>2013-09-18T12:52:07.000Z</time>
      </trkpt>
      <trkpt lat="43.50249" lon="6.82138">
        <ele>583</ele>
        <time>2013-09-18T12:52:08.000Z</time>
      </trkpt>
      <trkpt lat="43.50249" lon="6.82137">
        <ele>583</ele>
        <time>2013-09-18T12:52:10.000Z</time>
      </trkpt>
      <trkpt lat="43.50248" lon="6.82137">
        <ele>583</ele>
        <time>2013-09-18T12:52:11.000Z</time>
      </trkpt>
      <trkpt lat="43.50248" lon="6.82137">
        <ele>583</ele>
        <time>2013-09-18T12:52:12.000Z</time>
      </trkpt>
      <trkpt lat="43.50247" lon="6.82136">
        <ele>583</ele>
        <time>2013-09-18T12:52:13.000Z</time>
      </trkpt>
      <trkpt lat="43.50247" lon="6.82135">
        <ele>583</ele>
        <time>2013-09-18T12:52:14.000Z</time>
      </trkpt>
      <trkpt lat="43.50247" lon="6.82135">
        <ele>583</ele>
        <time>2013-09-18T12:52:15.000Z</time>
      </trkpt>
      <trkpt lat="43.50247" lon="6.82135">
        <ele>583</ele>
        <time>2013-09-18T12:52:16.000Z</time>
      </trkpt>
      <trkpt lat="43.50247" lon="6.82135">
        <ele>583</ele>
        <time>2013-09-18T12:52:21.000Z</time>
      </trkpt>
      <trkpt lat="43.50246" lon="6.82135">
        <ele>583</ele>
        <time>2013-09-18T12:52:23.000Z</time>
      </trkpt>
      <trkpt lat="43.50246" lon="6.82134">
        <ele>583</ele>
        <time>2013-09-18T12:52:24.000Z</time>
      </trkpt>
      <trkpt lat="43.50246" lon="6.82134">
        <ele>583</ele>
        <time>2013-09-18T12:52:25.000Z</time>
      </trkpt>
      <trkpt lat="43.50245" lon="6.82133">
        <ele>583</ele>
        <time>2013-09-18T12:52:26.000Z</time>
      </trkpt>
      <trkpt lat="43.50245" lon="6.82132">
        <ele>583</ele>
        <time>2013-09-18T12:52:27.000Z</time>
      </trkpt>
      <trkpt lat="43.50245" lon="6.82132">
        <ele>582</ele>
        <time>2013-09-18T12:52:28.000Z</time>
      </trkpt>
      <trkpt lat="43.50245" lon="6.82129">
        <ele>582</ele>
        <time>2013-09-18T12:52:35.000Z</time>
      </trkpt>
      <trkpt lat="43.50245" lon="6.82127">
        <ele>582</ele>
        <time>2013-09-18T12:52:37.000Z</time>
      </trkpt>
      <trkpt lat="43.50245" lon="6.82126">
        <ele>582</ele>
        <time>2013-09-18T12:52:42.000Z</time>
      </trkpt>
      <trkpt lat="43.50245" lon="6.82124">
        <ele>582</ele>
        <time>2013-09-18T12:52:46.000Z</time>
      </trkpt>
      <trkpt lat="43.50245" lon="6.82123">
        <ele>582</ele>
        <time>2013-09-18T12:52:49.000Z</time>
      </trkpt>
      <trkpt lat="43.50245" lon="6.82122">
        <ele>582</ele>
        <time>2013-09-18T12:52:51.000Z</time>
      </trkpt>
      <trkpt lat="43.50245" lon="6.82122">
        <ele>582</ele>
        <time>2013-09-18T12:52:52.000Z</time>
      </trkpt>
      <trkpt lat="43.50246" lon="6.82121">
        <ele>582</ele>
        <time>2013-09-18T12:52:53.000Z</time>
      </trkpt>
      <trkpt lat="43.50246" lon="6.82121">
        <ele>582</ele>
        <time>2013-09-18T12:52:56.000Z</time>
      </trkpt>
      <trkpt lat="43.50245" lon="6.82121">
        <ele>582</ele>
        <time>2013-09-18T12:52:57.000Z</time>
      </trkpt>
      <trkpt lat="43.50245" lon="6.82122">
        <ele>582</ele>
        <time>2013-09-18T12:52:59.000Z</time>
      </trkpt>
      <trkpt lat="43.50245" lon="6.82122">
        <ele>582</ele>
        <time>2013-09-18T12:53:04.000Z</time>
      </trkpt>
      <trkpt lat="43.50246" lon="6.82122">
        <ele>582</ele>
        <time>2013-09-18T12:53:09.000Z</time>
      </trkpt>
      <trkpt lat="43.50247" lon="6.82122">
        <ele>582</ele>
        <time>2013-09-18T12:53:10.000Z</time>
      </trkpt>
      <trkpt lat="43.50247" lon="6.82122">
        <ele>582</ele>
        <time>2013-09-18T12:53:12.000Z</time>
      </trkpt>
      <trkpt lat="43.50249" lon="6.82122">
        <ele>582</ele>
        <time>2013-09-18T12:53:16.000Z</time>
      </trkpt>
      <trkpt lat="43.50252" lon="6.82122">
        <ele>572</ele>
        <time>2013-09-18T12:53:20.000Z</time>
      </trkpt>
      <trkpt lat="43.50252" lon="6.82121">
        <ele>572</ele>
        <time>2013-09-18T12:53:21.000Z</time>
      </trkpt>
      <trkpt lat="43.50253" lon="6.82121">
        <ele>572</ele>
        <time>2013-09-18T12:53:22.000Z</time>
      </trkpt>
      <trkpt lat="43.50254" lon="6.82121">
        <ele>572</ele>
        <time>2013-09-18T12:53:26.000Z</time>
      </trkpt>
      <trkpt lat="43.50255" lon="6.82122">
        <ele>572</ele>
        <time>2013-09-18T12:53:27.000Z</time>
      </trkpt>
      <trkpt lat="43.50255" lon="6.82121">
        <ele>572</ele>
        <time>2013-09-18T12:53:28.000Z</time>
      </trkpt>
      <trkpt lat="43.50255" lon="6.82121">
        <ele>572</ele>
        <time>2013-09-18T12:53:29.000Z</time>
      </trkpt>
      <trkpt lat="43.50256" lon="6.82121">
        <ele>572</ele>
        <time>2013-09-18T12:53:30.000Z</time>
      </trkpt>
      <trkpt lat="43.50256" lon="6.82121">
        <ele>572</ele>
        <time>2013-09-18T12:53:31.000Z</time>
      </trkpt>
      <trkpt lat="43.50258" lon="6.8212">
        <ele>571</ele>
        <time>2013-09-18T12:53:34.000Z</time>
      </trkpt>
      <trkpt lat="43.50258" lon="6.8212">
        <ele>571</ele>
        <time>2013-09-18T12:53:35.000Z</time>
      </trkpt>
      <trkpt lat="43.50258" lon="6.8212">
        <ele>571</ele>
        <time>2013-09-18T12:53:37.000Z</time>
      </trkpt>
      <trkpt lat="43.50258" lon="6.82119">
        <ele>571</ele>
        <time>2013-09-18T12:53:38.000Z</time>
      </trkpt>
      <trkpt lat="43.50257" lon="6.82118">
        <ele>571</ele>
        <time>2013-09-18T12:53:39.000Z</time>
      </trkpt>
      <trkpt lat="43.50257" lon="6.82118">
        <ele>571</ele>
        <time>2013-09-18T12:53:40.000Z</time>
      </trkpt>
      <trkpt lat="43.50257" lon="6.82118">
        <ele>571</ele>
        <time>2013-09-18T12:53:41.000Z</time>
      </trkpt>
      <trkpt lat="43.50256" lon="6.82118">
        <ele>572</ele>
        <time>2013-09-18T12:53:42.000Z</time>
      </trkpt>
      <trkpt lat="43.50256" lon="6.82117">
        <ele>572</ele>
        <time>2013-09-18T12:53:43.000Z</time>
      </trkpt>
      <trkpt lat="43.50255" lon="6.82116">
        <ele>572</ele>
        <time>2013-09-18T12:53:45.000Z</time>
      </trkpt>
      <trkpt lat="43.50255" lon="6.82116">
        <ele>572</ele>
        <time>2013-09-18T12:53:46.000Z</time>
      </trkpt>
      <trkpt lat="43.50255" lon="6.82116">
        <ele>572</ele>
        <time>2013-09-18T12:53:47.000Z</time>
      </trkpt>
      <trkpt lat="43.50254" lon="6.82115">
        <ele>572</ele>
        <time>2013-09-18T12:53:51.000Z</time>
      </trkpt>
      <trkpt lat="43.50254" lon="6.82114">
        <ele>572</ele>
        <time>2013-09-18T12:53:52.000Z</time>
      </trkpt>
      <trkpt lat="43.50254" lon="6.82114">
        <ele>572</ele>
        <time>2013-09-18T12:53:53.000Z</time>
      </trkpt>
      <trkpt lat="43.50254" lon="6.82113">
        <ele>572</ele>
        <time>2013-09-18T12:53:54.000Z</time>
      </trkpt>
      <trkpt lat="43.50253" lon="6.82112">
        <ele>572</ele>
        <time>2013-09-18T12:53:55.000Z</time>
      </trkpt>
      <trkpt lat="43.50253" lon="6.82112">
        <ele>572</ele>
        <time>2013-09-18T12:53:56.000Z</time>
      </trkpt>
      <trkpt lat="43.50252" lon="6.82111">
        <ele>572</ele>
        <time>2013-09-18T12:53:57.000Z</time>
      </trkpt>
      <trkpt lat="43.50252" lon="6.8211">
        <ele>572</ele>
        <time>2013-09-18T12:53:58.000Z</time>
      </trkpt>
      <trkpt lat="43.50251" lon="6.82109">
        <ele>573</ele>
        <time>2013-09-18T12:53:59.000Z</time>
      </trkpt>
      <trkpt lat="43.50251" lon="6.82109">
        <ele>573</ele>
        <time>2013-09-18T12:54:00.000Z</time>
      </trkpt>
      <trkpt lat="43.50251" lon="6.82108">
        <ele>573</ele>
        <time>2013-09-18T12:54:01.000Z</time>
      </trkpt>
      <trkpt lat="43.5025" lon="6.82108">
        <ele>573</ele>
        <time>2013-09-18T12:54:02.000Z</time>
      </trkpt>
      <trkpt lat="43.5025" lon="6.82107">
        <ele>581</ele>
        <time>2013-09-18T12:54:03.000Z</time>
      </trkpt>
      <trkpt lat="43.5025" lon="6.82106">
        <ele>581</ele>
        <time>2013-09-18T12:54:04.000Z</time>
      </trkpt>
      <trkpt lat="43.50249" lon="6.82106">
        <ele>581</ele>
        <time>2013-09-18T12:54:05.000Z</time>
      </trkpt>
      <trkpt lat="43.50249" lon="6.82105">
        <ele>581</ele>
        <time>2013-09-18T12:54:06.000Z</time>
      </trkpt>
      <trkpt lat="43.50249" lon="6.82105">
        <ele>581</ele>
        <time>2013-09-18T12:54:07.000Z</time>
      </trkpt>
      <trkpt lat="43.50249" lon="6.82104">
        <ele>581</ele>
        <time>2013-09-18T12:54:08.000Z</time>
      </trkpt>
      <trkpt lat="43.50248" lon="6.82103">
        <ele>581</ele>
        <time>2013-09-18T12:54:09.000Z</time>
      </trkpt>
      <trkpt lat="43.50248" lon="6.82102">
        <ele>581</ele>
        <time>2013-09-18T12:54:10.000Z</time>
      </trkpt>
      <trkpt lat="43.50248" lon="6.82101">
        <ele>581</ele>
        <time>2013-09-18T12:54:11.000Z</time>
      </trkpt>
      <trkpt lat="43.50247" lon="6.821">
        <ele>581</ele>
        <time>2013-09-18T12:54:12.000Z</time>
      </trkpt>
      <trkpt lat="43.50246" lon="6.82098">
        <ele>581</ele>
        <time>2013-09-18T12:54:13.000Z</time>
      </trkpt>
      <trkpt lat="43.50245" lon="6.82097">
        <ele>581</ele>
        <time>2013-09-18T12:54:14.000Z</time>
      </trkpt>
      <trkpt lat="43.50245" lon="6.82096">
        <ele>581</ele>
        <time>2013-09-18T12:54:15.000Z</time>
      </trkpt>
      <trkpt lat="43.50244" lon="6.82095">
        <ele>581</ele>
        <time>2013-09-18T12:54:16.000Z</time>
      </trkpt>
      <trkpt lat="43.50244" lon="6.82094">
        <ele>581</ele>
        <time>2013-09-18T12:54:17.000Z</time>
      </trkpt>
      <trkpt lat="43.50243" lon="6.82093">
        <ele>581</ele>
        <time>2013-09-18T12:54:18.000Z</time>
      </trkpt>
      <trkpt lat="43.50243" lon="6.82092">
        <ele>581</ele>
        <time>2013-09-18T12:54:19.000Z</time>
      </trkpt>
      <trkpt lat="43.50242" lon="6.8209">
        <ele>581</ele>
        <time>2013-09-18T12:54:20.000Z</time>
      </trkpt>
      <trkpt lat="43.50242" lon="6.82089">
        <ele>581</ele>
        <time>2013-09-18T12:54:21.000Z</time>
      </trkpt>
      <trkpt lat="43.50241" lon="6.82088">
        <ele>581</ele>
        <time>2013-09-18T12:54:22.000Z</time>
      </trkpt>
      <trkpt lat="43.50241" lon="6.82087">
        <ele>581</ele>
        <time>2013-09-18T12:54:23.000Z</time>
      </trkpt>
      <trkpt lat="43.5024" lon="6.82086">
        <ele>581</ele>
        <time>2013-09-18T12:54:24.000Z</time>
      </trkpt>
      <trkpt lat="43.5024" lon="6.82085">
        <ele>581</ele>
        <time>2013-09-18T12:54:25.000Z</time>
      </trkpt>
      <trkpt lat="43.5024" lon="6.82084">
        <ele>581</ele>
        <time>2013-09-18T12:54:26.000Z</time>
      </trkpt>
      <trkpt lat="43.50239" lon="6.82084">
        <ele>581</ele>
        <time>2013-09-18T12:54:27.000Z</time>
      </trkpt>
      <trkpt lat="43.50239" lon="6.82083">
        <ele>580</ele>
        <time>2013-09-18T12:54:28.000Z</time>
      </trkpt>
      <trkpt lat="43.50238" lon="6.82082">
        <ele>580</ele>
        <time>2013-09-18T12:54:29.000Z</time>
      </trkpt>
      <trkpt lat="43.50238" lon="6.82081">
        <ele>580</ele>
        <time>2013-09-18T12:54:30.000Z</time>
      </trkpt>
      <trkpt lat="43.50237" lon="6.8208">
        <ele>580</ele>
        <time>2013-09-18T12:54:31.000Z</time>
      </trkpt>
      <trkpt lat="43.50237" lon="6.8208">
        <ele>580</ele>
        <time>2013-09-18T12:54:32.000Z</time>
      </trkpt>
      <trkpt lat="43.50236" lon="6.82079">
        <ele>579</ele>
        <time>2013-09-18T12:54:33.000Z</time>
      </trkpt>
      <trkpt lat="43.50236" lon="6.82078">
        <ele>579</ele>
        <time>2013-09-18T12:54:34.000Z</time>
      </trkpt>
      <trkpt lat="43.50236" lon="6.82077">
        <ele>579</ele>
        <time>2013-09-18T12:54:35.000Z</time>
      </trkpt>
      <trkpt lat="43.50235" lon="6.82076">
        <ele>579</ele>
        <time>2013-09-18T12:54:36.000Z</time>
      </trkpt>
      <trkpt lat="43.50235" lon="6.82075">
        <ele>579</ele>
        <time>2013-09-18T12:54:37.000Z</time>
      </trkpt>
      <trkpt lat="43.50235" lon="6.82074">
        <ele>579</ele>
        <time>2013-09-18T12:54:38.000Z</time>
      </trkpt>
      <trkpt lat="43.50235" lon="6.82073">
        <ele>579</ele>
        <time>2013-09-18T12:54:39.000Z</time>
      </trkpt>
      <trkpt lat="43.50234" lon="6.82072">
        <ele>579</ele>
        <time>2013-09-18T12:54:40.000Z</time>
      </trkpt>
      <trkpt lat="43.50234" lon="6.8207">
        <ele>579</ele>
        <time>2013-09-18T12:54:41.000Z</time>
      </trkpt>
      <trkpt lat="43.50234" lon="6.82067">
        <ele>578</ele>
        <time>2013-09-18T12:54:43.000Z</time>
      </trkpt>
      <trkpt lat="43.50233" lon="6.82066">
        <ele>578</ele>
        <time>2013-09-18T12:54:44.000Z</time>
      </trkpt>
      <trkpt lat="43.50233" lon="6.82065">
        <ele>578</ele>
        <time>2013-09-18T12:54:45.000Z</time>
      </trkpt>
      <trkpt lat="43.50232" lon="6.82064">
        <ele>578</ele>
        <time>2013-09-18T12:54:46.000Z</time>
      </trkpt>
      <trkpt lat="43.50232" lon="6.82063">
        <ele>578</ele>
        <time>2013-09-18T12:54:47.000Z</time>
      </trkpt>
      <trkpt lat="43.50232" lon="6.82062">
        <ele>578</ele>
        <time>2013-09-18T12:54:48.000Z</time>
      </trkpt>
      <trkpt lat="43.50232" lon="6.82061">
        <ele>578</ele>
        <time>2013-09-18T12:54:49.000Z</time>
      </trkpt>
      <trkpt lat="43.50232" lon="6.82044">
        <ele>577</ele>
        <time>2013-09-18T12:54:51.000Z</time>
      </trkpt>
      <trkpt lat="43.50232" lon="6.82043">
        <ele>577</ele>
        <time>2013-09-18T12:54:52.000Z</time>
      </trkpt>
      <trkpt lat="43.50233" lon="6.82042">
        <ele>577</ele>
        <time>2013-09-18T12:54:53.000Z</time>
      </trkpt>
      <trkpt lat="43.50233" lon="6.82042">
        <ele>577</ele>
        <time>2013-09-18T12:54:58.000Z</time>
      </trkpt>
      <trkpt lat="43.50233" lon="6.82042">
        <ele>577</ele>
        <time>2013-09-18T12:55:02.000Z</time>
      </trkpt>
      <trkpt lat="43.50233" lon="6.82043">
        <ele>577</ele>
        <time>2013-09-18T12:55:07.000Z</time>
      </trkpt>
      <trkpt lat="43.50233" lon="6.82043">
        <ele>577</ele>
        <time>2013-09-18T12:55:09.000Z</time>
      </trkpt>
      <trkpt lat="43.50233" lon="6.82043">
        <ele>577</ele>
        <time>2013-09-18T12:55:11.000Z</time>
      </trkpt>
      <trkpt lat="43.50234" lon="6.82043">
        <ele>577</ele>
        <time>2013-09-18T12:55:14.000Z</time>
      </trkpt>
      <trkpt lat="43.50234" lon="6.82043">
        <ele>577</ele>
        <time>2013-09-18T12:55:15.000Z</time>
      </trkpt>
      <trkpt lat="43.50235" lon="6.82044">
        <ele>577</ele>
        <time>2013-09-18T12:55:16.000Z</time>
      </trkpt>
      <trkpt lat="43.50236" lon="6.82045">
        <ele>577</ele>
        <time>2013-09-18T12:55:17.000Z</time>
      </trkpt>
      <trkpt lat="43.50236" lon="6.82048">
        <ele>577</ele>
        <time>2013-09-18T12:55:18.000Z</time>
      </trkpt>
      <trkpt lat="43.50237" lon="6.8205">
        <ele>577</ele>
        <time>2013-09-18T12:55:19.000Z</time>
      </trkpt>
      <trkpt lat="43.50238" lon="6.82053">
        <ele>577</ele>
        <time>2013-09-18T12:55:20.000Z</time>
      </trkpt>
      <trkpt lat="43.5024" lon="6.82056">
        <ele>578</ele>
        <time>2013-09-18T12:55:21.000Z</time>
      </trkpt>
      <trkpt lat="43.50241" lon="6.82058">
        <ele>578</ele>
        <time>2013-09-18T12:55:22.000Z</time>
      </trkpt>
      <trkpt lat="43.50243" lon="6.82061">
        <ele>578</ele>
        <time>2013-09-18T12:55:23.000Z</time>
      </trkpt>
      <trkpt lat="43.50245" lon="6.82064">
        <ele>579</ele>
        <time>2013-09-18T12:55:24.000Z</time>
      </trkpt>
      <trkpt lat="43.50247" lon="6.82067">
        <ele>579</ele>
        <time>2013-09-18T12:55:25.000Z</time>
      </trkpt>
      <trkpt lat="43.50249" lon="6.82069">
        <ele>579</ele>
        <time>2013-09-18T12:55:26.000Z</time>
      </trkpt>
      <trkpt lat="43.50251" lon="6.82071">
        <ele>571</ele>
        <time>2013-09-18T12:55:27.000Z</time>
      </trkpt>
      <trkpt lat="43.50253" lon="6.82073">
        <ele>572</ele>
        <time>2013-09-18T12:55:28.000Z</time>
      </trkpt>
      <trkpt lat="43.50255" lon="6.82074">
        <ele>572</ele>
        <time>2013-09-18T12:55:29.000Z</time>
      </trkpt>
      <trkpt lat="43.50258" lon="6.82076">
        <ele>572</ele>
        <time>2013-09-18T12:55:30.000Z</time>
      </trkpt>
      <trkpt lat="43.5026" lon="6.82077">
        <ele>571</ele>
        <time>2013-09-18T12:55:31.000Z</time>
      </trkpt>
      <trkpt lat="43.50263" lon="6.82078">
        <ele>570</ele>
        <time>2013-09-18T12:55:32.000Z</time>
      </trkpt>
      <trkpt lat="43.50266" lon="6.8208">
        <ele>569</ele>
        <time>2013-09-18T12:55:33.000Z</time>
      </trkpt>
      <trkpt lat="43.50268" lon="6.82082">
        <ele>567</ele>
        <time>2013-09-18T12:55:34.000Z</time>
      </trkpt>
      <trkpt lat="43.50271" lon="6.82083">
        <ele>566</ele>
        <time>2013-09-18T12:55:35.000Z</time>
      </trkpt>
      <trkpt lat="43.50273" lon="6.82085">
        <ele>570</ele>
        <time>2013-09-18T12:55:36.000Z</time>
      </trkpt>
      <trkpt lat="43.50276" lon="6.82087">
        <ele>569</ele>
        <time>2013-09-18T12:55:37.000Z</time>
      </trkpt>
      <trkpt lat="43.50278" lon="6.82088">
        <ele>568</ele>
        <time>2013-09-18T12:55:38.000Z</time>
      </trkpt>
      <trkpt lat="43.50279" lon="6.8209">
        <ele>568</ele>
        <time>2013-09-18T12:55:39.000Z</time>
      </trkpt>
      <trkpt lat="43.5028" lon="6.8209">
        <ele>567</ele>
        <time>2013-09-18T12:55:40.000Z</time>
      </trkpt>
      <trkpt lat="43.5028" lon="6.8209">
        <ele>567</ele>
        <time>2013-09-18T12:55:41.000Z</time>
      </trkpt>
      <trkpt lat="43.5028" lon="6.82091">
        <ele>567</ele>
        <time>2013-09-18T12:55:48.000Z</time>
      </trkpt>
      <trkpt lat="43.5028" lon="6.8209">
        <ele>567</ele>
        <time>2013-09-18T12:56:02.000Z</time>
      </trkpt>
      <trkpt lat="43.5028" lon="6.8209">
        <ele>567</ele>
        <time>2013-09-18T12:56:04.000Z</time>
      </trkpt>
      <trkpt lat="43.5028" lon="6.82089">
        <ele>567</ele>
        <time>2013-09-18T12:56:05.000Z</time>
      </trkpt>
      <trkpt lat="43.5028" lon="6.82088">
        <ele>567</ele>
        <time>2013-09-18T12:56:06.000Z</time>
      </trkpt>
      <trkpt lat="43.50279" lon="6.82088">
        <ele>568</ele>
        <time>2013-09-18T12:56:07.000Z</time>
      </trkpt>
      <trkpt lat="43.50279" lon="6.82088">
        <ele>568</ele>
        <time>2013-09-18T12:56:08.000Z</time>
      </trkpt>
      <trkpt lat="43.50279" lon="6.82087">
        <ele>568</ele>
        <time>2013-09-18T12:56:11.000Z</time>
      </trkpt>
      <trkpt lat="43.50278" lon="6.82086">
        <ele>568</ele>
        <time>2013-09-18T12:56:12.000Z</time>
      </trkpt>
      <trkpt lat="43.50277" lon="6.82085">
        <ele>568</ele>
        <time>2013-09-18T12:56:13.000Z</time>
      </trkpt>
      <trkpt lat="43.50277" lon="6.82084">
        <ele>568</ele>
        <time>2013-09-18T12:56:14.000Z</time>
      </trkpt>
      <trkpt lat="43.50277" lon="6.82084">
        <ele>569</ele>
        <time>2013-09-18T12:56:15.000Z</time>
      </trkpt>
      <trkpt lat="43.50276" lon="6.82083">
        <ele>563</ele>
        <time>2013-09-18T12:56:16.000Z</time>
      </trkpt>
      <trkpt lat="43.50275" lon="6.82082">
        <ele>564</ele>
        <time>2013-09-18T12:56:17.000Z</time>
      </trkpt>
      <trkpt lat="43.50273" lon="6.8208">
        <ele>564</ele>
        <time>2013-09-18T12:56:18.000Z</time>
      </trkpt>
      <trkpt lat="43.50272" lon="6.82079">
        <ele>565</ele>
        <time>2013-09-18T12:56:19.000Z</time>
      </trkpt>
      <trkpt lat="43.50271" lon="6.82077">
        <ele>565</ele>
        <time>2013-09-18T12:56:20.000Z</time>
      </trkpt>
      <trkpt lat="43.5027" lon="6.82074">
        <ele>565</ele>
        <time>2013-09-18T12:56:21.000Z</time>
      </trkpt>
      <trkpt lat="43.50269" lon="6.82072">
        <ele>565</ele>
        <time>2013-09-18T12:56:22.000Z</time>
      </trkpt>
      <trkpt lat="43.50268" lon="6.8207">
        <ele>565</ele>
        <time>2013-09-18T12:56:23.000Z</time>
      </trkpt>
      <trkpt lat="43.50268" lon="6.82068">
        <ele>565</ele>
        <time>2013-09-18T12:56:24.000Z</time>
      </trkpt>
      <trkpt lat="43.50267" lon="6.82066">
        <ele>565</ele>
        <time>2013-09-18T12:56:25.000Z</time>
      </trkpt>
      <trkpt lat="43.50266" lon="6.82064">
        <ele>564</ele>
        <time>2013-09-18T12:56:26.000Z</time>
      </trkpt>
      <trkpt lat="43.50265" lon="6.82061">
        <ele>564</ele>
        <time>2013-09-18T12:56:27.000Z</time>
      </trkpt>
      <trkpt lat="43.50264" lon="6.82059">
        <ele>563</ele>
        <time>2013-09-18T12:56:28.000Z</time>
      </trkpt>
      <trkpt lat="43.50264" lon="6.82056">
        <ele>563</ele>
        <time>2013-09-18T12:56:29.000Z</time>
      </trkpt>
      <trkpt lat="43.50263" lon="6.82054">
        <ele>562</ele>
        <time>2013-09-18T12:56:30.000Z</time>
      </trkpt>
      <trkpt lat="43.50263" lon="6.82051">
        <ele>562</ele>
        <time>2013-09-18T12:56:31.000Z</time>
      </trkpt>
      <trkpt lat="43.50262" lon="6.82048">
        <ele>562</ele>
        <time>2013-09-18T12:56:32.000Z</time>
      </trkpt>
      <trkpt lat="43.50261" lon="6.82045">
        <ele>561</ele>
        <time>2013-09-18T12:56:33.000Z</time>
      </trkpt>
      <trkpt lat="43.50259" lon="6.82039">
        <ele>561</ele>
        <time>2013-09-18T12:56:34.000Z</time>
      </trkpt>
      <trkpt lat="43.50258" lon="6.82033">
        <ele>561</ele>
        <time>2013-09-18T12:56:35.000Z</time>
      </trkpt>
      <trkpt lat="43.50256" lon="6.82026">
        <ele>561</ele>
        <time>2013-09-18T12:56:36.000Z</time>
      </trkpt>
      <trkpt lat="43.50255" lon="6.82018">
        <ele>562</ele>
        <time>2013-09-18T12:56:37.000Z</time>
      </trkpt>
      <trkpt lat="43.50254" lon="6.8201">
        <ele>564</ele>
        <time>2013-09-18T12:56:38.000Z</time>
      </trkpt>
      <trkpt lat="43.50253" lon="6.82002">
        <ele>567</ele>
        <time>2013-09-18T12:56:39.000Z</time>
      </trkpt>
      <trkpt lat="43.50254" lon="6.81993">
        <ele>562</ele>
        <time>2013-09-18T12:56:40.000Z</time>
      </trkpt>
      <trkpt lat="43.50254" lon="6.81986">
        <ele>558</ele>
        <time>2013-09-18T12:56:41.000Z</time>
      </trkpt>
      <trkpt lat="43.50254" lon="6.8198">
        <ele>555</ele>
        <time>2013-09-18T12:56:42.000Z</time>
      </trkpt>
      <trkpt lat="43.50254" lon="6.81974">
        <ele>554</ele>
        <time>2013-09-18T12:56:43.000Z</time>
      </trkpt>
      <trkpt lat="43.50255" lon="6.81963">
        <ele>552</ele>
        <time>2013-09-18T12:56:45.000Z</time>
      </trkpt>
      <trkpt lat="43.50254" lon="6.81959">
        <ele>552</ele>
        <time>2013-09-18T12:56:46.000Z</time>
      </trkpt>
      <trkpt lat="43.50255" lon="6.81955">
        <ele>551</ele>
        <time>2013-09-18T12:56:47.000Z</time>
      </trkpt>
      <trkpt lat="43.50254" lon="6.81951">
        <ele>552</ele>
        <time>2013-09-18T12:56:48.000Z</time>
      </trkpt>
      <trkpt lat="43.50254" lon="6.81948">
        <ele>552</ele>
        <time>2013-09-18T12:56:49.000Z</time>
      </trkpt>
      <trkpt lat="43.50253" lon="6.81944">
        <ele>552</ele>
        <time>2013-09-18T12:56:50.000Z</time>
      </trkpt>
      <trkpt lat="43.50252" lon="6.81939">
        <ele>553</ele>
        <time>2013-09-18T12:56:51.000Z</time>
      </trkpt>
      <trkpt lat="43.50251" lon="6.81934">
        <ele>555</ele>
        <time>2013-09-18T12:56:52.000Z</time>
      </trkpt>
      <trkpt lat="43.50252" lon="6.81921">
        <ele>561</ele>
        <time>2013-09-18T12:56:54.000Z</time>
      </trkpt>
      <trkpt lat="43.50252" lon="6.81916">
        <ele>563</ele>
        <time>2013-09-18T12:56:55.000Z</time>
      </trkpt>
      <trkpt lat="43.50253" lon="6.8191">
        <ele>558</ele>
        <time>2013-09-18T12:56:56.000Z</time>
      </trkpt>
      <trkpt lat="43.50253" lon="6.81904">
        <ele>555</ele>
        <time>2013-09-18T12:56:57.000Z</time>
      </trkpt>
      <trkpt lat="43.50253" lon="6.81898">
        <ele>552</ele>
        <time>2013-09-18T12:56:58.000Z</time>
      </trkpt>
      <trkpt lat="43.50253" lon="6.81884">
        <ele>548</ele>
        <time>2013-09-18T12:57:00.000Z</time>
      </trkpt>
      <trkpt lat="43.50253" lon="6.81876">
        <ele>547</ele>
        <time>2013-09-18T12:57:01.000Z</time>
      </trkpt>
      <trkpt lat="43.50252" lon="6.81869">
        <ele>547</ele>
        <time>2013-09-18T12:57:02.000Z</time>
      </trkpt>
      <trkpt lat="43.50252" lon="6.81861">
        <ele>547</ele>
        <time>2013-09-18T12:57:03.000Z</time>
      </trkpt>
      <trkpt lat="43.50252" lon="6.81854">
        <ele>549</ele>
        <time>2013-09-18T12:57:04.000Z</time>
      </trkpt>
      <trkpt lat="43.50251" lon="6.81848">
        <ele>550</ele>
        <time>2013-09-18T12:57:05.000Z</time>
      </trkpt>
      <trkpt lat="43.50251" lon="6.81842">
        <ele>553</ele>
        <time>2013-09-18T12:57:06.000Z</time>
      </trkpt>
      <trkpt lat="43.50251" lon="6.81837">
        <ele>556</ele>
        <time>2013-09-18T12:57:07.000Z</time>
      </trkpt>
      <trkpt lat="43.5025" lon="6.81832">
        <ele>556</ele>
        <time>2013-09-18T12:57:08.000Z</time>
      </trkpt>
      <trkpt lat="43.5025" lon="6.81827">
        <ele>557</ele>
        <time>2013-09-18T12:57:09.000Z</time>
      </trkpt>
      <trkpt lat="43.5025" lon="6.81821">
        <ele>556</ele>
        <time>2013-09-18T12:57:10.000Z</time>
      </trkpt>
      <trkpt lat="43.50249" lon="6.81816">
        <ele>555</ele>
        <time>2013-09-18T12:57:11.000Z</time>
      </trkpt>
      <trkpt lat="43.50249" lon="6.8181">
        <ele>555</ele>
        <time>2013-09-18T12:57:12.000Z</time>
      </trkpt>
      <trkpt lat="43.50249" lon="6.81805">
        <ele>554</ele>
        <time>2013-09-18T12:57:13.000Z</time>
      </trkpt>
      <trkpt lat="43.5025" lon="6.81801">
        <ele>554</ele>
        <time>2013-09-18T12:57:14.000Z</time>
      </trkpt>
      <trkpt lat="43.5025" lon="6.81785">
        <ele>552</ele>
        <time>2013-09-18T12:57:17.000Z</time>
      </trkpt>
      <trkpt lat="43.50251" lon="6.81779">
        <ele>543</ele>
        <time>2013-09-18T12:57:18.000Z</time>
      </trkpt>
      <trkpt lat="43.50252" lon="6.81772">
        <ele>543</ele>
        <time>2013-09-18T12:57:19.000Z</time>
      </trkpt>
      <trkpt lat="43.50253" lon="6.81766">
        <ele>543</ele>
        <time>2013-09-18T12:57:20.000Z</time>
      </trkpt>
      <trkpt lat="43.50253" lon="6.8176">
        <ele>544</ele>
        <time>2013-09-18T12:57:21.000Z</time>
      </trkpt>
      <trkpt lat="43.50254" lon="6.81755">
        <ele>544</ele>
        <time>2013-09-18T12:57:22.000Z</time>
      </trkpt>
      <trkpt lat="43.50255" lon="6.8175">
        <ele>545</ele>
        <time>2013-09-18T12:57:23.000Z</time>
      </trkpt>
      <trkpt lat="43.50255" lon="6.81746">
        <ele>545</ele>
        <time>2013-09-18T12:57:24.000Z</time>
      </trkpt>
      <trkpt lat="43.50253" lon="6.81742">
        <ele>545</ele>
        <time>2013-09-18T12:57:25.000Z</time>
      </trkpt>
      <trkpt lat="43.50251" lon="6.8174">
        <ele>545</ele>
        <time>2013-09-18T12:57:26.000Z</time>
      </trkpt>
      <trkpt lat="43.5025" lon="6.81739">
        <ele>542</ele>
        <time>2013-09-18T12:57:27.000Z</time>
      </trkpt>
      <trkpt lat="43.50249" lon="6.81739">
        <ele>542</ele>
        <time>2013-09-18T12:57:28.000Z</time>
      </trkpt>
      <trkpt lat="43.50249" lon="6.81738">
        <ele>542</ele>
        <time>2013-09-18T12:57:29.000Z</time>
      </trkpt>
      <trkpt lat="43.5025" lon="6.81738">
        <ele>542</ele>
        <time>2013-09-18T12:57:36.000Z</time>
      </trkpt>
      <trkpt lat="43.5025" lon="6.81739">
        <ele>542</ele>
        <time>2013-09-18T12:57:42.000Z</time>
      </trkpt>
      <trkpt lat="43.50249" lon="6.81739">
        <ele>542</ele>
        <time>2013-09-18T12:57:48.000Z</time>
      </trkpt>
      <trkpt lat="43.50248" lon="6.81739">
        <ele>542</ele>
        <time>2013-09-18T12:57:49.000Z</time>
      </trkpt>
      <trkpt lat="43.50247" lon="6.8174">
        <ele>543</ele>
        <time>2013-09-18T12:57:50.000Z</time>
      </trkpt>
      <trkpt lat="43.50246" lon="6.81742">
        <ele>543</ele>
        <time>2013-09-18T12:57:51.000Z</time>
      </trkpt>
      <trkpt lat="43.50245" lon="6.81743">
        <ele>543</ele>
        <time>2013-09-18T12:57:52.000Z</time>
      </trkpt>
      <trkpt lat="43.50243" lon="6.81744">
        <ele>543</ele>
        <time>2013-09-18T12:57:53.000Z</time>
      </trkpt>
      <trkpt lat="43.50241" lon="6.81746">
        <ele>543</ele>
        <time>2013-09-18T12:57:54.000Z</time>
      </trkpt>
      <trkpt lat="43.5024" lon="6.81747">
        <ele>542</ele>
        <time>2013-09-18T12:57:55.000Z</time>
      </trkpt>
      <trkpt lat="43.50237" lon="6.81748">
        <ele>542</ele>
        <time>2013-09-18T12:57:56.000Z</time>
      </trkpt>
      <trkpt lat="43.50235" lon="6.81749">
        <ele>541</ele>
        <time>2013-09-18T12:57:57.000Z</time>
      </trkpt>
      <trkpt lat="43.50233" lon="6.8175">
        <ele>549</ele>
        <time>2013-09-18T12:57:58.000Z</time>
      </trkpt>
      <trkpt lat="43.5023" lon="6.81752">
        <ele>549</ele>
        <time>2013-09-18T12:57:59.000Z</time>
      </trkpt>
      <trkpt lat="43.50226" lon="6.81753">
        <ele>549</ele>
        <time>2013-09-18T12:58:00.000Z</time>
      </trkpt>
      <trkpt lat="43.50222" lon="6.81754">
        <ele>549</ele>
        <time>2013-09-18T12:58:01.000Z</time>
      </trkpt>
      <trkpt lat="43.50218" lon="6.81754">
        <ele>549</ele>
        <time>2013-09-18T12:58:02.000Z</time>
      </trkpt>
      <trkpt lat="43.50213" lon="6.81755">
        <ele>549</ele>
        <time>2013-09-18T12:58:03.000Z</time>
      </trkpt>
      <trkpt lat="43.50208" lon="6.81756">
        <ele>549</ele>
        <time>2013-09-18T12:58:04.000Z</time>
      </trkpt>
      <trkpt lat="43.50202" lon="6.81757">
        <ele>549</ele>
        <time>2013-09-18T12:58:05.000Z</time>
      </trkpt>
      <trkpt lat="43.50196" lon="6.81759">
        <ele>548</ele>
        <time>2013-09-18T12:58:06.000Z</time>
      </trkpt>
      <trkpt lat="43.5019" lon="6.8176">
        <ele>548</ele>
        <time>2013-09-18T12:58:07.000Z</time>
      </trkpt>
      <trkpt lat="43.50184" lon="6.81762">
        <ele>547</ele>
        <time>2013-09-18T12:58:08.000Z</time>
      </trkpt>
      <trkpt lat="43.50179" lon="6.81763">
        <ele>546</ele>
        <time>2013-09-18T12:58:09.000Z</time>
      </trkpt>
      <trkpt lat="43.50175" lon="6.81765">
        <ele>546</ele>
        <time>2013-09-18T12:58:10.000Z</time>
      </trkpt>
      <trkpt lat="43.50171" lon="6.81767">
        <ele>546</ele>
        <time>2013-09-18T12:58:11.000Z</time>
      </trkpt>
      <trkpt lat="43.50167" lon="6.81768">
        <ele>542</ele>
        <time>2013-09-18T12:58:12.000Z</time>
      </trkpt>
      <trkpt lat="43.50163" lon="6.8177">
        <ele>542</ele>
        <time>2013-09-18T12:58:13.000Z</time>
      </trkpt>
      <trkpt lat="43.50159" lon="6.81772">
        <ele>542</ele>
        <time>2013-09-18T12:58:14.000Z</time>
      </trkpt>
      <trkpt lat="43.50155" lon="6.81774">
        <ele>542</ele>
        <time>2013-09-18T12:58:15.000Z</time>
      </trkpt>
      <trkpt lat="43.50151" lon="6.81776">
        <ele>543</ele>
        <time>2013-09-18T12:58:16.000Z</time>
      </trkpt>
      <trkpt lat="43.50147" lon="6.81778">
        <ele>543</ele>
        <time>2013-09-18T12:58:17.000Z</time>
      </trkpt>
      <trkpt lat="43.50143" lon="6.8178">
        <ele>543</ele>
        <time>2013-09-18T12:58:18.000Z</time>
      </trkpt>
      <trkpt lat="43.50138" lon="6.81783">
        <ele>543</ele>
        <time>2013-09-18T12:58:19.000Z</time>
      </trkpt>
      <trkpt lat="43.50133" lon="6.81786">
        <ele>543</ele>
        <time>2013-09-18T12:58:20.000Z</time>
      </trkpt>
      <trkpt lat="43.50128" lon="6.81788">
        <ele>542</ele>
        <time>2013-09-18T12:58:21.000Z</time>
      </trkpt>
      <trkpt lat="43.50122" lon="6.8179">
        <ele>542</ele>
        <time>2013-09-18T12:58:22.000Z</time>
      </trkpt>
      <trkpt lat="43.50117" lon="6.81792">
        <ele>542</ele>
        <time>2013-09-18T12:58:23.000Z</time>
      </trkpt>
      <trkpt lat="43.50111" lon="6.81795">
        <ele>542</ele>
        <time>2013-09-18T12:58:24.000Z</time>
      </trkpt>
      <trkpt lat="43.50106" lon="6.81798">
        <ele>542</ele>
        <time>2013-09-18T12:58:25.000Z</time>
      </trkpt>
      <trkpt lat="43.50101" lon="6.818">
        <ele>542</ele>
        <time>2013-09-18T12:58:26.000Z</time>
      </trkpt>
      <trkpt lat="43.50096" lon="6.81803">
        <ele>542</ele>
        <time>2013-09-18T12:58:27.000Z</time>
      </trkpt>
      <trkpt lat="43.50092" lon="6.81806">
        <ele>542</ele>
        <time>2013-09-18T12:58:28.000Z</time>
      </trkpt>
      <trkpt lat="43.50088" lon="6.81809">
        <ele>543</ele>
        <time>2013-09-18T12:58:29.000Z</time>
      </trkpt>
      <trkpt lat="43.50084" lon="6.81812">
        <ele>543</ele>
        <time>2013-09-18T12:58:30.000Z</time>
      </trkpt>
      <trkpt lat="43.50081" lon="6.81815">
        <ele>534</ele>
        <time>2013-09-18T12:58:31.000Z</time>
      </trkpt>
      <trkpt lat="43.50077" lon="6.81816">
        <ele>535</ele>
        <time>2013-09-18T12:58:32.000Z</time>
      </trkpt>
      <trkpt lat="43.50074" lon="6.81816">
        <ele>534</ele>
        <time>2013-09-18T12:58:33.000Z</time>
      </trkpt>
      <trkpt lat="43.50072" lon="6.81814">
        <ele>533</ele>
        <time>2013-09-18T12:58:34.000Z</time>
      </trkpt>
      <trkpt lat="43.50071" lon="6.81811">
        <ele>532</ele>
        <time>2013-09-18T12:58:35.000Z</time>
      </trkpt>
      <trkpt lat="43.50071" lon="6.81808">
        <ele>531</ele>
        <time>2013-09-18T12:58:36.000Z</time>
      </trkpt>
      <trkpt lat="43.50073" lon="6.81805">
        <ele>530</ele>
        <time>2013-09-18T12:58:37.000Z</time>
      </trkpt>
      <trkpt lat="43.50076" lon="6.81803">
        <ele>530</ele>
        <time>2013-09-18T12:58:38.000Z</time>
      </trkpt>
      <trkpt lat="43.50079" lon="6.81801">
        <ele>530</ele>
        <time>2013-09-18T12:58:39.000Z</time>
      </trkpt>
      <trkpt lat="43.50082" lon="6.81799">
        <ele>529</ele>
        <time>2013-09-18T12:58:40.000Z</time>
      </trkpt>
      <trkpt lat="43.50086" lon="6.81797">
        <ele>540</ele>
        <time>2013-09-18T12:58:41.000Z</time>
      </trkpt>
      <trkpt lat="43.50089" lon="6.81795">
        <ele>540</ele>
        <time>2013-09-18T12:58:42.000Z</time>
      </trkpt>
      <trkpt lat="43.50093" lon="6.81792">
        <ele>539</ele>
        <time>2013-09-18T12:58:43.000Z</time>
      </trkpt>
      <trkpt lat="43.50096" lon="6.8179">
        <ele>539</ele>
        <time>2013-09-18T12:58:44.000Z</time>
      </trkpt>
      <trkpt lat="43.501" lon="6.81787">
        <ele>539</ele>
        <time>2013-09-18T12:58:45.000Z</time>
      </trkpt>
      <trkpt lat="43.50104" lon="6.81784">
        <ele>539</ele>
        <time>2013-09-18T12:58:46.000Z</time>
      </trkpt>
      <trkpt lat="43.50107" lon="6.81781">
        <ele>538</ele>
        <time>2013-09-18T12:58:47.000Z</time>
      </trkpt>
      <trkpt lat="43.50111" lon="6.81778">
        <ele>538</ele>
        <time>2013-09-18T12:58:48.000Z</time>
      </trkpt>
      <trkpt lat="43.50115" lon="6.81774">
        <ele>538</ele>
        <time>2013-09-18T12:58:49.000Z</time>
      </trkpt>
      <trkpt lat="43.5012" lon="6.81771">
        <ele>538</ele>
        <time>2013-09-18T12:58:50.000Z</time>
      </trkpt>
      <trkpt lat="43.50124" lon="6.81767">
        <ele>539</ele>
        <time>2013-09-18T12:58:51.000Z</time>
      </trkpt>
      <trkpt lat="43.50129" lon="6.81762">
        <ele>539</ele>
        <time>2013-09-18T12:58:52.000Z</time>
      </trkpt>
      <trkpt lat="43.50133" lon="6.81758">
        <ele>539</ele>
        <time>2013-09-18T12:58:53.000Z</time>
      </trkpt>
      <trkpt lat="43.50137" lon="6.81754">
        <ele>539</ele>
        <time>2013-09-18T12:58:54.000Z</time>
      </trkpt>
      <trkpt lat="43.50141" lon="6.8175">
        <ele>523</ele>
        <time>2013-09-18T12:58:55.000Z</time>
      </trkpt>
      <trkpt lat="43.50145" lon="6.81746">
        <ele>524</ele>
        <time>2013-09-18T12:58:56.000Z</time>
      </trkpt>
      <trkpt lat="43.5015" lon="6.81742">
        <ele>525</ele>
        <time>2013-09-18T12:58:57.000Z</time>
      </trkpt>
      <trkpt lat="43.50154" lon="6.81738">
        <ele>526</ele>
        <time>2013-09-18T12:58:58.000Z</time>
      </trkpt>
      <trkpt lat="43.50159" lon="6.81734">
        <ele>526</ele>
        <time>2013-09-18T12:58:59.000Z</time>
      </trkpt>
      <trkpt lat="43.50163" lon="6.81729">
        <ele>524</ele>
        <time>2013-09-18T12:59:00.000Z</time>
      </trkpt>
      <trkpt lat="43.50168" lon="6.81724">
        <ele>534</ele>
        <time>2013-09-18T12:59:01.000Z</time>
      </trkpt>
      <trkpt lat="43.50173" lon="6.81719">
        <ele>533</ele>
        <time>2013-09-18T12:59:02.000Z</time>
      </trkpt>
      <trkpt lat="43.50177" lon="6.81714">
        <ele>532</ele>
        <time>2013-09-18T12:59:03.000Z</time>
      </trkpt>
      <trkpt lat="43.50182" lon="6.81709">
        <ele>532</ele>
        <time>2013-09-18T12:59:04.000Z</time>
      </trkpt>
      <trkpt lat="43.50187" lon="6.81704">
        <ele>531</ele>
        <time>2013-09-18T12:59:05.000Z</time>
      </trkpt>
      <trkpt lat="43.50192" lon="6.81698">
        <ele>531</ele>
        <time>2013-09-18T12:59:06.000Z</time>
      </trkpt>
      <trkpt lat="43.50196" lon="6.81692">
        <ele>530</ele>
        <time>2013-09-18T12:59:07.000Z</time>
      </trkpt>
      <trkpt lat="43.502" lon="6.81685">
        <ele>530</ele>
        <time>2013-09-18T12:59:08.000Z</time>
      </trkpt>
      <trkpt lat="43.50203" lon="6.81677">
        <ele>530</ele>
        <time>2013-09-18T12:59:09.000Z</time>
      </trkpt>
      <trkpt lat="43.50205" lon="6.8167">
        <ele>531</ele>
        <time>2013-09-18T12:59:10.000Z</time>
      </trkpt>
      <trkpt lat="43.50207" lon="6.81663">
        <ele>525</ele>
        <time>2013-09-18T12:59:11.000Z</time>
      </trkpt>
      <trkpt lat="43.50208" lon="6.81656">
        <ele>525</ele>
        <time>2013-09-18T12:59:12.000Z</time>
      </trkpt>
      <trkpt lat="43.50209" lon="6.81649">
        <ele>525</ele>
        <time>2013-09-18T12:59:13.000Z</time>
      </trkpt>
      <trkpt lat="43.5021" lon="6.81642">
        <ele>525</ele>
        <time>2013-09-18T12:59:14.000Z</time>
      </trkpt>
      <trkpt lat="43.5021" lon="6.81634">
        <ele>525</ele>
        <time>2013-09-18T12:59:15.000Z</time>
      </trkpt>
      <trkpt lat="43.5021" lon="6.8162">
        <ele>525</ele>
        <time>2013-09-18T12:59:17.000Z</time>
      </trkpt>
      <trkpt lat="43.50208" lon="6.81613">
        <ele>524</ele>
        <time>2013-09-18T12:59:18.000Z</time>
      </trkpt>
      <trkpt lat="43.50207" lon="6.81607">
        <ele>524</ele>
        <time>2013-09-18T12:59:19.000Z</time>
      </trkpt>
      <trkpt lat="43.50205" lon="6.81601">
        <ele>523</ele>
        <time>2013-09-18T12:59:20.000Z</time>
      </trkpt>
      <trkpt lat="43.50203" lon="6.81595">
        <ele>522</ele>
        <time>2013-09-18T12:59:21.000Z</time>
      </trkpt>
      <trkpt lat="43.50201" lon="6.8159">
        <ele>521</ele>
        <time>2013-09-18T12:59:22.000Z</time>
      </trkpt>
      <trkpt lat="43.50199" lon="6.81584">
        <ele>520</ele>
        <time>2013-09-18T12:59:23.000Z</time>
      </trkpt>
      <trkpt lat="43.50198" lon="6.81577">
        <ele>517</ele>
        <time>2013-09-18T12:59:24.000Z</time>
      </trkpt>
      <trkpt lat="43.50196" lon="6.8157">
        <ele>517</ele>
        <time>2013-09-18T12:59:25.000Z</time>
      </trkpt>
      <trkpt lat="43.50195" lon="6.81562">
        <ele>517</ele>
        <time>2013-09-18T12:59:26.000Z</time>
      </trkpt>
      <trkpt lat="43.50194" lon="6.81554">
        <ele>517</ele>
        <time>2013-09-18T12:59:27.000Z</time>
      </trkpt>
      <trkpt lat="43.50193" lon="6.81545">
        <ele>517</ele>
        <time>2013-09-18T12:59:28.000Z</time>
      </trkpt>
      <trkpt lat="43.50193" lon="6.81536">
        <ele>517</ele>
        <time>2013-09-18T12:59:29.000Z</time>
      </trkpt>
      <trkpt lat="43.50193" lon="6.81528">
        <ele>516</ele>
        <time>2013-09-18T12:59:30.000Z</time>
      </trkpt>
      <trkpt lat="43.50192" lon="6.81519">
        <ele>515</ele>
        <time>2013-09-18T12:59:31.000Z</time>
      </trkpt>
      <trkpt lat="43.50192" lon="6.81511">
        <ele>514</ele>
        <time>2013-09-18T12:59:32.000Z</time>
      </trkpt>
      <trkpt lat="43.50192" lon="6.81503">
        <ele>514</ele>
        <time>2013-09-18T12:59:33.000Z</time>
      </trkpt>
      <trkpt lat="43.50191" lon="6.81496">
        <ele>510</ele>
        <time>2013-09-18T12:59:34.000Z</time>
      </trkpt>
      <trkpt lat="43.5019" lon="6.81488">
        <ele>510</ele>
        <time>2013-09-18T12:59:35.000Z</time>
      </trkpt>
      <trkpt lat="43.50189" lon="6.81482">
        <ele>510</ele>
        <time>2013-09-18T12:59:36.000Z</time>
      </trkpt>
      <trkpt lat="43.50189" lon="6.81476">
        <ele>510</ele>
        <time>2013-09-18T12:59:37.000Z</time>
      </trkpt>
      <trkpt lat="43.50188" lon="6.81471">
        <ele>510</ele>
        <time>2013-09-18T12:59:38.000Z</time>
      </trkpt>
      <trkpt lat="43.50187" lon="6.81466">
        <ele>510</ele>
        <time>2013-09-18T12:59:39.000Z</time>
      </trkpt>
      <trkpt lat="43.50186" lon="6.81461">
        <ele>510</ele>
        <time>2013-09-18T12:59:40.000Z</time>
      </trkpt>
      <trkpt lat="43.50186" lon="6.81456">
        <ele>510</ele>
        <time>2013-09-18T12:59:41.000Z</time>
      </trkpt>
      <trkpt lat="43.50186" lon="6.81451">
        <ele>509</ele>
        <time>2013-09-18T12:59:42.000Z</time>
      </trkpt>
      <trkpt lat="43.50186" lon="6.81439">
        <ele>508</ele>
        <time>2013-09-18T12:59:44.000Z</time>
      </trkpt>
      <trkpt lat="43.50186" lon="6.81433">
        <ele>507</ele>
        <time>2013-09-18T12:59:45.000Z</time>
      </trkpt>
      <trkpt lat="43.50187" lon="6.81428">
        <ele>506</ele>
        <time>2013-09-18T12:59:46.000Z</time>
      </trkpt>
      <trkpt lat="43.50187" lon="6.81422">
        <ele>505</ele>
        <time>2013-09-18T12:59:47.000Z</time>
      </trkpt>
      <trkpt lat="43.50187" lon="6.81417">
        <ele>505</ele>
        <time>2013-09-18T12:59:48.000Z</time>
      </trkpt>
      <trkpt lat="43.50188" lon="6.81411">
        <ele>500</ele>
        <time>2013-09-18T12:59:49.000Z</time>
      </trkpt>
      <trkpt lat="43.50189" lon="6.81404">
        <ele>501</ele>
        <time>2013-09-18T12:59:50.000Z</time>
      </trkpt>
      <trkpt lat="43.5019" lon="6.81398">
        <ele>502</ele>
        <time>2013-09-18T12:59:51.000Z</time>
      </trkpt>
      <trkpt lat="43.50192" lon="6.81392">
        <ele>502</ele>
        <time>2013-09-18T12:59:52.000Z</time>
      </trkpt>
      <trkpt lat="43.50194" lon="6.81387">
        <ele>503</ele>
        <time>2013-09-18T12:59:53.000Z</time>
      </trkpt>
      <trkpt lat="43.50197" lon="6.81382">
        <ele>503</ele>
        <time>2013-09-18T12:59:54.000Z</time>
      </trkpt>
      <trkpt lat="43.50201" lon="6.81377">
        <ele>504</ele>
        <time>2013-09-18T12:59:55.000Z</time>
      </trkpt>
      <trkpt lat="43.50204" lon="6.81372">
        <ele>504</ele>
        <time>2013-09-18T12:59:56.000Z</time>
      </trkpt>
      <trkpt lat="43.50206" lon="6.81367">
        <ele>504</ele>
        <time>2013-09-18T12:59:57.000Z</time>
      </trkpt>
      <trkpt lat="43.50208" lon="6.81361">
        <ele>504</ele>
        <time>2013-09-18T12:59:58.000Z</time>
      </trkpt>
      <trkpt lat="43.50208" lon="6.81355">
        <ele>504</ele>
        <time>2013-09-18T12:59:59.000Z</time>
      </trkpt>
      <trkpt lat="43.50209" lon="6.81348">
        <ele>504</ele>
        <time>2013-09-18T13:00:00.000Z</time>
      </trkpt>
      <trkpt lat="43.50209" lon="6.81342">
        <ele>504</ele>
        <time>2013-09-18T13:00:01.000Z</time>
      </trkpt>
      <trkpt lat="43.5021" lon="6.81334">
        <ele>504</ele>
        <time>2013-09-18T13:00:02.000Z</time>
      </trkpt>
      <trkpt lat="43.5021" lon="6.81318">
        <ele>499</ele>
        <time>2013-09-18T13:00:04.000Z</time>
      </trkpt>
      <trkpt lat="43.5021" lon="6.81302">
        <ele>498</ele>
        <time>2013-09-18T13:00:06.000Z</time>
      </trkpt>
      <trkpt lat="43.5021" lon="6.81294">
        <ele>498</ele>
        <time>2013-09-18T13:00:07.000Z</time>
      </trkpt>
      <trkpt lat="43.5021" lon="6.81287">
        <ele>498</ele>
        <time>2013-09-18T13:00:08.000Z</time>
      </trkpt>
      <trkpt lat="43.5021" lon="6.81257">
        <ele>497</ele>
        <time>2013-09-18T13:00:12.000Z</time>
      </trkpt>
      <trkpt lat="43.50211" lon="6.81243">
        <ele>492</ele>
        <time>2013-09-18T13:00:14.000Z</time>
      </trkpt>
      <trkpt lat="43.5021" lon="6.81229">
        <ele>491</ele>
        <time>2013-09-18T13:00:16.000Z</time>
      </trkpt>
      <trkpt lat="43.5021" lon="6.81221">
        <ele>491</ele>
        <time>2013-09-18T13:00:17.000Z</time>
      </trkpt>
      <trkpt lat="43.5021" lon="6.81214">
        <ele>490</ele>
        <time>2013-09-18T13:00:18.000Z</time>
      </trkpt>
      <trkpt lat="43.5021" lon="6.81192">
        <ele>489</ele>
        <time>2013-09-18T13:00:21.000Z</time>
      </trkpt>
      <trkpt lat="43.5021" lon="6.81185">
        <ele>489</ele>
        <time>2013-09-18T13:00:22.000Z</time>
      </trkpt>
      <trkpt lat="43.50211" lon="6.81178">
        <ele>489</ele>
        <time>2013-09-18T13:00:23.000Z</time>
      </trkpt>
      <trkpt lat="43.50213" lon="6.81172">
        <ele>489</ele>
        <time>2013-09-18T13:00:24.000Z</time>
      </trkpt>
      <trkpt lat="43.50215" lon="6.81166">
        <ele>480</ele>
        <time>2013-09-18T13:00:25.000Z</time>
      </trkpt>
      <trkpt lat="43.50217" lon="6.8116">
        <ele>480</ele>
        <time>2013-09-18T13:00:26.000Z</time>
      </trkpt>
      <trkpt lat="43.5022" lon="6.81154">
        <ele>480</ele>
        <time>2013-09-18T13:00:27.000Z</time>
      </trkpt>
      <trkpt lat="43.50224" lon="6.81148">
        <ele>480</ele>
        <time>2013-09-18T13:00:28.000Z</time>
      </trkpt>
      <trkpt lat="43.50227" lon="6.81143">
        <ele>480</ele>
        <time>2013-09-18T13:00:29.000Z</time>
      </trkpt>
      <trkpt lat="43.50231" lon="6.81139">
        <ele>480</ele>
        <time>2013-09-18T13:00:30.000Z</time>
      </trkpt>
      <trkpt lat="43.50235" lon="6.81135">
        <ele>479</ele>
        <time>2013-09-18T13:00:31.000Z</time>
      </trkpt>
      <trkpt lat="43.5024" lon="6.81131">
        <ele>479</ele>
        <time>2013-09-18T13:00:32.000Z</time>
      </trkpt>
      <trkpt lat="43.50244" lon="6.81128">
        <ele>479</ele>
        <time>2013-09-18T13:00:33.000Z</time>
      </trkpt>
      <trkpt lat="43.50249" lon="6.81124">
        <ele>478</ele>
        <time>2013-09-18T13:00:34.000Z</time>
      </trkpt>
      <trkpt lat="43.50254" lon="6.8112">
        <ele>488</ele>
        <time>2013-09-18T13:00:35.000Z</time>
      </trkpt>
      <trkpt lat="43.50259" lon="6.81116">
        <ele>487</ele>
        <time>2013-09-18T13:00:36.000Z</time>
      </trkpt>
      <trkpt lat="43.50263" lon="6.81112">
        <ele>486</ele>
        <time>2013-09-18T13:00:37.000Z</time>
      </trkpt>
      <trkpt lat="43.50268" lon="6.81108">
        <ele>486</ele>
        <time>2013-09-18T13:00:38.000Z</time>
      </trkpt>
      <trkpt lat="43.50273" lon="6.81104">
        <ele>486</ele>
        <time>2013-09-18T13:00:39.000Z</time>
      </trkpt>
      <trkpt lat="43.50278" lon="6.811">
        <ele>486</ele>
        <time>2013-09-18T13:00:40.000Z</time>
      </trkpt>
      <trkpt lat="43.50282" lon="6.81096">
        <ele>486</ele>
        <time>2013-09-18T13:00:41.000Z</time>
      </trkpt>
      <trkpt lat="43.50286" lon="6.81092">
        <ele>486</ele>
        <time>2013-09-18T13:00:42.000Z</time>
      </trkpt>
      <trkpt lat="43.5029" lon="6.81088">
        <ele>486</ele>
        <time>2013-09-18T13:00:43.000Z</time>
      </trkpt>
      <trkpt lat="43.50294" lon="6.81084">
        <ele>486</ele>
        <time>2013-09-18T13:00:44.000Z</time>
      </trkpt>
      <trkpt lat="43.50299" lon="6.8108">
        <ele>467</ele>
        <time>2013-09-18T13:00:45.000Z</time>
      </trkpt>
      <trkpt lat="43.50303" lon="6.81076">
        <ele>467</ele>
        <time>2013-09-18T13:00:46.000Z</time>
      </trkpt>
      <trkpt lat="43.50308" lon="6.81072">
        <ele>467</ele>
        <time>2013-09-18T13:00:47.000Z</time>
      </trkpt>
      <trkpt lat="43.50312" lon="6.81069">
        <ele>468</ele>
        <time>2013-09-18T13:00:48.000Z</time>
      </trkpt>
      <trkpt lat="43.50316" lon="6.81066">
        <ele>468</ele>
        <time>2013-09-18T13:00:49.000Z</time>
      </trkpt>
      <trkpt lat="43.5032" lon="6.81064">
        <ele>468</ele>
        <time>2013-09-18T13:00:50.000Z</time>
      </trkpt>
      <trkpt lat="43.50324" lon="6.81063">
        <ele>468</ele>
        <time>2013-09-18T13:00:51.000Z</time>
      </trkpt>
      <trkpt lat="43.50329" lon="6.81062">
        <ele>468</ele>
        <time>2013-09-18T13:00:52.000Z</time>
      </trkpt>
      <trkpt lat="43.50334" lon="6.81062">
        <ele>465</ele>
        <time>2013-09-18T13:00:53.000Z</time>
      </trkpt>
      <trkpt lat="43.50339" lon="6.81063">
        <ele>465</ele>
        <time>2013-09-18T13:00:54.000Z</time>
      </trkpt>
      <trkpt lat="43.50345" lon="6.81064">
        <ele>464</ele>
        <time>2013-09-18T13:00:55.000Z</time>
      </trkpt>
      <trkpt lat="43.5035" lon="6.81066">
        <ele>464</ele>
        <time>2013-09-18T13:00:56.000Z</time>
      </trkpt>
      <trkpt lat="43.50355" lon="6.81069">
        <ele>463</ele>
        <time>2013-09-18T13:00:57.000Z</time>
      </trkpt>
      <trkpt lat="43.5036" lon="6.81073">
        <ele>462</ele>
        <time>2013-09-18T13:00:58.000Z</time>
      </trkpt>
      <trkpt lat="43.50365" lon="6.81078">
        <ele>461</ele>
        <time>2013-09-18T13:00:59.000Z</time>
      </trkpt>
      <trkpt lat="43.50369" lon="6.81083">
        <ele>460</ele>
        <time>2013-09-18T13:01:00.000Z</time>
      </trkpt>
      <trkpt lat="43.50373" lon="6.8109">
        <ele>476</ele>
        <time>2013-09-18T13:01:01.000Z</time>
      </trkpt>
      <trkpt lat="43.50377" lon="6.81096">
        <ele>476</ele>
        <time>2013-09-18T13:01:02.000Z</time>
      </trkpt>
      <trkpt lat="43.50381" lon="6.81103">
        <ele>476</ele>
        <time>2013-09-18T13:01:03.000Z</time>
      </trkpt>
      <trkpt lat="43.50384" lon="6.8111">
        <ele>476</ele>
        <time>2013-09-18T13:01:04.000Z</time>
      </trkpt>
      <trkpt lat="43.50387" lon="6.81117">
        <ele>476</ele>
        <time>2013-09-18T13:01:05.000Z</time>
      </trkpt>
      <trkpt lat="43.5039" lon="6.81123">
        <ele>477</ele>
        <time>2013-09-18T13:01:06.000Z</time>
      </trkpt>
      <trkpt lat="43.50392" lon="6.8113">
        <ele>477</ele>
        <time>2013-09-18T13:01:07.000Z</time>
      </trkpt>
      <trkpt lat="43.50393" lon="6.81136">
        <ele>477</ele>
        <time>2013-09-18T13:01:08.000Z</time>
      </trkpt>
      <trkpt lat="43.50395" lon="6.81144">
        <ele>478</ele>
        <time>2013-09-18T13:01:09.000Z</time>
      </trkpt>
      <trkpt lat="43.50396" lon="6.81151">
        <ele>478</ele>
        <time>2013-09-18T13:01:10.000Z</time>
      </trkpt>
      <trkpt lat="43.50397" lon="6.8116">
        <ele>477</ele>
        <time>2013-09-18T13:01:11.000Z</time>
      </trkpt>
      <trkpt lat="43.50399" lon="6.81169">
        <ele>484</ele>
        <time>2013-09-18T13:01:12.000Z</time>
      </trkpt>
      <trkpt lat="43.504" lon="6.81178">
        <ele>484</ele>
        <time>2013-09-18T13:01:13.000Z</time>
      </trkpt>
      <trkpt lat="43.50402" lon="6.81188">
        <ele>486</ele>
        <time>2013-09-18T13:01:14.000Z</time>
      </trkpt>
      <trkpt lat="43.50404" lon="6.81198">
        <ele>487</ele>
        <time>2013-09-18T13:01:15.000Z</time>
      </trkpt>
      <trkpt lat="43.50406" lon="6.81207">
        <ele>488</ele>
        <time>2013-09-18T13:01:16.000Z</time>
      </trkpt>
      <trkpt lat="43.50408" lon="6.81216">
        <ele>488</ele>
        <time>2013-09-18T13:01:17.000Z</time>
      </trkpt>
      <trkpt lat="43.5041" lon="6.81225">
        <ele>487</ele>
        <time>2013-09-18T13:01:18.000Z</time>
      </trkpt>
      <trkpt lat="43.50412" lon="6.81233">
        <ele>485</ele>
        <time>2013-09-18T13:01:19.000Z</time>
      </trkpt>
      <trkpt lat="43.50414" lon="6.81241">
        <ele>482</ele>
        <time>2013-09-18T13:01:20.000Z</time>
      </trkpt>
      <trkpt lat="43.50416" lon="6.8125">
        <ele>478</ele>
        <time>2013-09-18T13:01:21.000Z</time>
      </trkpt>
      <trkpt lat="43.50418" lon="6.81259">
        <ele>475</ele>
        <time>2013-09-18T13:01:22.000Z</time>
      </trkpt>
      <trkpt lat="43.5042" lon="6.81267">
        <ele>474</ele>
        <time>2013-09-18T13:01:23.000Z</time>
      </trkpt>
      <trkpt lat="43.50423" lon="6.81275">
        <ele>474</ele>
        <time>2013-09-18T13:01:24.000Z</time>
      </trkpt>
      <trkpt lat="43.50426" lon="6.81283">
        <ele>474</ele>
        <time>2013-09-18T13:01:25.000Z</time>
      </trkpt>
      <trkpt lat="43.50429" lon="6.81291">
        <ele>475</ele>
        <time>2013-09-18T13:01:26.000Z</time>
      </trkpt>
      <trkpt lat="43.50434" lon="6.81298">
        <ele>475</ele>
        <time>2013-09-18T13:01:27.000Z</time>
      </trkpt>
      <trkpt lat="43.50439" lon="6.81305">
        <ele>476</ele>
        <time>2013-09-18T13:01:28.000Z</time>
      </trkpt>
      <trkpt lat="43.50445" lon="6.81311">
        <ele>476</ele>
        <time>2013-09-18T13:01:29.000Z</time>
      </trkpt>
      <trkpt lat="43.50451" lon="6.81317">
        <ele>475</ele>
        <time>2013-09-18T13:01:30.000Z</time>
      </trkpt>
      <trkpt lat="43.50456" lon="6.81322">
        <ele>474</ele>
        <time>2013-09-18T13:01:31.000Z</time>
      </trkpt>
      <trkpt lat="43.50461" lon="6.81325">
        <ele>473</ele>
        <time>2013-09-18T13:01:32.000Z</time>
      </trkpt>
      <trkpt lat="43.50465" lon="6.81326">
        <ele>473</ele>
        <time>2013-09-18T13:01:33.000Z</time>
      </trkpt>
      <trkpt lat="43.50468" lon="6.81327">
        <ele>472</ele>
        <time>2013-09-18T13:01:34.000Z</time>
      </trkpt>
      <trkpt lat="43.50471" lon="6.81327">
        <ele>472</ele>
        <time>2013-09-18T13:01:35.000Z</time>
      </trkpt>
      <trkpt lat="43.50473" lon="6.81326">
        <ele>471</ele>
        <time>2013-09-18T13:01:36.000Z</time>
      </trkpt>
      <trkpt lat="43.50474" lon="6.81324">
        <ele>471</ele>
        <time>2013-09-18T13:01:37.000Z</time>
      </trkpt>
      <trkpt lat="43.50474" lon="6.81322">
        <ele>471</ele>
        <time>2013-09-18T13:01:38.000Z</time>
      </trkpt>
      <trkpt lat="43.50473" lon="6.81319">
        <ele>471</ele>
        <time>2013-09-18T13:01:39.000Z</time>
      </trkpt>
      <trkpt lat="43.5047" lon="6.81316">
        <ele>471</ele>
        <time>2013-09-18T13:01:40.000Z</time>
      </trkpt>
      <trkpt lat="43.50467" lon="6.81313">
        <ele>471</ele>
        <time>2013-09-18T13:01:41.000Z</time>
      </trkpt>
      <trkpt lat="43.50463" lon="6.81311">
        <ele>472</ele>
        <time>2013-09-18T13:01:42.000Z</time>
      </trkpt>
      <trkpt lat="43.50459" lon="6.81308">
        <ele>472</ele>
        <time>2013-09-18T13:01:43.000Z</time>
      </trkpt>
      <trkpt lat="43.50455" lon="6.81305">
        <ele>473</ele>
        <time>2013-09-18T13:01:44.000Z</time>
      </trkpt>
      <trkpt lat="43.50451" lon="6.813">
        <ele>473</ele>
        <time>2013-09-18T13:01:45.000Z</time>
      </trkpt>
      <trkpt lat="43.50448" lon="6.81296">
        <ele>473</ele>
        <time>2013-09-18T13:01:46.000Z</time>
      </trkpt>
      <trkpt lat="43.50445" lon="6.81291">
        <ele>473</ele>
        <time>2013-09-18T13:01:47.000Z</time>
      </trkpt>
      <trkpt lat="43.50442" lon="6.81286">
        <ele>472</ele>
        <time>2013-09-18T13:01:48.000Z</time>
      </trkpt>
      <trkpt lat="43.5044" lon="6.8128">
        <ele>472</ele>
        <time>2013-09-18T13:01:49.000Z</time>
      </trkpt>
      <trkpt lat="43.50439" lon="6.81274">
        <ele>472</ele>
        <time>2013-09-18T13:01:50.000Z</time>
      </trkpt>
      <trkpt lat="43.50438" lon="6.81268">
        <ele>472</ele>
        <time>2013-09-18T13:01:51.000Z</time>
      </trkpt>
      <trkpt lat="43.50437" lon="6.81261">
        <ele>472</ele>
        <time>2013-09-18T13:01:52.000Z</time>
      </trkpt>
      <trkpt lat="43.50436" lon="6.81253">
        <ele>472</ele>
        <time>2013-09-18T13:01:53.000Z</time>
      </trkpt>
      <trkpt lat="43.50436" lon="6.81246">
        <ele>464</ele>
        <time>2013-09-18T13:01:54.000Z</time>
      </trkpt>
      <trkpt lat="43.50436" lon="6.8123">
        <ele>462</ele>
        <time>2013-09-18T13:01:56.000Z</time>
      </trkpt>
      <trkpt lat="43.50437" lon="6.81222">
        <ele>460</ele>
        <time>2013-09-18T13:01:57.000Z</time>
      </trkpt>
      <trkpt lat="43.50438" lon="6.81214">
        <ele>459</ele>
        <time>2013-09-18T13:01:58.000Z</time>
      </trkpt>
      <trkpt lat="43.50438" lon="6.81205">
        <ele>458</ele>
        <time>2013-09-18T13:01:59.000Z</time>
      </trkpt>
      <trkpt lat="43.50438" lon="6.81195">
        <ele>458</ele>
        <time>2013-09-18T13:02:00.000Z</time>
      </trkpt>
      <trkpt lat="43.50438" lon="6.81187">
        <ele>459</ele>
        <time>2013-09-18T13:02:01.000Z</time>
      </trkpt>
      <trkpt lat="43.50438" lon="6.81178">
        <ele>460</ele>
        <time>2013-09-18T13:02:02.000Z</time>
      </trkpt>
      <trkpt lat="43.50437" lon="6.81152">
        <ele>451</ele>
        <time>2013-09-18T13:02:05.000Z</time>
      </trkpt>
      <trkpt lat="43.50437" lon="6.81144">
        <ele>449</ele>
        <time>2013-09-18T13:02:06.000Z</time>
      </trkpt>
      <trkpt lat="43.50437" lon="6.81135">
        <ele>447</ele>
        <time>2013-09-18T13:02:07.000Z</time>
      </trkpt>
      <trkpt lat="43.50437" lon="6.81128">
        <ele>446</ele>
        <time>2013-09-18T13:02:08.000Z</time>
      </trkpt>
      <trkpt lat="43.50436" lon="6.8112">
        <ele>445</ele>
        <time>2013-09-18T13:02:09.000Z</time>
      </trkpt>
      <trkpt lat="43.50436" lon="6.81112">
        <ele>445</ele>
        <time>2013-09-18T13:02:10.000Z</time>
      </trkpt>
      <trkpt lat="43.50435" lon="6.81104">
        <ele>446</ele>
        <time>2013-09-18T13:02:11.000Z</time>
      </trkpt>
      <trkpt lat="43.50434" lon="6.81095">
        <ele>447</ele>
        <time>2013-09-18T13:02:12.000Z</time>
      </trkpt>
      <trkpt lat="43.50432" lon="6.81087">
        <ele>448</ele>
        <time>2013-09-18T13:02:13.000Z</time>
      </trkpt>
      <trkpt lat="43.50431" lon="6.81079">
        <ele>439</ele>
        <time>2013-09-18T13:02:14.000Z</time>
      </trkpt>
      <trkpt lat="43.50429" lon="6.8107">
        <ele>437</ele>
        <time>2013-09-18T13:02:15.000Z</time>
      </trkpt>
      <trkpt lat="43.50426" lon="6.81061">
        <ele>433</ele>
        <time>2013-09-18T13:02:16.000Z</time>
      </trkpt>
      <trkpt lat="43.50424" lon="6.81053">
        <ele>430</ele>
        <time>2013-09-18T13:02:17.000Z</time>
      </trkpt>
      <trkpt lat="43.50421" lon="6.81045">
        <ele>428</ele>
        <time>2013-09-18T13:02:18.000Z</time>
      </trkpt>
      <trkpt lat="43.50418" lon="6.81039">
        <ele>426</ele>
        <time>2013-09-18T13:02:19.000Z</time>
      </trkpt>
      <trkpt lat="43.50416" lon="6.81033">
        <ele>446</ele>
        <time>2013-09-18T13:02:20.000Z</time>
      </trkpt>
      <trkpt lat="43.50414" lon="6.81027">
        <ele>444</ele>
        <time>2013-09-18T13:02:21.000Z</time>
      </trkpt>
      <trkpt lat="43.50412" lon="6.81022">
        <ele>442</ele>
        <time>2013-09-18T13:02:22.000Z</time>
      </trkpt>
      <trkpt lat="43.50409" lon="6.81017">
        <ele>440</ele>
        <time>2013-09-18T13:02:23.000Z</time>
      </trkpt>
      <trkpt lat="43.50405" lon="6.81013">
        <ele>439</ele>
        <time>2013-09-18T13:02:24.000Z</time>
      </trkpt>
      <trkpt lat="43.50401" lon="6.81008">
        <ele>439</ele>
        <time>2013-09-18T13:02:25.000Z</time>
      </trkpt>
      <trkpt lat="43.50397" lon="6.81003">
        <ele>440</ele>
        <time>2013-09-18T13:02:26.000Z</time>
      </trkpt>
      <trkpt lat="43.50392" lon="6.80998">
        <ele>423</ele>
        <time>2013-09-18T13:02:27.000Z</time>
      </trkpt>
      <trkpt lat="43.50388" lon="6.80993">
        <ele>423</ele>
        <time>2013-09-18T13:02:28.000Z</time>
      </trkpt>
      <trkpt lat="43.50383" lon="6.80988">
        <ele>423</ele>
        <time>2013-09-18T13:02:29.000Z</time>
      </trkpt>
      <trkpt lat="43.50378" lon="6.80984">
        <ele>423</ele>
        <time>2013-09-18T13:02:30.000Z</time>
      </trkpt>
      <trkpt lat="43.50373" lon="6.8098">
        <ele>423</ele>
        <time>2013-09-18T13:02:31.000Z</time>
      </trkpt>
      <trkpt lat="43.50368" lon="6.80976">
        <ele>423</ele>
        <time>2013-09-18T13:02:32.000Z</time>
      </trkpt>
      <trkpt lat="43.50362" lon="6.80972">
        <ele>423</ele>
        <time>2013-09-18T13:02:33.000Z</time>
      </trkpt>
      <trkpt lat="43.50357" lon="6.80968">
        <ele>423</ele>
        <time>2013-09-18T13:02:34.000Z</time>
      </trkpt>
      <trkpt lat="43.50351" lon="6.80965">
        <ele>423</ele>
        <time>2013-09-18T13:02:35.000Z</time>
      </trkpt>
      <trkpt lat="43.50346" lon="6.80962">
        <ele>423</ele>
        <time>2013-09-18T13:02:36.000Z</time>
      </trkpt>
      <trkpt lat="43.5034" lon="6.8096">
        <ele>422</ele>
        <time>2013-09-18T13:02:37.000Z</time>
      </trkpt>
      <trkpt lat="43.50334" lon="6.80958">
        <ele>422</ele>
        <time>2013-09-18T13:02:38.000Z</time>
      </trkpt>
      <trkpt lat="43.50328" lon="6.80957">
        <ele>424</ele>
        <time>2013-09-18T13:02:39.000Z</time>
      </trkpt>
      <trkpt lat="43.50321" lon="6.80956">
        <ele>424</ele>
        <time>2013-09-18T13:02:40.000Z</time>
      </trkpt>
      <trkpt lat="43.50315" lon="6.80955">
        <ele>424</ele>
        <time>2013-09-18T13:02:41.000Z</time>
      </trkpt>
      <trkpt lat="43.50303" lon="6.80955">
        <ele>423</ele>
        <time>2013-09-18T13:02:43.000Z</time>
      </trkpt>
      <trkpt lat="43.50297" lon="6.80956">
        <ele>423</ele>
        <time>2013-09-18T13:02:44.000Z</time>
      </trkpt>
      <trkpt lat="43.50291" lon="6.80957">
        <ele>423</ele>
        <time>2013-09-18T13:02:45.000Z</time>
      </trkpt>
      <trkpt lat="43.50284" lon="6.80958">
        <ele>423</ele>
        <time>2013-09-18T13:02:46.000Z</time>
      </trkpt>
      <trkpt lat="43.50278" lon="6.8096">
        <ele>423</ele>
        <time>2013-09-18T13:02:47.000Z</time>
      </trkpt>
      <trkpt lat="43.50272" lon="6.80961">
        <ele>423</ele>
        <time>2013-09-18T13:02:48.000Z</time>
      </trkpt>
      <trkpt lat="43.50266" lon="6.80963">
        <ele>424</ele>
        <time>2013-09-18T13:02:49.000Z</time>
      </trkpt>
      <trkpt lat="43.5026" lon="6.80964">
        <ele>424</ele>
        <time>2013-09-18T13:02:50.000Z</time>
      </trkpt>
      <trkpt lat="43.50253" lon="6.80966">
        <ele>424</ele>
        <time>2013-09-18T13:02:51.000Z</time>
      </trkpt>
      <trkpt lat="43.50247" lon="6.80968">
        <ele>418</ele>
        <time>2013-09-18T13:02:52.000Z</time>
      </trkpt>
      <trkpt lat="43.50241" lon="6.8097">
        <ele>418</ele>
        <time>2013-09-18T13:02:53.000Z</time>
      </trkpt>
      <trkpt lat="43.50234" lon="6.80972">
        <ele>418</ele>
        <time>2013-09-18T13:02:54.000Z</time>
      </trkpt>
      <trkpt lat="43.50228" lon="6.80974">
        <ele>417</ele>
        <time>2013-09-18T13:02:55.000Z</time>
      </trkpt>
      <trkpt lat="43.50221" lon="6.80976">
        <ele>417</ele>
        <time>2013-09-18T13:02:56.000Z</time>
      </trkpt>
      <trkpt lat="43.50213" lon="6.80978">
        <ele>416</ele>
        <time>2013-09-18T13:02:57.000Z</time>
      </trkpt>
      <trkpt lat="43.50206" lon="6.8098">
        <ele>415</ele>
        <time>2013-09-18T13:02:58.000Z</time>
      </trkpt>
      <trkpt lat="43.50199" lon="6.80982">
        <ele>415</ele>
        <time>2013-09-18T13:02:59.000Z</time>
      </trkpt>
      <trkpt lat="43.50192" lon="6.80984">
        <ele>415</ele>
        <time>2013-09-18T13:03:00.000Z</time>
      </trkpt>
      <trkpt lat="43.50184" lon="6.80986">
        <ele>415</ele>
        <time>2013-09-18T13:03:01.000Z</time>
      </trkpt>
      <trkpt lat="43.50176" lon="6.80988">
        <ele>416</ele>
        <time>2013-09-18T13:03:02.000Z</time>
      </trkpt>
      <trkpt lat="43.50169" lon="6.8099">
        <ele>416</ele>
        <time>2013-09-18T13:03:03.000Z</time>
      </trkpt>
      <trkpt lat="43.50161" lon="6.80992">
        <ele>412</ele>
        <time>2013-09-18T13:03:04.000Z</time>
      </trkpt>
      <trkpt lat="43.50154" lon="6.80994">
        <ele>409</ele>
        <time>2013-09-18T13:03:05.000Z</time>
      </trkpt>
      <trkpt lat="43.50146" lon="6.80997">
        <ele>407</ele>
        <time>2013-09-18T13:03:06.000Z</time>
      </trkpt>
      <trkpt lat="43.50138" lon="6.81">
        <ele>404</ele>
        <time>2013-09-18T13:03:07.000Z</time>
      </trkpt>
      <trkpt lat="43.5013" lon="6.81003">
        <ele>420</ele>
        <time>2013-09-18T13:03:08.000Z</time>
      </trkpt>
      <trkpt lat="43.50122" lon="6.81007">
        <ele>419</ele>
        <time>2013-09-18T13:03:09.000Z</time>
      </trkpt>
      <trkpt lat="43.50114" lon="6.81011">
        <ele>417</ele>
        <time>2013-09-18T13:03:10.000Z</time>
      </trkpt>
      <trkpt lat="43.50106" lon="6.81014">
        <ele>416</ele>
        <time>2013-09-18T13:03:11.000Z</time>
      </trkpt>
      <trkpt lat="43.50098" lon="6.81018">
        <ele>415</ele>
        <time>2013-09-18T13:03:12.000Z</time>
      </trkpt>
      <trkpt lat="43.50091" lon="6.81021">
        <ele>414</ele>
        <time>2013-09-18T13:03:13.000Z</time>
      </trkpt>
      <trkpt lat="43.50083" lon="6.81024">
        <ele>406</ele>
        <time>2013-09-18T13:03:14.000Z</time>
      </trkpt>
      <trkpt lat="43.50075" lon="6.81027">
        <ele>406</ele>
        <time>2013-09-18T13:03:15.000Z</time>
      </trkpt>
      <trkpt lat="43.50067" lon="6.8103">
        <ele>407</ele>
        <time>2013-09-18T13:03:16.000Z</time>
      </trkpt>
      <trkpt lat="43.5006" lon="6.81033">
        <ele>407</ele>
        <time>2013-09-18T13:03:17.000Z</time>
      </trkpt>
      <trkpt lat="43.50054" lon="6.81035">
        <ele>407</ele>
        <time>2013-09-18T13:03:18.000Z</time>
      </trkpt>
      <trkpt lat="43.50047" lon="6.81036">
        <ele>407</ele>
        <time>2013-09-18T13:03:19.000Z</time>
      </trkpt>
      <trkpt lat="43.50032" lon="6.81035">
        <ele>405</ele>
        <time>2013-09-18T13:03:21.000Z</time>
      </trkpt>
      <trkpt lat="43.50025" lon="6.81034">
        <ele>405</ele>
        <time>2013-09-18T13:03:22.000Z</time>
      </trkpt>
      <trkpt lat="43.50018" lon="6.81034">
        <ele>404</ele>
        <time>2013-09-18T13:03:23.000Z</time>
      </trkpt>
      <trkpt lat="43.50011" lon="6.81032">
        <ele>404</ele>
        <time>2013-09-18T13:03:24.000Z</time>
      </trkpt>
      <trkpt lat="43.50004" lon="6.8103">
        <ele>403</ele>
        <time>2013-09-18T13:03:25.000Z</time>
      </trkpt>
      <trkpt lat="43.49997" lon="6.81027">
        <ele>391</ele>
        <time>2013-09-18T13:03:26.000Z</time>
      </trkpt>
      <trkpt lat="43.4999" lon="6.81023">
        <ele>391</ele>
        <time>2013-09-18T13:03:27.000Z</time>
      </trkpt>
      <trkpt lat="43.49983" lon="6.81018">
        <ele>390</ele>
        <time>2013-09-18T13:03:28.000Z</time>
      </trkpt>
      <trkpt lat="43.49976" lon="6.81013">
        <ele>389</ele>
        <time>2013-09-18T13:03:29.000Z</time>
      </trkpt>
      <trkpt lat="43.49969" lon="6.81009">
        <ele>388</ele>
        <time>2013-09-18T13:03:30.000Z</time>
      </trkpt>
      <trkpt lat="43.49962" lon="6.81004">
        <ele>387</ele>
        <time>2013-09-18T13:03:31.000Z</time>
      </trkpt>
      <trkpt lat="43.49955" lon="6.80999">
        <ele>386</ele>
        <time>2013-09-18T13:03:32.000Z</time>
      </trkpt>
      <trkpt lat="43.49948" lon="6.80994">
        <ele>385</ele>
        <time>2013-09-18T13:03:33.000Z</time>
      </trkpt>
      <trkpt lat="43.49942" lon="6.80989">
        <ele>384</ele>
        <time>2013-09-18T13:03:34.000Z</time>
      </trkpt>
      <trkpt lat="43.49935" lon="6.80983">
        <ele>384</ele>
        <time>2013-09-18T13:03:35.000Z</time>
      </trkpt>
      <trkpt lat="43.49929" lon="6.80978">
        <ele>384</ele>
        <time>2013-09-18T13:03:36.000Z</time>
      </trkpt>
      <trkpt lat="43.49922" lon="6.80973">
        <ele>384</ele>
        <time>2013-09-18T13:03:37.000Z</time>
      </trkpt>
      <trkpt lat="43.49916" lon="6.80969">
        <ele>378</ele>
        <time>2013-09-18T13:03:38.000Z</time>
      </trkpt>
      <trkpt lat="43.4991" lon="6.80965">
        <ele>378</ele>
        <time>2013-09-18T13:03:39.000Z</time>
      </trkpt>
      <trkpt lat="43.49904" lon="6.80963">
        <ele>378</ele>
        <time>2013-09-18T13:03:40.000Z</time>
      </trkpt>
      <trkpt lat="43.49898" lon="6.8096">
        <ele>378</ele>
        <time>2013-09-18T13:03:41.000Z</time>
      </trkpt>
      <trkpt lat="43.49892" lon="6.80958">
        <ele>377</ele>
        <time>2013-09-18T13:03:42.000Z</time>
      </trkpt>
      <trkpt lat="43.49886" lon="6.80955">
        <ele>377</ele>
        <time>2013-09-18T13:03:43.000Z</time>
      </trkpt>
      <trkpt lat="43.49881" lon="6.80953">
        <ele>377</ele>
        <time>2013-09-18T13:03:44.000Z</time>
      </trkpt>
      <trkpt lat="43.49877" lon="6.80952">
        <ele>377</ele>
        <time>2013-09-18T13:03:45.000Z</time>
      </trkpt>
      <trkpt lat="43.49872" lon="6.8095">
        <ele>377</ele>
        <time>2013-09-18T13:03:46.000Z</time>
      </trkpt>
      <trkpt lat="43.49868" lon="6.80948">
        <ele>377</ele>
        <time>2013-09-18T13:03:47.000Z</time>
      </trkpt>
      <trkpt lat="43.49863" lon="6.80946">
        <ele>377</ele>
        <time>2013-09-18T13:03:48.000Z</time>
      </trkpt>
      <trkpt lat="43.49858" lon="6.80943">
        <ele>377</ele>
        <time>2013-09-18T13:03:49.000Z</time>
      </trkpt>
      <trkpt lat="43.49852" lon="6.80941">
        <ele>377</ele>
        <time>2013-09-18T13:03:50.000Z</time>
      </trkpt>
      <trkpt lat="43.49846" lon="6.80938">
        <ele>378</ele>
        <time>2013-09-18T13:03:51.000Z</time>
      </trkpt>
      <trkpt lat="43.4984" lon="6.80935">
        <ele>379</ele>
        <time>2013-09-18T13:03:52.000Z</time>
      </trkpt>
      <trkpt lat="43.49834" lon="6.80932">
        <ele>379</ele>
        <time>2013-09-18T13:03:53.000Z</time>
      </trkpt>
      <trkpt lat="43.49827" lon="6.80929">
        <ele>373</ele>
        <time>2013-09-18T13:03:54.000Z</time>
      </trkpt>
      <trkpt lat="43.49821" lon="6.80926">
        <ele>371</ele>
        <time>2013-09-18T13:03:55.000Z</time>
      </trkpt>
      <trkpt lat="43.49814" lon="6.80923">
        <ele>369</ele>
        <time>2013-09-18T13:03:56.000Z</time>
      </trkpt>
      <trkpt lat="43.49807" lon="6.80919">
        <ele>367</ele>
        <time>2013-09-18T13:03:57.000Z</time>
      </trkpt>
      <trkpt lat="43.498" lon="6.80916">
        <ele>377</ele>
        <time>2013-09-18T13:03:58.000Z</time>
      </trkpt>
      <trkpt lat="43.49793" lon="6.80912">
        <ele>376</ele>
        <time>2013-09-18T13:03:59.000Z</time>
      </trkpt>
      <trkpt lat="43.49787" lon="6.80908">
        <ele>375</ele>
        <time>2013-09-18T13:04:00.000Z</time>
      </trkpt>
      <trkpt lat="43.4978" lon="6.80904">
        <ele>374</ele>
        <time>2013-09-18T13:04:01.000Z</time>
      </trkpt>
      <trkpt lat="43.49775" lon="6.80901">
        <ele>373</ele>
        <time>2013-09-18T13:04:02.000Z</time>
      </trkpt>
      <trkpt lat="43.4977" lon="6.80898">
        <ele>372</ele>
        <time>2013-09-18T13:04:03.000Z</time>
      </trkpt>
      <trkpt lat="43.49766" lon="6.80895">
        <ele>372</ele>
        <time>2013-09-18T13:04:04.000Z</time>
      </trkpt>
      <trkpt lat="43.49762" lon="6.80891">
        <ele>372</ele>
        <time>2013-09-18T13:04:05.000Z</time>
      </trkpt>
      <trkpt lat="43.49759" lon="6.80886">
        <ele>373</ele>
        <time>2013-09-18T13:04:06.000Z</time>
      </trkpt>
      <trkpt lat="43.49756" lon="6.8088">
        <ele>374</ele>
        <time>2013-09-18T13:04:07.000Z</time>
      </trkpt>
      <trkpt lat="43.49753" lon="6.80874">
        <ele>374</ele>
        <time>2013-09-18T13:04:08.000Z</time>
      </trkpt>
      <trkpt lat="43.49751" lon="6.80867">
        <ele>375</ele>
        <time>2013-09-18T13:04:09.000Z</time>
      </trkpt>
      <trkpt lat="43.49749" lon="6.8086">
        <ele>361</ele>
        <time>2013-09-18T13:04:10.000Z</time>
      </trkpt>
      <trkpt lat="43.49747" lon="6.80852">
        <ele>363</ele>
        <time>2013-09-18T13:04:11.000Z</time>
      </trkpt>
      <trkpt lat="43.49745" lon="6.80845">
        <ele>366</ele>
        <time>2013-09-18T13:04:12.000Z</time>
      </trkpt>
      <trkpt lat="43.49743" lon="6.80838">
        <ele>369</ele>
        <time>2013-09-18T13:04:13.000Z</time>
      </trkpt>
      <trkpt lat="43.49742" lon="6.80831">
        <ele>372</ele>
        <time>2013-09-18T13:04:14.000Z</time>
      </trkpt>
      <trkpt lat="43.49742" lon="6.80824">
        <ele>370</ele>
        <time>2013-09-18T13:04:15.000Z</time>
      </trkpt>
      <trkpt lat="43.49742" lon="6.80818">
        <ele>369</ele>
        <time>2013-09-18T13:04:16.000Z</time>
      </trkpt>
      <trkpt lat="43.49741" lon="6.80812">
        <ele>368</ele>
        <time>2013-09-18T13:04:17.000Z</time>
      </trkpt>
      <trkpt lat="43.49741" lon="6.80806">
        <ele>367</ele>
        <time>2013-09-18T13:04:18.000Z</time>
      </trkpt>
      <trkpt lat="43.4974" lon="6.808">
        <ele>367</ele>
        <time>2013-09-18T13:04:19.000Z</time>
      </trkpt>
      <trkpt lat="43.4974" lon="6.80794">
        <ele>367</ele>
        <time>2013-09-18T13:04:20.000Z</time>
      </trkpt>
      <trkpt lat="43.4974" lon="6.80788">
        <ele>367</ele>
        <time>2013-09-18T13:04:21.000Z</time>
      </trkpt>
      <trkpt lat="43.49739" lon="6.80782">
        <ele>368</ele>
        <time>2013-09-18T13:04:22.000Z</time>
      </trkpt>
      <trkpt lat="43.49739" lon="6.80777">
        <ele>369</ele>
        <time>2013-09-18T13:04:23.000Z</time>
      </trkpt>
      <trkpt lat="43.49738" lon="6.80771">
        <ele>370</ele>
        <time>2013-09-18T13:04:24.000Z</time>
      </trkpt>
      <trkpt lat="43.49738" lon="6.80765">
        <ele>371</ele>
        <time>2013-09-18T13:04:25.000Z</time>
      </trkpt>
      <trkpt lat="43.49737" lon="6.8076">
        <ele>372</ele>
        <time>2013-09-18T13:04:26.000Z</time>
      </trkpt>
      <trkpt lat="43.49737" lon="6.80754">
        <ele>373</ele>
        <time>2013-09-18T13:04:27.000Z</time>
      </trkpt>
      <trkpt lat="43.49736" lon="6.80748">
        <ele>376</ele>
        <time>2013-09-18T13:04:28.000Z</time>
      </trkpt>
      <trkpt lat="43.49736" lon="6.80743">
        <ele>375</ele>
        <time>2013-09-18T13:04:29.000Z</time>
      </trkpt>
      <trkpt lat="43.49735" lon="6.80737">
        <ele>374</ele>
        <time>2013-09-18T13:04:30.000Z</time>
      </trkpt>
      <trkpt lat="43.49734" lon="6.80731">
        <ele>374</ele>
        <time>2013-09-18T13:04:31.000Z</time>
      </trkpt>
      <trkpt lat="43.49733" lon="6.80725">
        <ele>373</ele>
        <time>2013-09-18T13:04:32.000Z</time>
      </trkpt>
      <trkpt lat="43.49732" lon="6.8072">
        <ele>373</ele>
        <time>2013-09-18T13:04:33.000Z</time>
      </trkpt>
      <trkpt lat="43.49731" lon="6.80714">
        <ele>373</ele>
        <time>2013-09-18T13:04:34.000Z</time>
      </trkpt>
      <trkpt lat="43.4973" lon="6.80709">
        <ele>373</ele>
        <time>2013-09-18T13:04:35.000Z</time>
      </trkpt>
      <trkpt lat="43.4973" lon="6.80704">
        <ele>373</ele>
        <time>2013-09-18T13:04:36.000Z</time>
      </trkpt>
      <trkpt lat="43.49729" lon="6.80698">
        <ele>373</ele>
        <time>2013-09-18T13:04:37.000Z</time>
      </trkpt>
      <trkpt lat="43.49727" lon="6.80693">
        <ele>373</ele>
        <time>2013-09-18T13:04:38.000Z</time>
      </trkpt>
      <trkpt lat="43.49726" lon="6.80688">
        <ele>373</ele>
        <time>2013-09-18T13:04:39.000Z</time>
      </trkpt>
      <trkpt lat="43.49724" lon="6.80683">
        <ele>373</ele>
        <time>2013-09-18T13:04:40.000Z</time>
      </trkpt>
      <trkpt lat="43.49721" lon="6.80679">
        <ele>373</ele>
        <time>2013-09-18T13:04:41.000Z</time>
      </trkpt>
      <trkpt lat="43.49718" lon="6.80675">
        <ele>373</ele>
        <time>2013-09-18T13:04:42.000Z</time>
      </trkpt>
      <trkpt lat="43.49716" lon="6.80671">
        <ele>372</ele>
        <time>2013-09-18T13:04:43.000Z</time>
      </trkpt>
      <trkpt lat="43.49713" lon="6.80668">
        <ele>372</ele>
        <time>2013-09-18T13:04:44.000Z</time>
      </trkpt>
      <trkpt lat="43.49711" lon="6.80664">
        <ele>375</ele>
        <time>2013-09-18T13:04:45.000Z</time>
      </trkpt>
      <trkpt lat="43.49708" lon="6.80661">
        <ele>374</ele>
        <time>2013-09-18T13:04:46.000Z</time>
      </trkpt>
      <trkpt lat="43.49706" lon="6.80658">
        <ele>374</ele>
        <time>2013-09-18T13:04:47.000Z</time>
      </trkpt>
      <trkpt lat="43.49703" lon="6.80655">
        <ele>374</ele>
        <time>2013-09-18T13:04:48.000Z</time>
      </trkpt>
      <trkpt lat="43.497" lon="6.80652">
        <ele>373</ele>
        <time>2013-09-18T13:04:49.000Z</time>
      </trkpt>
      <trkpt lat="43.49698" lon="6.8065">
        <ele>373</ele>
        <time>2013-09-18T13:04:50.000Z</time>
      </trkpt>
      <trkpt lat="43.49696" lon="6.80647">
        <ele>373</ele>
        <time>2013-09-18T13:04:51.000Z</time>
      </trkpt>
      <trkpt lat="43.49694" lon="6.80645">
        <ele>373</ele>
        <time>2013-09-18T13:04:52.000Z</time>
      </trkpt>
      <trkpt lat="43.49692" lon="6.80643">
        <ele>373</ele>
        <time>2013-09-18T13:04:53.000Z</time>
      </trkpt>
      <trkpt lat="43.4969" lon="6.80642">
        <ele>373</ele>
        <time>2013-09-18T13:04:54.000Z</time>
      </trkpt>
      <trkpt lat="43.49687" lon="6.8064">
        <ele>372</ele>
        <time>2013-09-18T13:04:55.000Z</time>
      </trkpt>
      <trkpt lat="43.49685" lon="6.80638">
        <ele>372</ele>
        <time>2013-09-18T13:04:56.000Z</time>
      </trkpt>
      <trkpt lat="43.49683" lon="6.80635">
        <ele>372</ele>
        <time>2013-09-18T13:04:57.000Z</time>
      </trkpt>
      <trkpt lat="43.49681" lon="6.80631">
        <ele>372</ele>
        <time>2013-09-18T13:04:58.000Z</time>
      </trkpt>
      <trkpt lat="43.4968" lon="6.80628">
        <ele>372</ele>
        <time>2013-09-18T13:04:59.000Z</time>
      </trkpt>
      <trkpt lat="43.4968" lon="6.80624">
        <ele>372</ele>
        <time>2013-09-18T13:05:00.000Z</time>
      </trkpt>
      <trkpt lat="43.49681" lon="6.8062">
        <ele>372</ele>
        <time>2013-09-18T13:05:01.000Z</time>
      </trkpt>
      <trkpt lat="43.49682" lon="6.80616">
        <ele>372</ele>
        <time>2013-09-18T13:05:02.000Z</time>
      </trkpt>
      <trkpt lat="43.49683" lon="6.80613">
        <ele>372</ele>
        <time>2013-09-18T13:05:03.000Z</time>
      </trkpt>
      <trkpt lat="43.49685" lon="6.80609">
        <ele>372</ele>
        <time>2013-09-18T13:05:04.000Z</time>
      </trkpt>
      <trkpt lat="43.49688" lon="6.80606">
        <ele>373</ele>
        <time>2013-09-18T13:05:05.000Z</time>
      </trkpt>
      <trkpt lat="43.49691" lon="6.80603">
        <ele>373</ele>
        <time>2013-09-18T13:05:06.000Z</time>
      </trkpt>
      <trkpt lat="43.49693" lon="6.806">
        <ele>373</ele>
        <time>2013-09-18T13:05:07.000Z</time>
      </trkpt>
      <trkpt lat="43.49696" lon="6.80597">
        <ele>373</ele>
        <time>2013-09-18T13:05:08.000Z</time>
      </trkpt>
      <trkpt lat="43.49699" lon="6.80594">
        <ele>374</ele>
        <time>2013-09-18T13:05:09.000Z</time>
      </trkpt>
      <trkpt lat="43.49701" lon="6.80592">
        <ele>374</ele>
        <time>2013-09-18T13:05:10.000Z</time>
      </trkpt>
      <trkpt lat="43.49704" lon="6.80588">
        <ele>374</ele>
        <time>2013-09-18T13:05:11.000Z</time>
      </trkpt>
      <trkpt lat="43.49706" lon="6.80585">
        <ele>375</ele>
        <time>2013-09-18T13:05:12.000Z</time>
      </trkpt>
      <trkpt lat="43.49709" lon="6.80582">
        <ele>374</ele>
        <time>2013-09-18T13:05:13.000Z</time>
      </trkpt>
      <trkpt lat="43.49711" lon="6.80579">
        <ele>374</ele>
        <time>2013-09-18T13:05:14.000Z</time>
      </trkpt>
      <trkpt lat="43.49714" lon="6.80575">
        <ele>375</ele>
        <time>2013-09-18T13:05:15.000Z</time>
      </trkpt>
      <trkpt lat="43.49716" lon="6.80572">
        <ele>375</ele>
        <time>2013-09-18T13:05:16.000Z</time>
      </trkpt>
      <trkpt lat="43.49719" lon="6.80568">
        <ele>375</ele>
        <time>2013-09-18T13:05:17.000Z</time>
      </trkpt>
      <trkpt lat="43.49721" lon="6.80565">
        <ele>376</ele>
        <time>2013-09-18T13:05:18.000Z</time>
      </trkpt>
      <trkpt lat="43.49724" lon="6.80561">
        <ele>376</ele>
        <time>2013-09-18T13:05:19.000Z</time>
      </trkpt>
      <trkpt lat="43.49727" lon="6.80558">
        <ele>376</ele>
        <time>2013-09-18T13:05:20.000Z</time>
      </trkpt>
      <trkpt lat="43.49729" lon="6.80554">
        <ele>376</ele>
        <time>2013-09-18T13:05:21.000Z</time>
      </trkpt>
      <trkpt lat="43.49731" lon="6.8055">
        <ele>376</ele>
        <time>2013-09-18T13:05:22.000Z</time>
      </trkpt>
      <trkpt lat="43.49732" lon="6.80545">
        <ele>376</ele>
        <time>2013-09-18T13:05:23.000Z</time>
      </trkpt>
      <trkpt lat="43.49733" lon="6.80541">
        <ele>376</ele>
        <time>2013-09-18T13:05:24.000Z</time>
      </trkpt>
      <trkpt lat="43.49734" lon="6.80536">
        <ele>376</ele>
        <time>2013-09-18T13:05:25.000Z</time>
      </trkpt>
      <trkpt lat="43.49735" lon="6.80532">
        <ele>376</ele>
        <time>2013-09-18T13:05:26.000Z</time>
      </trkpt>
      <trkpt lat="43.49734" lon="6.80521">
        <ele>377</ele>
        <time>2013-09-18T13:05:28.000Z</time>
      </trkpt>
      <trkpt lat="43.49733" lon="6.80514">
        <ele>377</ele>
        <time>2013-09-18T13:05:29.000Z</time>
      </trkpt>
      <trkpt lat="43.49732" lon="6.80507">
        <ele>378</ele>
        <time>2013-09-18T13:05:30.000Z</time>
      </trkpt>
      <trkpt lat="43.49729" lon="6.805">
        <ele>378</ele>
        <time>2013-09-18T13:05:31.000Z</time>
      </trkpt>
      <trkpt lat="43.49727" lon="6.80492">
        <ele>377</ele>
        <time>2013-09-18T13:05:32.000Z</time>
      </trkpt>
      <trkpt lat="43.49724" lon="6.80483">
        <ele>376</ele>
        <time>2013-09-18T13:05:33.000Z</time>
      </trkpt>
      <trkpt lat="43.49721" lon="6.80475">
        <ele>376</ele>
        <time>2013-09-18T13:05:34.000Z</time>
      </trkpt>
      <trkpt lat="43.49718" lon="6.80465">
        <ele>375</ele>
        <time>2013-09-18T13:05:35.000Z</time>
      </trkpt>
      <trkpt lat="43.49714" lon="6.80456">
        <ele>375</ele>
        <time>2013-09-18T13:05:36.000Z</time>
      </trkpt>
      <trkpt lat="43.49711" lon="6.80447">
        <ele>375</ele>
        <time>2013-09-18T13:05:37.000Z</time>
      </trkpt>
      <trkpt lat="43.49707" lon="6.80438">
        <ele>374</ele>
        <time>2013-09-18T13:05:38.000Z</time>
      </trkpt>
      <trkpt lat="43.49702" lon="6.8043">
        <ele>374</ele>
        <time>2013-09-18T13:05:39.000Z</time>
      </trkpt>
      <trkpt lat="43.49697" lon="6.80423">
        <ele>372</ele>
        <time>2013-09-18T13:05:40.000Z</time>
      </trkpt>
      <trkpt lat="43.49691" lon="6.80416">
        <ele>375</ele>
        <time>2013-09-18T13:05:41.000Z</time>
      </trkpt>
      <trkpt lat="43.49684" lon="6.80409">
        <ele>374</ele>
        <time>2013-09-18T13:05:42.000Z</time>
      </trkpt>
      <trkpt lat="43.49678" lon="6.80403">
        <ele>373</ele>
        <time>2013-09-18T13:05:43.000Z</time>
      </trkpt>
      <trkpt lat="43.49672" lon="6.80397">
        <ele>373</ele>
        <time>2013-09-18T13:05:44.000Z</time>
      </trkpt>
      <trkpt lat="43.49667" lon="6.80391">
        <ele>375</ele>
        <time>2013-09-18T13:05:45.000Z</time>
      </trkpt>
      <trkpt lat="43.49662" lon="6.80384">
        <ele>357</ele>
        <time>2013-09-18T13:05:46.000Z</time>
      </trkpt>
      <trkpt lat="43.49659" lon="6.80377">
        <ele>357</ele>
        <time>2013-09-18T13:05:47.000Z</time>
      </trkpt>
      <trkpt lat="43.49655" lon="6.80368">
        <ele>357</ele>
        <time>2013-09-18T13:05:48.000Z</time>
      </trkpt>
      <trkpt lat="43.49653" lon="6.80359">
        <ele>359</ele>
        <time>2013-09-18T13:05:49.000Z</time>
      </trkpt>
      <trkpt lat="43.49652" lon="6.8035">
        <ele>361</ele>
        <time>2013-09-18T13:05:50.000Z</time>
      </trkpt>
      <trkpt lat="43.49651" lon="6.80339">
        <ele>363</ele>
        <time>2013-09-18T13:05:51.000Z</time>
      </trkpt>
      <trkpt lat="43.49651" lon="6.80318">
        <ele>366</ele>
        <time>2013-09-18T13:05:53.000Z</time>
      </trkpt>
      <trkpt lat="43.49649" lon="6.80308">
        <ele>365</ele>
        <time>2013-09-18T13:05:54.000Z</time>
      </trkpt>
      <trkpt lat="43.49645" lon="6.80298">
        <ele>364</ele>
        <time>2013-09-18T13:05:55.000Z</time>
      </trkpt>
      <trkpt lat="43.49639" lon="6.80289">
        <ele>363</ele>
        <time>2013-09-18T13:05:56.000Z</time>
      </trkpt>
      <trkpt lat="43.49633" lon="6.80281">
        <ele>363</ele>
        <time>2013-09-18T13:05:57.000Z</time>
      </trkpt>
      <trkpt lat="43.49627" lon="6.80273">
        <ele>362</ele>
        <time>2013-09-18T13:05:58.000Z</time>
      </trkpt>
      <trkpt lat="43.49621" lon="6.80265">
        <ele>361</ele>
        <time>2013-09-18T13:05:59.000Z</time>
      </trkpt>
      <trkpt lat="43.49616" lon="6.80258">
        <ele>361</ele>
        <time>2013-09-18T13:06:00.000Z</time>
      </trkpt>
      <trkpt lat="43.49611" lon="6.8025">
        <ele>360</ele>
        <time>2013-09-18T13:06:01.000Z</time>
      </trkpt>
      <trkpt lat="43.49606" lon="6.80243">
        <ele>361</ele>
        <time>2013-09-18T13:06:02.000Z</time>
      </trkpt>
      <trkpt lat="43.49602" lon="6.80235">
        <ele>361</ele>
        <time>2013-09-18T13:06:03.000Z</time>
      </trkpt>
      <trkpt lat="43.49598" lon="6.80227">
        <ele>361</ele>
        <time>2013-09-18T13:06:04.000Z</time>
      </trkpt>
      <trkpt lat="43.49595" lon="6.80219">
        <ele>362</ele>
        <time>2013-09-18T13:06:05.000Z</time>
      </trkpt>
      <trkpt lat="43.49592" lon="6.80211">
        <ele>362</ele>
        <time>2013-09-18T13:06:06.000Z</time>
      </trkpt>
      <trkpt lat="43.49589" lon="6.80205">
        <ele>362</ele>
        <time>2013-09-18T13:06:07.000Z</time>
      </trkpt>
      <trkpt lat="43.49587" lon="6.80198">
        <ele>362</ele>
        <time>2013-09-18T13:06:08.000Z</time>
      </trkpt>
      <trkpt lat="43.49584" lon="6.80193">
        <ele>362</ele>
        <time>2013-09-18T13:06:09.000Z</time>
      </trkpt>
      <trkpt lat="43.49582" lon="6.80187">
        <ele>358</ele>
        <time>2013-09-18T13:06:10.000Z</time>
      </trkpt>
      <trkpt lat="43.4958" lon="6.80182">
        <ele>359</ele>
        <time>2013-09-18T13:06:11.000Z</time>
      </trkpt>
      <trkpt lat="43.49578" lon="6.80178">
        <ele>359</ele>
        <time>2013-09-18T13:06:12.000Z</time>
      </trkpt>
      <trkpt lat="43.49576" lon="6.80173">
        <ele>359</ele>
        <time>2013-09-18T13:06:13.000Z</time>
      </trkpt>
      <trkpt lat="43.49573" lon="6.8017">
        <ele>360</ele>
        <time>2013-09-18T13:06:14.000Z</time>
      </trkpt>
      <trkpt lat="43.49571" lon="6.80166">
        <ele>360</ele>
        <time>2013-09-18T13:06:15.000Z</time>
      </trkpt>
      <trkpt lat="43.49568" lon="6.80164">
        <ele>360</ele>
        <time>2013-09-18T13:06:16.000Z</time>
      </trkpt>
      <trkpt lat="43.49564" lon="6.80163">
        <ele>360</ele>
        <time>2013-09-18T13:06:17.000Z</time>
      </trkpt>
      <trkpt lat="43.49562" lon="6.80163">
        <ele>360</ele>
        <time>2013-09-18T13:06:18.000Z</time>
      </trkpt>
      <trkpt lat="43.49561" lon="6.80163">
        <ele>360</ele>
        <time>2013-09-18T13:06:19.000Z</time>
      </trkpt>
      <trkpt lat="43.4956" lon="6.80163">
        <ele>360</ele>
        <time>2013-09-18T13:06:20.000Z</time>
      </trkpt>
      <trkpt lat="43.4956" lon="6.80163">
        <ele>360</ele>
        <time>2013-09-18T13:06:22.000Z</time>
      </trkpt>
      <trkpt lat="43.4956" lon="6.80164">
        <ele>360</ele>
        <time>2013-09-18T13:06:37.000Z</time>
      </trkpt>
      <trkpt lat="43.4956" lon="6.80164">
        <ele>360</ele>
        <time>2013-09-18T13:06:45.000Z</time>
      </trkpt>
      <trkpt lat="43.49561" lon="6.80164">
        <ele>360</ele>
        <time>2013-09-18T13:06:48.000Z</time>
      </trkpt>
      <trkpt lat="43.4956" lon="6.80165">
        <ele>360</ele>
        <time>2013-09-18T13:06:50.000Z</time>
      </trkpt>
      <trkpt lat="43.4956" lon="6.80166">
        <ele>360</ele>
        <time>2013-09-18T13:06:51.000Z</time>
      </trkpt>
      <trkpt lat="43.49559" lon="6.80166">
        <ele>360</ele>
        <time>2013-09-18T13:06:52.000Z</time>
      </trkpt>
      <trkpt lat="43.49558" lon="6.80182">
        <ele>358</ele>
        <time>2013-09-18T13:06:53.000Z</time>
      </trkpt>
      <trkpt lat="43.49558" lon="6.80181">
        <ele>358</ele>
        <time>2013-09-18T13:06:55.000Z</time>
      </trkpt>
      <trkpt lat="43.49559" lon="6.80181">
        <ele>358</ele>
        <time>2013-09-18T13:06:56.000Z</time>
      </trkpt>
      <trkpt lat="43.49559" lon="6.8018">
        <ele>358</ele>
        <time>2013-09-18T13:06:58.000Z</time>
      </trkpt>
      <trkpt lat="43.49559" lon="6.8018">
        <ele>358</ele>
        <time>2013-09-18T13:06:59.000Z</time>
      </trkpt>
      <trkpt lat="43.49558" lon="6.8018">
        <ele>358</ele>
        <time>2013-09-18T13:07:00.000Z</time>
      </trkpt>
      <trkpt lat="43.49558" lon="6.8018">
        <ele>358</ele>
        <time>2013-09-18T13:07:01.000Z</time>
      </trkpt>
      <trkpt lat="43.49557" lon="6.8018">
        <ele>358</ele>
        <time>2013-09-18T13:07:03.000Z</time>
      </trkpt>
      <trkpt lat="43.49557" lon="6.80179">
        <ele>358</ele>
        <time>2013-09-18T13:07:04.000Z</time>
      </trkpt>
      <trkpt lat="43.49557" lon="6.80179">
        <ele>358</ele>
        <time>2013-09-18T13:07:05.000Z</time>
      </trkpt>
      <trkpt lat="43.49557" lon="6.80179">
        <ele>358</ele>
        <time>2013-09-18T13:07:06.000Z</time>
      </trkpt>
      <trkpt lat="43.49556" lon="6.80178">
        <ele>358</ele>
        <time>2013-09-18T13:07:07.000Z</time>
      </trkpt>
      <trkpt lat="43.49556" lon="6.80178">
        <ele>358</ele>
        <time>2013-09-18T13:07:08.000Z</time>
      </trkpt>
      <trkpt lat="43.49556" lon="6.80178">
        <ele>358</ele>
        <time>2013-09-18T13:07:09.000Z</time>
      </trkpt>
      <trkpt lat="43.49555" lon="6.80178">
        <ele>358</ele>
        <time>2013-09-18T13:07:11.000Z</time>
      </trkpt>
      <trkpt lat="43.49555" lon="6.80178">
        <ele>358</ele>
        <time>2013-09-18T13:07:12.000Z</time>
      </trkpt>
      <trkpt lat="43.49554" lon="6.80178">
        <ele>358</ele>
        <time>2013-09-18T13:07:13.000Z</time>
      </trkpt>
      <trkpt lat="43.49553" lon="6.80179">
        <ele>358</ele>
        <time>2013-09-18T13:07:14.000Z</time>
      </trkpt>
      <trkpt lat="43.49552" lon="6.8018">
        <ele>358</ele>
        <time>2013-09-18T13:07:15.000Z</time>
      </trkpt>
      <trkpt lat="43.4955" lon="6.80182">
        <ele>358</ele>
        <time>2013-09-18T13:07:16.000Z</time>
      </trkpt>
      <trkpt lat="43.49547" lon="6.80183">
        <ele>358</ele>
        <time>2013-09-18T13:07:17.000Z</time>
      </trkpt>
      <trkpt lat="43.49544" lon="6.80184">
        <ele>358</ele>
        <time>2013-09-18T13:07:18.000Z</time>
      </trkpt>
      <trkpt lat="43.49542" lon="6.80184">
        <ele>358</ele>
        <time>2013-09-18T13:07:19.000Z</time>
      </trkpt>
      <trkpt lat="43.4954" lon="6.80185">
        <ele>358</ele>
        <time>2013-09-18T13:07:20.000Z</time>
      </trkpt>
      <trkpt lat="43.49539" lon="6.80186">
        <ele>358</ele>
        <time>2013-09-18T13:07:21.000Z</time>
      </trkpt>
      <trkpt lat="43.49538" lon="6.80186">
        <ele>358</ele>
        <time>2013-09-18T13:07:22.000Z</time>
      </trkpt>
      <trkpt lat="43.49538" lon="6.80186">
        <ele>358</ele>
        <time>2013-09-18T13:07:23.000Z</time>
      </trkpt>
      <trkpt lat="43.49538" lon="6.80185">
        <ele>358</ele>
        <time>2013-09-18T13:07:24.000Z</time>
      </trkpt>
      <trkpt lat="43.49537" lon="6.80184">
        <ele>358</ele>
        <time>2013-09-18T13:07:25.000Z</time>
      </trkpt>
      <trkpt lat="43.49537" lon="6.80184">
        <ele>358</ele>
        <time>2013-09-18T13:07:26.000Z</time>
      </trkpt>
      <trkpt lat="43.49537" lon="6.80183">
        <ele>358</ele>
        <time>2013-09-18T13:07:27.000Z</time>
      </trkpt>
      <trkpt lat="43.49537" lon="6.80182">
        <ele>358</ele>
        <time>2013-09-18T13:07:43.000Z</time>
      </trkpt>
      <trkpt lat="43.49537" lon="6.80181">
        <ele>358</ele>
        <time>2013-09-18T13:07:46.000Z</time>
      </trkpt>
      <trkpt lat="43.49537" lon="6.80181">
        <ele>358</ele>
        <time>2013-09-18T13:07:48.000Z</time>
      </trkpt>
      <trkpt lat="43.49537" lon="6.80181">
        <ele>358</ele>
        <time>2013-09-18T13:07:50.000Z</time>
      </trkpt>
      <trkpt lat="43.49537" lon="6.80181">
        <ele>358</ele>
        <time>2013-09-18T13:07:52.000Z</time>
      </trkpt>
      <trkpt lat="43.49537" lon="6.80181">
        <ele>358</ele>
        <time>2013-09-18T13:07:53.000Z</time>
      </trkpt>
      <trkpt lat="43.49536" lon="6.80181">
        <ele>358</ele>
        <time>2013-09-18T13:07:56.000Z</time>
      </trkpt>
      <trkpt lat="43.49536" lon="6.80181">
        <ele>358</ele>
        <time>2013-09-18T13:07:58.000Z</time>
      </trkpt>
      <trkpt lat="43.49536" lon="6.80181">
        <ele>358</ele>
        <time>2013-09-18T13:08:01.000Z</time>
      </trkpt>
      <trkpt lat="43.49536" lon="6.80181">
        <ele>358</ele>
        <time>2013-09-18T13:08:04.000Z</time>
      </trkpt>
      <trkpt lat="43.49535" lon="6.80181">
        <ele>358</ele>
        <time>2013-09-18T13:08:07.000Z</time>
      </trkpt>
      <trkpt lat="43.49535" lon="6.80181">
        <ele>358</ele>
        <time>2013-09-18T13:08:08.000Z</time>
      </trkpt>
      <trkpt lat="43.49534" lon="6.80181">
        <ele>358</ele>
        <time>2013-09-18T13:08:09.000Z</time>
      </trkpt>
      <trkpt lat="43.49533" lon="6.80182">
        <ele>358</ele>
        <time>2013-09-18T13:08:10.000Z</time>
      </trkpt>
      <trkpt lat="43.49531" lon="6.80183">
        <ele>358</ele>
        <time>2013-09-18T13:08:11.000Z</time>
      </trkpt>
      <trkpt lat="43.49528" lon="6.80185">
        <ele>358</ele>
        <time>2013-09-18T13:08:12.000Z</time>
      </trkpt>
      <trkpt lat="43.49526" lon="6.80186">
        <ele>358</ele>
        <time>2013-09-18T13:08:13.000Z</time>
      </trkpt>
      <trkpt lat="43.49523" lon="6.80187">
        <ele>358</ele>
        <time>2013-09-18T13:08:14.000Z</time>
      </trkpt>
      <trkpt lat="43.4952" lon="6.80189">
        <ele>358</ele>
        <time>2013-09-18T13:08:15.000Z</time>
      </trkpt>
      <trkpt lat="43.49516" lon="6.8019">
        <ele>358</ele>
        <time>2013-09-18T13:08:16.000Z</time>
      </trkpt>
      <trkpt lat="43.49513" lon="6.80191">
        <ele>358</ele>
        <time>2013-09-18T13:08:17.000Z</time>
      </trkpt>
      <trkpt lat="43.49509" lon="6.80192">
        <ele>358</ele>
        <time>2013-09-18T13:08:18.000Z</time>
      </trkpt>
      <trkpt lat="43.49505" lon="6.80193">
        <ele>358</ele>
        <time>2013-09-18T13:08:19.000Z</time>
      </trkpt>
      <trkpt lat="43.495" lon="6.80195">
        <ele>358</ele>
        <time>2013-09-18T13:08:20.000Z</time>
      </trkpt>
      <trkpt lat="43.49496" lon="6.80196">
        <ele>352</ele>
        <time>2013-09-18T13:08:21.000Z</time>
      </trkpt>
      <trkpt lat="43.49491" lon="6.80198">
        <ele>351</ele>
        <time>2013-09-18T13:08:22.000Z</time>
      </trkpt>
      <trkpt lat="43.49486" lon="6.80199">
        <ele>351</ele>
        <time>2013-09-18T13:08:23.000Z</time>
      </trkpt>
      <trkpt lat="43.49481" lon="6.802">
        <ele>350</ele>
        <time>2013-09-18T13:08:24.000Z</time>
      </trkpt>
      <trkpt lat="43.49476" lon="6.80201">
        <ele>350</ele>
        <time>2013-09-18T13:08:25.000Z</time>
      </trkpt>
      <trkpt lat="43.49471" lon="6.80201">
        <ele>349</ele>
        <time>2013-09-18T13:08:26.000Z</time>
      </trkpt>
      <trkpt lat="43.49466" lon="6.80202">
        <ele>348</ele>
        <time>2013-09-18T13:08:27.000Z</time>
      </trkpt>
      <trkpt lat="43.49462" lon="6.80202">
        <ele>348</ele>
        <time>2013-09-18T13:08:28.000Z</time>
      </trkpt>
      <trkpt lat="43.49457" lon="6.80201">
        <ele>348</ele>
        <time>2013-09-18T13:08:29.000Z</time>
      </trkpt>
      <trkpt lat="43.49453" lon="6.802">
        <ele>348</ele>
        <time>2013-09-18T13:08:30.000Z</time>
      </trkpt>
      <trkpt lat="43.49449" lon="6.80197">
        <ele>348</ele>
        <time>2013-09-18T13:08:31.000Z</time>
      </trkpt>
      <trkpt lat="43.49445" lon="6.80195">
        <ele>348</ele>
        <time>2013-09-18T13:08:32.000Z</time>
      </trkpt>
      <trkpt lat="43.49442" lon="6.80192">
        <ele>348</ele>
        <time>2013-09-18T13:08:33.000Z</time>
      </trkpt>
      <trkpt lat="43.4944" lon="6.80188">
        <ele>348</ele>
        <time>2013-09-18T13:08:34.000Z</time>
      </trkpt>
      <trkpt lat="43.49437" lon="6.80185">
        <ele>348</ele>
        <time>2013-09-18T13:08:35.000Z</time>
      </trkpt>
      <trkpt lat="43.49435" lon="6.80181">
        <ele>348</ele>
        <time>2013-09-18T13:08:36.000Z</time>
      </trkpt>
      <trkpt lat="43.49433" lon="6.80178">
        <ele>349</ele>
        <time>2013-09-18T13:08:37.000Z</time>
      </trkpt>
      <trkpt lat="43.49431" lon="6.80175">
        <ele>349</ele>
        <time>2013-09-18T13:08:38.000Z</time>
      </trkpt>
      <trkpt lat="43.4943" lon="6.80172">
        <ele>349</ele>
        <time>2013-09-18T13:08:39.000Z</time>
      </trkpt>
      <trkpt lat="43.49429" lon="6.80169">
        <ele>349</ele>
        <time>2013-09-18T13:08:40.000Z</time>
      </trkpt>
      <trkpt lat="43.49428" lon="6.80166">
        <ele>353</ele>
        <time>2013-09-18T13:08:41.000Z</time>
      </trkpt>
      <trkpt lat="43.49427" lon="6.80163">
        <ele>353</ele>
        <time>2013-09-18T13:08:42.000Z</time>
      </trkpt>
      <trkpt lat="43.49427" lon="6.8016">
        <ele>354</ele>
        <time>2013-09-18T13:08:43.000Z</time>
      </trkpt>
      <trkpt lat="43.49426" lon="6.80157">
        <ele>354</ele>
        <time>2013-09-18T13:08:44.000Z</time>
      </trkpt>
      <trkpt lat="43.49426" lon="6.80155">
        <ele>354</ele>
        <time>2013-09-18T13:08:45.000Z</time>
      </trkpt>
      <trkpt lat="43.49426" lon="6.80152">
        <ele>355</ele>
        <time>2013-09-18T13:08:46.000Z</time>
      </trkpt>
      <trkpt lat="43.49426" lon="6.80146">
        <ele>355</ele>
        <time>2013-09-18T13:08:48.000Z</time>
      </trkpt>
      <trkpt lat="43.49426" lon="6.80141">
        <ele>356</ele>
        <time>2013-09-18T13:08:50.000Z</time>
      </trkpt>
      <trkpt lat="43.49426" lon="6.80138">
        <ele>356</ele>
        <time>2013-09-18T13:08:51.000Z</time>
      </trkpt>
      <trkpt lat="43.49426" lon="6.80136">
        <ele>356</ele>
        <time>2013-09-18T13:08:52.000Z</time>
      </trkpt>
      <trkpt lat="43.49427" lon="6.80133">
        <ele>357</ele>
        <time>2013-09-18T13:08:53.000Z</time>
      </trkpt>
      <trkpt lat="43.49427" lon="6.80131">
        <ele>357</ele>
        <time>2013-09-18T13:08:54.000Z</time>
      </trkpt>
      <trkpt lat="43.49428" lon="6.80128">
        <ele>357</ele>
        <time>2013-09-18T13:08:55.000Z</time>
      </trkpt>
      <trkpt lat="43.49428" lon="6.80125">
        <ele>357</ele>
        <time>2013-09-18T13:08:56.000Z</time>
      </trkpt>
      <trkpt lat="43.49428" lon="6.80123">
        <ele>357</ele>
        <time>2013-09-18T13:08:57.000Z</time>
      </trkpt>
      <trkpt lat="43.49429" lon="6.8012">
        <ele>358</ele>
        <time>2013-09-18T13:08:58.000Z</time>
      </trkpt>
      <trkpt lat="43.49429" lon="6.80118">
        <ele>358</ele>
        <time>2013-09-18T13:08:59.000Z</time>
      </trkpt>
      <trkpt lat="43.4943" lon="6.80115">
        <ele>358</ele>
        <time>2013-09-18T13:09:00.000Z</time>
      </trkpt>
      <trkpt lat="43.49431" lon="6.80113">
        <ele>358</ele>
        <time>2013-09-18T13:09:01.000Z</time>
      </trkpt>
      <trkpt lat="43.49431" lon="6.80111">
        <ele>358</ele>
        <time>2013-09-18T13:09:02.000Z</time>
      </trkpt>
      <trkpt lat="43.49432" lon="6.80108">
        <ele>358</ele>
        <time>2013-09-18T13:09:03.000Z</time>
      </trkpt>
      <trkpt lat="43.49432" lon="6.80105">
        <ele>358</ele>
        <time>2013-09-18T13:09:04.000Z</time>
      </trkpt>
      <trkpt lat="43.49432" lon="6.80103">
        <ele>358</ele>
        <time>2013-09-18T13:09:05.000Z</time>
      </trkpt>
      <trkpt lat="43.49433" lon="6.801">
        <ele>358</ele>
        <time>2013-09-18T13:09:06.000Z</time>
      </trkpt>
      <trkpt lat="43.49433" lon="6.80097">
        <ele>358</ele>
        <time>2013-09-18T13:09:07.000Z</time>
      </trkpt>
      <trkpt lat="43.49434" lon="6.80094">
        <ele>358</ele>
        <time>2013-09-18T13:09:08.000Z</time>
      </trkpt>
      <trkpt lat="43.49434" lon="6.80092">
        <ele>358</ele>
        <time>2013-09-18T13:09:09.000Z</time>
      </trkpt>
      <trkpt lat="43.49434" lon="6.80089">
        <ele>358</ele>
        <time>2013-09-18T13:09:10.000Z</time>
      </trkpt>
      <trkpt lat="43.49435" lon="6.80086">
        <ele>358</ele>
        <time>2013-09-18T13:09:11.000Z</time>
      </trkpt>
      <trkpt lat="43.49435" lon="6.80084">
        <ele>358</ele>
        <time>2013-09-18T13:09:12.000Z</time>
      </trkpt>
      <trkpt lat="43.49435" lon="6.80081">
        <ele>359</ele>
        <time>2013-09-18T13:09:13.000Z</time>
      </trkpt>
      <trkpt lat="43.49435" lon="6.8007">
        <ele>359</ele>
        <time>2013-09-18T13:09:17.000Z</time>
      </trkpt>
      <trkpt lat="43.49434" lon="6.80068">
        <ele>359</ele>
        <time>2013-09-18T13:09:18.000Z</time>
      </trkpt>
      <trkpt lat="43.49434" lon="6.80065">
        <ele>359</ele>
        <time>2013-09-18T13:09:19.000Z</time>
      </trkpt>
      <trkpt lat="43.49434" lon="6.80063">
        <ele>359</ele>
        <time>2013-09-18T13:09:20.000Z</time>
      </trkpt>
      <trkpt lat="43.49434" lon="6.8006">
        <ele>359</ele>
        <time>2013-09-18T13:09:21.000Z</time>
      </trkpt>
      <trkpt lat="43.49434" lon="6.80057">
        <ele>359</ele>
        <time>2013-09-18T13:09:22.000Z</time>
      </trkpt>
      <trkpt lat="43.49434" lon="6.80054">
        <ele>359</ele>
        <time>2013-09-18T13:09:23.000Z</time>
      </trkpt>
      <trkpt lat="43.49433" lon="6.80051">
        <ele>359</ele>
        <time>2013-09-18T13:09:24.000Z</time>
      </trkpt>
      <trkpt lat="43.49433" lon="6.80047">
        <ele>359</ele>
        <time>2013-09-18T13:09:25.000Z</time>
      </trkpt>
      <trkpt lat="43.49433" lon="6.80043">
        <ele>359</ele>
        <time>2013-09-18T13:09:26.000Z</time>
      </trkpt>
      <trkpt lat="43.49433" lon="6.80035">
        <ele>360</ele>
        <time>2013-09-18T13:09:28.000Z</time>
      </trkpt>
      <trkpt lat="43.49432" lon="6.80031">
        <ele>360</ele>
        <time>2013-09-18T13:09:29.000Z</time>
      </trkpt>
      <trkpt lat="43.49432" lon="6.80023">
        <ele>361</ele>
        <time>2013-09-18T13:09:31.000Z</time>
      </trkpt>
      <trkpt lat="43.49431" lon="6.80019">
        <ele>361</ele>
        <time>2013-09-18T13:09:32.000Z</time>
      </trkpt>
      <trkpt lat="43.49431" lon="6.80015">
        <ele>361</ele>
        <time>2013-09-18T13:09:33.000Z</time>
      </trkpt>
      <trkpt lat="43.49431" lon="6.80002">
        <ele>363</ele>
        <time>2013-09-18T13:09:36.000Z</time>
      </trkpt>
      <trkpt lat="43.49432" lon="6.79997">
        <ele>363</ele>
        <time>2013-09-18T13:09:37.000Z</time>
      </trkpt>
      <trkpt lat="43.49432" lon="6.79992">
        <ele>363</ele>
        <time>2013-09-18T13:09:38.000Z</time>
      </trkpt>
      <trkpt lat="43.49433" lon="6.79988">
        <ele>362</ele>
        <time>2013-09-18T13:09:39.000Z</time>
      </trkpt>
      <trkpt lat="43.49434" lon="6.79983">
        <ele>362</ele>
        <time>2013-09-18T13:09:40.000Z</time>
      </trkpt>
      <trkpt lat="43.49436" lon="6.79978">
        <ele>362</ele>
        <time>2013-09-18T13:09:41.000Z</time>
      </trkpt>
      <trkpt lat="43.49437" lon="6.79972">
        <ele>361</ele>
        <time>2013-09-18T13:09:42.000Z</time>
      </trkpt>
      <trkpt lat="43.49439" lon="6.79967">
        <ele>361</ele>
        <time>2013-09-18T13:09:43.000Z</time>
      </trkpt>
      <trkpt lat="43.49442" lon="6.79961">
        <ele>361</ele>
        <time>2013-09-18T13:09:44.000Z</time>
      </trkpt>
      <trkpt lat="43.49444" lon="6.79955">
        <ele>361</ele>
        <time>2013-09-18T13:09:45.000Z</time>
      </trkpt>
      <trkpt lat="43.49447" lon="6.79949">
        <ele>361</ele>
        <time>2013-09-18T13:09:46.000Z</time>
      </trkpt>
      <trkpt lat="43.4945" lon="6.79943">
        <ele>361</ele>
        <time>2013-09-18T13:09:47.000Z</time>
      </trkpt>
      <trkpt lat="43.49453" lon="6.79936">
        <ele>360</ele>
        <time>2013-09-18T13:09:48.000Z</time>
      </trkpt>
      <trkpt lat="43.49456" lon="6.79929">
        <ele>360</ele>
        <time>2013-09-18T13:09:49.000Z</time>
      </trkpt>
      <trkpt lat="43.49459" lon="6.79922">
        <ele>359</ele>
        <time>2013-09-18T13:09:50.000Z</time>
      </trkpt>
      <trkpt lat="43.49461" lon="6.79914">
        <ele>362</ele>
        <time>2013-09-18T13:09:51.000Z</time>
      </trkpt>
      <trkpt lat="43.49463" lon="6.79907">
        <ele>362</ele>
        <time>2013-09-18T13:09:52.000Z</time>
      </trkpt>
      <trkpt lat="43.49465" lon="6.79901">
        <ele>362</ele>
        <time>2013-09-18T13:09:53.000Z</time>
      </trkpt>
      <trkpt lat="43.49467" lon="6.79894">
        <ele>361</ele>
        <time>2013-09-18T13:09:54.000Z</time>
      </trkpt>
      <trkpt lat="43.49469" lon="6.79887">
        <ele>362</ele>
        <time>2013-09-18T13:09:55.000Z</time>
      </trkpt>
      <trkpt lat="43.49471" lon="6.7988">
        <ele>362</ele>
        <time>2013-09-18T13:09:56.000Z</time>
      </trkpt>
      <trkpt lat="43.49472" lon="6.79873">
        <ele>362</ele>
        <time>2013-09-18T13:09:57.000Z</time>
      </trkpt>
      <trkpt lat="43.49473" lon="6.79867">
        <ele>362</ele>
        <time>2013-09-18T13:09:58.000Z</time>
      </trkpt>
      <trkpt lat="43.49474" lon="6.7986">
        <ele>361</ele>
        <time>2013-09-18T13:09:59.000Z</time>
      </trkpt>
      <trkpt lat="43.49475" lon="6.79852">
        <ele>361</ele>
        <time>2013-09-18T13:10:00.000Z</time>
      </trkpt>
      <trkpt lat="43.49476" lon="6.79845">
        <ele>360</ele>
        <time>2013-09-18T13:10:01.000Z</time>
      </trkpt>
      <trkpt lat="43.49477" lon="6.79837">
        <ele>360</ele>
        <time>2013-09-18T13:10:02.000Z</time>
      </trkpt>
      <trkpt lat="43.49477" lon="6.7983">
        <ele>361</ele>
        <time>2013-09-18T13:10:03.000Z</time>
      </trkpt>
      <trkpt lat="43.49477" lon="6.79814">
        <ele>363</ele>
        <time>2013-09-18T13:10:05.000Z</time>
      </trkpt>
      <trkpt lat="43.49476" lon="6.79807">
        <ele>363</ele>
        <time>2013-09-18T13:10:06.000Z</time>
      </trkpt>
      <trkpt lat="43.49475" lon="6.79799">
        <ele>364</ele>
        <time>2013-09-18T13:10:07.000Z</time>
      </trkpt>
      <trkpt lat="43.49474" lon="6.79792">
        <ele>364</ele>
        <time>2013-09-18T13:10:08.000Z</time>
      </trkpt>
      <trkpt lat="43.49472" lon="6.79785">
        <ele>364</ele>
        <time>2013-09-18T13:10:09.000Z</time>
      </trkpt>
      <trkpt lat="43.4947" lon="6.79778">
        <ele>364</ele>
        <time>2013-09-18T13:10:10.000Z</time>
      </trkpt>
      <trkpt lat="43.49468" lon="6.79772">
        <ele>364</ele>
        <time>2013-09-18T13:10:11.000Z</time>
      </trkpt>
      <trkpt lat="43.49466" lon="6.79766">
        <ele>365</ele>
        <time>2013-09-18T13:10:12.000Z</time>
      </trkpt>
      <trkpt lat="43.49464" lon="6.7976">
        <ele>365</ele>
        <time>2013-09-18T13:10:13.000Z</time>
      </trkpt>
      <trkpt lat="43.49461" lon="6.79754">
        <ele>366</ele>
        <time>2013-09-18T13:10:14.000Z</time>
      </trkpt>
      <trkpt lat="43.49459" lon="6.79748">
        <ele>364</ele>
        <time>2013-09-18T13:10:15.000Z</time>
      </trkpt>
      <trkpt lat="43.49456" lon="6.79742">
        <ele>365</ele>
        <time>2013-09-18T13:10:16.000Z</time>
      </trkpt>
      <trkpt lat="43.49454" lon="6.79736">
        <ele>365</ele>
        <time>2013-09-18T13:10:17.000Z</time>
      </trkpt>
      <trkpt lat="43.49451" lon="6.7973">
        <ele>366</ele>
        <time>2013-09-18T13:10:18.000Z</time>
      </trkpt>
      <trkpt lat="43.49448" lon="6.79723">
        <ele>366</ele>
        <time>2013-09-18T13:10:19.000Z</time>
      </trkpt>
      <trkpt lat="43.49446" lon="6.79717">
        <ele>366</ele>
        <time>2013-09-18T13:10:20.000Z</time>
      </trkpt>
      <trkpt lat="43.49443" lon="6.79711">
        <ele>367</ele>
        <time>2013-09-18T13:10:21.000Z</time>
      </trkpt>
      <trkpt lat="43.49441" lon="6.79704">
        <ele>367</ele>
        <time>2013-09-18T13:10:22.000Z</time>
      </trkpt>
      <trkpt lat="43.49438" lon="6.79697">
        <ele>367</ele>
        <time>2013-09-18T13:10:23.000Z</time>
      </trkpt>
      <trkpt lat="43.49437" lon="6.7969">
        <ele>368</ele>
        <time>2013-09-18T13:10:24.000Z</time>
      </trkpt>
      <trkpt lat="43.49436" lon="6.79683">
        <ele>369</ele>
        <time>2013-09-18T13:10:25.000Z</time>
      </trkpt>
      <trkpt lat="43.49436" lon="6.79675">
        <ele>369</ele>
        <time>2013-09-18T13:10:26.000Z</time>
      </trkpt>
      <trkpt lat="43.49437" lon="6.79668">
        <ele>369</ele>
        <time>2013-09-18T13:10:27.000Z</time>
      </trkpt>
      <trkpt lat="43.49439" lon="6.79661">
        <ele>368</ele>
        <time>2013-09-18T13:10:28.000Z</time>
      </trkpt>
      <trkpt lat="43.49442" lon="6.79655">
        <ele>367</ele>
        <time>2013-09-18T13:10:29.000Z</time>
      </trkpt>
      <trkpt lat="43.49445" lon="6.7965">
        <ele>366</ele>
        <time>2013-09-18T13:10:30.000Z</time>
      </trkpt>
      <trkpt lat="43.49448" lon="6.79645">
        <ele>366</ele>
        <time>2013-09-18T13:10:31.000Z</time>
      </trkpt>
      <trkpt lat="43.49451" lon="6.79639">
        <ele>365</ele>
        <time>2013-09-18T13:10:32.000Z</time>
      </trkpt>
      <trkpt lat="43.49454" lon="6.79634">
        <ele>364</ele>
        <time>2013-09-18T13:10:33.000Z</time>
      </trkpt>
      <trkpt lat="43.49457" lon="6.7963">
        <ele>364</ele>
        <time>2013-09-18T13:10:34.000Z</time>
      </trkpt>
      <trkpt lat="43.4946" lon="6.79625">
        <ele>363</ele>
        <time>2013-09-18T13:10:35.000Z</time>
      </trkpt>
      <trkpt lat="43.49463" lon="6.79621">
        <ele>363</ele>
        <time>2013-09-18T13:10:36.000Z</time>
      </trkpt>
      <trkpt lat="43.49466" lon="6.79616">
        <ele>362</ele>
        <time>2013-09-18T13:10:37.000Z</time>
      </trkpt>
      <trkpt lat="43.49469" lon="6.79611">
        <ele>362</ele>
        <time>2013-09-18T13:10:38.000Z</time>
      </trkpt>
      <trkpt lat="43.49471" lon="6.79605">
        <ele>361</ele>
        <time>2013-09-18T13:10:39.000Z</time>
      </trkpt>
      <trkpt lat="43.49474" lon="6.79599">
        <ele>360</ele>
        <time>2013-09-18T13:10:40.000Z</time>
      </trkpt>
      <trkpt lat="43.49476" lon="6.79593">
        <ele>359</ele>
        <time>2013-09-18T13:10:41.000Z</time>
      </trkpt>
      <trkpt lat="43.49477" lon="6.79586">
        <ele>359</ele>
        <time>2013-09-18T13:10:42.000Z</time>
      </trkpt>
      <trkpt lat="43.49478" lon="6.79579">
        <ele>360</ele>
        <time>2013-09-18T13:10:43.000Z</time>
      </trkpt>
      <trkpt lat="43.49479" lon="6.79573">
        <ele>360</ele>
        <time>2013-09-18T13:10:44.000Z</time>
      </trkpt>
      <trkpt lat="43.4948" lon="6.79566">
        <ele>361</ele>
        <time>2013-09-18T13:10:45.000Z</time>
      </trkpt>
      <trkpt lat="43.4948" lon="6.7956">
        <ele>362</ele>
        <time>2013-09-18T13:10:46.000Z</time>
      </trkpt>
      <trkpt lat="43.4948" lon="6.79554">
        <ele>362</ele>
        <time>2013-09-18T13:10:47.000Z</time>
      </trkpt>
      <trkpt lat="43.49479" lon="6.79548">
        <ele>363</ele>
        <time>2013-09-18T13:10:48.000Z</time>
      </trkpt>
      <trkpt lat="43.49479" lon="6.79542">
        <ele>363</ele>
        <time>2013-09-18T13:10:49.000Z</time>
      </trkpt>
      <trkpt lat="43.49479" lon="6.79535">
        <ele>363</ele>
        <time>2013-09-18T13:10:50.000Z</time>
      </trkpt>
      <trkpt lat="43.49478" lon="6.79529">
        <ele>362</ele>
        <time>2013-09-18T13:10:51.000Z</time>
      </trkpt>
      <trkpt lat="43.49478" lon="6.79523">
        <ele>362</ele>
        <time>2013-09-18T13:10:52.000Z</time>
      </trkpt>
      <trkpt lat="43.49478" lon="6.79517">
        <ele>361</ele>
        <time>2013-09-18T13:10:53.000Z</time>
      </trkpt>
      <trkpt lat="43.49478" lon="6.7951">
        <ele>361</ele>
        <time>2013-09-18T13:10:54.000Z</time>
      </trkpt>
      <trkpt lat="43.49477" lon="6.79504">
        <ele>360</ele>
        <time>2013-09-18T13:10:55.000Z</time>
      </trkpt>
      <trkpt lat="43.49477" lon="6.79499">
        <ele>358</ele>
        <time>2013-09-18T13:10:56.000Z</time>
      </trkpt>
      <trkpt lat="43.49476" lon="6.79492">
        <ele>359</ele>
        <time>2013-09-18T13:10:57.000Z</time>
      </trkpt>
      <trkpt lat="43.49474" lon="6.79486">
        <ele>359</ele>
        <time>2013-09-18T13:10:58.000Z</time>
      </trkpt>
      <trkpt lat="43.49473" lon="6.7948">
        <ele>360</ele>
        <time>2013-09-18T13:10:59.000Z</time>
      </trkpt>
      <trkpt lat="43.49472" lon="6.79473">
        <ele>360</ele>
        <time>2013-09-18T13:11:00.000Z</time>
      </trkpt>
      <trkpt lat="43.4947" lon="6.79466">
        <ele>361</ele>
        <time>2013-09-18T13:11:01.000Z</time>
      </trkpt>
      <trkpt lat="43.49468" lon="6.7946">
        <ele>361</ele>
        <time>2013-09-18T13:11:02.000Z</time>
      </trkpt>
      <trkpt lat="43.49465" lon="6.79453">
        <ele>361</ele>
        <time>2013-09-18T13:11:03.000Z</time>
      </trkpt>
      <trkpt lat="43.49463" lon="6.79446">
        <ele>361</ele>
        <time>2013-09-18T13:11:04.000Z</time>
      </trkpt>
      <trkpt lat="43.49461" lon="6.79439">
        <ele>361</ele>
        <time>2013-09-18T13:11:05.000Z</time>
      </trkpt>
      <trkpt lat="43.49458" lon="6.79432">
        <ele>362</ele>
        <time>2013-09-18T13:11:06.000Z</time>
      </trkpt>
      <trkpt lat="43.49456" lon="6.79426">
        <ele>362</ele>
        <time>2013-09-18T13:11:07.000Z</time>
      </trkpt>
      <trkpt lat="43.49453" lon="6.79419">
        <ele>363</ele>
        <time>2013-09-18T13:11:08.000Z</time>
      </trkpt>
      <trkpt lat="43.49451" lon="6.79413">
        <ele>356</ele>
        <time>2013-09-18T13:11:09.000Z</time>
      </trkpt>
      <trkpt lat="43.49449" lon="6.79406">
        <ele>356</ele>
        <time>2013-09-18T13:11:10.000Z</time>
      </trkpt>
      <trkpt lat="43.49446" lon="6.79399">
        <ele>356</ele>
        <time>2013-09-18T13:11:11.000Z</time>
      </trkpt>
      <trkpt lat="43.49443" lon="6.79393">
        <ele>356</ele>
        <time>2013-09-18T13:11:12.000Z</time>
      </trkpt>
      <trkpt lat="43.4944" lon="6.79386">
        <ele>356</ele>
        <time>2013-09-18T13:11:13.000Z</time>
      </trkpt>
      <trkpt lat="43.49436" lon="6.7938">
        <ele>356</ele>
        <time>2013-09-18T13:11:14.000Z</time>
      </trkpt>
      <trkpt lat="43.49433" lon="6.79375">
        <ele>355</ele>
        <time>2013-09-18T13:11:15.000Z</time>
      </trkpt>
      <trkpt lat="43.4943" lon="6.7937">
        <ele>355</ele>
        <time>2013-09-18T13:11:16.000Z</time>
      </trkpt>
      <trkpt lat="43.49427" lon="6.79365">
        <ele>355</ele>
        <time>2013-09-18T13:11:17.000Z</time>
      </trkpt>
      <trkpt lat="43.49424" lon="6.7936">
        <ele>355</ele>
        <time>2013-09-18T13:11:18.000Z</time>
      </trkpt>
      <trkpt lat="43.49422" lon="6.79355">
        <ele>355</ele>
        <time>2013-09-18T13:11:19.000Z</time>
      </trkpt>
      <trkpt lat="43.49419" lon="6.7935">
        <ele>355</ele>
        <time>2013-09-18T13:11:20.000Z</time>
      </trkpt>
      <trkpt lat="43.49416" lon="6.79345">
        <ele>367</ele>
        <time>2013-09-18T13:11:21.000Z</time>
      </trkpt>
      <trkpt lat="43.49413" lon="6.7934">
        <ele>365</ele>
        <time>2013-09-18T13:11:22.000Z</time>
      </trkpt>
      <trkpt lat="43.4941" lon="6.79335">
        <ele>364</ele>
        <time>2013-09-18T13:11:23.000Z</time>
      </trkpt>
      <trkpt lat="43.49407" lon="6.79331">
        <ele>360</ele>
        <time>2013-09-18T13:11:24.000Z</time>
      </trkpt>
      <trkpt lat="43.49403" lon="6.79326">
        <ele>361</ele>
        <time>2013-09-18T13:11:25.000Z</time>
      </trkpt>
      <trkpt lat="43.494" lon="6.79321">
        <ele>361</ele>
        <time>2013-09-18T13:11:26.000Z</time>
      </trkpt>
      <trkpt lat="43.49396" lon="6.79316">
        <ele>362</ele>
        <time>2013-09-18T13:11:27.000Z</time>
      </trkpt>
      <trkpt lat="43.49393" lon="6.7931">
        <ele>362</ele>
        <time>2013-09-18T13:11:28.000Z</time>
      </trkpt>
      <trkpt lat="43.49389" lon="6.79305">
        <ele>362</ele>
        <time>2013-09-18T13:11:29.000Z</time>
      </trkpt>
      <trkpt lat="43.49386" lon="6.79299">
        <ele>362</ele>
        <time>2013-09-18T13:11:30.000Z</time>
      </trkpt>
      <trkpt lat="43.49382" lon="6.79293">
        <ele>362</ele>
        <time>2013-09-18T13:11:31.000Z</time>
      </trkpt>
      <trkpt lat="43.49378" lon="6.79288">
        <ele>363</ele>
        <time>2013-09-18T13:11:32.000Z</time>
      </trkpt>
      <trkpt lat="43.49375" lon="6.79282">
        <ele>363</ele>
        <time>2013-09-18T13:11:33.000Z</time>
      </trkpt>
      <trkpt lat="43.49372" lon="6.79276">
        <ele>363</ele>
        <time>2013-09-18T13:11:34.000Z</time>
      </trkpt>
      <trkpt lat="43.49368" lon="6.7927">
        <ele>363</ele>
        <time>2013-09-18T13:11:35.000Z</time>
      </trkpt>
      <trkpt lat="43.49365" lon="6.79265">
        <ele>363</ele>
        <time>2013-09-18T13:11:36.000Z</time>
      </trkpt>
      <trkpt lat="43.49362" lon="6.7926">
        <ele>364</ele>
        <time>2013-09-18T13:11:37.000Z</time>
      </trkpt>
      <trkpt lat="43.49359" lon="6.79254">
        <ele>365</ele>
        <time>2013-09-18T13:11:38.000Z</time>
      </trkpt>
      <trkpt lat="43.49356" lon="6.79249">
        <ele>356</ele>
        <time>2013-09-18T13:11:39.000Z</time>
      </trkpt>
      <trkpt lat="43.49353" lon="6.79244">
        <ele>357</ele>
        <time>2013-09-18T13:11:40.000Z</time>
      </trkpt>
      <trkpt lat="43.49351" lon="6.79239">
        <ele>357</ele>
        <time>2013-09-18T13:11:41.000Z</time>
      </trkpt>
      <trkpt lat="43.49348" lon="6.79233">
        <ele>357</ele>
        <time>2013-09-18T13:11:42.000Z</time>
      </trkpt>
      <trkpt lat="43.49345" lon="6.79228">
        <ele>356</ele>
        <time>2013-09-18T13:11:43.000Z</time>
      </trkpt>
      <trkpt lat="43.49342" lon="6.79222">
        <ele>355</ele>
        <time>2013-09-18T13:11:44.000Z</time>
      </trkpt>
      <trkpt lat="43.49339" lon="6.79217">
        <ele>353</ele>
        <time>2013-09-18T13:11:45.000Z</time>
      </trkpt>
      <trkpt lat="43.49336" lon="6.79211">
        <ele>353</ele>
        <time>2013-09-18T13:11:46.000Z</time>
      </trkpt>
      <trkpt lat="43.49333" lon="6.79206">
        <ele>372</ele>
        <time>2013-09-18T13:11:47.000Z</time>
      </trkpt>
      <trkpt lat="43.4933" lon="6.792">
        <ele>371</ele>
        <time>2013-09-18T13:11:48.000Z</time>
      </trkpt>
      <trkpt lat="43.49327" lon="6.79194">
        <ele>369</ele>
        <time>2013-09-18T13:11:49.000Z</time>
      </trkpt>
      <trkpt lat="43.49324" lon="6.79188">
        <ele>368</ele>
        <time>2013-09-18T13:11:50.000Z</time>
      </trkpt>
      <trkpt lat="43.49322" lon="6.79182">
        <ele>366</ele>
        <time>2013-09-18T13:11:51.000Z</time>
      </trkpt>
      <trkpt lat="43.49319" lon="6.79176">
        <ele>365</ele>
        <time>2013-09-18T13:11:52.000Z</time>
      </trkpt>
      <trkpt lat="43.49316" lon="6.79169">
        <ele>366</ele>
        <time>2013-09-18T13:11:53.000Z</time>
      </trkpt>
      <trkpt lat="43.49313" lon="6.79162">
        <ele>358</ele>
        <time>2013-09-18T13:11:54.000Z</time>
      </trkpt>
      <trkpt lat="43.4931" lon="6.79154">
        <ele>358</ele>
        <time>2013-09-18T13:11:55.000Z</time>
      </trkpt>
      <trkpt lat="43.49307" lon="6.79145">
        <ele>359</ele>
        <time>2013-09-18T13:11:56.000Z</time>
      </trkpt>
      <trkpt lat="43.49304" lon="6.79137">
        <ele>359</ele>
        <time>2013-09-18T13:11:57.000Z</time>
      </trkpt>
      <trkpt lat="43.49302" lon="6.79127">
        <ele>358</ele>
        <time>2013-09-18T13:11:58.000Z</time>
      </trkpt>
      <trkpt lat="43.49299" lon="6.79117">
        <ele>357</ele>
        <time>2013-09-18T13:11:59.000Z</time>
      </trkpt>
      <trkpt lat="43.49295" lon="6.79108">
        <ele>357</ele>
        <time>2013-09-18T13:12:00.000Z</time>
      </trkpt>
      <trkpt lat="43.49291" lon="6.79098">
        <ele>357</ele>
        <time>2013-09-18T13:12:01.000Z</time>
      </trkpt>
      <trkpt lat="43.49287" lon="6.79089">
        <ele>357</ele>
        <time>2013-09-18T13:12:02.000Z</time>
      </trkpt>
      <trkpt lat="43.49283" lon="6.7908">
        <ele>344</ele>
        <time>2013-09-18T13:12:03.000Z</time>
      </trkpt>
      <trkpt lat="43.49278" lon="6.79072">
        <ele>345</ele>
        <time>2013-09-18T13:12:04.000Z</time>
      </trkpt>
      <trkpt lat="43.49273" lon="6.79063">
        <ele>345</ele>
        <time>2013-09-18T13:12:05.000Z</time>
      </trkpt>
      <trkpt lat="43.49268" lon="6.79055">
        <ele>344</ele>
        <time>2013-09-18T13:12:06.000Z</time>
      </trkpt>
      <trkpt lat="43.49262" lon="6.79048">
        <ele>343</ele>
        <time>2013-09-18T13:12:07.000Z</time>
      </trkpt>
      <trkpt lat="43.49256" lon="6.79041">
        <ele>342</ele>
        <time>2013-09-18T13:12:08.000Z</time>
      </trkpt>
      <trkpt lat="43.4925" lon="6.79035">
        <ele>356</ele>
        <time>2013-09-18T13:12:09.000Z</time>
      </trkpt>
      <trkpt lat="43.49244" lon="6.79029">
        <ele>355</ele>
        <time>2013-09-18T13:12:10.000Z</time>
      </trkpt>
      <trkpt lat="43.49238" lon="6.79024">
        <ele>354</ele>
        <time>2013-09-18T13:12:11.000Z</time>
      </trkpt>
      <trkpt lat="43.49232" lon="6.79018">
        <ele>353</ele>
        <time>2013-09-18T13:12:12.000Z</time>
      </trkpt>
      <trkpt lat="43.49226" lon="6.79013">
        <ele>354</ele>
        <time>2013-09-18T13:12:13.000Z</time>
      </trkpt>
      <trkpt lat="43.49219" lon="6.79008">
        <ele>355</ele>
        <time>2013-09-18T13:12:14.000Z</time>
      </trkpt>
      <trkpt lat="43.49213" lon="6.79003">
        <ele>355</ele>
        <time>2013-09-18T13:12:15.000Z</time>
      </trkpt>
      <trkpt lat="43.49207" lon="6.78998">
        <ele>337</ele>
        <time>2013-09-18T13:12:16.000Z</time>
      </trkpt>
      <trkpt lat="43.49201" lon="6.78993">
        <ele>338</ele>
        <time>2013-09-18T13:12:17.000Z</time>
      </trkpt>
      <trkpt lat="43.49194" lon="6.78988">
        <ele>338</ele>
        <time>2013-09-18T13:12:18.000Z</time>
      </trkpt>
      <trkpt lat="43.49188" lon="6.78982">
        <ele>339</ele>
        <time>2013-09-18T13:12:19.000Z</time>
      </trkpt>
      <trkpt lat="43.49181" lon="6.78975">
        <ele>338</ele>
        <time>2013-09-18T13:12:20.000Z</time>
      </trkpt>
      <trkpt lat="43.49174" lon="6.78969">
        <ele>337</ele>
        <time>2013-09-18T13:12:21.000Z</time>
      </trkpt>
      <trkpt lat="43.49167" lon="6.78964">
        <ele>347</ele>
        <time>2013-09-18T13:12:22.000Z</time>
      </trkpt>
      <trkpt lat="43.49158" lon="6.78959">
        <ele>346</ele>
        <time>2013-09-18T13:12:23.000Z</time>
      </trkpt>
      <trkpt lat="43.4915" lon="6.78954">
        <ele>345</ele>
        <time>2013-09-18T13:12:24.000Z</time>
      </trkpt>
      <trkpt lat="43.49141" lon="6.7895">
        <ele>345</ele>
        <time>2013-09-18T13:12:25.000Z</time>
      </trkpt>
      <trkpt lat="43.49132" lon="6.78945">
        <ele>345</ele>
        <time>2013-09-18T13:12:26.000Z</time>
      </trkpt>
      <trkpt lat="43.49123" lon="6.78941">
        <ele>346</ele>
        <time>2013-09-18T13:12:27.000Z</time>
      </trkpt>
      <trkpt lat="43.49114" lon="6.78937">
        <ele>346</ele>
        <time>2013-09-18T13:12:28.000Z</time>
      </trkpt>
      <trkpt lat="43.49105" lon="6.78934">
        <ele>346</ele>
        <time>2013-09-18T13:12:29.000Z</time>
      </trkpt>
      <trkpt lat="43.49096" lon="6.7893">
        <ele>345</ele>
        <time>2013-09-18T13:12:30.000Z</time>
      </trkpt>
      <trkpt lat="43.49087" lon="6.78926">
        <ele>344</ele>
        <time>2013-09-18T13:12:31.000Z</time>
      </trkpt>
      <trkpt lat="43.49078" lon="6.78922">
        <ele>345</ele>
        <time>2013-09-18T13:12:32.000Z</time>
      </trkpt>
      <trkpt lat="43.49069" lon="6.78917">
        <ele>348</ele>
        <time>2013-09-18T13:12:33.000Z</time>
      </trkpt>
      <trkpt lat="43.4906" lon="6.78913">
        <ele>336</ele>
        <time>2013-09-18T13:12:34.000Z</time>
      </trkpt>
      <trkpt lat="43.4905" lon="6.78907">
        <ele>335</ele>
        <time>2013-09-18T13:12:35.000Z</time>
      </trkpt>
      <trkpt lat="43.49041" lon="6.78903">
        <ele>335</ele>
        <time>2013-09-18T13:12:36.000Z</time>
      </trkpt>
      <trkpt lat="43.49031" lon="6.78899">
        <ele>336</ele>
        <time>2013-09-18T13:12:37.000Z</time>
      </trkpt>
      <trkpt lat="43.49022" lon="6.78896">
        <ele>336</ele>
        <time>2013-09-18T13:12:38.000Z</time>
      </trkpt>
      <trkpt lat="43.49012" lon="6.78893">
        <ele>337</ele>
        <time>2013-09-18T13:12:39.000Z</time>
      </trkpt>
      <trkpt lat="43.49003" lon="6.78891">
        <ele>337</ele>
        <time>2013-09-18T13:12:40.000Z</time>
      </trkpt>
      <trkpt lat="43.48994" lon="6.7889">
        <ele>340</ele>
        <time>2013-09-18T13:12:41.000Z</time>
      </trkpt>
      <trkpt lat="43.48985" lon="6.78888">
        <ele>339</ele>
        <time>2013-09-18T13:12:42.000Z</time>
      </trkpt>
      <trkpt lat="43.48977" lon="6.78887">
        <ele>339</ele>
        <time>2013-09-18T13:12:43.000Z</time>
      </trkpt>
      <trkpt lat="43.48969" lon="6.78885">
        <ele>338</ele>
        <time>2013-09-18T13:12:44.000Z</time>
      </trkpt>
      <trkpt lat="43.48961" lon="6.78883">
        <ele>338</ele>
        <time>2013-09-18T13:12:45.000Z</time>
      </trkpt>
      <trkpt lat="43.48954" lon="6.78881">
        <ele>337</ele>
        <time>2013-09-18T13:12:46.000Z</time>
      </trkpt>
      <trkpt lat="43.48947" lon="6.78878">
        <ele>337</ele>
        <time>2013-09-18T13:12:47.000Z</time>
      </trkpt>
      <trkpt lat="43.48941" lon="6.78876">
        <ele>337</ele>
        <time>2013-09-18T13:12:48.000Z</time>
      </trkpt>
      <trkpt lat="43.48935" lon="6.78874">
        <ele>337</ele>
        <time>2013-09-18T13:12:49.000Z</time>
      </trkpt>
      <trkpt lat="43.48929" lon="6.78874">
        <ele>337</ele>
        <time>2013-09-18T13:12:50.000Z</time>
      </trkpt>
      <trkpt lat="43.48924" lon="6.78875">
        <ele>337</ele>
        <time>2013-09-18T13:12:51.000Z</time>
      </trkpt>
      <trkpt lat="43.48918" lon="6.78878">
        <ele>337</ele>
        <time>2013-09-18T13:12:52.000Z</time>
      </trkpt>
      <trkpt lat="43.48911" lon="6.78882">
        <ele>330</ele>
        <time>2013-09-18T13:12:53.000Z</time>
      </trkpt>
      <trkpt lat="43.48904" lon="6.78888">
        <ele>330</ele>
        <time>2013-09-18T13:12:54.000Z</time>
      </trkpt>
      <trkpt lat="43.48897" lon="6.78895">
        <ele>331</ele>
        <time>2013-09-18T13:12:55.000Z</time>
      </trkpt>
      <trkpt lat="43.4889" lon="6.78902">
        <ele>330</ele>
        <time>2013-09-18T13:12:56.000Z</time>
      </trkpt>
      <trkpt lat="43.48883" lon="6.78908">
        <ele>329</ele>
        <time>2013-09-18T13:12:57.000Z</time>
      </trkpt>
      <trkpt lat="43.48875" lon="6.78913">
        <ele>328</ele>
        <time>2013-09-18T13:12:58.000Z</time>
      </trkpt>
      <trkpt lat="43.48867" lon="6.78916">
        <ele>327</ele>
        <time>2013-09-18T13:12:59.000Z</time>
      </trkpt>
      <trkpt lat="43.48859" lon="6.78917">
        <ele>327</ele>
        <time>2013-09-18T13:13:00.000Z</time>
      </trkpt>
      <trkpt lat="43.48851" lon="6.78916">
        <ele>326</ele>
        <time>2013-09-18T13:13:01.000Z</time>
      </trkpt>
      <trkpt lat="43.48844" lon="6.78915">
        <ele>326</ele>
        <time>2013-09-18T13:13:02.000Z</time>
      </trkpt>
      <trkpt lat="43.48836" lon="6.78916">
        <ele>326</ele>
        <time>2013-09-18T13:13:03.000Z</time>
      </trkpt>
      <trkpt lat="43.48828" lon="6.78917">
        <ele>329</ele>
        <time>2013-09-18T13:13:04.000Z</time>
      </trkpt>
      <trkpt lat="43.4882" lon="6.78919">
        <ele>332</ele>
        <time>2013-09-18T13:13:05.000Z</time>
      </trkpt>
      <trkpt lat="43.48812" lon="6.7892">
        <ele>334</ele>
        <time>2013-09-18T13:13:06.000Z</time>
      </trkpt>
      <trkpt lat="43.48803" lon="6.7892">
        <ele>335</ele>
        <time>2013-09-18T13:13:07.000Z</time>
      </trkpt>
      <trkpt lat="43.48795" lon="6.78919">
        <ele>335</ele>
        <time>2013-09-18T13:13:08.000Z</time>
      </trkpt>
      <trkpt lat="43.48787" lon="6.78915">
        <ele>318</ele>
        <time>2013-09-18T13:13:09.000Z</time>
      </trkpt>
      <trkpt lat="43.48781" lon="6.7891">
        <ele>318</ele>
        <time>2013-09-18T13:13:10.000Z</time>
      </trkpt>
      <trkpt lat="43.48774" lon="6.78903">
        <ele>318</ele>
        <time>2013-09-18T13:13:11.000Z</time>
      </trkpt>
      <trkpt lat="43.48768" lon="6.78896">
        <ele>317</ele>
        <time>2013-09-18T13:13:12.000Z</time>
      </trkpt>
      <trkpt lat="43.4876" lon="6.7889">
        <ele>316</ele>
        <time>2013-09-18T13:13:13.000Z</time>
      </trkpt>
      <trkpt lat="43.48752" lon="6.78885">
        <ele>315</ele>
        <time>2013-09-18T13:13:14.000Z</time>
      </trkpt>
      <trkpt lat="43.48743" lon="6.78881">
        <ele>315</ele>
        <time>2013-09-18T13:13:15.000Z</time>
      </trkpt>
      <trkpt lat="43.48734" lon="6.78878">
        <ele>314</ele>
        <time>2013-09-18T13:13:16.000Z</time>
      </trkpt>
      <trkpt lat="43.48725" lon="6.78875">
        <ele>314</ele>
        <time>2013-09-18T13:13:17.000Z</time>
      </trkpt>
      <trkpt lat="43.48716" lon="6.78871">
        <ele>313</ele>
        <time>2013-09-18T13:13:18.000Z</time>
      </trkpt>
      <trkpt lat="43.48708" lon="6.78868">
        <ele>313</ele>
        <time>2013-09-18T13:13:19.000Z</time>
      </trkpt>
      <trkpt lat="43.48699" lon="6.78865">
        <ele>313</ele>
        <time>2013-09-18T13:13:20.000Z</time>
      </trkpt>
      <trkpt lat="43.48691" lon="6.78863">
        <ele>313</ele>
        <time>2013-09-18T13:13:21.000Z</time>
      </trkpt>
      <trkpt lat="43.48683" lon="6.78861">
        <ele>312</ele>
        <time>2013-09-18T13:13:22.000Z</time>
      </trkpt>
      <trkpt lat="43.48674" lon="6.78859">
        <ele>312</ele>
        <time>2013-09-18T13:13:23.000Z</time>
      </trkpt>
      <trkpt lat="43.48666" lon="6.78857">
        <ele>318</ele>
        <time>2013-09-18T13:13:24.000Z</time>
      </trkpt>
      <trkpt lat="43.48657" lon="6.78856">
        <ele>318</ele>
        <time>2013-09-18T13:13:25.000Z</time>
      </trkpt>
      <trkpt lat="43.48649" lon="6.78854">
        <ele>319</ele>
        <time>2013-09-18T13:13:26.000Z</time>
      </trkpt>
      <trkpt lat="43.48642" lon="6.78851">
        <ele>320</ele>
        <time>2013-09-18T13:13:27.000Z</time>
      </trkpt>
      <trkpt lat="43.48636" lon="6.78847">
        <ele>321</ele>
        <time>2013-09-18T13:13:28.000Z</time>
      </trkpt>
      <trkpt lat="43.4863" lon="6.78842">
        <ele>322</ele>
        <time>2013-09-18T13:13:29.000Z</time>
      </trkpt>
      <trkpt lat="43.48626" lon="6.78834">
        <ele>322</ele>
        <time>2013-09-18T13:13:30.000Z</time>
      </trkpt>
      <trkpt lat="43.48624" lon="6.78825">
        <ele>309</ele>
        <time>2013-09-18T13:13:31.000Z</time>
      </trkpt>
      <trkpt lat="43.48623" lon="6.78815">
        <ele>308</ele>
        <time>2013-09-18T13:13:32.000Z</time>
      </trkpt>
      <trkpt lat="43.48623" lon="6.78805">
        <ele>307</ele>
        <time>2013-09-18T13:13:33.000Z</time>
      </trkpt>
      <trkpt lat="43.48622" lon="6.78794">
        <ele>305</ele>
        <time>2013-09-18T13:13:34.000Z</time>
      </trkpt>
      <trkpt lat="43.48621" lon="6.78782">
        <ele>304</ele>
        <time>2013-09-18T13:13:35.000Z</time>
      </trkpt>
      <trkpt lat="43.48619" lon="6.78772">
        <ele>303</ele>
        <time>2013-09-18T13:13:36.000Z</time>
      </trkpt>
      <trkpt lat="43.48616" lon="6.78762">
        <ele>303</ele>
        <time>2013-09-18T13:13:37.000Z</time>
      </trkpt>
      <trkpt lat="43.48613" lon="6.78753">
        <ele>303</ele>
        <time>2013-09-18T13:13:38.000Z</time>
      </trkpt>
      <trkpt lat="43.48609" lon="6.78744">
        <ele>292</ele>
        <time>2013-09-18T13:13:39.000Z</time>
      </trkpt>
      <trkpt lat="43.48605" lon="6.78733">
        <ele>291</ele>
        <time>2013-09-18T13:13:40.000Z</time>
      </trkpt>
      <trkpt lat="43.48601" lon="6.78722">
        <ele>290</ele>
        <time>2013-09-18T13:13:41.000Z</time>
      </trkpt>
      <trkpt lat="43.48597" lon="6.78711">
        <ele>289</ele>
        <time>2013-09-18T13:13:42.000Z</time>
      </trkpt>
      <trkpt lat="43.48592" lon="6.787">
        <ele>288</ele>
        <time>2013-09-18T13:13:43.000Z</time>
      </trkpt>
      <trkpt lat="43.48588" lon="6.78688">
        <ele>288</ele>
        <time>2013-09-18T13:13:44.000Z</time>
      </trkpt>
      <trkpt lat="43.48584" lon="6.78677">
        <ele>289</ele>
        <time>2013-09-18T13:13:45.000Z</time>
      </trkpt>
      <trkpt lat="43.4858" lon="6.78665">
        <ele>292</ele>
        <time>2013-09-18T13:13:46.000Z</time>
      </trkpt>
      <trkpt lat="43.48576" lon="6.78653">
        <ele>294</ele>
        <time>2013-09-18T13:13:47.000Z</time>
      </trkpt>
      <trkpt lat="43.48572" lon="6.78641">
        <ele>295</ele>
        <time>2013-09-18T13:13:48.000Z</time>
      </trkpt>
      <trkpt lat="43.4857" lon="6.78628">
        <ele>294</ele>
        <time>2013-09-18T13:13:49.000Z</time>
      </trkpt>
      <trkpt lat="43.48567" lon="6.78615">
        <ele>292</ele>
        <time>2013-09-18T13:13:50.000Z</time>
      </trkpt>
      <trkpt lat="43.48564" lon="6.78602">
        <ele>289</ele>
        <time>2013-09-18T13:13:51.000Z</time>
      </trkpt>
      <trkpt lat="43.4856" lon="6.78588">
        <ele>288</ele>
        <time>2013-09-18T13:13:52.000Z</time>
      </trkpt>
      <trkpt lat="43.48556" lon="6.78575">
        <ele>275</ele>
        <time>2013-09-18T13:13:53.000Z</time>
      </trkpt>
      <trkpt lat="43.48553" lon="6.78562">
        <ele>275</ele>
        <time>2013-09-18T13:13:54.000Z</time>
      </trkpt>
      <trkpt lat="43.4855" lon="6.7855">
        <ele>274</ele>
        <time>2013-09-18T13:13:55.000Z</time>
      </trkpt>
      <trkpt lat="43.48547" lon="6.78538">
        <ele>273</ele>
        <time>2013-09-18T13:13:56.000Z</time>
      </trkpt>
      <trkpt lat="43.48542" lon="6.78528">
        <ele>272</ele>
        <time>2013-09-18T13:13:57.000Z</time>
      </trkpt>
      <trkpt lat="43.48537" lon="6.7852">
        <ele>272</ele>
        <time>2013-09-18T13:13:58.000Z</time>
      </trkpt>
      <trkpt lat="43.48531" lon="6.78512">
        <ele>273</ele>
        <time>2013-09-18T13:13:59.000Z</time>
      </trkpt>
      <trkpt lat="43.48526" lon="6.78506">
        <ele>273</ele>
        <time>2013-09-18T13:14:00.000Z</time>
      </trkpt>
      <trkpt lat="43.4852" lon="6.78498">
        <ele>262</ele>
        <time>2013-09-18T13:14:01.000Z</time>
      </trkpt>
      <trkpt lat="43.48514" lon="6.78489">
        <ele>263</ele>
        <time>2013-09-18T13:14:02.000Z</time>
      </trkpt>
      <trkpt lat="43.48508" lon="6.7848">
        <ele>261</ele>
        <time>2013-09-18T13:14:03.000Z</time>
      </trkpt>
      <trkpt lat="43.48502" lon="6.7847">
        <ele>258</ele>
        <time>2013-09-18T13:14:04.000Z</time>
      </trkpt>
      <trkpt lat="43.48497" lon="6.7846">
        <ele>270</ele>
        <time>2013-09-18T13:14:05.000Z</time>
      </trkpt>
      <trkpt lat="43.48493" lon="6.78449">
        <ele>267</ele>
        <time>2013-09-18T13:14:06.000Z</time>
      </trkpt>
      <trkpt lat="43.4849" lon="6.78438">
        <ele>265</ele>
        <time>2013-09-18T13:14:07.000Z</time>
      </trkpt>
      <trkpt lat="43.48488" lon="6.78427">
        <ele>263</ele>
        <time>2013-09-18T13:14:08.000Z</time>
      </trkpt>
      <trkpt lat="43.48487" lon="6.78415">
        <ele>254</ele>
        <time>2013-09-18T13:14:09.000Z</time>
      </trkpt>
      <trkpt lat="43.48488" lon="6.78404">
        <ele>253</ele>
        <time>2013-09-18T13:14:10.000Z</time>
      </trkpt>
      <trkpt lat="43.48489" lon="6.78393">
        <ele>252</ele>
        <time>2013-09-18T13:14:11.000Z</time>
      </trkpt>
      <trkpt lat="43.48489" lon="6.78382">
        <ele>251</ele>
        <time>2013-09-18T13:14:12.000Z</time>
      </trkpt>
      <trkpt lat="43.48488" lon="6.78372">
        <ele>250</ele>
        <time>2013-09-18T13:14:13.000Z</time>
      </trkpt>
      <trkpt lat="43.48486" lon="6.78363">
        <ele>249</ele>
        <time>2013-09-18T13:14:14.000Z</time>
      </trkpt>
      <trkpt lat="43.48481" lon="6.78355">
        <ele>248</ele>
        <time>2013-09-18T13:14:15.000Z</time>
      </trkpt>
      <trkpt lat="43.48476" lon="6.78347">
        <ele>247</ele>
        <time>2013-09-18T13:14:16.000Z</time>
      </trkpt>
      <trkpt lat="43.48471" lon="6.78339">
        <ele>247</ele>
        <time>2013-09-18T13:14:17.000Z</time>
      </trkpt>
      <trkpt lat="43.48465" lon="6.78332">
        <ele>237</ele>
        <time>2013-09-18T13:14:18.000Z</time>
      </trkpt>
      <trkpt lat="43.48459" lon="6.78326">
        <ele>237</ele>
        <time>2013-09-18T13:14:19.000Z</time>
      </trkpt>
      <trkpt lat="43.48453" lon="6.78322">
        <ele>238</ele>
        <time>2013-09-18T13:14:20.000Z</time>
      </trkpt>
      <trkpt lat="43.48446" lon="6.78319">
        <ele>238</ele>
        <time>2013-09-18T13:14:21.000Z</time>
      </trkpt>
      <trkpt lat="43.48438" lon="6.78317">
        <ele>239</ele>
        <time>2013-09-18T13:14:22.000Z</time>
      </trkpt>
      <trkpt lat="43.48422" lon="6.78319">
        <ele>242</ele>
        <time>2013-09-18T13:14:24.000Z</time>
      </trkpt>
      <trkpt lat="43.48415" lon="6.78321">
        <ele>242</ele>
        <time>2013-09-18T13:14:25.000Z</time>
      </trkpt>
      <trkpt lat="43.48409" lon="6.78327">
        <ele>243</ele>
        <time>2013-09-18T13:14:26.000Z</time>
      </trkpt>
      <trkpt lat="43.48403" lon="6.78334">
        <ele>248</ele>
        <time>2013-09-18T13:14:27.000Z</time>
      </trkpt>
      <trkpt lat="43.48397" lon="6.78342">
        <ele>247</ele>
        <time>2013-09-18T13:14:28.000Z</time>
      </trkpt>
      <trkpt lat="43.48391" lon="6.7835">
        <ele>247</ele>
        <time>2013-09-18T13:14:29.000Z</time>
      </trkpt>
      <trkpt lat="43.48385" lon="6.78358">
        <ele>246</ele>
        <time>2013-09-18T13:14:30.000Z</time>
      </trkpt>
      <trkpt lat="43.48378" lon="6.78365">
        <ele>246</ele>
        <time>2013-09-18T13:14:31.000Z</time>
      </trkpt>
      <trkpt lat="43.48371" lon="6.78373">
        <ele>246</ele>
        <time>2013-09-18T13:14:32.000Z</time>
      </trkpt>
      <trkpt lat="43.48363" lon="6.7838">
        <ele>246</ele>
        <time>2013-09-18T13:14:33.000Z</time>
      </trkpt>
      <trkpt lat="43.48355" lon="6.78387">
        <ele>246</ele>
        <time>2013-09-18T13:14:34.000Z</time>
      </trkpt>
      <trkpt lat="43.48348" lon="6.78394">
        <ele>246</ele>
        <time>2013-09-18T13:14:35.000Z</time>
      </trkpt>
      <trkpt lat="43.4834" lon="6.78401">
        <ele>246</ele>
        <time>2013-09-18T13:14:36.000Z</time>
      </trkpt>
      <trkpt lat="43.48333" lon="6.78407">
        <ele>242</ele>
        <time>2013-09-18T13:14:37.000Z</time>
      </trkpt>
      <trkpt lat="43.48325" lon="6.78412">
        <ele>242</ele>
        <time>2013-09-18T13:14:38.000Z</time>
      </trkpt>
      <trkpt lat="43.48318" lon="6.78417">
        <ele>241</ele>
        <time>2013-09-18T13:14:39.000Z</time>
      </trkpt>
      <trkpt lat="43.4831" lon="6.7842">
        <ele>253</ele>
        <time>2013-09-18T13:14:40.000Z</time>
      </trkpt>
      <trkpt lat="43.48302" lon="6.78421">
        <ele>254</ele>
        <time>2013-09-18T13:14:41.000Z</time>
      </trkpt>
      <trkpt lat="43.48294" lon="6.78419">
        <ele>254</ele>
        <time>2013-09-18T13:14:42.000Z</time>
      </trkpt>
      <trkpt lat="43.48287" lon="6.78416">
        <ele>238</ele>
        <time>2013-09-18T13:14:43.000Z</time>
      </trkpt>
      <trkpt lat="43.48279" lon="6.78409">
        <ele>238</ele>
        <time>2013-09-18T13:14:44.000Z</time>
      </trkpt>
      <trkpt lat="43.48272" lon="6.78401">
        <ele>237</ele>
        <time>2013-09-18T13:14:45.000Z</time>
      </trkpt>
      <trkpt lat="43.48265" lon="6.78393">
        <ele>236</ele>
        <time>2013-09-18T13:14:46.000Z</time>
      </trkpt>
      <trkpt lat="43.48258" lon="6.78385">
        <ele>234</ele>
        <time>2013-09-18T13:14:47.000Z</time>
      </trkpt>
      <trkpt lat="43.48249" lon="6.78377">
        <ele>234</ele>
        <time>2013-09-18T13:14:48.000Z</time>
      </trkpt>
      <trkpt lat="43.4824" lon="6.78369">
        <ele>232</ele>
        <time>2013-09-18T13:14:49.000Z</time>
      </trkpt>
      <trkpt lat="43.48231" lon="6.7836">
        <ele>230</ele>
        <time>2013-09-18T13:14:50.000Z</time>
      </trkpt>
      <trkpt lat="43.48221" lon="6.78352">
        <ele>230</ele>
        <time>2013-09-18T13:14:51.000Z</time>
      </trkpt>
      <trkpt lat="43.48212" lon="6.78344">
        <ele>230</ele>
        <time>2013-09-18T13:14:52.000Z</time>
      </trkpt>
      <trkpt lat="43.48204" lon="6.78337">
        <ele>230</ele>
        <time>2013-09-18T13:14:53.000Z</time>
      </trkpt>
      <trkpt lat="43.48196" lon="6.78331">
        <ele>213</ele>
        <time>2013-09-18T13:14:54.000Z</time>
      </trkpt>
      <trkpt lat="43.48188" lon="6.78324">
        <ele>214</ele>
        <time>2013-09-18T13:14:55.000Z</time>
      </trkpt>
      <trkpt lat="43.4818" lon="6.78316">
        <ele>214</ele>
        <time>2013-09-18T13:14:56.000Z</time>
      </trkpt>
      <trkpt lat="43.48173" lon="6.78307">
        <ele>212</ele>
        <time>2013-09-18T13:14:57.000Z</time>
      </trkpt>
      <trkpt lat="43.48165" lon="6.78299">
        <ele>212</ele>
        <time>2013-09-18T13:14:58.000Z</time>
      </trkpt>
      <trkpt lat="43.48159" lon="6.78291">
        <ele>209</ele>
        <time>2013-09-18T13:14:59.000Z</time>
      </trkpt>
      <trkpt lat="43.48152" lon="6.78284">
        <ele>208</ele>
        <time>2013-09-18T13:15:00.000Z</time>
      </trkpt>
      <trkpt lat="43.48146" lon="6.78279">
        <ele>207</ele>
        <time>2013-09-18T13:15:01.000Z</time>
      </trkpt>
      <trkpt lat="43.4814" lon="6.78276">
        <ele>206</ele>
        <time>2013-09-18T13:15:02.000Z</time>
      </trkpt>
      <trkpt lat="43.48135" lon="6.78274">
        <ele>206</ele>
        <time>2013-09-18T13:15:03.000Z</time>
      </trkpt>
      <trkpt lat="43.4813" lon="6.78275">
        <ele>207</ele>
        <time>2013-09-18T13:15:04.000Z</time>
      </trkpt>
      <trkpt lat="43.48125" lon="6.78278">
        <ele>207</ele>
        <time>2013-09-18T13:15:05.000Z</time>
      </trkpt>
      <trkpt lat="43.4812" lon="6.78283">
        <ele>208</ele>
        <time>2013-09-18T13:15:06.000Z</time>
      </trkpt>
      <trkpt lat="43.48114" lon="6.78289">
        <ele>209</ele>
        <time>2013-09-18T13:15:07.000Z</time>
      </trkpt>
      <trkpt lat="43.48109" lon="6.78295">
        <ele>210</ele>
        <time>2013-09-18T13:15:08.000Z</time>
      </trkpt>
      <trkpt lat="43.48103" lon="6.783">
        <ele>211</ele>
        <time>2013-09-18T13:15:09.000Z</time>
      </trkpt>
      <trkpt lat="43.48097" lon="6.78304">
        <ele>212</ele>
        <time>2013-09-18T13:15:10.000Z</time>
      </trkpt>
      <trkpt lat="43.4809" lon="6.78305">
        <ele>212</ele>
        <time>2013-09-18T13:15:11.000Z</time>
      </trkpt>
      <trkpt lat="43.48084" lon="6.78304">
        <ele>212</ele>
        <time>2013-09-18T13:15:12.000Z</time>
      </trkpt>
      <trkpt lat="43.48078" lon="6.783">
        <ele>210</ele>
        <time>2013-09-18T13:15:13.000Z</time>
      </trkpt>
      <trkpt lat="43.48072" lon="6.78294">
        <ele>209</ele>
        <time>2013-09-18T13:15:14.000Z</time>
      </trkpt>
      <trkpt lat="43.48067" lon="6.78287">
        <ele>207</ele>
        <time>2013-09-18T13:15:15.000Z</time>
      </trkpt>
      <trkpt lat="43.48063" lon="6.7828">
        <ele>206</ele>
        <time>2013-09-18T13:15:16.000Z</time>
      </trkpt>
      <trkpt lat="43.48058" lon="6.78271">
        <ele>205</ele>
        <time>2013-09-18T13:15:17.000Z</time>
      </trkpt>
      <trkpt lat="43.48054" lon="6.78263">
        <ele>204</ele>
        <time>2013-09-18T13:15:18.000Z</time>
      </trkpt>
      <trkpt lat="43.48049" lon="6.78255">
        <ele>204</ele>
        <time>2013-09-18T13:15:19.000Z</time>
      </trkpt>
      <trkpt lat="43.48046" lon="6.78248">
        <ele>189</ele>
        <time>2013-09-18T13:15:20.000Z</time>
      </trkpt>
      <trkpt lat="43.48042" lon="6.78243">
        <ele>189</ele>
        <time>2013-09-18T13:15:21.000Z</time>
      </trkpt>
      <trkpt lat="43.48039" lon="6.78238">
        <ele>188</ele>
        <time>2013-09-18T13:15:22.000Z</time>
      </trkpt>
      <trkpt lat="43.48035" lon="6.78236">
        <ele>188</ele>
        <time>2013-09-18T13:15:23.000Z</time>
      </trkpt>
      <trkpt lat="43.4803" lon="6.78235">
        <ele>188</ele>
        <time>2013-09-18T13:15:24.000Z</time>
      </trkpt>
      <trkpt lat="43.48025" lon="6.78236">
        <ele>189</ele>
        <time>2013-09-18T13:15:25.000Z</time>
      </trkpt>
      <trkpt lat="43.4802" lon="6.78241">
        <ele>190</ele>
        <time>2013-09-18T13:15:26.000Z</time>
      </trkpt>
      <trkpt lat="43.48016" lon="6.78246">
        <ele>191</ele>
        <time>2013-09-18T13:15:27.000Z</time>
      </trkpt>
      <trkpt lat="43.48011" lon="6.78252">
        <ele>201</ele>
        <time>2013-09-18T13:15:28.000Z</time>
      </trkpt>
      <trkpt lat="43.48006" lon="6.78257">
        <ele>200</ele>
        <time>2013-09-18T13:15:29.000Z</time>
      </trkpt>
      <trkpt lat="43.48" lon="6.7826">
        <ele>201</ele>
        <time>2013-09-18T13:15:30.000Z</time>
      </trkpt>
      <trkpt lat="43.47995" lon="6.7826">
        <ele>200</ele>
        <time>2013-09-18T13:15:31.000Z</time>
      </trkpt>
      <trkpt lat="43.47988" lon="6.78259">
        <ele>201</ele>
        <time>2013-09-18T13:15:32.000Z</time>
      </trkpt>
      <trkpt lat="43.47982" lon="6.78256">
        <ele>201</ele>
        <time>2013-09-18T13:15:33.000Z</time>
      </trkpt>
      <trkpt lat="43.47977" lon="6.78252">
        <ele>202</ele>
        <time>2013-09-18T13:15:34.000Z</time>
      </trkpt>
      <trkpt lat="43.47971" lon="6.78247">
        <ele>193</ele>
        <time>2013-09-18T13:15:35.000Z</time>
      </trkpt>
      <trkpt lat="43.47965" lon="6.78242">
        <ele>193</ele>
        <time>2013-09-18T13:15:36.000Z</time>
      </trkpt>
      <trkpt lat="43.47959" lon="6.78236">
        <ele>193</ele>
        <time>2013-09-18T13:15:37.000Z</time>
      </trkpt>
      <trkpt lat="43.47952" lon="6.7823">
        <ele>192</ele>
        <time>2013-09-18T13:15:38.000Z</time>
      </trkpt>
      <trkpt lat="43.47946" lon="6.78223">
        <ele>192</ele>
        <time>2013-09-18T13:15:39.000Z</time>
      </trkpt>
      <trkpt lat="43.47939" lon="6.78216">
        <ele>191</ele>
        <time>2013-09-18T13:15:40.000Z</time>
      </trkpt>
      <trkpt lat="43.47932" lon="6.78208">
        <ele>190</ele>
        <time>2013-09-18T13:15:41.000Z</time>
      </trkpt>
      <trkpt lat="43.47926" lon="6.78199">
        <ele>189</ele>
        <time>2013-09-18T13:15:42.000Z</time>
      </trkpt>
      <trkpt lat="43.4792" lon="6.7819">
        <ele>188</ele>
        <time>2013-09-18T13:15:43.000Z</time>
      </trkpt>
      <trkpt lat="43.47914" lon="6.7818">
        <ele>189</ele>
        <time>2013-09-18T13:15:44.000Z</time>
      </trkpt>
      <trkpt lat="43.47908" lon="6.7817">
        <ele>188</ele>
        <time>2013-09-18T13:15:45.000Z</time>
      </trkpt>
      <trkpt lat="43.47901" lon="6.78159">
        <ele>183</ele>
        <time>2013-09-18T13:15:46.000Z</time>
      </trkpt>
      <trkpt lat="43.47894" lon="6.78149">
        <ele>182</ele>
        <time>2013-09-18T13:15:47.000Z</time>
      </trkpt>
      <trkpt lat="43.47888" lon="6.78139">
        <ele>182</ele>
        <time>2013-09-18T13:15:48.000Z</time>
      </trkpt>
      <trkpt lat="43.47881" lon="6.78129">
        <ele>181</ele>
        <time>2013-09-18T13:15:49.000Z</time>
      </trkpt>
      <trkpt lat="43.47875" lon="6.7812">
        <ele>181</ele>
        <time>2013-09-18T13:15:50.000Z</time>
      </trkpt>
      <trkpt lat="43.4787" lon="6.78111">
        <ele>181</ele>
        <time>2013-09-18T13:15:51.000Z</time>
      </trkpt>
      <trkpt lat="43.47864" lon="6.78103">
        <ele>181</ele>
        <time>2013-09-18T13:15:52.000Z</time>
      </trkpt>
      <trkpt lat="43.47859" lon="6.78095">
        <ele>181</ele>
        <time>2013-09-18T13:15:53.000Z</time>
      </trkpt>
      <trkpt lat="43.47855" lon="6.78088">
        <ele>181</ele>
        <time>2013-09-18T13:15:54.000Z</time>
      </trkpt>
      <trkpt lat="43.4785" lon="6.78081">
        <ele>172</ele>
        <time>2013-09-18T13:15:55.000Z</time>
      </trkpt>
      <trkpt lat="43.47847" lon="6.78076">
        <ele>172</ele>
        <time>2013-09-18T13:15:56.000Z</time>
      </trkpt>
      <trkpt lat="43.47843" lon="6.7807">
        <ele>172</ele>
        <time>2013-09-18T13:15:57.000Z</time>
      </trkpt>
      <trkpt lat="43.47839" lon="6.78064">
        <ele>171</ele>
        <time>2013-09-18T13:15:58.000Z</time>
      </trkpt>
      <trkpt lat="43.47834" lon="6.78058">
        <ele>169</ele>
        <time>2013-09-18T13:15:59.000Z</time>
      </trkpt>
      <trkpt lat="43.47828" lon="6.78052">
        <ele>177</ele>
        <time>2013-09-18T13:16:00.000Z</time>
      </trkpt>
      <trkpt lat="43.47822" lon="6.78047">
        <ele>176</ele>
        <time>2013-09-18T13:16:01.000Z</time>
      </trkpt>
      <trkpt lat="43.47814" lon="6.78041">
        <ele>175</ele>
        <time>2013-09-18T13:16:02.000Z</time>
      </trkpt>
      <trkpt lat="43.47806" lon="6.78036">
        <ele>174</ele>
        <time>2013-09-18T13:16:03.000Z</time>
      </trkpt>
      <trkpt lat="43.47798" lon="6.78032">
        <ele>174</ele>
        <time>2013-09-18T13:16:04.000Z</time>
      </trkpt>
      <trkpt lat="43.47789" lon="6.78028">
        <ele>174</ele>
        <time>2013-09-18T13:16:05.000Z</time>
      </trkpt>
      <trkpt lat="43.47781" lon="6.78022">
        <ele>174</ele>
        <time>2013-09-18T13:16:06.000Z</time>
      </trkpt>
      <trkpt lat="43.47773" lon="6.78015">
        <ele>174</ele>
        <time>2013-09-18T13:16:07.000Z</time>
      </trkpt>
      <trkpt lat="43.47765" lon="6.78006">
        <ele>173</ele>
        <time>2013-09-18T13:16:08.000Z</time>
      </trkpt>
      <trkpt lat="43.47757" lon="6.77997">
        <ele>165</ele>
        <time>2013-09-18T13:16:09.000Z</time>
      </trkpt>
      <trkpt lat="43.4775" lon="6.77987">
        <ele>165</ele>
        <time>2013-09-18T13:16:10.000Z</time>
      </trkpt>
      <trkpt lat="43.47743" lon="6.77979">
        <ele>162</ele>
        <time>2013-09-18T13:16:11.000Z</time>
      </trkpt>
      <trkpt lat="43.47736" lon="6.77973">
        <ele>160</ele>
        <time>2013-09-18T13:16:12.000Z</time>
      </trkpt>
      <trkpt lat="43.47728" lon="6.77968">
        <ele>159</ele>
        <time>2013-09-18T13:16:13.000Z</time>
      </trkpt>
      <trkpt lat="43.47721" lon="6.77965">
        <ele>158</ele>
        <time>2013-09-18T13:16:14.000Z</time>
      </trkpt>
      <trkpt lat="43.47714" lon="6.77963">
        <ele>158</ele>
        <time>2013-09-18T13:16:15.000Z</time>
      </trkpt>
      <trkpt lat="43.47706" lon="6.77962">
        <ele>157</ele>
        <time>2013-09-18T13:16:16.000Z</time>
      </trkpt>
      <trkpt lat="43.47697" lon="6.77963">
        <ele>157</ele>
        <time>2013-09-18T13:16:17.000Z</time>
      </trkpt>
      <trkpt lat="43.47688" lon="6.77964">
        <ele>157</ele>
        <time>2013-09-18T13:16:18.000Z</time>
      </trkpt>
      <trkpt lat="43.47678" lon="6.77966">
        <ele>157</ele>
        <time>2013-09-18T13:16:19.000Z</time>
      </trkpt>
      <trkpt lat="43.47669" lon="6.77969">
        <ele>158</ele>
        <time>2013-09-18T13:16:20.000Z</time>
      </trkpt>
      <trkpt lat="43.47659" lon="6.77973">
        <ele>151</ele>
        <time>2013-09-18T13:16:21.000Z</time>
      </trkpt>
      <trkpt lat="43.4765" lon="6.77979">
        <ele>151</ele>
        <time>2013-09-18T13:16:22.000Z</time>
      </trkpt>
      <trkpt lat="43.47641" lon="6.77986">
        <ele>151</ele>
        <time>2013-09-18T13:16:23.000Z</time>
      </trkpt>
      <trkpt lat="43.47633" lon="6.77993">
        <ele>150</ele>
        <time>2013-09-18T13:16:24.000Z</time>
      </trkpt>
      <trkpt lat="43.47625" lon="6.78001">
        <ele>159</ele>
        <time>2013-09-18T13:16:25.000Z</time>
      </trkpt>
      <trkpt lat="43.47617" lon="6.78008">
        <ele>158</ele>
        <time>2013-09-18T13:16:26.000Z</time>
      </trkpt>
      <trkpt lat="43.47609" lon="6.78016">
        <ele>157</ele>
        <time>2013-09-18T13:16:27.000Z</time>
      </trkpt>
      <trkpt lat="43.476" lon="6.78023">
        <ele>157</ele>
        <time>2013-09-18T13:16:28.000Z</time>
      </trkpt>
      <trkpt lat="43.47592" lon="6.78032">
        <ele>157</ele>
        <time>2013-09-18T13:16:29.000Z</time>
      </trkpt>
      <trkpt lat="43.47583" lon="6.78041">
        <ele>147</ele>
        <time>2013-09-18T13:16:30.000Z</time>
      </trkpt>
      <trkpt lat="43.47574" lon="6.78051">
        <ele>148</ele>
        <time>2013-09-18T13:16:31.000Z</time>
      </trkpt>
      <trkpt lat="43.47566" lon="6.7806">
        <ele>148</ele>
        <time>2013-09-18T13:16:32.000Z</time>
      </trkpt>
      <trkpt lat="43.47558" lon="6.78068">
        <ele>148</ele>
        <time>2013-09-18T13:16:33.000Z</time>
      </trkpt>
      <trkpt lat="43.4755" lon="6.78076">
        <ele>147</ele>
        <time>2013-09-18T13:16:34.000Z</time>
      </trkpt>
      <trkpt lat="43.47541" lon="6.78082">
        <ele>146</ele>
        <time>2013-09-18T13:16:35.000Z</time>
      </trkpt>
      <trkpt lat="43.47532" lon="6.78087">
        <ele>146</ele>
        <time>2013-09-18T13:16:36.000Z</time>
      </trkpt>
      <trkpt lat="43.47524" lon="6.78089">
        <ele>145</ele>
        <time>2013-09-18T13:16:37.000Z</time>
      </trkpt>
      <trkpt lat="43.47515" lon="6.7809">
        <ele>144</ele>
        <time>2013-09-18T13:16:38.000Z</time>
      </trkpt>
      <trkpt lat="43.47507" lon="6.78089">
        <ele>142</ele>
        <time>2013-09-18T13:16:39.000Z</time>
      </trkpt>
      <trkpt lat="43.47499" lon="6.78086">
        <ele>139</ele>
        <time>2013-09-18T13:16:40.000Z</time>
      </trkpt>
      <trkpt lat="43.47492" lon="6.78084">
        <ele>139</ele>
        <time>2013-09-18T13:16:41.000Z</time>
      </trkpt>
      <trkpt lat="43.47485" lon="6.78081">
        <ele>140</ele>
        <time>2013-09-18T13:16:42.000Z</time>
      </trkpt>
      <trkpt lat="43.47478" lon="6.7808">
        <ele>140</ele>
        <time>2013-09-18T13:16:43.000Z</time>
      </trkpt>
      <trkpt lat="43.47471" lon="6.7808">
        <ele>141</ele>
        <time>2013-09-18T13:16:44.000Z</time>
      </trkpt>
      <trkpt lat="43.47464" lon="6.78081">
        <ele>141</ele>
        <time>2013-09-18T13:16:45.000Z</time>
      </trkpt>
      <trkpt lat="43.47457" lon="6.78083">
        <ele>141</ele>
        <time>2013-09-18T13:16:46.000Z</time>
      </trkpt>
      <trkpt lat="43.47451" lon="6.78087">
        <ele>138</ele>
        <time>2013-09-18T13:16:47.000Z</time>
      </trkpt>
      <trkpt lat="43.47445" lon="6.78091">
        <ele>138</ele>
        <time>2013-09-18T13:16:48.000Z</time>
      </trkpt>
      <trkpt lat="43.47439" lon="6.78097">
        <ele>138</ele>
        <time>2013-09-18T13:16:49.000Z</time>
      </trkpt>
      <trkpt lat="43.47433" lon="6.78103">
        <ele>138</ele>
        <time>2013-09-18T13:16:50.000Z</time>
      </trkpt>
      <trkpt lat="43.47427" lon="6.7811">
        <ele>137</ele>
        <time>2013-09-18T13:16:51.000Z</time>
      </trkpt>
      <trkpt lat="43.47422" lon="6.78116">
        <ele>136</ele>
        <time>2013-09-18T13:16:52.000Z</time>
      </trkpt>
      <trkpt lat="43.47417" lon="6.78123">
        <ele>135</ele>
        <time>2013-09-18T13:16:53.000Z</time>
      </trkpt>
      <trkpt lat="43.47413" lon="6.78129">
        <ele>132</ele>
        <time>2013-09-18T13:16:54.000Z</time>
      </trkpt>
      <trkpt lat="43.47408" lon="6.78135">
        <ele>131</ele>
        <time>2013-09-18T13:16:55.000Z</time>
      </trkpt>
      <trkpt lat="43.47404" lon="6.7814">
        <ele>130</ele>
        <time>2013-09-18T13:16:56.000Z</time>
      </trkpt>
      <trkpt lat="43.47399" lon="6.78143">
        <ele>130</ele>
        <time>2013-09-18T13:16:57.000Z</time>
      </trkpt>
      <trkpt lat="43.47395" lon="6.78144">
        <ele>130</ele>
        <time>2013-09-18T13:16:58.000Z</time>
      </trkpt>
      <trkpt lat="43.4739" lon="6.78143">
        <ele>130</ele>
        <time>2013-09-18T13:16:59.000Z</time>
      </trkpt>
      <trkpt lat="43.47385" lon="6.78141">
        <ele>130</ele>
        <time>2013-09-18T13:17:00.000Z</time>
      </trkpt>
      <trkpt lat="43.4738" lon="6.78137">
        <ele>130</ele>
        <time>2013-09-18T13:17:01.000Z</time>
      </trkpt>
      <trkpt lat="43.47375" lon="6.78133">
        <ele>131</ele>
        <time>2013-09-18T13:17:02.000Z</time>
      </trkpt>
      <trkpt lat="43.47369" lon="6.78131">
        <ele>131</ele>
        <time>2013-09-18T13:17:03.000Z</time>
      </trkpt>
      <trkpt lat="43.47363" lon="6.78129">
        <ele>131</ele>
        <time>2013-09-18T13:17:04.000Z</time>
      </trkpt>
      <trkpt lat="43.47357" lon="6.78128">
        <ele>131</ele>
        <time>2013-09-18T13:17:05.000Z</time>
      </trkpt>
      <trkpt lat="43.47351" lon="6.78129">
        <ele>130</ele>
        <time>2013-09-18T13:17:06.000Z</time>
      </trkpt>
      <trkpt lat="43.47344" lon="6.78128">
        <ele>130</ele>
        <time>2013-09-18T13:17:07.000Z</time>
      </trkpt>
      <trkpt lat="43.47337" lon="6.78127">
        <ele>130</ele>
        <time>2013-09-18T13:17:08.000Z</time>
      </trkpt>
      <trkpt lat="43.4733" lon="6.78124">
        <ele>124</ele>
        <time>2013-09-18T13:17:09.000Z</time>
      </trkpt>
      <trkpt lat="43.47324" lon="6.78121">
        <ele>124</ele>
        <time>2013-09-18T13:17:10.000Z</time>
      </trkpt>
      <trkpt lat="43.47317" lon="6.78116">
        <ele>124</ele>
        <time>2013-09-18T13:17:11.000Z</time>
      </trkpt>
      <trkpt lat="43.47312" lon="6.7811">
        <ele>125</ele>
        <time>2013-09-18T13:17:12.000Z</time>
      </trkpt>
      <trkpt lat="43.47306" lon="6.78104">
        <ele>125</ele>
        <time>2013-09-18T13:17:13.000Z</time>
      </trkpt>
      <trkpt lat="43.473" lon="6.78097">
        <ele>125</ele>
        <time>2013-09-18T13:17:14.000Z</time>
      </trkpt>
      <trkpt lat="43.47294" lon="6.78092">
        <ele>124</ele>
        <time>2013-09-18T13:17:15.000Z</time>
      </trkpt>
      <trkpt lat="43.47286" lon="6.78088">
        <ele>123</ele>
        <time>2013-09-18T13:17:16.000Z</time>
      </trkpt>
      <trkpt lat="43.47279" lon="6.78086">
        <ele>122</ele>
        <time>2013-09-18T13:17:17.000Z</time>
      </trkpt>
      <trkpt lat="43.47271" lon="6.78084">
        <ele>121</ele>
        <time>2013-09-18T13:17:18.000Z</time>
      </trkpt>
      <trkpt lat="43.47264" lon="6.78081">
        <ele>126</ele>
        <time>2013-09-18T13:17:19.000Z</time>
      </trkpt>
      <trkpt lat="43.47258" lon="6.78077">
        <ele>124</ele>
        <time>2013-09-18T13:17:20.000Z</time>
      </trkpt>
      <trkpt lat="43.47252" lon="6.7807">
        <ele>125</ele>
        <time>2013-09-18T13:17:21.000Z</time>
      </trkpt>
      <trkpt lat="43.47248" lon="6.78063">
        <ele>120</ele>
        <time>2013-09-18T13:17:22.000Z</time>
      </trkpt>
      <trkpt lat="43.47243" lon="6.78055">
        <ele>120</ele>
        <time>2013-09-18T13:17:23.000Z</time>
      </trkpt>
      <trkpt lat="43.47239" lon="6.78046">
        <ele>121</ele>
        <time>2013-09-18T13:17:24.000Z</time>
      </trkpt>
      <trkpt lat="43.47235" lon="6.78038">
        <ele>121</ele>
        <time>2013-09-18T13:17:25.000Z</time>
      </trkpt>
      <trkpt lat="43.47231" lon="6.78029">
        <ele>122</ele>
        <time>2013-09-18T13:17:26.000Z</time>
      </trkpt>
      <trkpt lat="43.47228" lon="6.78019">
        <ele>122</ele>
        <time>2013-09-18T13:17:27.000Z</time>
      </trkpt>
      <trkpt lat="43.47225" lon="6.7801">
        <ele>123</ele>
        <time>2013-09-18T13:17:28.000Z</time>
      </trkpt>
      <trkpt lat="43.47222" lon="6.78">
        <ele>123</ele>
        <time>2013-09-18T13:17:29.000Z</time>
      </trkpt>
      <trkpt lat="43.4722" lon="6.77991">
        <ele>125</ele>
        <time>2013-09-18T13:17:30.000Z</time>
      </trkpt>
      <trkpt lat="43.47219" lon="6.77982">
        <ele>125</ele>
        <time>2013-09-18T13:17:31.000Z</time>
      </trkpt>
      <trkpt lat="43.47219" lon="6.77964">
        <ele>124</ele>
        <time>2013-09-18T13:17:33.000Z</time>
      </trkpt>
      <trkpt lat="43.4722" lon="6.77955">
        <ele>124</ele>
        <time>2013-09-18T13:17:34.000Z</time>
      </trkpt>
      <trkpt lat="43.47219" lon="6.77935">
        <ele>124</ele>
        <time>2013-09-18T13:17:36.000Z</time>
      </trkpt>
      <trkpt lat="43.47217" lon="6.77925">
        <ele>124</ele>
        <time>2013-09-18T13:17:37.000Z</time>
      </trkpt>
      <trkpt lat="43.47214" lon="6.77915">
        <ele>123</ele>
        <time>2013-09-18T13:17:38.000Z</time>
      </trkpt>
      <trkpt lat="43.4721" lon="6.77906">
        <ele>123</ele>
        <time>2013-09-18T13:17:39.000Z</time>
      </trkpt>
      <trkpt lat="43.47204" lon="6.77897">
        <ele>122</ele>
        <time>2013-09-18T13:17:40.000Z</time>
      </trkpt>
      <trkpt lat="43.47198" lon="6.77889">
        <ele>122</ele>
        <time>2013-09-18T13:17:41.000Z</time>
      </trkpt>
      <trkpt lat="43.47191" lon="6.77883">
        <ele>121</ele>
        <time>2013-09-18T13:17:42.000Z</time>
      </trkpt>
      <trkpt lat="43.47184" lon="6.77877">
        <ele>121</ele>
        <time>2013-09-18T13:17:43.000Z</time>
      </trkpt>
      <trkpt lat="43.47177" lon="6.77873">
        <ele>121</ele>
        <time>2013-09-18T13:17:44.000Z</time>
      </trkpt>
      <trkpt lat="43.4717" lon="6.7787">
        <ele>120</ele>
        <time>2013-09-18T13:17:45.000Z</time>
      </trkpt>
      <trkpt lat="43.47163" lon="6.77869">
        <ele>113</ele>
        <time>2013-09-18T13:17:46.000Z</time>
      </trkpt>
      <trkpt lat="43.47156" lon="6.7787">
        <ele>113</ele>
        <time>2013-09-18T13:17:47.000Z</time>
      </trkpt>
      <trkpt lat="43.47149" lon="6.77871">
        <ele>113</ele>
        <time>2013-09-18T13:17:48.000Z</time>
      </trkpt>
      <trkpt lat="43.47142" lon="6.77873">
        <ele>112</ele>
        <time>2013-09-18T13:17:49.000Z</time>
      </trkpt>
      <trkpt lat="43.47135" lon="6.77875">
        <ele>112</ele>
        <time>2013-09-18T13:17:50.000Z</time>
      </trkpt>
      <trkpt lat="43.47128" lon="6.77876">
        <ele>111</ele>
        <time>2013-09-18T13:17:51.000Z</time>
      </trkpt>
      <trkpt lat="43.47122" lon="6.77874">
        <ele>111</ele>
        <time>2013-09-18T13:17:52.000Z</time>
      </trkpt>
      <trkpt lat="43.47116" lon="6.77871">
        <ele>111</ele>
        <time>2013-09-18T13:17:53.000Z</time>
      </trkpt>
      <trkpt lat="43.4711" lon="6.77866">
        <ele>110</ele>
        <time>2013-09-18T13:17:54.000Z</time>
      </trkpt>
      <trkpt lat="43.47105" lon="6.77859">
        <ele>110</ele>
        <time>2013-09-18T13:17:55.000Z</time>
      </trkpt>
      <trkpt lat="43.471" lon="6.77852">
        <ele>110</ele>
        <time>2013-09-18T13:17:56.000Z</time>
      </trkpt>
      <trkpt lat="43.47094" lon="6.77845">
        <ele>110</ele>
        <time>2013-09-18T13:17:57.000Z</time>
      </trkpt>
      <trkpt lat="43.47087" lon="6.77839">
        <ele>109</ele>
        <time>2013-09-18T13:17:58.000Z</time>
      </trkpt>
      <trkpt lat="43.47079" lon="6.77834">
        <ele>108</ele>
        <time>2013-09-18T13:17:59.000Z</time>
      </trkpt>
      <trkpt lat="43.47072" lon="6.77829">
        <ele>108</ele>
        <time>2013-09-18T13:18:00.000Z</time>
      </trkpt>
      <trkpt lat="43.47064" lon="6.77827">
        <ele>107</ele>
        <time>2013-09-18T13:18:01.000Z</time>
      </trkpt>
      <trkpt lat="43.47056" lon="6.77827">
        <ele>107</ele>
        <time>2013-09-18T13:18:02.000Z</time>
      </trkpt>
      <trkpt lat="43.4705" lon="6.77829">
        <ele>107</ele>
        <time>2013-09-18T13:18:03.000Z</time>
      </trkpt>
      <trkpt lat="43.47044" lon="6.77832">
        <ele>107</ele>
        <time>2013-09-18T13:18:04.000Z</time>
      </trkpt>
      <trkpt lat="43.47038" lon="6.77837">
        <ele>106</ele>
        <time>2013-09-18T13:18:05.000Z</time>
      </trkpt>
      <trkpt lat="43.47034" lon="6.77845">
        <ele>106</ele>
        <time>2013-09-18T13:18:06.000Z</time>
      </trkpt>
      <trkpt lat="43.47032" lon="6.77853">
        <ele>106</ele>
        <time>2013-09-18T13:18:07.000Z</time>
      </trkpt>
      <trkpt lat="43.47029" lon="6.77862">
        <ele>106</ele>
        <time>2013-09-18T13:18:08.000Z</time>
      </trkpt>
      <trkpt lat="43.47027" lon="6.77871">
        <ele>105</ele>
        <time>2013-09-18T13:18:09.000Z</time>
      </trkpt>
      <trkpt lat="43.47024" lon="6.7788">
        <ele>105</ele>
        <time>2013-09-18T13:18:10.000Z</time>
      </trkpt>
      <trkpt lat="43.4702" lon="6.77889">
        <ele>105</ele>
        <time>2013-09-18T13:18:11.000Z</time>
      </trkpt>
      <trkpt lat="43.47016" lon="6.77897">
        <ele>104</ele>
        <time>2013-09-18T13:18:12.000Z</time>
      </trkpt>
      <trkpt lat="43.47011" lon="6.77906">
        <ele>103</ele>
        <time>2013-09-18T13:18:13.000Z</time>
      </trkpt>
      <trkpt lat="43.47006" lon="6.77914">
        <ele>103</ele>
        <time>2013-09-18T13:18:14.000Z</time>
      </trkpt>
      <trkpt lat="43.47" lon="6.77921">
        <ele>102</ele>
        <time>2013-09-18T13:18:15.000Z</time>
      </trkpt>
      <trkpt lat="43.46994" lon="6.77928">
        <ele>100</ele>
        <time>2013-09-18T13:18:16.000Z</time>
      </trkpt>
      <trkpt lat="43.46986" lon="6.77934">
        <ele>99</ele>
        <time>2013-09-18T13:18:17.000Z</time>
      </trkpt>
      <trkpt lat="43.46978" lon="6.7794">
        <ele>98</ele>
        <time>2013-09-18T13:18:18.000Z</time>
      </trkpt>
      <trkpt lat="43.4697" lon="6.77947">
        <ele>97</ele>
        <time>2013-09-18T13:18:19.000Z</time>
      </trkpt>
      <trkpt lat="43.46961" lon="6.77953">
        <ele>97</ele>
        <time>2013-09-18T13:18:20.000Z</time>
      </trkpt>
      <trkpt lat="43.46953" lon="6.7796">
        <ele>96</ele>
        <time>2013-09-18T13:18:21.000Z</time>
      </trkpt>
      <trkpt lat="43.46945" lon="6.77966">
        <ele>96</ele>
        <time>2013-09-18T13:18:22.000Z</time>
      </trkpt>
      <trkpt lat="43.46937" lon="6.77972">
        <ele>95</ele>
        <time>2013-09-18T13:18:23.000Z</time>
      </trkpt>
      <trkpt lat="43.4693" lon="6.77976">
        <ele>95</ele>
        <time>2013-09-18T13:18:24.000Z</time>
      </trkpt>
      <trkpt lat="43.46923" lon="6.77983">
        <ele>94</ele>
        <time>2013-09-18T13:18:25.000Z</time>
      </trkpt>
      <trkpt lat="43.46918" lon="6.77992">
        <ele>93</ele>
        <time>2013-09-18T13:18:26.000Z</time>
      </trkpt>
      <trkpt lat="43.46914" lon="6.78003">
        <ele>91</ele>
        <time>2013-09-18T13:18:27.000Z</time>
      </trkpt>
      <trkpt lat="43.46911" lon="6.78013">
        <ele>90</ele>
        <time>2013-09-18T13:18:28.000Z</time>
      </trkpt>
      <trkpt lat="43.46907" lon="6.78023">
        <ele>89</ele>
        <time>2013-09-18T13:18:29.000Z</time>
      </trkpt>
      <trkpt lat="43.46902" lon="6.78031">
        <ele>88</ele>
        <time>2013-09-18T13:18:30.000Z</time>
      </trkpt>
      <trkpt lat="43.46898" lon="6.78037">
        <ele>88</ele>
        <time>2013-09-18T13:18:31.000Z</time>
      </trkpt>
      <trkpt lat="43.46893" lon="6.78042">
        <ele>88</ele>
        <time>2013-09-18T13:18:32.000Z</time>
      </trkpt>
      <trkpt lat="43.46887" lon="6.78046">
        <ele>88</ele>
        <time>2013-09-18T13:18:33.000Z</time>
      </trkpt>
      <trkpt lat="43.46881" lon="6.78049">
        <ele>88</ele>
        <time>2013-09-18T13:18:34.000Z</time>
      </trkpt>
      <trkpt lat="43.46874" lon="6.78052">
        <ele>88</ele>
        <time>2013-09-18T13:18:35.000Z</time>
      </trkpt>
      <trkpt lat="43.46867" lon="6.78055">
        <ele>88</ele>
        <time>2013-09-18T13:18:36.000Z</time>
      </trkpt>
      <trkpt lat="43.4686" lon="6.78058">
        <ele>88</ele>
        <time>2013-09-18T13:18:37.000Z</time>
      </trkpt>
      <trkpt lat="43.46853" lon="6.78061">
        <ele>87</ele>
        <time>2013-09-18T13:18:38.000Z</time>
      </trkpt>
      <trkpt lat="43.46846" lon="6.78064">
        <ele>87</ele>
        <time>2013-09-18T13:18:39.000Z</time>
      </trkpt>
      <trkpt lat="43.46839" lon="6.78069">
        <ele>87</ele>
        <time>2013-09-18T13:18:40.000Z</time>
      </trkpt>
      <trkpt lat="43.46832" lon="6.78072">
        <ele>88</ele>
        <time>2013-09-18T13:18:41.000Z</time>
      </trkpt>
      <trkpt lat="43.46824" lon="6.78076">
        <ele>88</ele>
        <time>2013-09-18T13:18:42.000Z</time>
      </trkpt>
      <trkpt lat="43.46816" lon="6.7808">
        <ele>89</ele>
        <time>2013-09-18T13:18:43.000Z</time>
      </trkpt>
      <trkpt lat="43.46809" lon="6.78085">
        <ele>85</ele>
        <time>2013-09-18T13:18:44.000Z</time>
      </trkpt>
      <trkpt lat="43.46801" lon="6.7809">
        <ele>86</ele>
        <time>2013-09-18T13:18:45.000Z</time>
      </trkpt>
      <trkpt lat="43.46794" lon="6.78096">
        <ele>86</ele>
        <time>2013-09-18T13:18:46.000Z</time>
      </trkpt>
      <trkpt lat="43.46786" lon="6.78102">
        <ele>86</ele>
        <time>2013-09-18T13:18:47.000Z</time>
      </trkpt>
      <trkpt lat="43.46779" lon="6.78108">
        <ele>86</ele>
        <time>2013-09-18T13:18:48.000Z</time>
      </trkpt>
      <trkpt lat="43.4677" lon="6.78114">
        <ele>85</ele>
        <time>2013-09-18T13:18:49.000Z</time>
      </trkpt>
      <trkpt lat="43.46762" lon="6.7812">
        <ele>85</ele>
        <time>2013-09-18T13:18:50.000Z</time>
      </trkpt>
      <trkpt lat="43.46754" lon="6.78126">
        <ele>84</ele>
        <time>2013-09-18T13:18:51.000Z</time>
      </trkpt>
      <trkpt lat="43.46746" lon="6.78133">
        <ele>82</ele>
        <time>2013-09-18T13:18:52.000Z</time>
      </trkpt>
      <trkpt lat="43.46739" lon="6.78138">
        <ele>82</ele>
        <time>2013-09-18T13:18:53.000Z</time>
      </trkpt>
      <trkpt lat="43.46732" lon="6.78142">
        <ele>81</ele>
        <time>2013-09-18T13:18:54.000Z</time>
      </trkpt>
      <trkpt lat="43.46726" lon="6.78147">
        <ele>81</ele>
        <time>2013-09-18T13:18:55.000Z</time>
      </trkpt>
      <trkpt lat="43.4672" lon="6.78151">
        <ele>81</ele>
        <time>2013-09-18T13:18:56.000Z</time>
      </trkpt>
      <trkpt lat="43.46715" lon="6.78153">
        <ele>80</ele>
        <time>2013-09-18T13:18:57.000Z</time>
      </trkpt>
      <trkpt lat="43.46708" lon="6.78155">
        <ele>80</ele>
        <time>2013-09-18T13:18:58.000Z</time>
      </trkpt>
      <trkpt lat="43.46692" lon="6.78154">
        <ele>80</ele>
        <time>2013-09-18T13:19:00.000Z</time>
      </trkpt>
      <trkpt lat="43.46683" lon="6.78153">
        <ele>79</ele>
        <time>2013-09-18T13:19:01.000Z</time>
      </trkpt>
      <trkpt lat="43.46674" lon="6.78152">
        <ele>78</ele>
        <time>2013-09-18T13:19:02.000Z</time>
      </trkpt>
      <trkpt lat="43.46666" lon="6.78151">
        <ele>76</ele>
        <time>2013-09-18T13:19:03.000Z</time>
      </trkpt>
      <trkpt lat="43.46658" lon="6.78149">
        <ele>77</ele>
        <time>2013-09-18T13:19:04.000Z</time>
      </trkpt>
      <trkpt lat="43.46652" lon="6.78148">
        <ele>77</ele>
        <time>2013-09-18T13:19:05.000Z</time>
      </trkpt>
      <trkpt lat="43.46647" lon="6.78146">
        <ele>77</ele>
        <time>2013-09-18T13:19:06.000Z</time>
      </trkpt>
      <trkpt lat="43.46643" lon="6.78144">
        <ele>77</ele>
        <time>2013-09-18T13:19:07.000Z</time>
      </trkpt>
      <trkpt lat="43.46639" lon="6.78142">
        <ele>77</ele>
        <time>2013-09-18T13:19:08.000Z</time>
      </trkpt>
      <trkpt lat="43.46634" lon="6.78139">
        <ele>77</ele>
        <time>2013-09-18T13:19:09.000Z</time>
      </trkpt>
      <trkpt lat="43.4663" lon="6.78137">
        <ele>77</ele>
        <time>2013-09-18T13:19:10.000Z</time>
      </trkpt>
      <trkpt lat="43.46626" lon="6.78135">
        <ele>77</ele>
        <time>2013-09-18T13:19:11.000Z</time>
      </trkpt>
      <trkpt lat="43.46623" lon="6.78134">
        <ele>77</ele>
        <time>2013-09-18T13:19:12.000Z</time>
      </trkpt>
      <trkpt lat="43.46621" lon="6.78134">
        <ele>77</ele>
        <time>2013-09-18T13:19:13.000Z</time>
      </trkpt>
      <trkpt lat="43.46615" lon="6.78134">
        <ele>77</ele>
        <time>2013-09-18T13:19:16.000Z</time>
      </trkpt>
      <trkpt lat="43.46613" lon="6.78132">
        <ele>77</ele>
        <time>2013-09-18T13:19:17.000Z</time>
      </trkpt>
      <trkpt lat="43.4661" lon="6.7813">
        <ele>77</ele>
        <time>2013-09-18T13:19:18.000Z</time>
      </trkpt>
      <trkpt lat="43.46607" lon="6.78127">
        <ele>77</ele>
        <time>2013-09-18T13:19:19.000Z</time>
      </trkpt>
      <trkpt lat="43.46603" lon="6.78125">
        <ele>77</ele>
        <time>2013-09-18T13:19:20.000Z</time>
      </trkpt>
      <trkpt lat="43.466" lon="6.78121">
        <ele>77</ele>
        <time>2013-09-18T13:19:21.000Z</time>
      </trkpt>
      <trkpt lat="43.46596" lon="6.78116">
        <ele>77</ele>
        <time>2013-09-18T13:19:22.000Z</time>
      </trkpt>
      <trkpt lat="43.46593" lon="6.78111">
        <ele>77</ele>
        <time>2013-09-18T13:19:23.000Z</time>
      </trkpt>
      <trkpt lat="43.46589" lon="6.78106">
        <ele>76</ele>
        <time>2013-09-18T13:19:24.000Z</time>
      </trkpt>
      <trkpt lat="43.46586" lon="6.78102">
        <ele>76</ele>
        <time>2013-09-18T13:19:25.000Z</time>
      </trkpt>
      <trkpt lat="43.46581" lon="6.78097">
        <ele>73</ele>
        <time>2013-09-18T13:19:26.000Z</time>
      </trkpt>
      <trkpt lat="43.46577" lon="6.78091">
        <ele>73</ele>
        <time>2013-09-18T13:19:27.000Z</time>
      </trkpt>
      <trkpt lat="43.46573" lon="6.78086">
        <ele>73</ele>
        <time>2013-09-18T13:19:28.000Z</time>
      </trkpt>
      <trkpt lat="43.46568" lon="6.78082">
        <ele>74</ele>
        <time>2013-09-18T13:19:29.000Z</time>
      </trkpt>
      <trkpt lat="43.46563" lon="6.78079">
        <ele>74</ele>
        <time>2013-09-18T13:19:30.000Z</time>
      </trkpt>
      <trkpt lat="43.46559" lon="6.78076">
        <ele>74</ele>
        <time>2013-09-18T13:19:31.000Z</time>
      </trkpt>
      <trkpt lat="43.46554" lon="6.78073">
        <ele>74</ele>
        <time>2013-09-18T13:19:32.000Z</time>
      </trkpt>
      <trkpt lat="43.46549" lon="6.78072">
        <ele>73</ele>
        <time>2013-09-18T13:19:33.000Z</time>
      </trkpt>
      <trkpt lat="43.46544" lon="6.78071">
        <ele>73</ele>
        <time>2013-09-18T13:19:34.000Z</time>
      </trkpt>
      <trkpt lat="43.46539" lon="6.7807">
        <ele>73</ele>
        <time>2013-09-18T13:19:35.000Z</time>
      </trkpt>
      <trkpt lat="43.46533" lon="6.7807">
        <ele>72</ele>
        <time>2013-09-18T13:19:36.000Z</time>
      </trkpt>
      <trkpt lat="43.46528" lon="6.7807">
        <ele>72</ele>
        <time>2013-09-18T13:19:37.000Z</time>
      </trkpt>
      <trkpt lat="43.46522" lon="6.78071">
        <ele>71</ele>
        <time>2013-09-18T13:19:38.000Z</time>
      </trkpt>
      <trkpt lat="43.46516" lon="6.78071">
        <ele>71</ele>
        <time>2013-09-18T13:19:39.000Z</time>
      </trkpt>
      <trkpt lat="43.46511" lon="6.78071">
        <ele>70</ele>
        <time>2013-09-18T13:19:40.000Z</time>
      </trkpt>
      <trkpt lat="43.46505" lon="6.78071">
        <ele>69</ele>
        <time>2013-09-18T13:19:41.000Z</time>
      </trkpt>
      <trkpt lat="43.46499" lon="6.78071">
        <ele>67</ele>
        <time>2013-09-18T13:19:42.000Z</time>
      </trkpt>
      <trkpt lat="43.46493" lon="6.78072">
        <ele>67</ele>
        <time>2013-09-18T13:19:43.000Z</time>
      </trkpt>
      <trkpt lat="43.46488" lon="6.78073">
        <ele>68</ele>
        <time>2013-09-18T13:19:44.000Z</time>
      </trkpt>
      <trkpt lat="43.46482" lon="6.78074">
        <ele>68</ele>
        <time>2013-09-18T13:19:45.000Z</time>
      </trkpt>
      <trkpt lat="43.46476" lon="6.78076">
        <ele>68</ele>
        <time>2013-09-18T13:19:46.000Z</time>
      </trkpt>
      <trkpt lat="43.46471" lon="6.78078">
        <ele>68</ele>
        <time>2013-09-18T13:19:47.000Z</time>
      </trkpt>
      <trkpt lat="43.46465" lon="6.7808">
        <ele>68</ele>
        <time>2013-09-18T13:19:48.000Z</time>
      </trkpt>
      <trkpt lat="43.46459" lon="6.78082">
        <ele>68</ele>
        <time>2013-09-18T13:19:49.000Z</time>
      </trkpt>
      <trkpt lat="43.46453" lon="6.78084">
        <ele>66</ele>
        <time>2013-09-18T13:19:50.000Z</time>
      </trkpt>
      <trkpt lat="43.46447" lon="6.78086">
        <ele>66</ele>
        <time>2013-09-18T13:19:51.000Z</time>
      </trkpt>
      <trkpt lat="43.46442" lon="6.78088">
        <ele>66</ele>
        <time>2013-09-18T13:19:52.000Z</time>
      </trkpt>
      <trkpt lat="43.46436" lon="6.7809">
        <ele>66</ele>
        <time>2013-09-18T13:19:53.000Z</time>
      </trkpt>
      <trkpt lat="43.46429" lon="6.78091">
        <ele>65</ele>
        <time>2013-09-18T13:19:54.000Z</time>
      </trkpt>
      <trkpt lat="43.46423" lon="6.78091">
        <ele>65</ele>
        <time>2013-09-18T13:19:55.000Z</time>
      </trkpt>
      <trkpt lat="43.46417" lon="6.78092">
        <ele>65</ele>
        <time>2013-09-18T13:19:56.000Z</time>
      </trkpt>
      <trkpt lat="43.46411" lon="6.78092">
        <ele>64</ele>
        <time>2013-09-18T13:19:57.000Z</time>
      </trkpt>
      <trkpt lat="43.46399" lon="6.78093">
        <ele>64</ele>
        <time>2013-09-18T13:19:59.000Z</time>
      </trkpt>
      <trkpt lat="43.46393" lon="6.78093">
        <ele>64</ele>
        <time>2013-09-18T13:20:00.000Z</time>
      </trkpt>
      <trkpt lat="43.46387" lon="6.78094">
        <ele>64</ele>
        <time>2013-09-18T13:20:01.000Z</time>
      </trkpt>
      <trkpt lat="43.46381" lon="6.78096">
        <ele>64</ele>
        <time>2013-09-18T13:20:02.000Z</time>
      </trkpt>
      <trkpt lat="43.46375" lon="6.78097">
        <ele>63</ele>
        <time>2013-09-18T13:20:03.000Z</time>
      </trkpt>
      <trkpt lat="43.46369" lon="6.78098">
        <ele>63</ele>
        <time>2013-09-18T13:20:04.000Z</time>
      </trkpt>
      <trkpt lat="43.46362" lon="6.781">
        <ele>63</ele>
        <time>2013-09-18T13:20:05.000Z</time>
      </trkpt>
      <trkpt lat="43.46356" lon="6.78101">
        <ele>63</ele>
        <time>2013-09-18T13:20:06.000Z</time>
      </trkpt>
      <trkpt lat="43.4635" lon="6.78102">
        <ele>63</ele>
        <time>2013-09-18T13:20:07.000Z</time>
      </trkpt>
      <trkpt lat="43.46343" lon="6.78103">
        <ele>63</ele>
        <time>2013-09-18T13:20:08.000Z</time>
      </trkpt>
      <trkpt lat="43.46336" lon="6.78103">
        <ele>63</ele>
        <time>2013-09-18T13:20:09.000Z</time>
      </trkpt>
      <trkpt lat="43.4633" lon="6.78103">
        <ele>62</ele>
        <time>2013-09-18T13:20:10.000Z</time>
      </trkpt>
      <trkpt lat="43.46323" lon="6.78101">
        <ele>61</ele>
        <time>2013-09-18T13:20:11.000Z</time>
      </trkpt>
      <trkpt lat="43.46317" lon="6.78098">
        <ele>61</ele>
        <time>2013-09-18T13:20:12.000Z</time>
      </trkpt>
      <trkpt lat="43.46311" lon="6.78095">
        <ele>61</ele>
        <time>2013-09-18T13:20:13.000Z</time>
      </trkpt>
      <trkpt lat="43.46304" lon="6.78092">
        <ele>61</ele>
        <time>2013-09-18T13:20:14.000Z</time>
      </trkpt>
      <trkpt lat="43.46299" lon="6.78088">
        <ele>61</ele>
        <time>2013-09-18T13:20:15.000Z</time>
      </trkpt>
      <trkpt lat="43.46293" lon="6.78084">
        <ele>60</ele>
        <time>2013-09-18T13:20:16.000Z</time>
      </trkpt>
      <trkpt lat="43.46287" lon="6.7808">
        <ele>62</ele>
        <time>2013-09-18T13:20:17.000Z</time>
      </trkpt>
      <trkpt lat="43.46282" lon="6.78076">
        <ele>62</ele>
        <time>2013-09-18T13:20:18.000Z</time>
      </trkpt>
      <trkpt lat="43.46276" lon="6.78072">
        <ele>61</ele>
        <time>2013-09-18T13:20:19.000Z</time>
      </trkpt>
      <trkpt lat="43.46271" lon="6.78068">
        <ele>61</ele>
        <time>2013-09-18T13:20:20.000Z</time>
      </trkpt>
      <trkpt lat="43.46265" lon="6.78065">
        <ele>61</ele>
        <time>2013-09-18T13:20:21.000Z</time>
      </trkpt>
      <trkpt lat="43.46259" lon="6.78062">
        <ele>61</ele>
        <time>2013-09-18T13:20:22.000Z</time>
      </trkpt>
      <trkpt lat="43.46254" lon="6.7806">
        <ele>61</ele>
        <time>2013-09-18T13:20:23.000Z</time>
      </trkpt>
      <trkpt lat="43.46248" lon="6.78058">
        <ele>58</ele>
        <time>2013-09-18T13:20:24.000Z</time>
      </trkpt>
      <trkpt lat="43.46242" lon="6.78056">
        <ele>58</ele>
        <time>2013-09-18T13:20:25.000Z</time>
      </trkpt>
      <trkpt lat="43.46236" lon="6.78055">
        <ele>58</ele>
        <time>2013-09-18T13:20:26.000Z</time>
      </trkpt>
      <trkpt lat="43.4623" lon="6.78054">
        <ele>58</ele>
        <time>2013-09-18T13:20:27.000Z</time>
      </trkpt>
      <trkpt lat="43.46225" lon="6.78052">
        <ele>58</ele>
        <time>2013-09-18T13:20:28.000Z</time>
      </trkpt>
      <trkpt lat="43.4622" lon="6.7805">
        <ele>58</ele>
        <time>2013-09-18T13:20:29.000Z</time>
      </trkpt>
      <trkpt lat="43.46214" lon="6.78047">
        <ele>58</ele>
        <time>2013-09-18T13:20:30.000Z</time>
      </trkpt>
      <trkpt lat="43.46209" lon="6.78044">
        <ele>58</ele>
        <time>2013-09-18T13:20:31.000Z</time>
      </trkpt>
      <trkpt lat="43.46204" lon="6.7804">
        <ele>58</ele>
        <time>2013-09-18T13:20:32.000Z</time>
      </trkpt>
      <trkpt lat="43.462" lon="6.78035">
        <ele>58</ele>
        <time>2013-09-18T13:20:33.000Z</time>
      </trkpt>
      <trkpt lat="43.46195" lon="6.78029">
        <ele>58</ele>
        <time>2013-09-18T13:20:34.000Z</time>
      </trkpt>
      <trkpt lat="43.46192" lon="6.78023">
        <ele>57</ele>
        <time>2013-09-18T13:20:35.000Z</time>
      </trkpt>
      <trkpt lat="43.46189" lon="6.78016">
        <ele>57</ele>
        <time>2013-09-18T13:20:36.000Z</time>
      </trkpt>
      <trkpt lat="43.46186" lon="6.78009">
        <ele>57</ele>
        <time>2013-09-18T13:20:37.000Z</time>
      </trkpt>
      <trkpt lat="43.46183" lon="6.78002">
        <ele>57</ele>
        <time>2013-09-18T13:20:38.000Z</time>
      </trkpt>
      <trkpt lat="43.46181" lon="6.77995">
        <ele>58</ele>
        <time>2013-09-18T13:20:39.000Z</time>
      </trkpt>
      <trkpt lat="43.46178" lon="6.77989">
        <ele>58</ele>
        <time>2013-09-18T13:20:40.000Z</time>
      </trkpt>
      <trkpt lat="43.46174" lon="6.77983">
        <ele>58</ele>
        <time>2013-09-18T13:20:41.000Z</time>
      </trkpt>
      <trkpt lat="43.46171" lon="6.77977">
        <ele>58</ele>
        <time>2013-09-18T13:20:42.000Z</time>
      </trkpt>
      <trkpt lat="43.46168" lon="6.77971">
        <ele>59</ele>
        <time>2013-09-18T13:20:43.000Z</time>
      </trkpt>
      <trkpt lat="43.46165" lon="6.77966">
        <ele>55</ele>
        <time>2013-09-18T13:20:44.000Z</time>
      </trkpt>
      <trkpt lat="43.46162" lon="6.77961">
        <ele>55</ele>
        <time>2013-09-18T13:20:45.000Z</time>
      </trkpt>
      <trkpt lat="43.4616" lon="6.77956">
        <ele>55</ele>
        <time>2013-09-18T13:20:46.000Z</time>
      </trkpt>
      <trkpt lat="43.46157" lon="6.77951">
        <ele>55</ele>
        <time>2013-09-18T13:20:47.000Z</time>
      </trkpt>
      <trkpt lat="43.46155" lon="6.77946">
        <ele>55</ele>
        <time>2013-09-18T13:20:48.000Z</time>
      </trkpt>
      <trkpt lat="43.46153" lon="6.77941">
        <ele>55</ele>
        <time>2013-09-18T13:20:49.000Z</time>
      </trkpt>
      <trkpt lat="43.46152" lon="6.77936">
        <ele>56</ele>
        <time>2013-09-18T13:20:50.000Z</time>
      </trkpt>
      <trkpt lat="43.4615" lon="6.77932">
        <ele>56</ele>
        <time>2013-09-18T13:20:51.000Z</time>
      </trkpt>
      <trkpt lat="43.46149" lon="6.77927">
        <ele>56</ele>
        <time>2013-09-18T13:20:52.000Z</time>
      </trkpt>
      <trkpt lat="43.46148" lon="6.77923">
        <ele>56</ele>
        <time>2013-09-18T13:20:53.000Z</time>
      </trkpt>
      <trkpt lat="43.46147" lon="6.77919">
        <ele>56</ele>
        <time>2013-09-18T13:20:54.000Z</time>
      </trkpt>
      <trkpt lat="43.46146" lon="6.77915">
        <ele>57</ele>
        <time>2013-09-18T13:20:55.000Z</time>
      </trkpt>
      <trkpt lat="43.46146" lon="6.77911">
        <ele>57</ele>
        <time>2013-09-18T13:20:56.000Z</time>
      </trkpt>
      <trkpt lat="43.46145" lon="6.77908">
        <ele>57</ele>
        <time>2013-09-18T13:20:57.000Z</time>
      </trkpt>
      <trkpt lat="43.46145" lon="6.77904">
        <ele>57</ele>
        <time>2013-09-18T13:20:58.000Z</time>
      </trkpt>
      <trkpt lat="43.46144" lon="6.77901">
        <ele>57</ele>
        <time>2013-09-18T13:20:59.000Z</time>
      </trkpt>
      <trkpt lat="43.46143" lon="6.77898">
        <ele>57</ele>
        <time>2013-09-18T13:21:00.000Z</time>
      </trkpt>
      <trkpt lat="43.46143" lon="6.77894">
        <ele>57</ele>
        <time>2013-09-18T13:21:01.000Z</time>
      </trkpt>
      <trkpt lat="43.46143" lon="6.77891">
        <ele>57</ele>
        <time>2013-09-18T13:21:02.000Z</time>
      </trkpt>
      <trkpt lat="43.46142" lon="6.77888">
        <ele>57</ele>
        <time>2013-09-18T13:21:03.000Z</time>
      </trkpt>
      <trkpt lat="43.46142" lon="6.77884">
        <ele>57</ele>
        <time>2013-09-18T13:21:04.000Z</time>
      </trkpt>
      <trkpt lat="43.46142" lon="6.77877">
        <ele>58</ele>
        <time>2013-09-18T13:21:06.000Z</time>
      </trkpt>
      <trkpt lat="43.46142" lon="6.77873">
        <ele>58</ele>
        <time>2013-09-18T13:21:07.000Z</time>
      </trkpt>
      <trkpt lat="43.46142" lon="6.77869">
        <ele>58</ele>
        <time>2013-09-18T13:21:08.000Z</time>
      </trkpt>
      <trkpt lat="43.46143" lon="6.77865">
        <ele>58</ele>
        <time>2013-09-18T13:21:09.000Z</time>
      </trkpt>
      <trkpt lat="43.46143" lon="6.77861">
        <ele>59</ele>
        <time>2013-09-18T13:21:10.000Z</time>
      </trkpt>
      <trkpt lat="43.46143" lon="6.77857">
        <ele>59</ele>
        <time>2013-09-18T13:21:11.000Z</time>
      </trkpt>
      <trkpt lat="43.46143" lon="6.77854">
        <ele>59</ele>
        <time>2013-09-18T13:21:12.000Z</time>
      </trkpt>
      <trkpt lat="43.46144" lon="6.7785">
        <ele>59</ele>
        <time>2013-09-18T13:21:13.000Z</time>
      </trkpt>
      <trkpt lat="43.46144" lon="6.77846">
        <ele>60</ele>
        <time>2013-09-18T13:21:14.000Z</time>
      </trkpt>
      <trkpt lat="43.46145" lon="6.77843">
        <ele>60</ele>
        <time>2013-09-18T13:21:15.000Z</time>
      </trkpt>
      <trkpt lat="43.46146" lon="6.77839">
        <ele>60</ele>
        <time>2013-09-18T13:21:16.000Z</time>
      </trkpt>
      <trkpt lat="43.46147" lon="6.77836">
        <ele>61</ele>
        <time>2013-09-18T13:21:17.000Z</time>
      </trkpt>
      <trkpt lat="43.46148" lon="6.77833">
        <ele>63</ele>
        <time>2013-09-18T13:21:18.000Z</time>
      </trkpt>
      <trkpt lat="43.46149" lon="6.77829">
        <ele>63</ele>
        <time>2013-09-18T13:21:19.000Z</time>
      </trkpt>
      <trkpt lat="43.4615" lon="6.77826">
        <ele>63</ele>
        <time>2013-09-18T13:21:20.000Z</time>
      </trkpt>
      <trkpt lat="43.46151" lon="6.77823">
        <ele>63</ele>
        <time>2013-09-18T13:21:21.000Z</time>
      </trkpt>
      <trkpt lat="43.46152" lon="6.7782">
        <ele>63</ele>
        <time>2013-09-18T13:21:22.000Z</time>
      </trkpt>
      <trkpt lat="43.46153" lon="6.77817">
        <ele>63</ele>
        <time>2013-09-18T13:21:23.000Z</time>
      </trkpt>
      <trkpt lat="43.46154" lon="6.77813">
        <ele>63</ele>
        <time>2013-09-18T13:21:24.000Z</time>
      </trkpt>
      <trkpt lat="43.46155" lon="6.7781">
        <ele>63</ele>
        <time>2013-09-18T13:21:25.000Z</time>
      </trkpt>
      <trkpt lat="43.46157" lon="6.77807">
        <ele>63</ele>
        <time>2013-09-18T13:21:26.000Z</time>
      </trkpt>
      <trkpt lat="43.46158" lon="6.77804">
        <ele>62</ele>
        <time>2013-09-18T13:21:27.000Z</time>
      </trkpt>
      <trkpt lat="43.46159" lon="6.77801">
        <ele>62</ele>
        <time>2013-09-18T13:21:28.000Z</time>
      </trkpt>
      <trkpt lat="43.4616" lon="6.77798">
        <ele>62</ele>
        <time>2013-09-18T13:21:29.000Z</time>
      </trkpt>
      <trkpt lat="43.46161" lon="6.77796">
        <ele>62</ele>
        <time>2013-09-18T13:21:30.000Z</time>
      </trkpt>
      <trkpt lat="43.46161" lon="6.77793">
        <ele>62</ele>
        <time>2013-09-18T13:21:31.000Z</time>
      </trkpt>
      <trkpt lat="43.46163" lon="6.7779">
        <ele>63</ele>
        <time>2013-09-18T13:21:32.000Z</time>
      </trkpt>
      <trkpt lat="43.46163" lon="6.77787">
        <ele>63</ele>
        <time>2013-09-18T13:21:33.000Z</time>
      </trkpt>
      <trkpt lat="43.46165" lon="6.77784">
        <ele>63</ele>
        <time>2013-09-18T13:21:34.000Z</time>
      </trkpt>
      <trkpt lat="43.46166" lon="6.77781">
        <ele>63</ele>
        <time>2013-09-18T13:21:35.000Z</time>
      </trkpt>
      <trkpt lat="43.46167" lon="6.77778">
        <ele>69</ele>
        <time>2013-09-18T13:21:36.000Z</time>
      </trkpt>
      <trkpt lat="43.46168" lon="6.77775">
        <ele>69</ele>
        <time>2013-09-18T13:21:37.000Z</time>
      </trkpt>
      <trkpt lat="43.46169" lon="6.77772">
        <ele>68</ele>
        <time>2013-09-18T13:21:38.000Z</time>
      </trkpt>
      <trkpt lat="43.4617" lon="6.7777">
        <ele>68</ele>
        <time>2013-09-18T13:21:39.000Z</time>
      </trkpt>
      <trkpt lat="43.46171" lon="6.77767">
        <ele>68</ele>
        <time>2013-09-18T13:21:40.000Z</time>
      </trkpt>
      <trkpt lat="43.46172" lon="6.77764">
        <ele>68</ele>
        <time>2013-09-18T13:21:41.000Z</time>
      </trkpt>
      <trkpt lat="43.46173" lon="6.77761">
        <ele>68</ele>
        <time>2013-09-18T13:21:42.000Z</time>
      </trkpt>
      <trkpt lat="43.46175" lon="6.77759">
        <ele>68</ele>
        <time>2013-09-18T13:21:43.000Z</time>
      </trkpt>
      <trkpt lat="43.46176" lon="6.77756">
        <ele>68</ele>
        <time>2013-09-18T13:21:44.000Z</time>
      </trkpt>
      <trkpt lat="43.46177" lon="6.77754">
        <ele>68</ele>
        <time>2013-09-18T13:21:45.000Z</time>
      </trkpt>
      <trkpt lat="43.46178" lon="6.77751">
        <ele>68</ele>
        <time>2013-09-18T13:21:46.000Z</time>
      </trkpt>
      <trkpt lat="43.46179" lon="6.77748">
        <ele>67</ele>
        <time>2013-09-18T13:21:47.000Z</time>
      </trkpt>
      <trkpt lat="43.46181" lon="6.77746">
        <ele>67</ele>
        <time>2013-09-18T13:21:48.000Z</time>
      </trkpt>
      <trkpt lat="43.46182" lon="6.77744">
        <ele>67</ele>
        <time>2013-09-18T13:21:49.000Z</time>
      </trkpt>
      <trkpt lat="43.46183" lon="6.77741">
        <ele>68</ele>
        <time>2013-09-18T13:21:50.000Z</time>
      </trkpt>
      <trkpt lat="43.46184" lon="6.77738">
        <ele>68</ele>
        <time>2013-09-18T13:21:51.000Z</time>
      </trkpt>
      <trkpt lat="43.46185" lon="6.77736">
        <ele>68</ele>
        <time>2013-09-18T13:21:52.000Z</time>
      </trkpt>
      <trkpt lat="43.46186" lon="6.77733">
        <ele>68</ele>
        <time>2013-09-18T13:21:53.000Z</time>
      </trkpt>
      <trkpt lat="43.46187" lon="6.77731">
        <ele>68</ele>
        <time>2013-09-18T13:21:54.000Z</time>
      </trkpt>
      <trkpt lat="43.46188" lon="6.77728">
        <ele>68</ele>
        <time>2013-09-18T13:21:55.000Z</time>
      </trkpt>
      <trkpt lat="43.46189" lon="6.77726">
        <ele>68</ele>
        <time>2013-09-18T13:21:56.000Z</time>
      </trkpt>
      <trkpt lat="43.4619" lon="6.77723">
        <ele>68</ele>
        <time>2013-09-18T13:21:57.000Z</time>
      </trkpt>
      <trkpt lat="43.46192" lon="6.77721">
        <ele>68</ele>
        <time>2013-09-18T13:21:58.000Z</time>
      </trkpt>
      <trkpt lat="43.46193" lon="6.77718">
        <ele>68</ele>
        <time>2013-09-18T13:21:59.000Z</time>
      </trkpt>
      <trkpt lat="43.46194" lon="6.77715">
        <ele>68</ele>
        <time>2013-09-18T13:22:00.000Z</time>
      </trkpt>
      <trkpt lat="43.46195" lon="6.77713">
        <ele>68</ele>
        <time>2013-09-18T13:22:01.000Z</time>
      </trkpt>
      <trkpt lat="43.46196" lon="6.7771">
        <ele>68</ele>
        <time>2013-09-18T13:22:02.000Z</time>
      </trkpt>
      <trkpt lat="43.46197" lon="6.77707">
        <ele>68</ele>
        <time>2013-09-18T13:22:03.000Z</time>
      </trkpt>
      <trkpt lat="43.46199" lon="6.77704">
        <ele>68</ele>
        <time>2013-09-18T13:22:04.000Z</time>
      </trkpt>
      <trkpt lat="43.462" lon="6.77701">
        <ele>68</ele>
        <time>2013-09-18T13:22:05.000Z</time>
      </trkpt>
      <trkpt lat="43.46201" lon="6.77697">
        <ele>68</ele>
        <time>2013-09-18T13:22:06.000Z</time>
      </trkpt>
      <trkpt lat="43.46202" lon="6.77694">
        <ele>68</ele>
        <time>2013-09-18T13:22:07.000Z</time>
      </trkpt>
      <trkpt lat="43.46203" lon="6.77691">
        <ele>68</ele>
        <time>2013-09-18T13:22:08.000Z</time>
      </trkpt>
      <trkpt lat="43.46204" lon="6.77687">
        <ele>68</ele>
        <time>2013-09-18T13:22:09.000Z</time>
      </trkpt>
      <trkpt lat="43.46205" lon="6.77684">
        <ele>68</ele>
        <time>2013-09-18T13:22:10.000Z</time>
      </trkpt>
      <trkpt lat="43.46205" lon="6.7768">
        <ele>68</ele>
        <time>2013-09-18T13:22:11.000Z</time>
      </trkpt>
      <trkpt lat="43.46206" lon="6.77676">
        <ele>68</ele>
        <time>2013-09-18T13:22:12.000Z</time>
      </trkpt>
      <trkpt lat="43.46207" lon="6.77672">
        <ele>68</ele>
        <time>2013-09-18T13:22:13.000Z</time>
      </trkpt>
      <trkpt lat="43.46209" lon="6.77668">
        <ele>68</ele>
        <time>2013-09-18T13:22:14.000Z</time>
      </trkpt>
      <trkpt lat="43.4621" lon="6.77664">
        <ele>67</ele>
        <time>2013-09-18T13:22:15.000Z</time>
      </trkpt>
      <trkpt lat="43.46211" lon="6.7766">
        <ele>67</ele>
        <time>2013-09-18T13:22:16.000Z</time>
      </trkpt>
      <trkpt lat="43.46212" lon="6.77655">
        <ele>67</ele>
        <time>2013-09-18T13:22:17.000Z</time>
      </trkpt>
      <trkpt lat="43.46214" lon="6.77651">
        <ele>67</ele>
        <time>2013-09-18T13:22:18.000Z</time>
      </trkpt>
      <trkpt lat="43.46215" lon="6.77646">
        <ele>67</ele>
        <time>2013-09-18T13:22:19.000Z</time>
      </trkpt>
      <trkpt lat="43.46216" lon="6.77641">
        <ele>67</ele>
        <time>2013-09-18T13:22:20.000Z</time>
      </trkpt>
      <trkpt lat="43.46218" lon="6.77635">
        <ele>67</ele>
        <time>2013-09-18T13:22:21.000Z</time>
      </trkpt>
      <trkpt lat="43.46219" lon="6.7763">
        <ele>67</ele>
        <time>2013-09-18T13:22:22.000Z</time>
      </trkpt>
      <trkpt lat="43.4622" lon="6.77624">
        <ele>67</ele>
        <time>2013-09-18T13:22:23.000Z</time>
      </trkpt>
      <trkpt lat="43.46221" lon="6.77618">
        <ele>67</ele>
        <time>2013-09-18T13:22:24.000Z</time>
      </trkpt>
      <trkpt lat="43.46223" lon="6.77612">
        <ele>67</ele>
        <time>2013-09-18T13:22:25.000Z</time>
      </trkpt>
      <trkpt lat="43.46224" lon="6.77607">
        <ele>67</ele>
        <time>2013-09-18T13:22:26.000Z</time>
      </trkpt>
      <trkpt lat="43.46224" lon="6.77601">
        <ele>67</ele>
        <time>2013-09-18T13:22:27.000Z</time>
      </trkpt>
      <trkpt lat="43.46225" lon="6.77595">
        <ele>67</ele>
        <time>2013-09-18T13:22:28.000Z</time>
      </trkpt>
      <trkpt lat="43.46226" lon="6.7759">
        <ele>67</ele>
        <time>2013-09-18T13:22:29.000Z</time>
      </trkpt>
      <trkpt lat="43.46228" lon="6.77584">
        <ele>67</ele>
        <time>2013-09-18T13:22:30.000Z</time>
      </trkpt>
      <trkpt lat="43.46229" lon="6.77578">
        <ele>67</ele>
        <time>2013-09-18T13:22:31.000Z</time>
      </trkpt>
      <trkpt lat="43.4623" lon="6.77572">
        <ele>67</ele>
        <time>2013-09-18T13:22:32.000Z</time>
      </trkpt>
      <trkpt lat="43.46231" lon="6.77567">
        <ele>67</ele>
        <time>2013-09-18T13:22:33.000Z</time>
      </trkpt>
      <trkpt lat="43.46231" lon="6.77561">
        <ele>67</ele>
        <time>2013-09-18T13:22:34.000Z</time>
      </trkpt>
      <trkpt lat="43.46232" lon="6.77556">
        <ele>67</ele>
        <time>2013-09-18T13:22:35.000Z</time>
      </trkpt>
      <trkpt lat="43.46232" lon="6.77551">
        <ele>67</ele>
        <time>2013-09-18T13:22:36.000Z</time>
      </trkpt>
      <trkpt lat="43.46233" lon="6.77546">
        <ele>67</ele>
        <time>2013-09-18T13:22:37.000Z</time>
      </trkpt>
      <trkpt lat="43.46233" lon="6.77542">
        <ele>67</ele>
        <time>2013-09-18T13:22:38.000Z</time>
      </trkpt>
      <trkpt lat="43.46233" lon="6.77533">
        <ele>67</ele>
        <time>2013-09-18T13:22:40.000Z</time>
      </trkpt>
      <trkpt lat="43.46233" lon="6.77524">
        <ele>68</ele>
        <time>2013-09-18T13:22:42.000Z</time>
      </trkpt>
      <trkpt lat="43.46233" lon="6.77515">
        <ele>68</ele>
        <time>2013-09-18T13:22:44.000Z</time>
      </trkpt>
      <trkpt lat="43.46233" lon="6.7751">
        <ele>68</ele>
        <time>2013-09-18T13:22:45.000Z</time>
      </trkpt>
      <trkpt lat="43.46233" lon="6.77505">
        <ele>68</ele>
        <time>2013-09-18T13:22:46.000Z</time>
      </trkpt>
      <trkpt lat="43.46232" lon="6.775">
        <ele>68</ele>
        <time>2013-09-18T13:22:47.000Z</time>
      </trkpt>
      <trkpt lat="43.46232" lon="6.77496">
        <ele>69</ele>
        <time>2013-09-18T13:22:48.000Z</time>
      </trkpt>
      <trkpt lat="43.46232" lon="6.77491">
        <ele>69</ele>
        <time>2013-09-18T13:22:49.000Z</time>
      </trkpt>
      <trkpt lat="43.46232" lon="6.77486">
        <ele>69</ele>
        <time>2013-09-18T13:22:50.000Z</time>
      </trkpt>
      <trkpt lat="43.46231" lon="6.7748">
        <ele>68</ele>
        <time>2013-09-18T13:22:51.000Z</time>
      </trkpt>
      <trkpt lat="43.46231" lon="6.77475">
        <ele>68</ele>
        <time>2013-09-18T13:22:52.000Z</time>
      </trkpt>
      <trkpt lat="43.4623" lon="6.77469">
        <ele>68</ele>
        <time>2013-09-18T13:22:53.000Z</time>
      </trkpt>
      <trkpt lat="43.4623" lon="6.77458">
        <ele>68</ele>
        <time>2013-09-18T13:22:55.000Z</time>
      </trkpt>
      <trkpt lat="43.4623" lon="6.77452">
        <ele>68</ele>
        <time>2013-09-18T13:22:56.000Z</time>
      </trkpt>
      <trkpt lat="43.4623" lon="6.77447">
        <ele>68</ele>
        <time>2013-09-18T13:22:57.000Z</time>
      </trkpt>
      <trkpt lat="43.46229" lon="6.77442">
        <ele>68</ele>
        <time>2013-09-18T13:22:58.000Z</time>
      </trkpt>
      <trkpt lat="43.46229" lon="6.77437">
        <ele>68</ele>
        <time>2013-09-18T13:22:59.000Z</time>
      </trkpt>
      <trkpt lat="43.46228" lon="6.77432">
        <ele>68</ele>
        <time>2013-09-18T13:23:00.000Z</time>
      </trkpt>
      <trkpt lat="43.46227" lon="6.77427">
        <ele>68</ele>
        <time>2013-09-18T13:23:01.000Z</time>
      </trkpt>
      <trkpt lat="43.46225" lon="6.77422">
        <ele>68</ele>
        <time>2013-09-18T13:23:02.000Z</time>
      </trkpt>
      <trkpt lat="43.46223" lon="6.77418">
        <ele>68</ele>
        <time>2013-09-18T13:23:03.000Z</time>
      </trkpt>
      <trkpt lat="43.46221" lon="6.77413">
        <ele>68</ele>
        <time>2013-09-18T13:23:04.000Z</time>
      </trkpt>
      <trkpt lat="43.46219" lon="6.77409">
        <ele>68</ele>
        <time>2013-09-18T13:23:05.000Z</time>
      </trkpt>
      <trkpt lat="43.46217" lon="6.77405">
        <ele>68</ele>
        <time>2013-09-18T13:23:06.000Z</time>
      </trkpt>
      <trkpt lat="43.46215" lon="6.774">
        <ele>67</ele>
        <time>2013-09-18T13:23:07.000Z</time>
      </trkpt>
      <trkpt lat="43.46214" lon="6.77396">
        <ele>67</ele>
        <time>2013-09-18T13:23:08.000Z</time>
      </trkpt>
      <trkpt lat="43.46212" lon="6.77392">
        <ele>67</ele>
        <time>2013-09-18T13:23:09.000Z</time>
      </trkpt>
      <trkpt lat="43.46211" lon="6.77387">
        <ele>67</ele>
        <time>2013-09-18T13:23:10.000Z</time>
      </trkpt>
      <trkpt lat="43.4621" lon="6.77383">
        <ele>67</ele>
        <time>2013-09-18T13:23:11.000Z</time>
      </trkpt>
      <trkpt lat="43.46209" lon="6.77378">
        <ele>67</ele>
        <time>2013-09-18T13:23:12.000Z</time>
      </trkpt>
      <trkpt lat="43.46207" lon="6.77374">
        <ele>67</ele>
        <time>2013-09-18T13:23:13.000Z</time>
      </trkpt>
      <trkpt lat="43.46206" lon="6.77369">
        <ele>67</ele>
        <time>2013-09-18T13:23:14.000Z</time>
      </trkpt>
      <trkpt lat="43.46206" lon="6.77363">
        <ele>67</ele>
        <time>2013-09-18T13:23:15.000Z</time>
      </trkpt>
      <trkpt lat="43.46206" lon="6.77357">
        <ele>67</ele>
        <time>2013-09-18T13:23:16.000Z</time>
      </trkpt>
      <trkpt lat="43.46207" lon="6.77332">
        <ele>65</ele>
        <time>2013-09-18T13:23:20.000Z</time>
      </trkpt>
      <trkpt lat="43.46206" lon="6.77325">
        <ele>65</ele>
        <time>2013-09-18T13:23:21.000Z</time>
      </trkpt>
      <trkpt lat="43.46206" lon="6.77317">
        <ele>65</ele>
        <time>2013-09-18T13:23:22.000Z</time>
      </trkpt>
      <trkpt lat="43.46206" lon="6.77309">
        <ele>65</ele>
        <time>2013-09-18T13:23:23.000Z</time>
      </trkpt>
      <trkpt lat="43.46206" lon="6.773">
        <ele>65</ele>
        <time>2013-09-18T13:23:24.000Z</time>
      </trkpt>
      <trkpt lat="43.46206" lon="6.77274">
        <ele>64</ele>
        <time>2013-09-18T13:23:27.000Z</time>
      </trkpt>
      <trkpt lat="43.46205" lon="6.77265">
        <ele>64</ele>
        <time>2013-09-18T13:23:28.000Z</time>
      </trkpt>
      <trkpt lat="43.46205" lon="6.77255">
        <ele>64</ele>
        <time>2013-09-18T13:23:29.000Z</time>
      </trkpt>
      <trkpt lat="43.46205" lon="6.77245">
        <ele>61</ele>
        <time>2013-09-18T13:23:30.000Z</time>
      </trkpt>
      <trkpt lat="43.46204" lon="6.77236">
        <ele>61</ele>
        <time>2013-09-18T13:23:31.000Z</time>
      </trkpt>
      <trkpt lat="43.46204" lon="6.77226">
        <ele>61</ele>
        <time>2013-09-18T13:23:32.000Z</time>
      </trkpt>
      <trkpt lat="43.46203" lon="6.77216">
        <ele>61</ele>
        <time>2013-09-18T13:23:33.000Z</time>
      </trkpt>
      <trkpt lat="43.46203" lon="6.77206">
        <ele>61</ele>
        <time>2013-09-18T13:23:34.000Z</time>
      </trkpt>
      <trkpt lat="43.46203" lon="6.77195">
        <ele>60</ele>
        <time>2013-09-18T13:23:35.000Z</time>
      </trkpt>
      <trkpt lat="43.46203" lon="6.77185">
        <ele>60</ele>
        <time>2013-09-18T13:23:36.000Z</time>
      </trkpt>
      <trkpt lat="43.46202" lon="6.77175">
        <ele>60</ele>
        <time>2013-09-18T13:23:37.000Z</time>
      </trkpt>
      <trkpt lat="43.46202" lon="6.77165">
        <ele>58</ele>
        <time>2013-09-18T13:23:38.000Z</time>
      </trkpt>
      <trkpt lat="43.46202" lon="6.77155">
        <ele>58</ele>
        <time>2013-09-18T13:23:39.000Z</time>
      </trkpt>
      <trkpt lat="43.46202" lon="6.77145">
        <ele>58</ele>
        <time>2013-09-18T13:23:40.000Z</time>
      </trkpt>
      <trkpt lat="43.46202" lon="6.77135">
        <ele>58</ele>
        <time>2013-09-18T13:23:41.000Z</time>
      </trkpt>
      <trkpt lat="43.46202" lon="6.77125">
        <ele>58</ele>
        <time>2013-09-18T13:23:42.000Z</time>
      </trkpt>
      <trkpt lat="43.46201" lon="6.77104">
        <ele>58</ele>
        <time>2013-09-18T13:23:44.000Z</time>
      </trkpt>
      <trkpt lat="43.46201" lon="6.77094">
        <ele>58</ele>
        <time>2013-09-18T13:23:45.000Z</time>
      </trkpt>
      <trkpt lat="43.46201" lon="6.77084">
        <ele>58</ele>
        <time>2013-09-18T13:23:46.000Z</time>
      </trkpt>
      <trkpt lat="43.46201" lon="6.77074">
        <ele>58</ele>
        <time>2013-09-18T13:23:47.000Z</time>
      </trkpt>
      <trkpt lat="43.462" lon="6.77065">
        <ele>58</ele>
        <time>2013-09-18T13:23:48.000Z</time>
      </trkpt>
      <trkpt lat="43.462" lon="6.77055">
        <ele>58</ele>
        <time>2013-09-18T13:23:49.000Z</time>
      </trkpt>
      <trkpt lat="43.46199" lon="6.77046">
        <ele>58</ele>
        <time>2013-09-18T13:23:50.000Z</time>
      </trkpt>
      <trkpt lat="43.46199" lon="6.77037">
        <ele>58</ele>
        <time>2013-09-18T13:23:51.000Z</time>
      </trkpt>
      <trkpt lat="43.46199" lon="6.77029">
        <ele>58</ele>
        <time>2013-09-18T13:23:52.000Z</time>
      </trkpt>
      <trkpt lat="43.46199" lon="6.7702">
        <ele>58</ele>
        <time>2013-09-18T13:23:53.000Z</time>
      </trkpt>
      <trkpt lat="43.46199" lon="6.77012">
        <ele>58</ele>
        <time>2013-09-18T13:23:54.000Z</time>
      </trkpt>
      <trkpt lat="43.462" lon="6.77005">
        <ele>58</ele>
        <time>2013-09-18T13:23:55.000Z</time>
      </trkpt>
      <trkpt lat="43.46201" lon="6.76998">
        <ele>59</ele>
        <time>2013-09-18T13:23:56.000Z</time>
      </trkpt>
      <trkpt lat="43.46202" lon="6.76991">
        <ele>59</ele>
        <time>2013-09-18T13:23:57.000Z</time>
      </trkpt>
      <trkpt lat="43.46204" lon="6.76985">
        <ele>59</ele>
        <time>2013-09-18T13:23:58.000Z</time>
      </trkpt>
      <trkpt lat="43.46206" lon="6.76979">
        <ele>59</ele>
        <time>2013-09-18T13:23:59.000Z</time>
      </trkpt>
      <trkpt lat="43.46209" lon="6.76975">
        <ele>59</ele>
        <time>2013-09-18T13:24:00.000Z</time>
      </trkpt>
      <trkpt lat="43.46212" lon="6.76972">
        <ele>60</ele>
        <time>2013-09-18T13:24:01.000Z</time>
      </trkpt>
      <trkpt lat="43.46216" lon="6.7697">
        <ele>60</ele>
        <time>2013-09-18T13:24:02.000Z</time>
      </trkpt>
      <trkpt lat="43.46219" lon="6.76968">
        <ele>60</ele>
        <time>2013-09-18T13:24:03.000Z</time>
      </trkpt>
      <trkpt lat="43.46221" lon="6.76966">
        <ele>60</ele>
        <time>2013-09-18T13:24:04.000Z</time>
      </trkpt>
      <trkpt lat="43.46224" lon="6.76965">
        <ele>60</ele>
        <time>2013-09-18T13:24:05.000Z</time>
      </trkpt>
      <trkpt lat="43.46226" lon="6.76963">
        <ele>60</ele>
        <time>2013-09-18T13:24:06.000Z</time>
      </trkpt>
      <trkpt lat="43.46227" lon="6.76962">
        <ele>60</ele>
        <time>2013-09-18T13:24:07.000Z</time>
      </trkpt>
      <trkpt lat="43.46229" lon="6.76962">
        <ele>60</ele>
        <time>2013-09-18T13:24:08.000Z</time>
      </trkpt>
      <trkpt lat="43.46231" lon="6.76961">
        <ele>60</ele>
        <time>2013-09-18T13:24:09.000Z</time>
      </trkpt>
      <trkpt lat="43.46233" lon="6.7696">
        <ele>60</ele>
        <time>2013-09-18T13:24:10.000Z</time>
      </trkpt>
      <trkpt lat="43.46234" lon="6.76959">
        <ele>60</ele>
        <time>2013-09-18T13:24:11.000Z</time>
      </trkpt>
      <trkpt lat="43.46236" lon="6.76958">
        <ele>60</ele>
        <time>2013-09-18T13:24:12.000Z</time>
      </trkpt>
      <trkpt lat="43.46238" lon="6.76958">
        <ele>60</ele>
        <time>2013-09-18T13:24:13.000Z</time>
      </trkpt>
      <trkpt lat="43.4624" lon="6.76957">
        <ele>60</ele>
        <time>2013-09-18T13:24:14.000Z</time>
      </trkpt>
      <trkpt lat="43.46242" lon="6.76956">
        <ele>61</ele>
        <time>2013-09-18T13:24:15.000Z</time>
      </trkpt>
      <trkpt lat="43.46244" lon="6.76955">
        <ele>61</ele>
        <time>2013-09-18T13:24:16.000Z</time>
      </trkpt>
      <trkpt lat="43.46245" lon="6.76954">
        <ele>61</ele>
        <time>2013-09-18T13:24:17.000Z</time>
      </trkpt>
      <trkpt lat="43.46247" lon="6.76954">
        <ele>61</ele>
        <time>2013-09-18T13:24:18.000Z</time>
      </trkpt>
      <trkpt lat="43.46249" lon="6.76953">
        <ele>61</ele>
        <time>2013-09-18T13:24:19.000Z</time>
      </trkpt>
      <trkpt lat="43.46251" lon="6.76952">
        <ele>64</ele>
        <time>2013-09-18T13:24:20.000Z</time>
      </trkpt>
      <trkpt lat="43.46252" lon="6.76951">
        <ele>64</ele>
        <time>2013-09-18T13:24:21.000Z</time>
      </trkpt>
      <trkpt lat="43.46254" lon="6.76951">
        <ele>64</ele>
        <time>2013-09-18T13:24:22.000Z</time>
      </trkpt>
      <trkpt lat="43.46256" lon="6.7695">
        <ele>64</ele>
        <time>2013-09-18T13:24:23.000Z</time>
      </trkpt>
      <trkpt lat="43.46258" lon="6.7695">
        <ele>64</ele>
        <time>2013-09-18T13:24:24.000Z</time>
      </trkpt>
      <trkpt lat="43.46259" lon="6.76949">
        <ele>64</ele>
        <time>2013-09-18T13:24:25.000Z</time>
      </trkpt>
      <trkpt lat="43.46261" lon="6.76947">
        <ele>64</ele>
        <time>2013-09-18T13:24:26.000Z</time>
      </trkpt>
      <trkpt lat="43.46263" lon="6.76945">
        <ele>64</ele>
        <time>2013-09-18T13:24:27.000Z</time>
      </trkpt>
      <trkpt lat="43.46265" lon="6.76943">
        <ele>64</ele>
        <time>2013-09-18T13:24:28.000Z</time>
      </trkpt>
      <trkpt lat="43.46267" lon="6.76941">
        <ele>64</ele>
        <time>2013-09-18T13:24:29.000Z</time>
      </trkpt>
      <trkpt lat="43.46269" lon="6.76939">
        <ele>64</ele>
        <time>2013-09-18T13:24:30.000Z</time>
      </trkpt>
      <trkpt lat="43.46272" lon="6.76937">
        <ele>64</ele>
        <time>2013-09-18T13:24:31.000Z</time>
      </trkpt>
      <trkpt lat="43.46274" lon="6.76935">
        <ele>64</ele>
        <time>2013-09-18T13:24:32.000Z</time>
      </trkpt>
      <trkpt lat="43.46277" lon="6.76932">
        <ele>64</ele>
        <time>2013-09-18T13:24:33.000Z</time>
      </trkpt>
      <trkpt lat="43.46279" lon="6.76929">
        <ele>65</ele>
        <time>2013-09-18T13:24:34.000Z</time>
      </trkpt>
      <trkpt lat="43.46282" lon="6.76927">
        <ele>65</ele>
        <time>2013-09-18T13:24:35.000Z</time>
      </trkpt>
      <trkpt lat="43.46284" lon="6.76925">
        <ele>65</ele>
        <time>2013-09-18T13:24:36.000Z</time>
      </trkpt>
      <trkpt lat="43.46287" lon="6.76923">
        <ele>65</ele>
        <time>2013-09-18T13:24:37.000Z</time>
      </trkpt>
      <trkpt lat="43.46289" lon="6.7692">
        <ele>65</ele>
        <time>2013-09-18T13:24:38.000Z</time>
      </trkpt>
      <trkpt lat="43.46292" lon="6.76918">
        <ele>65</ele>
        <time>2013-09-18T13:24:39.000Z</time>
      </trkpt>
      <trkpt lat="43.46294" lon="6.76915">
        <ele>66</ele>
        <time>2013-09-18T13:24:40.000Z</time>
      </trkpt>
      <trkpt lat="43.46297" lon="6.76913">
        <ele>66</ele>
        <time>2013-09-18T13:24:41.000Z</time>
      </trkpt>
      <trkpt lat="43.46299" lon="6.76911">
        <ele>66</ele>
        <time>2013-09-18T13:24:42.000Z</time>
      </trkpt>
      <trkpt lat="43.46301" lon="6.76909">
        <ele>66</ele>
        <time>2013-09-18T13:24:43.000Z</time>
      </trkpt>
      <trkpt lat="43.46303" lon="6.76906">
        <ele>66</ele>
        <time>2013-09-18T13:24:44.000Z</time>
      </trkpt>
      <trkpt lat="43.46305" lon="6.76905">
        <ele>66</ele>
        <time>2013-09-18T13:24:45.000Z</time>
      </trkpt>
      <trkpt lat="43.46307" lon="6.76903">
        <ele>66</ele>
        <time>2013-09-18T13:24:46.000Z</time>
      </trkpt>
      <trkpt lat="43.46309" lon="6.76901">
        <ele>66</ele>
        <time>2013-09-18T13:24:47.000Z</time>
      </trkpt>
      <trkpt lat="43.46311" lon="6.76899">
        <ele>66</ele>
        <time>2013-09-18T13:24:48.000Z</time>
      </trkpt>
      <trkpt lat="43.46312" lon="6.76897">
        <ele>66</ele>
        <time>2013-09-18T13:24:49.000Z</time>
      </trkpt>
      <trkpt lat="43.46314" lon="6.76895">
        <ele>66</ele>
        <time>2013-09-18T13:24:50.000Z</time>
      </trkpt>
      <trkpt lat="43.46316" lon="6.76893">
        <ele>66</ele>
        <time>2013-09-18T13:24:51.000Z</time>
      </trkpt>
      <trkpt lat="43.46318" lon="6.76892">
        <ele>66</ele>
        <time>2013-09-18T13:24:52.000Z</time>
      </trkpt>
      <trkpt lat="43.4632" lon="6.7689">
        <ele>66</ele>
        <time>2013-09-18T13:24:53.000Z</time>
      </trkpt>
      <trkpt lat="43.46321" lon="6.76888">
        <ele>66</ele>
        <time>2013-09-18T13:24:54.000Z</time>
      </trkpt>
      <trkpt lat="43.46323" lon="6.76886">
        <ele>66</ele>
        <time>2013-09-18T13:24:55.000Z</time>
      </trkpt>
      <trkpt lat="43.46325" lon="6.76884">
        <ele>66</ele>
        <time>2013-09-18T13:24:56.000Z</time>
      </trkpt>
      <trkpt lat="43.46327" lon="6.76883">
        <ele>66</ele>
        <time>2013-09-18T13:24:57.000Z</time>
      </trkpt>
      <trkpt lat="43.46329" lon="6.76881">
        <ele>66</ele>
        <time>2013-09-18T13:24:58.000Z</time>
      </trkpt>
      <trkpt lat="43.46331" lon="6.76879">
        <ele>67</ele>
        <time>2013-09-18T13:24:59.000Z</time>
      </trkpt>
      <trkpt lat="43.46332" lon="6.76877">
        <ele>67</ele>
        <time>2013-09-18T13:25:00.000Z</time>
      </trkpt>
      <trkpt lat="43.46334" lon="6.76876">
        <ele>69</ele>
        <time>2013-09-18T13:25:01.000Z</time>
      </trkpt>
      <trkpt lat="43.46336" lon="6.76874">
        <ele>69</ele>
        <time>2013-09-18T13:25:02.000Z</time>
      </trkpt>
      <trkpt lat="43.46337" lon="6.76872">
        <ele>69</ele>
        <time>2013-09-18T13:25:03.000Z</time>
      </trkpt>
      <trkpt lat="43.46339" lon="6.76871">
        <ele>69</ele>
        <time>2013-09-18T13:25:04.000Z</time>
      </trkpt>
      <trkpt lat="43.4634" lon="6.7687">
        <ele>69</ele>
        <time>2013-09-18T13:25:05.000Z</time>
      </trkpt>
      <trkpt lat="43.46342" lon="6.76868">
        <ele>69</ele>
        <time>2013-09-18T13:25:06.000Z</time>
      </trkpt>
      <trkpt lat="43.46343" lon="6.76867">
        <ele>69</ele>
        <time>2013-09-18T13:25:07.000Z</time>
      </trkpt>
      <trkpt lat="43.46344" lon="6.76865">
        <ele>69</ele>
        <time>2013-09-18T13:25:08.000Z</time>
      </trkpt>
      <trkpt lat="43.46345" lon="6.76864">
        <ele>69</ele>
        <time>2013-09-18T13:25:09.000Z</time>
      </trkpt>
      <trkpt lat="43.46347" lon="6.76862">
        <ele>69</ele>
        <time>2013-09-18T13:25:10.000Z</time>
      </trkpt>
      <trkpt lat="43.46348" lon="6.76861">
        <ele>69</ele>
        <time>2013-09-18T13:25:11.000Z</time>
      </trkpt>
      <trkpt lat="43.4635" lon="6.76859">
        <ele>70</ele>
        <time>2013-09-18T13:25:12.000Z</time>
      </trkpt>
      <trkpt lat="43.46351" lon="6.76858">
        <ele>70</ele>
        <time>2013-09-18T13:25:13.000Z</time>
      </trkpt>
      <trkpt lat="43.46353" lon="6.76857">
        <ele>70</ele>
        <time>2013-09-18T13:25:14.000Z</time>
      </trkpt>
      <trkpt lat="43.46354" lon="6.76855">
        <ele>70</ele>
        <time>2013-09-18T13:25:15.000Z</time>
      </trkpt>
      <trkpt lat="43.46355" lon="6.76854">
        <ele>70</ele>
        <time>2013-09-18T13:25:16.000Z</time>
      </trkpt>
      <trkpt lat="43.46357" lon="6.76853">
        <ele>70</ele>
        <time>2013-09-18T13:25:17.000Z</time>
      </trkpt>
      <trkpt lat="43.46358" lon="6.76851">
        <ele>70</ele>
        <time>2013-09-18T13:25:18.000Z</time>
      </trkpt>
      <trkpt lat="43.4636" lon="6.7685">
        <ele>70</ele>
        <time>2013-09-18T13:25:19.000Z</time>
      </trkpt>
      <trkpt lat="43.46361" lon="6.76848">
        <ele>70</ele>
        <time>2013-09-18T13:25:20.000Z</time>
      </trkpt>
      <trkpt lat="43.46363" lon="6.76847">
        <ele>70</ele>
        <time>2013-09-18T13:25:21.000Z</time>
      </trkpt>
      <trkpt lat="43.46364" lon="6.76846">
        <ele>70</ele>
        <time>2013-09-18T13:25:22.000Z</time>
      </trkpt>
      <trkpt lat="43.46365" lon="6.76845">
        <ele>70</ele>
        <time>2013-09-18T13:25:23.000Z</time>
      </trkpt>
      <trkpt lat="43.46367" lon="6.76843">
        <ele>70</ele>
        <time>2013-09-18T13:25:24.000Z</time>
      </trkpt>
      <trkpt lat="43.46368" lon="6.76842">
        <ele>70</ele>
        <time>2013-09-18T13:25:25.000Z</time>
      </trkpt>
      <trkpt lat="43.46369" lon="6.7684">
        <ele>70</ele>
        <time>2013-09-18T13:25:26.000Z</time>
      </trkpt>
      <trkpt lat="43.4637" lon="6.76839">
        <ele>70</ele>
        <time>2013-09-18T13:25:27.000Z</time>
      </trkpt>
      <trkpt lat="43.46372" lon="6.76837">
        <ele>70</ele>
        <time>2013-09-18T13:25:28.000Z</time>
      </trkpt>
      <trkpt lat="43.46373" lon="6.76836">
        <ele>70</ele>
        <time>2013-09-18T13:25:29.000Z</time>
      </trkpt>
      <trkpt lat="43.46375" lon="6.76835">
        <ele>71</ele>
        <time>2013-09-18T13:25:30.000Z</time>
      </trkpt>
      <trkpt lat="43.46376" lon="6.76833">
        <ele>71</ele>
        <time>2013-09-18T13:25:31.000Z</time>
      </trkpt>
      <trkpt lat="43.46378" lon="6.76832">
        <ele>71</ele>
        <time>2013-09-18T13:25:32.000Z</time>
      </trkpt>
      <trkpt lat="43.46379" lon="6.7683">
        <ele>71</ele>
        <time>2013-09-18T13:25:33.000Z</time>
      </trkpt>
      <trkpt lat="43.4638" lon="6.76829">
        <ele>71</ele>
        <time>2013-09-18T13:25:34.000Z</time>
      </trkpt>
      <trkpt lat="43.46382" lon="6.76828">
        <ele>71</ele>
        <time>2013-09-18T13:25:35.000Z</time>
      </trkpt>
      <trkpt lat="43.46383" lon="6.76826">
        <ele>71</ele>
        <time>2013-09-18T13:25:36.000Z</time>
      </trkpt>
      <trkpt lat="43.46384" lon="6.76825">
        <ele>71</ele>
        <time>2013-09-18T13:25:37.000Z</time>
      </trkpt>
      <trkpt lat="43.46386" lon="6.76824">
        <ele>71</ele>
        <time>2013-09-18T13:25:38.000Z</time>
      </trkpt>
      <trkpt lat="43.46387" lon="6.76822">
        <ele>71</ele>
        <time>2013-09-18T13:25:39.000Z</time>
      </trkpt>
      <trkpt lat="43.46388" lon="6.7682">
        <ele>71</ele>
        <time>2013-09-18T13:25:40.000Z</time>
      </trkpt>
      <trkpt lat="43.4639" lon="6.76819">
        <ele>71</ele>
        <time>2013-09-18T13:25:41.000Z</time>
      </trkpt>
      <trkpt lat="43.46391" lon="6.76817">
        <ele>71</ele>
        <time>2013-09-18T13:25:42.000Z</time>
      </trkpt>
      <trkpt lat="43.46392" lon="6.76816">
        <ele>71</ele>
        <time>2013-09-18T13:25:43.000Z</time>
      </trkpt>
      <trkpt lat="43.46394" lon="6.76814">
        <ele>71</ele>
        <time>2013-09-18T13:25:44.000Z</time>
      </trkpt>
      <trkpt lat="43.46395" lon="6.76813">
        <ele>71</ele>
        <time>2013-09-18T13:25:45.000Z</time>
      </trkpt>
      <trkpt lat="43.46396" lon="6.76811">
        <ele>71</ele>
        <time>2013-09-18T13:25:46.000Z</time>
      </trkpt>
      <trkpt lat="43.46398" lon="6.7681">
        <ele>71</ele>
        <time>2013-09-18T13:25:47.000Z</time>
      </trkpt>
      <trkpt lat="43.46399" lon="6.76808">
        <ele>71</ele>
        <time>2013-09-18T13:25:48.000Z</time>
      </trkpt>
      <trkpt lat="43.464" lon="6.76807">
        <ele>71</ele>
        <time>2013-09-18T13:25:49.000Z</time>
      </trkpt>
      <trkpt lat="43.46402" lon="6.76805">
        <ele>71</ele>
        <time>2013-09-18T13:25:50.000Z</time>
      </trkpt>
      <trkpt lat="43.46403" lon="6.76804">
        <ele>71</ele>
        <time>2013-09-18T13:25:51.000Z</time>
      </trkpt>
      <trkpt lat="43.46404" lon="6.76802">
        <ele>71</ele>
        <time>2013-09-18T13:25:52.000Z</time>
      </trkpt>
      <trkpt lat="43.46406" lon="6.76801">
        <ele>71</ele>
        <time>2013-09-18T13:25:53.000Z</time>
      </trkpt>
      <trkpt lat="43.46407" lon="6.76799">
        <ele>71</ele>
        <time>2013-09-18T13:25:54.000Z</time>
      </trkpt>
      <trkpt lat="43.46409" lon="6.76798">
        <ele>71</ele>
        <time>2013-09-18T13:25:55.000Z</time>
      </trkpt>
      <trkpt lat="43.46411" lon="6.76796">
        <ele>71</ele>
        <time>2013-09-18T13:25:56.000Z</time>
      </trkpt>
      <trkpt lat="43.46413" lon="6.76795">
        <ele>71</ele>
        <time>2013-09-18T13:25:57.000Z</time>
      </trkpt>
      <trkpt lat="43.46414" lon="6.76793">
        <ele>71</ele>
        <time>2013-09-18T13:25:58.000Z</time>
      </trkpt>
      <trkpt lat="43.46416" lon="6.76792">
        <ele>71</ele>
        <time>2013-09-18T13:25:59.000Z</time>
      </trkpt>
      <trkpt lat="43.46418" lon="6.76791">
        <ele>74</ele>
        <time>2013-09-18T13:26:00.000Z</time>
      </trkpt>
      <trkpt lat="43.4642" lon="6.7679">
        <ele>74</ele>
        <time>2013-09-18T13:26:01.000Z</time>
      </trkpt>
      <trkpt lat="43.46422" lon="6.76788">
        <ele>74</ele>
        <time>2013-09-18T13:26:02.000Z</time>
      </trkpt>
      <trkpt lat="43.46424" lon="6.76787">
        <ele>74</ele>
        <time>2013-09-18T13:26:03.000Z</time>
      </trkpt>
      <trkpt lat="43.46426" lon="6.76786">
        <ele>74</ele>
        <time>2013-09-18T13:26:04.000Z</time>
      </trkpt>
      <trkpt lat="43.46428" lon="6.76785">
        <ele>74</ele>
        <time>2013-09-18T13:26:05.000Z</time>
      </trkpt>
      <trkpt lat="43.4643" lon="6.76784">
        <ele>74</ele>
        <time>2013-09-18T13:26:06.000Z</time>
      </trkpt>
      <trkpt lat="43.46432" lon="6.76783">
        <ele>74</ele>
        <time>2013-09-18T13:26:07.000Z</time>
      </trkpt>
      <trkpt lat="43.46434" lon="6.76782">
        <ele>74</ele>
        <time>2013-09-18T13:26:08.000Z</time>
      </trkpt>
      <trkpt lat="43.46437" lon="6.7678">
        <ele>74</ele>
        <time>2013-09-18T13:26:09.000Z</time>
      </trkpt>
      <trkpt lat="43.46439" lon="6.76779">
        <ele>74</ele>
        <time>2013-09-18T13:26:10.000Z</time>
      </trkpt>
      <trkpt lat="43.46441" lon="6.76778">
        <ele>74</ele>
        <time>2013-09-18T13:26:11.000Z</time>
      </trkpt>
      <trkpt lat="43.46444" lon="6.76776">
        <ele>74</ele>
        <time>2013-09-18T13:26:12.000Z</time>
      </trkpt>
      <trkpt lat="43.46447" lon="6.76775">
        <ele>74</ele>
        <time>2013-09-18T13:26:13.000Z</time>
      </trkpt>
      <trkpt lat="43.46449" lon="6.76774">
        <ele>74</ele>
        <time>2013-09-18T13:26:14.000Z</time>
      </trkpt>
      <trkpt lat="43.46452" lon="6.76772">
        <ele>74</ele>
        <time>2013-09-18T13:26:15.000Z</time>
      </trkpt>
      <trkpt lat="43.46454" lon="6.76771">
        <ele>75</ele>
        <time>2013-09-18T13:26:16.000Z</time>
      </trkpt>
      <trkpt lat="43.46457" lon="6.76769">
        <ele>75</ele>
        <time>2013-09-18T13:26:17.000Z</time>
      </trkpt>
      <trkpt lat="43.46459" lon="6.76768">
        <ele>75</ele>
        <time>2013-09-18T13:26:18.000Z</time>
      </trkpt>
      <trkpt lat="43.46462" lon="6.76767">
        <ele>75</ele>
        <time>2013-09-18T13:26:19.000Z</time>
      </trkpt>
      <trkpt lat="43.46464" lon="6.76765">
        <ele>75</ele>
        <time>2013-09-18T13:26:20.000Z</time>
      </trkpt>
      <trkpt lat="43.46467" lon="6.76764">
        <ele>75</ele>
        <time>2013-09-18T13:26:21.000Z</time>
      </trkpt>
      <trkpt lat="43.46469" lon="6.76763">
        <ele>75</ele>
        <time>2013-09-18T13:26:22.000Z</time>
      </trkpt>
      <trkpt lat="43.46472" lon="6.76761">
        <ele>75</ele>
        <time>2013-09-18T13:26:23.000Z</time>
      </trkpt>
      <trkpt lat="43.46474" lon="6.7676">
        <ele>75</ele>
        <time>2013-09-18T13:26:24.000Z</time>
      </trkpt>
      <trkpt lat="43.46476" lon="6.76759">
        <ele>75</ele>
        <time>2013-09-18T13:26:25.000Z</time>
      </trkpt>
      <trkpt lat="43.46479" lon="6.76758">
        <ele>76</ele>
        <time>2013-09-18T13:26:26.000Z</time>
      </trkpt>
      <trkpt lat="43.4648" lon="6.76757">
        <ele>76</ele>
        <time>2013-09-18T13:26:27.000Z</time>
      </trkpt>
      <trkpt lat="43.46482" lon="6.76756">
        <ele>76</ele>
        <time>2013-09-18T13:26:28.000Z</time>
      </trkpt>
      <trkpt lat="43.46484" lon="6.76755">
        <ele>76</ele>
        <time>2013-09-18T13:26:29.000Z</time>
      </trkpt>
      <trkpt lat="43.46486" lon="6.76754">
        <ele>76</ele>
        <time>2013-09-18T13:26:30.000Z</time>
      </trkpt>
      <trkpt lat="43.46488" lon="6.76753">
        <ele>76</ele>
        <time>2013-09-18T13:26:31.000Z</time>
      </trkpt>
      <trkpt lat="43.46489" lon="6.76752">
        <ele>76</ele>
        <time>2013-09-18T13:26:32.000Z</time>
      </trkpt>
      <trkpt lat="43.46491" lon="6.76751">
        <ele>76</ele>
        <time>2013-09-18T13:26:33.000Z</time>
      </trkpt>
      <trkpt lat="43.46493" lon="6.7675">
        <ele>77</ele>
        <time>2013-09-18T13:26:34.000Z</time>
      </trkpt>
      <trkpt lat="43.46494" lon="6.76749">
        <ele>76</ele>
        <time>2013-09-18T13:26:35.000Z</time>
      </trkpt>
      <trkpt lat="43.46496" lon="6.76748">
        <ele>76</ele>
        <time>2013-09-18T13:26:36.000Z</time>
      </trkpt>
      <trkpt lat="43.46498" lon="6.76747">
        <ele>76</ele>
        <time>2013-09-18T13:26:37.000Z</time>
      </trkpt>
      <trkpt lat="43.465" lon="6.76746">
        <ele>76</ele>
        <time>2013-09-18T13:26:38.000Z</time>
      </trkpt>
      <trkpt lat="43.46501" lon="6.76745">
        <ele>77</ele>
        <time>2013-09-18T13:26:39.000Z</time>
      </trkpt>
      <trkpt lat="43.46503" lon="6.76744">
        <ele>77</ele>
        <time>2013-09-18T13:26:40.000Z</time>
      </trkpt>
      <trkpt lat="43.46504" lon="6.76743">
        <ele>77</ele>
        <time>2013-09-18T13:26:41.000Z</time>
      </trkpt>
      <trkpt lat="43.46506" lon="6.76743">
        <ele>77</ele>
        <time>2013-09-18T13:26:42.000Z</time>
      </trkpt>
      <trkpt lat="43.46507" lon="6.76742">
        <ele>77</ele>
        <time>2013-09-18T13:26:43.000Z</time>
      </trkpt>
      <trkpt lat="43.46509" lon="6.76741">
        <ele>77</ele>
        <time>2013-09-18T13:26:44.000Z</time>
      </trkpt>
      <trkpt lat="43.4651" lon="6.76741">
        <ele>77</ele>
        <time>2013-09-18T13:26:45.000Z</time>
      </trkpt>
      <trkpt lat="43.46512" lon="6.76739">
        <ele>78</ele>
        <time>2013-09-18T13:26:46.000Z</time>
      </trkpt>
      <trkpt lat="43.46513" lon="6.76739">
        <ele>78</ele>
        <time>2013-09-18T13:26:47.000Z</time>
      </trkpt>
      <trkpt lat="43.46515" lon="6.76738">
        <ele>78</ele>
        <time>2013-09-18T13:26:48.000Z</time>
      </trkpt>
      <trkpt lat="43.46517" lon="6.76738">
        <ele>78</ele>
        <time>2013-09-18T13:26:49.000Z</time>
      </trkpt>
      <trkpt lat="43.46519" lon="6.76737">
        <ele>78</ele>
        <time>2013-09-18T13:26:50.000Z</time>
      </trkpt>
      <trkpt lat="43.4652" lon="6.76736">
        <ele>78</ele>
        <time>2013-09-18T13:26:51.000Z</time>
      </trkpt>
      <trkpt lat="43.46521" lon="6.76736">
        <ele>78</ele>
        <time>2013-09-18T13:26:52.000Z</time>
      </trkpt>
      <trkpt lat="43.46524" lon="6.76735">
        <ele>78</ele>
        <time>2013-09-18T13:26:54.000Z</time>
      </trkpt>
      <trkpt lat="43.46526" lon="6.76734">
        <ele>78</ele>
        <time>2013-09-18T13:26:55.000Z</time>
      </trkpt>
      <trkpt lat="43.46527" lon="6.76733">
        <ele>78</ele>
        <time>2013-09-18T13:26:56.000Z</time>
      </trkpt>
      <trkpt lat="43.46528" lon="6.76732">
        <ele>78</ele>
        <time>2013-09-18T13:26:57.000Z</time>
      </trkpt>
      <trkpt lat="43.4653" lon="6.76731">
        <ele>78</ele>
        <time>2013-09-18T13:26:58.000Z</time>
      </trkpt>
      <trkpt lat="43.46531" lon="6.7673">
        <ele>78</ele>
        <time>2013-09-18T13:26:59.000Z</time>
      </trkpt>
      <trkpt lat="43.46533" lon="6.7673">
        <ele>78</ele>
        <time>2013-09-18T13:27:00.000Z</time>
      </trkpt>
      <trkpt lat="43.46535" lon="6.76729">
        <ele>78</ele>
        <time>2013-09-18T13:27:01.000Z</time>
      </trkpt>
      <trkpt lat="43.46536" lon="6.76728">
        <ele>78</ele>
        <time>2013-09-18T13:27:02.000Z</time>
      </trkpt>
      <trkpt lat="43.46538" lon="6.76726">
        <ele>78</ele>
        <time>2013-09-18T13:27:03.000Z</time>
      </trkpt>
      <trkpt lat="43.4654" lon="6.76726">
        <ele>78</ele>
        <time>2013-09-18T13:27:04.000Z</time>
      </trkpt>
      <trkpt lat="43.46541" lon="6.76725">
        <ele>78</ele>
        <time>2013-09-18T13:27:05.000Z</time>
      </trkpt>
      <trkpt lat="43.46543" lon="6.76724">
        <ele>78</ele>
        <time>2013-09-18T13:27:06.000Z</time>
      </trkpt>
      <trkpt lat="43.46545" lon="6.76723">
        <ele>78</ele>
        <time>2013-09-18T13:27:07.000Z</time>
      </trkpt>
      <trkpt lat="43.46547" lon="6.76722">
        <ele>79</ele>
        <time>2013-09-18T13:27:08.000Z</time>
      </trkpt>
      <trkpt lat="43.46549" lon="6.76721">
        <ele>79</ele>
        <time>2013-09-18T13:27:09.000Z</time>
      </trkpt>
      <trkpt lat="43.46552" lon="6.76719">
        <ele>79</ele>
        <time>2013-09-18T13:27:10.000Z</time>
      </trkpt>
      <trkpt lat="43.46554" lon="6.76718">
        <ele>79</ele>
        <time>2013-09-18T13:27:11.000Z</time>
      </trkpt>
      <trkpt lat="43.46556" lon="6.76717">
        <ele>79</ele>
        <time>2013-09-18T13:27:12.000Z</time>
      </trkpt>
      <trkpt lat="43.46558" lon="6.76716">
        <ele>79</ele>
        <time>2013-09-18T13:27:13.000Z</time>
      </trkpt>
      <trkpt lat="43.4656" lon="6.76715">
        <ele>79</ele>
        <time>2013-09-18T13:27:14.000Z</time>
      </trkpt>
      <trkpt lat="43.46563" lon="6.76714">
        <ele>79</ele>
        <time>2013-09-18T13:27:15.000Z</time>
      </trkpt>
      <trkpt lat="43.46565" lon="6.76713">
        <ele>79</ele>
        <time>2013-09-18T13:27:16.000Z</time>
      </trkpt>
      <trkpt lat="43.46567" lon="6.76712">
        <ele>79</ele>
        <time>2013-09-18T13:27:17.000Z</time>
      </trkpt>
      <trkpt lat="43.4657" lon="6.7671">
        <ele>79</ele>
        <time>2013-09-18T13:27:18.000Z</time>
      </trkpt>
      <trkpt lat="43.46572" lon="6.76709">
        <ele>79</ele>
        <time>2013-09-18T13:27:19.000Z</time>
      </trkpt>
      <trkpt lat="43.46574" lon="6.76708">
        <ele>79</ele>
        <time>2013-09-18T13:27:20.000Z</time>
      </trkpt>
      <trkpt lat="43.46577" lon="6.76707">
        <ele>79</ele>
        <time>2013-09-18T13:27:21.000Z</time>
      </trkpt>
      <trkpt lat="43.46579" lon="6.76705">
        <ele>79</ele>
        <time>2013-09-18T13:27:22.000Z</time>
      </trkpt>
      <trkpt lat="43.46582" lon="6.76704">
        <ele>79</ele>
        <time>2013-09-18T13:27:23.000Z</time>
      </trkpt>
      <trkpt lat="43.46584" lon="6.76703">
        <ele>81</ele>
        <time>2013-09-18T13:27:24.000Z</time>
      </trkpt>
      <trkpt lat="43.46587" lon="6.76701">
        <ele>81</ele>
        <time>2013-09-18T13:27:25.000Z</time>
      </trkpt>
      <trkpt lat="43.4659" lon="6.76699">
        <ele>81</ele>
        <time>2013-09-18T13:27:26.000Z</time>
      </trkpt>
      <trkpt lat="43.46593" lon="6.76698">
        <ele>81</ele>
        <time>2013-09-18T13:27:27.000Z</time>
      </trkpt>
      <trkpt lat="43.46596" lon="6.76697">
        <ele>81</ele>
        <time>2013-09-18T13:27:28.000Z</time>
      </trkpt>
      <trkpt lat="43.46599" lon="6.76695">
        <ele>81</ele>
        <time>2013-09-18T13:27:29.000Z</time>
      </trkpt>
      <trkpt lat="43.46602" lon="6.76693">
        <ele>81</ele>
        <time>2013-09-18T13:27:30.000Z</time>
      </trkpt>
      <trkpt lat="43.46605" lon="6.76692">
        <ele>81</ele>
        <time>2013-09-18T13:27:31.000Z</time>
      </trkpt>
      <trkpt lat="43.46608" lon="6.76691">
        <ele>81</ele>
        <time>2013-09-18T13:27:32.000Z</time>
      </trkpt>
      <trkpt lat="43.46611" lon="6.76689">
        <ele>81</ele>
        <time>2013-09-18T13:27:33.000Z</time>
      </trkpt>
      <trkpt lat="43.46614" lon="6.76687">
        <ele>81</ele>
        <time>2013-09-18T13:27:34.000Z</time>
      </trkpt>
      <trkpt lat="43.46617" lon="6.76686">
        <ele>81</ele>
        <time>2013-09-18T13:27:35.000Z</time>
      </trkpt>
      <trkpt lat="43.4662" lon="6.76684">
        <ele>81</ele>
        <time>2013-09-18T13:27:36.000Z</time>
      </trkpt>
      <trkpt lat="43.46623" lon="6.76683">
        <ele>81</ele>
        <time>2013-09-18T13:27:37.000Z</time>
      </trkpt>
      <trkpt lat="43.46627" lon="6.76681">
        <ele>81</ele>
        <time>2013-09-18T13:27:38.000Z</time>
      </trkpt>
      <trkpt lat="43.4663" lon="6.7668">
        <ele>82</ele>
        <time>2013-09-18T13:27:39.000Z</time>
      </trkpt>
      <trkpt lat="43.46634" lon="6.76679">
        <ele>82</ele>
        <time>2013-09-18T13:27:40.000Z</time>
      </trkpt>
      <trkpt lat="43.46638" lon="6.76678">
        <ele>82</ele>
        <time>2013-09-18T13:27:41.000Z</time>
      </trkpt>
      <trkpt lat="43.46642" lon="6.76677">
        <ele>82</ele>
        <time>2013-09-18T13:27:42.000Z</time>
      </trkpt>
      <trkpt lat="43.46645" lon="6.76676">
        <ele>82</ele>
        <time>2013-09-18T13:27:43.000Z</time>
      </trkpt>
      <trkpt lat="43.46649" lon="6.76675">
        <ele>82</ele>
        <time>2013-09-18T13:27:44.000Z</time>
      </trkpt>
      <trkpt lat="43.46653" lon="6.76674">
        <ele>82</ele>
        <time>2013-09-18T13:27:45.000Z</time>
      </trkpt>
      <trkpt lat="43.46656" lon="6.76673">
        <ele>82</ele>
        <time>2013-09-18T13:27:46.000Z</time>
      </trkpt>
      <trkpt lat="43.4666" lon="6.76672">
        <ele>83</ele>
        <time>2013-09-18T13:27:47.000Z</time>
      </trkpt>
      <trkpt lat="43.46664" lon="6.76672">
        <ele>83</ele>
        <time>2013-09-18T13:27:48.000Z</time>
      </trkpt>
      <trkpt lat="43.46668" lon="6.76671">
        <ele>83</ele>
        <time>2013-09-18T13:27:49.000Z</time>
      </trkpt>
      <trkpt lat="43.46672" lon="6.7667">
        <ele>83</ele>
        <time>2013-09-18T13:27:50.000Z</time>
      </trkpt>
      <trkpt lat="43.46676" lon="6.76669">
        <ele>83</ele>
        <time>2013-09-18T13:27:51.000Z</time>
      </trkpt>
      <trkpt lat="43.46681" lon="6.76669">
        <ele>84</ele>
        <time>2013-09-18T13:27:52.000Z</time>
      </trkpt>
      <trkpt lat="43.46685" lon="6.76668">
        <ele>84</ele>
        <time>2013-09-18T13:27:53.000Z</time>
      </trkpt>
      <trkpt lat="43.46689" lon="6.76667">
        <ele>84</ele>
        <time>2013-09-18T13:27:54.000Z</time>
      </trkpt>
      <trkpt lat="43.46693" lon="6.76667">
        <ele>84</ele>
        <time>2013-09-18T13:27:55.000Z</time>
      </trkpt>
      <trkpt lat="43.46696" lon="6.76666">
        <ele>84</ele>
        <time>2013-09-18T13:27:56.000Z</time>
      </trkpt>
      <trkpt lat="43.467" lon="6.76665">
        <ele>84</ele>
        <time>2013-09-18T13:27:57.000Z</time>
      </trkpt>
      <trkpt lat="43.46703" lon="6.76664">
        <ele>84</ele>
        <time>2013-09-18T13:27:58.000Z</time>
      </trkpt>
      <trkpt lat="43.46707" lon="6.76663">
        <ele>84</ele>
        <time>2013-09-18T13:27:59.000Z</time>
      </trkpt>
      <trkpt lat="43.4671" lon="6.76663">
        <ele>84</ele>
        <time>2013-09-18T13:28:00.000Z</time>
      </trkpt>
      <trkpt lat="43.46714" lon="6.76661">
        <ele>84</ele>
        <time>2013-09-18T13:28:01.000Z</time>
      </trkpt>
      <trkpt lat="43.46717" lon="6.7666">
        <ele>84</ele>
        <time>2013-09-18T13:28:02.000Z</time>
      </trkpt>
      <trkpt lat="43.4672" lon="6.76658">
        <ele>84</ele>
        <time>2013-09-18T13:28:03.000Z</time>
      </trkpt>
      <trkpt lat="43.46723" lon="6.76657">
        <ele>85</ele>
        <time>2013-09-18T13:28:04.000Z</time>
      </trkpt>
      <trkpt lat="43.46727" lon="6.76655">
        <ele>85</ele>
        <time>2013-09-18T13:28:05.000Z</time>
      </trkpt>
      <trkpt lat="43.4673" lon="6.76653">
        <ele>85</ele>
        <time>2013-09-18T13:28:06.000Z</time>
      </trkpt>
      <trkpt lat="43.46732" lon="6.76651">
        <ele>85</ele>
        <time>2013-09-18T13:28:07.000Z</time>
      </trkpt>
      <trkpt lat="43.46735" lon="6.76649">
        <ele>85</ele>
        <time>2013-09-18T13:28:08.000Z</time>
      </trkpt>
      <trkpt lat="43.46738" lon="6.76647">
        <ele>85</ele>
        <time>2013-09-18T13:28:09.000Z</time>
      </trkpt>
      <trkpt lat="43.46741" lon="6.76645">
        <ele>85</ele>
        <time>2013-09-18T13:28:10.000Z</time>
      </trkpt>
      <trkpt lat="43.46744" lon="6.76643">
        <ele>85</ele>
        <time>2013-09-18T13:28:11.000Z</time>
      </trkpt>
      <trkpt lat="43.46747" lon="6.76642">
        <ele>85</ele>
        <time>2013-09-18T13:28:12.000Z</time>
      </trkpt>
      <trkpt lat="43.46749" lon="6.7664">
        <ele>85</ele>
        <time>2013-09-18T13:28:13.000Z</time>
      </trkpt>
      <trkpt lat="43.46752" lon="6.76638">
        <ele>86</ele>
        <time>2013-09-18T13:28:14.000Z</time>
      </trkpt>
      <trkpt lat="43.46755" lon="6.76636">
        <ele>86</ele>
        <time>2013-09-18T13:28:15.000Z</time>
      </trkpt>
      <trkpt lat="43.46758" lon="6.76634">
        <ele>86</ele>
        <time>2013-09-18T13:28:16.000Z</time>
      </trkpt>
      <trkpt lat="43.46761" lon="6.76632">
        <ele>86</ele>
        <time>2013-09-18T13:28:17.000Z</time>
      </trkpt>
      <trkpt lat="43.46763" lon="6.7663">
        <ele>86</ele>
        <time>2013-09-18T13:28:18.000Z</time>
      </trkpt>
      <trkpt lat="43.46766" lon="6.76628">
        <ele>86</ele>
        <time>2013-09-18T13:28:19.000Z</time>
      </trkpt>
      <trkpt lat="43.46769" lon="6.76626">
        <ele>86</ele>
        <time>2013-09-18T13:28:20.000Z</time>
      </trkpt>
      <trkpt lat="43.46772" lon="6.76624">
        <ele>86</ele>
        <time>2013-09-18T13:28:21.000Z</time>
      </trkpt>
      <trkpt lat="43.46775" lon="6.76621">
        <ele>86</ele>
        <time>2013-09-18T13:28:22.000Z</time>
      </trkpt>
      <trkpt lat="43.46778" lon="6.76619">
        <ele>87</ele>
        <time>2013-09-18T13:28:23.000Z</time>
      </trkpt>
      <trkpt lat="43.4678" lon="6.76617">
        <ele>87</ele>
        <time>2013-09-18T13:28:24.000Z</time>
      </trkpt>
      <trkpt lat="43.46783" lon="6.76615">
        <ele>87</ele>
        <time>2013-09-18T13:28:25.000Z</time>
      </trkpt>
      <trkpt lat="43.46786" lon="6.76612">
        <ele>87</ele>
        <time>2013-09-18T13:28:26.000Z</time>
      </trkpt>
      <trkpt lat="43.46789" lon="6.7661">
        <ele>87</ele>
        <time>2013-09-18T13:28:27.000Z</time>
      </trkpt>
      <trkpt lat="43.46792" lon="6.76608">
        <ele>87</ele>
        <time>2013-09-18T13:28:28.000Z</time>
      </trkpt>
      <trkpt lat="43.46795" lon="6.76606">
        <ele>87</ele>
        <time>2013-09-18T13:28:29.000Z</time>
      </trkpt>
      <trkpt lat="43.46797" lon="6.76603">
        <ele>87</ele>
        <time>2013-09-18T13:28:30.000Z</time>
      </trkpt>
      <trkpt lat="43.468" lon="6.76601">
        <ele>87</ele>
        <time>2013-09-18T13:28:31.000Z</time>
      </trkpt>
      <trkpt lat="43.46803" lon="6.76599">
        <ele>87</ele>
        <time>2013-09-18T13:28:32.000Z</time>
      </trkpt>
      <trkpt lat="43.46805" lon="6.76597">
        <ele>87</ele>
        <time>2013-09-18T13:28:33.000Z</time>
      </trkpt>
      <trkpt lat="43.46808" lon="6.76595">
        <ele>87</ele>
        <time>2013-09-18T13:28:34.000Z</time>
      </trkpt>
      <trkpt lat="43.4681" lon="6.76592">
        <ele>87</ele>
        <time>2013-09-18T13:28:35.000Z</time>
      </trkpt>
      <trkpt lat="43.46812" lon="6.7659">
        <ele>87</ele>
        <time>2013-09-18T13:28:36.000Z</time>
      </trkpt>
      <trkpt lat="43.46813" lon="6.76589">
        <ele>87</ele>
        <time>2013-09-18T13:28:37.000Z</time>
      </trkpt>
      <trkpt lat="43.46813" lon="6.76589">
        <ele>87</ele>
        <time>2013-09-18T13:28:38.000Z</time>
      </trkpt>
      <trkpt lat="43.46814" lon="6.76588">
        <ele>87</ele>
        <time>2013-09-18T13:28:39.000Z</time>
      </trkpt>
      <trkpt lat="43.46814" lon="6.76588">
        <ele>87</ele>
        <time>2013-09-18T13:28:40.000Z</time>
      </trkpt>
      <trkpt lat="43.46815" lon="6.76588">
        <ele>87</ele>
        <time>2013-09-18T13:28:42.000Z</time>
      </trkpt>
      <trkpt lat="43.46816" lon="6.76588">
        <ele>87</ele>
        <time>2013-09-18T13:28:43.000Z</time>
      </trkpt>
      <trkpt lat="43.46817" lon="6.76587">
        <ele>87</ele>
        <time>2013-09-18T13:28:44.000Z</time>
      </trkpt>
      <trkpt lat="43.46818" lon="6.76586">
        <ele>87</ele>
        <time>2013-09-18T13:28:45.000Z</time>
      </trkpt>
      <trkpt lat="43.4682" lon="6.76584">
        <ele>87</ele>
        <time>2013-09-18T13:28:46.000Z</time>
      </trkpt>
      <trkpt lat="43.46822" lon="6.76582">
        <ele>87</ele>
        <time>2013-09-18T13:28:47.000Z</time>
      </trkpt>
      <trkpt lat="43.46824" lon="6.76581">
        <ele>87</ele>
        <time>2013-09-18T13:28:48.000Z</time>
      </trkpt>
      <trkpt lat="43.46827" lon="6.76579">
        <ele>87</ele>
        <time>2013-09-18T13:28:49.000Z</time>
      </trkpt>
      <trkpt lat="43.4683" lon="6.76577">
        <ele>87</ele>
        <time>2013-09-18T13:28:50.000Z</time>
      </trkpt>
      <trkpt lat="43.46832" lon="6.76574">
        <ele>87</ele>
        <time>2013-09-18T13:28:51.000Z</time>
      </trkpt>
      <trkpt lat="43.46834" lon="6.7657">
        <ele>87</ele>
        <time>2013-09-18T13:28:52.000Z</time>
      </trkpt>
      <trkpt lat="43.46836" lon="6.76566">
        <ele>87</ele>
        <time>2013-09-18T13:28:53.000Z</time>
      </trkpt>
      <trkpt lat="43.46837" lon="6.76561">
        <ele>86</ele>
        <time>2013-09-18T13:28:54.000Z</time>
      </trkpt>
      <trkpt lat="43.46839" lon="6.76556">
        <ele>86</ele>
        <time>2013-09-18T13:28:55.000Z</time>
      </trkpt>
      <trkpt lat="43.4684" lon="6.76552">
        <ele>86</ele>
        <time>2013-09-18T13:28:56.000Z</time>
      </trkpt>
      <trkpt lat="43.46843" lon="6.76548">
        <ele>86</ele>
        <time>2013-09-18T13:28:57.000Z</time>
      </trkpt>
      <trkpt lat="43.46845" lon="6.76545">
        <ele>86</ele>
        <time>2013-09-18T13:28:58.000Z</time>
      </trkpt>
      <trkpt lat="43.46847" lon="6.76542">
        <ele>86</ele>
        <time>2013-09-18T13:28:59.000Z</time>
      </trkpt>
      <trkpt lat="43.4685" lon="6.76539">
        <ele>86</ele>
        <time>2013-09-18T13:29:00.000Z</time>
      </trkpt>
      <trkpt lat="43.46852" lon="6.76536">
        <ele>85</ele>
        <time>2013-09-18T13:29:01.000Z</time>
      </trkpt>
      <trkpt lat="43.46855" lon="6.76533">
        <ele>85</ele>
        <time>2013-09-18T13:29:02.000Z</time>
      </trkpt>
      <trkpt lat="43.46857" lon="6.76529">
        <ele>85</ele>
        <time>2013-09-18T13:29:03.000Z</time>
      </trkpt>
      <trkpt lat="43.4686" lon="6.76526">
        <ele>85</ele>
        <time>2013-09-18T13:29:04.000Z</time>
      </trkpt>
      <trkpt lat="43.46862" lon="6.76523">
        <ele>85</ele>
        <time>2013-09-18T13:29:05.000Z</time>
      </trkpt>
      <trkpt lat="43.46864" lon="6.76519">
        <ele>85</ele>
        <time>2013-09-18T13:29:06.000Z</time>
      </trkpt>
      <trkpt lat="43.46867" lon="6.76517">
        <ele>85</ele>
        <time>2013-09-18T13:29:07.000Z</time>
      </trkpt>
      <trkpt lat="43.4687" lon="6.76515">
        <ele>85</ele>
        <time>2013-09-18T13:29:08.000Z</time>
      </trkpt>
      <trkpt lat="43.46873" lon="6.76512">
        <ele>85</ele>
        <time>2013-09-18T13:29:09.000Z</time>
      </trkpt>
      <trkpt lat="43.46876" lon="6.76509">
        <ele>85</ele>
        <time>2013-09-18T13:29:10.000Z</time>
      </trkpt>
      <trkpt lat="43.46878" lon="6.76505">
        <ele>85</ele>
        <time>2013-09-18T13:29:11.000Z</time>
      </trkpt>
      <trkpt lat="43.46881" lon="6.76501">
        <ele>84</ele>
        <time>2013-09-18T13:29:12.000Z</time>
      </trkpt>
      <trkpt lat="43.46884" lon="6.76497">
        <ele>83</ele>
        <time>2013-09-18T13:29:13.000Z</time>
      </trkpt>
      <trkpt lat="43.46886" lon="6.76494">
        <ele>83</ele>
        <time>2013-09-18T13:29:14.000Z</time>
      </trkpt>
      <trkpt lat="43.46889" lon="6.7649">
        <ele>83</ele>
        <time>2013-09-18T13:29:15.000Z</time>
      </trkpt>
      <trkpt lat="43.46892" lon="6.76485">
        <ele>83</ele>
        <time>2013-09-18T13:29:16.000Z</time>
      </trkpt>
      <trkpt lat="43.46895" lon="6.76481">
        <ele>83</ele>
        <time>2013-09-18T13:29:17.000Z</time>
      </trkpt>
      <trkpt lat="43.46898" lon="6.76476">
        <ele>83</ele>
        <time>2013-09-18T13:29:18.000Z</time>
      </trkpt>
      <trkpt lat="43.46901" lon="6.7647">
        <ele>83</ele>
        <time>2013-09-18T13:29:19.000Z</time>
      </trkpt>
      <trkpt lat="43.46904" lon="6.76465">
        <ele>83</ele>
        <time>2013-09-18T13:29:20.000Z</time>
      </trkpt>
      <trkpt lat="43.46908" lon="6.7646">
        <ele>83</ele>
        <time>2013-09-18T13:29:21.000Z</time>
      </trkpt>
      <trkpt lat="43.46912" lon="6.76454">
        <ele>83</ele>
        <time>2013-09-18T13:29:22.000Z</time>
      </trkpt>
      <trkpt lat="43.46916" lon="6.76448">
        <ele>83</ele>
        <time>2013-09-18T13:29:23.000Z</time>
      </trkpt>
      <trkpt lat="43.4692" lon="6.76442">
        <ele>80</ele>
        <time>2013-09-18T13:29:24.000Z</time>
      </trkpt>
      <trkpt lat="43.46924" lon="6.76436">
        <ele>80</ele>
        <time>2013-09-18T13:29:25.000Z</time>
      </trkpt>
      <trkpt lat="43.46929" lon="6.7643">
        <ele>80</ele>
        <time>2013-09-18T13:29:26.000Z</time>
      </trkpt>
      <trkpt lat="43.46933" lon="6.76424">
        <ele>80</ele>
        <time>2013-09-18T13:29:27.000Z</time>
      </trkpt>
      <trkpt lat="43.46938" lon="6.76417">
        <ele>80</ele>
        <time>2013-09-18T13:29:28.000Z</time>
      </trkpt>
      <trkpt lat="43.46942" lon="6.7641">
        <ele>78</ele>
        <time>2013-09-18T13:29:29.000Z</time>
      </trkpt>
      <trkpt lat="43.46947" lon="6.76404">
        <ele>77</ele>
        <time>2013-09-18T13:29:30.000Z</time>
      </trkpt>
      <trkpt lat="43.46952" lon="6.76397">
        <ele>77</ele>
        <time>2013-09-18T13:29:31.000Z</time>
      </trkpt>
      <trkpt lat="43.46957" lon="6.76389">
        <ele>76</ele>
        <time>2013-09-18T13:29:32.000Z</time>
      </trkpt>
      <trkpt lat="43.46962" lon="6.76382">
        <ele>76</ele>
        <time>2013-09-18T13:29:33.000Z</time>
      </trkpt>
      <trkpt lat="43.46968" lon="6.76375">
        <ele>76</ele>
        <time>2013-09-18T13:29:34.000Z</time>
      </trkpt>
      <trkpt lat="43.46974" lon="6.76367">
        <ele>75</ele>
        <time>2013-09-18T13:29:35.000Z</time>
      </trkpt>
      <trkpt lat="43.4698" lon="6.7636">
        <ele>75</ele>
        <time>2013-09-18T13:29:36.000Z</time>
      </trkpt>
      <trkpt lat="43.46986" lon="6.76353">
        <ele>75</ele>
        <time>2013-09-18T13:29:37.000Z</time>
      </trkpt>
      <trkpt lat="43.46993" lon="6.76347">
        <ele>74</ele>
        <time>2013-09-18T13:29:38.000Z</time>
      </trkpt>
      <trkpt lat="43.47" lon="6.7634">
        <ele>71</ele>
        <time>2013-09-18T13:29:39.000Z</time>
      </trkpt>
      <trkpt lat="43.47008" lon="6.76333">
        <ele>71</ele>
        <time>2013-09-18T13:29:40.000Z</time>
      </trkpt>
      <trkpt lat="43.47015" lon="6.76327">
        <ele>68</ele>
        <time>2013-09-18T13:29:41.000Z</time>
      </trkpt>
      <trkpt lat="43.47022" lon="6.76321">
        <ele>67</ele>
        <time>2013-09-18T13:29:42.000Z</time>
      </trkpt>
      <trkpt lat="43.47029" lon="6.76314">
        <ele>66</ele>
        <time>2013-09-18T13:29:43.000Z</time>
      </trkpt>
      <trkpt lat="43.47035" lon="6.76308">
        <ele>65</ele>
        <time>2013-09-18T13:29:44.000Z</time>
      </trkpt>
      <trkpt lat="43.4704" lon="6.763">
        <ele>64</ele>
        <time>2013-09-18T13:29:45.000Z</time>
      </trkpt>
      <trkpt lat="43.47045" lon="6.76292">
        <ele>63</ele>
        <time>2013-09-18T13:29:46.000Z</time>
      </trkpt>
      <trkpt lat="43.4705" lon="6.76282">
        <ele>63</ele>
        <time>2013-09-18T13:29:47.000Z</time>
      </trkpt>
      <trkpt lat="43.47053" lon="6.76271">
        <ele>62</ele>
        <time>2013-09-18T13:29:48.000Z</time>
      </trkpt>
      <trkpt lat="43.47056" lon="6.7626">
        <ele>62</ele>
        <time>2013-09-18T13:29:49.000Z</time>
      </trkpt>
      <trkpt lat="43.47058" lon="6.76247">
        <ele>60</ele>
        <time>2013-09-18T13:29:50.000Z</time>
      </trkpt>
      <trkpt lat="43.4706" lon="6.76234">
        <ele>60</ele>
        <time>2013-09-18T13:29:51.000Z</time>
      </trkpt>
      <trkpt lat="43.47062" lon="6.76221">
        <ele>60</ele>
        <time>2013-09-18T13:29:52.000Z</time>
      </trkpt>
      <trkpt lat="43.47065" lon="6.76208">
        <ele>59</ele>
        <time>2013-09-18T13:29:53.000Z</time>
      </trkpt>
      <trkpt lat="43.47069" lon="6.76195">
        <ele>58</ele>
        <time>2013-09-18T13:29:54.000Z</time>
      </trkpt>
      <trkpt lat="43.47073" lon="6.76181">
        <ele>57</ele>
        <time>2013-09-18T13:29:55.000Z</time>
      </trkpt>
      <trkpt lat="43.47078" lon="6.76168">
        <ele>55</ele>
        <time>2013-09-18T13:29:56.000Z</time>
      </trkpt>
      <trkpt lat="43.47083" lon="6.76154">
        <ele>54</ele>
        <time>2013-09-18T13:29:57.000Z</time>
      </trkpt>
      <trkpt lat="43.47088" lon="6.76141">
        <ele>48</ele>
        <time>2013-09-18T13:29:58.000Z</time>
      </trkpt>
      <trkpt lat="43.47092" lon="6.76129">
        <ele>47</ele>
        <time>2013-09-18T13:29:59.000Z</time>
      </trkpt>
      <trkpt lat="43.47097" lon="6.76116">
        <ele>47</ele>
        <time>2013-09-18T13:30:00.000Z</time>
      </trkpt>
      <trkpt lat="43.47102" lon="6.76103">
        <ele>46</ele>
        <time>2013-09-18T13:30:01.000Z</time>
      </trkpt>
      <trkpt lat="43.47106" lon="6.76091">
        <ele>46</ele>
        <time>2013-09-18T13:30:02.000Z</time>
      </trkpt>
      <trkpt lat="43.4711" lon="6.7608">
        <ele>44</ele>
        <time>2013-09-18T13:30:03.000Z</time>
      </trkpt>
      <trkpt lat="43.47113" lon="6.76068">
        <ele>43</ele>
        <time>2013-09-18T13:30:04.000Z</time>
      </trkpt>
      <trkpt lat="43.47116" lon="6.76056">
        <ele>43</ele>
        <time>2013-09-18T13:30:05.000Z</time>
      </trkpt>
      <trkpt lat="43.47119" lon="6.76044">
        <ele>42</ele>
        <time>2013-09-18T13:30:06.000Z</time>
      </trkpt>
      <trkpt lat="43.47122" lon="6.7603">
        <ele>42</ele>
        <time>2013-09-18T13:30:07.000Z</time>
      </trkpt>
      <trkpt lat="43.47125" lon="6.76016">
        <ele>42</ele>
        <time>2013-09-18T13:30:08.000Z</time>
      </trkpt>
      <trkpt lat="43.47127" lon="6.76001">
        <ele>42</ele>
        <time>2013-09-18T13:30:09.000Z</time>
      </trkpt>
      <trkpt lat="43.4713" lon="6.75987">
        <ele>40</ele>
        <time>2013-09-18T13:30:10.000Z</time>
      </trkpt>
      <trkpt lat="43.47133" lon="6.75972">
        <ele>40</ele>
        <time>2013-09-18T13:30:11.000Z</time>
      </trkpt>
      <trkpt lat="43.47135" lon="6.75957">
        <ele>40</ele>
        <time>2013-09-18T13:30:12.000Z</time>
      </trkpt>
      <trkpt lat="43.47137" lon="6.75944">
        <ele>40</ele>
        <time>2013-09-18T13:30:13.000Z</time>
      </trkpt>
      <trkpt lat="43.47138" lon="6.75933">
        <ele>39</ele>
        <time>2013-09-18T13:30:14.000Z</time>
      </trkpt>
      <trkpt lat="43.4714" lon="6.75922">
        <ele>39</ele>
        <time>2013-09-18T13:30:15.000Z</time>
      </trkpt>
      <trkpt lat="43.47141" lon="6.75911">
        <ele>39</ele>
        <time>2013-09-18T13:30:16.000Z</time>
      </trkpt>
      <trkpt lat="43.47142" lon="6.75901">
        <ele>39</ele>
        <time>2013-09-18T13:30:17.000Z</time>
      </trkpt>
      <trkpt lat="43.47143" lon="6.75892">
        <ele>39</ele>
        <time>2013-09-18T13:30:18.000Z</time>
      </trkpt>
      <trkpt lat="43.47146" lon="6.75884">
        <ele>39</ele>
        <time>2013-09-18T13:30:19.000Z</time>
      </trkpt>
      <trkpt lat="43.47149" lon="6.75876">
        <ele>39</ele>
        <time>2013-09-18T13:30:20.000Z</time>
      </trkpt>
      <trkpt lat="43.47153" lon="6.7587">
        <ele>39</ele>
        <time>2013-09-18T13:30:21.000Z</time>
      </trkpt>
      <trkpt lat="43.47156" lon="6.75863">
        <ele>39</ele>
        <time>2013-09-18T13:30:22.000Z</time>
      </trkpt>
      <trkpt lat="43.47159" lon="6.75856">
        <ele>39</ele>
        <time>2013-09-18T13:30:23.000Z</time>
      </trkpt>
      <trkpt lat="43.47161" lon="6.7585">
        <ele>39</ele>
        <time>2013-09-18T13:30:24.000Z</time>
      </trkpt>
      <trkpt lat="43.47162" lon="6.75844">
        <ele>39</ele>
        <time>2013-09-18T13:30:25.000Z</time>
      </trkpt>
      <trkpt lat="43.47163" lon="6.75838">
        <ele>39</ele>
        <time>2013-09-18T13:30:26.000Z</time>
      </trkpt>
      <trkpt lat="43.47164" lon="6.75831">
        <ele>39</ele>
        <time>2013-09-18T13:30:27.000Z</time>
      </trkpt>
      <trkpt lat="43.47165" lon="6.75825">
        <ele>39</ele>
        <time>2013-09-18T13:30:28.000Z</time>
      </trkpt>
      <trkpt lat="43.47165" lon="6.75818">
        <ele>38</ele>
        <time>2013-09-18T13:30:29.000Z</time>
      </trkpt>
      <trkpt lat="43.47165" lon="6.75805">
        <ele>38</ele>
        <time>2013-09-18T13:30:31.000Z</time>
      </trkpt>
      <trkpt lat="43.47165" lon="6.75799">
        <ele>38</ele>
        <time>2013-09-18T13:30:32.000Z</time>
      </trkpt>
      <trkpt lat="43.47166" lon="6.75792">
        <ele>38</ele>
        <time>2013-09-18T13:30:33.000Z</time>
      </trkpt>
      <trkpt lat="43.47166" lon="6.75786">
        <ele>38</ele>
        <time>2013-09-18T13:30:34.000Z</time>
      </trkpt>
      <trkpt lat="43.47167" lon="6.7578">
        <ele>40</ele>
        <time>2013-09-18T13:30:35.000Z</time>
      </trkpt>
      <trkpt lat="43.47167" lon="6.75775">
        <ele>40</ele>
        <time>2013-09-18T13:30:36.000Z</time>
      </trkpt>
      <trkpt lat="43.47168" lon="6.7577">
        <ele>40</ele>
        <time>2013-09-18T13:30:37.000Z</time>
      </trkpt>
      <trkpt lat="43.4717" lon="6.75764">
        <ele>39</ele>
        <time>2013-09-18T13:30:38.000Z</time>
      </trkpt>
      <trkpt lat="43.47171" lon="6.75759">
        <ele>38</ele>
        <time>2013-09-18T13:30:39.000Z</time>
      </trkpt>
      <trkpt lat="43.47173" lon="6.75753">
        <ele>38</ele>
        <time>2013-09-18T13:30:40.000Z</time>
      </trkpt>
      <trkpt lat="43.47175" lon="6.75749">
        <ele>37</ele>
        <time>2013-09-18T13:30:41.000Z</time>
      </trkpt>
      <trkpt lat="43.47177" lon="6.75744">
        <ele>37</ele>
        <time>2013-09-18T13:30:42.000Z</time>
      </trkpt>
      <trkpt lat="43.47179" lon="6.75738">
        <ele>37</ele>
        <time>2013-09-18T13:30:43.000Z</time>
      </trkpt>
      <trkpt lat="43.47181" lon="6.75732">
        <ele>38</ele>
        <time>2013-09-18T13:30:44.000Z</time>
      </trkpt>
      <trkpt lat="43.47183" lon="6.75726">
        <ele>38</ele>
        <time>2013-09-18T13:30:45.000Z</time>
      </trkpt>
      <trkpt lat="43.47185" lon="6.75718">
        <ele>38</ele>
        <time>2013-09-18T13:30:46.000Z</time>
      </trkpt>
      <trkpt lat="43.47186" lon="6.75711">
        <ele>38</ele>
        <time>2013-09-18T13:30:47.000Z</time>
      </trkpt>
      <trkpt lat="43.47186" lon="6.75702">
        <ele>37</ele>
        <time>2013-09-18T13:30:48.000Z</time>
      </trkpt>
      <trkpt lat="43.47186" lon="6.75694">
        <ele>37</ele>
        <time>2013-09-18T13:30:49.000Z</time>
      </trkpt>
      <trkpt lat="43.47186" lon="6.75686">
        <ele>37</ele>
        <time>2013-09-18T13:30:50.000Z</time>
      </trkpt>
      <trkpt lat="43.47185" lon="6.75677">
        <ele>36</ele>
        <time>2013-09-18T13:30:51.000Z</time>
      </trkpt>
      <trkpt lat="43.47185" lon="6.75668">
        <ele>36</ele>
        <time>2013-09-18T13:30:52.000Z</time>
      </trkpt>
      <trkpt lat="43.47185" lon="6.75659">
        <ele>34</ele>
        <time>2013-09-18T13:30:53.000Z</time>
      </trkpt>
      <trkpt lat="43.47186" lon="6.7565">
        <ele>34</ele>
        <time>2013-09-18T13:30:54.000Z</time>
      </trkpt>
      <trkpt lat="43.47187" lon="6.75642">
        <ele>34</ele>
        <time>2013-09-18T13:30:55.000Z</time>
      </trkpt>
      <trkpt lat="43.47189" lon="6.75633">
        <ele>34</ele>
        <time>2013-09-18T13:30:56.000Z</time>
      </trkpt>
      <trkpt lat="43.47192" lon="6.75625">
        <ele>34</ele>
        <time>2013-09-18T13:30:57.000Z</time>
      </trkpt>
      <trkpt lat="43.47195" lon="6.75618">
        <ele>34</ele>
        <time>2013-09-18T13:30:58.000Z</time>
      </trkpt>
      <trkpt lat="43.47198" lon="6.75611">
        <ele>34</ele>
        <time>2013-09-18T13:30:59.000Z</time>
      </trkpt>
      <trkpt lat="43.47201" lon="6.75604">
        <ele>34</ele>
        <time>2013-09-18T13:31:00.000Z</time>
      </trkpt>
      <trkpt lat="43.47205" lon="6.75597">
        <ele>34</ele>
        <time>2013-09-18T13:31:01.000Z</time>
      </trkpt>
      <trkpt lat="43.47208" lon="6.7559">
        <ele>34</ele>
        <time>2013-09-18T13:31:02.000Z</time>
      </trkpt>
      <trkpt lat="43.47212" lon="6.75584">
        <ele>34</ele>
        <time>2013-09-18T13:31:03.000Z</time>
      </trkpt>
      <trkpt lat="43.47216" lon="6.75577">
        <ele>33</ele>
        <time>2013-09-18T13:31:04.000Z</time>
      </trkpt>
      <trkpt lat="43.47219" lon="6.7557">
        <ele>33</ele>
        <time>2013-09-18T13:31:05.000Z</time>
      </trkpt>
      <trkpt lat="43.47222" lon="6.75564">
        <ele>33</ele>
        <time>2013-09-18T13:31:06.000Z</time>
      </trkpt>
      <trkpt lat="43.47226" lon="6.75557">
        <ele>33</ele>
        <time>2013-09-18T13:31:07.000Z</time>
      </trkpt>
      <trkpt lat="43.47229" lon="6.75551">
        <ele>33</ele>
        <time>2013-09-18T13:31:08.000Z</time>
      </trkpt>
      <trkpt lat="43.47233" lon="6.75545">
        <ele>33</ele>
        <time>2013-09-18T13:31:09.000Z</time>
      </trkpt>
      <trkpt lat="43.47236" lon="6.75538">
        <ele>33</ele>
        <time>2013-09-18T13:31:10.000Z</time>
      </trkpt>
      <trkpt lat="43.4724" lon="6.75532">
        <ele>33</ele>
        <time>2013-09-18T13:31:11.000Z</time>
      </trkpt>
      <trkpt lat="43.47243" lon="6.75525">
        <ele>33</ele>
        <time>2013-09-18T13:31:12.000Z</time>
      </trkpt>
      <trkpt lat="43.47246" lon="6.75517">
        <ele>33</ele>
        <time>2013-09-18T13:31:13.000Z</time>
      </trkpt>
      <trkpt lat="43.47249" lon="6.7551">
        <ele>32</ele>
        <time>2013-09-18T13:31:14.000Z</time>
      </trkpt>
      <trkpt lat="43.47252" lon="6.75502">
        <ele>33</ele>
        <time>2013-09-18T13:31:15.000Z</time>
      </trkpt>
      <trkpt lat="43.47254" lon="6.75494">
        <ele>33</ele>
        <time>2013-09-18T13:31:16.000Z</time>
      </trkpt>
      <trkpt lat="43.47257" lon="6.75486">
        <ele>34</ele>
        <time>2013-09-18T13:31:17.000Z</time>
      </trkpt>
      <trkpt lat="43.47259" lon="6.75478">
        <ele>34</ele>
        <time>2013-09-18T13:31:18.000Z</time>
      </trkpt>
      <trkpt lat="43.47261" lon="6.7547">
        <ele>35</ele>
        <time>2013-09-18T13:31:19.000Z</time>
      </trkpt>
      <trkpt lat="43.47263" lon="6.75461">
        <ele>35</ele>
        <time>2013-09-18T13:31:20.000Z</time>
      </trkpt>
      <trkpt lat="43.47264" lon="6.75453">
        <ele>35</ele>
        <time>2013-09-18T13:31:21.000Z</time>
      </trkpt>
      <trkpt lat="43.47266" lon="6.75445">
        <ele>34</ele>
        <time>2013-09-18T13:31:22.000Z</time>
      </trkpt>
      <trkpt lat="43.47267" lon="6.75436">
        <ele>34</ele>
        <time>2013-09-18T13:31:23.000Z</time>
      </trkpt>
      <trkpt lat="43.47268" lon="6.75428">
        <ele>34</ele>
        <time>2013-09-18T13:31:24.000Z</time>
      </trkpt>
      <trkpt lat="43.47269" lon="6.7542">
        <ele>34</ele>
        <time>2013-09-18T13:31:25.000Z</time>
      </trkpt>
      <trkpt lat="43.47269" lon="6.75411">
        <ele>34</ele>
        <time>2013-09-18T13:31:26.000Z</time>
      </trkpt>
      <trkpt lat="43.4727" lon="6.75404">
        <ele>34</ele>
        <time>2013-09-18T13:31:27.000Z</time>
      </trkpt>
      <trkpt lat="43.4727" lon="6.75396">
        <ele>34</ele>
        <time>2013-09-18T13:31:28.000Z</time>
      </trkpt>
      <trkpt lat="43.47271" lon="6.75389">
        <ele>34</ele>
        <time>2013-09-18T13:31:29.000Z</time>
      </trkpt>
      <trkpt lat="43.47271" lon="6.75382">
        <ele>34</ele>
        <time>2013-09-18T13:31:30.000Z</time>
      </trkpt>
      <trkpt lat="43.47271" lon="6.75368">
        <ele>35</ele>
        <time>2013-09-18T13:31:32.000Z</time>
      </trkpt>
      <trkpt lat="43.47273" lon="6.75361">
        <ele>35</ele>
        <time>2013-09-18T13:31:33.000Z</time>
      </trkpt>
      <trkpt lat="43.47274" lon="6.75355">
        <ele>35</ele>
        <time>2013-09-18T13:31:34.000Z</time>
      </trkpt>
      <trkpt lat="43.47276" lon="6.75349">
        <ele>35</ele>
        <time>2013-09-18T13:31:35.000Z</time>
      </trkpt>
      <trkpt lat="43.47277" lon="6.75344">
        <ele>35</ele>
        <time>2013-09-18T13:31:36.000Z</time>
      </trkpt>
      <trkpt lat="43.47279" lon="6.75339">
        <ele>35</ele>
        <time>2013-09-18T13:31:37.000Z</time>
      </trkpt>
      <trkpt lat="43.47281" lon="6.75335">
        <ele>35</ele>
        <time>2013-09-18T13:31:38.000Z</time>
      </trkpt>
      <trkpt lat="43.47283" lon="6.7533">
        <ele>34</ele>
        <time>2013-09-18T13:31:39.000Z</time>
      </trkpt>
      <trkpt lat="43.47284" lon="6.75326">
        <ele>34</ele>
        <time>2013-09-18T13:31:40.000Z</time>
      </trkpt>
      <trkpt lat="43.47286" lon="6.75323">
        <ele>34</ele>
        <time>2013-09-18T13:31:41.000Z</time>
      </trkpt>
      <trkpt lat="43.47287" lon="6.7532">
        <ele>34</ele>
        <time>2013-09-18T13:31:42.000Z</time>
      </trkpt>
      <trkpt lat="43.47288" lon="6.75318">
        <ele>34</ele>
        <time>2013-09-18T13:31:43.000Z</time>
      </trkpt>
      <trkpt lat="43.47287" lon="6.75316">
        <ele>34</ele>
        <time>2013-09-18T13:31:44.000Z</time>
      </trkpt>
      <trkpt lat="43.47285" lon="6.75315">
        <ele>34</ele>
        <time>2013-09-18T13:31:45.000Z</time>
      </trkpt>
    </trkseg>
  </trk>
</gpx>